<?xml version="1.0" encoding="UTF-8" standalone="no" ?>
<gpx xmlns="http://www.topografix.com/GPX/1/1" xmlns:xsi="http://www.w3.org/2001/XMLSchema-instance" xsi:schemaLocation="http://www.topografix.com/GPX/1/1 http://www.topografix.com/GPX/1/1/gpx.xsd" version="1.1" creator="VisuGPX - https://www.visugpx.com">
  <metadata>
    <name>UT4M Chartreuse</name>
    <desc><![CDATA[UT4M 2016 - Chartreuse]]></desc>
  </metadata>
  <trk>
    <name><![CDATA[Chartreuse]]></name>
    <trkseg>
      <trkpt lat="45.24898" lon="5.85149">
        <ele>282.5</ele>
        <time>2015-08-22T15:38:12Z</time>
      </trkpt>
      <trkpt lat="45.24899" lon="5.8515">
        <ele>282.6</ele>
        <time>2015-08-22T15:39:02Z</time>
      </trkpt>
      <trkpt lat="45.24899" lon="5.8515">
        <ele>282.6</ele>
        <time>2015-08-22T15:39:38Z</time>
      </trkpt>
      <trkpt lat="45.24899" lon="5.8515">
        <ele>282.6</ele>
        <time>2015-08-22T15:39:48Z</time>
      </trkpt>
      <trkpt lat="45.249" lon="5.85151">
        <ele>282.6</ele>
        <time>2015-08-22T15:40:32Z</time>
      </trkpt>
      <trkpt lat="45.249" lon="5.85151">
        <ele>282.6</ele>
        <time>2015-08-22T15:41:47Z</time>
      </trkpt>
      <trkpt lat="45.249" lon="5.85151">
        <ele>282.7</ele>
        <time>2015-08-22T15:41:54Z</time>
      </trkpt>
      <trkpt lat="45.24901" lon="5.85152">
        <ele>282.7</ele>
        <time>2015-08-22T15:42:17Z</time>
      </trkpt>
      <trkpt lat="45.24901" lon="5.85152">
        <ele>282.7</ele>
        <time>2015-08-22T15:43:05Z</time>
      </trkpt>
      <trkpt lat="45.24901" lon="5.85152">
        <ele>282.7</ele>
        <time>2015-08-22T15:43:18Z</time>
      </trkpt>
      <trkpt lat="45.24902" lon="5.85153">
        <ele>282.7</ele>
        <time>2015-08-22T15:43:23Z</time>
      </trkpt>
      <trkpt lat="45.24902" lon="5.85153">
        <ele>282.7</ele>
        <time>2015-08-22T15:43:30Z</time>
      </trkpt>
      <trkpt lat="45.24902" lon="5.85153">
        <ele>282.8</ele>
        <time>2015-08-22T15:43:36Z</time>
      </trkpt>
      <trkpt lat="45.24903" lon="5.85154">
        <ele>282.8</ele>
        <time>2015-08-22T15:43:41Z</time>
      </trkpt>
      <trkpt lat="45.24903" lon="5.85154">
        <ele>282.8</ele>
        <time>2015-08-22T15:43:45Z</time>
      </trkpt>
      <trkpt lat="45.24903" lon="5.85154">
        <ele>282.8</ele>
        <time>2015-08-22T15:43:52Z</time>
      </trkpt>
      <trkpt lat="45.24903" lon="5.85155">
        <ele>282.8</ele>
        <time>2015-08-22T15:43:57Z</time>
      </trkpt>
      <trkpt lat="45.24904" lon="5.85155">
        <ele>282.9</ele>
        <time>2015-08-22T15:43:58Z</time>
      </trkpt>
      <trkpt lat="45.2491" lon="5.85153">
        <ele>283.1</ele>
        <time>2015-08-22T15:44:02Z</time>
      </trkpt>
      <trkpt lat="45.24916" lon="5.85151">
        <ele>283.3</ele>
        <time>2015-08-22T15:44:06Z</time>
      </trkpt>
      <trkpt lat="45.24917" lon="5.85151">
        <ele>283.3</ele>
        <time>2015-08-22T15:44:07Z</time>
      </trkpt>
      <trkpt lat="45.24924" lon="5.85145">
        <ele>283.5</ele>
        <time>2015-08-22T15:44:13Z</time>
      </trkpt>
      <trkpt lat="45.24932" lon="5.85139">
        <ele>283.8</ele>
        <time>2015-08-22T15:44:21Z</time>
      </trkpt>
      <trkpt lat="45.2494" lon="5.85135">
        <ele>284.2</ele>
        <time>2015-08-22T15:44:28Z</time>
      </trkpt>
      <trkpt lat="45.24949" lon="5.85135">
        <ele>284.6</ele>
        <time>2015-08-22T15:44:35Z</time>
      </trkpt>
      <trkpt lat="45.24958" lon="5.85137">
        <ele>285</ele>
        <time>2015-08-22T15:44:43Z</time>
      </trkpt>
      <trkpt lat="45.24966" lon="5.85138">
        <ele>285.6</ele>
        <time>2015-08-22T15:44:49Z</time>
      </trkpt>
      <trkpt lat="45.24968" lon="5.85137">
        <ele>285.8</ele>
        <time>2015-08-22T15:44:50Z</time>
      </trkpt>
      <trkpt lat="45.24975" lon="5.85137">
        <ele>286.3</ele>
        <time>2015-08-22T15:44:56Z</time>
      </trkpt>
      <trkpt lat="45.24983" lon="5.85139">
        <ele>287</ele>
        <time>2015-08-22T15:45:03Z</time>
      </trkpt>
      <trkpt lat="45.24992" lon="5.85142">
        <ele>287.7</ele>
        <time>2015-08-22T15:45:10Z</time>
      </trkpt>
      <trkpt lat="45.25" lon="5.85145">
        <ele>288.3</ele>
        <time>2015-08-22T15:45:17Z</time>
      </trkpt>
      <trkpt lat="45.25011" lon="5.85147">
        <ele>289.1</ele>
        <time>2015-08-22T15:45:26Z</time>
      </trkpt>
      <trkpt lat="45.25019" lon="5.85148">
        <ele>289.7</ele>
        <time>2015-08-22T15:45:34Z</time>
      </trkpt>
      <trkpt lat="45.25026" lon="5.85149">
        <ele>290.2</ele>
        <time>2015-08-22T15:45:41Z</time>
      </trkpt>
      <trkpt lat="45.25031" lon="5.8515">
        <ele>290.6</ele>
        <time>2015-08-22T15:45:47Z</time>
      </trkpt>
      <trkpt lat="45.25041" lon="5.85152">
        <ele>291.3</ele>
        <time>2015-08-22T15:45:55Z</time>
      </trkpt>
      <trkpt lat="45.25043" lon="5.85153">
        <ele>291.4</ele>
        <time>2015-08-22T15:45:57Z</time>
      </trkpt>
      <trkpt lat="45.25047" lon="5.85154">
        <ele>291.8</ele>
        <time>2015-08-22T15:46:01Z</time>
      </trkpt>
      <trkpt lat="45.25054" lon="5.85155">
        <ele>292.3</ele>
        <time>2015-08-22T15:46:06Z</time>
      </trkpt>
      <trkpt lat="45.25056" lon="5.85155">
        <ele>292.4</ele>
        <time>2015-08-22T15:46:07Z</time>
      </trkpt>
      <trkpt lat="45.25066" lon="5.85157">
        <ele>293.3</ele>
        <time>2015-08-22T15:46:14Z</time>
      </trkpt>
      <trkpt lat="45.25073" lon="5.85158">
        <ele>293.8</ele>
        <time>2015-08-22T15:46:19Z</time>
      </trkpt>
      <trkpt lat="45.25076" lon="5.85159">
        <ele>294</ele>
        <time>2015-08-22T15:46:21Z</time>
      </trkpt>
      <trkpt lat="45.25082" lon="5.8516">
        <ele>294.6</ele>
        <time>2015-08-22T15:46:28Z</time>
      </trkpt>
      <trkpt lat="45.25084" lon="5.8516">
        <ele>294.7</ele>
        <time>2015-08-22T15:46:31Z</time>
      </trkpt>
      <trkpt lat="45.25087" lon="5.8516">
        <ele>295</ele>
        <time>2015-08-22T15:46:34Z</time>
      </trkpt>
      <trkpt lat="45.25088" lon="5.85161">
        <ele>295</ele>
        <time>2015-08-22T15:46:35Z</time>
      </trkpt>
      <trkpt lat="45.25096" lon="5.85161">
        <ele>295.7</ele>
        <time>2015-08-22T15:46:41Z</time>
      </trkpt>
      <trkpt lat="45.25103" lon="5.85157">
        <ele>296.4</ele>
        <time>2015-08-22T15:46:46Z</time>
      </trkpt>
      <trkpt lat="45.25104" lon="5.85154">
        <ele>296.5</ele>
        <time>2015-08-22T15:46:48Z</time>
      </trkpt>
      <trkpt lat="45.25104" lon="5.85141">
        <ele>296.9</ele>
        <time>2015-08-22T15:46:54Z</time>
      </trkpt>
      <trkpt lat="45.25104" lon="5.85135">
        <ele>297</ele>
        <time>2015-08-22T15:46:56Z</time>
      </trkpt>
      <trkpt lat="45.25101" lon="5.85127">
        <ele>297</ele>
        <time>2015-08-22T15:46:59Z</time>
      </trkpt>
      <trkpt lat="45.25099" lon="5.85115">
        <ele>297.1</ele>
        <time>2015-08-22T15:47:04Z</time>
      </trkpt>
      <trkpt lat="45.25092" lon="5.851">
        <ele>296.9</ele>
        <time>2015-08-22T15:47:11Z</time>
      </trkpt>
      <trkpt lat="45.25084" lon="5.85087">
        <ele>296.4</ele>
        <time>2015-08-22T15:47:18Z</time>
      </trkpt>
      <trkpt lat="45.25078" lon="5.85078">
        <ele>296.1</ele>
        <time>2015-08-22T15:47:23Z</time>
      </trkpt>
      <trkpt lat="45.25076" lon="5.85075">
        <ele>296</ele>
        <time>2015-08-22T15:47:25Z</time>
      </trkpt>
      <trkpt lat="45.25073" lon="5.8507">
        <ele>295.8</ele>
        <time>2015-08-22T15:47:28Z</time>
      </trkpt>
      <trkpt lat="45.2507" lon="5.85065">
        <ele>295.6</ele>
        <time>2015-08-22T15:47:31Z</time>
      </trkpt>
      <trkpt lat="45.25068" lon="5.85063">
        <ele>295.4</ele>
        <time>2015-08-22T15:47:33Z</time>
      </trkpt>
      <trkpt lat="45.25061" lon="5.85055">
        <ele>294.9</ele>
        <time>2015-08-22T15:47:39Z</time>
      </trkpt>
      <trkpt lat="45.25056" lon="5.85047">
        <ele>294.4</ele>
        <time>2015-08-22T15:47:44Z</time>
      </trkpt>
      <trkpt lat="45.25052" lon="5.85041">
        <ele>294.1</ele>
        <time>2015-08-22T15:47:48Z</time>
      </trkpt>
      <trkpt lat="45.2505" lon="5.85037">
        <ele>294</ele>
        <time>2015-08-22T15:47:50Z</time>
      </trkpt>
      <trkpt lat="45.25047" lon="5.85035">
        <ele>293.9</ele>
        <time>2015-08-22T15:47:52Z</time>
      </trkpt>
      <trkpt lat="45.25044" lon="5.85028">
        <ele>293.7</ele>
        <time>2015-08-22T15:47:56Z</time>
      </trkpt>
      <trkpt lat="45.2504" lon="5.85019">
        <ele>293.6</ele>
        <time>2015-08-22T15:48:01Z</time>
      </trkpt>
      <trkpt lat="45.25039" lon="5.85018">
        <ele>293.6</ele>
        <time>2015-08-22T15:48:02Z</time>
      </trkpt>
      <trkpt lat="45.25035" lon="5.85007">
        <ele>293.6</ele>
        <time>2015-08-22T15:48:07Z</time>
      </trkpt>
      <trkpt lat="45.25032" lon="5.84987">
        <ele>294</ele>
        <time>2015-08-22T15:48:12Z</time>
      </trkpt>
      <trkpt lat="45.25029" lon="5.84975">
        <ele>294.1</ele>
        <time>2015-08-22T15:48:17Z</time>
      </trkpt>
      <trkpt lat="45.25028" lon="5.84964">
        <ele>294.4</ele>
        <time>2015-08-22T15:48:22Z</time>
      </trkpt>
      <trkpt lat="45.25031" lon="5.8495">
        <ele>294.8</ele>
        <time>2015-08-22T15:48:28Z</time>
      </trkpt>
      <trkpt lat="45.2503" lon="5.8493">
        <ele>294.5</ele>
        <time>2015-08-22T15:48:33Z</time>
      </trkpt>
      <trkpt lat="45.25031" lon="5.84926">
        <ele>294.6</ele>
        <time>2015-08-22T15:48:34Z</time>
      </trkpt>
      <trkpt lat="45.25035" lon="5.84911">
        <ele>294.8</ele>
        <time>2015-08-22T15:48:40Z</time>
      </trkpt>
      <trkpt lat="45.25037" lon="5.84899">
        <ele>294.9</ele>
        <time>2015-08-22T15:48:45Z</time>
      </trkpt>
      <trkpt lat="45.25042" lon="5.84884">
        <ele>295.1</ele>
        <time>2015-08-22T15:48:51Z</time>
      </trkpt>
      <trkpt lat="45.25046" lon="5.84872">
        <ele>295.4</ele>
        <time>2015-08-22T15:48:56Z</time>
      </trkpt>
      <trkpt lat="45.2505" lon="5.84861">
        <ele>295.7</ele>
        <time>2015-08-22T15:49:01Z</time>
      </trkpt>
      <trkpt lat="45.25055" lon="5.84846">
        <ele>296</ele>
        <time>2015-08-22T15:49:07Z</time>
      </trkpt>
      <trkpt lat="45.2506" lon="5.84831">
        <ele>296.5</ele>
        <time>2015-08-22T15:49:13Z</time>
      </trkpt>
      <trkpt lat="45.25066" lon="5.84821">
        <ele>296.8</ele>
        <time>2015-08-22T15:49:18Z</time>
      </trkpt>
      <trkpt lat="45.25071" lon="5.8481">
        <ele>297.2</ele>
        <time>2015-08-22T15:49:23Z</time>
      </trkpt>
      <trkpt lat="45.25077" lon="5.84797">
        <ele>297.5</ele>
        <time>2015-08-22T15:49:29Z</time>
      </trkpt>
      <trkpt lat="45.25082" lon="5.84782">
        <ele>298</ele>
        <time>2015-08-22T15:49:35Z</time>
      </trkpt>
      <trkpt lat="45.25088" lon="5.84769">
        <ele>298.7</ele>
        <time>2015-08-22T15:49:41Z</time>
      </trkpt>
      <trkpt lat="45.25092" lon="5.84758">
        <ele>299.1</ele>
        <time>2015-08-22T15:49:46Z</time>
      </trkpt>
      <trkpt lat="45.25093" lon="5.84756">
        <ele>299.2</ele>
        <time>2015-08-22T15:49:47Z</time>
      </trkpt>
      <trkpt lat="45.25094" lon="5.84744">
        <ele>299.5</ele>
        <time>2015-08-22T15:49:52Z</time>
      </trkpt>
      <trkpt lat="45.25096" lon="5.84733">
        <ele>299.8</ele>
        <time>2015-08-22T15:49:57Z</time>
      </trkpt>
      <trkpt lat="45.251" lon="5.84718">
        <ele>300.5</ele>
        <time>2015-08-22T15:50:03Z</time>
      </trkpt>
      <trkpt lat="45.25102" lon="5.84715">
        <ele>300.6</ele>
        <time>2015-08-22T15:50:04Z</time>
      </trkpt>
      <trkpt lat="45.25105" lon="5.84706">
        <ele>301.1</ele>
        <time>2015-08-22T15:50:08Z</time>
      </trkpt>
      <trkpt lat="45.25106" lon="5.84702">
        <ele>301.4</ele>
        <time>2015-08-22T15:50:10Z</time>
      </trkpt>
      <trkpt lat="45.25109" lon="5.84697">
        <ele>301.7</ele>
        <time>2015-08-22T15:50:13Z</time>
      </trkpt>
      <trkpt lat="45.25117" lon="5.84687">
        <ele>302.8</ele>
        <time>2015-08-22T15:50:19Z</time>
      </trkpt>
      <trkpt lat="45.25125" lon="5.84676">
        <ele>303.7</ele>
        <time>2015-08-22T15:50:26Z</time>
      </trkpt>
      <trkpt lat="45.25134" lon="5.84668">
        <ele>304.7</ele>
        <time>2015-08-22T15:50:32Z</time>
      </trkpt>
      <trkpt lat="45.25143" lon="5.84659">
        <ele>305.6</ele>
        <time>2015-08-22T15:50:40Z</time>
      </trkpt>
      <trkpt lat="45.25151" lon="5.84651">
        <ele>306.5</ele>
        <time>2015-08-22T15:50:47Z</time>
      </trkpt>
      <trkpt lat="45.25161" lon="5.84642">
        <ele>307.5</ele>
        <time>2015-08-22T15:50:55Z</time>
      </trkpt>
      <trkpt lat="45.25168" lon="5.84636">
        <ele>308.2</ele>
        <time>2015-08-22T15:51:01Z</time>
      </trkpt>
      <trkpt lat="45.25176" lon="5.84629">
        <ele>309.1</ele>
        <time>2015-08-22T15:51:08Z</time>
      </trkpt>
      <trkpt lat="45.25185" lon="5.84624">
        <ele>310</ele>
        <time>2015-08-22T15:51:15Z</time>
      </trkpt>
      <trkpt lat="45.25192" lon="5.84618">
        <ele>310.8</ele>
        <time>2015-08-22T15:51:22Z</time>
      </trkpt>
      <trkpt lat="45.25204" lon="5.8461">
        <ele>312</ele>
        <time>2015-08-22T15:51:29Z</time>
      </trkpt>
      <trkpt lat="45.25215" lon="5.84603">
        <ele>313</ele>
        <time>2015-08-22T15:51:37Z</time>
      </trkpt>
      <trkpt lat="45.2522" lon="5.84601">
        <ele>313.3</ele>
        <time>2015-08-22T15:51:40Z</time>
      </trkpt>
      <trkpt lat="45.25223" lon="5.84599">
        <ele>313.6</ele>
        <time>2015-08-22T15:51:42Z</time>
      </trkpt>
      <trkpt lat="45.25232" lon="5.84593">
        <ele>314.3</ele>
        <time>2015-08-22T15:51:48Z</time>
      </trkpt>
      <trkpt lat="45.2524" lon="5.84588">
        <ele>315</ele>
        <time>2015-08-22T15:51:54Z</time>
      </trkpt>
      <trkpt lat="45.25254" lon="5.84581">
        <ele>316.1</ele>
        <time>2015-08-22T15:52:03Z</time>
      </trkpt>
      <trkpt lat="45.25266" lon="5.84576">
        <ele>317</ele>
        <time>2015-08-22T15:52:11Z</time>
      </trkpt>
      <trkpt lat="45.2528" lon="5.8457">
        <ele>318.2</ele>
        <time>2015-08-22T15:52:21Z</time>
      </trkpt>
      <trkpt lat="45.2529" lon="5.84562">
        <ele>319.2</ele>
        <time>2015-08-22T15:52:29Z</time>
      </trkpt>
      <trkpt lat="45.25306" lon="5.84554">
        <ele>320.7</ele>
        <time>2015-08-22T15:52:40Z</time>
      </trkpt>
      <trkpt lat="45.25317" lon="5.8455">
        <ele>321.8</ele>
        <time>2015-08-22T15:52:49Z</time>
      </trkpt>
      <trkpt lat="45.25328" lon="5.84546">
        <ele>322.9</ele>
        <time>2015-08-22T15:52:58Z</time>
      </trkpt>
      <trkpt lat="45.25339" lon="5.84538">
        <ele>324.1</ele>
        <time>2015-08-22T15:53:07Z</time>
      </trkpt>
      <trkpt lat="45.25349" lon="5.84533">
        <ele>325</ele>
        <time>2015-08-22T15:53:14Z</time>
      </trkpt>
      <trkpt lat="45.25358" lon="5.84526">
        <ele>325.9</ele>
        <time>2015-08-22T15:53:21Z</time>
      </trkpt>
      <trkpt lat="45.25368" lon="5.84517">
        <ele>326.7</ele>
        <time>2015-08-22T15:53:29Z</time>
      </trkpt>
      <trkpt lat="45.25376" lon="5.84511">
        <ele>327.5</ele>
        <time>2015-08-22T15:53:36Z</time>
      </trkpt>
      <trkpt lat="45.25386" lon="5.84502">
        <ele>328.6</ele>
        <time>2015-08-22T15:53:43Z</time>
      </trkpt>
      <trkpt lat="45.25398" lon="5.84492">
        <ele>330</ele>
        <time>2015-08-22T15:53:53Z</time>
      </trkpt>
      <trkpt lat="45.25405" lon="5.84486">
        <ele>330.8</ele>
        <time>2015-08-22T15:53:59Z</time>
      </trkpt>
      <trkpt lat="45.25415" lon="5.8448">
        <ele>331.9</ele>
        <time>2015-08-22T15:54:06Z</time>
      </trkpt>
      <trkpt lat="45.25422" lon="5.84479">
        <ele>332.7</ele>
        <time>2015-08-22T15:54:11Z</time>
      </trkpt>
      <trkpt lat="45.25431" lon="5.84476">
        <ele>333.7</ele>
        <time>2015-08-22T15:54:18Z</time>
      </trkpt>
      <trkpt lat="45.25439" lon="5.84472">
        <ele>334.6</ele>
        <time>2015-08-22T15:54:24Z</time>
      </trkpt>
      <trkpt lat="45.25446" lon="5.84473">
        <ele>335.4</ele>
        <time>2015-08-22T15:54:31Z</time>
      </trkpt>
      <trkpt lat="45.25452" lon="5.84475">
        <ele>335.9</ele>
        <time>2015-08-22T15:54:35Z</time>
      </trkpt>
      <trkpt lat="45.25454" lon="5.84477">
        <ele>336.1</ele>
        <time>2015-08-22T15:54:37Z</time>
      </trkpt>
      <trkpt lat="45.25457" lon="5.84479">
        <ele>336.4</ele>
        <time>2015-08-22T15:54:39Z</time>
      </trkpt>
      <trkpt lat="45.25466" lon="5.84484">
        <ele>337</ele>
        <time>2015-08-22T15:54:45Z</time>
      </trkpt>
      <trkpt lat="45.25478" lon="5.84489">
        <ele>337.9</ele>
        <time>2015-08-22T15:54:53Z</time>
      </trkpt>
      <trkpt lat="45.2549" lon="5.84494">
        <ele>338.7</ele>
        <time>2015-08-22T15:55:01Z</time>
      </trkpt>
      <trkpt lat="45.255" lon="5.84499">
        <ele>339.5</ele>
        <time>2015-08-22T15:55:09Z</time>
      </trkpt>
      <trkpt lat="45.25507" lon="5.84504">
        <ele>340.1</ele>
        <time>2015-08-22T15:55:15Z</time>
      </trkpt>
      <trkpt lat="45.25517" lon="5.8451">
        <ele>340.9</ele>
        <time>2015-08-22T15:55:22Z</time>
      </trkpt>
      <trkpt lat="45.25528" lon="5.84509">
        <ele>341.8</ele>
        <time>2015-08-22T15:55:30Z</time>
      </trkpt>
      <trkpt lat="45.25535" lon="5.84507">
        <ele>342.4</ele>
        <time>2015-08-22T15:55:35Z</time>
      </trkpt>
      <trkpt lat="45.25545" lon="5.84505">
        <ele>343.2</ele>
        <time>2015-08-22T15:55:41Z</time>
      </trkpt>
      <trkpt lat="45.25553" lon="5.84497">
        <ele>344</ele>
        <time>2015-08-22T15:55:47Z</time>
      </trkpt>
      <trkpt lat="45.25562" lon="5.84485">
        <ele>344.7</ele>
        <time>2015-08-22T15:55:54Z</time>
      </trkpt>
      <trkpt lat="45.2557" lon="5.84477">
        <ele>345.4</ele>
        <time>2015-08-22T15:56:01Z</time>
      </trkpt>
      <trkpt lat="45.25578" lon="5.84469">
        <ele>346.1</ele>
        <time>2015-08-22T15:56:08Z</time>
      </trkpt>
      <trkpt lat="45.25588" lon="5.8446">
        <ele>346.9</ele>
        <time>2015-08-22T15:56:16Z</time>
      </trkpt>
      <trkpt lat="45.256" lon="5.84451">
        <ele>348.2</ele>
        <time>2015-08-22T15:56:24Z</time>
      </trkpt>
      <trkpt lat="45.2561" lon="5.84442">
        <ele>349.5</ele>
        <time>2015-08-22T15:56:32Z</time>
      </trkpt>
      <trkpt lat="45.2562" lon="5.84433">
        <ele>350.8</ele>
        <time>2015-08-22T15:56:40Z</time>
      </trkpt>
      <trkpt lat="45.25631" lon="5.84423">
        <ele>352.4</ele>
        <time>2015-08-22T15:56:48Z</time>
      </trkpt>
      <trkpt lat="45.25639" lon="5.84416">
        <ele>353.5</ele>
        <time>2015-08-22T15:56:54Z</time>
      </trkpt>
      <trkpt lat="45.25648" lon="5.84408">
        <ele>354.8</ele>
        <time>2015-08-22T15:57:02Z</time>
      </trkpt>
      <trkpt lat="45.25658" lon="5.844">
        <ele>356.1</ele>
        <time>2015-08-22T15:57:10Z</time>
      </trkpt>
      <trkpt lat="45.25666" lon="5.84394">
        <ele>357</ele>
        <time>2015-08-22T15:57:16Z</time>
      </trkpt>
      <trkpt lat="45.25674" lon="5.84386">
        <ele>357.9</ele>
        <time>2015-08-22T15:57:23Z</time>
      </trkpt>
      <trkpt lat="45.2568" lon="5.84381">
        <ele>358.5</ele>
        <time>2015-08-22T15:57:28Z</time>
      </trkpt>
      <trkpt lat="45.25687" lon="5.84374">
        <ele>359.3</ele>
        <time>2015-08-22T15:57:34Z</time>
      </trkpt>
      <trkpt lat="45.25697" lon="5.84366">
        <ele>360.2</ele>
        <time>2015-08-22T15:57:42Z</time>
      </trkpt>
      <trkpt lat="45.25705" lon="5.84358">
        <ele>361</ele>
        <time>2015-08-22T15:57:49Z</time>
      </trkpt>
      <trkpt lat="45.25714" lon="5.84351">
        <ele>361.8</ele>
        <time>2015-08-22T15:57:56Z</time>
      </trkpt>
      <trkpt lat="45.25724" lon="5.84346">
        <ele>362.7</ele>
        <time>2015-08-22T15:58:03Z</time>
      </trkpt>
      <trkpt lat="45.25733" lon="5.84341">
        <ele>363.6</ele>
        <time>2015-08-22T15:58:11Z</time>
      </trkpt>
      <trkpt lat="45.25743" lon="5.84338">
        <ele>364.6</ele>
        <time>2015-08-22T15:58:18Z</time>
      </trkpt>
      <trkpt lat="45.25753" lon="5.84335">
        <ele>365.5</ele>
        <time>2015-08-22T15:58:25Z</time>
      </trkpt>
      <trkpt lat="45.25762" lon="5.84334">
        <ele>366.3</ele>
        <time>2015-08-22T15:58:31Z</time>
      </trkpt>
      <trkpt lat="45.25774" lon="5.84335">
        <ele>367.4</ele>
        <time>2015-08-22T15:58:39Z</time>
      </trkpt>
      <trkpt lat="45.25782" lon="5.84336">
        <ele>368.1</ele>
        <time>2015-08-22T15:58:45Z</time>
      </trkpt>
      <trkpt lat="45.2579" lon="5.84334">
        <ele>368.9</ele>
        <time>2015-08-22T15:58:51Z</time>
      </trkpt>
      <trkpt lat="45.25799" lon="5.8433">
        <ele>370</ele>
        <time>2015-08-22T15:58:58Z</time>
      </trkpt>
      <trkpt lat="45.25807" lon="5.84325">
        <ele>371.1</ele>
        <time>2015-08-22T15:59:03Z</time>
      </trkpt>
      <trkpt lat="45.25808" lon="5.84324">
        <ele>371.2</ele>
        <time>2015-08-22T15:59:04Z</time>
      </trkpt>
      <trkpt lat="45.25812" lon="5.84318">
        <ele>371.9</ele>
        <time>2015-08-22T15:59:08Z</time>
      </trkpt>
      <trkpt lat="45.25815" lon="5.84315">
        <ele>372.4</ele>
        <time>2015-08-22T15:59:11Z</time>
      </trkpt>
      <trkpt lat="45.25822" lon="5.84306">
        <ele>373.4</ele>
        <time>2015-08-22T15:59:18Z</time>
      </trkpt>
      <trkpt lat="45.2583" lon="5.84296">
        <ele>374.6</ele>
        <time>2015-08-22T15:59:26Z</time>
      </trkpt>
      <trkpt lat="45.25838" lon="5.84287">
        <ele>375.8</ele>
        <time>2015-08-22T15:59:33Z</time>
      </trkpt>
      <trkpt lat="45.25847" lon="5.8428">
        <ele>377.2</ele>
        <time>2015-08-22T15:59:40Z</time>
      </trkpt>
      <trkpt lat="45.25855" lon="5.84272">
        <ele>378.6</ele>
        <time>2015-08-22T15:59:47Z</time>
      </trkpt>
      <trkpt lat="45.25863" lon="5.84266">
        <ele>379.8</ele>
        <time>2015-08-22T15:59:53Z</time>
      </trkpt>
      <trkpt lat="45.25873" lon="5.84261">
        <ele>381.3</ele>
        <time>2015-08-22T16:00:01Z</time>
      </trkpt>
      <trkpt lat="45.25884" lon="5.84256">
        <ele>382.5</ele>
        <time>2015-08-22T16:00:08Z</time>
      </trkpt>
      <trkpt lat="45.25892" lon="5.84251">
        <ele>383.6</ele>
        <time>2015-08-22T16:00:15Z</time>
      </trkpt>
      <trkpt lat="45.259" lon="5.84247">
        <ele>384.5</ele>
        <time>2015-08-22T16:00:21Z</time>
      </trkpt>
      <trkpt lat="45.25905" lon="5.84244">
        <ele>385.1</ele>
        <time>2015-08-22T16:00:26Z</time>
      </trkpt>
      <trkpt lat="45.25912" lon="5.84239">
        <ele>385.9</ele>
        <time>2015-08-22T16:00:33Z</time>
      </trkpt>
      <trkpt lat="45.25921" lon="5.84234">
        <ele>386.9</ele>
        <time>2015-08-22T16:00:41Z</time>
      </trkpt>
      <trkpt lat="45.25927" lon="5.84229">
        <ele>387.7</ele>
        <time>2015-08-22T16:00:47Z</time>
      </trkpt>
      <trkpt lat="45.25935" lon="5.84224">
        <ele>388.5</ele>
        <time>2015-08-22T16:00:53Z</time>
      </trkpt>
      <trkpt lat="45.25944" lon="5.84219">
        <ele>389.5</ele>
        <time>2015-08-22T16:01:00Z</time>
      </trkpt>
      <trkpt lat="45.25951" lon="5.84214">
        <ele>390.2</ele>
        <time>2015-08-22T16:01:07Z</time>
      </trkpt>
      <trkpt lat="45.25961" lon="5.84208">
        <ele>391.2</ele>
        <time>2015-08-22T16:01:15Z</time>
      </trkpt>
      <trkpt lat="45.25972" lon="5.84201">
        <ele>392.4</ele>
        <time>2015-08-22T16:01:24Z</time>
      </trkpt>
      <trkpt lat="45.25984" lon="5.84195">
        <ele>393.6</ele>
        <time>2015-08-22T16:01:33Z</time>
      </trkpt>
      <trkpt lat="45.25995" lon="5.84189">
        <ele>394.8</ele>
        <time>2015-08-22T16:01:42Z</time>
      </trkpt>
      <trkpt lat="45.26004" lon="5.84187">
        <ele>395.8</ele>
        <time>2015-08-22T16:01:49Z</time>
      </trkpt>
      <trkpt lat="45.26015" lon="5.84186">
        <ele>396.9</ele>
        <time>2015-08-22T16:01:57Z</time>
      </trkpt>
      <trkpt lat="45.26024" lon="5.84182">
        <ele>397.9</ele>
        <time>2015-08-22T16:02:03Z</time>
      </trkpt>
      <trkpt lat="45.26035" lon="5.84174">
        <ele>399.4</ele>
        <time>2015-08-22T16:02:12Z</time>
      </trkpt>
      <trkpt lat="45.26048" lon="5.84166">
        <ele>401.3</ele>
        <time>2015-08-22T16:02:22Z</time>
      </trkpt>
      <trkpt lat="45.26059" lon="5.8416">
        <ele>403</ele>
        <time>2015-08-22T16:02:31Z</time>
      </trkpt>
      <trkpt lat="45.2607" lon="5.84155">
        <ele>404.5</ele>
        <time>2015-08-22T16:02:39Z</time>
      </trkpt>
      <trkpt lat="45.26081" lon="5.84149">
        <ele>406</ele>
        <time>2015-08-22T16:02:48Z</time>
      </trkpt>
      <trkpt lat="45.26091" lon="5.84143">
        <ele>407.5</ele>
        <time>2015-08-22T16:02:56Z</time>
      </trkpt>
      <trkpt lat="45.26101" lon="5.84138">
        <ele>408.9</ele>
        <time>2015-08-22T16:03:03Z</time>
      </trkpt>
      <trkpt lat="45.26109" lon="5.84134">
        <ele>409.9</ele>
        <time>2015-08-22T16:03:09Z</time>
      </trkpt>
      <trkpt lat="45.26112" lon="5.84133">
        <ele>410.2</ele>
        <time>2015-08-22T16:03:11Z</time>
      </trkpt>
      <trkpt lat="45.26116" lon="5.84133">
        <ele>410.7</ele>
        <time>2015-08-22T16:03:14Z</time>
      </trkpt>
      <trkpt lat="45.26124" lon="5.84132">
        <ele>411.6</ele>
        <time>2015-08-22T16:03:20Z</time>
      </trkpt>
      <trkpt lat="45.26124" lon="5.84123">
        <ele>411.9</ele>
        <time>2015-08-22T16:03:25Z</time>
      </trkpt>
      <trkpt lat="45.26123" lon="5.8412">
        <ele>411.9</ele>
        <time>2015-08-22T16:03:26Z</time>
      </trkpt>
      <trkpt lat="45.26117" lon="5.84106">
        <ele>411.4</ele>
        <time>2015-08-22T16:03:32Z</time>
      </trkpt>
      <trkpt lat="45.26115" lon="5.84101">
        <ele>411.3</ele>
        <time>2015-08-22T16:03:34Z</time>
      </trkpt>
      <trkpt lat="45.26112" lon="5.84094">
        <ele>411.2</ele>
        <time>2015-08-22T16:03:37Z</time>
      </trkpt>
      <trkpt lat="45.26107" lon="5.84075">
        <ele>411.2</ele>
        <time>2015-08-22T16:03:45Z</time>
      </trkpt>
      <trkpt lat="45.26105" lon="5.8406">
        <ele>411.4</ele>
        <time>2015-08-22T16:03:51Z</time>
      </trkpt>
      <trkpt lat="45.26103" lon="5.84048">
        <ele>411.5</ele>
        <time>2015-08-22T16:03:56Z</time>
      </trkpt>
      <trkpt lat="45.26098" lon="5.84031">
        <ele>412</ele>
        <time>2015-08-22T16:04:02Z</time>
      </trkpt>
      <trkpt lat="45.26095" lon="5.84017">
        <ele>412.6</ele>
        <time>2015-08-22T16:04:08Z</time>
      </trkpt>
      <trkpt lat="45.26088" lon="5.83996">
        <ele>413.3</ele>
        <time>2015-08-22T16:04:15Z</time>
      </trkpt>
      <trkpt lat="45.26083" lon="5.83982">
        <ele>413.7</ele>
        <time>2015-08-22T16:04:21Z</time>
      </trkpt>
      <trkpt lat="45.26078" lon="5.83969">
        <ele>413.9</ele>
        <time>2015-08-22T16:04:27Z</time>
      </trkpt>
      <trkpt lat="45.26072" lon="5.83954">
        <ele>414</ele>
        <time>2015-08-22T16:04:34Z</time>
      </trkpt>
      <trkpt lat="45.26066" lon="5.83942">
        <ele>413.6</ele>
        <time>2015-08-22T16:04:40Z</time>
      </trkpt>
      <trkpt lat="45.26062" lon="5.83937">
        <ele>413.4</ele>
        <time>2015-08-22T16:04:43Z</time>
      </trkpt>
      <trkpt lat="45.2606" lon="5.83933">
        <ele>413.3</ele>
        <time>2015-08-22T16:04:45Z</time>
      </trkpt>
      <trkpt lat="45.26052" lon="5.8392">
        <ele>412.9</ele>
        <time>2015-08-22T16:04:53Z</time>
      </trkpt>
      <trkpt lat="45.26049" lon="5.83911">
        <ele>412.8</ele>
        <time>2015-08-22T16:04:58Z</time>
      </trkpt>
      <trkpt lat="45.26048" lon="5.83906">
        <ele>412.8</ele>
        <time>2015-08-22T16:05:00Z</time>
      </trkpt>
      <trkpt lat="45.26048" lon="5.83901">
        <ele>412.9</ele>
        <time>2015-08-22T16:05:02Z</time>
      </trkpt>
      <trkpt lat="45.26046" lon="5.83896">
        <ele>412.9</ele>
        <time>2015-08-22T16:05:06Z</time>
      </trkpt>
      <trkpt lat="45.26046" lon="5.83894">
        <ele>412.9</ele>
        <time>2015-08-22T16:05:07Z</time>
      </trkpt>
      <trkpt lat="45.26044" lon="5.83887">
        <ele>412.9</ele>
        <time>2015-08-22T16:05:11Z</time>
      </trkpt>
      <trkpt lat="45.26043" lon="5.83884">
        <ele>412.9</ele>
        <time>2015-08-22T16:05:13Z</time>
      </trkpt>
      <trkpt lat="45.2604" lon="5.83872">
        <ele>412.9</ele>
        <time>2015-08-22T16:05:18Z</time>
      </trkpt>
      <trkpt lat="45.26039" lon="5.83866">
        <ele>412.9</ele>
        <time>2015-08-22T16:05:21Z</time>
      </trkpt>
      <trkpt lat="45.26037" lon="5.83862">
        <ele>412.8</ele>
        <time>2015-08-22T16:05:24Z</time>
      </trkpt>
      <trkpt lat="45.26038" lon="5.83857">
        <ele>413</ele>
        <time>2015-08-22T16:05:26Z</time>
      </trkpt>
      <trkpt lat="45.26037" lon="5.83852">
        <ele>413</ele>
        <time>2015-08-22T16:05:28Z</time>
      </trkpt>
      <trkpt lat="45.26035" lon="5.83849">
        <ele>412.8</ele>
        <time>2015-08-22T16:05:30Z</time>
      </trkpt>
      <trkpt lat="45.26034" lon="5.83847">
        <ele>412.8</ele>
        <time>2015-08-22T16:05:31Z</time>
      </trkpt>
      <trkpt lat="45.26033" lon="5.83841">
        <ele>412.8</ele>
        <time>2015-08-22T16:05:34Z</time>
      </trkpt>
      <trkpt lat="45.2603" lon="5.8383">
        <ele>412.6</ele>
        <time>2015-08-22T16:05:39Z</time>
      </trkpt>
      <trkpt lat="45.26028" lon="5.83819">
        <ele>412.7</ele>
        <time>2015-08-22T16:05:42Z</time>
      </trkpt>
      <trkpt lat="45.26029" lon="5.83788">
        <ele>413.6</ele>
        <time>2015-08-22T16:05:50Z</time>
      </trkpt>
      <trkpt lat="45.26031" lon="5.83786">
        <ele>413.9</ele>
        <time>2015-08-22T16:05:52Z</time>
      </trkpt>
      <trkpt lat="45.26036" lon="5.83784">
        <ele>414.6</ele>
        <time>2015-08-22T16:05:56Z</time>
      </trkpt>
      <trkpt lat="45.26037" lon="5.83784">
        <ele>414.8</ele>
        <time>2015-08-22T16:05:57Z</time>
      </trkpt>
      <trkpt lat="45.26044" lon="5.83781">
        <ele>415.7</ele>
        <time>2015-08-22T16:06:02Z</time>
      </trkpt>
      <trkpt lat="45.26055" lon="5.83775">
        <ele>417</ele>
        <time>2015-08-22T16:06:11Z</time>
      </trkpt>
      <trkpt lat="45.26064" lon="5.8377">
        <ele>418</ele>
        <time>2015-08-22T16:06:18Z</time>
      </trkpt>
      <trkpt lat="45.26073" lon="5.83767">
        <ele>418.9</ele>
        <time>2015-08-22T16:06:25Z</time>
      </trkpt>
      <trkpt lat="45.26081" lon="5.83764">
        <ele>419.7</ele>
        <time>2015-08-22T16:06:31Z</time>
      </trkpt>
      <trkpt lat="45.26089" lon="5.83763">
        <ele>420.5</ele>
        <time>2015-08-22T16:06:37Z</time>
      </trkpt>
      <trkpt lat="45.26101" lon="5.83758">
        <ele>421.9</ele>
        <time>2015-08-22T16:06:47Z</time>
      </trkpt>
      <trkpt lat="45.2611" lon="5.83754">
        <ele>422.9</ele>
        <time>2015-08-22T16:06:55Z</time>
      </trkpt>
      <trkpt lat="45.26114" lon="5.83753">
        <ele>423.4</ele>
        <time>2015-08-22T16:06:59Z</time>
      </trkpt>
      <trkpt lat="45.26116" lon="5.83753">
        <ele>423.5</ele>
        <time>2015-08-22T16:07:01Z</time>
      </trkpt>
      <trkpt lat="45.26123" lon="5.83761">
        <ele>423.7</ele>
        <time>2015-08-22T16:07:07Z</time>
      </trkpt>
      <trkpt lat="45.26128" lon="5.8377">
        <ele>423.7</ele>
        <time>2015-08-22T16:07:13Z</time>
      </trkpt>
      <trkpt lat="45.26135" lon="5.83775">
        <ele>424.5</ele>
        <time>2015-08-22T16:07:19Z</time>
      </trkpt>
      <trkpt lat="45.26143" lon="5.83778">
        <ele>425.6</ele>
        <time>2015-08-22T16:07:26Z</time>
      </trkpt>
      <trkpt lat="45.26153" lon="5.83777">
        <ele>427</ele>
        <time>2015-08-22T16:07:33Z</time>
      </trkpt>
      <trkpt lat="45.26161" lon="5.83774">
        <ele>428.5</ele>
        <time>2015-08-22T16:07:40Z</time>
      </trkpt>
      <trkpt lat="45.26167" lon="5.83772">
        <ele>429.3</ele>
        <time>2015-08-22T16:07:44Z</time>
      </trkpt>
      <trkpt lat="45.26176" lon="5.83769">
        <ele>430.7</ele>
        <time>2015-08-22T16:07:51Z</time>
      </trkpt>
      <trkpt lat="45.26178" lon="5.83768">
        <ele>431.1</ele>
        <time>2015-08-22T16:07:53Z</time>
      </trkpt>
      <trkpt lat="45.26183" lon="5.83767">
        <ele>431.9</ele>
        <time>2015-08-22T16:07:57Z</time>
      </trkpt>
      <trkpt lat="45.26193" lon="5.83765">
        <ele>433.4</ele>
        <time>2015-08-22T16:08:04Z</time>
      </trkpt>
      <trkpt lat="45.26194" lon="5.83764">
        <ele>433.5</ele>
        <time>2015-08-22T16:08:05Z</time>
      </trkpt>
      <trkpt lat="45.26202" lon="5.83763">
        <ele>434.8</ele>
        <time>2015-08-22T16:08:11Z</time>
      </trkpt>
      <trkpt lat="45.26211" lon="5.8376">
        <ele>436</ele>
        <time>2015-08-22T16:08:18Z</time>
      </trkpt>
      <trkpt lat="45.26222" lon="5.83755">
        <ele>437.2</ele>
        <time>2015-08-22T16:08:25Z</time>
      </trkpt>
      <trkpt lat="45.26233" lon="5.83751">
        <ele>438.3</ele>
        <time>2015-08-22T16:08:33Z</time>
      </trkpt>
      <trkpt lat="45.26243" lon="5.83747">
        <ele>439.4</ele>
        <time>2015-08-22T16:08:40Z</time>
      </trkpt>
      <trkpt lat="45.26252" lon="5.83744">
        <ele>440.3</ele>
        <time>2015-08-22T16:08:47Z</time>
      </trkpt>
      <trkpt lat="45.26253" lon="5.83744">
        <ele>440.4</ele>
        <time>2015-08-22T16:08:48Z</time>
      </trkpt>
      <trkpt lat="45.26261" lon="5.83741">
        <ele>441.2</ele>
        <time>2015-08-22T16:08:54Z</time>
      </trkpt>
      <trkpt lat="45.26262" lon="5.83741">
        <ele>441.4</ele>
        <time>2015-08-22T16:08:55Z</time>
      </trkpt>
      <trkpt lat="45.26272" lon="5.83739">
        <ele>442.4</ele>
        <time>2015-08-22T16:09:02Z</time>
      </trkpt>
      <trkpt lat="45.26278" lon="5.83737">
        <ele>443</ele>
        <time>2015-08-22T16:09:07Z</time>
      </trkpt>
      <trkpt lat="45.26287" lon="5.83733">
        <ele>443.9</ele>
        <time>2015-08-22T16:09:14Z</time>
      </trkpt>
      <trkpt lat="45.26298" lon="5.8373">
        <ele>445.2</ele>
        <time>2015-08-22T16:09:22Z</time>
      </trkpt>
      <trkpt lat="45.26305" lon="5.83727">
        <ele>446.3</ele>
        <time>2015-08-22T16:09:28Z</time>
      </trkpt>
      <trkpt lat="45.26311" lon="5.83724">
        <ele>447.2</ele>
        <time>2015-08-22T16:09:33Z</time>
      </trkpt>
      <trkpt lat="45.26312" lon="5.83723">
        <ele>447.3</ele>
        <time>2015-08-22T16:09:34Z</time>
      </trkpt>
      <trkpt lat="45.26317" lon="5.83714">
        <ele>448.3</ele>
        <time>2015-08-22T16:09:40Z</time>
      </trkpt>
      <trkpt lat="45.26316" lon="5.83703">
        <ele>448.5</ele>
        <time>2015-08-22T16:09:45Z</time>
      </trkpt>
      <trkpt lat="45.26314" lon="5.8369">
        <ele>448.7</ele>
        <time>2015-08-22T16:09:51Z</time>
      </trkpt>
      <trkpt lat="45.26311" lon="5.83671">
        <ele>449.1</ele>
        <time>2015-08-22T16:09:58Z</time>
      </trkpt>
      <trkpt lat="45.2631" lon="5.83657">
        <ele>449.5</ele>
        <time>2015-08-22T16:10:03Z</time>
      </trkpt>
      <trkpt lat="45.26311" lon="5.83643">
        <ele>450.1</ele>
        <time>2015-08-22T16:10:08Z</time>
      </trkpt>
      <trkpt lat="45.26311" lon="5.83638">
        <ele>450.3</ele>
        <time>2015-08-22T16:10:10Z</time>
      </trkpt>
      <trkpt lat="45.26308" lon="5.83632">
        <ele>450.3</ele>
        <time>2015-08-22T16:10:13Z</time>
      </trkpt>
      <trkpt lat="45.26301" lon="5.83628">
        <ele>449.8</ele>
        <time>2015-08-22T16:10:18Z</time>
      </trkpt>
      <trkpt lat="45.263" lon="5.83622">
        <ele>449.8</ele>
        <time>2015-08-22T16:10:20Z</time>
      </trkpt>
      <trkpt lat="45.26303" lon="5.83609">
        <ele>450.4</ele>
        <time>2015-08-22T16:10:26Z</time>
      </trkpt>
      <trkpt lat="45.26304" lon="5.83608">
        <ele>450.5</ele>
        <time>2015-08-22T16:10:27Z</time>
      </trkpt>
      <trkpt lat="45.26311" lon="5.83602">
        <ele>451.4</ele>
        <time>2015-08-22T16:10:33Z</time>
      </trkpt>
      <trkpt lat="45.26319" lon="5.83599">
        <ele>452.3</ele>
        <time>2015-08-22T16:10:39Z</time>
      </trkpt>
      <trkpt lat="45.26329" lon="5.83592">
        <ele>453.5</ele>
        <time>2015-08-22T16:10:47Z</time>
      </trkpt>
      <trkpt lat="45.26338" lon="5.83585">
        <ele>454.7</ele>
        <time>2015-08-22T16:10:55Z</time>
      </trkpt>
      <trkpt lat="45.26346" lon="5.83581">
        <ele>455.7</ele>
        <time>2015-08-22T16:11:01Z</time>
      </trkpt>
      <trkpt lat="45.26356" lon="5.83574">
        <ele>457.3</ele>
        <time>2015-08-22T16:11:09Z</time>
      </trkpt>
      <trkpt lat="45.26365" lon="5.83568">
        <ele>458.6</ele>
        <time>2015-08-22T16:11:17Z</time>
      </trkpt>
      <trkpt lat="45.26374" lon="5.83563">
        <ele>459.8</ele>
        <time>2015-08-22T16:11:25Z</time>
      </trkpt>
      <trkpt lat="45.26381" lon="5.83557">
        <ele>460.9</ele>
        <time>2015-08-22T16:11:32Z</time>
      </trkpt>
      <trkpt lat="45.26389" lon="5.83552">
        <ele>462</ele>
        <time>2015-08-22T16:11:38Z</time>
      </trkpt>
      <trkpt lat="45.2639" lon="5.83551">
        <ele>462.2</ele>
        <time>2015-08-22T16:11:39Z</time>
      </trkpt>
      <trkpt lat="45.26395" lon="5.83546">
        <ele>463</ele>
        <time>2015-08-22T16:11:44Z</time>
      </trkpt>
      <trkpt lat="45.26404" lon="5.8354">
        <ele>464.2</ele>
        <time>2015-08-22T16:11:51Z</time>
      </trkpt>
      <trkpt lat="45.26413" lon="5.83536">
        <ele>465.2</ele>
        <time>2015-08-22T16:11:58Z</time>
      </trkpt>
      <trkpt lat="45.2642" lon="5.83533">
        <ele>465.9</ele>
        <time>2015-08-22T16:12:03Z</time>
      </trkpt>
      <trkpt lat="45.26421" lon="5.83533">
        <ele>466.1</ele>
        <time>2015-08-22T16:12:05Z</time>
      </trkpt>
      <trkpt lat="45.26425" lon="5.83531">
        <ele>466.6</ele>
        <time>2015-08-22T16:12:09Z</time>
      </trkpt>
      <trkpt lat="45.26428" lon="5.83531">
        <ele>466.9</ele>
        <time>2015-08-22T16:12:11Z</time>
      </trkpt>
      <trkpt lat="45.26439" lon="5.83528">
        <ele>468.2</ele>
        <time>2015-08-22T16:12:19Z</time>
      </trkpt>
      <trkpt lat="45.26446" lon="5.83526">
        <ele>468.9</ele>
        <time>2015-08-22T16:12:25Z</time>
      </trkpt>
      <trkpt lat="45.26454" lon="5.83522">
        <ele>470</ele>
        <time>2015-08-22T16:12:33Z</time>
      </trkpt>
      <trkpt lat="45.26462" lon="5.8352">
        <ele>471</ele>
        <time>2015-08-22T16:12:39Z</time>
      </trkpt>
      <trkpt lat="45.26467" lon="5.83517">
        <ele>471.8</ele>
        <time>2015-08-22T16:12:44Z</time>
      </trkpt>
      <trkpt lat="45.26474" lon="5.83512">
        <ele>472.9</ele>
        <time>2015-08-22T16:12:50Z</time>
      </trkpt>
      <trkpt lat="45.26482" lon="5.83506">
        <ele>474.1</ele>
        <time>2015-08-22T16:12:57Z</time>
      </trkpt>
      <trkpt lat="45.2649" lon="5.83503">
        <ele>475.3</ele>
        <time>2015-08-22T16:13:03Z</time>
      </trkpt>
      <trkpt lat="45.26498" lon="5.83497">
        <ele>476.5</ele>
        <time>2015-08-22T16:13:10Z</time>
      </trkpt>
      <trkpt lat="45.26505" lon="5.83492">
        <ele>477.7</ele>
        <time>2015-08-22T16:13:16Z</time>
      </trkpt>
      <trkpt lat="45.26509" lon="5.83488">
        <ele>478.4</ele>
        <time>2015-08-22T16:13:20Z</time>
      </trkpt>
      <trkpt lat="45.26517" lon="5.83484">
        <ele>479.6</ele>
        <time>2015-08-22T16:13:26Z</time>
      </trkpt>
      <trkpt lat="45.26518" lon="5.83483">
        <ele>479.8</ele>
        <time>2015-08-22T16:13:27Z</time>
      </trkpt>
      <trkpt lat="45.26527" lon="5.8348">
        <ele>481.2</ele>
        <time>2015-08-22T16:13:34Z</time>
      </trkpt>
      <trkpt lat="45.26533" lon="5.83479">
        <ele>482</ele>
        <time>2015-08-22T16:13:39Z</time>
      </trkpt>
      <trkpt lat="45.26541" lon="5.83476">
        <ele>483.3</ele>
        <time>2015-08-22T16:13:46Z</time>
      </trkpt>
      <trkpt lat="45.26552" lon="5.83472">
        <ele>484.9</ele>
        <time>2015-08-22T16:13:54Z</time>
      </trkpt>
      <trkpt lat="45.2656" lon="5.83469">
        <ele>486.2</ele>
        <time>2015-08-22T16:14:01Z</time>
      </trkpt>
      <trkpt lat="45.26568" lon="5.83464">
        <ele>487.5</ele>
        <time>2015-08-22T16:14:08Z</time>
      </trkpt>
      <trkpt lat="45.26574" lon="5.8346">
        <ele>488.6</ele>
        <time>2015-08-22T16:14:14Z</time>
      </trkpt>
      <trkpt lat="45.26581" lon="5.83455">
        <ele>489.7</ele>
        <time>2015-08-22T16:14:20Z</time>
      </trkpt>
      <trkpt lat="45.2659" lon="5.8345">
        <ele>490.8</ele>
        <time>2015-08-22T16:14:27Z</time>
      </trkpt>
      <trkpt lat="45.26597" lon="5.83446">
        <ele>491.8</ele>
        <time>2015-08-22T16:14:33Z</time>
      </trkpt>
      <trkpt lat="45.26603" lon="5.83443">
        <ele>492.5</ele>
        <time>2015-08-22T16:14:38Z</time>
      </trkpt>
      <trkpt lat="45.26612" lon="5.83437">
        <ele>493.7</ele>
        <time>2015-08-22T16:14:45Z</time>
      </trkpt>
      <trkpt lat="45.26614" lon="5.83436">
        <ele>493.9</ele>
        <time>2015-08-22T16:14:47Z</time>
      </trkpt>
      <trkpt lat="45.26617" lon="5.83432">
        <ele>494.2</ele>
        <time>2015-08-22T16:14:50Z</time>
      </trkpt>
      <trkpt lat="45.26622" lon="5.83429">
        <ele>494.8</ele>
        <time>2015-08-22T16:14:54Z</time>
      </trkpt>
      <trkpt lat="45.26624" lon="5.83429">
        <ele>495.1</ele>
        <time>2015-08-22T16:14:56Z</time>
      </trkpt>
      <trkpt lat="45.26629" lon="5.83426">
        <ele>495.8</ele>
        <time>2015-08-22T16:15:00Z</time>
      </trkpt>
      <trkpt lat="45.2663" lon="5.83426">
        <ele>495.9</ele>
        <time>2015-08-22T16:15:01Z</time>
      </trkpt>
      <trkpt lat="45.26639" lon="5.83423">
        <ele>497</ele>
        <time>2015-08-22T16:15:08Z</time>
      </trkpt>
      <trkpt lat="45.26645" lon="5.83419">
        <ele>497.8</ele>
        <time>2015-08-22T16:15:14Z</time>
      </trkpt>
      <trkpt lat="45.26648" lon="5.83417">
        <ele>498.2</ele>
        <time>2015-08-22T16:15:17Z</time>
      </trkpt>
      <trkpt lat="45.2665" lon="5.83416">
        <ele>498.4</ele>
        <time>2015-08-22T16:15:20Z</time>
      </trkpt>
      <trkpt lat="45.26659" lon="5.83413">
        <ele>499.7</ele>
        <time>2015-08-22T16:15:27Z</time>
      </trkpt>
      <trkpt lat="45.26667" lon="5.83409">
        <ele>500.7</ele>
        <time>2015-08-22T16:15:34Z</time>
      </trkpt>
      <trkpt lat="45.26676" lon="5.83405">
        <ele>502</ele>
        <time>2015-08-22T16:15:41Z</time>
      </trkpt>
      <trkpt lat="45.26686" lon="5.83403">
        <ele>503.4</ele>
        <time>2015-08-22T16:15:48Z</time>
      </trkpt>
      <trkpt lat="45.26695" lon="5.83398">
        <ele>504.8</ele>
        <time>2015-08-22T16:15:55Z</time>
      </trkpt>
      <trkpt lat="45.26702" lon="5.83393">
        <ele>505.9</ele>
        <time>2015-08-22T16:16:01Z</time>
      </trkpt>
      <trkpt lat="45.26709" lon="5.83387">
        <ele>507</ele>
        <time>2015-08-22T16:16:07Z</time>
      </trkpt>
      <trkpt lat="45.26713" lon="5.83382">
        <ele>507.6</ele>
        <time>2015-08-22T16:16:11Z</time>
      </trkpt>
      <trkpt lat="45.26715" lon="5.83379">
        <ele>507.9</ele>
        <time>2015-08-22T16:16:13Z</time>
      </trkpt>
      <trkpt lat="45.26722" lon="5.83371">
        <ele>509.2</ele>
        <time>2015-08-22T16:16:20Z</time>
      </trkpt>
      <trkpt lat="45.26729" lon="5.83366">
        <ele>510.3</ele>
        <time>2015-08-22T16:16:26Z</time>
      </trkpt>
      <trkpt lat="45.26732" lon="5.83365">
        <ele>510.8</ele>
        <time>2015-08-22T16:16:28Z</time>
      </trkpt>
      <trkpt lat="45.26735" lon="5.83364">
        <ele>511.3</ele>
        <time>2015-08-22T16:16:30Z</time>
      </trkpt>
      <trkpt lat="45.26737" lon="5.83362">
        <ele>511.6</ele>
        <time>2015-08-22T16:16:32Z</time>
      </trkpt>
      <trkpt lat="45.26742" lon="5.83356">
        <ele>512.5</ele>
        <time>2015-08-22T16:16:37Z</time>
      </trkpt>
      <trkpt lat="45.26747" lon="5.83349">
        <ele>513.4</ele>
        <time>2015-08-22T16:16:43Z</time>
      </trkpt>
      <trkpt lat="45.26749" lon="5.83348">
        <ele>513.8</ele>
        <time>2015-08-22T16:16:44Z</time>
      </trkpt>
      <trkpt lat="45.26754" lon="5.83341">
        <ele>514.9</ele>
        <time>2015-08-22T16:16:49Z</time>
      </trkpt>
      <trkpt lat="45.26756" lon="5.83337">
        <ele>515.3</ele>
        <time>2015-08-22T16:16:52Z</time>
      </trkpt>
      <trkpt lat="45.26757" lon="5.83337">
        <ele>515.6</ele>
        <time>2015-08-22T16:16:53Z</time>
      </trkpt>
      <trkpt lat="45.26759" lon="5.83335">
        <ele>515.8</ele>
        <time>2015-08-22T16:16:54Z</time>
      </trkpt>
      <trkpt lat="45.26764" lon="5.83327">
        <ele>517</ele>
        <time>2015-08-22T16:17:00Z</time>
      </trkpt>
      <trkpt lat="45.26771" lon="5.83322">
        <ele>518.6</ele>
        <time>2015-08-22T16:17:06Z</time>
      </trkpt>
      <trkpt lat="45.26777" lon="5.83315">
        <ele>520</ele>
        <time>2015-08-22T16:17:12Z</time>
      </trkpt>
      <trkpt lat="45.26783" lon="5.8331">
        <ele>521.3</ele>
        <time>2015-08-22T16:17:18Z</time>
      </trkpt>
      <trkpt lat="45.2679" lon="5.83309">
        <ele>522.8</ele>
        <time>2015-08-22T16:17:23Z</time>
      </trkpt>
      <trkpt lat="45.26794" lon="5.83309">
        <ele>523.8</ele>
        <time>2015-08-22T16:17:28Z</time>
      </trkpt>
      <trkpt lat="45.26799" lon="5.83306">
        <ele>525.2</ele>
        <time>2015-08-22T16:17:33Z</time>
      </trkpt>
      <trkpt lat="45.268" lon="5.83304">
        <ele>525.6</ele>
        <time>2015-08-22T16:17:34Z</time>
      </trkpt>
      <trkpt lat="45.26802" lon="5.833">
        <ele>526.2</ele>
        <time>2015-08-22T16:17:37Z</time>
      </trkpt>
      <trkpt lat="45.26802" lon="5.83294">
        <ele>526.6</ele>
        <time>2015-08-22T16:17:40Z</time>
      </trkpt>
      <trkpt lat="45.26801" lon="5.83293">
        <ele>526.5</ele>
        <time>2015-08-22T16:17:41Z</time>
      </trkpt>
      <trkpt lat="45.26799" lon="5.83291">
        <ele>526.1</ele>
        <time>2015-08-22T16:17:45Z</time>
      </trkpt>
      <trkpt lat="45.26798" lon="5.8329">
        <ele>526</ele>
        <time>2015-08-22T16:17:47Z</time>
      </trkpt>
      <trkpt lat="45.26794" lon="5.83289">
        <ele>525</ele>
        <time>2015-08-22T16:17:54Z</time>
      </trkpt>
      <trkpt lat="45.2679" lon="5.83285">
        <ele>525</ele>
        <time>2015-08-22T16:17:59Z</time>
      </trkpt>
      <trkpt lat="45.26789" lon="5.83282">
        <ele>525.1</ele>
        <time>2015-08-22T16:18:00Z</time>
      </trkpt>
      <trkpt lat="45.26786" lon="5.83276">
        <ele>525.7</ele>
        <time>2015-08-22T16:18:05Z</time>
      </trkpt>
      <trkpt lat="45.26786" lon="5.83273">
        <ele>526.2</ele>
        <time>2015-08-22T16:18:07Z</time>
      </trkpt>
      <trkpt lat="45.26786" lon="5.8327">
        <ele>526.6</ele>
        <time>2015-08-22T16:18:09Z</time>
      </trkpt>
      <trkpt lat="45.26786" lon="5.83268">
        <ele>527.1</ele>
        <time>2015-08-22T16:18:11Z</time>
      </trkpt>
      <trkpt lat="45.26787" lon="5.83267">
        <ele>527.3</ele>
        <time>2015-08-22T16:18:12Z</time>
      </trkpt>
      <trkpt lat="45.26788" lon="5.83261">
        <ele>529</ele>
        <time>2015-08-22T16:18:20Z</time>
      </trkpt>
      <trkpt lat="45.26793" lon="5.83256">
        <ele>531.2</ele>
        <time>2015-08-22T16:18:25Z</time>
      </trkpt>
      <trkpt lat="45.26794" lon="5.83254">
        <ele>532.1</ele>
        <time>2015-08-22T16:18:28Z</time>
      </trkpt>
      <trkpt lat="45.26796" lon="5.83254">
        <ele>532.6</ele>
        <time>2015-08-22T16:18:29Z</time>
      </trkpt>
      <trkpt lat="45.26797" lon="5.83253">
        <ele>532.9</ele>
        <time>2015-08-22T16:18:30Z</time>
      </trkpt>
      <trkpt lat="45.26799" lon="5.83251">
        <ele>533.9</ele>
        <time>2015-08-22T16:18:34Z</time>
      </trkpt>
      <trkpt lat="45.26805" lon="5.83248">
        <ele>536.7</ele>
        <time>2015-08-22T16:18:42Z</time>
      </trkpt>
      <trkpt lat="45.26808" lon="5.83246">
        <ele>538</ele>
        <time>2015-08-22T16:18:46Z</time>
      </trkpt>
      <trkpt lat="45.26808" lon="5.83245">
        <ele>538.3</ele>
        <time>2015-08-22T16:18:47Z</time>
      </trkpt>
      <trkpt lat="45.2681" lon="5.83244">
        <ele>539</ele>
        <time>2015-08-22T16:18:49Z</time>
      </trkpt>
      <trkpt lat="45.2681" lon="5.83243">
        <ele>539.4</ele>
        <time>2015-08-22T16:18:50Z</time>
      </trkpt>
      <trkpt lat="45.26813" lon="5.83241">
        <ele>540.9</ele>
        <time>2015-08-22T16:18:53Z</time>
      </trkpt>
      <trkpt lat="45.26815" lon="5.8324">
        <ele>541.5</ele>
        <time>2015-08-22T16:18:55Z</time>
      </trkpt>
      <trkpt lat="45.26819" lon="5.83237">
        <ele>543.5</ele>
        <time>2015-08-22T16:18:59Z</time>
      </trkpt>
      <trkpt lat="45.2682" lon="5.83237">
        <ele>543.8</ele>
        <time>2015-08-22T16:19:00Z</time>
      </trkpt>
      <trkpt lat="45.26821" lon="5.83236">
        <ele>544.3</ele>
        <time>2015-08-22T16:19:01Z</time>
      </trkpt>
      <trkpt lat="45.26824" lon="5.83236">
        <ele>545.5</ele>
        <time>2015-08-22T16:19:06Z</time>
      </trkpt>
      <trkpt lat="45.26827" lon="5.83237">
        <ele>546.4</ele>
        <time>2015-08-22T16:19:10Z</time>
      </trkpt>
      <trkpt lat="45.26829" lon="5.83238">
        <ele>546.6</ele>
        <time>2015-08-22T16:19:12Z</time>
      </trkpt>
      <trkpt lat="45.26831" lon="5.83238">
        <ele>547.2</ele>
        <time>2015-08-22T16:19:15Z</time>
      </trkpt>
      <trkpt lat="45.26834" lon="5.83239">
        <ele>548</ele>
        <time>2015-08-22T16:19:18Z</time>
      </trkpt>
      <trkpt lat="45.2684" lon="5.83237">
        <ele>550.6</ele>
        <time>2015-08-22T16:19:25Z</time>
      </trkpt>
      <trkpt lat="45.26845" lon="5.83234">
        <ele>552.6</ele>
        <time>2015-08-22T16:19:31Z</time>
      </trkpt>
      <trkpt lat="45.26846" lon="5.83234">
        <ele>553.2</ele>
        <time>2015-08-22T16:19:32Z</time>
      </trkpt>
      <trkpt lat="45.2685" lon="5.8323">
        <ele>555.8</ele>
        <time>2015-08-22T16:19:38Z</time>
      </trkpt>
      <trkpt lat="45.26856" lon="5.83226">
        <ele>558.8</ele>
        <time>2015-08-22T16:19:44Z</time>
      </trkpt>
      <trkpt lat="45.26858" lon="5.83226">
        <ele>559.3</ele>
        <time>2015-08-22T16:19:46Z</time>
      </trkpt>
      <trkpt lat="45.26861" lon="5.83223">
        <ele>561</ele>
        <time>2015-08-22T16:19:49Z</time>
      </trkpt>
      <trkpt lat="45.26865" lon="5.83214">
        <ele>565.1</ele>
        <time>2015-08-22T16:19:55Z</time>
      </trkpt>
      <trkpt lat="45.26866" lon="5.83211">
        <ele>565.9</ele>
        <time>2015-08-22T16:19:56Z</time>
      </trkpt>
      <trkpt lat="45.26867" lon="5.83206">
        <ele>567.8</ele>
        <time>2015-08-22T16:19:59Z</time>
      </trkpt>
      <trkpt lat="45.26871" lon="5.83202">
        <ele>570.4</ele>
        <time>2015-08-22T16:20:02Z</time>
      </trkpt>
      <trkpt lat="45.26872" lon="5.83199">
        <ele>571.4</ele>
        <time>2015-08-22T16:20:04Z</time>
      </trkpt>
      <trkpt lat="45.26872" lon="5.83198">
        <ele>571.8</ele>
        <time>2015-08-22T16:20:05Z</time>
      </trkpt>
      <trkpt lat="45.26872" lon="5.83196">
        <ele>572.1</ele>
        <time>2015-08-22T16:20:06Z</time>
      </trkpt>
      <trkpt lat="45.26867" lon="5.83191">
        <ele>571.9</ele>
        <time>2015-08-22T16:20:11Z</time>
      </trkpt>
      <trkpt lat="45.26864" lon="5.83185">
        <ele>572.5</ele>
        <time>2015-08-22T16:20:15Z</time>
      </trkpt>
      <trkpt lat="45.2686" lon="5.83177">
        <ele>573.5</ele>
        <time>2015-08-22T16:20:21Z</time>
      </trkpt>
      <trkpt lat="45.2686" lon="5.83173">
        <ele>574.7</ele>
        <time>2015-08-22T16:20:23Z</time>
      </trkpt>
      <trkpt lat="45.26861" lon="5.83167">
        <ele>576.5</ele>
        <time>2015-08-22T16:20:27Z</time>
      </trkpt>
      <trkpt lat="45.2686" lon="5.8316">
        <ele>578.2</ele>
        <time>2015-08-22T16:20:33Z</time>
      </trkpt>
      <trkpt lat="45.26859" lon="5.83157">
        <ele>578.5</ele>
        <time>2015-08-22T16:20:35Z</time>
      </trkpt>
      <trkpt lat="45.26857" lon="5.83154">
        <ele>578.7</ele>
        <time>2015-08-22T16:20:39Z</time>
      </trkpt>
      <trkpt lat="45.26857" lon="5.83152">
        <ele>579.2</ele>
        <time>2015-08-22T16:20:41Z</time>
      </trkpt>
      <trkpt lat="45.26857" lon="5.83148">
        <ele>580.3</ele>
        <time>2015-08-22T16:20:44Z</time>
      </trkpt>
      <trkpt lat="45.26856" lon="5.83146">
        <ele>580.7</ele>
        <time>2015-08-22T16:20:45Z</time>
      </trkpt>
      <trkpt lat="45.26853" lon="5.83141">
        <ele>580.7</ele>
        <time>2015-08-22T16:20:50Z</time>
      </trkpt>
      <trkpt lat="45.26847" lon="5.83136">
        <ele>580.3</ele>
        <time>2015-08-22T16:20:55Z</time>
      </trkpt>
      <trkpt lat="45.26846" lon="5.83134">
        <ele>580.4</ele>
        <time>2015-08-22T16:20:57Z</time>
      </trkpt>
      <trkpt lat="45.26844" lon="5.83129">
        <ele>581.1</ele>
        <time>2015-08-22T16:21:02Z</time>
      </trkpt>
      <trkpt lat="45.26845" lon="5.83126">
        <ele>582</ele>
        <time>2015-08-22T16:21:07Z</time>
      </trkpt>
      <trkpt lat="45.26844" lon="5.8312">
        <ele>584</ele>
        <time>2015-08-22T16:21:14Z</time>
      </trkpt>
      <trkpt lat="45.26845" lon="5.83116">
        <ele>585.5</ele>
        <time>2015-08-22T16:21:21Z</time>
      </trkpt>
      <trkpt lat="45.26845" lon="5.83113">
        <ele>586.2</ele>
        <time>2015-08-22T16:21:25Z</time>
      </trkpt>
      <trkpt lat="45.26846" lon="5.8311">
        <ele>587.7</ele>
        <time>2015-08-22T16:21:29Z</time>
      </trkpt>
      <trkpt lat="45.26845" lon="5.8311">
        <ele>587.6</ele>
        <time>2015-08-22T16:21:30Z</time>
      </trkpt>
      <trkpt lat="45.26845" lon="5.83107">
        <ele>588.4</ele>
        <time>2015-08-22T16:21:33Z</time>
      </trkpt>
      <trkpt lat="45.26845" lon="5.83102">
        <ele>589.8</ele>
        <time>2015-08-22T16:21:38Z</time>
      </trkpt>
      <trkpt lat="45.26845" lon="5.83098">
        <ele>591.3</ele>
        <time>2015-08-22T16:21:43Z</time>
      </trkpt>
      <trkpt lat="45.26845" lon="5.83097">
        <ele>591.6</ele>
        <time>2015-08-22T16:21:44Z</time>
      </trkpt>
      <trkpt lat="45.26846" lon="5.83095">
        <ele>592.6</ele>
        <time>2015-08-22T16:21:47Z</time>
      </trkpt>
      <trkpt lat="45.26846" lon="5.83091">
        <ele>593.8</ele>
        <time>2015-08-22T16:21:51Z</time>
      </trkpt>
      <trkpt lat="45.26846" lon="5.83089">
        <ele>594.6</ele>
        <time>2015-08-22T16:21:57Z</time>
      </trkpt>
      <trkpt lat="45.26846" lon="5.83083">
        <ele>596.6</ele>
        <time>2015-08-22T16:22:03Z</time>
      </trkpt>
      <trkpt lat="45.26846" lon="5.83078">
        <ele>598.3</ele>
        <time>2015-08-22T16:22:09Z</time>
      </trkpt>
      <trkpt lat="45.26848" lon="5.83073">
        <ele>600.7</ele>
        <time>2015-08-22T16:22:18Z</time>
      </trkpt>
      <trkpt lat="45.26847" lon="5.83066">
        <ele>602.5</ele>
        <time>2015-08-22T16:22:23Z</time>
      </trkpt>
      <trkpt lat="45.26846" lon="5.83064">
        <ele>602.8</ele>
        <time>2015-08-22T16:22:24Z</time>
      </trkpt>
      <trkpt lat="45.26847" lon="5.8306">
        <ele>604.5</ele>
        <time>2015-08-22T16:22:27Z</time>
      </trkpt>
      <trkpt lat="45.26847" lon="5.83059">
        <ele>604.9</ele>
        <time>2015-08-22T16:22:29Z</time>
      </trkpt>
      <trkpt lat="45.26847" lon="5.83054">
        <ele>606.2</ele>
        <time>2015-08-22T16:22:34Z</time>
      </trkpt>
      <trkpt lat="45.26849" lon="5.83052">
        <ele>608.2</ele>
        <time>2015-08-22T16:22:39Z</time>
      </trkpt>
      <trkpt lat="45.2685" lon="5.83049">
        <ele>609.6</ele>
        <time>2015-08-22T16:22:44Z</time>
      </trkpt>
      <trkpt lat="45.26851" lon="5.83046">
        <ele>611.5</ele>
        <time>2015-08-22T16:22:49Z</time>
      </trkpt>
      <trkpt lat="45.26853" lon="5.83042">
        <ele>613.7</ele>
        <time>2015-08-22T16:22:55Z</time>
      </trkpt>
      <trkpt lat="45.26855" lon="5.83044">
        <ele>614.4</ele>
        <time>2015-08-22T16:23:01Z</time>
      </trkpt>
      <trkpt lat="45.26854" lon="5.83042">
        <ele>614.6</ele>
        <time>2015-08-22T16:23:02Z</time>
      </trkpt>
      <trkpt lat="45.26855" lon="5.83038">
        <ele>615.7</ele>
        <time>2015-08-22T16:23:06Z</time>
      </trkpt>
      <trkpt lat="45.26854" lon="5.83033">
        <ele>616.2</ele>
        <time>2015-08-22T16:23:11Z</time>
      </trkpt>
      <trkpt lat="45.26852" lon="5.83032">
        <ele>615.1</ele>
        <time>2015-08-22T16:23:14Z</time>
      </trkpt>
      <trkpt lat="45.2685" lon="5.83032">
        <ele>614.3</ele>
        <time>2015-08-22T16:23:16Z</time>
      </trkpt>
      <trkpt lat="45.26847" lon="5.8303">
        <ele>612.9</ele>
        <time>2015-08-22T16:23:20Z</time>
      </trkpt>
      <trkpt lat="45.26842" lon="5.83028">
        <ele>610.6</ele>
        <time>2015-08-22T16:23:24Z</time>
      </trkpt>
      <trkpt lat="45.26841" lon="5.83028">
        <ele>609.9</ele>
        <time>2015-08-22T16:23:26Z</time>
      </trkpt>
      <trkpt lat="45.26837" lon="5.83025">
        <ele>608.4</ele>
        <time>2015-08-22T16:23:30Z</time>
      </trkpt>
      <trkpt lat="45.26836" lon="5.83023">
        <ele>608.1</ele>
        <time>2015-08-22T16:23:33Z</time>
      </trkpt>
      <trkpt lat="45.26836" lon="5.83022">
        <ele>608.2</ele>
        <time>2015-08-22T16:23:34Z</time>
      </trkpt>
      <trkpt lat="45.26832" lon="5.83018">
        <ele>607.4</ele>
        <time>2015-08-22T16:23:38Z</time>
      </trkpt>
      <trkpt lat="45.26832" lon="5.83016">
        <ele>607.4</ele>
        <time>2015-08-22T16:23:40Z</time>
      </trkpt>
      <trkpt lat="45.26832" lon="5.83014">
        <ele>607.6</ele>
        <time>2015-08-22T16:23:42Z</time>
      </trkpt>
      <trkpt lat="45.26834" lon="5.8301">
        <ele>609.9</ele>
        <time>2015-08-22T16:23:49Z</time>
      </trkpt>
      <trkpt lat="45.26838" lon="5.83009">
        <ele>611.8</ele>
        <time>2015-08-22T16:23:54Z</time>
      </trkpt>
      <trkpt lat="45.26839" lon="5.83007">
        <ele>613.3</ele>
        <time>2015-08-22T16:24:00Z</time>
      </trkpt>
      <trkpt lat="45.26839" lon="5.83005">
        <ele>613.4</ele>
        <time>2015-08-22T16:24:01Z</time>
      </trkpt>
      <trkpt lat="45.26838" lon="5.83002">
        <ele>613.3</ele>
        <time>2015-08-22T16:24:03Z</time>
      </trkpt>
      <trkpt lat="45.26837" lon="5.83002">
        <ele>613</ele>
        <time>2015-08-22T16:24:04Z</time>
      </trkpt>
      <trkpt lat="45.26834" lon="5.83">
        <ele>612</ele>
        <time>2015-08-22T16:24:09Z</time>
      </trkpt>
      <trkpt lat="45.26833" lon="5.83">
        <ele>611.6</ele>
        <time>2015-08-22T16:24:10Z</time>
      </trkpt>
      <trkpt lat="45.26829" lon="5.82998">
        <ele>609.6</ele>
        <time>2015-08-22T16:24:14Z</time>
      </trkpt>
      <trkpt lat="45.26828" lon="5.82997">
        <ele>609.3</ele>
        <time>2015-08-22T16:24:15Z</time>
      </trkpt>
      <trkpt lat="45.26824" lon="5.82995">
        <ele>608</ele>
        <time>2015-08-22T16:24:20Z</time>
      </trkpt>
      <trkpt lat="45.26823" lon="5.82993">
        <ele>607.5</ele>
        <time>2015-08-22T16:24:22Z</time>
      </trkpt>
      <trkpt lat="45.26822" lon="5.82993">
        <ele>607.1</ele>
        <time>2015-08-22T16:24:24Z</time>
      </trkpt>
      <trkpt lat="45.2682" lon="5.82991">
        <ele>606.8</ele>
        <time>2015-08-22T16:24:26Z</time>
      </trkpt>
      <trkpt lat="45.26819" lon="5.82991">
        <ele>606.2</ele>
        <time>2015-08-22T16:24:28Z</time>
      </trkpt>
      <trkpt lat="45.26818" lon="5.82989">
        <ele>606.2</ele>
        <time>2015-08-22T16:24:30Z</time>
      </trkpt>
      <trkpt lat="45.26818" lon="5.82988">
        <ele>606.4</ele>
        <time>2015-08-22T16:24:33Z</time>
      </trkpt>
      <trkpt lat="45.26821" lon="5.82986">
        <ele>608.5</ele>
        <time>2015-08-22T16:24:39Z</time>
      </trkpt>
      <trkpt lat="45.26824" lon="5.82985">
        <ele>610.1</ele>
        <time>2015-08-22T16:24:42Z</time>
      </trkpt>
      <trkpt lat="45.26826" lon="5.82983">
        <ele>611.5</ele>
        <time>2015-08-22T16:24:46Z</time>
      </trkpt>
      <trkpt lat="45.26828" lon="5.82981">
        <ele>612.6</ele>
        <time>2015-08-22T16:24:48Z</time>
      </trkpt>
      <trkpt lat="45.2683" lon="5.82978">
        <ele>614.4</ele>
        <time>2015-08-22T16:24:51Z</time>
      </trkpt>
      <trkpt lat="45.26836" lon="5.82978">
        <ele>617</ele>
        <time>2015-08-22T16:24:57Z</time>
      </trkpt>
      <trkpt lat="45.26836" lon="5.82978">
        <ele>617.2</ele>
        <time>2015-08-22T16:24:58Z</time>
      </trkpt>
      <trkpt lat="45.26839" lon="5.82977">
        <ele>618.9</ele>
        <time>2015-08-22T16:25:03Z</time>
      </trkpt>
      <trkpt lat="45.26841" lon="5.82975">
        <ele>620.3</ele>
        <time>2015-08-22T16:25:06Z</time>
      </trkpt>
      <trkpt lat="45.26842" lon="5.82974">
        <ele>620.8</ele>
        <time>2015-08-22T16:25:08Z</time>
      </trkpt>
      <trkpt lat="45.26841" lon="5.82969">
        <ele>621.4</ele>
        <time>2015-08-22T16:25:14Z</time>
      </trkpt>
      <trkpt lat="45.26837" lon="5.82965">
        <ele>620.4</ele>
        <time>2015-08-22T16:25:20Z</time>
      </trkpt>
      <trkpt lat="45.26834" lon="5.82963">
        <ele>619.2</ele>
        <time>2015-08-22T16:25:26Z</time>
      </trkpt>
      <trkpt lat="45.26827" lon="5.82961">
        <ele>616.7</ele>
        <time>2015-08-22T16:25:33Z</time>
      </trkpt>
      <trkpt lat="45.26825" lon="5.82959">
        <ele>615.9</ele>
        <time>2015-08-22T16:25:37Z</time>
      </trkpt>
      <trkpt lat="45.26824" lon="5.82956">
        <ele>616.1</ele>
        <time>2015-08-22T16:25:39Z</time>
      </trkpt>
      <trkpt lat="45.26823" lon="5.82952">
        <ele>616.2</ele>
        <time>2015-08-22T16:25:42Z</time>
      </trkpt>
      <trkpt lat="45.26823" lon="5.82949">
        <ele>616.4</ele>
        <time>2015-08-22T16:25:44Z</time>
      </trkpt>
      <trkpt lat="45.26822" lon="5.82946">
        <ele>616.4</ele>
        <time>2015-08-22T16:25:47Z</time>
      </trkpt>
      <trkpt lat="45.26821" lon="5.82945">
        <ele>616.1</ele>
        <time>2015-08-22T16:25:49Z</time>
      </trkpt>
      <trkpt lat="45.26821" lon="5.82942">
        <ele>616.2</ele>
        <time>2015-08-22T16:25:52Z</time>
      </trkpt>
      <trkpt lat="45.26821" lon="5.8294">
        <ele>616.6</ele>
        <time>2015-08-22T16:25:54Z</time>
      </trkpt>
      <trkpt lat="45.26823" lon="5.82937">
        <ele>617.6</ele>
        <time>2015-08-22T16:25:59Z</time>
      </trkpt>
      <trkpt lat="45.26828" lon="5.82934">
        <ele>620.4</ele>
        <time>2015-08-22T16:26:05Z</time>
      </trkpt>
      <trkpt lat="45.26829" lon="5.82933">
        <ele>621</ele>
        <time>2015-08-22T16:26:06Z</time>
      </trkpt>
      <trkpt lat="45.26832" lon="5.82934">
        <ele>622.2</ele>
        <time>2015-08-22T16:26:10Z</time>
      </trkpt>
      <trkpt lat="45.26833" lon="5.82934">
        <ele>622.5</ele>
        <time>2015-08-22T16:26:11Z</time>
      </trkpt>
      <trkpt lat="45.26838" lon="5.82937">
        <ele>624.7</ele>
        <time>2015-08-22T16:26:16Z</time>
      </trkpt>
      <trkpt lat="45.26839" lon="5.82937">
        <ele>625</ele>
        <time>2015-08-22T16:26:17Z</time>
      </trkpt>
      <trkpt lat="45.26845" lon="5.82938">
        <ele>627.6</ele>
        <time>2015-08-22T16:26:22Z</time>
      </trkpt>
      <trkpt lat="45.2685" lon="5.82938">
        <ele>629.9</ele>
        <time>2015-08-22T16:26:27Z</time>
      </trkpt>
      <trkpt lat="45.26851" lon="5.82938">
        <ele>630.2</ele>
        <time>2015-08-22T16:26:28Z</time>
      </trkpt>
      <trkpt lat="45.26851" lon="5.82938">
        <ele>630.4</ele>
        <time>2015-08-22T16:26:29Z</time>
      </trkpt>
      <trkpt lat="45.26854" lon="5.82938">
        <ele>631.6</ele>
        <time>2015-08-22T16:26:34Z</time>
      </trkpt>
      <trkpt lat="45.26856" lon="5.82939">
        <ele>632.4</ele>
        <time>2015-08-22T16:26:36Z</time>
      </trkpt>
      <trkpt lat="45.26858" lon="5.82938">
        <ele>633.6</ele>
        <time>2015-08-22T16:26:38Z</time>
      </trkpt>
      <trkpt lat="45.26866" lon="5.82935">
        <ele>637.5</ele>
        <time>2015-08-22T16:26:46Z</time>
      </trkpt>
      <trkpt lat="45.26872" lon="5.82929">
        <ele>640.6</ele>
        <time>2015-08-22T16:26:53Z</time>
      </trkpt>
      <trkpt lat="45.26875" lon="5.82925">
        <ele>642.8</ele>
        <time>2015-08-22T16:26:57Z</time>
      </trkpt>
      <trkpt lat="45.26876" lon="5.82924">
        <ele>643.2</ele>
        <time>2015-08-22T16:26:58Z</time>
      </trkpt>
      <trkpt lat="45.26878" lon="5.82925">
        <ele>644</ele>
        <time>2015-08-22T16:27:02Z</time>
      </trkpt>
      <trkpt lat="45.26879" lon="5.82924">
        <ele>644.4</ele>
        <time>2015-08-22T16:27:03Z</time>
      </trkpt>
      <trkpt lat="45.26882" lon="5.8292">
        <ele>646.4</ele>
        <time>2015-08-22T16:27:08Z</time>
      </trkpt>
      <trkpt lat="45.26885" lon="5.82921">
        <ele>647.2</ele>
        <time>2015-08-22T16:27:11Z</time>
      </trkpt>
      <trkpt lat="45.26888" lon="5.82923">
        <ele>648.5</ele>
        <time>2015-08-22T16:27:13Z</time>
      </trkpt>
      <trkpt lat="45.26897" lon="5.82928">
        <ele>651.4</ele>
        <time>2015-08-22T16:27:20Z</time>
      </trkpt>
      <trkpt lat="45.26906" lon="5.82928">
        <ele>655.1</ele>
        <time>2015-08-22T16:27:26Z</time>
      </trkpt>
      <trkpt lat="45.2691" lon="5.82923">
        <ele>657.6</ele>
        <time>2015-08-22T16:27:31Z</time>
      </trkpt>
      <trkpt lat="45.26911" lon="5.82924">
        <ele>657.8</ele>
        <time>2015-08-22T16:27:32Z</time>
      </trkpt>
      <trkpt lat="45.26914" lon="5.82923">
        <ele>659.3</ele>
        <time>2015-08-22T16:27:36Z</time>
      </trkpt>
      <trkpt lat="45.26915" lon="5.82923">
        <ele>659.6</ele>
        <time>2015-08-22T16:27:37Z</time>
      </trkpt>
      <trkpt lat="45.26915" lon="5.82922">
        <ele>660.2</ele>
        <time>2015-08-22T16:27:38Z</time>
      </trkpt>
      <trkpt lat="45.26922" lon="5.82918">
        <ele>663.9</ele>
        <time>2015-08-22T16:27:43Z</time>
      </trkpt>
      <trkpt lat="45.26922" lon="5.82914">
        <ele>664.8</ele>
        <time>2015-08-22T16:27:45Z</time>
      </trkpt>
      <trkpt lat="45.26924" lon="5.82912">
        <ele>665.9</ele>
        <time>2015-08-22T16:27:49Z</time>
      </trkpt>
      <trkpt lat="45.26925" lon="5.82911">
        <ele>666.5</ele>
        <time>2015-08-22T16:27:50Z</time>
      </trkpt>
      <trkpt lat="45.26926" lon="5.82909">
        <ele>667.2</ele>
        <time>2015-08-22T16:27:52Z</time>
      </trkpt>
      <trkpt lat="45.26925" lon="5.82906">
        <ele>667.8</ele>
        <time>2015-08-22T16:27:55Z</time>
      </trkpt>
      <trkpt lat="45.26926" lon="5.82902">
        <ele>668.9</ele>
        <time>2015-08-22T16:27:57Z</time>
      </trkpt>
      <trkpt lat="45.26928" lon="5.82898">
        <ele>670.7</ele>
        <time>2015-08-22T16:28:00Z</time>
      </trkpt>
      <trkpt lat="45.26927" lon="5.82896">
        <ele>671.1</ele>
        <time>2015-08-22T16:28:02Z</time>
      </trkpt>
      <trkpt lat="45.26929" lon="5.82896">
        <ele>671.8</ele>
        <time>2015-08-22T16:28:03Z</time>
      </trkpt>
      <trkpt lat="45.26928" lon="5.82896">
        <ele>671.6</ele>
        <time>2015-08-22T16:28:04Z</time>
      </trkpt>
      <trkpt lat="45.26927" lon="5.82892">
        <ele>671.7</ele>
        <time>2015-08-22T16:28:10Z</time>
      </trkpt>
      <trkpt lat="45.26925" lon="5.82888">
        <ele>671.4</ele>
        <time>2015-08-22T16:28:14Z</time>
      </trkpt>
      <trkpt lat="45.26925" lon="5.82887">
        <ele>671.7</ele>
        <time>2015-08-22T16:28:15Z</time>
      </trkpt>
      <trkpt lat="45.26924" lon="5.82876">
        <ele>673.6</ele>
        <time>2015-08-22T16:28:23Z</time>
      </trkpt>
      <trkpt lat="45.26924" lon="5.82872">
        <ele>674.5</ele>
        <time>2015-08-22T16:28:27Z</time>
      </trkpt>
      <trkpt lat="45.26925" lon="5.82871">
        <ele>675</ele>
        <time>2015-08-22T16:28:29Z</time>
      </trkpt>
      <trkpt lat="45.26925" lon="5.8287">
        <ele>675.3</ele>
        <time>2015-08-22T16:28:30Z</time>
      </trkpt>
      <trkpt lat="45.26925" lon="5.82868">
        <ele>675.8</ele>
        <time>2015-08-22T16:28:33Z</time>
      </trkpt>
      <trkpt lat="45.26924" lon="5.82863">
        <ele>676</ele>
        <time>2015-08-22T16:28:39Z</time>
      </trkpt>
      <trkpt lat="45.26924" lon="5.82861">
        <ele>676.5</ele>
        <time>2015-08-22T16:28:45Z</time>
      </trkpt>
      <trkpt lat="45.26929" lon="5.82861">
        <ele>679.1</ele>
        <time>2015-08-22T16:28:52Z</time>
      </trkpt>
      <trkpt lat="45.26933" lon="5.82861">
        <ele>681.7</ele>
        <time>2015-08-22T16:28:59Z</time>
      </trkpt>
      <trkpt lat="45.26939" lon="5.82862">
        <ele>684.5</ele>
        <time>2015-08-22T16:29:06Z</time>
      </trkpt>
      <trkpt lat="45.26942" lon="5.82863">
        <ele>685.9</ele>
        <time>2015-08-22T16:29:12Z</time>
      </trkpt>
      <trkpt lat="45.26944" lon="5.82863">
        <ele>687.3</ele>
        <time>2015-08-22T16:29:17Z</time>
      </trkpt>
      <trkpt lat="45.26947" lon="5.82862">
        <ele>688.7</ele>
        <time>2015-08-22T16:29:20Z</time>
      </trkpt>
      <trkpt lat="45.2695" lon="5.82863">
        <ele>690</ele>
        <time>2015-08-22T16:29:24Z</time>
      </trkpt>
      <trkpt lat="45.26951" lon="5.82863">
        <ele>690.6</ele>
        <time>2015-08-22T16:29:26Z</time>
      </trkpt>
      <trkpt lat="45.26954" lon="5.82868">
        <ele>691.4</ele>
        <time>2015-08-22T16:29:32Z</time>
      </trkpt>
      <trkpt lat="45.26955" lon="5.82869">
        <ele>691.8</ele>
        <time>2015-08-22T16:29:33Z</time>
      </trkpt>
      <trkpt lat="45.2696" lon="5.8287">
        <ele>693.6</ele>
        <time>2015-08-22T16:29:39Z</time>
      </trkpt>
      <trkpt lat="45.26962" lon="5.82872">
        <ele>693.9</ele>
        <time>2015-08-22T16:29:42Z</time>
      </trkpt>
      <trkpt lat="45.26964" lon="5.82873">
        <ele>694.2</ele>
        <time>2015-08-22T16:29:45Z</time>
      </trkpt>
      <trkpt lat="45.26967" lon="5.82875">
        <ele>694.9</ele>
        <time>2015-08-22T16:29:52Z</time>
      </trkpt>
      <trkpt lat="45.26968" lon="5.82874">
        <ele>695.4</ele>
        <time>2015-08-22T16:29:53Z</time>
      </trkpt>
      <trkpt lat="45.26971" lon="5.82873">
        <ele>696.8</ele>
        <time>2015-08-22T16:29:58Z</time>
      </trkpt>
      <trkpt lat="45.26974" lon="5.82873">
        <ele>697.4</ele>
        <time>2015-08-22T16:30:03Z</time>
      </trkpt>
      <trkpt lat="45.26977" lon="5.82871">
        <ele>698.9</ele>
        <time>2015-08-22T16:30:07Z</time>
      </trkpt>
      <trkpt lat="45.26983" lon="5.82872">
        <ele>700.7</ele>
        <time>2015-08-22T16:30:15Z</time>
      </trkpt>
      <trkpt lat="45.26986" lon="5.82871">
        <ele>701.8</ele>
        <time>2015-08-22T16:30:21Z</time>
      </trkpt>
      <trkpt lat="45.26987" lon="5.82865">
        <ele>703.6</ele>
        <time>2015-08-22T16:30:27Z</time>
      </trkpt>
      <trkpt lat="45.26987" lon="5.82858">
        <ele>705.8</ele>
        <time>2015-08-22T16:30:33Z</time>
      </trkpt>
      <trkpt lat="45.26988" lon="5.82855">
        <ele>706.7</ele>
        <time>2015-08-22T16:30:37Z</time>
      </trkpt>
      <trkpt lat="45.2699" lon="5.82849">
        <ele>709</ele>
        <time>2015-08-22T16:30:44Z</time>
      </trkpt>
      <trkpt lat="45.26992" lon="5.82846">
        <ele>710.6</ele>
        <time>2015-08-22T16:30:49Z</time>
      </trkpt>
      <trkpt lat="45.26994" lon="5.82841">
        <ele>712.5</ele>
        <time>2015-08-22T16:30:56Z</time>
      </trkpt>
      <trkpt lat="45.26998" lon="5.82838">
        <ele>714.9</ele>
        <time>2015-08-22T16:31:00Z</time>
      </trkpt>
      <trkpt lat="45.26999" lon="5.82837">
        <ele>715.5</ele>
        <time>2015-08-22T16:31:01Z</time>
      </trkpt>
      <trkpt lat="45.26999" lon="5.82833">
        <ele>716.7</ele>
        <time>2015-08-22T16:31:05Z</time>
      </trkpt>
      <trkpt lat="45.27" lon="5.82832">
        <ele>717.1</ele>
        <time>2015-08-22T16:31:06Z</time>
      </trkpt>
      <trkpt lat="45.27" lon="5.8283">
        <ele>717.8</ele>
        <time>2015-08-22T16:31:09Z</time>
      </trkpt>
      <trkpt lat="45.27" lon="5.8283">
        <ele>717.9</ele>
        <time>2015-08-22T16:31:11Z</time>
      </trkpt>
      <trkpt lat="45.27002" lon="5.82824">
        <ele>720.3</ele>
        <time>2015-08-22T16:31:17Z</time>
      </trkpt>
      <trkpt lat="45.27003" lon="5.82822">
        <ele>721.2</ele>
        <time>2015-08-22T16:31:21Z</time>
      </trkpt>
      <trkpt lat="45.27004" lon="5.82817">
        <ele>723.1</ele>
        <time>2015-08-22T16:31:28Z</time>
      </trkpt>
      <trkpt lat="45.27004" lon="5.82814">
        <ele>723.6</ele>
        <time>2015-08-22T16:31:32Z</time>
      </trkpt>
      <trkpt lat="45.27004" lon="5.82815">
        <ele>723.8</ele>
        <time>2015-08-22T16:31:39Z</time>
      </trkpt>
      <trkpt lat="45.27006" lon="5.82815">
        <ele>724.4</ele>
        <time>2015-08-22T16:31:44Z</time>
      </trkpt>
      <trkpt lat="45.27008" lon="5.82814">
        <ele>725.7</ele>
        <time>2015-08-22T16:31:46Z</time>
      </trkpt>
      <trkpt lat="45.27009" lon="5.82813">
        <ele>726.2</ele>
        <time>2015-08-22T16:31:49Z</time>
      </trkpt>
      <trkpt lat="45.2701" lon="5.82815">
        <ele>726</ele>
        <time>2015-08-22T16:31:55Z</time>
      </trkpt>
      <trkpt lat="45.27012" lon="5.82816">
        <ele>726.6</ele>
        <time>2015-08-22T16:32:01Z</time>
      </trkpt>
      <trkpt lat="45.27016" lon="5.82813">
        <ele>728.8</ele>
        <time>2015-08-22T16:32:09Z</time>
      </trkpt>
      <trkpt lat="45.27018" lon="5.82809">
        <ele>730.8</ele>
        <time>2015-08-22T16:32:16Z</time>
      </trkpt>
      <trkpt lat="45.27021" lon="5.82807">
        <ele>732.9</ele>
        <time>2015-08-22T16:32:21Z</time>
      </trkpt>
      <trkpt lat="45.27026" lon="5.82802">
        <ele>736.5</ele>
        <time>2015-08-22T16:32:27Z</time>
      </trkpt>
      <trkpt lat="45.27027" lon="5.82801">
        <ele>737.1</ele>
        <time>2015-08-22T16:32:28Z</time>
      </trkpt>
      <trkpt lat="45.27029" lon="5.82799">
        <ele>738.6</ele>
        <time>2015-08-22T16:32:31Z</time>
      </trkpt>
      <trkpt lat="45.27031" lon="5.82797">
        <ele>739.8</ele>
        <time>2015-08-22T16:32:33Z</time>
      </trkpt>
      <trkpt lat="45.27032" lon="5.82795">
        <ele>741</ele>
        <time>2015-08-22T16:32:38Z</time>
      </trkpt>
      <trkpt lat="45.27033" lon="5.82793">
        <ele>741.9</ele>
        <time>2015-08-22T16:32:39Z</time>
      </trkpt>
      <trkpt lat="45.27035" lon="5.82793">
        <ele>743</ele>
        <time>2015-08-22T16:32:43Z</time>
      </trkpt>
      <trkpt lat="45.27038" lon="5.82789">
        <ele>745.1</ele>
        <time>2015-08-22T16:32:51Z</time>
      </trkpt>
      <trkpt lat="45.27039" lon="5.82788">
        <ele>746.2</ele>
        <time>2015-08-22T16:32:56Z</time>
      </trkpt>
      <trkpt lat="45.27037" lon="5.82783">
        <ele>746.4</ele>
        <time>2015-08-22T16:33:04Z</time>
      </trkpt>
      <trkpt lat="45.27037" lon="5.8278">
        <ele>747.5</ele>
        <time>2015-08-22T16:33:07Z</time>
      </trkpt>
      <trkpt lat="45.27037" lon="5.82778">
        <ele>748.2</ele>
        <time>2015-08-22T16:33:09Z</time>
      </trkpt>
      <trkpt lat="45.27037" lon="5.82776">
        <ele>748.5</ele>
        <time>2015-08-22T16:33:11Z</time>
      </trkpt>
      <trkpt lat="45.27037" lon="5.82774">
        <ele>749.3</ele>
        <time>2015-08-22T16:33:13Z</time>
      </trkpt>
      <trkpt lat="45.27037" lon="5.82769">
        <ele>750.9</ele>
        <time>2015-08-22T16:33:18Z</time>
      </trkpt>
      <trkpt lat="45.27039" lon="5.82764">
        <ele>752.9</ele>
        <time>2015-08-22T16:33:23Z</time>
      </trkpt>
      <trkpt lat="45.27039" lon="5.82764">
        <ele>753.2</ele>
        <time>2015-08-22T16:33:25Z</time>
      </trkpt>
      <trkpt lat="45.27046" lon="5.82763">
        <ele>755.6</ele>
        <time>2015-08-22T16:33:31Z</time>
      </trkpt>
      <trkpt lat="45.27048" lon="5.82762">
        <ele>756.1</ele>
        <time>2015-08-22T16:33:34Z</time>
      </trkpt>
      <trkpt lat="45.27053" lon="5.82761">
        <ele>757.3</ele>
        <time>2015-08-22T16:33:37Z</time>
      </trkpt>
      <trkpt lat="45.27058" lon="5.8276">
        <ele>758.9</ele>
        <time>2015-08-22T16:33:42Z</time>
      </trkpt>
      <trkpt lat="45.27065" lon="5.8276">
        <ele>760.4</ele>
        <time>2015-08-22T16:33:47Z</time>
      </trkpt>
      <trkpt lat="45.27066" lon="5.8276">
        <ele>760.7</ele>
        <time>2015-08-22T16:33:48Z</time>
      </trkpt>
      <trkpt lat="45.27071" lon="5.8276">
        <ele>761.7</ele>
        <time>2015-08-22T16:33:52Z</time>
      </trkpt>
      <trkpt lat="45.27073" lon="5.82761">
        <ele>761.8</ele>
        <time>2015-08-22T16:33:53Z</time>
      </trkpt>
      <trkpt lat="45.27079" lon="5.82764">
        <ele>761.8</ele>
        <time>2015-08-22T16:33:57Z</time>
      </trkpt>
      <trkpt lat="45.27083" lon="5.82766">
        <ele>762</ele>
        <time>2015-08-22T16:33:59Z</time>
      </trkpt>
      <trkpt lat="45.27088" lon="5.82768">
        <ele>762.3</ele>
        <time>2015-08-22T16:34:02Z</time>
      </trkpt>
      <trkpt lat="45.27095" lon="5.82768">
        <ele>763.5</ele>
        <time>2015-08-22T16:34:09Z</time>
      </trkpt>
      <trkpt lat="45.27099" lon="5.82767">
        <ele>764.6</ele>
        <time>2015-08-22T16:34:15Z</time>
      </trkpt>
      <trkpt lat="45.27102" lon="5.82769">
        <ele>764.7</ele>
        <time>2015-08-22T16:34:20Z</time>
      </trkpt>
      <trkpt lat="45.27107" lon="5.82769">
        <ele>765.6</ele>
        <time>2015-08-22T16:34:24Z</time>
      </trkpt>
      <trkpt lat="45.27109" lon="5.82769">
        <ele>765.9</ele>
        <time>2015-08-22T16:34:26Z</time>
      </trkpt>
      <trkpt lat="45.27111" lon="5.82771">
        <ele>765.5</ele>
        <time>2015-08-22T16:34:28Z</time>
      </trkpt>
      <trkpt lat="45.27114" lon="5.82773">
        <ele>765.3</ele>
        <time>2015-08-22T16:34:31Z</time>
      </trkpt>
      <trkpt lat="45.27121" lon="5.82772">
        <ele>767</ele>
        <time>2015-08-22T16:34:36Z</time>
      </trkpt>
      <trkpt lat="45.27125" lon="5.8277">
        <ele>768.4</ele>
        <time>2015-08-22T16:34:38Z</time>
      </trkpt>
      <trkpt lat="45.2713" lon="5.82769">
        <ele>768.6</ele>
        <time>2015-08-22T16:34:41Z</time>
      </trkpt>
      <trkpt lat="45.27131" lon="5.82769">
        <ele>768.4</ele>
        <time>2015-08-22T16:34:42Z</time>
      </trkpt>
      <trkpt lat="45.27133" lon="5.8277">
        <ele>768</ele>
        <time>2015-08-22T16:34:45Z</time>
      </trkpt>
      <trkpt lat="45.27139" lon="5.82767">
        <ele>768.5</ele>
        <time>2015-08-22T16:34:50Z</time>
      </trkpt>
      <trkpt lat="45.27146" lon="5.82761">
        <ele>770.5</ele>
        <time>2015-08-22T16:34:56Z</time>
      </trkpt>
      <trkpt lat="45.27154" lon="5.82759">
        <ele>770.8</ele>
        <time>2015-08-22T16:35:01Z</time>
      </trkpt>
      <trkpt lat="45.2716" lon="5.82756">
        <ele>771.5</ele>
        <time>2015-08-22T16:35:04Z</time>
      </trkpt>
      <trkpt lat="45.27161" lon="5.82754">
        <ele>772</ele>
        <time>2015-08-22T16:35:05Z</time>
      </trkpt>
      <trkpt lat="45.27171" lon="5.82754">
        <ele>771.2</ele>
        <time>2015-08-22T16:35:09Z</time>
      </trkpt>
      <trkpt lat="45.27171" lon="5.82755">
        <ele>770.8</ele>
        <time>2015-08-22T16:35:10Z</time>
      </trkpt>
      <trkpt lat="45.27177" lon="5.82758">
        <ele>769</ele>
        <time>2015-08-22T16:35:15Z</time>
      </trkpt>
      <trkpt lat="45.27179" lon="5.82758">
        <ele>768.8</ele>
        <time>2015-08-22T16:35:17Z</time>
      </trkpt>
      <trkpt lat="45.27181" lon="5.82757">
        <ele>768.9</ele>
        <time>2015-08-22T16:35:19Z</time>
      </trkpt>
      <trkpt lat="45.27182" lon="5.82757">
        <ele>768.6</ele>
        <time>2015-08-22T16:35:21Z</time>
      </trkpt>
      <trkpt lat="45.27188" lon="5.82758">
        <ele>767.9</ele>
        <time>2015-08-22T16:35:25Z</time>
      </trkpt>
      <trkpt lat="45.27194" lon="5.8276">
        <ele>766.1</ele>
        <time>2015-08-22T16:35:30Z</time>
      </trkpt>
      <trkpt lat="45.27198" lon="5.82758">
        <ele>767</ele>
        <time>2015-08-22T16:35:35Z</time>
      </trkpt>
      <trkpt lat="45.27198" lon="5.82757">
        <ele>767.4</ele>
        <time>2015-08-22T16:35:36Z</time>
      </trkpt>
      <trkpt lat="45.27199" lon="5.82753">
        <ele>768.9</ele>
        <time>2015-08-22T16:35:38Z</time>
      </trkpt>
      <trkpt lat="45.272" lon="5.82752">
        <ele>769.2</ele>
        <time>2015-08-22T16:35:39Z</time>
      </trkpt>
      <trkpt lat="45.27202" lon="5.8275">
        <ele>770.2</ele>
        <time>2015-08-22T16:35:45Z</time>
      </trkpt>
      <trkpt lat="45.27206" lon="5.82744">
        <ele>772.6</ele>
        <time>2015-08-22T16:35:51Z</time>
      </trkpt>
      <trkpt lat="45.27207" lon="5.82739">
        <ele>774.7</ele>
        <time>2015-08-22T16:35:56Z</time>
      </trkpt>
      <trkpt lat="45.27206" lon="5.82737">
        <ele>776</ele>
        <time>2015-08-22T16:35:58Z</time>
      </trkpt>
      <trkpt lat="45.27205" lon="5.82734">
        <ele>777.5</ele>
        <time>2015-08-22T16:36:00Z</time>
      </trkpt>
      <trkpt lat="45.27207" lon="5.82727">
        <ele>780.6</ele>
        <time>2015-08-22T16:36:06Z</time>
      </trkpt>
      <trkpt lat="45.27207" lon="5.82724">
        <ele>781.9</ele>
        <time>2015-08-22T16:36:08Z</time>
      </trkpt>
      <trkpt lat="45.27208" lon="5.82717">
        <ele>785</ele>
        <time>2015-08-22T16:36:11Z</time>
      </trkpt>
      <trkpt lat="45.27208" lon="5.82709">
        <ele>788.9</ele>
        <time>2015-08-22T16:36:17Z</time>
      </trkpt>
      <trkpt lat="45.27208" lon="5.82706">
        <ele>790.4</ele>
        <time>2015-08-22T16:36:21Z</time>
      </trkpt>
      <trkpt lat="45.27208" lon="5.82705">
        <ele>790.8</ele>
        <time>2015-08-22T16:36:22Z</time>
      </trkpt>
      <trkpt lat="45.2721" lon="5.82698">
        <ele>793.6</ele>
        <time>2015-08-22T16:36:30Z</time>
      </trkpt>
      <trkpt lat="45.2721" lon="5.82697">
        <ele>794.4</ele>
        <time>2015-08-22T16:36:31Z</time>
      </trkpt>
      <trkpt lat="45.27209" lon="5.82693">
        <ele>797.1</ele>
        <time>2015-08-22T16:36:36Z</time>
      </trkpt>
      <trkpt lat="45.2721" lon="5.82687">
        <ele>799.4</ele>
        <time>2015-08-22T16:36:41Z</time>
      </trkpt>
      <trkpt lat="45.27212" lon="5.82683">
        <ele>800.7</ele>
        <time>2015-08-22T16:36:44Z</time>
      </trkpt>
      <trkpt lat="45.27213" lon="5.82681">
        <ele>801.3</ele>
        <time>2015-08-22T16:36:45Z</time>
      </trkpt>
      <trkpt lat="45.27214" lon="5.82673">
        <ele>804.6</ele>
        <time>2015-08-22T16:36:50Z</time>
      </trkpt>
      <trkpt lat="45.27216" lon="5.82667">
        <ele>806.9</ele>
        <time>2015-08-22T16:36:54Z</time>
      </trkpt>
      <trkpt lat="45.27217" lon="5.8266">
        <ele>810</ele>
        <time>2015-08-22T16:36:59Z</time>
      </trkpt>
      <trkpt lat="45.27216" lon="5.82657">
        <ele>811.9</ele>
        <time>2015-08-22T16:37:02Z</time>
      </trkpt>
      <trkpt lat="45.27216" lon="5.82657">
        <ele>812.1</ele>
        <time>2015-08-22T16:37:03Z</time>
      </trkpt>
      <trkpt lat="45.27217" lon="5.82653">
        <ele>813.8</ele>
        <time>2015-08-22T16:37:07Z</time>
      </trkpt>
      <trkpt lat="45.27216" lon="5.8265">
        <ele>815.5</ele>
        <time>2015-08-22T16:37:12Z</time>
      </trkpt>
      <trkpt lat="45.27215" lon="5.82648">
        <ele>817.2</ele>
        <time>2015-08-22T16:37:16Z</time>
      </trkpt>
      <trkpt lat="45.27214" lon="5.82643">
        <ele>820.9</ele>
        <time>2015-08-22T16:37:23Z</time>
      </trkpt>
      <trkpt lat="45.27215" lon="5.82637">
        <ele>823.3</ele>
        <time>2015-08-22T16:37:28Z</time>
      </trkpt>
      <trkpt lat="45.27219" lon="5.82636">
        <ele>821.7</ele>
        <time>2015-08-22T16:37:31Z</time>
      </trkpt>
      <trkpt lat="45.27219" lon="5.82636">
        <ele>821.9</ele>
        <time>2015-08-22T16:37:33Z</time>
      </trkpt>
      <trkpt lat="45.2722" lon="5.82634">
        <ele>822.3</ele>
        <time>2015-08-22T16:37:40Z</time>
      </trkpt>
      <trkpt lat="45.27224" lon="5.82629">
        <ele>822.7</ele>
        <time>2015-08-22T16:37:47Z</time>
      </trkpt>
      <trkpt lat="45.27225" lon="5.82628">
        <ele>822.9</ele>
        <time>2015-08-22T16:37:48Z</time>
      </trkpt>
      <trkpt lat="45.27224" lon="5.82624">
        <ele>824.9</ele>
        <time>2015-08-22T16:37:52Z</time>
      </trkpt>
      <trkpt lat="45.27223" lon="5.82623">
        <ele>826.3</ele>
        <time>2015-08-22T16:37:56Z</time>
      </trkpt>
      <trkpt lat="45.2722" lon="5.82623">
        <ele>827.4</ele>
        <time>2015-08-22T16:37:58Z</time>
      </trkpt>
      <trkpt lat="45.27215" lon="5.82627">
        <ele>828.5</ele>
        <time>2015-08-22T16:38:02Z</time>
      </trkpt>
      <trkpt lat="45.27213" lon="5.82629">
        <ele>828.7</ele>
        <time>2015-08-22T16:38:04Z</time>
      </trkpt>
      <trkpt lat="45.2721" lon="5.82629">
        <ele>830</ele>
        <time>2015-08-22T16:38:07Z</time>
      </trkpt>
      <trkpt lat="45.27208" lon="5.82627">
        <ele>831.9</ele>
        <time>2015-08-22T16:38:11Z</time>
      </trkpt>
      <trkpt lat="45.27204" lon="5.82628">
        <ele>831.5</ele>
        <time>2015-08-22T16:38:16Z</time>
      </trkpt>
      <trkpt lat="45.27205" lon="5.8263">
        <ele>830.7</ele>
        <time>2015-08-22T16:38:20Z</time>
      </trkpt>
      <trkpt lat="45.27203" lon="5.82631">
        <ele>830</ele>
        <time>2015-08-22T16:38:21Z</time>
      </trkpt>
      <trkpt lat="45.272" lon="5.82635">
        <ele>828.2</ele>
        <time>2015-08-22T16:38:24Z</time>
      </trkpt>
      <trkpt lat="45.27199" lon="5.82634">
        <ele>828.5</ele>
        <time>2015-08-22T16:38:26Z</time>
      </trkpt>
      <trkpt lat="45.27197" lon="5.82629">
        <ele>831.3</ele>
        <time>2015-08-22T16:38:33Z</time>
      </trkpt>
      <trkpt lat="45.27198" lon="5.82625">
        <ele>833.7</ele>
        <time>2015-08-22T16:38:37Z</time>
      </trkpt>
      <trkpt lat="45.272" lon="5.82619">
        <ele>835.6</ele>
        <time>2015-08-22T16:38:43Z</time>
      </trkpt>
      <trkpt lat="45.27204" lon="5.82616">
        <ele>836.4</ele>
        <time>2015-08-22T16:38:49Z</time>
      </trkpt>
      <trkpt lat="45.27206" lon="5.82612">
        <ele>837.9</ele>
        <time>2015-08-22T16:38:54Z</time>
      </trkpt>
      <trkpt lat="45.27209" lon="5.8261">
        <ele>838.4</ele>
        <time>2015-08-22T16:39:00Z</time>
      </trkpt>
      <trkpt lat="45.27213" lon="5.82611">
        <ele>835.6</ele>
        <time>2015-08-22T16:39:09Z</time>
      </trkpt>
      <trkpt lat="45.27216" lon="5.82603">
        <ele>837.1</ele>
        <time>2015-08-22T16:39:15Z</time>
      </trkpt>
      <trkpt lat="45.27217" lon="5.82602">
        <ele>837.1</ele>
        <time>2015-08-22T16:39:16Z</time>
      </trkpt>
      <trkpt lat="45.27219" lon="5.82599">
        <ele>837.1</ele>
        <time>2015-08-22T16:39:21Z</time>
      </trkpt>
      <trkpt lat="45.27219" lon="5.82593">
        <ele>839.4</ele>
        <time>2015-08-22T16:39:25Z</time>
      </trkpt>
      <trkpt lat="45.2722" lon="5.82591">
        <ele>839.9</ele>
        <time>2015-08-22T16:39:26Z</time>
      </trkpt>
      <trkpt lat="45.27219" lon="5.82587">
        <ele>841.4</ele>
        <time>2015-08-22T16:39:28Z</time>
      </trkpt>
      <trkpt lat="45.27218" lon="5.82586">
        <ele>842.5</ele>
        <time>2015-08-22T16:39:30Z</time>
      </trkpt>
      <trkpt lat="45.27218" lon="5.82581">
        <ele>844.2</ele>
        <time>2015-08-22T16:39:34Z</time>
      </trkpt>
      <trkpt lat="45.27218" lon="5.8258">
        <ele>844.4</ele>
        <time>2015-08-22T16:39:36Z</time>
      </trkpt>
      <trkpt lat="45.2722" lon="5.82577">
        <ele>845</ele>
        <time>2015-08-22T16:39:41Z</time>
      </trkpt>
      <trkpt lat="45.27221" lon="5.82573">
        <ele>845.7</ele>
        <time>2015-08-22T16:39:46Z</time>
      </trkpt>
      <trkpt lat="45.27222" lon="5.82571">
        <ele>846.1</ele>
        <time>2015-08-22T16:39:48Z</time>
      </trkpt>
      <trkpt lat="45.27222" lon="5.82569">
        <ele>847</ele>
        <time>2015-08-22T16:39:51Z</time>
      </trkpt>
      <trkpt lat="45.27219" lon="5.82569">
        <ele>848.1</ele>
        <time>2015-08-22T16:39:55Z</time>
      </trkpt>
      <trkpt lat="45.27218" lon="5.8257">
        <ele>848.3</ele>
        <time>2015-08-22T16:39:56Z</time>
      </trkpt>
      <trkpt lat="45.27211" lon="5.82571">
        <ele>851.3</ele>
        <time>2015-08-22T16:40:02Z</time>
      </trkpt>
      <trkpt lat="45.2721" lon="5.82571">
        <ele>852.1</ele>
        <time>2015-08-22T16:40:04Z</time>
      </trkpt>
      <trkpt lat="45.27208" lon="5.82572">
        <ele>852</ele>
        <time>2015-08-22T16:40:07Z</time>
      </trkpt>
      <trkpt lat="45.27206" lon="5.82575">
        <ele>850.8</ele>
        <time>2015-08-22T16:40:12Z</time>
      </trkpt>
      <trkpt lat="45.27206" lon="5.82577">
        <ele>850.5</ele>
        <time>2015-08-22T16:40:13Z</time>
      </trkpt>
      <trkpt lat="45.27205" lon="5.82581">
        <ele>848.9</ele>
        <time>2015-08-22T16:40:17Z</time>
      </trkpt>
      <trkpt lat="45.27203" lon="5.82581">
        <ele>848.7</ele>
        <time>2015-08-22T16:40:19Z</time>
      </trkpt>
      <trkpt lat="45.27197" lon="5.82582">
        <ele>848.7</ele>
        <time>2015-08-22T16:40:25Z</time>
      </trkpt>
      <trkpt lat="45.27195" lon="5.82581">
        <ele>848.8</ele>
        <time>2015-08-22T16:40:26Z</time>
      </trkpt>
      <trkpt lat="45.27192" lon="5.82582">
        <ele>848.5</ele>
        <time>2015-08-22T16:40:30Z</time>
      </trkpt>
      <trkpt lat="45.2719" lon="5.82584">
        <ele>848</ele>
        <time>2015-08-22T16:40:33Z</time>
      </trkpt>
      <trkpt lat="45.27189" lon="5.82584">
        <ele>847.9</ele>
        <time>2015-08-22T16:40:34Z</time>
      </trkpt>
      <trkpt lat="45.27182" lon="5.82587">
        <ele>847.1</ele>
        <time>2015-08-22T16:40:41Z</time>
      </trkpt>
      <trkpt lat="45.27174" lon="5.82589">
        <ele>846.5</ele>
        <time>2015-08-22T16:40:48Z</time>
      </trkpt>
      <trkpt lat="45.27173" lon="5.82588">
        <ele>846.8</ele>
        <time>2015-08-22T16:40:49Z</time>
      </trkpt>
      <trkpt lat="45.27171" lon="5.82587">
        <ele>847.1</ele>
        <time>2015-08-22T16:40:51Z</time>
      </trkpt>
      <trkpt lat="45.27171" lon="5.82588">
        <ele>846.8</ele>
        <time>2015-08-22T16:40:52Z</time>
      </trkpt>
      <trkpt lat="45.27173" lon="5.82588">
        <ele>846.9</ele>
        <time>2015-08-22T16:40:55Z</time>
      </trkpt>
      <trkpt lat="45.27177" lon="5.82587">
        <ele>847.3</ele>
        <time>2015-08-22T16:40:58Z</time>
      </trkpt>
      <trkpt lat="45.27179" lon="5.82583">
        <ele>848.4</ele>
        <time>2015-08-22T16:41:00Z</time>
      </trkpt>
      <trkpt lat="45.2718" lon="5.82581">
        <ele>849.1</ele>
        <time>2015-08-22T16:41:02Z</time>
      </trkpt>
      <trkpt lat="45.2718" lon="5.82579">
        <ele>849.7</ele>
        <time>2015-08-22T16:41:04Z</time>
      </trkpt>
      <trkpt lat="45.2718" lon="5.8258">
        <ele>849.6</ele>
        <time>2015-08-22T16:41:09Z</time>
      </trkpt>
      <trkpt lat="45.2718" lon="5.82579">
        <ele>849.9</ele>
        <time>2015-08-22T16:41:10Z</time>
      </trkpt>
      <trkpt lat="45.27182" lon="5.82575">
        <ele>851</ele>
        <time>2015-08-22T16:41:14Z</time>
      </trkpt>
      <trkpt lat="45.27185" lon="5.82571">
        <ele>852.6</ele>
        <time>2015-08-22T16:41:19Z</time>
      </trkpt>
      <trkpt lat="45.27187" lon="5.82567">
        <ele>853.8</ele>
        <time>2015-08-22T16:41:24Z</time>
      </trkpt>
      <trkpt lat="45.27187" lon="5.82561">
        <ele>855.7</ele>
        <time>2015-08-22T16:41:28Z</time>
      </trkpt>
      <trkpt lat="45.27189" lon="5.82558">
        <ele>857</ele>
        <time>2015-08-22T16:41:30Z</time>
      </trkpt>
      <trkpt lat="45.27189" lon="5.82556">
        <ele>857.7</ele>
        <time>2015-08-22T16:41:32Z</time>
      </trkpt>
      <trkpt lat="45.27191" lon="5.82553">
        <ele>858.6</ele>
        <time>2015-08-22T16:41:35Z</time>
      </trkpt>
      <trkpt lat="45.27191" lon="5.82551">
        <ele>859.3</ele>
        <time>2015-08-22T16:41:37Z</time>
      </trkpt>
      <trkpt lat="45.2719" lon="5.82546">
        <ele>861.1</ele>
        <time>2015-08-22T16:41:41Z</time>
      </trkpt>
      <trkpt lat="45.2719" lon="5.82544">
        <ele>861.9</ele>
        <time>2015-08-22T16:41:43Z</time>
      </trkpt>
      <trkpt lat="45.27192" lon="5.82538">
        <ele>864</ele>
        <time>2015-08-22T16:41:50Z</time>
      </trkpt>
      <trkpt lat="45.27192" lon="5.82538">
        <ele>864.3</ele>
        <time>2015-08-22T16:41:51Z</time>
      </trkpt>
      <trkpt lat="45.27192" lon="5.82536">
        <ele>864.9</ele>
        <time>2015-08-22T16:41:54Z</time>
      </trkpt>
      <trkpt lat="45.27194" lon="5.82527">
        <ele>868.8</ele>
        <time>2015-08-22T16:42:00Z</time>
      </trkpt>
      <trkpt lat="45.27194" lon="5.82526">
        <ele>869.1</ele>
        <time>2015-08-22T16:42:01Z</time>
      </trkpt>
      <trkpt lat="45.27196" lon="5.82523">
        <ele>870.5</ele>
        <time>2015-08-22T16:42:06Z</time>
      </trkpt>
      <trkpt lat="45.27195" lon="5.82518">
        <ele>872.1</ele>
        <time>2015-08-22T16:42:11Z</time>
      </trkpt>
      <trkpt lat="45.27194" lon="5.82517">
        <ele>872.5</ele>
        <time>2015-08-22T16:42:12Z</time>
      </trkpt>
      <trkpt lat="45.27195" lon="5.82514">
        <ele>873.8</ele>
        <time>2015-08-22T16:42:16Z</time>
      </trkpt>
      <trkpt lat="45.27197" lon="5.8251">
        <ele>875.9</ele>
        <time>2015-08-22T16:42:19Z</time>
      </trkpt>
      <trkpt lat="45.27198" lon="5.82508">
        <ele>876.5</ele>
        <time>2015-08-22T16:42:20Z</time>
      </trkpt>
      <trkpt lat="45.272" lon="5.82503">
        <ele>878.7</ele>
        <time>2015-08-22T16:42:24Z</time>
      </trkpt>
      <trkpt lat="45.27204" lon="5.82495">
        <ele>882.4</ele>
        <time>2015-08-22T16:42:30Z</time>
      </trkpt>
      <trkpt lat="45.27204" lon="5.82494">
        <ele>882.9</ele>
        <time>2015-08-22T16:42:31Z</time>
      </trkpt>
      <trkpt lat="45.27207" lon="5.8249">
        <ele>884.6</ele>
        <time>2015-08-22T16:42:35Z</time>
      </trkpt>
      <trkpt lat="45.27207" lon="5.8249">
        <ele>884.7</ele>
        <time>2015-08-22T16:42:36Z</time>
      </trkpt>
      <trkpt lat="45.27208" lon="5.82489">
        <ele>885.1</ele>
        <time>2015-08-22T16:42:37Z</time>
      </trkpt>
      <trkpt lat="45.27213" lon="5.82487">
        <ele>884.4</ele>
        <time>2015-08-22T16:42:41Z</time>
      </trkpt>
      <trkpt lat="45.27215" lon="5.82482">
        <ele>886</ele>
        <time>2015-08-22T16:42:46Z</time>
      </trkpt>
      <trkpt lat="45.27215" lon="5.82481">
        <ele>886.4</ele>
        <time>2015-08-22T16:42:47Z</time>
      </trkpt>
      <trkpt lat="45.27217" lon="5.82479">
        <ele>886.4</ele>
        <time>2015-08-22T16:42:51Z</time>
      </trkpt>
      <trkpt lat="45.27217" lon="5.82478">
        <ele>887.1</ele>
        <time>2015-08-22T16:43:00Z</time>
      </trkpt>
      <trkpt lat="45.27219" lon="5.82475">
        <ele>887.6</ele>
        <time>2015-08-22T16:43:02Z</time>
      </trkpt>
      <trkpt lat="45.27222" lon="5.82472">
        <ele>888.1</ele>
        <time>2015-08-22T16:43:05Z</time>
      </trkpt>
      <trkpt lat="45.27222" lon="5.82468">
        <ele>889.7</ele>
        <time>2015-08-22T16:43:10Z</time>
      </trkpt>
      <trkpt lat="45.27222" lon="5.82468">
        <ele>890</ele>
        <time>2015-08-22T16:43:11Z</time>
      </trkpt>
      <trkpt lat="45.27217" lon="5.82466">
        <ele>892.2</ele>
        <time>2015-08-22T16:43:18Z</time>
      </trkpt>
      <trkpt lat="45.27213" lon="5.82466">
        <ele>893.4</ele>
        <time>2015-08-22T16:43:21Z</time>
      </trkpt>
      <trkpt lat="45.27212" lon="5.82466">
        <ele>893.5</ele>
        <time>2015-08-22T16:43:22Z</time>
      </trkpt>
      <trkpt lat="45.27209" lon="5.82467">
        <ele>894</ele>
        <time>2015-08-22T16:43:25Z</time>
      </trkpt>
      <trkpt lat="45.27204" lon="5.8247">
        <ele>892.6</ele>
        <time>2015-08-22T16:43:30Z</time>
      </trkpt>
      <trkpt lat="45.27204" lon="5.82471">
        <ele>892.1</ele>
        <time>2015-08-22T16:43:31Z</time>
      </trkpt>
      <trkpt lat="45.272" lon="5.82475">
        <ele>890.3</ele>
        <time>2015-08-22T16:43:34Z</time>
      </trkpt>
      <trkpt lat="45.27198" lon="5.82475">
        <ele>890.1</ele>
        <time>2015-08-22T16:43:36Z</time>
      </trkpt>
      <trkpt lat="45.27198" lon="5.82473">
        <ele>890.8</ele>
        <time>2015-08-22T16:43:37Z</time>
      </trkpt>
      <trkpt lat="45.27195" lon="5.82471">
        <ele>891.4</ele>
        <time>2015-08-22T16:43:42Z</time>
      </trkpt>
      <trkpt lat="45.2719" lon="5.8247">
        <ele>891.5</ele>
        <time>2015-08-22T16:43:46Z</time>
      </trkpt>
      <trkpt lat="45.27186" lon="5.8247">
        <ele>890.8</ele>
        <time>2015-08-22T16:43:52Z</time>
      </trkpt>
      <trkpt lat="45.27182" lon="5.82477">
        <ele>887.9</ele>
        <time>2015-08-22T16:43:58Z</time>
      </trkpt>
      <trkpt lat="45.27179" lon="5.82479">
        <ele>886.7</ele>
        <time>2015-08-22T16:44:01Z</time>
      </trkpt>
      <trkpt lat="45.27176" lon="5.82481">
        <ele>885.6</ele>
        <time>2015-08-22T16:44:04Z</time>
      </trkpt>
      <trkpt lat="45.27172" lon="5.82489">
        <ele>882.2</ele>
        <time>2015-08-22T16:44:09Z</time>
      </trkpt>
      <trkpt lat="45.27168" lon="5.82492">
        <ele>880.9</ele>
        <time>2015-08-22T16:44:14Z</time>
      </trkpt>
      <trkpt lat="45.27167" lon="5.82492">
        <ele>880.8</ele>
        <time>2015-08-22T16:44:15Z</time>
      </trkpt>
      <trkpt lat="45.27163" lon="5.82499">
        <ele>877.9</ele>
        <time>2015-08-22T16:44:21Z</time>
      </trkpt>
      <trkpt lat="45.27159" lon="5.82506">
        <ele>875</ele>
        <time>2015-08-22T16:44:28Z</time>
      </trkpt>
      <trkpt lat="45.27155" lon="5.82508">
        <ele>874</ele>
        <time>2015-08-22T16:44:32Z</time>
      </trkpt>
      <trkpt lat="45.27154" lon="5.82509">
        <ele>873.8</ele>
        <time>2015-08-22T16:44:33Z</time>
      </trkpt>
      <trkpt lat="45.2715" lon="5.8251">
        <ele>873</ele>
        <time>2015-08-22T16:44:38Z</time>
      </trkpt>
      <trkpt lat="45.27149" lon="5.8251">
        <ele>873</ele>
        <time>2015-08-22T16:44:40Z</time>
      </trkpt>
      <trkpt lat="45.27147" lon="5.8251">
        <ele>873</ele>
        <time>2015-08-22T16:44:42Z</time>
      </trkpt>
      <trkpt lat="45.27147" lon="5.82508">
        <ele>873.5</ele>
        <time>2015-08-22T16:44:43Z</time>
      </trkpt>
      <trkpt lat="45.27145" lon="5.82506">
        <ele>874</ele>
        <time>2015-08-22T16:44:45Z</time>
      </trkpt>
      <trkpt lat="45.27143" lon="5.82506">
        <ele>874.2</ele>
        <time>2015-08-22T16:44:47Z</time>
      </trkpt>
      <trkpt lat="45.27142" lon="5.82505">
        <ele>874.2</ele>
        <time>2015-08-22T16:44:48Z</time>
      </trkpt>
      <trkpt lat="45.27137" lon="5.825">
        <ele>875.8</ele>
        <time>2015-08-22T16:44:53Z</time>
      </trkpt>
      <trkpt lat="45.27134" lon="5.82494">
        <ele>877.8</ele>
        <time>2015-08-22T16:44:56Z</time>
      </trkpt>
      <trkpt lat="45.27133" lon="5.82493">
        <ele>877.9</ele>
        <time>2015-08-22T16:44:58Z</time>
      </trkpt>
      <trkpt lat="45.27128" lon="5.82489">
        <ele>879</ele>
        <time>2015-08-22T16:45:03Z</time>
      </trkpt>
      <trkpt lat="45.27127" lon="5.82488">
        <ele>879.2</ele>
        <time>2015-08-22T16:45:04Z</time>
      </trkpt>
      <trkpt lat="45.27124" lon="5.82486">
        <ele>879.3</ele>
        <time>2015-08-22T16:45:08Z</time>
      </trkpt>
      <trkpt lat="45.27123" lon="5.82483">
        <ele>879.8</ele>
        <time>2015-08-22T16:45:09Z</time>
      </trkpt>
      <trkpt lat="45.27121" lon="5.82477">
        <ele>881.1</ele>
        <time>2015-08-22T16:45:13Z</time>
      </trkpt>
      <trkpt lat="45.27121" lon="5.82477">
        <ele>881.2</ele>
        <time>2015-08-22T16:45:14Z</time>
      </trkpt>
      <trkpt lat="45.2712" lon="5.82471">
        <ele>882.6</ele>
        <time>2015-08-22T16:45:18Z</time>
      </trkpt>
      <trkpt lat="45.27117" lon="5.82469">
        <ele>882.1</ele>
        <time>2015-08-22T16:45:22Z</time>
      </trkpt>
      <trkpt lat="45.27113" lon="5.82469">
        <ele>880.4</ele>
        <time>2015-08-22T16:45:28Z</time>
      </trkpt>
      <trkpt lat="45.27107" lon="5.82465">
        <ele>879.2</ele>
        <time>2015-08-22T16:45:34Z</time>
      </trkpt>
      <trkpt lat="45.27103" lon="5.8246">
        <ele>879.3</ele>
        <time>2015-08-22T16:45:38Z</time>
      </trkpt>
      <trkpt lat="45.27101" lon="5.82459">
        <ele>878.4</ele>
        <time>2015-08-22T16:45:40Z</time>
      </trkpt>
      <trkpt lat="45.27094" lon="5.82449">
        <ele>879.1</ele>
        <time>2015-08-22T16:45:47Z</time>
      </trkpt>
      <trkpt lat="45.2709" lon="5.82445">
        <ele>879.1</ele>
        <time>2015-08-22T16:45:52Z</time>
      </trkpt>
      <trkpt lat="45.27089" lon="5.82443">
        <ele>879</ele>
        <time>2015-08-22T16:45:53Z</time>
      </trkpt>
      <trkpt lat="45.27083" lon="5.8244">
        <ele>877.7</ele>
        <time>2015-08-22T16:45:57Z</time>
      </trkpt>
      <trkpt lat="45.27083" lon="5.82439">
        <ele>878</ele>
        <time>2015-08-22T16:45:58Z</time>
      </trkpt>
      <trkpt lat="45.27081" lon="5.82438">
        <ele>877.6</ele>
        <time>2015-08-22T16:45:59Z</time>
      </trkpt>
      <trkpt lat="45.27076" lon="5.82436">
        <ele>876.1</ele>
        <time>2015-08-22T16:46:02Z</time>
      </trkpt>
      <trkpt lat="45.27072" lon="5.82428">
        <ele>877.3</ele>
        <time>2015-08-22T16:46:07Z</time>
      </trkpt>
      <trkpt lat="45.27067" lon="5.82422">
        <ele>876.8</ele>
        <time>2015-08-22T16:46:13Z</time>
      </trkpt>
      <trkpt lat="45.27063" lon="5.82421">
        <ele>875.9</ele>
        <time>2015-08-22T16:46:17Z</time>
      </trkpt>
      <trkpt lat="45.27062" lon="5.82421">
        <ele>875.2</ele>
        <time>2015-08-22T16:46:19Z</time>
      </trkpt>
      <trkpt lat="45.27058" lon="5.82417">
        <ele>875</ele>
        <time>2015-08-22T16:46:23Z</time>
      </trkpt>
      <trkpt lat="45.27057" lon="5.82413">
        <ele>875.6</ele>
        <time>2015-08-22T16:46:24Z</time>
      </trkpt>
      <trkpt lat="45.27058" lon="5.82411">
        <ele>877</ele>
        <time>2015-08-22T16:46:31Z</time>
      </trkpt>
      <trkpt lat="45.27062" lon="5.82406">
        <ele>880.2</ele>
        <time>2015-08-22T16:46:34Z</time>
      </trkpt>
      <trkpt lat="45.27063" lon="5.82403">
        <ele>881.6</ele>
        <time>2015-08-22T16:46:36Z</time>
      </trkpt>
      <trkpt lat="45.27067" lon="5.82399">
        <ele>885.1</ele>
        <time>2015-08-22T16:46:42Z</time>
      </trkpt>
      <trkpt lat="45.27075" lon="5.82399">
        <ele>888.6</ele>
        <time>2015-08-22T16:46:49Z</time>
      </trkpt>
      <trkpt lat="45.27082" lon="5.824">
        <ele>891.2</ele>
        <time>2015-08-22T16:46:57Z</time>
      </trkpt>
      <trkpt lat="45.27086" lon="5.82406">
        <ele>891.2</ele>
        <time>2015-08-22T16:47:03Z</time>
      </trkpt>
      <trkpt lat="45.27088" lon="5.82408">
        <ele>891.6</ele>
        <time>2015-08-22T16:47:05Z</time>
      </trkpt>
      <trkpt lat="45.27092" lon="5.82409">
        <ele>892.9</ele>
        <time>2015-08-22T16:47:09Z</time>
      </trkpt>
      <trkpt lat="45.27095" lon="5.82411">
        <ele>893.4</ele>
        <time>2015-08-22T16:47:14Z</time>
      </trkpt>
      <trkpt lat="45.27099" lon="5.82413">
        <ele>894.7</ele>
        <time>2015-08-22T16:47:18Z</time>
      </trkpt>
      <trkpt lat="45.27106" lon="5.82413">
        <ele>898.1</ele>
        <time>2015-08-22T16:47:25Z</time>
      </trkpt>
      <trkpt lat="45.27106" lon="5.82408">
        <ele>899.3</ele>
        <time>2015-08-22T16:47:30Z</time>
      </trkpt>
      <trkpt lat="45.27105" lon="5.82408">
        <ele>899.2</ele>
        <time>2015-08-22T16:47:31Z</time>
      </trkpt>
      <trkpt lat="45.27104" lon="5.82406">
        <ele>899.4</ele>
        <time>2015-08-22T16:47:32Z</time>
      </trkpt>
      <trkpt lat="45.27101" lon="5.82405">
        <ele>898.3</ele>
        <time>2015-08-22T16:47:37Z</time>
      </trkpt>
      <trkpt lat="45.271" lon="5.82404">
        <ele>898.6</ele>
        <time>2015-08-22T16:47:38Z</time>
      </trkpt>
      <trkpt lat="45.27097" lon="5.824">
        <ele>898.6</ele>
        <time>2015-08-22T16:47:41Z</time>
      </trkpt>
      <trkpt lat="45.27095" lon="5.82396">
        <ele>898.9</ele>
        <time>2015-08-22T16:47:43Z</time>
      </trkpt>
      <trkpt lat="45.27092" lon="5.82383">
        <ele>902.4</ele>
        <time>2015-08-22T16:47:51Z</time>
      </trkpt>
      <trkpt lat="45.27089" lon="5.8238">
        <ele>901.8</ele>
        <time>2015-08-22T16:47:56Z</time>
      </trkpt>
      <trkpt lat="45.27088" lon="5.82379">
        <ele>901.9</ele>
        <time>2015-08-22T16:47:57Z</time>
      </trkpt>
      <trkpt lat="45.27088" lon="5.82378">
        <ele>902</ele>
        <time>2015-08-22T16:47:58Z</time>
      </trkpt>
      <trkpt lat="45.27085" lon="5.82377">
        <ele>901.3</ele>
        <time>2015-08-22T16:48:01Z</time>
      </trkpt>
      <trkpt lat="45.27084" lon="5.82377">
        <ele>900.5</ele>
        <time>2015-08-22T16:48:02Z</time>
      </trkpt>
      <trkpt lat="45.27075" lon="5.82375">
        <ele>896.9</ele>
        <time>2015-08-22T16:48:09Z</time>
      </trkpt>
      <trkpt lat="45.27071" lon="5.82375">
        <ele>895.4</ele>
        <time>2015-08-22T16:48:15Z</time>
      </trkpt>
      <trkpt lat="45.27063" lon="5.82368">
        <ele>893.2</ele>
        <time>2015-08-22T16:48:20Z</time>
      </trkpt>
      <trkpt lat="45.27053" lon="5.82356">
        <ele>891.7</ele>
        <time>2015-08-22T16:48:28Z</time>
      </trkpt>
      <trkpt lat="45.2705" lon="5.82353">
        <ele>891.2</ele>
        <time>2015-08-22T16:48:31Z</time>
      </trkpt>
      <trkpt lat="45.27049" lon="5.82349">
        <ele>891.4</ele>
        <time>2015-08-22T16:48:34Z</time>
      </trkpt>
      <trkpt lat="45.27048" lon="5.82349">
        <ele>891.1</ele>
        <time>2015-08-22T16:48:35Z</time>
      </trkpt>
      <trkpt lat="45.27044" lon="5.82347">
        <ele>889.8</ele>
        <time>2015-08-22T16:48:40Z</time>
      </trkpt>
      <trkpt lat="45.27043" lon="5.82341">
        <ele>890.5</ele>
        <time>2015-08-22T16:48:48Z</time>
      </trkpt>
      <trkpt lat="45.27039" lon="5.82331">
        <ele>890.8</ele>
        <time>2015-08-22T16:48:55Z</time>
      </trkpt>
      <trkpt lat="45.27039" lon="5.82319">
        <ele>894.3</ele>
        <time>2015-08-22T16:49:01Z</time>
      </trkpt>
      <trkpt lat="45.27039" lon="5.82318">
        <ele>894</ele>
        <time>2015-08-22T16:49:02Z</time>
      </trkpt>
      <trkpt lat="45.27034" lon="5.82312">
        <ele>892.9</ele>
        <time>2015-08-22T16:49:06Z</time>
      </trkpt>
      <trkpt lat="45.27029" lon="5.82307">
        <ele>891.1</ele>
        <time>2015-08-22T16:49:11Z</time>
      </trkpt>
      <trkpt lat="45.27022" lon="5.82298">
        <ele>889</ele>
        <time>2015-08-22T16:49:17Z</time>
      </trkpt>
      <trkpt lat="45.2702" lon="5.82295">
        <ele>888.4</ele>
        <time>2015-08-22T16:49:19Z</time>
      </trkpt>
      <trkpt lat="45.27016" lon="5.82297">
        <ele>885.6</ele>
        <time>2015-08-22T16:49:23Z</time>
      </trkpt>
      <trkpt lat="45.27015" lon="5.82295">
        <ele>885.9</ele>
        <time>2015-08-22T16:49:30Z</time>
      </trkpt>
      <trkpt lat="45.27015" lon="5.82293">
        <ele>886.4</ele>
        <time>2015-08-22T16:49:34Z</time>
      </trkpt>
      <trkpt lat="45.27014" lon="5.82288">
        <ele>887.1</ele>
        <time>2015-08-22T16:49:39Z</time>
      </trkpt>
      <trkpt lat="45.27013" lon="5.82276">
        <ele>890.1</ele>
        <time>2015-08-22T16:49:45Z</time>
      </trkpt>
      <trkpt lat="45.27014" lon="5.8227">
        <ele>892.2</ele>
        <time>2015-08-22T16:49:47Z</time>
      </trkpt>
      <trkpt lat="45.27015" lon="5.82267">
        <ele>893.4</ele>
        <time>2015-08-22T16:49:50Z</time>
      </trkpt>
      <trkpt lat="45.27014" lon="5.82256">
        <ele>895.9</ele>
        <time>2015-08-22T16:49:57Z</time>
      </trkpt>
      <trkpt lat="45.27013" lon="5.82256">
        <ele>895.7</ele>
        <time>2015-08-22T16:49:58Z</time>
      </trkpt>
      <trkpt lat="45.27013" lon="5.8225">
        <ele>897.2</ele>
        <time>2015-08-22T16:50:02Z</time>
      </trkpt>
      <trkpt lat="45.27012" lon="5.82249">
        <ele>896.9</ele>
        <time>2015-08-22T16:50:03Z</time>
      </trkpt>
      <trkpt lat="45.2701" lon="5.82247">
        <ele>896.5</ele>
        <time>2015-08-22T16:50:05Z</time>
      </trkpt>
      <trkpt lat="45.27009" lon="5.82244">
        <ele>896.7</ele>
        <time>2015-08-22T16:50:08Z</time>
      </trkpt>
      <trkpt lat="45.27008" lon="5.82239">
        <ele>897.7</ele>
        <time>2015-08-22T16:50:12Z</time>
      </trkpt>
      <trkpt lat="45.27008" lon="5.82238">
        <ele>897.9</ele>
        <time>2015-08-22T16:50:13Z</time>
      </trkpt>
      <trkpt lat="45.2701" lon="5.82243">
        <ele>897.7</ele>
        <time>2015-08-22T16:50:18Z</time>
      </trkpt>
      <trkpt lat="45.27012" lon="5.82258">
        <ele>894.3</ele>
        <time>2015-08-22T16:50:24Z</time>
      </trkpt>
      <trkpt lat="45.27012" lon="5.82266">
        <ele>891.9</ele>
        <time>2015-08-22T16:50:31Z</time>
      </trkpt>
      <trkpt lat="45.27012" lon="5.8227">
        <ele>890.9</ele>
        <time>2015-08-22T16:50:33Z</time>
      </trkpt>
      <trkpt lat="45.27011" lon="5.82274">
        <ele>889.3</ele>
        <time>2015-08-22T16:50:35Z</time>
      </trkpt>
      <trkpt lat="45.27011" lon="5.82278">
        <ele>888.1</ele>
        <time>2015-08-22T16:50:37Z</time>
      </trkpt>
      <trkpt lat="45.2701" lon="5.82286">
        <ele>885.4</ele>
        <time>2015-08-22T16:50:42Z</time>
      </trkpt>
      <trkpt lat="45.2701" lon="5.82287">
        <ele>885.2</ele>
        <time>2015-08-22T16:50:43Z</time>
      </trkpt>
      <trkpt lat="45.27015" lon="5.82293">
        <ele>886.2</ele>
        <time>2015-08-22T16:50:48Z</time>
      </trkpt>
      <trkpt lat="45.27016" lon="5.82294">
        <ele>886.5</ele>
        <time>2015-08-22T16:50:49Z</time>
      </trkpt>
      <trkpt lat="45.2702" lon="5.82305">
        <ele>886.4</ele>
        <time>2015-08-22T16:50:57Z</time>
      </trkpt>
      <trkpt lat="45.27023" lon="5.82306">
        <ele>887.9</ele>
        <time>2015-08-22T16:51:01Z</time>
      </trkpt>
      <trkpt lat="45.27026" lon="5.82309">
        <ele>888.7</ele>
        <time>2015-08-22T16:51:04Z</time>
      </trkpt>
      <trkpt lat="45.27028" lon="5.82309">
        <ele>890</ele>
        <time>2015-08-22T16:51:06Z</time>
      </trkpt>
      <trkpt lat="45.27033" lon="5.82307">
        <ele>893.3</ele>
        <time>2015-08-22T16:51:10Z</time>
      </trkpt>
      <trkpt lat="45.27036" lon="5.82305">
        <ele>896.3</ele>
        <time>2015-08-22T16:51:14Z</time>
      </trkpt>
      <trkpt lat="45.27039" lon="5.82304">
        <ele>898.3</ele>
        <time>2015-08-22T16:51:17Z</time>
      </trkpt>
      <trkpt lat="45.27047" lon="5.82299">
        <ele>904.4</ele>
        <time>2015-08-22T16:51:23Z</time>
      </trkpt>
      <trkpt lat="45.27053" lon="5.82297">
        <ele>908.5</ele>
        <time>2015-08-22T16:51:28Z</time>
      </trkpt>
      <trkpt lat="45.27059" lon="5.82293">
        <ele>913.4</ele>
        <time>2015-08-22T16:51:33Z</time>
      </trkpt>
      <trkpt lat="45.27068" lon="5.82291">
        <ele>919.8</ele>
        <time>2015-08-22T16:51:42Z</time>
      </trkpt>
      <trkpt lat="45.27075" lon="5.82289">
        <ele>924.8</ele>
        <time>2015-08-22T16:51:49Z</time>
      </trkpt>
      <trkpt lat="45.2708" lon="5.82286">
        <ele>929</ele>
        <time>2015-08-22T16:51:54Z</time>
      </trkpt>
      <trkpt lat="45.27087" lon="5.82289">
        <ele>932.5</ele>
        <time>2015-08-22T16:52:00Z</time>
      </trkpt>
      <trkpt lat="45.27095" lon="5.82279">
        <ele>940.8</ele>
        <time>2015-08-22T16:52:05Z</time>
      </trkpt>
      <trkpt lat="45.27096" lon="5.82277">
        <ele>942</ele>
        <time>2015-08-22T16:52:06Z</time>
      </trkpt>
      <trkpt lat="45.27099" lon="5.82275">
        <ele>944.5</ele>
        <time>2015-08-22T16:52:10Z</time>
      </trkpt>
      <trkpt lat="45.27101" lon="5.82271">
        <ele>947</ele>
        <time>2015-08-22T16:52:12Z</time>
      </trkpt>
      <trkpt lat="45.27105" lon="5.82269">
        <ele>950.1</ele>
        <time>2015-08-22T16:52:15Z</time>
      </trkpt>
      <trkpt lat="45.27106" lon="5.82269">
        <ele>951.2</ele>
        <time>2015-08-22T16:52:17Z</time>
      </trkpt>
      <trkpt lat="45.27107" lon="5.82268">
        <ele>952</ele>
        <time>2015-08-22T16:52:18Z</time>
      </trkpt>
      <trkpt lat="45.27109" lon="5.82266">
        <ele>954.3</ele>
        <time>2015-08-22T16:52:21Z</time>
      </trkpt>
      <trkpt lat="45.27111" lon="5.82266">
        <ele>955.4</ele>
        <time>2015-08-22T16:52:25Z</time>
      </trkpt>
      <trkpt lat="45.27116" lon="5.8227">
        <ele>957.8</ele>
        <time>2015-08-22T16:52:30Z</time>
      </trkpt>
      <trkpt lat="45.27118" lon="5.82271">
        <ele>958.3</ele>
        <time>2015-08-22T16:52:32Z</time>
      </trkpt>
      <trkpt lat="45.27119" lon="5.82273">
        <ele>958.2</ele>
        <time>2015-08-22T16:52:34Z</time>
      </trkpt>
      <trkpt lat="45.27119" lon="5.82274">
        <ele>958.2</ele>
        <time>2015-08-22T16:52:35Z</time>
      </trkpt>
      <trkpt lat="45.27121" lon="5.82275">
        <ele>958.8</ele>
        <time>2015-08-22T16:52:38Z</time>
      </trkpt>
      <trkpt lat="45.27123" lon="5.82278">
        <ele>959.6</ele>
        <time>2015-08-22T16:52:41Z</time>
      </trkpt>
      <trkpt lat="45.27128" lon="5.82285">
        <ele>959.1</ele>
        <time>2015-08-22T16:52:47Z</time>
      </trkpt>
      <trkpt lat="45.27129" lon="5.82285">
        <ele>959.1</ele>
        <time>2015-08-22T16:52:48Z</time>
      </trkpt>
      <trkpt lat="45.27131" lon="5.82288">
        <ele>958.4</ele>
        <time>2015-08-22T16:52:51Z</time>
      </trkpt>
      <trkpt lat="45.27132" lon="5.82289">
        <ele>958</ele>
        <time>2015-08-22T16:52:53Z</time>
      </trkpt>
      <trkpt lat="45.27137" lon="5.82293">
        <ele>957.3</ele>
        <time>2015-08-22T16:52:58Z</time>
      </trkpt>
      <trkpt lat="45.27138" lon="5.82293">
        <ele>957.7</ele>
        <time>2015-08-22T16:52:59Z</time>
      </trkpt>
      <trkpt lat="45.27141" lon="5.82295">
        <ele>957.2</ele>
        <time>2015-08-22T16:53:01Z</time>
      </trkpt>
      <trkpt lat="45.27144" lon="5.82298">
        <ele>956.8</ele>
        <time>2015-08-22T16:53:05Z</time>
      </trkpt>
      <trkpt lat="45.27145" lon="5.82298">
        <ele>956.9</ele>
        <time>2015-08-22T16:53:06Z</time>
      </trkpt>
      <trkpt lat="45.27146" lon="5.82296">
        <ele>957.7</ele>
        <time>2015-08-22T16:53:07Z</time>
      </trkpt>
      <trkpt lat="45.27147" lon="5.82293">
        <ele>959.3</ele>
        <time>2015-08-22T16:53:09Z</time>
      </trkpt>
      <trkpt lat="45.27146" lon="5.82282">
        <ele>963.3</ele>
        <time>2015-08-22T16:53:15Z</time>
      </trkpt>
      <trkpt lat="45.27143" lon="5.82277">
        <ele>964.7</ele>
        <time>2015-08-22T16:53:20Z</time>
      </trkpt>
      <trkpt lat="45.27142" lon="5.82276">
        <ele>964.8</ele>
        <time>2015-08-22T16:53:21Z</time>
      </trkpt>
      <trkpt lat="45.27138" lon="5.8227">
        <ele>966.3</ele>
        <time>2015-08-22T16:53:27Z</time>
      </trkpt>
      <trkpt lat="45.27137" lon="5.82265">
        <ele>967.8</ele>
        <time>2015-08-22T16:53:30Z</time>
      </trkpt>
      <trkpt lat="45.27134" lon="5.82262">
        <ele>968.5</ele>
        <time>2015-08-22T16:53:33Z</time>
      </trkpt>
      <trkpt lat="45.27133" lon="5.82259">
        <ele>969.1</ele>
        <time>2015-08-22T16:53:34Z</time>
      </trkpt>
      <trkpt lat="45.27133" lon="5.82257">
        <ele>970</ele>
        <time>2015-08-22T16:53:35Z</time>
      </trkpt>
      <trkpt lat="45.27133" lon="5.82252">
        <ele>971.9</ele>
        <time>2015-08-22T16:53:38Z</time>
      </trkpt>
      <trkpt lat="45.27131" lon="5.82247">
        <ele>972.9</ele>
        <time>2015-08-22T16:53:43Z</time>
      </trkpt>
      <trkpt lat="45.27128" lon="5.8224">
        <ele>975</ele>
        <time>2015-08-22T16:53:48Z</time>
      </trkpt>
      <trkpt lat="45.27127" lon="5.82238">
        <ele>975.2</ele>
        <time>2015-08-22T16:53:49Z</time>
      </trkpt>
      <trkpt lat="45.27125" lon="5.82237">
        <ele>975</ele>
        <time>2015-08-22T16:53:52Z</time>
      </trkpt>
      <trkpt lat="45.27124" lon="5.82238">
        <ele>973.8</ele>
        <time>2015-08-22T16:53:54Z</time>
      </trkpt>
      <trkpt lat="45.27123" lon="5.82238">
        <ele>973.5</ele>
        <time>2015-08-22T16:53:55Z</time>
      </trkpt>
      <trkpt lat="45.27119" lon="5.82235">
        <ele>971.6</ele>
        <time>2015-08-22T16:53:58Z</time>
      </trkpt>
      <trkpt lat="45.27116" lon="5.82234">
        <ele>969.5</ele>
        <time>2015-08-22T16:54:01Z</time>
      </trkpt>
      <trkpt lat="45.27109" lon="5.82234">
        <ele>964.9</ele>
        <time>2015-08-22T16:54:07Z</time>
      </trkpt>
      <trkpt lat="45.27108" lon="5.82232">
        <ele>964.2</ele>
        <time>2015-08-22T16:54:09Z</time>
      </trkpt>
      <trkpt lat="45.27106" lon="5.82231">
        <ele>963.7</ele>
        <time>2015-08-22T16:54:11Z</time>
      </trkpt>
      <trkpt lat="45.27106" lon="5.8223">
        <ele>963.5</ele>
        <time>2015-08-22T16:54:12Z</time>
      </trkpt>
      <trkpt lat="45.27099" lon="5.8222">
        <ele>962</ele>
        <time>2015-08-22T16:54:19Z</time>
      </trkpt>
      <trkpt lat="45.27096" lon="5.82219">
        <ele>959.9</ele>
        <time>2015-08-22T16:54:22Z</time>
      </trkpt>
      <trkpt lat="45.27093" lon="5.82218">
        <ele>958.3</ele>
        <time>2015-08-22T16:54:25Z</time>
      </trkpt>
      <trkpt lat="45.27088" lon="5.82211">
        <ele>956.3</ele>
        <time>2015-08-22T16:54:32Z</time>
      </trkpt>
      <trkpt lat="45.27086" lon="5.82207">
        <ele>955.7</ele>
        <time>2015-08-22T16:54:35Z</time>
      </trkpt>
      <trkpt lat="45.27083" lon="5.82206">
        <ele>954.3</ele>
        <time>2015-08-22T16:54:37Z</time>
      </trkpt>
      <trkpt lat="45.27082" lon="5.82205">
        <ele>953.3</ele>
        <time>2015-08-22T16:54:39Z</time>
      </trkpt>
      <trkpt lat="45.2708" lon="5.82202">
        <ele>953.3</ele>
        <time>2015-08-22T16:54:41Z</time>
      </trkpt>
      <trkpt lat="45.27078" lon="5.82196">
        <ele>954.1</ele>
        <time>2015-08-22T16:54:45Z</time>
      </trkpt>
      <trkpt lat="45.27078" lon="5.82194">
        <ele>954.4</ele>
        <time>2015-08-22T16:54:46Z</time>
      </trkpt>
      <trkpt lat="45.27075" lon="5.82183">
        <ele>956.2</ele>
        <time>2015-08-22T16:54:51Z</time>
      </trkpt>
      <trkpt lat="45.27072" lon="5.82175">
        <ele>957</ele>
        <time>2015-08-22T16:54:56Z</time>
      </trkpt>
      <trkpt lat="45.27073" lon="5.82167">
        <ele>960.4</ele>
        <time>2015-08-22T16:55:01Z</time>
      </trkpt>
      <trkpt lat="45.27073" lon="5.82168">
        <ele>959.9</ele>
        <time>2015-08-22T16:55:05Z</time>
      </trkpt>
      <trkpt lat="45.27073" lon="5.82169">
        <ele>959.6</ele>
        <time>2015-08-22T16:55:06Z</time>
      </trkpt>
      <trkpt lat="45.27076" lon="5.82175">
        <ele>959.4</ele>
        <time>2015-08-22T16:55:13Z</time>
      </trkpt>
      <trkpt lat="45.27081" lon="5.82178">
        <ele>961.7</ele>
        <time>2015-08-22T16:55:19Z</time>
      </trkpt>
      <trkpt lat="45.27086" lon="5.82183">
        <ele>964.2</ele>
        <time>2015-08-22T16:55:25Z</time>
      </trkpt>
      <trkpt lat="45.27087" lon="5.82184">
        <ele>964.4</ele>
        <time>2015-08-22T16:55:26Z</time>
      </trkpt>
      <trkpt lat="45.27088" lon="5.82184">
        <ele>964.8</ele>
        <time>2015-08-22T16:55:27Z</time>
      </trkpt>
      <trkpt lat="45.27092" lon="5.82187">
        <ele>967.3</ele>
        <time>2015-08-22T16:55:32Z</time>
      </trkpt>
      <trkpt lat="45.27094" lon="5.82188">
        <ele>967.7</ele>
        <time>2015-08-22T16:55:34Z</time>
      </trkpt>
      <trkpt lat="45.27097" lon="5.82184">
        <ele>971.6</ele>
        <time>2015-08-22T16:55:37Z</time>
      </trkpt>
      <trkpt lat="45.27102" lon="5.82188">
        <ele>973.7</ele>
        <time>2015-08-22T16:55:41Z</time>
      </trkpt>
      <trkpt lat="45.27109" lon="5.82192">
        <ele>977.6</ele>
        <time>2015-08-22T16:55:48Z</time>
      </trkpt>
      <trkpt lat="45.2711" lon="5.82192">
        <ele>978.4</ele>
        <time>2015-08-22T16:55:49Z</time>
      </trkpt>
      <trkpt lat="45.27118" lon="5.82189">
        <ele>984.9</ele>
        <time>2015-08-22T16:55:55Z</time>
      </trkpt>
      <trkpt lat="45.27126" lon="5.82186">
        <ele>991.2</ele>
        <time>2015-08-22T16:56:02Z</time>
      </trkpt>
      <trkpt lat="45.27135" lon="5.82188">
        <ele>993.7</ele>
        <time>2015-08-22T16:56:08Z</time>
      </trkpt>
      <trkpt lat="45.27141" lon="5.82189">
        <ele>996.1</ele>
        <time>2015-08-22T16:56:15Z</time>
      </trkpt>
      <trkpt lat="45.27143" lon="5.82186">
        <ele>997.5</ele>
        <time>2015-08-22T16:56:16Z</time>
      </trkpt>
      <trkpt lat="45.27143" lon="5.82182">
        <ele>998.7</ele>
        <time>2015-08-22T16:56:19Z</time>
      </trkpt>
      <trkpt lat="45.27138" lon="5.82181">
        <ele>997.1</ele>
        <time>2015-08-22T16:56:25Z</time>
      </trkpt>
      <trkpt lat="45.27136" lon="5.82182">
        <ele>995.9</ele>
        <time>2015-08-22T16:56:27Z</time>
      </trkpt>
      <trkpt lat="45.27132" lon="5.8218">
        <ele>994.9</ele>
        <time>2015-08-22T16:56:31Z</time>
      </trkpt>
      <trkpt lat="45.27128" lon="5.82181">
        <ele>993.3</ele>
        <time>2015-08-22T16:56:34Z</time>
      </trkpt>
      <trkpt lat="45.27124" lon="5.82181">
        <ele>991.8</ele>
        <time>2015-08-22T16:56:37Z</time>
      </trkpt>
      <trkpt lat="45.27118" lon="5.82178">
        <ele>987.9</ele>
        <time>2015-08-22T16:56:43Z</time>
      </trkpt>
      <trkpt lat="45.27115" lon="5.82173">
        <ele>987</ele>
        <time>2015-08-22T16:56:46Z</time>
      </trkpt>
      <trkpt lat="45.27111" lon="5.82167">
        <ele>986.2</ele>
        <time>2015-08-22T16:56:50Z</time>
      </trkpt>
      <trkpt lat="45.27108" lon="5.82166">
        <ele>984.8</ele>
        <time>2015-08-22T16:56:52Z</time>
      </trkpt>
      <trkpt lat="45.27106" lon="5.82165">
        <ele>983.8</ele>
        <time>2015-08-22T16:56:54Z</time>
      </trkpt>
      <trkpt lat="45.27101" lon="5.8216">
        <ele>981.4</ele>
        <time>2015-08-22T16:56:59Z</time>
      </trkpt>
      <trkpt lat="45.27099" lon="5.82156">
        <ele>981.6</ele>
        <time>2015-08-22T16:57:01Z</time>
      </trkpt>
      <trkpt lat="45.27098" lon="5.82151">
        <ele>982.3</ele>
        <time>2015-08-22T16:57:04Z</time>
      </trkpt>
      <trkpt lat="45.27097" lon="5.82142">
        <ele>984.7</ele>
        <time>2015-08-22T16:57:08Z</time>
      </trkpt>
      <trkpt lat="45.27097" lon="5.8214">
        <ele>985.6</ele>
        <time>2015-08-22T16:57:09Z</time>
      </trkpt>
      <trkpt lat="45.27093" lon="5.82129">
        <ele>986.4</ele>
        <time>2015-08-22T16:57:14Z</time>
      </trkpt>
      <trkpt lat="45.27094" lon="5.82128">
        <ele>987</ele>
        <time>2015-08-22T16:57:15Z</time>
      </trkpt>
      <trkpt lat="45.27094" lon="5.8212">
        <ele>989.7</ele>
        <time>2015-08-22T16:57:20Z</time>
      </trkpt>
      <trkpt lat="45.27094" lon="5.82116">
        <ele>991.1</ele>
        <time>2015-08-22T16:57:22Z</time>
      </trkpt>
      <trkpt lat="45.27094" lon="5.82114">
        <ele>992.1</ele>
        <time>2015-08-22T16:57:25Z</time>
      </trkpt>
      <trkpt lat="45.27095" lon="5.82115">
        <ele>992</ele>
        <time>2015-08-22T16:57:29Z</time>
      </trkpt>
      <trkpt lat="45.27096" lon="5.82124">
        <ele>989.6</ele>
        <time>2015-08-22T16:57:36Z</time>
      </trkpt>
      <trkpt lat="45.27097" lon="5.82129">
        <ele>988.7</ele>
        <time>2015-08-22T16:57:40Z</time>
      </trkpt>
      <trkpt lat="45.27099" lon="5.82132">
        <ele>988.9</ele>
        <time>2015-08-22T16:57:43Z</time>
      </trkpt>
      <trkpt lat="45.27104" lon="5.82137">
        <ele>990.8</ele>
        <time>2015-08-22T16:57:50Z</time>
      </trkpt>
      <trkpt lat="45.27111" lon="5.82137">
        <ele>994.9</ele>
        <time>2015-08-22T16:57:56Z</time>
      </trkpt>
      <trkpt lat="45.27112" lon="5.82137">
        <ele>995.5</ele>
        <time>2015-08-22T16:57:57Z</time>
      </trkpt>
      <trkpt lat="45.27119" lon="5.82138">
        <ele>999.8</ele>
        <time>2015-08-22T16:58:03Z</time>
      </trkpt>
      <trkpt lat="45.27125" lon="5.82139">
        <ele>1003.4</ele>
        <time>2015-08-22T16:58:08Z</time>
      </trkpt>
      <trkpt lat="45.27126" lon="5.8214">
        <ele>1003.4</ele>
        <time>2015-08-22T16:58:09Z</time>
      </trkpt>
      <trkpt lat="45.27129" lon="5.82142">
        <ele>1004.4</ele>
        <time>2015-08-22T16:58:13Z</time>
      </trkpt>
      <trkpt lat="45.27138" lon="5.82139">
        <ele>1009.2</ele>
        <time>2015-08-22T16:58:20Z</time>
      </trkpt>
      <trkpt lat="45.27142" lon="5.82138">
        <ele>1011</ele>
        <time>2015-08-22T16:58:24Z</time>
      </trkpt>
      <trkpt lat="45.27148" lon="5.82138">
        <ele>1013.6</ele>
        <time>2015-08-22T16:58:30Z</time>
      </trkpt>
      <trkpt lat="45.27153" lon="5.82136">
        <ele>1016.8</ele>
        <time>2015-08-22T16:58:36Z</time>
      </trkpt>
      <trkpt lat="45.27159" lon="5.82133">
        <ele>1020.5</ele>
        <time>2015-08-22T16:58:42Z</time>
      </trkpt>
      <trkpt lat="45.27163" lon="5.82134">
        <ele>1021.9</ele>
        <time>2015-08-22T16:58:46Z</time>
      </trkpt>
      <trkpt lat="45.27164" lon="5.82134">
        <ele>1022.3</ele>
        <time>2015-08-22T16:58:48Z</time>
      </trkpt>
      <trkpt lat="45.27165" lon="5.82135">
        <ele>1022.3</ele>
        <time>2015-08-22T16:58:49Z</time>
      </trkpt>
      <trkpt lat="45.27169" lon="5.82134">
        <ele>1024.7</ele>
        <time>2015-08-22T16:58:54Z</time>
      </trkpt>
      <trkpt lat="45.2717" lon="5.82134">
        <ele>1025.3</ele>
        <time>2015-08-22T16:58:56Z</time>
      </trkpt>
      <trkpt lat="45.27172" lon="5.82131">
        <ele>1027.1</ele>
        <time>2015-08-22T16:58:58Z</time>
      </trkpt>
      <trkpt lat="45.27173" lon="5.8213">
        <ele>1027.6</ele>
        <time>2015-08-22T16:58:59Z</time>
      </trkpt>
      <trkpt lat="45.27172" lon="5.82127">
        <ele>1028.3</ele>
        <time>2015-08-22T16:59:04Z</time>
      </trkpt>
      <trkpt lat="45.27168" lon="5.82131">
        <ele>1025.2</ele>
        <time>2015-08-22T16:59:08Z</time>
      </trkpt>
      <trkpt lat="45.27165" lon="5.82132">
        <ele>1023.5</ele>
        <time>2015-08-22T16:59:11Z</time>
      </trkpt>
      <trkpt lat="45.27158" lon="5.8213">
        <ele>1020.9</ele>
        <time>2015-08-22T16:59:19Z</time>
      </trkpt>
      <trkpt lat="45.27156" lon="5.82129">
        <ele>1020.3</ele>
        <time>2015-08-22T16:59:22Z</time>
      </trkpt>
      <trkpt lat="45.27154" lon="5.82124">
        <ele>1021.1</ele>
        <time>2015-08-22T16:59:24Z</time>
      </trkpt>
      <trkpt lat="45.27151" lon="5.82113">
        <ele>1023.3</ele>
        <time>2015-08-22T16:59:30Z</time>
      </trkpt>
      <trkpt lat="45.27148" lon="5.82111">
        <ele>1022.4</ele>
        <time>2015-08-22T16:59:33Z</time>
      </trkpt>
      <trkpt lat="45.27145" lon="5.82111">
        <ele>1020.9</ele>
        <time>2015-08-22T16:59:36Z</time>
      </trkpt>
      <trkpt lat="45.27144" lon="5.82111">
        <ele>1020.5</ele>
        <time>2015-08-22T16:59:37Z</time>
      </trkpt>
      <trkpt lat="45.27137" lon="5.82108">
        <ele>1018.3</ele>
        <time>2015-08-22T16:59:43Z</time>
      </trkpt>
      <trkpt lat="45.27133" lon="5.82101">
        <ele>1018.5</ele>
        <time>2015-08-22T16:59:50Z</time>
      </trkpt>
      <trkpt lat="45.27132" lon="5.82097">
        <ele>1018.8</ele>
        <time>2015-08-22T16:59:53Z</time>
      </trkpt>
      <trkpt lat="45.2713" lon="5.82094">
        <ele>1019</ele>
        <time>2015-08-22T16:59:56Z</time>
      </trkpt>
      <trkpt lat="45.27128" lon="5.82091">
        <ele>1018.9</ele>
        <time>2015-08-22T16:59:59Z</time>
      </trkpt>
      <trkpt lat="45.27127" lon="5.82086">
        <ele>1020.1</ele>
        <time>2015-08-22T17:00:02Z</time>
      </trkpt>
      <trkpt lat="45.27125" lon="5.82081">
        <ele>1020.8</ele>
        <time>2015-08-22T17:00:05Z</time>
      </trkpt>
      <trkpt lat="45.27124" lon="5.82078">
        <ele>1020.8</ele>
        <time>2015-08-22T17:00:08Z</time>
      </trkpt>
      <trkpt lat="45.27124" lon="5.82077">
        <ele>1021.2</ele>
        <time>2015-08-22T17:00:09Z</time>
      </trkpt>
      <trkpt lat="45.27125" lon="5.82072">
        <ele>1023.6</ele>
        <time>2015-08-22T17:00:13Z</time>
      </trkpt>
      <trkpt lat="45.27127" lon="5.82072">
        <ele>1024.4</ele>
        <time>2015-08-22T17:00:15Z</time>
      </trkpt>
      <trkpt lat="45.27128" lon="5.82076">
        <ele>1024.1</ele>
        <time>2015-08-22T17:00:20Z</time>
      </trkpt>
      <trkpt lat="45.27129" lon="5.82076">
        <ele>1024.2</ele>
        <time>2015-08-22T17:00:21Z</time>
      </trkpt>
      <trkpt lat="45.27132" lon="5.82079">
        <ele>1024.7</ele>
        <time>2015-08-22T17:00:26Z</time>
      </trkpt>
      <trkpt lat="45.27135" lon="5.82079">
        <ele>1026.4</ele>
        <time>2015-08-22T17:00:31Z</time>
      </trkpt>
      <trkpt lat="45.27141" lon="5.82081">
        <ele>1028.8</ele>
        <time>2015-08-22T17:00:37Z</time>
      </trkpt>
      <trkpt lat="45.27146" lon="5.82082">
        <ele>1030.8</ele>
        <time>2015-08-22T17:00:43Z</time>
      </trkpt>
      <trkpt lat="45.27152" lon="5.8208">
        <ele>1034.3</ele>
        <time>2015-08-22T17:00:49Z</time>
      </trkpt>
      <trkpt lat="45.27157" lon="5.82075">
        <ele>1038.8</ele>
        <time>2015-08-22T17:00:54Z</time>
      </trkpt>
      <trkpt lat="45.27162" lon="5.82074">
        <ele>1041.7</ele>
        <time>2015-08-22T17:01:01Z</time>
      </trkpt>
      <trkpt lat="45.27163" lon="5.82072">
        <ele>1043</ele>
        <time>2015-08-22T17:01:03Z</time>
      </trkpt>
      <trkpt lat="45.27165" lon="5.82074">
        <ele>1043.2</ele>
        <time>2015-08-22T17:01:06Z</time>
      </trkpt>
      <trkpt lat="45.27167" lon="5.82075">
        <ele>1043.8</ele>
        <time>2015-08-22T17:01:07Z</time>
      </trkpt>
      <trkpt lat="45.27172" lon="5.82076">
        <ele>1045.9</ele>
        <time>2015-08-22T17:01:12Z</time>
      </trkpt>
      <trkpt lat="45.27176" lon="5.82077">
        <ele>1047.9</ele>
        <time>2015-08-22T17:01:16Z</time>
      </trkpt>
      <trkpt lat="45.27178" lon="5.82076">
        <ele>1049</ele>
        <time>2015-08-22T17:01:18Z</time>
      </trkpt>
      <trkpt lat="45.27182" lon="5.82077">
        <ele>1050.8</ele>
        <time>2015-08-22T17:01:23Z</time>
      </trkpt>
      <trkpt lat="45.27186" lon="5.82078">
        <ele>1052</ele>
        <time>2015-08-22T17:01:28Z</time>
      </trkpt>
      <trkpt lat="45.27187" lon="5.82077">
        <ele>1053</ele>
        <time>2015-08-22T17:01:29Z</time>
      </trkpt>
      <trkpt lat="45.2719" lon="5.82077">
        <ele>1054.5</ele>
        <time>2015-08-22T17:01:31Z</time>
      </trkpt>
      <trkpt lat="45.27193" lon="5.82074">
        <ele>1057.5</ele>
        <time>2015-08-22T17:01:35Z</time>
      </trkpt>
      <trkpt lat="45.27196" lon="5.82069">
        <ele>1060.7</ele>
        <time>2015-08-22T17:01:38Z</time>
      </trkpt>
      <trkpt lat="45.27197" lon="5.82065">
        <ele>1062.6</ele>
        <time>2015-08-22T17:01:40Z</time>
      </trkpt>
      <trkpt lat="45.27196" lon="5.82064">
        <ele>1062.1</ele>
        <time>2015-08-22T17:01:42Z</time>
      </trkpt>
      <trkpt lat="45.27193" lon="5.82065">
        <ele>1060.7</ele>
        <time>2015-08-22T17:01:45Z</time>
      </trkpt>
      <trkpt lat="45.27192" lon="5.82066">
        <ele>1059.7</ele>
        <time>2015-08-22T17:01:46Z</time>
      </trkpt>
      <trkpt lat="45.27191" lon="5.82067">
        <ele>1058.7</ele>
        <time>2015-08-22T17:01:47Z</time>
      </trkpt>
      <trkpt lat="45.2719" lon="5.82068">
        <ele>1057.7</ele>
        <time>2015-08-22T17:01:49Z</time>
      </trkpt>
      <trkpt lat="45.27185" lon="5.82068">
        <ele>1055.5</ele>
        <time>2015-08-22T17:01:56Z</time>
      </trkpt>
      <trkpt lat="45.27183" lon="5.82067">
        <ele>1054.7</ele>
        <time>2015-08-22T17:01:59Z</time>
      </trkpt>
      <trkpt lat="45.2718" lon="5.82061">
        <ele>1055.4</ele>
        <time>2015-08-22T17:02:02Z</time>
      </trkpt>
      <trkpt lat="45.27176" lon="5.82057">
        <ele>1054.4</ele>
        <time>2015-08-22T17:02:08Z</time>
      </trkpt>
      <trkpt lat="45.27172" lon="5.82056">
        <ele>1052.8</ele>
        <time>2015-08-22T17:02:12Z</time>
      </trkpt>
      <trkpt lat="45.2717" lon="5.82055">
        <ele>1052.3</ele>
        <time>2015-08-22T17:02:15Z</time>
      </trkpt>
      <trkpt lat="45.27167" lon="5.82046">
        <ele>1053.9</ele>
        <time>2015-08-22T17:02:20Z</time>
      </trkpt>
      <trkpt lat="45.27165" lon="5.82042">
        <ele>1054</ele>
        <time>2015-08-22T17:02:23Z</time>
      </trkpt>
      <trkpt lat="45.27163" lon="5.82037">
        <ele>1054.9</ele>
        <time>2015-08-22T17:02:26Z</time>
      </trkpt>
      <trkpt lat="45.27159" lon="5.82031">
        <ele>1055.4</ele>
        <time>2015-08-22T17:02:32Z</time>
      </trkpt>
      <trkpt lat="45.27159" lon="5.8203">
        <ele>1055.4</ele>
        <time>2015-08-22T17:02:33Z</time>
      </trkpt>
      <trkpt lat="45.27158" lon="5.82025">
        <ele>1057.2</ele>
        <time>2015-08-22T17:02:37Z</time>
      </trkpt>
      <trkpt lat="45.27158" lon="5.82023">
        <ele>1057.7</ele>
        <time>2015-08-22T17:02:38Z</time>
      </trkpt>
      <trkpt lat="45.27158" lon="5.82019">
        <ele>1059.2</ele>
        <time>2015-08-22T17:02:41Z</time>
      </trkpt>
      <trkpt lat="45.27159" lon="5.82018">
        <ele>1060</ele>
        <time>2015-08-22T17:02:42Z</time>
      </trkpt>
      <trkpt lat="45.27159" lon="5.82018">
        <ele>1060.5</ele>
        <time>2015-08-22T17:02:46Z</time>
      </trkpt>
      <trkpt lat="45.27161" lon="5.82021">
        <ele>1060.3</ele>
        <time>2015-08-22T17:02:51Z</time>
      </trkpt>
      <trkpt lat="45.27166" lon="5.82023">
        <ele>1062.3</ele>
        <time>2015-08-22T17:02:58Z</time>
      </trkpt>
      <trkpt lat="45.27173" lon="5.82027">
        <ele>1064.3</ele>
        <time>2015-08-22T17:03:03Z</time>
      </trkpt>
      <trkpt lat="45.27176" lon="5.82024">
        <ele>1067.1</ele>
        <time>2015-08-22T17:03:08Z</time>
      </trkpt>
      <trkpt lat="45.27181" lon="5.82028">
        <ele>1068.4</ele>
        <time>2015-08-22T17:03:15Z</time>
      </trkpt>
      <trkpt lat="45.27188" lon="5.82027">
        <ele>1072.2</ele>
        <time>2015-08-22T17:03:22Z</time>
      </trkpt>
      <trkpt lat="45.27191" lon="5.82027">
        <ele>1074</ele>
        <time>2015-08-22T17:03:27Z</time>
      </trkpt>
      <trkpt lat="45.27193" lon="5.82026">
        <ele>1075.7</ele>
        <time>2015-08-22T17:03:29Z</time>
      </trkpt>
      <trkpt lat="45.27196" lon="5.82024">
        <ele>1078.1</ele>
        <time>2015-08-22T17:03:32Z</time>
      </trkpt>
      <trkpt lat="45.27198" lon="5.82025">
        <ele>1078.9</ele>
        <time>2015-08-22T17:03:35Z</time>
      </trkpt>
      <trkpt lat="45.272" lon="5.82025">
        <ele>1080.3</ele>
        <time>2015-08-22T17:03:37Z</time>
      </trkpt>
      <trkpt lat="45.27205" lon="5.82025">
        <ele>1082.6</ele>
        <time>2015-08-22T17:03:41Z</time>
      </trkpt>
      <trkpt lat="45.27206" lon="5.82025">
        <ele>1083.2</ele>
        <time>2015-08-22T17:03:42Z</time>
      </trkpt>
      <trkpt lat="45.2721" lon="5.82027">
        <ele>1084.3</ele>
        <time>2015-08-22T17:03:47Z</time>
      </trkpt>
      <trkpt lat="45.27215" lon="5.82025">
        <ele>1087.8</ele>
        <time>2015-08-22T17:03:52Z</time>
      </trkpt>
      <trkpt lat="45.27219" lon="5.82026">
        <ele>1089.3</ele>
        <time>2015-08-22T17:03:56Z</time>
      </trkpt>
      <trkpt lat="45.27221" lon="5.82028">
        <ele>1089.4</ele>
        <time>2015-08-22T17:03:58Z</time>
      </trkpt>
      <trkpt lat="45.27223" lon="5.82028">
        <ele>1090.2</ele>
        <time>2015-08-22T17:04:01Z</time>
      </trkpt>
      <trkpt lat="45.27226" lon="5.82029">
        <ele>1091.7</ele>
        <time>2015-08-22T17:04:05Z</time>
      </trkpt>
      <trkpt lat="45.27227" lon="5.8203">
        <ele>1091.7</ele>
        <time>2015-08-22T17:04:06Z</time>
      </trkpt>
      <trkpt lat="45.27228" lon="5.82029">
        <ele>1092.8</ele>
        <time>2015-08-22T17:04:07Z</time>
      </trkpt>
      <trkpt lat="45.27232" lon="5.8203">
        <ele>1093.9</ele>
        <time>2015-08-22T17:04:11Z</time>
      </trkpt>
      <trkpt lat="45.27234" lon="5.8203">
        <ele>1095.3</ele>
        <time>2015-08-22T17:04:13Z</time>
      </trkpt>
      <trkpt lat="45.27237" lon="5.82031">
        <ele>1096.2</ele>
        <time>2015-08-22T17:04:16Z</time>
      </trkpt>
      <trkpt lat="45.27243" lon="5.82035">
        <ele>1097.4</ele>
        <time>2015-08-22T17:04:22Z</time>
      </trkpt>
      <trkpt lat="45.2725" lon="5.82037">
        <ele>1100.3</ele>
        <time>2015-08-22T17:04:30Z</time>
      </trkpt>
      <trkpt lat="45.27256" lon="5.82041">
        <ele>1101.2</ele>
        <time>2015-08-22T17:04:37Z</time>
      </trkpt>
      <trkpt lat="45.27258" lon="5.82042">
        <ele>1101.9</ele>
        <time>2015-08-22T17:04:39Z</time>
      </trkpt>
      <trkpt lat="45.27259" lon="5.82042">
        <ele>1102.5</ele>
        <time>2015-08-22T17:04:41Z</time>
      </trkpt>
      <trkpt lat="45.27263" lon="5.82042">
        <ele>1104.4</ele>
        <time>2015-08-22T17:04:46Z</time>
      </trkpt>
      <trkpt lat="45.27273" lon="5.82044">
        <ele>1108.5</ele>
        <time>2015-08-22T17:04:55Z</time>
      </trkpt>
      <trkpt lat="45.27283" lon="5.82042">
        <ele>1114.7</ele>
        <time>2015-08-22T17:05:02Z</time>
      </trkpt>
      <trkpt lat="45.27284" lon="5.82042">
        <ele>1114.9</ele>
        <time>2015-08-22T17:05:03Z</time>
      </trkpt>
      <trkpt lat="45.27289" lon="5.82046">
        <ele>1114.4</ele>
        <time>2015-08-22T17:05:08Z</time>
      </trkpt>
      <trkpt lat="45.27299" lon="5.82045">
        <ele>1119.2</ele>
        <time>2015-08-22T17:05:16Z</time>
      </trkpt>
      <trkpt lat="45.27299" lon="5.82046">
        <ele>1118.6</ele>
        <time>2015-08-22T17:05:17Z</time>
      </trkpt>
      <trkpt lat="45.27307" lon="5.82043">
        <ele>1123.8</ele>
        <time>2015-08-22T17:05:22Z</time>
      </trkpt>
      <trkpt lat="45.27311" lon="5.82042">
        <ele>1125.8</ele>
        <time>2015-08-22T17:05:25Z</time>
      </trkpt>
      <trkpt lat="45.27312" lon="5.82043">
        <ele>1126</ele>
        <time>2015-08-22T17:05:26Z</time>
      </trkpt>
      <trkpt lat="45.27314" lon="5.82043">
        <ele>1126.5</ele>
        <time>2015-08-22T17:05:27Z</time>
      </trkpt>
      <trkpt lat="45.27319" lon="5.82043">
        <ele>1128.3</ele>
        <time>2015-08-22T17:05:31Z</time>
      </trkpt>
      <trkpt lat="45.27323" lon="5.82044">
        <ele>1129.1</ele>
        <time>2015-08-22T17:05:34Z</time>
      </trkpt>
      <trkpt lat="45.27327" lon="5.82046">
        <ele>1129.2</ele>
        <time>2015-08-22T17:05:37Z</time>
      </trkpt>
      <trkpt lat="45.27332" lon="5.8205">
        <ele>1128.1</ele>
        <time>2015-08-22T17:05:40Z</time>
      </trkpt>
      <trkpt lat="45.27337" lon="5.8205">
        <ele>1129.5</ele>
        <time>2015-08-22T17:05:45Z</time>
      </trkpt>
      <trkpt lat="45.27338" lon="5.82053">
        <ele>1127.7</ele>
        <time>2015-08-22T17:05:47Z</time>
      </trkpt>
      <trkpt lat="45.27343" lon="5.82062">
        <ele>1123.6</ele>
        <time>2015-08-22T17:05:53Z</time>
      </trkpt>
      <trkpt lat="45.27345" lon="5.82059">
        <ele>1126</ele>
        <time>2015-08-22T17:05:54Z</time>
      </trkpt>
      <trkpt lat="45.27348" lon="5.8206">
        <ele>1126.7</ele>
        <time>2015-08-22T17:05:58Z</time>
      </trkpt>
      <trkpt lat="45.27357" lon="5.82062">
        <ele>1128.4</ele>
        <time>2015-08-22T17:06:03Z</time>
      </trkpt>
      <trkpt lat="45.27359" lon="5.82065">
        <ele>1126.6</ele>
        <time>2015-08-22T17:06:05Z</time>
      </trkpt>
      <trkpt lat="45.27362" lon="5.82069">
        <ele>1125.4</ele>
        <time>2015-08-22T17:06:08Z</time>
      </trkpt>
      <trkpt lat="45.27365" lon="5.82066">
        <ele>1127.8</ele>
        <time>2015-08-22T17:06:10Z</time>
      </trkpt>
      <trkpt lat="45.27374" lon="5.82063">
        <ele>1133.9</ele>
        <time>2015-08-22T17:06:17Z</time>
      </trkpt>
      <trkpt lat="45.27392" lon="5.82065">
        <ele>1137</ele>
        <time>2015-08-22T17:06:31Z</time>
      </trkpt>
      <trkpt lat="45.27396" lon="5.82064">
        <ele>1138.3</ele>
        <time>2015-08-22T17:06:35Z</time>
      </trkpt>
      <trkpt lat="45.27399" lon="5.82065">
        <ele>1138.7</ele>
        <time>2015-08-22T17:06:38Z</time>
      </trkpt>
      <trkpt lat="45.27402" lon="5.8207">
        <ele>1135.7</ele>
        <time>2015-08-22T17:06:42Z</time>
      </trkpt>
      <trkpt lat="45.27402" lon="5.8207">
        <ele>1135.7</ele>
        <time>2015-08-22T17:06:43Z</time>
      </trkpt>
      <trkpt lat="45.27406" lon="5.82072">
        <ele>1135.4</ele>
        <time>2015-08-22T17:06:47Z</time>
      </trkpt>
      <trkpt lat="45.27408" lon="5.82073">
        <ele>1135.5</ele>
        <time>2015-08-22T17:06:50Z</time>
      </trkpt>
      <trkpt lat="45.27414" lon="5.82072">
        <ele>1137.3</ele>
        <time>2015-08-22T17:06:56Z</time>
      </trkpt>
      <trkpt lat="45.27414" lon="5.82072">
        <ele>1137.4</ele>
        <time>2015-08-22T17:06:57Z</time>
      </trkpt>
      <trkpt lat="45.27417" lon="5.82076">
        <ele>1135.9</ele>
        <time>2015-08-22T17:07:00Z</time>
      </trkpt>
      <trkpt lat="45.27419" lon="5.82079">
        <ele>1134.1</ele>
        <time>2015-08-22T17:07:02Z</time>
      </trkpt>
      <trkpt lat="45.2742" lon="5.8208">
        <ele>1133.5</ele>
        <time>2015-08-22T17:07:03Z</time>
      </trkpt>
      <trkpt lat="45.27424" lon="5.82075">
        <ele>1138.1</ele>
        <time>2015-08-22T17:07:06Z</time>
      </trkpt>
      <trkpt lat="45.27425" lon="5.82075">
        <ele>1138.3</ele>
        <time>2015-08-22T17:07:07Z</time>
      </trkpt>
      <trkpt lat="45.27428" lon="5.82078">
        <ele>1137.4</ele>
        <time>2015-08-22T17:07:11Z</time>
      </trkpt>
      <trkpt lat="45.27435" lon="5.82082">
        <ele>1136.5</ele>
        <time>2015-08-22T17:07:17Z</time>
      </trkpt>
      <trkpt lat="45.27442" lon="5.82083">
        <ele>1138.1</ele>
        <time>2015-08-22T17:07:22Z</time>
      </trkpt>
      <trkpt lat="45.27444" lon="5.82083">
        <ele>1138.7</ele>
        <time>2015-08-22T17:07:23Z</time>
      </trkpt>
      <trkpt lat="45.27447" lon="5.82082">
        <ele>1140</ele>
        <time>2015-08-22T17:07:27Z</time>
      </trkpt>
      <trkpt lat="45.27449" lon="5.82081">
        <ele>1141.5</ele>
        <time>2015-08-22T17:07:28Z</time>
      </trkpt>
      <trkpt lat="45.27455" lon="5.82081">
        <ele>1143.5</ele>
        <time>2015-08-22T17:07:35Z</time>
      </trkpt>
      <trkpt lat="45.27465" lon="5.82078">
        <ele>1148.2</ele>
        <time>2015-08-22T17:07:40Z</time>
      </trkpt>
      <trkpt lat="45.27466" lon="5.82077">
        <ele>1149.2</ele>
        <time>2015-08-22T17:07:41Z</time>
      </trkpt>
      <trkpt lat="45.27473" lon="5.82077">
        <ele>1151.1</ele>
        <time>2015-08-22T17:07:47Z</time>
      </trkpt>
      <trkpt lat="45.27483" lon="5.82076">
        <ele>1155.1</ele>
        <time>2015-08-22T17:07:54Z</time>
      </trkpt>
      <trkpt lat="45.27486" lon="5.82078">
        <ele>1154.6</ele>
        <time>2015-08-22T17:07:58Z</time>
      </trkpt>
      <trkpt lat="45.27487" lon="5.8208">
        <ele>1153.8</ele>
        <time>2015-08-22T17:08:00Z</time>
      </trkpt>
      <trkpt lat="45.27489" lon="5.82082">
        <ele>1153.1</ele>
        <time>2015-08-22T17:08:02Z</time>
      </trkpt>
      <trkpt lat="45.2749" lon="5.82082">
        <ele>1153.8</ele>
        <time>2015-08-22T17:08:03Z</time>
      </trkpt>
      <trkpt lat="45.27495" lon="5.82082">
        <ele>1154.9</ele>
        <time>2015-08-22T17:08:06Z</time>
      </trkpt>
      <trkpt lat="45.275" lon="5.82085">
        <ele>1154.8</ele>
        <time>2015-08-22T17:08:11Z</time>
      </trkpt>
      <trkpt lat="45.27501" lon="5.82089">
        <ele>1152.7</ele>
        <time>2015-08-22T17:08:13Z</time>
      </trkpt>
      <trkpt lat="45.27506" lon="5.82092">
        <ele>1152.2</ele>
        <time>2015-08-22T17:08:18Z</time>
      </trkpt>
      <trkpt lat="45.27507" lon="5.82094">
        <ele>1151.3</ele>
        <time>2015-08-22T17:08:19Z</time>
      </trkpt>
      <trkpt lat="45.27511" lon="5.821">
        <ele>1148.6</ele>
        <time>2015-08-22T17:08:25Z</time>
      </trkpt>
      <trkpt lat="45.27512" lon="5.82102">
        <ele>1147.5</ele>
        <time>2015-08-22T17:08:27Z</time>
      </trkpt>
      <trkpt lat="45.27517" lon="5.82105">
        <ele>1146.8</ele>
        <time>2015-08-22T17:08:32Z</time>
      </trkpt>
      <trkpt lat="45.27524" lon="5.82115">
        <ele>1143.1</ele>
        <time>2015-08-22T17:08:39Z</time>
      </trkpt>
      <trkpt lat="45.27528" lon="5.82117">
        <ele>1143</ele>
        <time>2015-08-22T17:08:42Z</time>
      </trkpt>
      <trkpt lat="45.27532" lon="5.82117">
        <ele>1144.6</ele>
        <time>2015-08-22T17:08:45Z</time>
      </trkpt>
      <trkpt lat="45.27538" lon="5.82119">
        <ele>1144.5</ele>
        <time>2015-08-22T17:08:51Z</time>
      </trkpt>
      <trkpt lat="45.27545" lon="5.82119">
        <ele>1147</ele>
        <time>2015-08-22T17:08:57Z</time>
      </trkpt>
      <trkpt lat="45.27554" lon="5.82115">
        <ele>1152.3</ele>
        <time>2015-08-22T17:09:04Z</time>
      </trkpt>
      <trkpt lat="45.27558" lon="5.82114">
        <ele>1154.5</ele>
        <time>2015-08-22T17:09:08Z</time>
      </trkpt>
      <trkpt lat="45.27561" lon="5.82112">
        <ele>1157.3</ele>
        <time>2015-08-22T17:09:12Z</time>
      </trkpt>
      <trkpt lat="45.27563" lon="5.82112">
        <ele>1157.5</ele>
        <time>2015-08-22T17:09:13Z</time>
      </trkpt>
      <trkpt lat="45.27568" lon="5.82112">
        <ele>1159.2</ele>
        <time>2015-08-22T17:09:18Z</time>
      </trkpt>
      <trkpt lat="45.27569" lon="5.82111">
        <ele>1159.9</ele>
        <time>2015-08-22T17:09:20Z</time>
      </trkpt>
      <trkpt lat="45.27572" lon="5.8211">
        <ele>1161.7</ele>
        <time>2015-08-22T17:09:25Z</time>
      </trkpt>
      <trkpt lat="45.27575" lon="5.82109">
        <ele>1163.5</ele>
        <time>2015-08-22T17:09:27Z</time>
      </trkpt>
      <trkpt lat="45.27578" lon="5.82109">
        <ele>1164.2</ele>
        <time>2015-08-22T17:09:30Z</time>
      </trkpt>
      <trkpt lat="45.27581" lon="5.8211">
        <ele>1164.8</ele>
        <time>2015-08-22T17:09:33Z</time>
      </trkpt>
      <trkpt lat="45.27582" lon="5.82112">
        <ele>1164.2</ele>
        <time>2015-08-22T17:09:35Z</time>
      </trkpt>
      <trkpt lat="45.27584" lon="5.82112">
        <ele>1164.6</ele>
        <time>2015-08-22T17:09:37Z</time>
      </trkpt>
      <trkpt lat="45.27588" lon="5.8211">
        <ele>1166.9</ele>
        <time>2015-08-22T17:09:40Z</time>
      </trkpt>
      <trkpt lat="45.2759" lon="5.82111">
        <ele>1167.2</ele>
        <time>2015-08-22T17:09:42Z</time>
      </trkpt>
      <trkpt lat="45.27595" lon="5.8211">
        <ele>1169.5</ele>
        <time>2015-08-22T17:09:46Z</time>
      </trkpt>
      <trkpt lat="45.27598" lon="5.82109">
        <ele>1171.4</ele>
        <time>2015-08-22T17:09:49Z</time>
      </trkpt>
      <trkpt lat="45.27607" lon="5.82108">
        <ele>1175</ele>
        <time>2015-08-22T17:09:56Z</time>
      </trkpt>
      <trkpt lat="45.27614" lon="5.82105">
        <ele>1179.5</ele>
        <time>2015-08-22T17:10:02Z</time>
      </trkpt>
      <trkpt lat="45.27622" lon="5.82101">
        <ele>1184.7</ele>
        <time>2015-08-22T17:10:07Z</time>
      </trkpt>
      <trkpt lat="45.27622" lon="5.82101">
        <ele>1184.5</ele>
        <time>2015-08-22T17:10:08Z</time>
      </trkpt>
      <trkpt lat="45.27627" lon="5.82102">
        <ele>1185.1</ele>
        <time>2015-08-22T17:10:13Z</time>
      </trkpt>
      <trkpt lat="45.27628" lon="5.82103">
        <ele>1184.8</ele>
        <time>2015-08-22T17:10:15Z</time>
      </trkpt>
      <trkpt lat="45.27631" lon="5.82103">
        <ele>1184.8</ele>
        <time>2015-08-22T17:10:19Z</time>
      </trkpt>
      <trkpt lat="45.27634" lon="5.82103">
        <ele>1185.2</ele>
        <time>2015-08-22T17:10:23Z</time>
      </trkpt>
      <trkpt lat="45.27637" lon="5.82103">
        <ele>1185.7</ele>
        <time>2015-08-22T17:10:25Z</time>
      </trkpt>
      <trkpt lat="45.27641" lon="5.82101">
        <ele>1187.7</ele>
        <time>2015-08-22T17:10:30Z</time>
      </trkpt>
      <trkpt lat="45.27648" lon="5.82096">
        <ele>1191.9</ele>
        <time>2015-08-22T17:10:37Z</time>
      </trkpt>
      <trkpt lat="45.27649" lon="5.82095">
        <ele>1192.2</ele>
        <time>2015-08-22T17:10:38Z</time>
      </trkpt>
      <trkpt lat="45.27653" lon="5.82094">
        <ele>1193.6</ele>
        <time>2015-08-22T17:10:42Z</time>
      </trkpt>
      <trkpt lat="45.27658" lon="5.82094">
        <ele>1194.2</ele>
        <time>2015-08-22T17:10:47Z</time>
      </trkpt>
      <trkpt lat="45.27659" lon="5.82093">
        <ele>1194.8</ele>
        <time>2015-08-22T17:10:48Z</time>
      </trkpt>
      <trkpt lat="45.27663" lon="5.82093">
        <ele>1195.4</ele>
        <time>2015-08-22T17:10:54Z</time>
      </trkpt>
      <trkpt lat="45.27664" lon="5.82092">
        <ele>1196.6</ele>
        <time>2015-08-22T17:10:55Z</time>
      </trkpt>
      <trkpt lat="45.2767" lon="5.82091">
        <ele>1197.7</ele>
        <time>2015-08-22T17:10:59Z</time>
      </trkpt>
      <trkpt lat="45.27677" lon="5.82088">
        <ele>1200.7</ele>
        <time>2015-08-22T17:11:04Z</time>
      </trkpt>
      <trkpt lat="45.27685" lon="5.82087">
        <ele>1202</ele>
        <time>2015-08-22T17:11:09Z</time>
      </trkpt>
      <trkpt lat="45.27689" lon="5.82084">
        <ele>1204.9</ele>
        <time>2015-08-22T17:11:14Z</time>
      </trkpt>
      <trkpt lat="45.2769" lon="5.82081">
        <ele>1207.1</ele>
        <time>2015-08-22T17:11:16Z</time>
      </trkpt>
      <trkpt lat="45.27693" lon="5.82081">
        <ele>1207.6</ele>
        <time>2015-08-22T17:11:19Z</time>
      </trkpt>
      <trkpt lat="45.27695" lon="5.82081">
        <ele>1207.9</ele>
        <time>2015-08-22T17:11:21Z</time>
      </trkpt>
      <trkpt lat="45.27697" lon="5.8208">
        <ele>1208.9</ele>
        <time>2015-08-22T17:11:23Z</time>
      </trkpt>
      <trkpt lat="45.27702" lon="5.82081">
        <ele>1208.6</ele>
        <time>2015-08-22T17:11:28Z</time>
      </trkpt>
      <trkpt lat="45.27706" lon="5.82081">
        <ele>1209.3</ele>
        <time>2015-08-22T17:11:33Z</time>
      </trkpt>
      <trkpt lat="45.27713" lon="5.82087">
        <ele>1204.7</ele>
        <time>2015-08-22T17:11:39Z</time>
      </trkpt>
      <trkpt lat="45.27715" lon="5.82088">
        <ele>1203.8</ele>
        <time>2015-08-22T17:11:40Z</time>
      </trkpt>
      <trkpt lat="45.2772" lon="5.82087">
        <ele>1204.4</ele>
        <time>2015-08-22T17:11:43Z</time>
      </trkpt>
      <trkpt lat="45.27731" lon="5.8208">
        <ele>1208.7</ele>
        <time>2015-08-22T17:11:51Z</time>
      </trkpt>
      <trkpt lat="45.27739" lon="5.82078">
        <ele>1209.4</ele>
        <time>2015-08-22T17:11:56Z</time>
      </trkpt>
      <trkpt lat="45.27744" lon="5.82074">
        <ele>1211.7</ele>
        <time>2015-08-22T17:12:01Z</time>
      </trkpt>
      <trkpt lat="45.27744" lon="5.82072">
        <ele>1213.2</ele>
        <time>2015-08-22T17:12:05Z</time>
      </trkpt>
      <trkpt lat="45.27749" lon="5.82068">
        <ele>1215.8</ele>
        <time>2015-08-22T17:12:07Z</time>
      </trkpt>
      <trkpt lat="45.2775" lon="5.82067">
        <ele>1216.3</ele>
        <time>2015-08-22T17:12:08Z</time>
      </trkpt>
      <trkpt lat="45.27753" lon="5.8206">
        <ele>1221.2</ele>
        <time>2015-08-22T17:12:12Z</time>
      </trkpt>
      <trkpt lat="45.27755" lon="5.82055">
        <ele>1224.9</ele>
        <time>2015-08-22T17:12:16Z</time>
      </trkpt>
      <trkpt lat="45.27757" lon="5.82055">
        <ele>1225.1</ele>
        <time>2015-08-22T17:12:22Z</time>
      </trkpt>
      <trkpt lat="45.27779" lon="5.8204">
        <ele>1233.8</ele>
        <time>2015-08-22T17:12:38Z</time>
      </trkpt>
      <trkpt lat="45.27781" lon="5.8204">
        <ele>1233.6</ele>
        <time>2015-08-22T17:12:41Z</time>
      </trkpt>
      <trkpt lat="45.27791" lon="5.82035">
        <ele>1236</ele>
        <time>2015-08-22T17:12:54Z</time>
      </trkpt>
      <trkpt lat="45.27799" lon="5.82036">
        <ele>1234.9</ele>
        <time>2015-08-22T17:13:01Z</time>
      </trkpt>
      <trkpt lat="45.27802" lon="5.82037">
        <ele>1233.6</ele>
        <time>2015-08-22T17:13:04Z</time>
      </trkpt>
      <trkpt lat="45.27806" lon="5.82038">
        <ele>1232.4</ele>
        <time>2015-08-22T17:13:10Z</time>
      </trkpt>
      <trkpt lat="45.27808" lon="5.82039">
        <ele>1231.6</ele>
        <time>2015-08-22T17:13:13Z</time>
      </trkpt>
      <trkpt lat="45.27821" lon="5.82039">
        <ele>1230</ele>
        <time>2015-08-22T17:13:28Z</time>
      </trkpt>
      <trkpt lat="45.27823" lon="5.8204">
        <ele>1229.4</ele>
        <time>2015-08-22T17:13:31Z</time>
      </trkpt>
      <trkpt lat="45.27827" lon="5.82041">
        <ele>1228</ele>
        <time>2015-08-22T17:13:35Z</time>
      </trkpt>
      <trkpt lat="45.27828" lon="5.82042">
        <ele>1227.4</ele>
        <time>2015-08-22T17:13:36Z</time>
      </trkpt>
      <trkpt lat="45.27831" lon="5.82041">
        <ele>1227.5</ele>
        <time>2015-08-22T17:13:39Z</time>
      </trkpt>
      <trkpt lat="45.27839" lon="5.82034">
        <ele>1230.9</ele>
        <time>2015-08-22T17:13:47Z</time>
      </trkpt>
      <trkpt lat="45.27843" lon="5.82026">
        <ele>1235.3</ele>
        <time>2015-08-22T17:13:58Z</time>
      </trkpt>
      <trkpt lat="45.27844" lon="5.8202">
        <ele>1238.5</ele>
        <time>2015-08-22T17:14:01Z</time>
      </trkpt>
      <trkpt lat="45.27844" lon="5.82018">
        <ele>1239.9</ele>
        <time>2015-08-22T17:14:03Z</time>
      </trkpt>
      <trkpt lat="45.27844" lon="5.82016">
        <ele>1240.9</ele>
        <time>2015-08-22T17:14:06Z</time>
      </trkpt>
      <trkpt lat="45.27846" lon="5.82015">
        <ele>1241.4</ele>
        <time>2015-08-22T17:14:10Z</time>
      </trkpt>
      <trkpt lat="45.2785" lon="5.82009">
        <ele>1244.4</ele>
        <time>2015-08-22T17:14:15Z</time>
      </trkpt>
      <trkpt lat="45.2785" lon="5.82008">
        <ele>1245.1</ele>
        <time>2015-08-22T17:14:16Z</time>
      </trkpt>
      <trkpt lat="45.27856" lon="5.82002">
        <ele>1247.9</ele>
        <time>2015-08-22T17:14:19Z</time>
      </trkpt>
      <trkpt lat="45.27858" lon="5.81996">
        <ele>1251.1</ele>
        <time>2015-08-22T17:14:24Z</time>
      </trkpt>
      <trkpt lat="45.27858" lon="5.81993">
        <ele>1253.2</ele>
        <time>2015-08-22T17:14:27Z</time>
      </trkpt>
      <trkpt lat="45.27859" lon="5.81991">
        <ele>1253.9</ele>
        <time>2015-08-22T17:14:28Z</time>
      </trkpt>
      <trkpt lat="45.2786" lon="5.81986">
        <ele>1256.5</ele>
        <time>2015-08-22T17:14:33Z</time>
      </trkpt>
      <trkpt lat="45.2786" lon="5.81988">
        <ele>1255.9</ele>
        <time>2015-08-22T17:14:34Z</time>
      </trkpt>
      <trkpt lat="45.2786" lon="5.81986">
        <ele>1256.7</ele>
        <time>2015-08-22T17:14:35Z</time>
      </trkpt>
      <trkpt lat="45.2786" lon="5.81985">
        <ele>1257.6</ele>
        <time>2015-08-22T17:14:38Z</time>
      </trkpt>
      <trkpt lat="45.27866" lon="5.81975">
        <ele>1262.5</ele>
        <time>2015-08-22T17:14:44Z</time>
      </trkpt>
      <trkpt lat="45.27873" lon="5.81971">
        <ele>1263.9</ele>
        <time>2015-08-22T17:14:48Z</time>
      </trkpt>
      <trkpt lat="45.27876" lon="5.81966">
        <ele>1266.3</ele>
        <time>2015-08-22T17:14:53Z</time>
      </trkpt>
      <trkpt lat="45.2788" lon="5.81966">
        <ele>1266.7</ele>
        <time>2015-08-22T17:14:58Z</time>
      </trkpt>
      <trkpt lat="45.27885" lon="5.81964">
        <ele>1267.5</ele>
        <time>2015-08-22T17:15:02Z</time>
      </trkpt>
      <trkpt lat="45.27887" lon="5.81966">
        <ele>1266.5</ele>
        <time>2015-08-22T17:15:04Z</time>
      </trkpt>
      <trkpt lat="45.27888" lon="5.81972">
        <ele>1263.2</ele>
        <time>2015-08-22T17:15:06Z</time>
      </trkpt>
      <trkpt lat="45.27889" lon="5.81976">
        <ele>1260.8</ele>
        <time>2015-08-22T17:15:09Z</time>
      </trkpt>
      <trkpt lat="45.27889" lon="5.81977">
        <ele>1260.5</ele>
        <time>2015-08-22T17:15:10Z</time>
      </trkpt>
      <trkpt lat="45.27894" lon="5.81981">
        <ele>1258.2</ele>
        <time>2015-08-22T17:15:16Z</time>
      </trkpt>
      <trkpt lat="45.27897" lon="5.81984">
        <ele>1256.6</ele>
        <time>2015-08-22T17:15:20Z</time>
      </trkpt>
      <trkpt lat="45.27897" lon="5.81984">
        <ele>1256.2</ele>
        <time>2015-08-22T17:15:21Z</time>
      </trkpt>
      <trkpt lat="45.27898" lon="5.81984">
        <ele>1256.3</ele>
        <time>2015-08-22T17:15:22Z</time>
      </trkpt>
      <trkpt lat="45.27901" lon="5.81989">
        <ele>1254</ele>
        <time>2015-08-22T17:15:27Z</time>
      </trkpt>
      <trkpt lat="45.27903" lon="5.81991">
        <ele>1252.4</ele>
        <time>2015-08-22T17:15:29Z</time>
      </trkpt>
      <trkpt lat="45.27904" lon="5.8199">
        <ele>1253.4</ele>
        <time>2015-08-22T17:15:32Z</time>
      </trkpt>
      <trkpt lat="45.27904" lon="5.81992">
        <ele>1251.9</ele>
        <time>2015-08-22T17:15:34Z</time>
      </trkpt>
      <trkpt lat="45.27907" lon="5.81996">
        <ele>1249.7</ele>
        <time>2015-08-22T17:15:37Z</time>
      </trkpt>
      <trkpt lat="45.27913" lon="5.82001">
        <ele>1247.5</ele>
        <time>2015-08-22T17:15:44Z</time>
      </trkpt>
      <trkpt lat="45.27915" lon="5.82003">
        <ele>1246.2</ele>
        <time>2015-08-22T17:15:49Z</time>
      </trkpt>
      <trkpt lat="45.27916" lon="5.82003">
        <ele>1246.1</ele>
        <time>2015-08-22T17:15:50Z</time>
      </trkpt>
      <trkpt lat="45.27919" lon="5.81999">
        <ele>1248.8</ele>
        <time>2015-08-22T17:15:54Z</time>
      </trkpt>
      <trkpt lat="45.2792" lon="5.81998">
        <ele>1249</ele>
        <time>2015-08-22T17:15:55Z</time>
      </trkpt>
      <trkpt lat="45.27921" lon="5.81996">
        <ele>1250.3</ele>
        <time>2015-08-22T17:15:57Z</time>
      </trkpt>
      <trkpt lat="45.27922" lon="5.81996">
        <ele>1250.6</ele>
        <time>2015-08-22T17:15:59Z</time>
      </trkpt>
      <trkpt lat="45.27923" lon="5.8199">
        <ele>1253.8</ele>
        <time>2015-08-22T17:16:08Z</time>
      </trkpt>
      <trkpt lat="45.27923" lon="5.81983">
        <ele>1257.7</ele>
        <time>2015-08-22T17:16:12Z</time>
      </trkpt>
      <trkpt lat="45.27923" lon="5.8198">
        <ele>1259</ele>
        <time>2015-08-22T17:16:14Z</time>
      </trkpt>
      <trkpt lat="45.27923" lon="5.81978">
        <ele>1260.1</ele>
        <time>2015-08-22T17:16:17Z</time>
      </trkpt>
      <trkpt lat="45.2792" lon="5.81975">
        <ele>1261.9</ele>
        <time>2015-08-22T17:16:19Z</time>
      </trkpt>
      <trkpt lat="45.27914" lon="5.8197">
        <ele>1264.3</ele>
        <time>2015-08-22T17:16:26Z</time>
      </trkpt>
      <trkpt lat="45.27913" lon="5.81969">
        <ele>1265</ele>
        <time>2015-08-22T17:16:28Z</time>
      </trkpt>
      <trkpt lat="45.27913" lon="5.81963">
        <ele>1268.6</ele>
        <time>2015-08-22T17:16:34Z</time>
      </trkpt>
      <trkpt lat="45.27912" lon="5.81957">
        <ele>1271.5</ele>
        <time>2015-08-22T17:16:42Z</time>
      </trkpt>
      <trkpt lat="45.27909" lon="5.81955">
        <ele>1272.7</ele>
        <time>2015-08-22T17:16:45Z</time>
      </trkpt>
      <trkpt lat="45.27908" lon="5.81954">
        <ele>1273.3</ele>
        <time>2015-08-22T17:16:46Z</time>
      </trkpt>
      <trkpt lat="45.27902" lon="5.8195">
        <ele>1275.3</ele>
        <time>2015-08-22T17:16:53Z</time>
      </trkpt>
      <trkpt lat="45.27901" lon="5.81946">
        <ele>1277</ele>
        <time>2015-08-22T17:16:55Z</time>
      </trkpt>
      <trkpt lat="45.27899" lon="5.81942">
        <ele>1278.8</ele>
        <time>2015-08-22T17:16:58Z</time>
      </trkpt>
      <trkpt lat="45.27897" lon="5.81938">
        <ele>1281.1</ele>
        <time>2015-08-22T17:17:05Z</time>
      </trkpt>
      <trkpt lat="45.27895" lon="5.8193">
        <ele>1284.9</ele>
        <time>2015-08-22T17:17:10Z</time>
      </trkpt>
      <trkpt lat="45.27896" lon="5.8193">
        <ele>1284.9</ele>
        <time>2015-08-22T17:17:14Z</time>
      </trkpt>
      <trkpt lat="45.27897" lon="5.81931">
        <ele>1284.6</ele>
        <time>2015-08-22T17:17:15Z</time>
      </trkpt>
      <trkpt lat="45.27899" lon="5.81928">
        <ele>1285.6</ele>
        <time>2015-08-22T17:17:18Z</time>
      </trkpt>
      <trkpt lat="45.279" lon="5.81928">
        <ele>1285.9</ele>
        <time>2015-08-22T17:17:20Z</time>
      </trkpt>
      <trkpt lat="45.27903" lon="5.81927">
        <ele>1286</ele>
        <time>2015-08-22T17:17:24Z</time>
      </trkpt>
      <trkpt lat="45.27903" lon="5.81927">
        <ele>1286.3</ele>
        <time>2015-08-22T17:17:25Z</time>
      </trkpt>
      <trkpt lat="45.27907" lon="5.81924">
        <ele>1287.7</ele>
        <time>2015-08-22T17:17:28Z</time>
      </trkpt>
      <trkpt lat="45.27908" lon="5.81924">
        <ele>1287.8</ele>
        <time>2015-08-22T17:17:29Z</time>
      </trkpt>
      <trkpt lat="45.27911" lon="5.81926">
        <ele>1286.5</ele>
        <time>2015-08-22T17:17:33Z</time>
      </trkpt>
      <trkpt lat="45.27912" lon="5.81928">
        <ele>1285.9</ele>
        <time>2015-08-22T17:17:35Z</time>
      </trkpt>
      <trkpt lat="45.27912" lon="5.81929">
        <ele>1285.2</ele>
        <time>2015-08-22T17:17:36Z</time>
      </trkpt>
      <trkpt lat="45.27913" lon="5.81931">
        <ele>1284.4</ele>
        <time>2015-08-22T17:17:38Z</time>
      </trkpt>
      <trkpt lat="45.27914" lon="5.81932">
        <ele>1283.8</ele>
        <time>2015-08-22T17:17:40Z</time>
      </trkpt>
      <trkpt lat="45.27917" lon="5.81932">
        <ele>1283.7</ele>
        <time>2015-08-22T17:17:44Z</time>
      </trkpt>
      <trkpt lat="45.27922" lon="5.81938">
        <ele>1280.7</ele>
        <time>2015-08-22T17:17:51Z</time>
      </trkpt>
      <trkpt lat="45.27927" lon="5.8194">
        <ele>1280.1</ele>
        <time>2015-08-22T17:17:58Z</time>
      </trkpt>
      <trkpt lat="45.27929" lon="5.81943">
        <ele>1278.6</ele>
        <time>2015-08-22T17:18:02Z</time>
      </trkpt>
      <trkpt lat="45.27932" lon="5.81949">
        <ele>1275.5</ele>
        <time>2015-08-22T17:18:08Z</time>
      </trkpt>
      <trkpt lat="45.27933" lon="5.81951">
        <ele>1274.7</ele>
        <time>2015-08-22T17:18:10Z</time>
      </trkpt>
      <trkpt lat="45.27934" lon="5.8195">
        <ele>1274.8</ele>
        <time>2015-08-22T17:18:12Z</time>
      </trkpt>
      <trkpt lat="45.27936" lon="5.81955">
        <ele>1272.7</ele>
        <time>2015-08-22T17:18:18Z</time>
      </trkpt>
      <trkpt lat="45.27939" lon="5.81962">
        <ele>1269</ele>
        <time>2015-08-22T17:18:24Z</time>
      </trkpt>
      <trkpt lat="45.27943" lon="5.81972">
        <ele>1263.9</ele>
        <time>2015-08-22T17:18:31Z</time>
      </trkpt>
      <trkpt lat="45.27946" lon="5.81978">
        <ele>1260.5</ele>
        <time>2015-08-22T17:18:37Z</time>
      </trkpt>
      <trkpt lat="45.27947" lon="5.81979">
        <ele>1260</ele>
        <time>2015-08-22T17:18:38Z</time>
      </trkpt>
      <trkpt lat="45.27949" lon="5.81983">
        <ele>1258.2</ele>
        <time>2015-08-22T17:18:42Z</time>
      </trkpt>
      <trkpt lat="45.27952" lon="5.81984">
        <ele>1257.6</ele>
        <time>2015-08-22T17:18:45Z</time>
      </trkpt>
      <trkpt lat="45.27953" lon="5.81987">
        <ele>1256.2</ele>
        <time>2015-08-22T17:18:47Z</time>
      </trkpt>
      <trkpt lat="45.27956" lon="5.81996">
        <ele>1251.5</ele>
        <time>2015-08-22T17:18:53Z</time>
      </trkpt>
      <trkpt lat="45.27959" lon="5.82">
        <ele>1249.6</ele>
        <time>2015-08-22T17:18:57Z</time>
      </trkpt>
      <trkpt lat="45.27959" lon="5.82001">
        <ele>1249.5</ele>
        <time>2015-08-22T17:18:58Z</time>
      </trkpt>
      <trkpt lat="45.2796" lon="5.8201">
        <ele>1245.2</ele>
        <time>2015-08-22T17:19:02Z</time>
      </trkpt>
      <trkpt lat="45.27962" lon="5.82012">
        <ele>1245.6</ele>
        <time>2015-08-22T17:19:05Z</time>
      </trkpt>
      <trkpt lat="45.27963" lon="5.82014">
        <ele>1245.4</ele>
        <time>2015-08-22T17:19:07Z</time>
      </trkpt>
      <trkpt lat="45.27964" lon="5.82015">
        <ele>1245.5</ele>
        <time>2015-08-22T17:19:08Z</time>
      </trkpt>
      <trkpt lat="45.27966" lon="5.82022">
        <ele>1242.8</ele>
        <time>2015-08-22T17:19:14Z</time>
      </trkpt>
      <trkpt lat="45.27966" lon="5.82024">
        <ele>1241.7</ele>
        <time>2015-08-22T17:19:15Z</time>
      </trkpt>
      <trkpt lat="45.27969" lon="5.82027">
        <ele>1242.3</ele>
        <time>2015-08-22T17:19:19Z</time>
      </trkpt>
      <trkpt lat="45.27969" lon="5.82029">
        <ele>1241.2</ele>
        <time>2015-08-22T17:19:20Z</time>
      </trkpt>
      <trkpt lat="45.27971" lon="5.82032">
        <ele>1241.1</ele>
        <time>2015-08-22T17:19:24Z</time>
      </trkpt>
      <trkpt lat="45.27971" lon="5.82034">
        <ele>1240.3</ele>
        <time>2015-08-22T17:19:25Z</time>
      </trkpt>
      <trkpt lat="45.27971" lon="5.82035">
        <ele>1239.7</ele>
        <time>2015-08-22T17:19:26Z</time>
      </trkpt>
      <trkpt lat="45.27971" lon="5.82037">
        <ele>1238.8</ele>
        <time>2015-08-22T17:19:28Z</time>
      </trkpt>
      <trkpt lat="45.27973" lon="5.82041">
        <ele>1238.2</ele>
        <time>2015-08-22T17:19:33Z</time>
      </trkpt>
      <trkpt lat="45.2798" lon="5.82044">
        <ele>1240.5</ele>
        <time>2015-08-22T17:19:40Z</time>
      </trkpt>
      <trkpt lat="45.27984" lon="5.82045">
        <ele>1242.7</ele>
        <time>2015-08-22T17:19:45Z</time>
      </trkpt>
      <trkpt lat="45.27985" lon="5.82045">
        <ele>1243.4</ele>
        <time>2015-08-22T17:19:46Z</time>
      </trkpt>
      <trkpt lat="45.27991" lon="5.8205">
        <ele>1243.6</ele>
        <time>2015-08-22T17:19:52Z</time>
      </trkpt>
      <trkpt lat="45.27991" lon="5.8205">
        <ele>1243.8</ele>
        <time>2015-08-22T17:19:54Z</time>
      </trkpt>
      <trkpt lat="45.27993" lon="5.82051">
        <ele>1244</ele>
        <time>2015-08-22T17:19:55Z</time>
      </trkpt>
      <trkpt lat="45.27995" lon="5.82051">
        <ele>1245.7</ele>
        <time>2015-08-22T17:19:57Z</time>
      </trkpt>
      <trkpt lat="45.27997" lon="5.8205">
        <ele>1247.5</ele>
        <time>2015-08-22T17:20:00Z</time>
      </trkpt>
      <trkpt lat="45.27998" lon="5.82049">
        <ele>1248.8</ele>
        <time>2015-08-22T17:20:01Z</time>
      </trkpt>
      <trkpt lat="45.27999" lon="5.82049">
        <ele>1249.2</ele>
        <time>2015-08-22T17:20:03Z</time>
      </trkpt>
      <trkpt lat="45.28001" lon="5.8205">
        <ele>1250.4</ele>
        <time>2015-08-22T17:20:05Z</time>
      </trkpt>
      <trkpt lat="45.28004" lon="5.82049">
        <ele>1252.3</ele>
        <time>2015-08-22T17:20:07Z</time>
      </trkpt>
      <trkpt lat="45.2801" lon="5.82053">
        <ele>1253.4</ele>
        <time>2015-08-22T17:20:12Z</time>
      </trkpt>
      <trkpt lat="45.28013" lon="5.82055">
        <ele>1254.4</ele>
        <time>2015-08-22T17:20:15Z</time>
      </trkpt>
      <trkpt lat="45.28016" lon="5.82058">
        <ele>1253.4</ele>
        <time>2015-08-22T17:20:18Z</time>
      </trkpt>
      <trkpt lat="45.28019" lon="5.82059">
        <ele>1254.4</ele>
        <time>2015-08-22T17:20:21Z</time>
      </trkpt>
      <trkpt lat="45.2802" lon="5.82062">
        <ele>1253</ele>
        <time>2015-08-22T17:20:24Z</time>
      </trkpt>
      <trkpt lat="45.28021" lon="5.82064">
        <ele>1252.1</ele>
        <time>2015-08-22T17:20:25Z</time>
      </trkpt>
      <trkpt lat="45.28025" lon="5.82068">
        <ele>1251.1</ele>
        <time>2015-08-22T17:20:30Z</time>
      </trkpt>
      <trkpt lat="45.2803" lon="5.82068">
        <ele>1254.4</ele>
        <time>2015-08-22T17:20:35Z</time>
      </trkpt>
      <trkpt lat="45.28033" lon="5.8207">
        <ele>1253.5</ele>
        <time>2015-08-22T17:20:38Z</time>
      </trkpt>
      <trkpt lat="45.28038" lon="5.82073">
        <ele>1254.4</ele>
        <time>2015-08-22T17:20:42Z</time>
      </trkpt>
      <trkpt lat="45.28044" lon="5.82072">
        <ele>1258.6</ele>
        <time>2015-08-22T17:20:48Z</time>
      </trkpt>
      <trkpt lat="45.28049" lon="5.82069">
        <ele>1263.8</ele>
        <time>2015-08-22T17:20:53Z</time>
      </trkpt>
      <trkpt lat="45.28049" lon="5.82069">
        <ele>1264.4</ele>
        <time>2015-08-22T17:20:54Z</time>
      </trkpt>
      <trkpt lat="45.28053" lon="5.82063">
        <ele>1270.7</ele>
        <time>2015-08-22T17:21:00Z</time>
      </trkpt>
      <trkpt lat="45.28057" lon="5.82059">
        <ele>1276.4</ele>
        <time>2015-08-22T17:21:04Z</time>
      </trkpt>
      <trkpt lat="45.28059" lon="5.8206">
        <ele>1276.6</ele>
        <time>2015-08-22T17:21:06Z</time>
      </trkpt>
      <trkpt lat="45.28061" lon="5.8206">
        <ele>1278</ele>
        <time>2015-08-22T17:21:09Z</time>
      </trkpt>
      <trkpt lat="45.28064" lon="5.82059">
        <ele>1279.7</ele>
        <time>2015-08-22T17:21:15Z</time>
      </trkpt>
      <trkpt lat="45.2807" lon="5.82059">
        <ele>1282.9</ele>
        <time>2015-08-22T17:21:21Z</time>
      </trkpt>
      <trkpt lat="45.28073" lon="5.82055">
        <ele>1287.8</ele>
        <time>2015-08-22T17:21:29Z</time>
      </trkpt>
      <trkpt lat="45.28078" lon="5.82052">
        <ele>1292.4</ele>
        <time>2015-08-22T17:21:37Z</time>
      </trkpt>
      <trkpt lat="45.2808" lon="5.82053">
        <ele>1292.7</ele>
        <time>2015-08-22T17:21:43Z</time>
      </trkpt>
      <trkpt lat="45.28082" lon="5.82052">
        <ele>1294.2</ele>
        <time>2015-08-22T17:21:46Z</time>
      </trkpt>
      <trkpt lat="45.28085" lon="5.8205">
        <ele>1297.2</ele>
        <time>2015-08-22T17:21:50Z</time>
      </trkpt>
      <trkpt lat="45.28085" lon="5.8205">
        <ele>1297.8</ele>
        <time>2015-08-22T17:21:51Z</time>
      </trkpt>
      <trkpt lat="45.28087" lon="5.8205">
        <ele>1298.7</ele>
        <time>2015-08-22T17:21:56Z</time>
      </trkpt>
      <trkpt lat="45.28087" lon="5.82051">
        <ele>1297.9</ele>
        <time>2015-08-22T17:21:57Z</time>
      </trkpt>
      <trkpt lat="45.2809" lon="5.82049">
        <ele>1300.6</ele>
        <time>2015-08-22T17:22:01Z</time>
      </trkpt>
      <trkpt lat="45.28093" lon="5.82048">
        <ele>1303.3</ele>
        <time>2015-08-22T17:22:06Z</time>
      </trkpt>
      <trkpt lat="45.28098" lon="5.82046">
        <ele>1306.7</ele>
        <time>2015-08-22T17:22:13Z</time>
      </trkpt>
      <trkpt lat="45.28101" lon="5.82046">
        <ele>1308.3</ele>
        <time>2015-08-22T17:22:18Z</time>
      </trkpt>
      <trkpt lat="45.28102" lon="5.82047">
        <ele>1308.1</ele>
        <time>2015-08-22T17:22:20Z</time>
      </trkpt>
      <trkpt lat="45.28105" lon="5.82048">
        <ele>1309</ele>
        <time>2015-08-22T17:22:23Z</time>
      </trkpt>
      <trkpt lat="45.28108" lon="5.82047">
        <ele>1310.9</ele>
        <time>2015-08-22T17:22:27Z</time>
      </trkpt>
      <trkpt lat="45.2811" lon="5.82047">
        <ele>1312.4</ele>
        <time>2015-08-22T17:22:31Z</time>
      </trkpt>
      <trkpt lat="45.28114" lon="5.82046">
        <ele>1314.7</ele>
        <time>2015-08-22T17:22:36Z</time>
      </trkpt>
      <trkpt lat="45.28118" lon="5.82039">
        <ele>1320.2</ele>
        <time>2015-08-22T17:22:41Z</time>
      </trkpt>
      <trkpt lat="45.28118" lon="5.82039">
        <ele>1320.8</ele>
        <time>2015-08-22T17:22:42Z</time>
      </trkpt>
      <trkpt lat="45.2812" lon="5.82038">
        <ele>1322</ele>
        <time>2015-08-22T17:22:44Z</time>
      </trkpt>
      <trkpt lat="45.28122" lon="5.82037">
        <ele>1322.9</ele>
        <time>2015-08-22T17:22:46Z</time>
      </trkpt>
      <trkpt lat="45.28123" lon="5.82037">
        <ele>1323.5</ele>
        <time>2015-08-22T17:22:48Z</time>
      </trkpt>
      <trkpt lat="45.28125" lon="5.82037">
        <ele>1324.6</ele>
        <time>2015-08-22T17:22:51Z</time>
      </trkpt>
      <trkpt lat="45.28131" lon="5.82038">
        <ele>1324.4</ele>
        <time>2015-08-22T17:22:58Z</time>
      </trkpt>
      <trkpt lat="45.28134" lon="5.82041">
        <ele>1323.7</ele>
        <time>2015-08-22T17:23:02Z</time>
      </trkpt>
      <trkpt lat="45.28136" lon="5.82042">
        <ele>1323.2</ele>
        <time>2015-08-22T17:23:05Z</time>
      </trkpt>
      <trkpt lat="45.28137" lon="5.82043">
        <ele>1322.9</ele>
        <time>2015-08-22T17:23:06Z</time>
      </trkpt>
      <trkpt lat="45.28138" lon="5.82044">
        <ele>1322.3</ele>
        <time>2015-08-22T17:23:07Z</time>
      </trkpt>
      <trkpt lat="45.2814" lon="5.82044">
        <ele>1322.4</ele>
        <time>2015-08-22T17:23:10Z</time>
      </trkpt>
      <trkpt lat="45.28141" lon="5.82044">
        <ele>1322.3</ele>
        <time>2015-08-22T17:23:11Z</time>
      </trkpt>
      <trkpt lat="45.28146" lon="5.82041">
        <ele>1324.1</ele>
        <time>2015-08-22T17:23:17Z</time>
      </trkpt>
      <trkpt lat="45.28155" lon="5.8204">
        <ele>1325.2</ele>
        <time>2015-08-22T17:23:25Z</time>
      </trkpt>
      <trkpt lat="45.28161" lon="5.8204">
        <ele>1325.4</ele>
        <time>2015-08-22T17:23:31Z</time>
      </trkpt>
      <trkpt lat="45.28161" lon="5.8204">
        <ele>1325.3</ele>
        <time>2015-08-22T17:23:32Z</time>
      </trkpt>
      <trkpt lat="45.28164" lon="5.82041">
        <ele>1325.3</ele>
        <time>2015-08-22T17:23:36Z</time>
      </trkpt>
      <trkpt lat="45.28167" lon="5.82042">
        <ele>1324.8</ele>
        <time>2015-08-22T17:23:41Z</time>
      </trkpt>
      <trkpt lat="45.2817" lon="5.82042">
        <ele>1325.1</ele>
        <time>2015-08-22T17:23:46Z</time>
      </trkpt>
      <trkpt lat="45.28178" lon="5.82042">
        <ele>1325.5</ele>
        <time>2015-08-22T17:23:53Z</time>
      </trkpt>
      <trkpt lat="45.28179" lon="5.82042">
        <ele>1325.5</ele>
        <time>2015-08-22T17:23:54Z</time>
      </trkpt>
      <trkpt lat="45.28183" lon="5.82041">
        <ele>1326.2</ele>
        <time>2015-08-22T17:23:58Z</time>
      </trkpt>
      <trkpt lat="45.28185" lon="5.82038">
        <ele>1327.3</ele>
        <time>2015-08-22T17:24:00Z</time>
      </trkpt>
      <trkpt lat="45.28185" lon="5.82035">
        <ele>1328.5</ele>
        <time>2015-08-22T17:24:06Z</time>
      </trkpt>
      <trkpt lat="45.28183" lon="5.8203">
        <ele>1330.4</ele>
        <time>2015-08-22T17:24:09Z</time>
      </trkpt>
      <trkpt lat="45.28183" lon="5.82029">
        <ele>1331</ele>
        <time>2015-08-22T17:24:10Z</time>
      </trkpt>
      <trkpt lat="45.28179" lon="5.82018">
        <ele>1334.7</ele>
        <time>2015-08-22T17:24:19Z</time>
      </trkpt>
      <trkpt lat="45.28176" lon="5.82014">
        <ele>1336</ele>
        <time>2015-08-22T17:24:24Z</time>
      </trkpt>
      <trkpt lat="45.28175" lon="5.82008">
        <ele>1338.5</ele>
        <time>2015-08-22T17:24:29Z</time>
      </trkpt>
      <trkpt lat="45.28173" lon="5.82006">
        <ele>1338.9</ele>
        <time>2015-08-22T17:24:31Z</time>
      </trkpt>
      <trkpt lat="45.28172" lon="5.82007">
        <ele>1338.6</ele>
        <time>2015-08-22T17:24:34Z</time>
      </trkpt>
      <trkpt lat="45.2817" lon="5.82004">
        <ele>1339.5</ele>
        <time>2015-08-22T17:24:36Z</time>
      </trkpt>
      <trkpt lat="45.2817" lon="5.82">
        <ele>1341.1</ele>
        <time>2015-08-22T17:24:39Z</time>
      </trkpt>
      <trkpt lat="45.28171" lon="5.81997">
        <ele>1342.1</ele>
        <time>2015-08-22T17:24:41Z</time>
      </trkpt>
      <trkpt lat="45.28171" lon="5.81997">
        <ele>1342.4</ele>
        <time>2015-08-22T17:24:43Z</time>
      </trkpt>
      <trkpt lat="45.28172" lon="5.81996">
        <ele>1342.7</ele>
        <time>2015-08-22T17:24:44Z</time>
      </trkpt>
      <trkpt lat="45.28173" lon="5.81994">
        <ele>1343.5</ele>
        <time>2015-08-22T17:24:47Z</time>
      </trkpt>
      <trkpt lat="45.28175" lon="5.81995">
        <ele>1343.6</ele>
        <time>2015-08-22T17:24:57Z</time>
      </trkpt>
      <trkpt lat="45.28182" lon="5.81999">
        <ele>1342.4</ele>
        <time>2015-08-22T17:25:05Z</time>
      </trkpt>
      <trkpt lat="45.28186" lon="5.82001">
        <ele>1341.9</ele>
        <time>2015-08-22T17:25:10Z</time>
      </trkpt>
      <trkpt lat="45.28191" lon="5.82001">
        <ele>1342.3</ele>
        <time>2015-08-22T17:25:16Z</time>
      </trkpt>
      <trkpt lat="45.28194" lon="5.82003">
        <ele>1341.9</ele>
        <time>2015-08-22T17:25:21Z</time>
      </trkpt>
      <trkpt lat="45.28194" lon="5.82004">
        <ele>1341.6</ele>
        <time>2015-08-22T17:25:22Z</time>
      </trkpt>
      <trkpt lat="45.28197" lon="5.82006">
        <ele>1341</ele>
        <time>2015-08-22T17:25:26Z</time>
      </trkpt>
      <trkpt lat="45.28198" lon="5.82007">
        <ele>1340.5</ele>
        <time>2015-08-22T17:25:27Z</time>
      </trkpt>
      <trkpt lat="45.282" lon="5.82008">
        <ele>1340.4</ele>
        <time>2015-08-22T17:25:32Z</time>
      </trkpt>
      <trkpt lat="45.282" lon="5.82006">
        <ele>1341.1</ele>
        <time>2015-08-22T17:25:34Z</time>
      </trkpt>
      <trkpt lat="45.28199" lon="5.81999">
        <ele>1344.1</ele>
        <time>2015-08-22T17:25:38Z</time>
      </trkpt>
      <trkpt lat="45.28199" lon="5.81997">
        <ele>1344.7</ele>
        <time>2015-08-22T17:25:39Z</time>
      </trkpt>
      <trkpt lat="45.282" lon="5.81993">
        <ele>1346.7</ele>
        <time>2015-08-22T17:25:45Z</time>
      </trkpt>
      <trkpt lat="45.28199" lon="5.81989">
        <ele>1348.4</ele>
        <time>2015-08-22T17:25:51Z</time>
      </trkpt>
      <trkpt lat="45.282" lon="5.81984">
        <ele>1350.2</ele>
        <time>2015-08-22T17:25:56Z</time>
      </trkpt>
      <trkpt lat="45.28201" lon="5.81982">
        <ele>1351.3</ele>
        <time>2015-08-22T17:25:59Z</time>
      </trkpt>
      <trkpt lat="45.28201" lon="5.81981">
        <ele>1351.7</ele>
        <time>2015-08-22T17:26:00Z</time>
      </trkpt>
      <trkpt lat="45.28201" lon="5.81979">
        <ele>1352.4</ele>
        <time>2015-08-22T17:26:02Z</time>
      </trkpt>
      <trkpt lat="45.282" lon="5.81971">
        <ele>1355.7</ele>
        <time>2015-08-22T17:26:06Z</time>
      </trkpt>
      <trkpt lat="45.28198" lon="5.81967">
        <ele>1356.9</ele>
        <time>2015-08-22T17:26:09Z</time>
      </trkpt>
      <trkpt lat="45.28197" lon="5.81967">
        <ele>1356.8</ele>
        <time>2015-08-22T17:26:10Z</time>
      </trkpt>
      <trkpt lat="45.28193" lon="5.81966">
        <ele>1357</ele>
        <time>2015-08-22T17:26:14Z</time>
      </trkpt>
      <trkpt lat="45.28192" lon="5.81964">
        <ele>1357.6</ele>
        <time>2015-08-22T17:26:16Z</time>
      </trkpt>
      <trkpt lat="45.28189" lon="5.81964">
        <ele>1357.2</ele>
        <time>2015-08-22T17:26:18Z</time>
      </trkpt>
      <trkpt lat="45.28189" lon="5.81964">
        <ele>1357.3</ele>
        <time>2015-08-22T17:26:20Z</time>
      </trkpt>
      <trkpt lat="45.28188" lon="5.8196">
        <ele>1358.5</ele>
        <time>2015-08-22T17:26:24Z</time>
      </trkpt>
      <trkpt lat="45.28188" lon="5.81957">
        <ele>1360</ele>
        <time>2015-08-22T17:26:29Z</time>
      </trkpt>
      <trkpt lat="45.28183" lon="5.81947">
        <ele>1362.8</ele>
        <time>2015-08-22T17:26:39Z</time>
      </trkpt>
      <trkpt lat="45.28183" lon="5.81945">
        <ele>1363.8</ele>
        <time>2015-08-22T17:26:41Z</time>
      </trkpt>
      <trkpt lat="45.28184" lon="5.81944">
        <ele>1364.1</ele>
        <time>2015-08-22T17:26:45Z</time>
      </trkpt>
      <trkpt lat="45.28185" lon="5.81943">
        <ele>1364.6</ele>
        <time>2015-08-22T17:26:50Z</time>
      </trkpt>
      <trkpt lat="45.28187" lon="5.81945">
        <ele>1364.2</ele>
        <time>2015-08-22T17:26:56Z</time>
      </trkpt>
      <trkpt lat="45.28188" lon="5.81949">
        <ele>1362.9</ele>
        <time>2015-08-22T17:27:01Z</time>
      </trkpt>
      <trkpt lat="45.28195" lon="5.81951">
        <ele>1363.1</ele>
        <time>2015-08-22T17:27:07Z</time>
      </trkpt>
      <trkpt lat="45.28199" lon="5.81952">
        <ele>1363.1</ele>
        <time>2015-08-22T17:27:11Z</time>
      </trkpt>
      <trkpt lat="45.28201" lon="5.8195">
        <ele>1363.8</ele>
        <time>2015-08-22T17:27:13Z</time>
      </trkpt>
      <trkpt lat="45.28203" lon="5.81948">
        <ele>1364.9</ele>
        <time>2015-08-22T17:27:14Z</time>
      </trkpt>
      <trkpt lat="45.28207" lon="5.81949">
        <ele>1365.2</ele>
        <time>2015-08-22T17:27:18Z</time>
      </trkpt>
      <trkpt lat="45.28208" lon="5.81949">
        <ele>1365</ele>
        <time>2015-08-22T17:27:19Z</time>
      </trkpt>
      <trkpt lat="45.2821" lon="5.8195">
        <ele>1365.7</ele>
        <time>2015-08-22T17:27:23Z</time>
      </trkpt>
      <trkpt lat="45.28214" lon="5.81957">
        <ele>1364.4</ele>
        <time>2015-08-22T17:27:30Z</time>
      </trkpt>
      <trkpt lat="45.28216" lon="5.81964">
        <ele>1362.2</ele>
        <time>2015-08-22T17:27:36Z</time>
      </trkpt>
      <trkpt lat="45.28219" lon="5.81971">
        <ele>1360.3</ele>
        <time>2015-08-22T17:27:43Z</time>
      </trkpt>
      <trkpt lat="45.28222" lon="5.81975">
        <ele>1359.8</ele>
        <time>2015-08-22T17:27:48Z</time>
      </trkpt>
      <trkpt lat="45.28225" lon="5.81977">
        <ele>1360</ele>
        <time>2015-08-22T17:27:50Z</time>
      </trkpt>
      <trkpt lat="45.28231" lon="5.81977">
        <ele>1361.8</ele>
        <time>2015-08-22T17:27:55Z</time>
      </trkpt>
      <trkpt lat="45.28236" lon="5.81979">
        <ele>1362.6</ele>
        <time>2015-08-22T17:28:00Z</time>
      </trkpt>
      <trkpt lat="45.28242" lon="5.81983">
        <ele>1363.3</ele>
        <time>2015-08-22T17:28:06Z</time>
      </trkpt>
      <trkpt lat="45.28246" lon="5.81981">
        <ele>1365.3</ele>
        <time>2015-08-22T17:28:10Z</time>
      </trkpt>
      <trkpt lat="45.28247" lon="5.81983">
        <ele>1365.1</ele>
        <time>2015-08-22T17:28:12Z</time>
      </trkpt>
      <trkpt lat="45.28248" lon="5.81984">
        <ele>1364.9</ele>
        <time>2015-08-22T17:28:13Z</time>
      </trkpt>
      <trkpt lat="45.2825" lon="5.81987">
        <ele>1364.7</ele>
        <time>2015-08-22T17:28:16Z</time>
      </trkpt>
      <trkpt lat="45.28251" lon="5.81988">
        <ele>1364.7</ele>
        <time>2015-08-22T17:28:17Z</time>
      </trkpt>
      <trkpt lat="45.28253" lon="5.81989">
        <ele>1364.6</ele>
        <time>2015-08-22T17:28:19Z</time>
      </trkpt>
      <trkpt lat="45.28256" lon="5.81991">
        <ele>1365.1</ele>
        <time>2015-08-22T17:28:22Z</time>
      </trkpt>
      <trkpt lat="45.28258" lon="5.81993">
        <ele>1365</ele>
        <time>2015-08-22T17:28:25Z</time>
      </trkpt>
      <trkpt lat="45.28261" lon="5.81989">
        <ele>1367.5</ele>
        <time>2015-08-22T17:28:28Z</time>
      </trkpt>
      <trkpt lat="45.28265" lon="5.81989">
        <ele>1368.9</ele>
        <time>2015-08-22T17:28:33Z</time>
      </trkpt>
      <trkpt lat="45.28266" lon="5.81989">
        <ele>1369.3</ele>
        <time>2015-08-22T17:28:35Z</time>
      </trkpt>
      <trkpt lat="45.2827" lon="5.81991">
        <ele>1370</ele>
        <time>2015-08-22T17:28:40Z</time>
      </trkpt>
      <trkpt lat="45.2827" lon="5.81992">
        <ele>1369.8</ele>
        <time>2015-08-22T17:28:41Z</time>
      </trkpt>
      <trkpt lat="45.28274" lon="5.81992">
        <ele>1371.1</ele>
        <time>2015-08-22T17:28:45Z</time>
      </trkpt>
      <trkpt lat="45.28275" lon="5.81992">
        <ele>1371.4</ele>
        <time>2015-08-22T17:28:46Z</time>
      </trkpt>
      <trkpt lat="45.28278" lon="5.81993">
        <ele>1372.2</ele>
        <time>2015-08-22T17:28:50Z</time>
      </trkpt>
      <trkpt lat="45.28279" lon="5.81991">
        <ele>1373.1</ele>
        <time>2015-08-22T17:28:51Z</time>
      </trkpt>
      <trkpt lat="45.28284" lon="5.81993">
        <ele>1374</ele>
        <time>2015-08-22T17:28:56Z</time>
      </trkpt>
      <trkpt lat="45.28287" lon="5.81993">
        <ele>1375.3</ele>
        <time>2015-08-22T17:29:00Z</time>
      </trkpt>
      <trkpt lat="45.28287" lon="5.81997">
        <ele>1373.7</ele>
        <time>2015-08-22T17:29:02Z</time>
      </trkpt>
      <trkpt lat="45.28288" lon="5.81992">
        <ele>1375.8</ele>
        <time>2015-08-22T17:29:06Z</time>
      </trkpt>
      <trkpt lat="45.28288" lon="5.81988">
        <ele>1377.3</ele>
        <time>2015-08-22T17:29:09Z</time>
      </trkpt>
      <trkpt lat="45.28288" lon="5.81986">
        <ele>1377.9</ele>
        <time>2015-08-22T17:29:10Z</time>
      </trkpt>
      <trkpt lat="45.28286" lon="5.8198">
        <ele>1379.4</ele>
        <time>2015-08-22T17:29:15Z</time>
      </trkpt>
      <trkpt lat="45.28285" lon="5.81982">
        <ele>1378.4</ele>
        <time>2015-08-22T17:29:17Z</time>
      </trkpt>
      <trkpt lat="45.28283" lon="5.8198">
        <ele>1378.4</ele>
        <time>2015-08-22T17:29:20Z</time>
      </trkpt>
      <trkpt lat="45.2828" lon="5.81977">
        <ele>1378.4</ele>
        <time>2015-08-22T17:29:26Z</time>
      </trkpt>
      <trkpt lat="45.28274" lon="5.81976">
        <ele>1376.7</ele>
        <time>2015-08-22T17:29:32Z</time>
      </trkpt>
      <trkpt lat="45.28271" lon="5.81974">
        <ele>1376.9</ele>
        <time>2015-08-22T17:29:35Z</time>
      </trkpt>
      <trkpt lat="45.2827" lon="5.81972">
        <ele>1376.8</ele>
        <time>2015-08-22T17:29:37Z</time>
      </trkpt>
      <trkpt lat="45.28266" lon="5.81966">
        <ele>1378</ele>
        <time>2015-08-22T17:29:42Z</time>
      </trkpt>
      <trkpt lat="45.28262" lon="5.8196">
        <ele>1378.5</ele>
        <time>2015-08-22T17:29:48Z</time>
      </trkpt>
      <trkpt lat="45.28261" lon="5.81958">
        <ele>1379.2</ele>
        <time>2015-08-22T17:29:50Z</time>
      </trkpt>
      <trkpt lat="45.2826" lon="5.81956">
        <ele>1379.7</ele>
        <time>2015-08-22T17:29:52Z</time>
      </trkpt>
      <trkpt lat="45.28257" lon="5.81947">
        <ele>1381</ele>
        <time>2015-08-22T17:29:58Z</time>
      </trkpt>
      <trkpt lat="45.28257" lon="5.81945">
        <ele>1381.8</ele>
        <time>2015-08-22T17:30:00Z</time>
      </trkpt>
      <trkpt lat="45.28252" lon="5.81939">
        <ele>1382.1</ele>
        <time>2015-08-22T17:30:05Z</time>
      </trkpt>
      <trkpt lat="45.28253" lon="5.81939">
        <ele>1382.4</ele>
        <time>2015-08-22T17:30:10Z</time>
      </trkpt>
      <trkpt lat="45.28254" lon="5.81942">
        <ele>1382</ele>
        <time>2015-08-22T17:30:16Z</time>
      </trkpt>
      <trkpt lat="45.28259" lon="5.81944">
        <ele>1382.7</ele>
        <time>2015-08-22T17:30:23Z</time>
      </trkpt>
      <trkpt lat="45.28263" lon="5.81946">
        <ele>1383.5</ele>
        <time>2015-08-22T17:30:29Z</time>
      </trkpt>
      <trkpt lat="45.28269" lon="5.81947">
        <ele>1385.1</ele>
        <time>2015-08-22T17:30:35Z</time>
      </trkpt>
      <trkpt lat="45.28278" lon="5.81946">
        <ele>1388.4</ele>
        <time>2015-08-22T17:30:43Z</time>
      </trkpt>
      <trkpt lat="45.28281" lon="5.81948">
        <ele>1388.7</ele>
        <time>2015-08-22T17:30:47Z</time>
      </trkpt>
      <trkpt lat="45.28286" lon="5.81946">
        <ele>1390.9</ele>
        <time>2015-08-22T17:30:51Z</time>
      </trkpt>
      <trkpt lat="45.28288" lon="5.81945">
        <ele>1391.4</ele>
        <time>2015-08-22T17:30:52Z</time>
      </trkpt>
      <trkpt lat="45.28294" lon="5.81946">
        <ele>1393.2</ele>
        <time>2015-08-22T17:30:58Z</time>
      </trkpt>
      <trkpt lat="45.28298" lon="5.81946">
        <ele>1394.2</ele>
        <time>2015-08-22T17:31:01Z</time>
      </trkpt>
      <trkpt lat="45.283" lon="5.81944">
        <ele>1395.3</ele>
        <time>2015-08-22T17:31:02Z</time>
      </trkpt>
      <trkpt lat="45.28304" lon="5.81944">
        <ele>1396.4</ele>
        <time>2015-08-22T17:31:06Z</time>
      </trkpt>
      <trkpt lat="45.28307" lon="5.81941">
        <ele>1397.9</ele>
        <time>2015-08-22T17:31:10Z</time>
      </trkpt>
      <trkpt lat="45.28309" lon="5.81943">
        <ele>1397.8</ele>
        <time>2015-08-22T17:31:12Z</time>
      </trkpt>
      <trkpt lat="45.2831" lon="5.81946">
        <ele>1397.4</ele>
        <time>2015-08-22T17:31:15Z</time>
      </trkpt>
      <trkpt lat="45.28318" lon="5.81946">
        <ele>1399.6</ele>
        <time>2015-08-22T17:31:21Z</time>
      </trkpt>
      <trkpt lat="45.28326" lon="5.81942">
        <ele>1402.4</ele>
        <time>2015-08-22T17:31:27Z</time>
      </trkpt>
      <trkpt lat="45.28326" lon="5.81943">
        <ele>1402.5</ele>
        <time>2015-08-22T17:31:28Z</time>
      </trkpt>
      <trkpt lat="45.28329" lon="5.81943">
        <ele>1403.3</ele>
        <time>2015-08-22T17:31:32Z</time>
      </trkpt>
      <trkpt lat="45.2833" lon="5.81942">
        <ele>1403.5</ele>
        <time>2015-08-22T17:31:33Z</time>
      </trkpt>
      <trkpt lat="45.28333" lon="5.81941">
        <ele>1404.6</ele>
        <time>2015-08-22T17:31:37Z</time>
      </trkpt>
      <trkpt lat="45.28333" lon="5.81943">
        <ele>1404.4</ele>
        <time>2015-08-22T17:31:38Z</time>
      </trkpt>
      <trkpt lat="45.28336" lon="5.81946">
        <ele>1404.5</ele>
        <time>2015-08-22T17:31:42Z</time>
      </trkpt>
      <trkpt lat="45.28338" lon="5.81948">
        <ele>1404.7</ele>
        <time>2015-08-22T17:31:46Z</time>
      </trkpt>
      <trkpt lat="45.2834" lon="5.81949">
        <ele>1405.3</ele>
        <time>2015-08-22T17:31:49Z</time>
      </trkpt>
      <trkpt lat="45.28347" lon="5.81947">
        <ele>1407.3</ele>
        <time>2015-08-22T17:31:57Z</time>
      </trkpt>
      <trkpt lat="45.28348" lon="5.81947">
        <ele>1407.8</ele>
        <time>2015-08-22T17:32:00Z</time>
      </trkpt>
      <trkpt lat="45.2835" lon="5.81948">
        <ele>1408.1</ele>
        <time>2015-08-22T17:32:01Z</time>
      </trkpt>
      <trkpt lat="45.28354" lon="5.81953">
        <ele>1408.6</ele>
        <time>2015-08-22T17:32:05Z</time>
      </trkpt>
      <trkpt lat="45.28356" lon="5.81957">
        <ele>1408.7</ele>
        <time>2015-08-22T17:32:10Z</time>
      </trkpt>
      <trkpt lat="45.28357" lon="5.81957">
        <ele>1408.9</ele>
        <time>2015-08-22T17:32:11Z</time>
      </trkpt>
      <trkpt lat="45.28362" lon="5.81954">
        <ele>1410.5</ele>
        <time>2015-08-22T17:32:17Z</time>
      </trkpt>
      <trkpt lat="45.28363" lon="5.81953">
        <ele>1411.1</ele>
        <time>2015-08-22T17:32:18Z</time>
      </trkpt>
      <trkpt lat="45.28362" lon="5.81952">
        <ele>1410.7</ele>
        <time>2015-08-22T17:32:21Z</time>
      </trkpt>
      <trkpt lat="45.28361" lon="5.81951">
        <ele>1410.8</ele>
        <time>2015-08-22T17:32:22Z</time>
      </trkpt>
      <trkpt lat="45.28356" lon="5.81947">
        <ele>1409.9</ele>
        <time>2015-08-22T17:32:28Z</time>
      </trkpt>
      <trkpt lat="45.28356" lon="5.81947">
        <ele>1409.7</ele>
        <time>2015-08-22T17:32:29Z</time>
      </trkpt>
      <trkpt lat="45.28353" lon="5.81943">
        <ele>1409.7</ele>
        <time>2015-08-22T17:32:35Z</time>
      </trkpt>
      <trkpt lat="45.2835" lon="5.81942">
        <ele>1409</ele>
        <time>2015-08-22T17:32:39Z</time>
      </trkpt>
      <trkpt lat="45.28349" lon="5.81937">
        <ele>1409.4</ele>
        <time>2015-08-22T17:32:47Z</time>
      </trkpt>
      <trkpt lat="45.28351" lon="5.81933">
        <ele>1410.5</ele>
        <time>2015-08-22T17:32:53Z</time>
      </trkpt>
      <trkpt lat="45.28352" lon="5.81933">
        <ele>1410.9</ele>
        <time>2015-08-22T17:32:57Z</time>
      </trkpt>
      <trkpt lat="45.28354" lon="5.81935">
        <ele>1411.1</ele>
        <time>2015-08-22T17:33:01Z</time>
      </trkpt>
      <trkpt lat="45.28356" lon="5.81934">
        <ele>1411.5</ele>
        <time>2015-08-22T17:33:04Z</time>
      </trkpt>
      <trkpt lat="45.28358" lon="5.81932">
        <ele>1412.3</ele>
        <time>2015-08-22T17:33:08Z</time>
      </trkpt>
      <trkpt lat="45.28361" lon="5.81932">
        <ele>1413</ele>
        <time>2015-08-22T17:33:14Z</time>
      </trkpt>
      <trkpt lat="45.28364" lon="5.81931">
        <ele>1414</ele>
        <time>2015-08-22T17:33:19Z</time>
      </trkpt>
      <trkpt lat="45.28367" lon="5.8193">
        <ele>1414.9</ele>
        <time>2015-08-22T17:33:23Z</time>
      </trkpt>
      <trkpt lat="45.28372" lon="5.81928">
        <ele>1416.2</ele>
        <time>2015-08-22T17:33:30Z</time>
      </trkpt>
      <trkpt lat="45.28376" lon="5.81928">
        <ele>1416.9</ele>
        <time>2015-08-22T17:33:34Z</time>
      </trkpt>
      <trkpt lat="45.28379" lon="5.81928">
        <ele>1417</ele>
        <time>2015-08-22T17:33:39Z</time>
      </trkpt>
      <trkpt lat="45.28381" lon="5.81929">
        <ele>1416.9</ele>
        <time>2015-08-22T17:33:44Z</time>
      </trkpt>
      <trkpt lat="45.28387" lon="5.81929">
        <ele>1417</ele>
        <time>2015-08-22T17:33:52Z</time>
      </trkpt>
      <trkpt lat="45.2839" lon="5.81931">
        <ele>1416.9</ele>
        <time>2015-08-22T17:33:58Z</time>
      </trkpt>
      <trkpt lat="45.28394" lon="5.8193">
        <ele>1417.1</ele>
        <time>2015-08-22T17:34:04Z</time>
      </trkpt>
      <trkpt lat="45.284" lon="5.81928">
        <ele>1417.2</ele>
        <time>2015-08-22T17:34:11Z</time>
      </trkpt>
      <trkpt lat="45.28407" lon="5.81925">
        <ele>1417.3</ele>
        <time>2015-08-22T17:34:20Z</time>
      </trkpt>
      <trkpt lat="45.28409" lon="5.81924">
        <ele>1417.3</ele>
        <time>2015-08-22T17:34:26Z</time>
      </trkpt>
      <trkpt lat="45.28411" lon="5.81924">
        <ele>1417.3</ele>
        <time>2015-08-22T17:34:27Z</time>
      </trkpt>
      <trkpt lat="45.28413" lon="5.81922">
        <ele>1417.2</ele>
        <time>2015-08-22T17:34:32Z</time>
      </trkpt>
      <trkpt lat="45.28418" lon="5.81922">
        <ele>1417.2</ele>
        <time>2015-08-22T17:34:37Z</time>
      </trkpt>
      <trkpt lat="45.28423" lon="5.8192">
        <ele>1417</ele>
        <time>2015-08-22T17:34:44Z</time>
      </trkpt>
      <trkpt lat="45.28424" lon="5.8192">
        <ele>1417</ele>
        <time>2015-08-22T17:34:45Z</time>
      </trkpt>
      <trkpt lat="45.28427" lon="5.81918">
        <ele>1416.8</ele>
        <time>2015-08-22T17:34:51Z</time>
      </trkpt>
      <trkpt lat="45.28429" lon="5.81916">
        <ele>1416.6</ele>
        <time>2015-08-22T17:34:56Z</time>
      </trkpt>
      <trkpt lat="45.2844" lon="5.81908">
        <ele>1415.5</ele>
        <time>2015-08-22T17:35:03Z</time>
      </trkpt>
      <trkpt lat="45.28447" lon="5.81907">
        <ele>1415</ele>
        <time>2015-08-22T17:35:09Z</time>
      </trkpt>
      <trkpt lat="45.28448" lon="5.81906">
        <ele>1414.8</ele>
        <time>2015-08-22T17:35:10Z</time>
      </trkpt>
      <trkpt lat="45.2845" lon="5.81905">
        <ele>1414.5</ele>
        <time>2015-08-22T17:35:13Z</time>
      </trkpt>
      <trkpt lat="45.28452" lon="5.81901">
        <ele>1413.9</ele>
        <time>2015-08-22T17:35:16Z</time>
      </trkpt>
      <trkpt lat="45.28448" lon="5.81903">
        <ele>1414.4</ele>
        <time>2015-08-22T17:35:20Z</time>
      </trkpt>
      <trkpt lat="45.28446" lon="5.81904">
        <ele>1414.6</ele>
        <time>2015-08-22T17:35:23Z</time>
      </trkpt>
      <trkpt lat="45.28444" lon="5.81903">
        <ele>1414.7</ele>
        <time>2015-08-22T17:35:26Z</time>
      </trkpt>
      <trkpt lat="45.2844" lon="5.81904">
        <ele>1415.1</ele>
        <time>2015-08-22T17:35:33Z</time>
      </trkpt>
      <trkpt lat="45.28434" lon="5.81903">
        <ele>1415.3</ele>
        <time>2015-08-22T17:35:40Z</time>
      </trkpt>
      <trkpt lat="45.28426" lon="5.819">
        <ele>1415.6</ele>
        <time>2015-08-22T17:35:48Z</time>
      </trkpt>
      <trkpt lat="45.28419" lon="5.81898">
        <ele>1416.1</ele>
        <time>2015-08-22T17:35:55Z</time>
      </trkpt>
      <trkpt lat="45.28409" lon="5.81898">
        <ele>1416.9</ele>
        <time>2015-08-22T17:36:02Z</time>
      </trkpt>
      <trkpt lat="45.28405" lon="5.81895">
        <ele>1417.3</ele>
        <time>2015-08-22T17:36:05Z</time>
      </trkpt>
      <trkpt lat="45.28401" lon="5.81895">
        <ele>1417.6</ele>
        <time>2015-08-22T17:36:08Z</time>
      </trkpt>
      <trkpt lat="45.284" lon="5.81893">
        <ele>1417.8</ele>
        <time>2015-08-22T17:36:11Z</time>
      </trkpt>
      <trkpt lat="45.28397" lon="5.81892">
        <ele>1418.1</ele>
        <time>2015-08-22T17:36:13Z</time>
      </trkpt>
      <trkpt lat="45.28393" lon="5.81888">
        <ele>1418.6</ele>
        <time>2015-08-22T17:36:16Z</time>
      </trkpt>
      <trkpt lat="45.28388" lon="5.81887">
        <ele>1419.3</ele>
        <time>2015-08-22T17:36:21Z</time>
      </trkpt>
      <trkpt lat="45.2838" lon="5.81883">
        <ele>1420.6</ele>
        <time>2015-08-22T17:36:29Z</time>
      </trkpt>
      <trkpt lat="45.28372" lon="5.81879">
        <ele>1421.3</ele>
        <time>2015-08-22T17:36:35Z</time>
      </trkpt>
      <trkpt lat="45.28364" lon="5.81866">
        <ele>1419.1</ele>
        <time>2015-08-22T17:36:43Z</time>
      </trkpt>
      <trkpt lat="45.28363" lon="5.81865">
        <ele>1418.7</ele>
        <time>2015-08-22T17:36:44Z</time>
      </trkpt>
      <trkpt lat="45.28356" lon="5.81859">
        <ele>1417.1</ele>
        <time>2015-08-22T17:36:49Z</time>
      </trkpt>
      <trkpt lat="45.28352" lon="5.81853">
        <ele>1416</ele>
        <time>2015-08-22T17:36:53Z</time>
      </trkpt>
      <trkpt lat="45.28348" lon="5.81849">
        <ele>1415.1</ele>
        <time>2015-08-22T17:36:56Z</time>
      </trkpt>
      <trkpt lat="45.2834" lon="5.81841">
        <ele>1413.9</ele>
        <time>2015-08-22T17:37:03Z</time>
      </trkpt>
      <trkpt lat="45.28337" lon="5.81838">
        <ele>1413.5</ele>
        <time>2015-08-22T17:37:05Z</time>
      </trkpt>
      <trkpt lat="45.28333" lon="5.81836">
        <ele>1413.3</ele>
        <time>2015-08-22T17:37:08Z</time>
      </trkpt>
      <trkpt lat="45.28332" lon="5.81836">
        <ele>1413.2</ele>
        <time>2015-08-22T17:37:09Z</time>
      </trkpt>
      <trkpt lat="45.28322" lon="5.81826">
        <ele>1412.5</ele>
        <time>2015-08-22T17:37:18Z</time>
      </trkpt>
      <trkpt lat="45.28318" lon="5.81823">
        <ele>1412.5</ele>
        <time>2015-08-22T17:37:22Z</time>
      </trkpt>
      <trkpt lat="45.28313" lon="5.81819">
        <ele>1412.5</ele>
        <time>2015-08-22T17:37:25Z</time>
      </trkpt>
      <trkpt lat="45.28306" lon="5.81811">
        <ele>1412.6</ele>
        <time>2015-08-22T17:37:31Z</time>
      </trkpt>
      <trkpt lat="45.28295" lon="5.818">
        <ele>1413.5</ele>
        <time>2015-08-22T17:37:39Z</time>
      </trkpt>
      <trkpt lat="45.28288" lon="5.81789">
        <ele>1413.7</ele>
        <time>2015-08-22T17:37:46Z</time>
      </trkpt>
      <trkpt lat="45.2828" lon="5.81778">
        <ele>1412.8</ele>
        <time>2015-08-22T17:37:54Z</time>
      </trkpt>
      <trkpt lat="45.28279" lon="5.81777">
        <ele>1412.7</ele>
        <time>2015-08-22T17:37:55Z</time>
      </trkpt>
      <trkpt lat="45.28275" lon="5.81773">
        <ele>1412.6</ele>
        <time>2015-08-22T17:37:59Z</time>
      </trkpt>
      <trkpt lat="45.2827" lon="5.81772">
        <ele>1413.2</ele>
        <time>2015-08-22T17:38:05Z</time>
      </trkpt>
      <trkpt lat="45.28263" lon="5.81766">
        <ele>1413.6</ele>
        <time>2015-08-22T17:38:11Z</time>
      </trkpt>
      <trkpt lat="45.28259" lon="5.81764">
        <ele>1414.1</ele>
        <time>2015-08-22T17:38:15Z</time>
      </trkpt>
      <trkpt lat="45.28255" lon="5.81762">
        <ele>1414.6</ele>
        <time>2015-08-22T17:38:18Z</time>
      </trkpt>
      <trkpt lat="45.28253" lon="5.81761">
        <ele>1414.9</ele>
        <time>2015-08-22T17:38:20Z</time>
      </trkpt>
      <trkpt lat="45.28249" lon="5.81762">
        <ele>1415.6</ele>
        <time>2015-08-22T17:38:24Z</time>
      </trkpt>
      <trkpt lat="45.28248" lon="5.8176">
        <ele>1415.8</ele>
        <time>2015-08-22T17:38:25Z</time>
      </trkpt>
      <trkpt lat="45.28243" lon="5.81758">
        <ele>1416.7</ele>
        <time>2015-08-22T17:38:29Z</time>
      </trkpt>
      <trkpt lat="45.28234" lon="5.81753">
        <ele>1418.5</ele>
        <time>2015-08-22T17:38:38Z</time>
      </trkpt>
      <trkpt lat="45.28232" lon="5.81753">
        <ele>1418.9</ele>
        <time>2015-08-22T17:38:39Z</time>
      </trkpt>
      <trkpt lat="45.28229" lon="5.81749">
        <ele>1419.8</ele>
        <time>2015-08-22T17:38:43Z</time>
      </trkpt>
      <trkpt lat="45.28228" lon="5.81749">
        <ele>1420</ele>
        <time>2015-08-22T17:38:44Z</time>
      </trkpt>
      <trkpt lat="45.28223" lon="5.81744">
        <ele>1421.5</ele>
        <time>2015-08-22T17:38:49Z</time>
      </trkpt>
      <trkpt lat="45.28222" lon="5.81743">
        <ele>1421.8</ele>
        <time>2015-08-22T17:38:50Z</time>
      </trkpt>
      <trkpt lat="45.28216" lon="5.81741">
        <ele>1423.5</ele>
        <time>2015-08-22T17:38:56Z</time>
      </trkpt>
      <trkpt lat="45.28214" lon="5.8174">
        <ele>1423.9</ele>
        <time>2015-08-22T17:38:58Z</time>
      </trkpt>
      <trkpt lat="45.2821" lon="5.81739">
        <ele>1425.2</ele>
        <time>2015-08-22T17:39:02Z</time>
      </trkpt>
      <trkpt lat="45.28204" lon="5.81736">
        <ele>1426.8</ele>
        <time>2015-08-22T17:39:09Z</time>
      </trkpt>
      <trkpt lat="45.28198" lon="5.81734">
        <ele>1428.5</ele>
        <time>2015-08-22T17:39:16Z</time>
      </trkpt>
      <trkpt lat="45.28195" lon="5.81733">
        <ele>1429.5</ele>
        <time>2015-08-22T17:39:21Z</time>
      </trkpt>
      <trkpt lat="45.2819" lon="5.81732">
        <ele>1430.5</ele>
        <time>2015-08-22T17:39:27Z</time>
      </trkpt>
      <trkpt lat="45.28187" lon="5.81731">
        <ele>1431.5</ele>
        <time>2015-08-22T17:39:32Z</time>
      </trkpt>
      <trkpt lat="45.28183" lon="5.81728">
        <ele>1433.2</ele>
        <time>2015-08-22T17:39:38Z</time>
      </trkpt>
      <trkpt lat="45.28177" lon="5.81727">
        <ele>1434.6</ele>
        <time>2015-08-22T17:39:44Z</time>
      </trkpt>
      <trkpt lat="45.28174" lon="5.81725">
        <ele>1436</ele>
        <time>2015-08-22T17:39:49Z</time>
      </trkpt>
      <trkpt lat="45.28173" lon="5.81725">
        <ele>1436.2</ele>
        <time>2015-08-22T17:39:50Z</time>
      </trkpt>
      <trkpt lat="45.28171" lon="5.81723">
        <ele>1437.4</ele>
        <time>2015-08-22T17:39:55Z</time>
      </trkpt>
      <trkpt lat="45.28165" lon="5.81722">
        <ele>1438.9</ele>
        <time>2015-08-22T17:40:01Z</time>
      </trkpt>
      <trkpt lat="45.2816" lon="5.8172">
        <ele>1440.8</ele>
        <time>2015-08-22T17:40:08Z</time>
      </trkpt>
      <trkpt lat="45.28156" lon="5.81717">
        <ele>1442.9</ele>
        <time>2015-08-22T17:40:13Z</time>
      </trkpt>
      <trkpt lat="45.28156" lon="5.81716">
        <ele>1443.3</ele>
        <time>2015-08-22T17:40:14Z</time>
      </trkpt>
      <trkpt lat="45.28151" lon="5.81716">
        <ele>1444.5</ele>
        <time>2015-08-22T17:40:20Z</time>
      </trkpt>
      <trkpt lat="45.2815" lon="5.81715">
        <ele>1445</ele>
        <time>2015-08-22T17:40:21Z</time>
      </trkpt>
      <trkpt lat="45.2815" lon="5.81714">
        <ele>1445.5</ele>
        <time>2015-08-22T17:40:22Z</time>
      </trkpt>
      <trkpt lat="45.28146" lon="5.81709">
        <ele>1448.7</ele>
        <time>2015-08-22T17:40:29Z</time>
      </trkpt>
      <trkpt lat="45.28142" lon="5.81707">
        <ele>1449.8</ele>
        <time>2015-08-22T17:40:33Z</time>
      </trkpt>
      <trkpt lat="45.28141" lon="5.81708">
        <ele>1450.2</ele>
        <time>2015-08-22T17:40:35Z</time>
      </trkpt>
      <trkpt lat="45.28137" lon="5.81708">
        <ele>1451.5</ele>
        <time>2015-08-22T17:40:41Z</time>
      </trkpt>
      <trkpt lat="45.28133" lon="5.81707">
        <ele>1452.7</ele>
        <time>2015-08-22T17:40:47Z</time>
      </trkpt>
      <trkpt lat="45.28129" lon="5.81708">
        <ele>1453.9</ele>
        <time>2015-08-22T17:40:53Z</time>
      </trkpt>
      <trkpt lat="45.28125" lon="5.81707">
        <ele>1455</ele>
        <time>2015-08-22T17:40:58Z</time>
      </trkpt>
      <trkpt lat="45.28119" lon="5.81706">
        <ele>1454.2</ele>
        <time>2015-08-22T17:41:04Z</time>
      </trkpt>
      <trkpt lat="45.28115" lon="5.81706">
        <ele>1453.4</ele>
        <time>2015-08-22T17:41:10Z</time>
      </trkpt>
      <trkpt lat="45.28111" lon="5.81707">
        <ele>1452.7</ele>
        <time>2015-08-22T17:41:17Z</time>
      </trkpt>
      <trkpt lat="45.28107" lon="5.81705">
        <ele>1452.1</ele>
        <time>2015-08-22T17:41:23Z</time>
      </trkpt>
      <trkpt lat="45.28104" lon="5.81702">
        <ele>1452.1</ele>
        <time>2015-08-22T17:41:28Z</time>
      </trkpt>
      <trkpt lat="45.28103" lon="5.817">
        <ele>1452.1</ele>
        <time>2015-08-22T17:41:30Z</time>
      </trkpt>
      <trkpt lat="45.281" lon="5.81699">
        <ele>1451.9</ele>
        <time>2015-08-22T17:41:36Z</time>
      </trkpt>
      <trkpt lat="45.281" lon="5.81688">
        <ele>1453.6</ele>
        <time>2015-08-22T17:41:43Z</time>
      </trkpt>
      <trkpt lat="45.28098" lon="5.81679">
        <ele>1454.6</ele>
        <time>2015-08-22T17:41:48Z</time>
      </trkpt>
      <trkpt lat="45.28098" lon="5.81678">
        <ele>1454.9</ele>
        <time>2015-08-22T17:41:49Z</time>
      </trkpt>
      <trkpt lat="45.28099" lon="5.81675">
        <ele>1455.2</ele>
        <time>2015-08-22T17:41:53Z</time>
      </trkpt>
      <trkpt lat="45.28096" lon="5.8167">
        <ele>1455.9</ele>
        <time>2015-08-22T17:41:57Z</time>
      </trkpt>
      <trkpt lat="45.28096" lon="5.81669">
        <ele>1456</ele>
        <time>2015-08-22T17:41:58Z</time>
      </trkpt>
      <trkpt lat="45.28095" lon="5.81661">
        <ele>1457.2</ele>
        <time>2015-08-22T17:42:06Z</time>
      </trkpt>
      <trkpt lat="45.28096" lon="5.81655">
        <ele>1458.3</ele>
        <time>2015-08-22T17:42:12Z</time>
      </trkpt>
      <trkpt lat="45.28093" lon="5.81649">
        <ele>1459.1</ele>
        <time>2015-08-22T17:42:18Z</time>
      </trkpt>
      <trkpt lat="45.2809" lon="5.81649">
        <ele>1459.1</ele>
        <time>2015-08-22T17:42:22Z</time>
      </trkpt>
      <trkpt lat="45.28089" lon="5.81649">
        <ele>1459</ele>
        <time>2015-08-22T17:42:23Z</time>
      </trkpt>
      <trkpt lat="45.28082" lon="5.81647">
        <ele>1459.2</ele>
        <time>2015-08-22T17:42:30Z</time>
      </trkpt>
      <trkpt lat="45.28077" lon="5.8164">
        <ele>1460.6</ele>
        <time>2015-08-22T17:42:36Z</time>
      </trkpt>
      <trkpt lat="45.28074" lon="5.81634">
        <ele>1462</ele>
        <time>2015-08-22T17:42:42Z</time>
      </trkpt>
      <trkpt lat="45.28073" lon="5.81631">
        <ele>1462.7</ele>
        <time>2015-08-22T17:42:47Z</time>
      </trkpt>
      <trkpt lat="45.28074" lon="5.81625">
        <ele>1463.8</ele>
        <time>2015-08-22T17:42:53Z</time>
      </trkpt>
      <trkpt lat="45.28072" lon="5.81621">
        <ele>1464.5</ele>
        <time>2015-08-22T17:42:59Z</time>
      </trkpt>
      <trkpt lat="45.28068" lon="5.81619">
        <ele>1464.9</ele>
        <time>2015-08-22T17:43:03Z</time>
      </trkpt>
      <trkpt lat="45.28062" lon="5.81614">
        <ele>1466.3</ele>
        <time>2015-08-22T17:43:10Z</time>
      </trkpt>
      <trkpt lat="45.28054" lon="5.81606">
        <ele>1468.4</ele>
        <time>2015-08-22T17:43:18Z</time>
      </trkpt>
      <trkpt lat="45.28048" lon="5.81598">
        <ele>1470.9</ele>
        <time>2015-08-22T17:43:25Z</time>
      </trkpt>
      <trkpt lat="45.28042" lon="5.81587">
        <ele>1474.2</ele>
        <time>2015-08-22T17:43:33Z</time>
      </trkpt>
      <trkpt lat="45.28036" lon="5.81579">
        <ele>1474.8</ele>
        <time>2015-08-22T17:43:40Z</time>
      </trkpt>
      <trkpt lat="45.28031" lon="5.81573">
        <ele>1475.2</ele>
        <time>2015-08-22T17:43:47Z</time>
      </trkpt>
      <trkpt lat="45.28028" lon="5.81569">
        <ele>1475.5</ele>
        <time>2015-08-22T17:43:53Z</time>
      </trkpt>
      <trkpt lat="45.28027" lon="5.81569">
        <ele>1475.5</ele>
        <time>2015-08-22T17:43:54Z</time>
      </trkpt>
      <trkpt lat="45.28023" lon="5.81563">
        <ele>1476</ele>
        <time>2015-08-22T17:44:01Z</time>
      </trkpt>
      <trkpt lat="45.28021" lon="5.81555">
        <ele>1477.7</ele>
        <time>2015-08-22T17:44:08Z</time>
      </trkpt>
      <trkpt lat="45.2802" lon="5.81549">
        <ele>1478.9</ele>
        <time>2015-08-22T17:44:15Z</time>
      </trkpt>
      <trkpt lat="45.28019" lon="5.81544">
        <ele>1479.8</ele>
        <time>2015-08-22T17:44:21Z</time>
      </trkpt>
      <trkpt lat="45.28018" lon="5.81539">
        <ele>1480.5</ele>
        <time>2015-08-22T17:44:28Z</time>
      </trkpt>
      <trkpt lat="45.28018" lon="5.81536">
        <ele>1480.6</ele>
        <time>2015-08-22T17:44:32Z</time>
      </trkpt>
      <trkpt lat="45.28015" lon="5.81532">
        <ele>1480.4</ele>
        <time>2015-08-22T17:44:38Z</time>
      </trkpt>
      <trkpt lat="45.28012" lon="5.81526">
        <ele>1480.5</ele>
        <time>2015-08-22T17:44:45Z</time>
      </trkpt>
      <trkpt lat="45.28008" lon="5.81516">
        <ele>1480.8</ele>
        <time>2015-08-22T17:44:52Z</time>
      </trkpt>
      <trkpt lat="45.28005" lon="5.81501">
        <ele>1481.8</ele>
        <time>2015-08-22T17:44:59Z</time>
      </trkpt>
      <trkpt lat="45.28002" lon="5.8149">
        <ele>1482.4</ele>
        <time>2015-08-22T17:45:05Z</time>
      </trkpt>
      <trkpt lat="45.28001" lon="5.81474">
        <ele>1484</ele>
        <time>2015-08-22T17:45:12Z</time>
      </trkpt>
      <trkpt lat="45.28001" lon="5.81468">
        <ele>1484.6</ele>
        <time>2015-08-22T17:45:15Z</time>
      </trkpt>
      <trkpt lat="45.28002" lon="5.81464">
        <ele>1485.3</ele>
        <time>2015-08-22T17:45:18Z</time>
      </trkpt>
      <trkpt lat="45.28003" lon="5.81462">
        <ele>1485.5</ele>
        <time>2015-08-22T17:45:19Z</time>
      </trkpt>
      <trkpt lat="45.28005" lon="5.81446">
        <ele>1485.3</ele>
        <time>2015-08-22T17:45:26Z</time>
      </trkpt>
      <trkpt lat="45.28006" lon="5.81438">
        <ele>1485</ele>
        <time>2015-08-22T17:45:30Z</time>
      </trkpt>
      <trkpt lat="45.28007" lon="5.81435">
        <ele>1484.8</ele>
        <time>2015-08-22T17:45:32Z</time>
      </trkpt>
      <trkpt lat="45.2801" lon="5.8142">
        <ele>1484</ele>
        <time>2015-08-22T17:45:39Z</time>
      </trkpt>
      <trkpt lat="45.28011" lon="5.81419">
        <ele>1483.9</ele>
        <time>2015-08-22T17:45:40Z</time>
      </trkpt>
      <trkpt lat="45.28012" lon="5.81411">
        <ele>1483.3</ele>
        <time>2015-08-22T17:45:44Z</time>
      </trkpt>
      <trkpt lat="45.28015" lon="5.81397">
        <ele>1482.2</ele>
        <time>2015-08-22T17:45:51Z</time>
      </trkpt>
      <trkpt lat="45.28018" lon="5.81384">
        <ele>1481</ele>
        <time>2015-08-22T17:45:57Z</time>
      </trkpt>
      <trkpt lat="45.2802" lon="5.81373">
        <ele>1479.7</ele>
        <time>2015-08-22T17:46:03Z</time>
      </trkpt>
      <trkpt lat="45.28021" lon="5.81361">
        <ele>1477.9</ele>
        <time>2015-08-22T17:46:09Z</time>
      </trkpt>
      <trkpt lat="45.2802" lon="5.81347">
        <ele>1475.7</ele>
        <time>2015-08-22T17:46:16Z</time>
      </trkpt>
      <trkpt lat="45.28021" lon="5.81333">
        <ele>1473.6</ele>
        <time>2015-08-22T17:46:23Z</time>
      </trkpt>
      <trkpt lat="45.28025" lon="5.81318">
        <ele>1471</ele>
        <time>2015-08-22T17:46:31Z</time>
      </trkpt>
      <trkpt lat="45.28029" lon="5.81304">
        <ele>1468.6</ele>
        <time>2015-08-22T17:46:39Z</time>
      </trkpt>
      <trkpt lat="45.28033" lon="5.81293">
        <ele>1466.7</ele>
        <time>2015-08-22T17:46:46Z</time>
      </trkpt>
      <trkpt lat="45.28039" lon="5.81277">
        <ele>1464.9</ele>
        <time>2015-08-22T17:46:55Z</time>
      </trkpt>
      <trkpt lat="45.28041" lon="5.81264">
        <ele>1463.7</ele>
        <time>2015-08-22T17:47:02Z</time>
      </trkpt>
      <trkpt lat="45.28044" lon="5.81252">
        <ele>1462.4</ele>
        <time>2015-08-22T17:47:09Z</time>
      </trkpt>
      <trkpt lat="45.28051" lon="5.81237">
        <ele>1460.2</ele>
        <time>2015-08-22T17:47:18Z</time>
      </trkpt>
      <trkpt lat="45.28055" lon="5.81226">
        <ele>1458.7</ele>
        <time>2015-08-22T17:47:24Z</time>
      </trkpt>
      <trkpt lat="45.28059" lon="5.81217">
        <ele>1457.2</ele>
        <time>2015-08-22T17:47:29Z</time>
      </trkpt>
      <trkpt lat="45.28063" lon="5.81204">
        <ele>1455</ele>
        <time>2015-08-22T17:47:36Z</time>
      </trkpt>
      <trkpt lat="45.28066" lon="5.81191">
        <ele>1452.2</ele>
        <time>2015-08-22T17:47:44Z</time>
      </trkpt>
      <trkpt lat="45.2807" lon="5.81178">
        <ele>1449.6</ele>
        <time>2015-08-22T17:47:51Z</time>
      </trkpt>
      <trkpt lat="45.28074" lon="5.81167">
        <ele>1447.4</ele>
        <time>2015-08-22T17:47:57Z</time>
      </trkpt>
      <trkpt lat="45.28079" lon="5.81153">
        <ele>1444.7</ele>
        <time>2015-08-22T17:48:04Z</time>
      </trkpt>
      <trkpt lat="45.28087" lon="5.81136">
        <ele>1441.4</ele>
        <time>2015-08-22T17:48:14Z</time>
      </trkpt>
      <trkpt lat="45.28092" lon="5.81129">
        <ele>1439.9</ele>
        <time>2015-08-22T17:48:19Z</time>
      </trkpt>
      <trkpt lat="45.28098" lon="5.8112">
        <ele>1438.2</ele>
        <time>2015-08-22T17:48:25Z</time>
      </trkpt>
      <trkpt lat="45.28105" lon="5.81108">
        <ele>1436.1</ele>
        <time>2015-08-22T17:48:32Z</time>
      </trkpt>
      <trkpt lat="45.28112" lon="5.81094">
        <ele>1433.8</ele>
        <time>2015-08-22T17:48:40Z</time>
      </trkpt>
      <trkpt lat="45.2812" lon="5.81082">
        <ele>1432</ele>
        <time>2015-08-22T17:48:47Z</time>
      </trkpt>
      <trkpt lat="45.28128" lon="5.8107">
        <ele>1430.4</ele>
        <time>2015-08-22T17:48:54Z</time>
      </trkpt>
      <trkpt lat="45.28135" lon="5.81058">
        <ele>1429</ele>
        <time>2015-08-22T17:49:01Z</time>
      </trkpt>
      <trkpt lat="45.28139" lon="5.81047">
        <ele>1427.9</ele>
        <time>2015-08-22T17:49:06Z</time>
      </trkpt>
      <trkpt lat="45.28143" lon="5.81033">
        <ele>1426.4</ele>
        <time>2015-08-22T17:49:13Z</time>
      </trkpt>
      <trkpt lat="45.28146" lon="5.81017">
        <ele>1424.6</ele>
        <time>2015-08-22T17:49:21Z</time>
      </trkpt>
      <trkpt lat="45.28151" lon="5.81001">
        <ele>1422.9</ele>
        <time>2015-08-22T17:49:29Z</time>
      </trkpt>
      <trkpt lat="45.28153" lon="5.80996">
        <ele>1422.4</ele>
        <time>2015-08-22T17:49:32Z</time>
      </trkpt>
      <trkpt lat="45.28155" lon="5.80992">
        <ele>1422.1</ele>
        <time>2015-08-22T17:49:34Z</time>
      </trkpt>
      <trkpt lat="45.28157" lon="5.80989">
        <ele>1421.7</ele>
        <time>2015-08-22T17:49:36Z</time>
      </trkpt>
      <trkpt lat="45.28157" lon="5.80982">
        <ele>1421</ele>
        <time>2015-08-22T17:49:39Z</time>
      </trkpt>
      <trkpt lat="45.28157" lon="5.80979">
        <ele>1420.7</ele>
        <time>2015-08-22T17:49:40Z</time>
      </trkpt>
      <trkpt lat="45.28154" lon="5.80964">
        <ele>1418.8</ele>
        <time>2015-08-22T17:49:47Z</time>
      </trkpt>
      <trkpt lat="45.28155" lon="5.80963">
        <ele>1418.6</ele>
        <time>2015-08-22T17:49:48Z</time>
      </trkpt>
      <trkpt lat="45.28153" lon="5.80953">
        <ele>1417.4</ele>
        <time>2015-08-22T17:49:52Z</time>
      </trkpt>
      <trkpt lat="45.2815" lon="5.80939">
        <ele>1415.5</ele>
        <time>2015-08-22T17:49:59Z</time>
      </trkpt>
      <trkpt lat="45.28143" lon="5.80926">
        <ele>1413.6</ele>
        <time>2015-08-22T17:50:06Z</time>
      </trkpt>
      <trkpt lat="45.28134" lon="5.80911">
        <ele>1411.3</ele>
        <time>2015-08-22T17:50:15Z</time>
      </trkpt>
      <trkpt lat="45.28124" lon="5.80898">
        <ele>1409.5</ele>
        <time>2015-08-22T17:50:24Z</time>
      </trkpt>
      <trkpt lat="45.28117" lon="5.8089">
        <ele>1408.7</ele>
        <time>2015-08-22T17:50:31Z</time>
      </trkpt>
      <trkpt lat="45.28112" lon="5.80884">
        <ele>1408</ele>
        <time>2015-08-22T17:50:37Z</time>
      </trkpt>
      <trkpt lat="45.28111" lon="5.80882">
        <ele>1407.9</ele>
        <time>2015-08-22T17:50:38Z</time>
      </trkpt>
      <trkpt lat="45.28102" lon="5.80873">
        <ele>1407.1</ele>
        <time>2015-08-22T17:50:46Z</time>
      </trkpt>
      <trkpt lat="45.28092" lon="5.80864">
        <ele>1406.2</ele>
        <time>2015-08-22T17:50:54Z</time>
      </trkpt>
      <trkpt lat="45.28083" lon="5.80855">
        <ele>1405.4</ele>
        <time>2015-08-22T17:51:01Z</time>
      </trkpt>
      <trkpt lat="45.28071" lon="5.80848">
        <ele>1404.7</ele>
        <time>2015-08-22T17:51:09Z</time>
      </trkpt>
      <trkpt lat="45.2806" lon="5.80843">
        <ele>1404.1</ele>
        <time>2015-08-22T17:51:16Z</time>
      </trkpt>
      <trkpt lat="45.28051" lon="5.80835">
        <ele>1403.2</ele>
        <time>2015-08-22T17:51:23Z</time>
      </trkpt>
      <trkpt lat="45.28044" lon="5.80822">
        <ele>1401.7</ele>
        <time>2015-08-22T17:51:31Z</time>
      </trkpt>
      <trkpt lat="45.28036" lon="5.80817">
        <ele>1400.1</ele>
        <time>2015-08-22T17:51:38Z</time>
      </trkpt>
      <trkpt lat="45.28033" lon="5.80815">
        <ele>1399.6</ele>
        <time>2015-08-22T17:51:40Z</time>
      </trkpt>
      <trkpt lat="45.28025" lon="5.80811">
        <ele>1397.7</ele>
        <time>2015-08-22T17:51:45Z</time>
      </trkpt>
      <trkpt lat="45.28019" lon="5.80808">
        <ele>1396.4</ele>
        <time>2015-08-22T17:51:49Z</time>
      </trkpt>
      <trkpt lat="45.28015" lon="5.80804">
        <ele>1395.3</ele>
        <time>2015-08-22T17:51:52Z</time>
      </trkpt>
      <trkpt lat="45.28007" lon="5.80798">
        <ele>1393.1</ele>
        <time>2015-08-22T17:51:58Z</time>
      </trkpt>
      <trkpt lat="45.27994" lon="5.80792">
        <ele>1390</ele>
        <time>2015-08-22T17:52:05Z</time>
      </trkpt>
      <trkpt lat="45.27983" lon="5.80786">
        <ele>1387.1</ele>
        <time>2015-08-22T17:52:12Z</time>
      </trkpt>
      <trkpt lat="45.27975" lon="5.80781">
        <ele>1384.7</ele>
        <time>2015-08-22T17:52:18Z</time>
      </trkpt>
      <trkpt lat="45.27967" lon="5.80779">
        <ele>1383.3</ele>
        <time>2015-08-22T17:52:23Z</time>
      </trkpt>
      <trkpt lat="45.27965" lon="5.80778">
        <ele>1382.8</ele>
        <time>2015-08-22T17:52:25Z</time>
      </trkpt>
      <trkpt lat="45.27958" lon="5.80773">
        <ele>1380.9</ele>
        <time>2015-08-22T17:52:31Z</time>
      </trkpt>
      <trkpt lat="45.27949" lon="5.80769">
        <ele>1379.1</ele>
        <time>2015-08-22T17:52:37Z</time>
      </trkpt>
      <trkpt lat="45.27946" lon="5.80766">
        <ele>1378.2</ele>
        <time>2015-08-22T17:52:39Z</time>
      </trkpt>
      <trkpt lat="45.27944" lon="5.80762">
        <ele>1377.2</ele>
        <time>2015-08-22T17:52:41Z</time>
      </trkpt>
      <trkpt lat="45.27937" lon="5.80757">
        <ele>1375.5</ele>
        <time>2015-08-22T17:52:46Z</time>
      </trkpt>
      <trkpt lat="45.27928" lon="5.8075">
        <ele>1373.2</ele>
        <time>2015-08-22T17:52:53Z</time>
      </trkpt>
      <trkpt lat="45.27921" lon="5.80742">
        <ele>1370.9</ele>
        <time>2015-08-22T17:52:59Z</time>
      </trkpt>
      <trkpt lat="45.27917" lon="5.80736">
        <ele>1369.4</ele>
        <time>2015-08-22T17:53:03Z</time>
      </trkpt>
      <trkpt lat="45.27916" lon="5.80735">
        <ele>1369.2</ele>
        <time>2015-08-22T17:53:04Z</time>
      </trkpt>
      <trkpt lat="45.27914" lon="5.80734">
        <ele>1368.6</ele>
        <time>2015-08-22T17:53:06Z</time>
      </trkpt>
      <trkpt lat="45.27909" lon="5.80733">
        <ele>1367.8</ele>
        <time>2015-08-22T17:53:10Z</time>
      </trkpt>
      <trkpt lat="45.27904" lon="5.8073">
        <ele>1366.6</ele>
        <time>2015-08-22T17:53:15Z</time>
      </trkpt>
      <trkpt lat="45.27904" lon="5.80729">
        <ele>1366.4</ele>
        <time>2015-08-22T17:53:16Z</time>
      </trkpt>
      <trkpt lat="45.27904" lon="5.80725">
        <ele>1365.7</ele>
        <time>2015-08-22T17:53:21Z</time>
      </trkpt>
      <trkpt lat="45.27899" lon="5.8072">
        <ele>1364.3</ele>
        <time>2015-08-22T17:53:25Z</time>
      </trkpt>
      <trkpt lat="45.27897" lon="5.80717">
        <ele>1363.5</ele>
        <time>2015-08-22T17:53:27Z</time>
      </trkpt>
      <trkpt lat="45.27893" lon="5.80709">
        <ele>1361.7</ele>
        <time>2015-08-22T17:53:32Z</time>
      </trkpt>
      <trkpt lat="45.27887" lon="5.80699">
        <ele>1358.8</ele>
        <time>2015-08-22T17:53:39Z</time>
      </trkpt>
      <trkpt lat="45.27877" lon="5.80689">
        <ele>1355.7</ele>
        <time>2015-08-22T17:53:47Z</time>
      </trkpt>
      <trkpt lat="45.27872" lon="5.80684">
        <ele>1354</ele>
        <time>2015-08-22T17:53:52Z</time>
      </trkpt>
      <trkpt lat="45.27863" lon="5.80677">
        <ele>1351.2</ele>
        <time>2015-08-22T17:54:00Z</time>
      </trkpt>
      <trkpt lat="45.27855" lon="5.8067">
        <ele>1348.8</ele>
        <time>2015-08-22T17:54:07Z</time>
      </trkpt>
      <trkpt lat="45.27855" lon="5.80669">
        <ele>1348.6</ele>
        <time>2015-08-22T17:54:08Z</time>
      </trkpt>
      <trkpt lat="45.2785" lon="5.8066">
        <ele>1346.8</ele>
        <time>2015-08-22T17:54:13Z</time>
      </trkpt>
      <trkpt lat="45.27848" lon="5.80646">
        <ele>1344.9</ele>
        <time>2015-08-22T17:54:19Z</time>
      </trkpt>
      <trkpt lat="45.27855" lon="5.80638">
        <ele>1344.6</ele>
        <time>2015-08-22T17:54:25Z</time>
      </trkpt>
      <trkpt lat="45.27856" lon="5.80637">
        <ele>1344.6</ele>
        <time>2015-08-22T17:54:26Z</time>
      </trkpt>
      <trkpt lat="45.27867" lon="5.80632">
        <ele>1344.7</ele>
        <time>2015-08-22T17:54:34Z</time>
      </trkpt>
      <trkpt lat="45.27879" lon="5.80629">
        <ele>1344.9</ele>
        <time>2015-08-22T17:54:40Z</time>
      </trkpt>
      <trkpt lat="45.27885" lon="5.80628">
        <ele>1345.1</ele>
        <time>2015-08-22T17:54:43Z</time>
      </trkpt>
      <trkpt lat="45.27889" lon="5.80629">
        <ele>1345.4</ele>
        <time>2015-08-22T17:54:45Z</time>
      </trkpt>
      <trkpt lat="45.27899" lon="5.80631">
        <ele>1346.4</ele>
        <time>2015-08-22T17:54:50Z</time>
      </trkpt>
      <trkpt lat="45.27909" lon="5.80636">
        <ele>1348</ele>
        <time>2015-08-22T17:54:55Z</time>
      </trkpt>
      <trkpt lat="45.27911" lon="5.80637">
        <ele>1348.3</ele>
        <time>2015-08-22T17:54:56Z</time>
      </trkpt>
      <trkpt lat="45.27917" lon="5.80641">
        <ele>1349.7</ele>
        <time>2015-08-22T17:55:00Z</time>
      </trkpt>
      <trkpt lat="45.27922" lon="5.80643">
        <ele>1350.5</ele>
        <time>2015-08-22T17:55:02Z</time>
      </trkpt>
      <trkpt lat="45.27928" lon="5.80648">
        <ele>1352</ele>
        <time>2015-08-22T17:55:06Z</time>
      </trkpt>
      <trkpt lat="45.27935" lon="5.80653">
        <ele>1353.7</ele>
        <time>2015-08-22T17:55:10Z</time>
      </trkpt>
      <trkpt lat="45.27938" lon="5.80654">
        <ele>1354.2</ele>
        <time>2015-08-22T17:55:11Z</time>
      </trkpt>
      <trkpt lat="45.27944" lon="5.80658">
        <ele>1355.9</ele>
        <time>2015-08-22T17:55:15Z</time>
      </trkpt>
      <trkpt lat="45.27946" lon="5.80659">
        <ele>1356.2</ele>
        <time>2015-08-22T17:55:16Z</time>
      </trkpt>
      <trkpt lat="45.27951" lon="5.80661">
        <ele>1357.2</ele>
        <time>2015-08-22T17:55:19Z</time>
      </trkpt>
      <trkpt lat="45.27952" lon="5.80661">
        <ele>1357.4</ele>
        <time>2015-08-22T17:55:20Z</time>
      </trkpt>
      <trkpt lat="45.27955" lon="5.80662">
        <ele>1357.9</ele>
        <time>2015-08-22T17:55:22Z</time>
      </trkpt>
      <trkpt lat="45.27964" lon="5.80661">
        <ele>1357.6</ele>
        <time>2015-08-22T17:55:26Z</time>
      </trkpt>
      <trkpt lat="45.27971" lon="5.80659">
        <ele>1356.8</ele>
        <time>2015-08-22T17:55:30Z</time>
      </trkpt>
      <trkpt lat="45.27984" lon="5.80655">
        <ele>1355.2</ele>
        <time>2015-08-22T17:55:35Z</time>
      </trkpt>
      <trkpt lat="45.28" lon="5.8065">
        <ele>1353</ele>
        <time>2015-08-22T17:55:41Z</time>
      </trkpt>
      <trkpt lat="45.28008" lon="5.8065">
        <ele>1352.5</ele>
        <time>2015-08-22T17:55:44Z</time>
      </trkpt>
      <trkpt lat="45.28011" lon="5.80649">
        <ele>1352.1</ele>
        <time>2015-08-22T17:55:46Z</time>
      </trkpt>
      <trkpt lat="45.28022" lon="5.80656">
        <ele>1353.9</ele>
        <time>2015-08-22T17:55:51Z</time>
      </trkpt>
      <trkpt lat="45.28033" lon="5.8066">
        <ele>1354.6</ele>
        <time>2015-08-22T17:55:57Z</time>
      </trkpt>
      <trkpt lat="45.28036" lon="5.80658">
        <ele>1353.9</ele>
        <time>2015-08-22T17:56:00Z</time>
      </trkpt>
      <trkpt lat="45.28038" lon="5.80658">
        <ele>1353.7</ele>
        <time>2015-08-22T17:56:01Z</time>
      </trkpt>
      <trkpt lat="45.28047" lon="5.80655">
        <ele>1353.6</ele>
        <time>2015-08-22T17:56:06Z</time>
      </trkpt>
      <trkpt lat="45.28058" lon="5.80647">
        <ele>1353.1</ele>
        <time>2015-08-22T17:56:12Z</time>
      </trkpt>
      <trkpt lat="45.28064" lon="5.80644">
        <ele>1353.3</ele>
        <time>2015-08-22T17:56:15Z</time>
      </trkpt>
      <trkpt lat="45.28066" lon="5.80643">
        <ele>1353.6</ele>
        <time>2015-08-22T17:56:17Z</time>
      </trkpt>
      <trkpt lat="45.28069" lon="5.80643">
        <ele>1354</ele>
        <time>2015-08-22T17:56:21Z</time>
      </trkpt>
      <trkpt lat="45.2807" lon="5.8064">
        <ele>1353.5</ele>
        <time>2015-08-22T17:56:22Z</time>
      </trkpt>
      <trkpt lat="45.28071" lon="5.80638">
        <ele>1353.1</ele>
        <time>2015-08-22T17:56:24Z</time>
      </trkpt>
      <trkpt lat="45.28071" lon="5.80636">
        <ele>1352.6</ele>
        <time>2015-08-22T17:56:25Z</time>
      </trkpt>
      <trkpt lat="45.28077" lon="5.80628">
        <ele>1351.8</ele>
        <time>2015-08-22T17:56:31Z</time>
      </trkpt>
      <trkpt lat="45.28081" lon="5.80627">
        <ele>1352.4</ele>
        <time>2015-08-22T17:56:34Z</time>
      </trkpt>
      <trkpt lat="45.28085" lon="5.80623">
        <ele>1352.5</ele>
        <time>2015-08-22T17:56:38Z</time>
      </trkpt>
      <trkpt lat="45.2809" lon="5.80611">
        <ele>1351.8</ele>
        <time>2015-08-22T17:56:46Z</time>
      </trkpt>
      <trkpt lat="45.28091" lon="5.80608">
        <ele>1351.5</ele>
        <time>2015-08-22T17:56:48Z</time>
      </trkpt>
      <trkpt lat="45.28093" lon="5.80601">
        <ele>1350.9</ele>
        <time>2015-08-22T17:56:51Z</time>
      </trkpt>
      <trkpt lat="45.28096" lon="5.80596">
        <ele>1350.7</ele>
        <time>2015-08-22T17:56:55Z</time>
      </trkpt>
      <trkpt lat="45.28099" lon="5.80594">
        <ele>1350.9</ele>
        <time>2015-08-22T17:56:57Z</time>
      </trkpt>
      <trkpt lat="45.28101" lon="5.8059">
        <ele>1350.7</ele>
        <time>2015-08-22T17:56:59Z</time>
      </trkpt>
      <trkpt lat="45.28103" lon="5.80582">
        <ele>1349.9</ele>
        <time>2015-08-22T17:57:03Z</time>
      </trkpt>
      <trkpt lat="45.28108" lon="5.80573">
        <ele>1349.3</ele>
        <time>2015-08-22T17:57:08Z</time>
      </trkpt>
      <trkpt lat="45.28111" lon="5.80568">
        <ele>1349</ele>
        <time>2015-08-22T17:57:11Z</time>
      </trkpt>
      <trkpt lat="45.28115" lon="5.80561">
        <ele>1348.5</ele>
        <time>2015-08-22T17:57:15Z</time>
      </trkpt>
      <trkpt lat="45.28122" lon="5.8055">
        <ele>1348</ele>
        <time>2015-08-22T17:57:21Z</time>
      </trkpt>
      <trkpt lat="45.28128" lon="5.80534">
        <ele>1346.7</ele>
        <time>2015-08-22T17:57:27Z</time>
      </trkpt>
      <trkpt lat="45.28136" lon="5.80516">
        <ele>1346.3</ele>
        <time>2015-08-22T17:57:33Z</time>
      </trkpt>
      <trkpt lat="45.28142" lon="5.80495">
        <ele>1344.9</ele>
        <time>2015-08-22T17:57:41Z</time>
      </trkpt>
      <trkpt lat="45.28144" lon="5.80485">
        <ele>1344.1</ele>
        <time>2015-08-22T17:57:46Z</time>
      </trkpt>
      <trkpt lat="45.28146" lon="5.80481">
        <ele>1343.9</ele>
        <time>2015-08-22T17:57:48Z</time>
      </trkpt>
      <trkpt lat="45.28149" lon="5.80472">
        <ele>1343.6</ele>
        <time>2015-08-22T17:57:52Z</time>
      </trkpt>
      <trkpt lat="45.28153" lon="5.80456">
        <ele>1342.3</ele>
        <time>2015-08-22T17:57:58Z</time>
      </trkpt>
      <trkpt lat="45.28156" lon="5.8045">
        <ele>1342</ele>
        <time>2015-08-22T17:58:02Z</time>
      </trkpt>
      <trkpt lat="45.2816" lon="5.80437">
        <ele>1340.7</ele>
        <time>2015-08-22T17:58:07Z</time>
      </trkpt>
      <trkpt lat="45.28164" lon="5.80425">
        <ele>1339.5</ele>
        <time>2015-08-22T17:58:14Z</time>
      </trkpt>
      <trkpt lat="45.28171" lon="5.8041">
        <ele>1338.2</ele>
        <time>2015-08-22T17:58:22Z</time>
      </trkpt>
      <trkpt lat="45.28177" lon="5.80394">
        <ele>1336.5</ele>
        <time>2015-08-22T17:58:30Z</time>
      </trkpt>
      <trkpt lat="45.28184" lon="5.80389">
        <ele>1337.1</ele>
        <time>2015-08-22T17:58:35Z</time>
      </trkpt>
      <trkpt lat="45.28185" lon="5.80388">
        <ele>1337</ele>
        <time>2015-08-22T17:58:36Z</time>
      </trkpt>
      <trkpt lat="45.28192" lon="5.8038">
        <ele>1336.9</ele>
        <time>2015-08-22T17:58:41Z</time>
      </trkpt>
      <trkpt lat="45.28195" lon="5.80377">
        <ele>1336.8</ele>
        <time>2015-08-22T17:58:43Z</time>
      </trkpt>
      <trkpt lat="45.282" lon="5.80365">
        <ele>1336.2</ele>
        <time>2015-08-22T17:58:48Z</time>
      </trkpt>
      <trkpt lat="45.28201" lon="5.80359">
        <ele>1335.7</ele>
        <time>2015-08-22T17:58:51Z</time>
      </trkpt>
      <trkpt lat="45.28202" lon="5.80354">
        <ele>1335.2</ele>
        <time>2015-08-22T17:58:53Z</time>
      </trkpt>
      <trkpt lat="45.28204" lon="5.80343">
        <ele>1334.4</ele>
        <time>2015-08-22T17:58:58Z</time>
      </trkpt>
      <trkpt lat="45.28205" lon="5.80341">
        <ele>1334.4</ele>
        <time>2015-08-22T17:58:59Z</time>
      </trkpt>
      <trkpt lat="45.28209" lon="5.80334">
        <ele>1334.2</ele>
        <time>2015-08-22T17:59:03Z</time>
      </trkpt>
      <trkpt lat="45.28217" lon="5.80332">
        <ele>1334.8</ele>
        <time>2015-08-22T17:59:08Z</time>
      </trkpt>
      <trkpt lat="45.28218" lon="5.80329">
        <ele>1334.6</ele>
        <time>2015-08-22T17:59:09Z</time>
      </trkpt>
      <trkpt lat="45.2823" lon="5.80322">
        <ele>1335</ele>
        <time>2015-08-22T17:59:15Z</time>
      </trkpt>
      <trkpt lat="45.28241" lon="5.8032">
        <ele>1335.9</ele>
        <time>2015-08-22T17:59:19Z</time>
      </trkpt>
      <trkpt lat="45.28244" lon="5.80319">
        <ele>1336.1</ele>
        <time>2015-08-22T17:59:20Z</time>
      </trkpt>
      <trkpt lat="45.28245" lon="5.80316">
        <ele>1335.7</ele>
        <time>2015-08-22T17:59:21Z</time>
      </trkpt>
      <trkpt lat="45.28247" lon="5.80307">
        <ele>1334.6</ele>
        <time>2015-08-22T17:59:24Z</time>
      </trkpt>
      <trkpt lat="45.28257" lon="5.80289">
        <ele>1333.4</ele>
        <time>2015-08-22T17:59:31Z</time>
      </trkpt>
      <trkpt lat="45.28263" lon="5.80281">
        <ele>1334.9</ele>
        <time>2015-08-22T17:59:36Z</time>
      </trkpt>
      <trkpt lat="45.28268" lon="5.80267">
        <ele>1337.3</ele>
        <time>2015-08-22T17:59:43Z</time>
      </trkpt>
      <trkpt lat="45.2827" lon="5.80256">
        <ele>1338.9</ele>
        <time>2015-08-22T17:59:48Z</time>
      </trkpt>
      <trkpt lat="45.28274" lon="5.8025">
        <ele>1339.9</ele>
        <time>2015-08-22T17:59:52Z</time>
      </trkpt>
      <trkpt lat="45.28275" lon="5.8025">
        <ele>1340.1</ele>
        <time>2015-08-22T17:59:53Z</time>
      </trkpt>
      <trkpt lat="45.28276" lon="5.8025">
        <ele>1340.2</ele>
        <time>2015-08-22T17:59:54Z</time>
      </trkpt>
      <trkpt lat="45.2828" lon="5.80251">
        <ele>1340.4</ele>
        <time>2015-08-22T17:59:58Z</time>
      </trkpt>
      <trkpt lat="45.28287" lon="5.80255">
        <ele>1340.5</ele>
        <time>2015-08-22T18:00:04Z</time>
      </trkpt>
      <trkpt lat="45.28289" lon="5.80256">
        <ele>1340.4</ele>
        <time>2015-08-22T18:00:07Z</time>
      </trkpt>
      <trkpt lat="45.28291" lon="5.80258">
        <ele>1340.4</ele>
        <time>2015-08-22T18:00:09Z</time>
      </trkpt>
      <trkpt lat="45.28295" lon="5.80258">
        <ele>1341.2</ele>
        <time>2015-08-22T18:00:13Z</time>
      </trkpt>
      <trkpt lat="45.28301" lon="5.80257">
        <ele>1342.4</ele>
        <time>2015-08-22T18:00:18Z</time>
      </trkpt>
      <trkpt lat="45.28304" lon="5.80257">
        <ele>1343</ele>
        <time>2015-08-22T18:00:20Z</time>
      </trkpt>
      <trkpt lat="45.2831" lon="5.80257">
        <ele>1344.1</ele>
        <time>2015-08-22T18:00:25Z</time>
      </trkpt>
      <trkpt lat="45.28313" lon="5.80257">
        <ele>1344.6</ele>
        <time>2015-08-22T18:00:27Z</time>
      </trkpt>
      <trkpt lat="45.28316" lon="5.80257">
        <ele>1345.2</ele>
        <time>2015-08-22T18:00:29Z</time>
      </trkpt>
      <trkpt lat="45.28323" lon="5.80258">
        <ele>1346.4</ele>
        <time>2015-08-22T18:00:34Z</time>
      </trkpt>
      <trkpt lat="45.28324" lon="5.80259">
        <ele>1346.6</ele>
        <time>2015-08-22T18:00:35Z</time>
      </trkpt>
      <trkpt lat="45.28331" lon="5.80258">
        <ele>1347.9</ele>
        <time>2015-08-22T18:00:40Z</time>
      </trkpt>
      <trkpt lat="45.28331" lon="5.80257">
        <ele>1348.1</ele>
        <time>2015-08-22T18:00:41Z</time>
      </trkpt>
      <trkpt lat="45.28334" lon="5.80253">
        <ele>1348.9</ele>
        <time>2015-08-22T18:00:45Z</time>
      </trkpt>
      <trkpt lat="45.28339" lon="5.80246">
        <ele>1350.2</ele>
        <time>2015-08-22T18:00:50Z</time>
      </trkpt>
      <trkpt lat="45.28345" lon="5.80239">
        <ele>1351.7</ele>
        <time>2015-08-22T18:00:56Z</time>
      </trkpt>
      <trkpt lat="45.2835" lon="5.80232">
        <ele>1352.8</ele>
        <time>2015-08-22T18:01:02Z</time>
      </trkpt>
      <trkpt lat="45.28353" lon="5.80226">
        <ele>1353.6</ele>
        <time>2015-08-22T18:01:06Z</time>
      </trkpt>
      <trkpt lat="45.28356" lon="5.80225">
        <ele>1354.1</ele>
        <time>2015-08-22T18:01:08Z</time>
      </trkpt>
      <trkpt lat="45.28361" lon="5.80224">
        <ele>1354.8</ele>
        <time>2015-08-22T18:01:12Z</time>
      </trkpt>
      <trkpt lat="45.28363" lon="5.80224">
        <ele>1355.1</ele>
        <time>2015-08-22T18:01:13Z</time>
      </trkpt>
      <trkpt lat="45.28365" lon="5.80223">
        <ele>1355.4</ele>
        <time>2015-08-22T18:01:15Z</time>
      </trkpt>
      <trkpt lat="45.28367" lon="5.8022">
        <ele>1355.8</ele>
        <time>2015-08-22T18:01:18Z</time>
      </trkpt>
      <trkpt lat="45.2837" lon="5.80217">
        <ele>1356.2</ele>
        <time>2015-08-22T18:01:21Z</time>
      </trkpt>
      <trkpt lat="45.28372" lon="5.80217">
        <ele>1356.6</ele>
        <time>2015-08-22T18:01:24Z</time>
      </trkpt>
      <trkpt lat="45.28375" lon="5.80216">
        <ele>1356.9</ele>
        <time>2015-08-22T18:01:26Z</time>
      </trkpt>
      <trkpt lat="45.28377" lon="5.80216">
        <ele>1357.3</ele>
        <time>2015-08-22T18:01:28Z</time>
      </trkpt>
      <trkpt lat="45.28382" lon="5.80213">
        <ele>1358.2</ele>
        <time>2015-08-22T18:01:33Z</time>
      </trkpt>
      <trkpt lat="45.28384" lon="5.80213">
        <ele>1358.5</ele>
        <time>2015-08-22T18:01:35Z</time>
      </trkpt>
      <trkpt lat="45.28384" lon="5.80219">
        <ele>1358.4</ele>
        <time>2015-08-22T18:01:40Z</time>
      </trkpt>
      <trkpt lat="45.28383" lon="5.80229">
        <ele>1358.4</ele>
        <time>2015-08-22T18:01:47Z</time>
      </trkpt>
      <trkpt lat="45.28383" lon="5.80233">
        <ele>1358.3</ele>
        <time>2015-08-22T18:01:50Z</time>
      </trkpt>
      <trkpt lat="45.28383" lon="5.80237">
        <ele>1358.3</ele>
        <time>2015-08-22T18:01:52Z</time>
      </trkpt>
      <trkpt lat="45.28382" lon="5.80242">
        <ele>1358.1</ele>
        <time>2015-08-22T18:01:57Z</time>
      </trkpt>
      <trkpt lat="45.28382" lon="5.80246">
        <ele>1357.9</ele>
        <time>2015-08-22T18:02:01Z</time>
      </trkpt>
      <trkpt lat="45.28379" lon="5.8025">
        <ele>1357.3</ele>
        <time>2015-08-22T18:02:06Z</time>
      </trkpt>
      <trkpt lat="45.28377" lon="5.8026">
        <ele>1356.8</ele>
        <time>2015-08-22T18:02:14Z</time>
      </trkpt>
      <trkpt lat="45.28375" lon="5.80269">
        <ele>1356.3</ele>
        <time>2015-08-22T18:02:20Z</time>
      </trkpt>
      <trkpt lat="45.28375" lon="5.80278">
        <ele>1356.1</ele>
        <time>2015-08-22T18:02:27Z</time>
      </trkpt>
      <trkpt lat="45.28372" lon="5.80285">
        <ele>1355.5</ele>
        <time>2015-08-22T18:02:32Z</time>
      </trkpt>
      <trkpt lat="45.28371" lon="5.80287">
        <ele>1355.2</ele>
        <time>2015-08-22T18:02:34Z</time>
      </trkpt>
      <trkpt lat="45.28369" lon="5.80292">
        <ele>1354.5</ele>
        <time>2015-08-22T18:02:38Z</time>
      </trkpt>
      <trkpt lat="45.28368" lon="5.80294">
        <ele>1354.8</ele>
        <time>2015-08-22T18:02:39Z</time>
      </trkpt>
      <trkpt lat="45.28367" lon="5.80295">
        <ele>1354.7</ele>
        <time>2015-08-22T18:02:40Z</time>
      </trkpt>
      <trkpt lat="45.28365" lon="5.803">
        <ele>1355.1</ele>
        <time>2015-08-22T18:02:45Z</time>
      </trkpt>
      <trkpt lat="45.28366" lon="5.80301">
        <ele>1355.5</ele>
        <time>2015-08-22T18:02:46Z</time>
      </trkpt>
      <trkpt lat="45.28365" lon="5.80303">
        <ele>1355.7</ele>
        <time>2015-08-22T18:02:48Z</time>
      </trkpt>
      <trkpt lat="45.28362" lon="5.80309">
        <ele>1356</ele>
        <time>2015-08-22T18:02:52Z</time>
      </trkpt>
      <trkpt lat="45.28362" lon="5.80323">
        <ele>1358.5</ele>
        <time>2015-08-22T18:02:59Z</time>
      </trkpt>
      <trkpt lat="45.28364" lon="5.80334">
        <ele>1361</ele>
        <time>2015-08-22T18:03:05Z</time>
      </trkpt>
      <trkpt lat="45.28368" lon="5.80343">
        <ele>1363.5</ele>
        <time>2015-08-22T18:03:13Z</time>
      </trkpt>
      <trkpt lat="45.28369" lon="5.80347">
        <ele>1364.5</ele>
        <time>2015-08-22T18:03:16Z</time>
      </trkpt>
      <trkpt lat="45.2837" lon="5.80351">
        <ele>1365.4</ele>
        <time>2015-08-22T18:03:19Z</time>
      </trkpt>
      <trkpt lat="45.28371" lon="5.80362">
        <ele>1367.7</ele>
        <time>2015-08-22T18:03:25Z</time>
      </trkpt>
      <trkpt lat="45.28373" lon="5.80367">
        <ele>1368.9</ele>
        <time>2015-08-22T18:03:30Z</time>
      </trkpt>
      <trkpt lat="45.28375" lon="5.80363">
        <ele>1368.9</ele>
        <time>2015-08-22T18:03:36Z</time>
      </trkpt>
      <trkpt lat="45.28376" lon="5.80361">
        <ele>1368.5</ele>
        <time>2015-08-22T18:03:40Z</time>
      </trkpt>
      <trkpt lat="45.28378" lon="5.80364">
        <ele>1369.6</ele>
        <time>2015-08-22T18:03:45Z</time>
      </trkpt>
      <trkpt lat="45.28381" lon="5.80369">
        <ele>1370.8</ele>
        <time>2015-08-22T18:03:51Z</time>
      </trkpt>
      <trkpt lat="45.28381" lon="5.80375">
        <ele>1371.8</ele>
        <time>2015-08-22T18:03:56Z</time>
      </trkpt>
      <trkpt lat="45.28382" lon="5.80379">
        <ele>1372.8</ele>
        <time>2015-08-22T18:04:00Z</time>
      </trkpt>
      <trkpt lat="45.28383" lon="5.8038">
        <ele>1373</ele>
        <time>2015-08-22T18:04:02Z</time>
      </trkpt>
      <trkpt lat="45.28383" lon="5.80377">
        <ele>1372.6</ele>
        <time>2015-08-22T18:04:04Z</time>
      </trkpt>
      <trkpt lat="45.28385" lon="5.80373">
        <ele>1372.1</ele>
        <time>2015-08-22T18:04:08Z</time>
      </trkpt>
      <trkpt lat="45.28386" lon="5.80372">
        <ele>1372.1</ele>
        <time>2015-08-22T18:04:10Z</time>
      </trkpt>
      <trkpt lat="45.28387" lon="5.80372">
        <ele>1372.2</ele>
        <time>2015-08-22T18:04:11Z</time>
      </trkpt>
      <trkpt lat="45.28388" lon="5.80372">
        <ele>1372.5</ele>
        <time>2015-08-22T18:04:16Z</time>
      </trkpt>
      <trkpt lat="45.28389" lon="5.80374">
        <ele>1372.8</ele>
        <time>2015-08-22T18:04:21Z</time>
      </trkpt>
      <trkpt lat="45.28391" lon="5.80365">
        <ele>1371.8</ele>
        <time>2015-08-22T18:04:27Z</time>
      </trkpt>
      <trkpt lat="45.28392" lon="5.80361">
        <ele>1371.2</ele>
        <time>2015-08-22T18:04:33Z</time>
      </trkpt>
      <trkpt lat="45.28393" lon="5.80352">
        <ele>1370.2</ele>
        <time>2015-08-22T18:04:40Z</time>
      </trkpt>
      <trkpt lat="45.28393" lon="5.80345">
        <ele>1369</ele>
        <time>2015-08-22T18:04:46Z</time>
      </trkpt>
      <trkpt lat="45.28395" lon="5.80341">
        <ele>1368.7</ele>
        <time>2015-08-22T18:04:50Z</time>
      </trkpt>
      <trkpt lat="45.28395" lon="5.80339">
        <ele>1368.5</ele>
        <time>2015-08-22T18:04:52Z</time>
      </trkpt>
      <trkpt lat="45.28396" lon="5.80335">
        <ele>1368</ele>
        <time>2015-08-22T18:04:56Z</time>
      </trkpt>
      <trkpt lat="45.28399" lon="5.80325">
        <ele>1367.1</ele>
        <time>2015-08-22T18:05:05Z</time>
      </trkpt>
      <trkpt lat="45.28405" lon="5.80319">
        <ele>1367.7</ele>
        <time>2015-08-22T18:05:11Z</time>
      </trkpt>
      <trkpt lat="45.28407" lon="5.80318">
        <ele>1368</ele>
        <time>2015-08-22T18:05:13Z</time>
      </trkpt>
      <trkpt lat="45.28411" lon="5.80309">
        <ele>1367.8</ele>
        <time>2015-08-22T18:05:18Z</time>
      </trkpt>
      <trkpt lat="45.28416" lon="5.80303">
        <ele>1368.1</ele>
        <time>2015-08-22T18:05:24Z</time>
      </trkpt>
      <trkpt lat="45.28421" lon="5.80291">
        <ele>1368.3</ele>
        <time>2015-08-22T18:05:29Z</time>
      </trkpt>
      <trkpt lat="45.28428" lon="5.80283">
        <ele>1369.7</ele>
        <time>2015-08-22T18:05:35Z</time>
      </trkpt>
      <trkpt lat="45.28435" lon="5.80274">
        <ele>1370.8</ele>
        <time>2015-08-22T18:05:41Z</time>
      </trkpt>
      <trkpt lat="45.28441" lon="5.80266">
        <ele>1371.6</ele>
        <time>2015-08-22T18:05:46Z</time>
      </trkpt>
      <trkpt lat="45.28442" lon="5.80265">
        <ele>1371.9</ele>
        <time>2015-08-22T18:05:47Z</time>
      </trkpt>
      <trkpt lat="45.28445" lon="5.80261">
        <ele>1372.3</ele>
        <time>2015-08-22T18:05:51Z</time>
      </trkpt>
      <trkpt lat="45.2845" lon="5.80251">
        <ele>1372.7</ele>
        <time>2015-08-22T18:05:57Z</time>
      </trkpt>
      <trkpt lat="45.28451" lon="5.80246">
        <ele>1372.5</ele>
        <time>2015-08-22T18:05:59Z</time>
      </trkpt>
      <trkpt lat="45.28455" lon="5.80238">
        <ele>1372.9</ele>
        <time>2015-08-22T18:06:03Z</time>
      </trkpt>
      <trkpt lat="45.28457" lon="5.80236">
        <ele>1373</ele>
        <time>2015-08-22T18:06:04Z</time>
      </trkpt>
      <trkpt lat="45.28458" lon="5.80225">
        <ele>1372.4</ele>
        <time>2015-08-22T18:06:08Z</time>
      </trkpt>
      <trkpt lat="45.2846" lon="5.80213">
        <ele>1371.4</ele>
        <time>2015-08-22T18:06:13Z</time>
      </trkpt>
      <trkpt lat="45.2846" lon="5.8021">
        <ele>1371.2</ele>
        <time>2015-08-22T18:06:14Z</time>
      </trkpt>
      <trkpt lat="45.28461" lon="5.80199">
        <ele>1372.7</ele>
        <time>2015-08-22T18:06:18Z</time>
      </trkpt>
      <trkpt lat="45.28462" lon="5.80193">
        <ele>1373.6</ele>
        <time>2015-08-22T18:06:20Z</time>
      </trkpt>
      <trkpt lat="45.28463" lon="5.80192">
        <ele>1373.9</ele>
        <time>2015-08-22T18:06:21Z</time>
      </trkpt>
      <trkpt lat="45.28465" lon="5.80183">
        <ele>1375.2</ele>
        <time>2015-08-22T18:06:24Z</time>
      </trkpt>
      <trkpt lat="45.28466" lon="5.80171">
        <ele>1377.3</ele>
        <time>2015-08-22T18:06:30Z</time>
      </trkpt>
      <trkpt lat="45.28469" lon="5.80165">
        <ele>1378.1</ele>
        <time>2015-08-22T18:06:36Z</time>
      </trkpt>
      <trkpt lat="45.28469" lon="5.80165">
        <ele>1378.2</ele>
        <time>2015-08-22T18:06:37Z</time>
      </trkpt>
      <trkpt lat="45.2847" lon="5.80153">
        <ele>1379.9</ele>
        <time>2015-08-22T18:06:43Z</time>
      </trkpt>
      <trkpt lat="45.2847" lon="5.8015">
        <ele>1380.4</ele>
        <time>2015-08-22T18:06:44Z</time>
      </trkpt>
      <trkpt lat="45.28471" lon="5.80141">
        <ele>1381.8</ele>
        <time>2015-08-22T18:06:48Z</time>
      </trkpt>
      <trkpt lat="45.28471" lon="5.80131">
        <ele>1383.3</ele>
        <time>2015-08-22T18:06:53Z</time>
      </trkpt>
      <trkpt lat="45.28471" lon="5.80127">
        <ele>1383.8</ele>
        <time>2015-08-22T18:06:55Z</time>
      </trkpt>
      <trkpt lat="45.28473" lon="5.80118">
        <ele>1385.4</ele>
        <time>2015-08-22T18:06:59Z</time>
      </trkpt>
      <trkpt lat="45.28474" lon="5.80108">
        <ele>1387.2</ele>
        <time>2015-08-22T18:07:04Z</time>
      </trkpt>
      <trkpt lat="45.28475" lon="5.80101">
        <ele>1388.4</ele>
        <time>2015-08-22T18:07:08Z</time>
      </trkpt>
      <trkpt lat="45.28476" lon="5.80093">
        <ele>1389.7</ele>
        <time>2015-08-22T18:07:11Z</time>
      </trkpt>
      <trkpt lat="45.28475" lon="5.80087">
        <ele>1391</ele>
        <time>2015-08-22T18:07:14Z</time>
      </trkpt>
      <trkpt lat="45.28475" lon="5.80079">
        <ele>1392.6</ele>
        <time>2015-08-22T18:07:19Z</time>
      </trkpt>
      <trkpt lat="45.28475" lon="5.80075">
        <ele>1393.2</ele>
        <time>2015-08-22T18:07:21Z</time>
      </trkpt>
      <trkpt lat="45.28474" lon="5.80069">
        <ele>1394.5</ele>
        <time>2015-08-22T18:07:24Z</time>
      </trkpt>
      <trkpt lat="45.2847" lon="5.80066">
        <ele>1396.1</ele>
        <time>2015-08-22T18:07:27Z</time>
      </trkpt>
      <trkpt lat="45.28468" lon="5.80062">
        <ele>1397.3</ele>
        <time>2015-08-22T18:07:31Z</time>
      </trkpt>
      <trkpt lat="45.28467" lon="5.80059">
        <ele>1398.2</ele>
        <time>2015-08-22T18:07:33Z</time>
      </trkpt>
      <trkpt lat="45.28465" lon="5.80052">
        <ele>1400.2</ele>
        <time>2015-08-22T18:07:36Z</time>
      </trkpt>
      <trkpt lat="45.28462" lon="5.80047">
        <ele>1401.8</ele>
        <time>2015-08-22T18:07:39Z</time>
      </trkpt>
      <trkpt lat="45.28462" lon="5.80044">
        <ele>1402.5</ele>
        <time>2015-08-22T18:07:41Z</time>
      </trkpt>
      <trkpt lat="45.28462" lon="5.80041">
        <ele>1403.1</ele>
        <time>2015-08-22T18:07:43Z</time>
      </trkpt>
      <trkpt lat="45.28462" lon="5.80039">
        <ele>1403.4</ele>
        <time>2015-08-22T18:07:44Z</time>
      </trkpt>
      <trkpt lat="45.28462" lon="5.80036">
        <ele>1404.3</ele>
        <time>2015-08-22T18:07:48Z</time>
      </trkpt>
      <trkpt lat="45.28462" lon="5.80035">
        <ele>1404.6</ele>
        <time>2015-08-22T18:07:49Z</time>
      </trkpt>
      <trkpt lat="45.28462" lon="5.80032">
        <ele>1405.3</ele>
        <time>2015-08-22T18:07:52Z</time>
      </trkpt>
      <trkpt lat="45.28461" lon="5.80032">
        <ele>1405.5</ele>
        <time>2015-08-22T18:07:54Z</time>
      </trkpt>
      <trkpt lat="45.28461" lon="5.80026">
        <ele>1406.8</ele>
        <time>2015-08-22T18:07:59Z</time>
      </trkpt>
      <trkpt lat="45.2846" lon="5.80015">
        <ele>1409.8</ele>
        <time>2015-08-22T18:08:10Z</time>
      </trkpt>
      <trkpt lat="45.28459" lon="5.80011">
        <ele>1411.1</ele>
        <time>2015-08-22T18:08:14Z</time>
      </trkpt>
      <trkpt lat="45.28459" lon="5.80008">
        <ele>1411.8</ele>
        <time>2015-08-22T18:08:17Z</time>
      </trkpt>
      <trkpt lat="45.28459" lon="5.80003">
        <ele>1413.1</ele>
        <time>2015-08-22T18:08:21Z</time>
      </trkpt>
      <trkpt lat="45.28459" lon="5.80002">
        <ele>1413.5</ele>
        <time>2015-08-22T18:08:22Z</time>
      </trkpt>
      <trkpt lat="45.28456" lon="5.79994">
        <ele>1415.2</ele>
        <time>2015-08-22T18:08:29Z</time>
      </trkpt>
      <trkpt lat="45.28455" lon="5.79989">
        <ele>1416.5</ele>
        <time>2015-08-22T18:08:35Z</time>
      </trkpt>
      <trkpt lat="45.28454" lon="5.79987">
        <ele>1416.9</ele>
        <time>2015-08-22T18:08:37Z</time>
      </trkpt>
      <trkpt lat="45.28452" lon="5.79983">
        <ele>1417.6</ele>
        <time>2015-08-22T18:08:40Z</time>
      </trkpt>
      <trkpt lat="45.28452" lon="5.79981">
        <ele>1418</ele>
        <time>2015-08-22T18:08:41Z</time>
      </trkpt>
      <trkpt lat="45.28452" lon="5.79979">
        <ele>1418.7</ele>
        <time>2015-08-22T18:08:43Z</time>
      </trkpt>
      <trkpt lat="45.2845" lon="5.79974">
        <ele>1419.7</ele>
        <time>2015-08-22T18:08:47Z</time>
      </trkpt>
      <trkpt lat="45.28449" lon="5.79971">
        <ele>1420.2</ele>
        <time>2015-08-22T18:08:49Z</time>
      </trkpt>
      <trkpt lat="45.28449" lon="5.7997">
        <ele>1420.4</ele>
        <time>2015-08-22T18:08:50Z</time>
      </trkpt>
      <trkpt lat="45.28447" lon="5.79968">
        <ele>1420.8</ele>
        <time>2015-08-22T18:08:53Z</time>
      </trkpt>
      <trkpt lat="45.28447" lon="5.79964">
        <ele>1421.7</ele>
        <time>2015-08-22T18:08:57Z</time>
      </trkpt>
      <trkpt lat="45.28448" lon="5.79962">
        <ele>1422.1</ele>
        <time>2015-08-22T18:08:59Z</time>
      </trkpt>
      <trkpt lat="45.28446" lon="5.79954">
        <ele>1424.3</ele>
        <time>2015-08-22T18:09:07Z</time>
      </trkpt>
      <trkpt lat="45.28445" lon="5.79949">
        <ele>1425.7</ele>
        <time>2015-08-22T18:09:11Z</time>
      </trkpt>
      <trkpt lat="45.28446" lon="5.79947">
        <ele>1426.3</ele>
        <time>2015-08-22T18:09:13Z</time>
      </trkpt>
      <trkpt lat="45.28446" lon="5.79943">
        <ele>1427.6</ele>
        <time>2015-08-22T18:09:17Z</time>
      </trkpt>
      <trkpt lat="45.28443" lon="5.79936">
        <ele>1429.4</ele>
        <time>2015-08-22T18:09:24Z</time>
      </trkpt>
      <trkpt lat="45.28442" lon="5.79933">
        <ele>1430.4</ele>
        <time>2015-08-22T18:09:27Z</time>
      </trkpt>
      <trkpt lat="45.28441" lon="5.7993">
        <ele>1431.1</ele>
        <time>2015-08-22T18:09:30Z</time>
      </trkpt>
      <trkpt lat="45.28441" lon="5.79929">
        <ele>1431.4</ele>
        <time>2015-08-22T18:09:31Z</time>
      </trkpt>
      <trkpt lat="45.28441" lon="5.79924">
        <ele>1433</ele>
        <time>2015-08-22T18:09:36Z</time>
      </trkpt>
      <trkpt lat="45.28441" lon="5.79922">
        <ele>1433.8</ele>
        <time>2015-08-22T18:09:38Z</time>
      </trkpt>
      <trkpt lat="45.2844" lon="5.79919">
        <ele>1434.5</ele>
        <time>2015-08-22T18:09:40Z</time>
      </trkpt>
      <trkpt lat="45.28439" lon="5.79912">
        <ele>1436.3</ele>
        <time>2015-08-22T18:09:47Z</time>
      </trkpt>
      <trkpt lat="45.28437" lon="5.79905">
        <ele>1438.3</ele>
        <time>2015-08-22T18:09:53Z</time>
      </trkpt>
      <trkpt lat="45.28436" lon="5.799">
        <ele>1439.8</ele>
        <time>2015-08-22T18:09:58Z</time>
      </trkpt>
      <trkpt lat="45.28436" lon="5.79899">
        <ele>1440.1</ele>
        <time>2015-08-22T18:09:59Z</time>
      </trkpt>
      <trkpt lat="45.28436" lon="5.79894">
        <ele>1441.5</ele>
        <time>2015-08-22T18:10:02Z</time>
      </trkpt>
      <trkpt lat="45.28435" lon="5.79893">
        <ele>1441.7</ele>
        <time>2015-08-22T18:10:04Z</time>
      </trkpt>
      <trkpt lat="45.28433" lon="5.79889">
        <ele>1442.4</ele>
        <time>2015-08-22T18:10:10Z</time>
      </trkpt>
      <trkpt lat="45.28434" lon="5.79885">
        <ele>1443.8</ele>
        <time>2015-08-22T18:10:14Z</time>
      </trkpt>
      <trkpt lat="45.28434" lon="5.79884">
        <ele>1444.1</ele>
        <time>2015-08-22T18:10:15Z</time>
      </trkpt>
      <trkpt lat="45.28433" lon="5.79878">
        <ele>1445.7</ele>
        <time>2015-08-22T18:10:20Z</time>
      </trkpt>
      <trkpt lat="45.28432" lon="5.79876">
        <ele>1446.3</ele>
        <time>2015-08-22T18:10:22Z</time>
      </trkpt>
      <trkpt lat="45.2843" lon="5.79874">
        <ele>1446.6</ele>
        <time>2015-08-22T18:10:25Z</time>
      </trkpt>
      <trkpt lat="45.28429" lon="5.7987">
        <ele>1447.7</ele>
        <time>2015-08-22T18:10:32Z</time>
      </trkpt>
      <trkpt lat="45.28431" lon="5.79867">
        <ele>1448.8</ele>
        <time>2015-08-22T18:10:39Z</time>
      </trkpt>
      <trkpt lat="45.28432" lon="5.79866">
        <ele>1449.3</ele>
        <time>2015-08-22T18:10:45Z</time>
      </trkpt>
      <trkpt lat="45.28432" lon="5.7986">
        <ele>1451.3</ele>
        <time>2015-08-22T18:10:50Z</time>
      </trkpt>
      <trkpt lat="45.28431" lon="5.79856">
        <ele>1452.4</ele>
        <time>2015-08-22T18:10:56Z</time>
      </trkpt>
      <trkpt lat="45.28431" lon="5.79851">
        <ele>1454</ele>
        <time>2015-08-22T18:11:02Z</time>
      </trkpt>
      <trkpt lat="45.28432" lon="5.79847">
        <ele>1455.4</ele>
        <time>2015-08-22T18:11:08Z</time>
      </trkpt>
      <trkpt lat="45.28434" lon="5.79839">
        <ele>1458.3</ele>
        <time>2015-08-22T18:11:17Z</time>
      </trkpt>
      <trkpt lat="45.28435" lon="5.79836">
        <ele>1459.3</ele>
        <time>2015-08-22T18:11:22Z</time>
      </trkpt>
      <trkpt lat="45.28437" lon="5.79834">
        <ele>1460.4</ele>
        <time>2015-08-22T18:11:28Z</time>
      </trkpt>
      <trkpt lat="45.28438" lon="5.7983">
        <ele>1461.9</ele>
        <time>2015-08-22T18:11:34Z</time>
      </trkpt>
      <trkpt lat="45.28439" lon="5.79826">
        <ele>1463.3</ele>
        <time>2015-08-22T18:11:40Z</time>
      </trkpt>
      <trkpt lat="45.28439" lon="5.79825">
        <ele>1463.6</ele>
        <time>2015-08-22T18:11:41Z</time>
      </trkpt>
      <trkpt lat="45.28441" lon="5.79822">
        <ele>1465</ele>
        <time>2015-08-22T18:11:48Z</time>
      </trkpt>
      <trkpt lat="45.28442" lon="5.7982">
        <ele>1466.2</ele>
        <time>2015-08-22T18:11:52Z</time>
      </trkpt>
      <trkpt lat="45.28443" lon="5.79818">
        <ele>1467</ele>
        <time>2015-08-22T18:11:53Z</time>
      </trkpt>
      <trkpt lat="45.28443" lon="5.79812">
        <ele>1468.8</ele>
        <time>2015-08-22T18:11:58Z</time>
      </trkpt>
      <trkpt lat="45.28442" lon="5.79812">
        <ele>1468.6</ele>
        <time>2015-08-22T18:11:59Z</time>
      </trkpt>
      <trkpt lat="45.28441" lon="5.79808">
        <ele>1469.3</ele>
        <time>2015-08-22T18:12:02Z</time>
      </trkpt>
      <trkpt lat="45.2844" lon="5.79807">
        <ele>1469.6</ele>
        <time>2015-08-22T18:12:03Z</time>
      </trkpt>
      <trkpt lat="45.28442" lon="5.79804">
        <ele>1471</ele>
        <time>2015-08-22T18:12:09Z</time>
      </trkpt>
      <trkpt lat="45.28442" lon="5.79799">
        <ele>1472.7</ele>
        <time>2015-08-22T18:12:15Z</time>
      </trkpt>
      <trkpt lat="45.28439" lon="5.79795">
        <ele>1473.4</ele>
        <time>2015-08-22T18:12:20Z</time>
      </trkpt>
      <trkpt lat="45.28437" lon="5.79795">
        <ele>1472.8</ele>
        <time>2015-08-22T18:12:22Z</time>
      </trkpt>
      <trkpt lat="45.28435" lon="5.79793">
        <ele>1473</ele>
        <time>2015-08-22T18:12:25Z</time>
      </trkpt>
      <trkpt lat="45.28434" lon="5.7979">
        <ele>1473.6</ele>
        <time>2015-08-22T18:12:27Z</time>
      </trkpt>
      <trkpt lat="45.28433" lon="5.79789">
        <ele>1473.6</ele>
        <time>2015-08-22T18:12:28Z</time>
      </trkpt>
      <trkpt lat="45.28429" lon="5.79784">
        <ele>1474.2</ele>
        <time>2015-08-22T18:12:33Z</time>
      </trkpt>
      <trkpt lat="45.28429" lon="5.79784">
        <ele>1474.2</ele>
        <time>2015-08-22T18:12:34Z</time>
      </trkpt>
      <trkpt lat="45.28427" lon="5.79785">
        <ele>1473.6</ele>
        <time>2015-08-22T18:12:37Z</time>
      </trkpt>
      <trkpt lat="45.28426" lon="5.79784">
        <ele>1473.4</ele>
        <time>2015-08-22T18:12:39Z</time>
      </trkpt>
      <trkpt lat="45.28423" lon="5.79782">
        <ele>1473.4</ele>
        <time>2015-08-22T18:12:41Z</time>
      </trkpt>
      <trkpt lat="45.28421" lon="5.79777">
        <ele>1474.5</ele>
        <time>2015-08-22T18:12:44Z</time>
      </trkpt>
      <trkpt lat="45.28421" lon="5.79774">
        <ele>1475.2</ele>
        <time>2015-08-22T18:12:45Z</time>
      </trkpt>
      <trkpt lat="45.28416" lon="5.79767">
        <ele>1476.4</ele>
        <time>2015-08-22T18:12:51Z</time>
      </trkpt>
      <trkpt lat="45.28413" lon="5.79764">
        <ele>1476.8</ele>
        <time>2015-08-22T18:12:56Z</time>
      </trkpt>
      <trkpt lat="45.28411" lon="5.79764">
        <ele>1476.2</ele>
        <time>2015-08-22T18:12:58Z</time>
      </trkpt>
      <trkpt lat="45.2841" lon="5.79762">
        <ele>1476.6</ele>
        <time>2015-08-22T18:12:59Z</time>
      </trkpt>
      <trkpt lat="45.2841" lon="5.79761">
        <ele>1477</ele>
        <time>2015-08-22T18:13:01Z</time>
      </trkpt>
      <trkpt lat="45.28405" lon="5.79755">
        <ele>1477.7</ele>
        <time>2015-08-22T18:13:06Z</time>
      </trkpt>
      <trkpt lat="45.28403" lon="5.79754">
        <ele>1477.7</ele>
        <time>2015-08-22T18:13:08Z</time>
      </trkpt>
      <trkpt lat="45.284" lon="5.79751">
        <ele>1478</ele>
        <time>2015-08-22T18:13:11Z</time>
      </trkpt>
      <trkpt lat="45.284" lon="5.79746">
        <ele>1479.4</ele>
        <time>2015-08-22T18:13:16Z</time>
      </trkpt>
      <trkpt lat="45.284" lon="5.79741">
        <ele>1481.2</ele>
        <time>2015-08-22T18:13:18Z</time>
      </trkpt>
      <trkpt lat="45.28398" lon="5.79736">
        <ele>1482.3</ele>
        <time>2015-08-22T18:13:21Z</time>
      </trkpt>
      <trkpt lat="45.28399" lon="5.79734">
        <ele>1483</ele>
        <time>2015-08-22T18:13:22Z</time>
      </trkpt>
      <trkpt lat="45.28397" lon="5.79734">
        <ele>1482.8</ele>
        <time>2015-08-22T18:13:25Z</time>
      </trkpt>
      <trkpt lat="45.28397" lon="5.79735">
        <ele>1482.5</ele>
        <time>2015-08-22T18:13:27Z</time>
      </trkpt>
      <trkpt lat="45.284" lon="5.79738">
        <ele>1482</ele>
        <time>2015-08-22T18:13:33Z</time>
      </trkpt>
      <trkpt lat="45.28404" lon="5.79736">
        <ele>1483.5</ele>
        <time>2015-08-22T18:13:37Z</time>
      </trkpt>
      <trkpt lat="45.28406" lon="5.79735">
        <ele>1484</ele>
        <time>2015-08-22T18:13:39Z</time>
      </trkpt>
      <trkpt lat="45.28409" lon="5.79737">
        <ele>1484.1</ele>
        <time>2015-08-22T18:13:44Z</time>
      </trkpt>
      <trkpt lat="45.28411" lon="5.79737">
        <ele>1484.6</ele>
        <time>2015-08-22T18:13:46Z</time>
      </trkpt>
      <trkpt lat="45.28413" lon="5.79736">
        <ele>1485.4</ele>
        <time>2015-08-22T18:13:50Z</time>
      </trkpt>
      <trkpt lat="45.28416" lon="5.79735">
        <ele>1486.3</ele>
        <time>2015-08-22T18:13:54Z</time>
      </trkpt>
      <trkpt lat="45.28418" lon="5.79735">
        <ele>1486.6</ele>
        <time>2015-08-22T18:13:57Z</time>
      </trkpt>
      <trkpt lat="45.28418" lon="5.79735">
        <ele>1486.6</ele>
        <time>2015-08-22T18:13:58Z</time>
      </trkpt>
      <trkpt lat="45.28419" lon="5.79735">
        <ele>1487</ele>
        <time>2015-08-22T18:14:02Z</time>
      </trkpt>
      <trkpt lat="45.28421" lon="5.79734">
        <ele>1487.5</ele>
        <time>2015-08-22T18:14:03Z</time>
      </trkpt>
      <trkpt lat="45.28426" lon="5.79735">
        <ele>1488.2</ele>
        <time>2015-08-22T18:14:06Z</time>
      </trkpt>
      <trkpt lat="45.28429" lon="5.79737">
        <ele>1488.3</ele>
        <time>2015-08-22T18:14:10Z</time>
      </trkpt>
      <trkpt lat="45.2843" lon="5.79737">
        <ele>1488.4</ele>
        <time>2015-08-22T18:14:11Z</time>
      </trkpt>
      <trkpt lat="45.28431" lon="5.79738">
        <ele>1488.4</ele>
        <time>2015-08-22T18:14:12Z</time>
      </trkpt>
      <trkpt lat="45.28438" lon="5.79737">
        <ele>1489.9</ele>
        <time>2015-08-22T18:14:18Z</time>
      </trkpt>
      <trkpt lat="45.28445" lon="5.79735">
        <ele>1491.9</ele>
        <time>2015-08-22T18:14:25Z</time>
      </trkpt>
      <trkpt lat="45.28449" lon="5.79734">
        <ele>1493.1</ele>
        <time>2015-08-22T18:14:30Z</time>
      </trkpt>
      <trkpt lat="45.28454" lon="5.79727">
        <ele>1495.9</ele>
        <time>2015-08-22T18:14:37Z</time>
      </trkpt>
      <trkpt lat="45.28454" lon="5.79724">
        <ele>1496.8</ele>
        <time>2015-08-22T18:14:39Z</time>
      </trkpt>
      <trkpt lat="45.28453" lon="5.7972">
        <ele>1497.9</ele>
        <time>2015-08-22T18:14:43Z</time>
      </trkpt>
      <trkpt lat="45.28453" lon="5.79718">
        <ele>1498.2</ele>
        <time>2015-08-22T18:14:44Z</time>
      </trkpt>
      <trkpt lat="45.28453" lon="5.79714">
        <ele>1499.5</ele>
        <time>2015-08-22T18:14:46Z</time>
      </trkpt>
      <trkpt lat="45.28452" lon="5.79712">
        <ele>1499.8</ele>
        <time>2015-08-22T18:14:48Z</time>
      </trkpt>
      <trkpt lat="45.28452" lon="5.79711">
        <ele>1500.1</ele>
        <time>2015-08-22T18:14:49Z</time>
      </trkpt>
      <trkpt lat="45.28451" lon="5.79708">
        <ele>1500.7</ele>
        <time>2015-08-22T18:14:53Z</time>
      </trkpt>
      <trkpt lat="45.28444" lon="5.79703">
        <ele>1500.4</ele>
        <time>2015-08-22T18:14:58Z</time>
      </trkpt>
      <trkpt lat="45.28443" lon="5.797">
        <ele>1500.8</ele>
        <time>2015-08-22T18:14:59Z</time>
      </trkpt>
      <trkpt lat="45.28442" lon="5.79698">
        <ele>1501</ele>
        <time>2015-08-22T18:15:03Z</time>
      </trkpt>
      <trkpt lat="45.28436" lon="5.79696">
        <ele>1500.6</ele>
        <time>2015-08-22T18:15:08Z</time>
      </trkpt>
      <trkpt lat="45.28435" lon="5.79694">
        <ele>1500.8</ele>
        <time>2015-08-22T18:15:09Z</time>
      </trkpt>
      <trkpt lat="45.28431" lon="5.79695">
        <ele>1500</ele>
        <time>2015-08-22T18:15:12Z</time>
      </trkpt>
      <trkpt lat="45.28429" lon="5.79693">
        <ele>1500.2</ele>
        <time>2015-08-22T18:15:14Z</time>
      </trkpt>
      <trkpt lat="45.28425" lon="5.7969">
        <ele>1500.3</ele>
        <time>2015-08-22T18:15:18Z</time>
      </trkpt>
      <trkpt lat="45.28424" lon="5.79687">
        <ele>1500.8</ele>
        <time>2015-08-22T18:15:20Z</time>
      </trkpt>
      <trkpt lat="45.28424" lon="5.79686">
        <ele>1500.9</ele>
        <time>2015-08-22T18:15:21Z</time>
      </trkpt>
      <trkpt lat="45.28424" lon="5.79686">
        <ele>1500.8</ele>
        <time>2015-08-22T18:15:25Z</time>
      </trkpt>
      <trkpt lat="45.28426" lon="5.79686">
        <ele>1501.3</ele>
        <time>2015-08-22T18:15:31Z</time>
      </trkpt>
      <trkpt lat="45.28426" lon="5.79687">
        <ele>1501</ele>
        <time>2015-08-22T18:15:32Z</time>
      </trkpt>
      <trkpt lat="45.28429" lon="5.79685">
        <ele>1501.7</ele>
        <time>2015-08-22T18:15:34Z</time>
      </trkpt>
      <trkpt lat="45.2843" lon="5.79685">
        <ele>1502.1</ele>
        <time>2015-08-22T18:15:36Z</time>
      </trkpt>
      <trkpt lat="45.28433" lon="5.79683">
        <ele>1502.8</ele>
        <time>2015-08-22T18:15:40Z</time>
      </trkpt>
      <trkpt lat="45.28433" lon="5.79683">
        <ele>1502.7</ele>
        <time>2015-08-22T18:15:41Z</time>
      </trkpt>
      <trkpt lat="45.28435" lon="5.79686">
        <ele>1502.4</ele>
        <time>2015-08-22T18:15:46Z</time>
      </trkpt>
      <trkpt lat="45.28437" lon="5.79687">
        <ele>1502.4</ele>
        <time>2015-08-22T18:15:48Z</time>
      </trkpt>
      <trkpt lat="45.28441" lon="5.79685">
        <ele>1503.4</ele>
        <time>2015-08-22T18:15:51Z</time>
      </trkpt>
      <trkpt lat="45.28444" lon="5.79683">
        <ele>1504.1</ele>
        <time>2015-08-22T18:15:53Z</time>
      </trkpt>
      <trkpt lat="45.28445" lon="5.79679">
        <ele>1505.1</ele>
        <time>2015-08-22T18:15:57Z</time>
      </trkpt>
      <trkpt lat="45.28445" lon="5.79676">
        <ele>1505.6</ele>
        <time>2015-08-22T18:16:00Z</time>
      </trkpt>
      <trkpt lat="45.28445" lon="5.79675">
        <ele>1505.8</ele>
        <time>2015-08-22T18:16:02Z</time>
      </trkpt>
      <trkpt lat="45.28446" lon="5.79672">
        <ele>1506.3</ele>
        <time>2015-08-22T18:16:10Z</time>
      </trkpt>
      <trkpt lat="45.28445" lon="5.7967">
        <ele>1506.6</ele>
        <time>2015-08-22T18:16:12Z</time>
      </trkpt>
      <trkpt lat="45.28445" lon="5.79664">
        <ele>1507.7</ele>
        <time>2015-08-22T18:16:16Z</time>
      </trkpt>
      <trkpt lat="45.28445" lon="5.79661">
        <ele>1508.4</ele>
        <time>2015-08-22T18:16:18Z</time>
      </trkpt>
      <trkpt lat="45.28444" lon="5.79657">
        <ele>1509.1</ele>
        <time>2015-08-22T18:16:22Z</time>
      </trkpt>
      <trkpt lat="45.28443" lon="5.79655">
        <ele>1509.3</ele>
        <time>2015-08-22T18:16:25Z</time>
      </trkpt>
      <trkpt lat="45.28441" lon="5.79654">
        <ele>1509.4</ele>
        <time>2015-08-22T18:16:27Z</time>
      </trkpt>
      <trkpt lat="45.28441" lon="5.7965">
        <ele>1510.1</ele>
        <time>2015-08-22T18:16:33Z</time>
      </trkpt>
      <trkpt lat="45.2844" lon="5.79645">
        <ele>1511</ele>
        <time>2015-08-22T18:16:37Z</time>
      </trkpt>
      <trkpt lat="45.28438" lon="5.79642">
        <ele>1511.5</ele>
        <time>2015-08-22T18:16:42Z</time>
      </trkpt>
      <trkpt lat="45.28438" lon="5.79642">
        <ele>1511.6</ele>
        <time>2015-08-22T18:16:43Z</time>
      </trkpt>
      <trkpt lat="45.28439" lon="5.7963">
        <ele>1514.1</ele>
        <time>2015-08-22T18:16:52Z</time>
      </trkpt>
      <trkpt lat="45.28438" lon="5.79625">
        <ele>1515</ele>
        <time>2015-08-22T18:16:57Z</time>
      </trkpt>
      <trkpt lat="45.28435" lon="5.79621">
        <ele>1516.1</ele>
        <time>2015-08-22T18:17:02Z</time>
      </trkpt>
      <trkpt lat="45.28431" lon="5.79621">
        <ele>1516.2</ele>
        <time>2015-08-22T18:17:08Z</time>
      </trkpt>
      <trkpt lat="45.28429" lon="5.79622">
        <ele>1515.9</ele>
        <time>2015-08-22T18:17:15Z</time>
      </trkpt>
      <trkpt lat="45.28425" lon="5.79619">
        <ele>1516.7</ele>
        <time>2015-08-22T18:17:24Z</time>
      </trkpt>
      <trkpt lat="45.28426" lon="5.7961">
        <ele>1519.3</ele>
        <time>2015-08-22T18:17:28Z</time>
      </trkpt>
      <trkpt lat="45.28424" lon="5.79605">
        <ele>1520.7</ele>
        <time>2015-08-22T18:17:32Z</time>
      </trkpt>
      <trkpt lat="45.28423" lon="5.79602">
        <ele>1521.3</ele>
        <time>2015-08-22T18:17:33Z</time>
      </trkpt>
      <trkpt lat="45.28423" lon="5.79602">
        <ele>1521.5</ele>
        <time>2015-08-22T18:17:34Z</time>
      </trkpt>
      <trkpt lat="45.2842" lon="5.79599">
        <ele>1522.4</ele>
        <time>2015-08-22T18:17:38Z</time>
      </trkpt>
      <trkpt lat="45.28421" lon="5.79597">
        <ele>1522.8</ele>
        <time>2015-08-22T18:17:40Z</time>
      </trkpt>
      <trkpt lat="45.28421" lon="5.79596">
        <ele>1523.2</ele>
        <time>2015-08-22T18:17:42Z</time>
      </trkpt>
      <trkpt lat="45.28419" lon="5.79597">
        <ele>1523</ele>
        <time>2015-08-22T18:17:49Z</time>
      </trkpt>
      <trkpt lat="45.28419" lon="5.79593">
        <ele>1524.2</ele>
        <time>2015-08-22T18:18:01Z</time>
      </trkpt>
      <trkpt lat="45.28419" lon="5.79587">
        <ele>1525.8</ele>
        <time>2015-08-22T18:18:04Z</time>
      </trkpt>
      <trkpt lat="45.28418" lon="5.79583">
        <ele>1527.1</ele>
        <time>2015-08-22T18:18:07Z</time>
      </trkpt>
      <trkpt lat="45.28418" lon="5.79583">
        <ele>1527.1</ele>
        <time>2015-08-22T18:18:08Z</time>
      </trkpt>
      <trkpt lat="45.28418" lon="5.79582">
        <ele>1527.3</ele>
        <time>2015-08-22T18:18:09Z</time>
      </trkpt>
      <trkpt lat="45.28418" lon="5.79578">
        <ele>1528.3</ele>
        <time>2015-08-22T18:18:13Z</time>
      </trkpt>
      <trkpt lat="45.28418" lon="5.79576">
        <ele>1529</ele>
        <time>2015-08-22T18:18:14Z</time>
      </trkpt>
      <trkpt lat="45.28418" lon="5.7957">
        <ele>1530.9</ele>
        <time>2015-08-22T18:18:18Z</time>
      </trkpt>
      <trkpt lat="45.28417" lon="5.79562">
        <ele>1533.2</ele>
        <time>2015-08-22T18:18:23Z</time>
      </trkpt>
      <trkpt lat="45.28414" lon="5.79555">
        <ele>1535.3</ele>
        <time>2015-08-22T18:18:29Z</time>
      </trkpt>
      <trkpt lat="45.28414" lon="5.79547">
        <ele>1537.7</ele>
        <time>2015-08-22T18:18:34Z</time>
      </trkpt>
      <trkpt lat="45.28413" lon="5.79546">
        <ele>1538.1</ele>
        <time>2015-08-22T18:18:35Z</time>
      </trkpt>
      <trkpt lat="45.28413" lon="5.79544">
        <ele>1538.6</ele>
        <time>2015-08-22T18:18:36Z</time>
      </trkpt>
      <trkpt lat="45.28412" lon="5.79541">
        <ele>1539.7</ele>
        <time>2015-08-22T18:18:39Z</time>
      </trkpt>
      <trkpt lat="45.28411" lon="5.7954">
        <ele>1540.1</ele>
        <time>2015-08-22T18:18:41Z</time>
      </trkpt>
      <trkpt lat="45.2841" lon="5.79537">
        <ele>1541.3</ele>
        <time>2015-08-22T18:18:45Z</time>
      </trkpt>
      <trkpt lat="45.2841" lon="5.79534">
        <ele>1542.3</ele>
        <time>2015-08-22T18:18:47Z</time>
      </trkpt>
      <trkpt lat="45.28409" lon="5.79525">
        <ele>1544.9</ele>
        <time>2015-08-22T18:18:53Z</time>
      </trkpt>
      <trkpt lat="45.28407" lon="5.79523">
        <ele>1545.7</ele>
        <time>2015-08-22T18:18:56Z</time>
      </trkpt>
      <trkpt lat="45.28408" lon="5.79522">
        <ele>1546</ele>
        <time>2015-08-22T18:18:59Z</time>
      </trkpt>
      <trkpt lat="45.28406" lon="5.79519">
        <ele>1547.2</ele>
        <time>2015-08-22T18:19:05Z</time>
      </trkpt>
      <trkpt lat="45.28408" lon="5.79514">
        <ele>1548.4</ele>
        <time>2015-08-22T18:19:11Z</time>
      </trkpt>
      <trkpt lat="45.28408" lon="5.79511">
        <ele>1549.2</ele>
        <time>2015-08-22T18:19:17Z</time>
      </trkpt>
      <trkpt lat="45.28405" lon="5.79506">
        <ele>1551</ele>
        <time>2015-08-22T18:19:22Z</time>
      </trkpt>
      <trkpt lat="45.28405" lon="5.79501">
        <ele>1552.6</ele>
        <time>2015-08-22T18:19:26Z</time>
      </trkpt>
      <trkpt lat="45.28406" lon="5.795">
        <ele>1552.8</ele>
        <time>2015-08-22T18:19:28Z</time>
      </trkpt>
      <trkpt lat="45.28407" lon="5.79499">
        <ele>1553</ele>
        <time>2015-08-22T18:19:30Z</time>
      </trkpt>
      <trkpt lat="45.28408" lon="5.79496">
        <ele>1553.8</ele>
        <time>2015-08-22T18:19:34Z</time>
      </trkpt>
      <trkpt lat="45.28408" lon="5.79494">
        <ele>1554.4</ele>
        <time>2015-08-22T18:19:36Z</time>
      </trkpt>
      <trkpt lat="45.28409" lon="5.79488">
        <ele>1556.1</ele>
        <time>2015-08-22T18:19:41Z</time>
      </trkpt>
      <trkpt lat="45.2841" lon="5.79484">
        <ele>1557.2</ele>
        <time>2015-08-22T18:19:46Z</time>
      </trkpt>
      <trkpt lat="45.28409" lon="5.79481">
        <ele>1558.2</ele>
        <time>2015-08-22T18:19:50Z</time>
      </trkpt>
      <trkpt lat="45.28408" lon="5.79479">
        <ele>1559</ele>
        <time>2015-08-22T18:19:53Z</time>
      </trkpt>
      <trkpt lat="45.28408" lon="5.79475">
        <ele>1560.2</ele>
        <time>2015-08-22T18:19:55Z</time>
      </trkpt>
      <trkpt lat="45.28409" lon="5.79468">
        <ele>1562.2</ele>
        <time>2015-08-22T18:19:58Z</time>
      </trkpt>
      <trkpt lat="45.28409" lon="5.79463">
        <ele>1563.8</ele>
        <time>2015-08-22T18:20:02Z</time>
      </trkpt>
      <trkpt lat="45.2841" lon="5.79455">
        <ele>1566.8</ele>
        <time>2015-08-22T18:20:06Z</time>
      </trkpt>
      <trkpt lat="45.2841" lon="5.79451">
        <ele>1568.8</ele>
        <time>2015-08-22T18:20:09Z</time>
      </trkpt>
      <trkpt lat="45.28411" lon="5.79443">
        <ele>1572.4</ele>
        <time>2015-08-22T18:20:14Z</time>
      </trkpt>
      <trkpt lat="45.28411" lon="5.79439">
        <ele>1574.3</ele>
        <time>2015-08-22T18:20:17Z</time>
      </trkpt>
      <trkpt lat="45.28411" lon="5.79437">
        <ele>1575.4</ele>
        <time>2015-08-22T18:20:19Z</time>
      </trkpt>
      <trkpt lat="45.28411" lon="5.7943">
        <ele>1578.5</ele>
        <time>2015-08-22T18:20:24Z</time>
      </trkpt>
      <trkpt lat="45.28409" lon="5.79428">
        <ele>1579.7</ele>
        <time>2015-08-22T18:20:27Z</time>
      </trkpt>
      <trkpt lat="45.28408" lon="5.79426">
        <ele>1580.6</ele>
        <time>2015-08-22T18:20:28Z</time>
      </trkpt>
      <trkpt lat="45.28406" lon="5.79418">
        <ele>1584.2</ele>
        <time>2015-08-22T18:20:31Z</time>
      </trkpt>
      <trkpt lat="45.28402" lon="5.79414">
        <ele>1585.9</ele>
        <time>2015-08-22T18:20:35Z</time>
      </trkpt>
      <trkpt lat="45.28402" lon="5.79413">
        <ele>1586.6</ele>
        <time>2015-08-22T18:20:36Z</time>
      </trkpt>
      <trkpt lat="45.28398" lon="5.79409">
        <ele>1588</ele>
        <time>2015-08-22T18:20:40Z</time>
      </trkpt>
      <trkpt lat="45.28393" lon="5.79403">
        <ele>1590.3</ele>
        <time>2015-08-22T18:20:46Z</time>
      </trkpt>
      <trkpt lat="45.2839" lon="5.79402">
        <ele>1590.5</ele>
        <time>2015-08-22T18:20:48Z</time>
      </trkpt>
      <trkpt lat="45.28389" lon="5.79401">
        <ele>1591</ele>
        <time>2015-08-22T18:20:49Z</time>
      </trkpt>
      <trkpt lat="45.28387" lon="5.79398">
        <ele>1592.2</ele>
        <time>2015-08-22T18:20:52Z</time>
      </trkpt>
      <trkpt lat="45.28382" lon="5.79394">
        <ele>1593.5</ele>
        <time>2015-08-22T18:20:57Z</time>
      </trkpt>
      <trkpt lat="45.28379" lon="5.7939">
        <ele>1594.7</ele>
        <time>2015-08-22T18:21:03Z</time>
      </trkpt>
      <trkpt lat="45.28376" lon="5.79389">
        <ele>1594.8</ele>
        <time>2015-08-22T18:21:06Z</time>
      </trkpt>
      <trkpt lat="45.28376" lon="5.79388">
        <ele>1595.1</ele>
        <time>2015-08-22T18:21:07Z</time>
      </trkpt>
      <trkpt lat="45.28373" lon="5.79386">
        <ele>1595.6</ele>
        <time>2015-08-22T18:21:10Z</time>
      </trkpt>
      <trkpt lat="45.28371" lon="5.79384">
        <ele>1595.9</ele>
        <time>2015-08-22T18:21:13Z</time>
      </trkpt>
      <trkpt lat="45.2837" lon="5.79384">
        <ele>1596</ele>
        <time>2015-08-22T18:21:14Z</time>
      </trkpt>
      <trkpt lat="45.28367" lon="5.79383">
        <ele>1596.2</ele>
        <time>2015-08-22T18:21:19Z</time>
      </trkpt>
      <trkpt lat="45.28364" lon="5.79382">
        <ele>1596.2</ele>
        <time>2015-08-22T18:21:25Z</time>
      </trkpt>
      <trkpt lat="45.28357" lon="5.79385">
        <ele>1594.3</ele>
        <time>2015-08-22T18:21:33Z</time>
      </trkpt>
      <trkpt lat="45.28352" lon="5.79389">
        <ele>1592.5</ele>
        <time>2015-08-22T18:21:39Z</time>
      </trkpt>
      <trkpt lat="45.28351" lon="5.7939">
        <ele>1591.9</ele>
        <time>2015-08-22T18:21:40Z</time>
      </trkpt>
      <trkpt lat="45.28347" lon="5.79396">
        <ele>1589.2</ele>
        <time>2015-08-22T18:21:46Z</time>
      </trkpt>
      <trkpt lat="45.28346" lon="5.79396">
        <ele>1589</ele>
        <time>2015-08-22T18:21:47Z</time>
      </trkpt>
      <trkpt lat="45.28339" lon="5.79399">
        <ele>1587.6</ele>
        <time>2015-08-22T18:21:53Z</time>
      </trkpt>
      <trkpt lat="45.28336" lon="5.79399">
        <ele>1587</ele>
        <time>2015-08-22T18:21:56Z</time>
      </trkpt>
      <trkpt lat="45.28335" lon="5.794">
        <ele>1586.5</ele>
        <time>2015-08-22T18:21:58Z</time>
      </trkpt>
      <trkpt lat="45.2833" lon="5.79399">
        <ele>1586.5</ele>
        <time>2015-08-22T18:22:03Z</time>
      </trkpt>
      <trkpt lat="45.2833" lon="5.79399">
        <ele>1586.5</ele>
        <time>2015-08-22T18:22:04Z</time>
      </trkpt>
      <trkpt lat="45.28328" lon="5.794">
        <ele>1585.9</ele>
        <time>2015-08-22T18:22:06Z</time>
      </trkpt>
      <trkpt lat="45.28326" lon="5.79402">
        <ele>1585.1</ele>
        <time>2015-08-22T18:22:08Z</time>
      </trkpt>
      <trkpt lat="45.28323" lon="5.79403">
        <ele>1584.3</ele>
        <time>2015-08-22T18:22:11Z</time>
      </trkpt>
      <trkpt lat="45.28322" lon="5.79403">
        <ele>1584.3</ele>
        <time>2015-08-22T18:22:14Z</time>
      </trkpt>
      <trkpt lat="45.28321" lon="5.79403">
        <ele>1584.3</ele>
        <time>2015-08-22T18:22:15Z</time>
      </trkpt>
      <trkpt lat="45.28317" lon="5.79401">
        <ele>1584.5</ele>
        <time>2015-08-22T18:22:19Z</time>
      </trkpt>
      <trkpt lat="45.28317" lon="5.79401">
        <ele>1584.4</ele>
        <time>2015-08-22T18:22:20Z</time>
      </trkpt>
      <trkpt lat="45.28316" lon="5.794">
        <ele>1585</ele>
        <time>2015-08-22T18:22:21Z</time>
      </trkpt>
      <trkpt lat="45.28315" lon="5.79398">
        <ele>1585.3</ele>
        <time>2015-08-22T18:22:23Z</time>
      </trkpt>
      <trkpt lat="45.28311" lon="5.79396">
        <ele>1586</ele>
        <time>2015-08-22T18:22:28Z</time>
      </trkpt>
      <trkpt lat="45.28306" lon="5.79391">
        <ele>1587.1</ele>
        <time>2015-08-22T18:22:34Z</time>
      </trkpt>
      <trkpt lat="45.28303" lon="5.79389">
        <ele>1587.5</ele>
        <time>2015-08-22T18:22:37Z</time>
      </trkpt>
      <trkpt lat="45.28299" lon="5.79386">
        <ele>1588.1</ele>
        <time>2015-08-22T18:22:41Z</time>
      </trkpt>
      <trkpt lat="45.28296" lon="5.79382">
        <ele>1589.2</ele>
        <time>2015-08-22T18:22:46Z</time>
      </trkpt>
      <trkpt lat="45.28294" lon="5.7938">
        <ele>1589.7</ele>
        <time>2015-08-22T18:22:48Z</time>
      </trkpt>
      <trkpt lat="45.28291" lon="5.79377">
        <ele>1590.2</ele>
        <time>2015-08-22T18:22:51Z</time>
      </trkpt>
      <trkpt lat="45.28287" lon="5.79373">
        <ele>1590.8</ele>
        <time>2015-08-22T18:22:55Z</time>
      </trkpt>
      <trkpt lat="45.28278" lon="5.79367">
        <ele>1590.8</ele>
        <time>2015-08-22T18:23:01Z</time>
      </trkpt>
      <trkpt lat="45.28271" lon="5.79362">
        <ele>1590.8</ele>
        <time>2015-08-22T18:23:07Z</time>
      </trkpt>
      <trkpt lat="45.28263" lon="5.79356">
        <ele>1591.1</ele>
        <time>2015-08-22T18:23:13Z</time>
      </trkpt>
      <trkpt lat="45.28254" lon="5.7935">
        <ele>1591.1</ele>
        <time>2015-08-22T18:23:20Z</time>
      </trkpt>
      <trkpt lat="45.28248" lon="5.79345">
        <ele>1591.2</ele>
        <time>2015-08-22T18:23:26Z</time>
      </trkpt>
      <trkpt lat="45.28242" lon="5.7934">
        <ele>1591.4</ele>
        <time>2015-08-22T18:23:33Z</time>
      </trkpt>
      <trkpt lat="45.28239" lon="5.7934">
        <ele>1590.8</ele>
        <time>2015-08-22T18:23:35Z</time>
      </trkpt>
      <trkpt lat="45.28236" lon="5.79339">
        <ele>1590.5</ele>
        <time>2015-08-22T18:23:38Z</time>
      </trkpt>
      <trkpt lat="45.28234" lon="5.79337">
        <ele>1590.4</ele>
        <time>2015-08-22T18:23:41Z</time>
      </trkpt>
      <trkpt lat="45.28233" lon="5.79335">
        <ele>1590.8</ele>
        <time>2015-08-22T18:23:42Z</time>
      </trkpt>
      <trkpt lat="45.28231" lon="5.79329">
        <ele>1592.2</ele>
        <time>2015-08-22T18:23:46Z</time>
      </trkpt>
      <trkpt lat="45.28225" lon="5.79323">
        <ele>1592.5</ele>
        <time>2015-08-22T18:23:53Z</time>
      </trkpt>
      <trkpt lat="45.28224" lon="5.7932">
        <ele>1593.2</ele>
        <time>2015-08-22T18:23:55Z</time>
      </trkpt>
      <trkpt lat="45.28222" lon="5.79317">
        <ele>1593.6</ele>
        <time>2015-08-22T18:23:57Z</time>
      </trkpt>
      <trkpt lat="45.28214" lon="5.79313">
        <ele>1592.8</ele>
        <time>2015-08-22T18:24:02Z</time>
      </trkpt>
      <trkpt lat="45.28212" lon="5.7931">
        <ele>1593.1</ele>
        <time>2015-08-22T18:24:04Z</time>
      </trkpt>
      <trkpt lat="45.28211" lon="5.79305">
        <ele>1594.2</ele>
        <time>2015-08-22T18:24:07Z</time>
      </trkpt>
      <trkpt lat="45.28212" lon="5.79304">
        <ele>1594.7</ele>
        <time>2015-08-22T18:24:08Z</time>
      </trkpt>
      <trkpt lat="45.28211" lon="5.79302">
        <ele>1595</ele>
        <time>2015-08-22T18:24:09Z</time>
      </trkpt>
      <trkpt lat="45.28209" lon="5.79298">
        <ele>1595.5</ele>
        <time>2015-08-22T18:24:11Z</time>
      </trkpt>
      <trkpt lat="45.28204" lon="5.79292">
        <ele>1596.3</ele>
        <time>2015-08-22T18:24:16Z</time>
      </trkpt>
      <trkpt lat="45.28197" lon="5.79288">
        <ele>1596.6</ele>
        <time>2015-08-22T18:24:21Z</time>
      </trkpt>
      <trkpt lat="45.28195" lon="5.79286">
        <ele>1596.6</ele>
        <time>2015-08-22T18:24:23Z</time>
      </trkpt>
      <trkpt lat="45.28194" lon="5.79282">
        <ele>1597.7</ele>
        <time>2015-08-22T18:24:26Z</time>
      </trkpt>
      <trkpt lat="45.28193" lon="5.79281">
        <ele>1598</ele>
        <time>2015-08-22T18:24:27Z</time>
      </trkpt>
      <trkpt lat="45.28191" lon="5.79278">
        <ele>1598.5</ele>
        <time>2015-08-22T18:24:29Z</time>
      </trkpt>
      <trkpt lat="45.28188" lon="5.79275">
        <ele>1598.7</ele>
        <time>2015-08-22T18:24:32Z</time>
      </trkpt>
      <trkpt lat="45.28181" lon="5.79271">
        <ele>1599.1</ele>
        <time>2015-08-22T18:24:39Z</time>
      </trkpt>
      <trkpt lat="45.28177" lon="5.79258">
        <ele>1602.1</ele>
        <time>2015-08-22T18:24:44Z</time>
      </trkpt>
      <trkpt lat="45.28175" lon="5.79256">
        <ele>1602.6</ele>
        <time>2015-08-22T18:24:46Z</time>
      </trkpt>
      <trkpt lat="45.28172" lon="5.79255">
        <ele>1602.4</ele>
        <time>2015-08-22T18:24:50Z</time>
      </trkpt>
      <trkpt lat="45.28166" lon="5.7925">
        <ele>1602.9</ele>
        <time>2015-08-22T18:24:54Z</time>
      </trkpt>
      <trkpt lat="45.28162" lon="5.79253">
        <ele>1601.6</ele>
        <time>2015-08-22T18:24:56Z</time>
      </trkpt>
      <trkpt lat="45.28159" lon="5.79252">
        <ele>1601.4</ele>
        <time>2015-08-22T18:24:57Z</time>
      </trkpt>
      <trkpt lat="45.28158" lon="5.79251">
        <ele>1601.4</ele>
        <time>2015-08-22T18:24:58Z</time>
      </trkpt>
      <trkpt lat="45.28151" lon="5.7925">
        <ele>1600.7</ele>
        <time>2015-08-22T18:25:02Z</time>
      </trkpt>
      <trkpt lat="45.28145" lon="5.79248">
        <ele>1600.3</ele>
        <time>2015-08-22T18:25:05Z</time>
      </trkpt>
      <trkpt lat="45.28135" lon="5.79246">
        <ele>1599.6</ele>
        <time>2015-08-22T18:25:09Z</time>
      </trkpt>
      <trkpt lat="45.28125" lon="5.79244">
        <ele>1598.8</ele>
        <time>2015-08-22T18:25:15Z</time>
      </trkpt>
      <trkpt lat="45.28119" lon="5.79241">
        <ele>1597.8</ele>
        <time>2015-08-22T18:25:20Z</time>
      </trkpt>
      <trkpt lat="45.28117" lon="5.79238">
        <ele>1598.2</ele>
        <time>2015-08-22T18:25:22Z</time>
      </trkpt>
      <trkpt lat="45.2811" lon="5.79233">
        <ele>1597.6</ele>
        <time>2015-08-22T18:25:26Z</time>
      </trkpt>
      <trkpt lat="45.28108" lon="5.79232">
        <ele>1597.2</ele>
        <time>2015-08-22T18:25:27Z</time>
      </trkpt>
      <trkpt lat="45.28098" lon="5.79225">
        <ele>1596.3</ele>
        <time>2015-08-22T18:25:34Z</time>
      </trkpt>
      <trkpt lat="45.28089" lon="5.79218">
        <ele>1595.4</ele>
        <time>2015-08-22T18:25:40Z</time>
      </trkpt>
      <trkpt lat="45.28078" lon="5.79214">
        <ele>1593.1</ele>
        <time>2015-08-22T18:25:47Z</time>
      </trkpt>
      <trkpt lat="45.2807" lon="5.79208">
        <ele>1591.9</ele>
        <time>2015-08-22T18:25:53Z</time>
      </trkpt>
      <trkpt lat="45.28059" lon="5.79206">
        <ele>1588.5</ele>
        <time>2015-08-22T18:26:00Z</time>
      </trkpt>
      <trkpt lat="45.28048" lon="5.79198">
        <ele>1584.9</ele>
        <time>2015-08-22T18:26:08Z</time>
      </trkpt>
      <trkpt lat="45.28043" lon="5.7919">
        <ele>1582.6</ele>
        <time>2015-08-22T18:26:14Z</time>
      </trkpt>
      <trkpt lat="45.28039" lon="5.79187">
        <ele>1580.8</ele>
        <time>2015-08-22T18:26:18Z</time>
      </trkpt>
      <trkpt lat="45.28036" lon="5.79186">
        <ele>1579.6</ele>
        <time>2015-08-22T18:26:20Z</time>
      </trkpt>
      <trkpt lat="45.28029" lon="5.79182">
        <ele>1576.1</ele>
        <time>2015-08-22T18:26:27Z</time>
      </trkpt>
      <trkpt lat="45.28024" lon="5.79188">
        <ele>1573.7</ele>
        <time>2015-08-22T18:26:33Z</time>
      </trkpt>
      <trkpt lat="45.28017" lon="5.79192">
        <ele>1571</ele>
        <time>2015-08-22T18:26:39Z</time>
      </trkpt>
      <trkpt lat="45.28013" lon="5.79195">
        <ele>1569.3</ele>
        <time>2015-08-22T18:26:43Z</time>
      </trkpt>
      <trkpt lat="45.28011" lon="5.79198">
        <ele>1568.4</ele>
        <time>2015-08-22T18:26:46Z</time>
      </trkpt>
      <trkpt lat="45.28007" lon="5.79208">
        <ele>1567.1</ele>
        <time>2015-08-22T18:26:53Z</time>
      </trkpt>
      <trkpt lat="45.28004" lon="5.79215">
        <ele>1565.3</ele>
        <time>2015-08-22T18:26:58Z</time>
      </trkpt>
      <trkpt lat="45.28001" lon="5.79224">
        <ele>1563.1</ele>
        <time>2015-08-22T18:27:04Z</time>
      </trkpt>
      <trkpt lat="45.27996" lon="5.79234">
        <ele>1560.5</ele>
        <time>2015-08-22T18:27:11Z</time>
      </trkpt>
      <trkpt lat="45.27991" lon="5.7924">
        <ele>1558.5</ele>
        <time>2015-08-22T18:27:17Z</time>
      </trkpt>
      <trkpt lat="45.27991" lon="5.7924">
        <ele>1558.5</ele>
        <time>2015-08-22T18:27:18Z</time>
      </trkpt>
      <trkpt lat="45.27986" lon="5.79242">
        <ele>1556.7</ele>
        <time>2015-08-22T18:27:26Z</time>
      </trkpt>
      <trkpt lat="45.27986" lon="5.79243">
        <ele>1556.4</ele>
        <time>2015-08-22T18:27:28Z</time>
      </trkpt>
      <trkpt lat="45.27987" lon="5.79245">
        <ele>1556.7</ele>
        <time>2015-08-22T18:27:31Z</time>
      </trkpt>
      <trkpt lat="45.27986" lon="5.79247">
        <ele>1556.5</ele>
        <time>2015-08-22T18:27:41Z</time>
      </trkpt>
      <trkpt lat="45.27985" lon="5.79248">
        <ele>1555.9</ele>
        <time>2015-08-22T18:28:02Z</time>
      </trkpt>
      <trkpt lat="45.27984" lon="5.79244">
        <ele>1555.8</ele>
        <time>2015-08-22T18:28:19Z</time>
      </trkpt>
      <trkpt lat="45.27985" lon="5.79249">
        <ele>1556.1</ele>
        <time>2015-08-22T18:29:07Z</time>
      </trkpt>
      <trkpt lat="45.27984" lon="5.79247">
        <ele>1555.7</ele>
        <time>2015-08-22T18:29:13Z</time>
      </trkpt>
      <trkpt lat="45.27989" lon="5.79244">
        <ele>1557.5</ele>
        <time>2015-08-22T18:30:10Z</time>
      </trkpt>
      <trkpt lat="45.27992" lon="5.79247">
        <ele>1558.5</ele>
        <time>2015-08-22T18:30:18Z</time>
      </trkpt>
      <trkpt lat="45.27987" lon="5.79249">
        <ele>1556.7</ele>
        <time>2015-08-22T18:32:31Z</time>
      </trkpt>
      <trkpt lat="45.27988" lon="5.79247">
        <ele>1557.3</ele>
        <time>2015-08-22T18:32:43Z</time>
      </trkpt>
      <trkpt lat="45.27986" lon="5.79254">
        <ele>1556.2</ele>
        <time>2015-08-22T18:35:25Z</time>
      </trkpt>
      <trkpt lat="45.27984" lon="5.79248">
        <ele>1555.7</ele>
        <time>2015-08-22T18:36:03Z</time>
      </trkpt>
      <trkpt lat="45.27984" lon="5.79246">
        <ele>1555.7</ele>
        <time>2015-08-22T18:36:46Z</time>
      </trkpt>
      <trkpt lat="45.27985" lon="5.79244">
        <ele>1556.1</ele>
        <time>2015-08-22T18:37:10Z</time>
      </trkpt>
      <trkpt lat="45.27984" lon="5.79251">
        <ele>1555.5</ele>
        <time>2015-08-22T18:39:37Z</time>
      </trkpt>
      <trkpt lat="45.27986" lon="5.79242">
        <ele>1556.7</ele>
        <time>2015-08-22T18:41:42Z</time>
      </trkpt>
      <trkpt lat="45.27988" lon="5.79246">
        <ele>1557.1</ele>
        <time>2015-08-22T18:42:41Z</time>
      </trkpt>
      <trkpt lat="45.27985" lon="5.79245">
        <ele>1556</ele>
        <time>2015-08-22T18:42:49Z</time>
      </trkpt>
      <trkpt lat="45.27983" lon="5.79246">
        <ele>1555.3</ele>
        <time>2015-08-22T18:42:54Z</time>
      </trkpt>
      <trkpt lat="45.27982" lon="5.79243">
        <ele>1554.9</ele>
        <time>2015-08-22T18:42:56Z</time>
      </trkpt>
      <trkpt lat="45.2798" lon="5.79239">
        <ele>1554.6</ele>
        <time>2015-08-22T18:42:58Z</time>
      </trkpt>
      <trkpt lat="45.27982" lon="5.79237">
        <ele>1555.3</ele>
        <time>2015-08-22T18:43:00Z</time>
      </trkpt>
      <trkpt lat="45.27982" lon="5.79229">
        <ele>1555.4</ele>
        <time>2015-08-22T18:43:08Z</time>
      </trkpt>
      <trkpt lat="45.27982" lon="5.79226">
        <ele>1555.4</ele>
        <time>2015-08-22T18:43:11Z</time>
      </trkpt>
      <trkpt lat="45.27983" lon="5.79222">
        <ele>1556</ele>
        <time>2015-08-22T18:43:14Z</time>
      </trkpt>
      <trkpt lat="45.27983" lon="5.79215">
        <ele>1556.2</ele>
        <time>2015-08-22T18:43:18Z</time>
      </trkpt>
      <trkpt lat="45.27984" lon="5.79213">
        <ele>1556.8</ele>
        <time>2015-08-22T18:43:20Z</time>
      </trkpt>
      <trkpt lat="45.27985" lon="5.79206">
        <ele>1556.8</ele>
        <time>2015-08-22T18:43:24Z</time>
      </trkpt>
      <trkpt lat="45.27985" lon="5.79201">
        <ele>1556.4</ele>
        <time>2015-08-22T18:43:27Z</time>
      </trkpt>
      <trkpt lat="45.27987" lon="5.79191">
        <ele>1556.6</ele>
        <time>2015-08-22T18:43:34Z</time>
      </trkpt>
      <trkpt lat="45.2799" lon="5.79184">
        <ele>1557.7</ele>
        <time>2015-08-22T18:43:40Z</time>
      </trkpt>
      <trkpt lat="45.27995" lon="5.79176">
        <ele>1559.5</ele>
        <time>2015-08-22T18:43:48Z</time>
      </trkpt>
      <trkpt lat="45.27998" lon="5.7917">
        <ele>1560.7</ele>
        <time>2015-08-22T18:43:54Z</time>
      </trkpt>
      <trkpt lat="45.28001" lon="5.79166">
        <ele>1561.7</ele>
        <time>2015-08-22T18:43:59Z</time>
      </trkpt>
      <trkpt lat="45.28005" lon="5.79159">
        <ele>1563</ele>
        <time>2015-08-22T18:44:06Z</time>
      </trkpt>
      <trkpt lat="45.28006" lon="5.79156">
        <ele>1563.6</ele>
        <time>2015-08-22T18:44:10Z</time>
      </trkpt>
      <trkpt lat="45.28007" lon="5.79154">
        <ele>1564.1</ele>
        <time>2015-08-22T18:44:12Z</time>
      </trkpt>
      <trkpt lat="45.2801" lon="5.79149">
        <ele>1565.1</ele>
        <time>2015-08-22T18:44:18Z</time>
      </trkpt>
      <trkpt lat="45.28014" lon="5.79144">
        <ele>1566.7</ele>
        <time>2015-08-22T18:44:24Z</time>
      </trkpt>
      <trkpt lat="45.28018" lon="5.79138">
        <ele>1568.5</ele>
        <time>2015-08-22T18:44:31Z</time>
      </trkpt>
      <trkpt lat="45.28022" lon="5.79132">
        <ele>1570.1</ele>
        <time>2015-08-22T18:44:38Z</time>
      </trkpt>
      <trkpt lat="45.28026" lon="5.79126">
        <ele>1572.2</ele>
        <time>2015-08-22T18:44:45Z</time>
      </trkpt>
      <trkpt lat="45.28031" lon="5.79118">
        <ele>1573.7</ele>
        <time>2015-08-22T18:44:52Z</time>
      </trkpt>
      <trkpt lat="45.28033" lon="5.79111">
        <ele>1573.9</ele>
        <time>2015-08-22T18:44:57Z</time>
      </trkpt>
      <trkpt lat="45.28032" lon="5.7911">
        <ele>1573.4</ele>
        <time>2015-08-22T18:44:58Z</time>
      </trkpt>
      <trkpt lat="45.28033" lon="5.79106">
        <ele>1573.7</ele>
        <time>2015-08-22T18:45:01Z</time>
      </trkpt>
      <trkpt lat="45.28034" lon="5.79101">
        <ele>1573.7</ele>
        <time>2015-08-22T18:45:04Z</time>
      </trkpt>
      <trkpt lat="45.28037" lon="5.79093">
        <ele>1574.1</ele>
        <time>2015-08-22T18:45:10Z</time>
      </trkpt>
      <trkpt lat="45.28038" lon="5.79088">
        <ele>1574.3</ele>
        <time>2015-08-22T18:45:13Z</time>
      </trkpt>
      <trkpt lat="45.28039" lon="5.79083">
        <ele>1574.5</ele>
        <time>2015-08-22T18:45:17Z</time>
      </trkpt>
      <trkpt lat="45.28042" lon="5.79072">
        <ele>1574.9</ele>
        <time>2015-08-22T18:45:24Z</time>
      </trkpt>
      <trkpt lat="45.28043" lon="5.79066">
        <ele>1575.4</ele>
        <time>2015-08-22T18:45:28Z</time>
      </trkpt>
      <trkpt lat="45.28044" lon="5.79062">
        <ele>1575.8</ele>
        <time>2015-08-22T18:45:31Z</time>
      </trkpt>
      <trkpt lat="45.28047" lon="5.79055">
        <ele>1577.4</ele>
        <time>2015-08-22T18:45:37Z</time>
      </trkpt>
      <trkpt lat="45.28049" lon="5.79044">
        <ele>1577.9</ele>
        <time>2015-08-22T18:45:45Z</time>
      </trkpt>
      <trkpt lat="45.2805" lon="5.79043">
        <ele>1578.4</ele>
        <time>2015-08-22T18:45:46Z</time>
      </trkpt>
      <trkpt lat="45.28051" lon="5.7904">
        <ele>1579.3</ele>
        <time>2015-08-22T18:45:48Z</time>
      </trkpt>
      <trkpt lat="45.28052" lon="5.79037">
        <ele>1580</ele>
        <time>2015-08-22T18:45:50Z</time>
      </trkpt>
      <trkpt lat="45.28053" lon="5.79035">
        <ele>1580.8</ele>
        <time>2015-08-22T18:45:52Z</time>
      </trkpt>
      <trkpt lat="45.28055" lon="5.79026">
        <ele>1583.4</ele>
        <time>2015-08-22T18:45:57Z</time>
      </trkpt>
      <trkpt lat="45.28057" lon="5.79021">
        <ele>1585.3</ele>
        <time>2015-08-22T18:46:03Z</time>
      </trkpt>
      <trkpt lat="45.28058" lon="5.79021">
        <ele>1585.6</ele>
        <time>2015-08-22T18:46:04Z</time>
      </trkpt>
      <trkpt lat="45.28061" lon="5.79006">
        <ele>1589.1</ele>
        <time>2015-08-22T18:46:13Z</time>
      </trkpt>
      <trkpt lat="45.28062" lon="5.79005">
        <ele>1589.7</ele>
        <time>2015-08-22T18:46:14Z</time>
      </trkpt>
      <trkpt lat="45.28062" lon="5.79004">
        <ele>1589.7</ele>
        <time>2015-08-22T18:46:15Z</time>
      </trkpt>
      <trkpt lat="45.28065" lon="5.78997">
        <ele>1592.2</ele>
        <time>2015-08-22T18:46:19Z</time>
      </trkpt>
      <trkpt lat="45.28066" lon="5.78995">
        <ele>1592.9</ele>
        <time>2015-08-22T18:46:20Z</time>
      </trkpt>
      <trkpt lat="45.28066" lon="5.78983">
        <ele>1594</ele>
        <time>2015-08-22T18:46:26Z</time>
      </trkpt>
      <trkpt lat="45.28068" lon="5.78976">
        <ele>1595.4</ele>
        <time>2015-08-22T18:46:29Z</time>
      </trkpt>
      <trkpt lat="45.2807" lon="5.7897">
        <ele>1597</ele>
        <time>2015-08-22T18:46:33Z</time>
      </trkpt>
      <trkpt lat="45.28074" lon="5.78961">
        <ele>1600</ele>
        <time>2015-08-22T18:46:40Z</time>
      </trkpt>
      <trkpt lat="45.28074" lon="5.78957">
        <ele>1600.4</ele>
        <time>2015-08-22T18:46:42Z</time>
      </trkpt>
      <trkpt lat="45.28075" lon="5.7895">
        <ele>1602.3</ele>
        <time>2015-08-22T18:46:45Z</time>
      </trkpt>
      <trkpt lat="45.28077" lon="5.78943">
        <ele>1605.1</ele>
        <time>2015-08-22T18:46:50Z</time>
      </trkpt>
      <trkpt lat="45.28077" lon="5.78941">
        <ele>1605.8</ele>
        <time>2015-08-22T18:46:51Z</time>
      </trkpt>
      <trkpt lat="45.28079" lon="5.78934">
        <ele>1608.3</ele>
        <time>2015-08-22T18:46:56Z</time>
      </trkpt>
      <trkpt lat="45.2808" lon="5.78933">
        <ele>1609.2</ele>
        <time>2015-08-22T18:46:57Z</time>
      </trkpt>
      <trkpt lat="45.2808" lon="5.78927">
        <ele>1610.7</ele>
        <time>2015-08-22T18:47:00Z</time>
      </trkpt>
      <trkpt lat="45.2808" lon="5.78923">
        <ele>1611.3</ele>
        <time>2015-08-22T18:47:02Z</time>
      </trkpt>
      <trkpt lat="45.28085" lon="5.78916">
        <ele>1615.3</ele>
        <time>2015-08-22T18:47:07Z</time>
      </trkpt>
      <trkpt lat="45.28086" lon="5.78912">
        <ele>1617.2</ele>
        <time>2015-08-22T18:47:10Z</time>
      </trkpt>
      <trkpt lat="45.28088" lon="5.78907">
        <ele>1619.1</ele>
        <time>2015-08-22T18:47:13Z</time>
      </trkpt>
      <trkpt lat="45.28094" lon="5.78899">
        <ele>1624.5</ele>
        <time>2015-08-22T18:47:20Z</time>
      </trkpt>
      <trkpt lat="45.28098" lon="5.7889">
        <ele>1628.2</ele>
        <time>2015-08-22T18:47:26Z</time>
      </trkpt>
      <trkpt lat="45.28097" lon="5.78887">
        <ele>1628.6</ele>
        <time>2015-08-22T18:47:27Z</time>
      </trkpt>
      <trkpt lat="45.28092" lon="5.78883">
        <ele>1626.7</ele>
        <time>2015-08-22T18:47:31Z</time>
      </trkpt>
      <trkpt lat="45.28088" lon="5.78883">
        <ele>1624.1</ele>
        <time>2015-08-22T18:47:34Z</time>
      </trkpt>
      <trkpt lat="45.28084" lon="5.78881">
        <ele>1622.5</ele>
        <time>2015-08-22T18:47:37Z</time>
      </trkpt>
      <trkpt lat="45.28082" lon="5.78877">
        <ele>1622.3</ele>
        <time>2015-08-22T18:47:39Z</time>
      </trkpt>
      <trkpt lat="45.28077" lon="5.78873">
        <ele>1620.4</ele>
        <time>2015-08-22T18:47:43Z</time>
      </trkpt>
      <trkpt lat="45.2807" lon="5.78863">
        <ele>1617.2</ele>
        <time>2015-08-22T18:47:49Z</time>
      </trkpt>
      <trkpt lat="45.28065" lon="5.78851">
        <ele>1615.5</ele>
        <time>2015-08-22T18:47:56Z</time>
      </trkpt>
      <trkpt lat="45.28059" lon="5.78845">
        <ele>1612.3</ele>
        <time>2015-08-22T18:48:01Z</time>
      </trkpt>
      <trkpt lat="45.28055" lon="5.78839">
        <ele>1610.4</ele>
        <time>2015-08-22T18:48:05Z</time>
      </trkpt>
      <trkpt lat="45.28054" lon="5.78838">
        <ele>1609.3</ele>
        <time>2015-08-22T18:48:06Z</time>
      </trkpt>
      <trkpt lat="45.28053" lon="5.78837">
        <ele>1608.9</ele>
        <time>2015-08-22T18:48:07Z</time>
      </trkpt>
      <trkpt lat="45.28051" lon="5.78819">
        <ele>1608.8</ele>
        <time>2015-08-22T18:48:13Z</time>
      </trkpt>
      <trkpt lat="45.2805" lon="5.78807">
        <ele>1608.7</ele>
        <time>2015-08-22T18:48:19Z</time>
      </trkpt>
      <trkpt lat="45.2805" lon="5.78804">
        <ele>1608.8</ele>
        <time>2015-08-22T18:48:20Z</time>
      </trkpt>
      <trkpt lat="45.28052" lon="5.78794">
        <ele>1610.7</ele>
        <time>2015-08-22T18:48:25Z</time>
      </trkpt>
      <trkpt lat="45.28052" lon="5.78792">
        <ele>1610.8</ele>
        <time>2015-08-22T18:48:26Z</time>
      </trkpt>
      <trkpt lat="45.28053" lon="5.78779">
        <ele>1611.6</ele>
        <time>2015-08-22T18:48:33Z</time>
      </trkpt>
      <trkpt lat="45.28053" lon="5.78777">
        <ele>1611.7</ele>
        <time>2015-08-22T18:48:34Z</time>
      </trkpt>
      <trkpt lat="45.28051" lon="5.78776">
        <ele>1611</ele>
        <time>2015-08-22T18:48:35Z</time>
      </trkpt>
      <trkpt lat="45.28051" lon="5.78773">
        <ele>1611.2</ele>
        <time>2015-08-22T18:48:37Z</time>
      </trkpt>
      <trkpt lat="45.28051" lon="5.78771">
        <ele>1611.2</ele>
        <time>2015-08-22T18:48:38Z</time>
      </trkpt>
      <trkpt lat="45.28051" lon="5.78764">
        <ele>1611.3</ele>
        <time>2015-08-22T18:48:41Z</time>
      </trkpt>
      <trkpt lat="45.2805" lon="5.78761">
        <ele>1610.9</ele>
        <time>2015-08-22T18:48:43Z</time>
      </trkpt>
      <trkpt lat="45.2805" lon="5.78757">
        <ele>1610.7</ele>
        <time>2015-08-22T18:48:45Z</time>
      </trkpt>
      <trkpt lat="45.28048" lon="5.78751">
        <ele>1610.3</ele>
        <time>2015-08-22T18:48:48Z</time>
      </trkpt>
      <trkpt lat="45.28047" lon="5.78743">
        <ele>1609.4</ele>
        <time>2015-08-22T18:48:51Z</time>
      </trkpt>
      <trkpt lat="45.28047" lon="5.78737">
        <ele>1609.6</ele>
        <time>2015-08-22T18:48:54Z</time>
      </trkpt>
      <trkpt lat="45.28046" lon="5.78728">
        <ele>1609.7</ele>
        <time>2015-08-22T18:48:59Z</time>
      </trkpt>
      <trkpt lat="45.28046" lon="5.78717">
        <ele>1610.2</ele>
        <time>2015-08-22T18:49:04Z</time>
      </trkpt>
      <trkpt lat="45.28044" lon="5.78711">
        <ele>1609.7</ele>
        <time>2015-08-22T18:49:07Z</time>
      </trkpt>
      <trkpt lat="45.28043" lon="5.78704">
        <ele>1609.7</ele>
        <time>2015-08-22T18:49:10Z</time>
      </trkpt>
      <trkpt lat="45.28041" lon="5.78692">
        <ele>1611</ele>
        <time>2015-08-22T18:49:16Z</time>
      </trkpt>
      <trkpt lat="45.28043" lon="5.78678">
        <ele>1614.7</ele>
        <time>2015-08-22T18:49:24Z</time>
      </trkpt>
      <trkpt lat="45.28043" lon="5.78674">
        <ele>1615.5</ele>
        <time>2015-08-22T18:49:27Z</time>
      </trkpt>
      <trkpt lat="45.28043" lon="5.78668">
        <ele>1616.5</ele>
        <time>2015-08-22T18:49:31Z</time>
      </trkpt>
      <trkpt lat="45.28041" lon="5.78663">
        <ele>1616.1</ele>
        <time>2015-08-22T18:49:34Z</time>
      </trkpt>
      <trkpt lat="45.28039" lon="5.78657">
        <ele>1616</ele>
        <time>2015-08-22T18:49:37Z</time>
      </trkpt>
      <trkpt lat="45.28035" lon="5.78645">
        <ele>1615.9</ele>
        <time>2015-08-22T18:49:43Z</time>
      </trkpt>
      <trkpt lat="45.28031" lon="5.78636">
        <ele>1614.7</ele>
        <time>2015-08-22T18:49:49Z</time>
      </trkpt>
      <trkpt lat="45.2803" lon="5.78634">
        <ele>1614.9</ele>
        <time>2015-08-22T18:49:50Z</time>
      </trkpt>
      <trkpt lat="45.28028" lon="5.78627">
        <ele>1615</ele>
        <time>2015-08-22T18:49:53Z</time>
      </trkpt>
      <trkpt lat="45.28026" lon="5.78621">
        <ele>1615.1</ele>
        <time>2015-08-22T18:49:56Z</time>
      </trkpt>
      <trkpt lat="45.28024" lon="5.78613">
        <ele>1615.7</ele>
        <time>2015-08-22T18:50:01Z</time>
      </trkpt>
      <trkpt lat="45.28024" lon="5.78607">
        <ele>1617.4</ele>
        <time>2015-08-22T18:50:03Z</time>
      </trkpt>
      <trkpt lat="45.28023" lon="5.78597">
        <ele>1619.4</ele>
        <time>2015-08-22T18:50:07Z</time>
      </trkpt>
      <trkpt lat="45.28019" lon="5.78592">
        <ele>1618.4</ele>
        <time>2015-08-22T18:50:10Z</time>
      </trkpt>
      <trkpt lat="45.28013" lon="5.78581">
        <ele>1617.1</ele>
        <time>2015-08-22T18:50:16Z</time>
      </trkpt>
      <trkpt lat="45.2801" lon="5.78573">
        <ele>1617.3</ele>
        <time>2015-08-22T18:50:20Z</time>
      </trkpt>
      <trkpt lat="45.28009" lon="5.78566">
        <ele>1618.5</ele>
        <time>2015-08-22T18:50:23Z</time>
      </trkpt>
      <trkpt lat="45.28007" lon="5.78562">
        <ele>1618.1</ele>
        <time>2015-08-22T18:50:25Z</time>
      </trkpt>
      <trkpt lat="45.28004" lon="5.78554">
        <ele>1618.9</ele>
        <time>2015-08-22T18:50:29Z</time>
      </trkpt>
      <trkpt lat="45.28001" lon="5.78544">
        <ele>1619.8</ele>
        <time>2015-08-22T18:50:35Z</time>
      </trkpt>
      <trkpt lat="45.28001" lon="5.78543">
        <ele>1619.6</ele>
        <time>2015-08-22T18:50:36Z</time>
      </trkpt>
      <trkpt lat="45.27998" lon="5.78538">
        <ele>1619.2</ele>
        <time>2015-08-22T18:50:40Z</time>
      </trkpt>
      <trkpt lat="45.27994" lon="5.78524">
        <ele>1620.4</ele>
        <time>2015-08-22T18:50:47Z</time>
      </trkpt>
      <trkpt lat="45.27991" lon="5.78509">
        <ele>1622.5</ele>
        <time>2015-08-22T18:50:54Z</time>
      </trkpt>
      <trkpt lat="45.27989" lon="5.78501">
        <ele>1623.8</ele>
        <time>2015-08-22T18:50:59Z</time>
      </trkpt>
      <trkpt lat="45.27988" lon="5.78497">
        <ele>1624.3</ele>
        <time>2015-08-22T18:51:01Z</time>
      </trkpt>
      <trkpt lat="45.27985" lon="5.78487">
        <ele>1625.5</ele>
        <time>2015-08-22T18:51:07Z</time>
      </trkpt>
      <trkpt lat="45.27986" lon="5.78484">
        <ele>1626.6</ele>
        <time>2015-08-22T18:51:08Z</time>
      </trkpt>
      <trkpt lat="45.27986" lon="5.78475">
        <ele>1629.1</ele>
        <time>2015-08-22T18:51:14Z</time>
      </trkpt>
      <trkpt lat="45.27985" lon="5.78472">
        <ele>1629.4</ele>
        <time>2015-08-22T18:51:16Z</time>
      </trkpt>
      <trkpt lat="45.27983" lon="5.78466">
        <ele>1629.7</ele>
        <time>2015-08-22T18:51:20Z</time>
      </trkpt>
      <trkpt lat="45.27978" lon="5.78461">
        <ele>1628.3</ele>
        <time>2015-08-22T18:51:25Z</time>
      </trkpt>
      <trkpt lat="45.27976" lon="5.78453">
        <ele>1628.2</ele>
        <time>2015-08-22T18:51:29Z</time>
      </trkpt>
      <trkpt lat="45.27974" lon="5.7845">
        <ele>1627.3</ele>
        <time>2015-08-22T18:51:31Z</time>
      </trkpt>
      <trkpt lat="45.27971" lon="5.78446">
        <ele>1626.1</ele>
        <time>2015-08-22T18:51:35Z</time>
      </trkpt>
      <trkpt lat="45.2797" lon="5.78444">
        <ele>1626.2</ele>
        <time>2015-08-22T18:51:36Z</time>
      </trkpt>
      <trkpt lat="45.27965" lon="5.78437">
        <ele>1624.6</ele>
        <time>2015-08-22T18:51:40Z</time>
      </trkpt>
      <trkpt lat="45.27964" lon="5.78436">
        <ele>1623.8</ele>
        <time>2015-08-22T18:51:41Z</time>
      </trkpt>
      <trkpt lat="45.27964" lon="5.78432">
        <ele>1624.2</ele>
        <time>2015-08-22T18:51:43Z</time>
      </trkpt>
      <trkpt lat="45.27962" lon="5.78429">
        <ele>1623.4</ele>
        <time>2015-08-22T18:51:45Z</time>
      </trkpt>
      <trkpt lat="45.27959" lon="5.78426">
        <ele>1622.5</ele>
        <time>2015-08-22T18:51:47Z</time>
      </trkpt>
      <trkpt lat="45.27956" lon="5.78422">
        <ele>1620.9</ele>
        <time>2015-08-22T18:51:50Z</time>
      </trkpt>
      <trkpt lat="45.27954" lon="5.78417">
        <ele>1620.7</ele>
        <time>2015-08-22T18:51:52Z</time>
      </trkpt>
      <trkpt lat="45.27951" lon="5.78411">
        <ele>1620.4</ele>
        <time>2015-08-22T18:51:55Z</time>
      </trkpt>
      <trkpt lat="45.27948" lon="5.78402">
        <ele>1619.5</ele>
        <time>2015-08-22T18:52:01Z</time>
      </trkpt>
      <trkpt lat="45.27948" lon="5.78401">
        <ele>1620</ele>
        <time>2015-08-22T18:52:02Z</time>
      </trkpt>
      <trkpt lat="45.27948" lon="5.78398">
        <ele>1620.5</ele>
        <time>2015-08-22T18:52:03Z</time>
      </trkpt>
      <trkpt lat="45.27948" lon="5.78386">
        <ele>1622.4</ele>
        <time>2015-08-22T18:52:07Z</time>
      </trkpt>
      <trkpt lat="45.27946" lon="5.78375">
        <ele>1622.8</ele>
        <time>2015-08-22T18:52:14Z</time>
      </trkpt>
      <trkpt lat="45.27946" lon="5.78375">
        <ele>1622.8</ele>
        <time>2015-08-22T18:52:15Z</time>
      </trkpt>
      <trkpt lat="45.27945" lon="5.78371">
        <ele>1622.9</ele>
        <time>2015-08-22T18:52:16Z</time>
      </trkpt>
      <trkpt lat="45.27946" lon="5.78366">
        <ele>1623.8</ele>
        <time>2015-08-22T18:52:18Z</time>
      </trkpt>
      <trkpt lat="45.27949" lon="5.78353">
        <ele>1626.4</ele>
        <time>2015-08-22T18:52:24Z</time>
      </trkpt>
      <trkpt lat="45.27949" lon="5.7835">
        <ele>1626.2</ele>
        <time>2015-08-22T18:52:25Z</time>
      </trkpt>
      <trkpt lat="45.27948" lon="5.78339">
        <ele>1626.4</ele>
        <time>2015-08-22T18:52:30Z</time>
      </trkpt>
      <trkpt lat="45.27948" lon="5.78329">
        <ele>1626.8</ele>
        <time>2015-08-22T18:52:37Z</time>
      </trkpt>
      <trkpt lat="45.27947" lon="5.78315">
        <ele>1627</ele>
        <time>2015-08-22T18:52:43Z</time>
      </trkpt>
      <trkpt lat="45.27947" lon="5.78313">
        <ele>1627.1</ele>
        <time>2015-08-22T18:52:44Z</time>
      </trkpt>
      <trkpt lat="45.27941" lon="5.78301">
        <ele>1624.6</ele>
        <time>2015-08-22T18:52:49Z</time>
      </trkpt>
      <trkpt lat="45.27941" lon="5.78297">
        <ele>1624.7</ele>
        <time>2015-08-22T18:52:51Z</time>
      </trkpt>
      <trkpt lat="45.27941" lon="5.7829">
        <ele>1625.4</ele>
        <time>2015-08-22T18:52:53Z</time>
      </trkpt>
      <trkpt lat="45.27938" lon="5.7828">
        <ele>1626.1</ele>
        <time>2015-08-22T18:52:57Z</time>
      </trkpt>
      <trkpt lat="45.27937" lon="5.78278">
        <ele>1626.2</ele>
        <time>2015-08-22T18:52:58Z</time>
      </trkpt>
      <trkpt lat="45.27938" lon="5.78276">
        <ele>1627.2</ele>
        <time>2015-08-22T18:53:01Z</time>
      </trkpt>
      <trkpt lat="45.27938" lon="5.78274">
        <ele>1627.6</ele>
        <time>2015-08-22T18:53:02Z</time>
      </trkpt>
      <trkpt lat="45.27938" lon="5.78272">
        <ele>1628</ele>
        <time>2015-08-22T18:53:03Z</time>
      </trkpt>
      <trkpt lat="45.27936" lon="5.78257">
        <ele>1630.4</ele>
        <time>2015-08-22T18:53:10Z</time>
      </trkpt>
      <trkpt lat="45.2793" lon="5.78244">
        <ele>1631</ele>
        <time>2015-08-22T18:53:17Z</time>
      </trkpt>
      <trkpt lat="45.27929" lon="5.78236">
        <ele>1632.4</ele>
        <time>2015-08-22T18:53:22Z</time>
      </trkpt>
      <trkpt lat="45.27927" lon="5.7823">
        <ele>1632.7</ele>
        <time>2015-08-22T18:53:26Z</time>
      </trkpt>
      <trkpt lat="45.27925" lon="5.78224">
        <ele>1633.6</ele>
        <time>2015-08-22T18:53:29Z</time>
      </trkpt>
      <trkpt lat="45.27924" lon="5.7822">
        <ele>1634.2</ele>
        <time>2015-08-22T18:53:30Z</time>
      </trkpt>
      <trkpt lat="45.27922" lon="5.78213">
        <ele>1635.1</ele>
        <time>2015-08-22T18:53:34Z</time>
      </trkpt>
      <trkpt lat="45.27922" lon="5.78211">
        <ele>1635.5</ele>
        <time>2015-08-22T18:53:35Z</time>
      </trkpt>
      <trkpt lat="45.27918" lon="5.78202">
        <ele>1635.2</ele>
        <time>2015-08-22T18:53:41Z</time>
      </trkpt>
      <trkpt lat="45.27917" lon="5.78196">
        <ele>1635.6</ele>
        <time>2015-08-22T18:53:44Z</time>
      </trkpt>
      <trkpt lat="45.27915" lon="5.78185">
        <ele>1635.8</ele>
        <time>2015-08-22T18:53:48Z</time>
      </trkpt>
      <trkpt lat="45.27912" lon="5.78175">
        <ele>1635.4</ele>
        <time>2015-08-22T18:53:54Z</time>
      </trkpt>
      <trkpt lat="45.2791" lon="5.78173">
        <ele>1634.8</ele>
        <time>2015-08-22T18:53:55Z</time>
      </trkpt>
      <trkpt lat="45.27905" lon="5.78169">
        <ele>1633</ele>
        <time>2015-08-22T18:53:59Z</time>
      </trkpt>
      <trkpt lat="45.27904" lon="5.78168">
        <ele>1632.7</ele>
        <time>2015-08-22T18:54:01Z</time>
      </trkpt>
      <trkpt lat="45.279" lon="5.78161">
        <ele>1632.1</ele>
        <time>2015-08-22T18:54:05Z</time>
      </trkpt>
      <trkpt lat="45.279" lon="5.78158">
        <ele>1632.2</ele>
        <time>2015-08-22T18:54:07Z</time>
      </trkpt>
      <trkpt lat="45.27897" lon="5.78154">
        <ele>1631.3</ele>
        <time>2015-08-22T18:54:10Z</time>
      </trkpt>
      <trkpt lat="45.27893" lon="5.7815">
        <ele>1630.1</ele>
        <time>2015-08-22T18:54:13Z</time>
      </trkpt>
      <trkpt lat="45.27884" lon="5.78142">
        <ele>1627.7</ele>
        <time>2015-08-22T18:54:20Z</time>
      </trkpt>
      <trkpt lat="45.27881" lon="5.7814">
        <ele>1626.6</ele>
        <time>2015-08-22T18:54:22Z</time>
      </trkpt>
      <trkpt lat="45.27879" lon="5.78136">
        <ele>1626.4</ele>
        <time>2015-08-22T18:54:25Z</time>
      </trkpt>
      <trkpt lat="45.27872" lon="5.78127">
        <ele>1625.1</ele>
        <time>2015-08-22T18:54:32Z</time>
      </trkpt>
      <trkpt lat="45.27872" lon="5.78124">
        <ele>1624.9</ele>
        <time>2015-08-22T18:54:34Z</time>
      </trkpt>
      <trkpt lat="45.27868" lon="5.7812">
        <ele>1623.3</ele>
        <time>2015-08-22T18:54:37Z</time>
      </trkpt>
      <trkpt lat="45.27866" lon="5.78114">
        <ele>1621.1</ele>
        <time>2015-08-22T18:54:41Z</time>
      </trkpt>
      <trkpt lat="45.27866" lon="5.78113">
        <ele>1620.7</ele>
        <time>2015-08-22T18:54:42Z</time>
      </trkpt>
      <trkpt lat="45.27865" lon="5.78111">
        <ele>1620.2</ele>
        <time>2015-08-22T18:54:43Z</time>
      </trkpt>
      <trkpt lat="45.27863" lon="5.78105">
        <ele>1618.3</ele>
        <time>2015-08-22T18:54:47Z</time>
      </trkpt>
      <trkpt lat="45.27864" lon="5.78101">
        <ele>1617.5</ele>
        <time>2015-08-22T18:54:49Z</time>
      </trkpt>
      <trkpt lat="45.27864" lon="5.78098">
        <ele>1616.9</ele>
        <time>2015-08-22T18:54:51Z</time>
      </trkpt>
      <trkpt lat="45.27865" lon="5.78096">
        <ele>1616.5</ele>
        <time>2015-08-22T18:54:52Z</time>
      </trkpt>
      <trkpt lat="45.27868" lon="5.78086">
        <ele>1614.9</ele>
        <time>2015-08-22T18:54:57Z</time>
      </trkpt>
      <trkpt lat="45.2787" lon="5.78078">
        <ele>1613.5</ele>
        <time>2015-08-22T18:55:01Z</time>
      </trkpt>
      <trkpt lat="45.2787" lon="5.78076">
        <ele>1613</ele>
        <time>2015-08-22T18:55:02Z</time>
      </trkpt>
      <trkpt lat="45.27872" lon="5.78067">
        <ele>1611.5</ele>
        <time>2015-08-22T18:55:07Z</time>
      </trkpt>
      <trkpt lat="45.27873" lon="5.78065">
        <ele>1611.2</ele>
        <time>2015-08-22T18:55:08Z</time>
      </trkpt>
      <trkpt lat="45.27876" lon="5.78057">
        <ele>1610.4</ele>
        <time>2015-08-22T18:55:13Z</time>
      </trkpt>
      <trkpt lat="45.27878" lon="5.78057">
        <ele>1610.8</ele>
        <time>2015-08-22T18:55:14Z</time>
      </trkpt>
      <trkpt lat="45.27883" lon="5.78052">
        <ele>1611.7</ele>
        <time>2015-08-22T18:55:19Z</time>
      </trkpt>
      <trkpt lat="45.27886" lon="5.78044">
        <ele>1611.6</ele>
        <time>2015-08-22T18:55:24Z</time>
      </trkpt>
      <trkpt lat="45.27889" lon="5.78031">
        <ele>1609</ele>
        <time>2015-08-22T18:55:28Z</time>
      </trkpt>
      <trkpt lat="45.27889" lon="5.78029">
        <ele>1608.5</ele>
        <time>2015-08-22T18:55:29Z</time>
      </trkpt>
      <trkpt lat="45.27893" lon="5.78028">
        <ele>1609.9</ele>
        <time>2015-08-22T18:55:32Z</time>
      </trkpt>
      <trkpt lat="45.27894" lon="5.78029">
        <ele>1610.9</ele>
        <time>2015-08-22T18:55:33Z</time>
      </trkpt>
      <trkpt lat="45.279" lon="5.78029">
        <ele>1613.3</ele>
        <time>2015-08-22T18:55:38Z</time>
      </trkpt>
      <trkpt lat="45.27905" lon="5.78031">
        <ele>1616.2</ele>
        <time>2015-08-22T18:55:42Z</time>
      </trkpt>
      <trkpt lat="45.27906" lon="5.78029">
        <ele>1616</ele>
        <time>2015-08-22T18:55:43Z</time>
      </trkpt>
      <trkpt lat="45.27915" lon="5.78018">
        <ele>1616.9</ele>
        <time>2015-08-22T18:55:50Z</time>
      </trkpt>
      <trkpt lat="45.27917" lon="5.78009">
        <ele>1615.5</ele>
        <time>2015-08-22T18:55:55Z</time>
      </trkpt>
      <trkpt lat="45.27918" lon="5.78006">
        <ele>1614.7</ele>
        <time>2015-08-22T18:55:57Z</time>
      </trkpt>
      <trkpt lat="45.27922" lon="5.77999">
        <ele>1614.5</ele>
        <time>2015-08-22T18:56:00Z</time>
      </trkpt>
      <trkpt lat="45.27922" lon="5.77996">
        <ele>1613.9</ele>
        <time>2015-08-22T18:56:01Z</time>
      </trkpt>
      <trkpt lat="45.27924" lon="5.77986">
        <ele>1612.1</ele>
        <time>2015-08-22T18:56:06Z</time>
      </trkpt>
      <trkpt lat="45.27926" lon="5.77978">
        <ele>1610.3</ele>
        <time>2015-08-22T18:56:11Z</time>
      </trkpt>
      <trkpt lat="45.27927" lon="5.77976">
        <ele>1610.4</ele>
        <time>2015-08-22T18:56:12Z</time>
      </trkpt>
      <trkpt lat="45.27929" lon="5.77971">
        <ele>1610.1</ele>
        <time>2015-08-22T18:56:15Z</time>
      </trkpt>
      <trkpt lat="45.2793" lon="5.77967">
        <ele>1609.7</ele>
        <time>2015-08-22T18:56:18Z</time>
      </trkpt>
      <trkpt lat="45.2793" lon="5.77966">
        <ele>1609.3</ele>
        <time>2015-08-22T18:56:19Z</time>
      </trkpt>
      <trkpt lat="45.27929" lon="5.77958">
        <ele>1606.4</ele>
        <time>2015-08-22T18:56:22Z</time>
      </trkpt>
      <trkpt lat="45.27927" lon="5.77953">
        <ele>1604.1</ele>
        <time>2015-08-22T18:56:23Z</time>
      </trkpt>
      <trkpt lat="45.27928" lon="5.77946">
        <ele>1601.5</ele>
        <time>2015-08-22T18:56:26Z</time>
      </trkpt>
      <trkpt lat="45.27928" lon="5.77941">
        <ele>1599.8</ele>
        <time>2015-08-22T18:56:28Z</time>
      </trkpt>
      <trkpt lat="45.2793" lon="5.77933">
        <ele>1598.8</ele>
        <time>2015-08-22T18:56:34Z</time>
      </trkpt>
      <trkpt lat="45.2793" lon="5.7793">
        <ele>1597.3</ele>
        <time>2015-08-22T18:56:36Z</time>
      </trkpt>
      <trkpt lat="45.27931" lon="5.7792">
        <ele>1594.8</ele>
        <time>2015-08-22T18:56:41Z</time>
      </trkpt>
      <trkpt lat="45.27936" lon="5.77912">
        <ele>1594.6</ele>
        <time>2015-08-22T18:56:46Z</time>
      </trkpt>
      <trkpt lat="45.27939" lon="5.77904">
        <ele>1594</ele>
        <time>2015-08-22T18:56:52Z</time>
      </trkpt>
      <trkpt lat="45.27943" lon="5.77897">
        <ele>1594.3</ele>
        <time>2015-08-22T18:56:56Z</time>
      </trkpt>
      <trkpt lat="45.2795" lon="5.7789">
        <ele>1595.8</ele>
        <time>2015-08-22T18:57:01Z</time>
      </trkpt>
      <trkpt lat="45.27956" lon="5.77883">
        <ele>1596.7</ele>
        <time>2015-08-22T18:57:06Z</time>
      </trkpt>
      <trkpt lat="45.2796" lon="5.77875">
        <ele>1596.7</ele>
        <time>2015-08-22T18:57:11Z</time>
      </trkpt>
      <trkpt lat="45.27965" lon="5.77865">
        <ele>1597.2</ele>
        <time>2015-08-22T18:57:18Z</time>
      </trkpt>
      <trkpt lat="45.27967" lon="5.77864">
        <ele>1597.8</ele>
        <time>2015-08-22T18:57:19Z</time>
      </trkpt>
      <trkpt lat="45.27969" lon="5.77858">
        <ele>1597.4</ele>
        <time>2015-08-22T18:57:23Z</time>
      </trkpt>
      <trkpt lat="45.27972" lon="5.77854">
        <ele>1597.4</ele>
        <time>2015-08-22T18:57:26Z</time>
      </trkpt>
      <trkpt lat="45.27975" lon="5.77851">
        <ele>1598.5</ele>
        <time>2015-08-22T18:57:29Z</time>
      </trkpt>
      <trkpt lat="45.27981" lon="5.77847">
        <ele>1600.9</ele>
        <time>2015-08-22T18:57:34Z</time>
      </trkpt>
      <trkpt lat="45.27982" lon="5.77846">
        <ele>1601</ele>
        <time>2015-08-22T18:57:35Z</time>
      </trkpt>
      <trkpt lat="45.27985" lon="5.77844">
        <ele>1602.3</ele>
        <time>2015-08-22T18:57:37Z</time>
      </trkpt>
      <trkpt lat="45.27988" lon="5.77839">
        <ele>1602.3</ele>
        <time>2015-08-22T18:57:40Z</time>
      </trkpt>
      <trkpt lat="45.27994" lon="5.77833">
        <ele>1603.6</ele>
        <time>2015-08-22T18:57:44Z</time>
      </trkpt>
      <trkpt lat="45.27997" lon="5.77829">
        <ele>1604.1</ele>
        <time>2015-08-22T18:57:47Z</time>
      </trkpt>
      <trkpt lat="45.27997" lon="5.77826">
        <ele>1603.5</ele>
        <time>2015-08-22T18:57:48Z</time>
      </trkpt>
      <trkpt lat="45.28002" lon="5.77819">
        <ele>1603.9</ele>
        <time>2015-08-22T18:57:52Z</time>
      </trkpt>
      <trkpt lat="45.28006" lon="5.77812">
        <ele>1604.1</ele>
        <time>2015-08-22T18:57:57Z</time>
      </trkpt>
      <trkpt lat="45.28009" lon="5.77807">
        <ele>1604</ele>
        <time>2015-08-22T18:58:01Z</time>
      </trkpt>
      <trkpt lat="45.2801" lon="5.77807">
        <ele>1604.8</ele>
        <time>2015-08-22T18:58:02Z</time>
      </trkpt>
      <trkpt lat="45.28011" lon="5.77806">
        <ele>1604.7</ele>
        <time>2015-08-22T18:58:03Z</time>
      </trkpt>
      <trkpt lat="45.28013" lon="5.77797">
        <ele>1602.9</ele>
        <time>2015-08-22T18:58:07Z</time>
      </trkpt>
      <trkpt lat="45.28018" lon="5.77782">
        <ele>1600.7</ele>
        <time>2015-08-22T18:58:14Z</time>
      </trkpt>
      <trkpt lat="45.2802" lon="5.77781">
        <ele>1601</ele>
        <time>2015-08-22T18:58:15Z</time>
      </trkpt>
      <trkpt lat="45.28024" lon="5.77773">
        <ele>1600.8</ele>
        <time>2015-08-22T18:58:20Z</time>
      </trkpt>
      <trkpt lat="45.28027" lon="5.77773">
        <ele>1602.5</ele>
        <time>2015-08-22T18:58:22Z</time>
      </trkpt>
      <trkpt lat="45.2803" lon="5.77771">
        <ele>1603.1</ele>
        <time>2015-08-22T18:58:25Z</time>
      </trkpt>
      <trkpt lat="45.28036" lon="5.77764">
        <ele>1603.9</ele>
        <time>2015-08-22T18:58:30Z</time>
      </trkpt>
      <trkpt lat="45.28042" lon="5.77758">
        <ele>1604.8</ele>
        <time>2015-08-22T18:58:35Z</time>
      </trkpt>
      <trkpt lat="45.28047" lon="5.7775">
        <ele>1604.4</ele>
        <time>2015-08-22T18:58:40Z</time>
      </trkpt>
      <trkpt lat="45.28053" lon="5.77741">
        <ele>1603.4</ele>
        <time>2015-08-22T18:58:46Z</time>
      </trkpt>
      <trkpt lat="45.28059" lon="5.77736">
        <ele>1604.4</ele>
        <time>2015-08-22T18:58:51Z</time>
      </trkpt>
      <trkpt lat="45.28064" lon="5.77733">
        <ele>1604.9</ele>
        <time>2015-08-22T18:58:53Z</time>
      </trkpt>
      <trkpt lat="45.28066" lon="5.77727">
        <ele>1603.5</ele>
        <time>2015-08-22T18:58:56Z</time>
      </trkpt>
      <trkpt lat="45.2807" lon="5.77718">
        <ele>1601.7</ele>
        <time>2015-08-22T18:59:01Z</time>
      </trkpt>
      <trkpt lat="45.28074" lon="5.7771">
        <ele>1600.3</ele>
        <time>2015-08-22T18:59:06Z</time>
      </trkpt>
      <trkpt lat="45.28076" lon="5.77709">
        <ele>1600.6</ele>
        <time>2015-08-22T18:59:07Z</time>
      </trkpt>
      <trkpt lat="45.28081" lon="5.77711">
        <ele>1603</ele>
        <time>2015-08-22T18:59:10Z</time>
      </trkpt>
      <trkpt lat="45.28083" lon="5.77713">
        <ele>1604.5</ele>
        <time>2015-08-22T18:59:11Z</time>
      </trkpt>
      <trkpt lat="45.28084" lon="5.77712">
        <ele>1605.1</ele>
        <time>2015-08-22T18:59:12Z</time>
      </trkpt>
      <trkpt lat="45.2809" lon="5.77705">
        <ele>1604.4</ele>
        <time>2015-08-22T18:59:17Z</time>
      </trkpt>
      <trkpt lat="45.28093" lon="5.77703">
        <ele>1604.5</ele>
        <time>2015-08-22T18:59:19Z</time>
      </trkpt>
      <trkpt lat="45.28094" lon="5.77701">
        <ele>1604.3</ele>
        <time>2015-08-22T18:59:20Z</time>
      </trkpt>
      <trkpt lat="45.28097" lon="5.77696">
        <ele>1603.5</ele>
        <time>2015-08-22T18:59:22Z</time>
      </trkpt>
      <trkpt lat="45.28101" lon="5.77692">
        <ele>1603.2</ele>
        <time>2015-08-22T18:59:25Z</time>
      </trkpt>
      <trkpt lat="45.28101" lon="5.77691">
        <ele>1603.2</ele>
        <time>2015-08-22T18:59:26Z</time>
      </trkpt>
      <trkpt lat="45.28102" lon="5.7769">
        <ele>1603</ele>
        <time>2015-08-22T18:59:27Z</time>
      </trkpt>
      <trkpt lat="45.28106" lon="5.77681">
        <ele>1600.8</ele>
        <time>2015-08-22T18:59:32Z</time>
      </trkpt>
      <trkpt lat="45.28106" lon="5.77675">
        <ele>1598.7</ele>
        <time>2015-08-22T18:59:35Z</time>
      </trkpt>
      <trkpt lat="45.28108" lon="5.77675">
        <ele>1599.1</ele>
        <time>2015-08-22T18:59:36Z</time>
      </trkpt>
      <trkpt lat="45.28108" lon="5.77675">
        <ele>1599.3</ele>
        <time>2015-08-22T18:59:37Z</time>
      </trkpt>
      <trkpt lat="45.28112" lon="5.77673">
        <ele>1600</ele>
        <time>2015-08-22T18:59:43Z</time>
      </trkpt>
      <trkpt lat="45.28113" lon="5.77674">
        <ele>1600.8</ele>
        <time>2015-08-22T18:59:44Z</time>
      </trkpt>
      <trkpt lat="45.28117" lon="5.77673">
        <ele>1601.6</ele>
        <time>2015-08-22T18:59:48Z</time>
      </trkpt>
      <trkpt lat="45.2812" lon="5.77673">
        <ele>1602.7</ele>
        <time>2015-08-22T18:59:51Z</time>
      </trkpt>
      <trkpt lat="45.28123" lon="5.77671">
        <ele>1603.2</ele>
        <time>2015-08-22T18:59:53Z</time>
      </trkpt>
      <trkpt lat="45.28126" lon="5.77672">
        <ele>1604.4</ele>
        <time>2015-08-22T18:59:55Z</time>
      </trkpt>
      <trkpt lat="45.28129" lon="5.77671">
        <ele>1604.7</ele>
        <time>2015-08-22T18:59:57Z</time>
      </trkpt>
      <trkpt lat="45.2813" lon="5.77671">
        <ele>1604.8</ele>
        <time>2015-08-22T18:59:58Z</time>
      </trkpt>
      <trkpt lat="45.28133" lon="5.77672">
        <ele>1605.5</ele>
        <time>2015-08-22T18:59:59Z</time>
      </trkpt>
      <trkpt lat="45.28138" lon="5.77675">
        <ele>1607.7</ele>
        <time>2015-08-22T19:00:02Z</time>
      </trkpt>
      <trkpt lat="45.28146" lon="5.77676">
        <ele>1609.8</ele>
        <time>2015-08-22T19:00:08Z</time>
      </trkpt>
      <trkpt lat="45.28148" lon="5.77676">
        <ele>1610.5</ele>
        <time>2015-08-22T19:00:09Z</time>
      </trkpt>
      <trkpt lat="45.28156" lon="5.77677">
        <ele>1612.5</ele>
        <time>2015-08-22T19:00:15Z</time>
      </trkpt>
      <trkpt lat="45.28163" lon="5.77679">
        <ele>1614.4</ele>
        <time>2015-08-22T19:00:21Z</time>
      </trkpt>
      <trkpt lat="45.2817" lon="5.77682">
        <ele>1617.6</ele>
        <time>2015-08-22T19:00:27Z</time>
      </trkpt>
      <trkpt lat="45.28177" lon="5.77685">
        <ele>1620.3</ele>
        <time>2015-08-22T19:00:33Z</time>
      </trkpt>
      <trkpt lat="45.28184" lon="5.7769">
        <ele>1624.2</ele>
        <time>2015-08-22T19:00:38Z</time>
      </trkpt>
      <trkpt lat="45.28189" lon="5.77693">
        <ele>1626.4</ele>
        <time>2015-08-22T19:00:42Z</time>
      </trkpt>
      <trkpt lat="45.28191" lon="5.77695">
        <ele>1627.5</ele>
        <time>2015-08-22T19:00:43Z</time>
      </trkpt>
      <trkpt lat="45.28196" lon="5.77697">
        <ele>1629.9</ele>
        <time>2015-08-22T19:00:48Z</time>
      </trkpt>
      <trkpt lat="45.28206" lon="5.77699">
        <ele>1633.1</ele>
        <time>2015-08-22T19:00:55Z</time>
      </trkpt>
      <trkpt lat="45.28214" lon="5.77705">
        <ele>1635.3</ele>
        <time>2015-08-22T19:01:01Z</time>
      </trkpt>
      <trkpt lat="45.28223" lon="5.77708">
        <ele>1635.3</ele>
        <time>2015-08-22T19:01:08Z</time>
      </trkpt>
      <trkpt lat="45.28227" lon="5.77711">
        <ele>1636</ele>
        <time>2015-08-22T19:01:12Z</time>
      </trkpt>
      <trkpt lat="45.28228" lon="5.77713">
        <ele>1636.7</ele>
        <time>2015-08-22T19:01:14Z</time>
      </trkpt>
      <trkpt lat="45.28228" lon="5.77713">
        <ele>1636.6</ele>
        <time>2015-08-22T19:01:16Z</time>
      </trkpt>
      <trkpt lat="45.28231" lon="5.77713">
        <ele>1636.5</ele>
        <time>2015-08-22T19:01:19Z</time>
      </trkpt>
      <trkpt lat="45.28232" lon="5.77714">
        <ele>1636.8</ele>
        <time>2015-08-22T19:01:20Z</time>
      </trkpt>
      <trkpt lat="45.28235" lon="5.77717">
        <ele>1637.5</ele>
        <time>2015-08-22T19:01:24Z</time>
      </trkpt>
      <trkpt lat="45.28235" lon="5.77713">
        <ele>1635.5</ele>
        <time>2015-08-22T19:01:29Z</time>
      </trkpt>
      <trkpt lat="45.28243" lon="5.77715">
        <ele>1635.2</ele>
        <time>2015-08-22T19:01:35Z</time>
      </trkpt>
      <trkpt lat="45.28245" lon="5.7771">
        <ele>1632.5</ele>
        <time>2015-08-22T19:01:39Z</time>
      </trkpt>
      <trkpt lat="45.28245" lon="5.77707">
        <ele>1631.4</ele>
        <time>2015-08-22T19:01:40Z</time>
      </trkpt>
      <trkpt lat="45.28252" lon="5.77706">
        <ele>1629.7</ele>
        <time>2015-08-22T19:01:46Z</time>
      </trkpt>
      <trkpt lat="45.28261" lon="5.77714">
        <ele>1631.9</ele>
        <time>2015-08-22T19:01:53Z</time>
      </trkpt>
      <trkpt lat="45.28268" lon="5.77714">
        <ele>1631</ele>
        <time>2015-08-22T19:01:58Z</time>
      </trkpt>
      <trkpt lat="45.2827" lon="5.77716">
        <ele>1631.4</ele>
        <time>2015-08-22T19:01:59Z</time>
      </trkpt>
      <trkpt lat="45.2828" lon="5.77718">
        <ele>1630.9</ele>
        <time>2015-08-22T19:02:05Z</time>
      </trkpt>
      <trkpt lat="45.28289" lon="5.77726">
        <ele>1633.7</ele>
        <time>2015-08-22T19:02:12Z</time>
      </trkpt>
      <trkpt lat="45.283" lon="5.77739">
        <ele>1637.6</ele>
        <time>2015-08-22T19:02:18Z</time>
      </trkpt>
      <trkpt lat="45.28309" lon="5.77748">
        <ele>1639.5</ele>
        <time>2015-08-22T19:02:24Z</time>
      </trkpt>
      <trkpt lat="45.2831" lon="5.77749">
        <ele>1640.2</ele>
        <time>2015-08-22T19:02:25Z</time>
      </trkpt>
      <trkpt lat="45.28316" lon="5.77755">
        <ele>1641.4</ele>
        <time>2015-08-22T19:02:28Z</time>
      </trkpt>
      <trkpt lat="45.28322" lon="5.77761">
        <ele>1642.7</ele>
        <time>2015-08-22T19:02:33Z</time>
      </trkpt>
      <trkpt lat="45.28323" lon="5.77762">
        <ele>1643</ele>
        <time>2015-08-22T19:02:35Z</time>
      </trkpt>
      <trkpt lat="45.28327" lon="5.77767">
        <ele>1644.1</ele>
        <time>2015-08-22T19:02:38Z</time>
      </trkpt>
      <trkpt lat="45.2833" lon="5.77769">
        <ele>1644.2</ele>
        <time>2015-08-22T19:02:41Z</time>
      </trkpt>
      <trkpt lat="45.28332" lon="5.77771">
        <ele>1644.3</ele>
        <time>2015-08-22T19:02:43Z</time>
      </trkpt>
      <trkpt lat="45.28334" lon="5.7777">
        <ele>1643.7</ele>
        <time>2015-08-22T19:02:44Z</time>
      </trkpt>
      <trkpt lat="45.28343" lon="5.77773">
        <ele>1642.3</ele>
        <time>2015-08-22T19:02:51Z</time>
      </trkpt>
      <trkpt lat="45.28346" lon="5.77777">
        <ele>1643.1</ele>
        <time>2015-08-22T19:02:54Z</time>
      </trkpt>
      <trkpt lat="45.28349" lon="5.77777">
        <ele>1642.4</ele>
        <time>2015-08-22T19:02:56Z</time>
      </trkpt>
      <trkpt lat="45.28353" lon="5.77781">
        <ele>1642.8</ele>
        <time>2015-08-22T19:02:59Z</time>
      </trkpt>
      <trkpt lat="45.28355" lon="5.77781">
        <ele>1642.4</ele>
        <time>2015-08-22T19:03:00Z</time>
      </trkpt>
      <trkpt lat="45.28357" lon="5.77783">
        <ele>1642.5</ele>
        <time>2015-08-22T19:03:05Z</time>
      </trkpt>
      <trkpt lat="45.28362" lon="5.77788">
        <ele>1643.6</ele>
        <time>2015-08-22T19:03:10Z</time>
      </trkpt>
      <trkpt lat="45.28363" lon="5.77791">
        <ele>1644.3</ele>
        <time>2015-08-22T19:03:16Z</time>
      </trkpt>
      <trkpt lat="45.28367" lon="5.77789">
        <ele>1642.3</ele>
        <time>2015-08-22T19:03:21Z</time>
      </trkpt>
      <trkpt lat="45.28372" lon="5.77795">
        <ele>1643.6</ele>
        <time>2015-08-22T19:03:27Z</time>
      </trkpt>
      <trkpt lat="45.28373" lon="5.77798">
        <ele>1644.3</ele>
        <time>2015-08-22T19:03:29Z</time>
      </trkpt>
      <trkpt lat="45.28375" lon="5.778">
        <ele>1644.5</ele>
        <time>2015-08-22T19:03:32Z</time>
      </trkpt>
      <trkpt lat="45.28379" lon="5.77801">
        <ele>1644.2</ele>
        <time>2015-08-22T19:03:36Z</time>
      </trkpt>
      <trkpt lat="45.28381" lon="5.77804">
        <ele>1644.7</ele>
        <time>2015-08-22T19:03:38Z</time>
      </trkpt>
      <trkpt lat="45.28381" lon="5.77805">
        <ele>1645.2</ele>
        <time>2015-08-22T19:03:39Z</time>
      </trkpt>
      <trkpt lat="45.28385" lon="5.77809">
        <ele>1645.6</ele>
        <time>2015-08-22T19:03:43Z</time>
      </trkpt>
      <trkpt lat="45.28385" lon="5.7781">
        <ele>1645.6</ele>
        <time>2015-08-22T19:03:44Z</time>
      </trkpt>
      <trkpt lat="45.28387" lon="5.77809">
        <ele>1645.1</ele>
        <time>2015-08-22T19:03:45Z</time>
      </trkpt>
      <trkpt lat="45.28393" lon="5.77812">
        <ele>1644.3</ele>
        <time>2015-08-22T19:03:49Z</time>
      </trkpt>
      <trkpt lat="45.28393" lon="5.77812">
        <ele>1643.9</ele>
        <time>2015-08-22T19:03:50Z</time>
      </trkpt>
      <trkpt lat="45.28399" lon="5.77814">
        <ele>1643.1</ele>
        <time>2015-08-22T19:03:53Z</time>
      </trkpt>
      <trkpt lat="45.28405" lon="5.77815">
        <ele>1641.3</ele>
        <time>2015-08-22T19:03:58Z</time>
      </trkpt>
      <trkpt lat="45.28409" lon="5.77817">
        <ele>1640.7</ele>
        <time>2015-08-22T19:04:00Z</time>
      </trkpt>
      <trkpt lat="45.28413" lon="5.77825">
        <ele>1643</ele>
        <time>2015-08-22T19:04:03Z</time>
      </trkpt>
      <trkpt lat="45.28418" lon="5.77827">
        <ele>1642</ele>
        <time>2015-08-22T19:04:05Z</time>
      </trkpt>
      <trkpt lat="45.2842" lon="5.77831">
        <ele>1642.9</ele>
        <time>2015-08-22T19:04:08Z</time>
      </trkpt>
      <trkpt lat="45.28423" lon="5.77833">
        <ele>1642.9</ele>
        <time>2015-08-22T19:04:10Z</time>
      </trkpt>
      <trkpt lat="45.28426" lon="5.77837">
        <ele>1643.3</ele>
        <time>2015-08-22T19:04:13Z</time>
      </trkpt>
      <trkpt lat="45.28432" lon="5.77845">
        <ele>1644.5</ele>
        <time>2015-08-22T19:04:19Z</time>
      </trkpt>
      <trkpt lat="45.28438" lon="5.77849">
        <ele>1643.8</ele>
        <time>2015-08-22T19:04:25Z</time>
      </trkpt>
      <trkpt lat="45.28439" lon="5.77848">
        <ele>1643.1</ele>
        <time>2015-08-22T19:04:26Z</time>
      </trkpt>
      <trkpt lat="45.28443" lon="5.77848">
        <ele>1641.8</ele>
        <time>2015-08-22T19:04:29Z</time>
      </trkpt>
      <trkpt lat="45.28445" lon="5.77851">
        <ele>1642.1</ele>
        <time>2015-08-22T19:04:30Z</time>
      </trkpt>
      <trkpt lat="45.28451" lon="5.77857">
        <ele>1642.6</ele>
        <time>2015-08-22T19:04:34Z</time>
      </trkpt>
      <trkpt lat="45.28455" lon="5.77861">
        <ele>1642.8</ele>
        <time>2015-08-22T19:04:38Z</time>
      </trkpt>
      <trkpt lat="45.28456" lon="5.77863">
        <ele>1642.9</ele>
        <time>2015-08-22T19:04:39Z</time>
      </trkpt>
      <trkpt lat="45.28458" lon="5.77863">
        <ele>1642.3</ele>
        <time>2015-08-22T19:04:40Z</time>
      </trkpt>
      <trkpt lat="45.28464" lon="5.77867">
        <ele>1641.8</ele>
        <time>2015-08-22T19:04:44Z</time>
      </trkpt>
      <trkpt lat="45.28466" lon="5.77868">
        <ele>1641.3</ele>
        <time>2015-08-22T19:04:45Z</time>
      </trkpt>
      <trkpt lat="45.28473" lon="5.77871">
        <ele>1639.9</ele>
        <time>2015-08-22T19:04:50Z</time>
      </trkpt>
      <trkpt lat="45.2848" lon="5.77877">
        <ele>1639.6</ele>
        <time>2015-08-22T19:04:56Z</time>
      </trkpt>
      <trkpt lat="45.28484" lon="5.77878">
        <ele>1638.7</ele>
        <time>2015-08-22T19:05:01Z</time>
      </trkpt>
      <trkpt lat="45.2849" lon="5.77879">
        <ele>1636.9</ele>
        <time>2015-08-22T19:05:06Z</time>
      </trkpt>
      <trkpt lat="45.28498" lon="5.77882">
        <ele>1634.6</ele>
        <time>2015-08-22T19:05:12Z</time>
      </trkpt>
      <trkpt lat="45.28503" lon="5.77885">
        <ele>1634.4</ele>
        <time>2015-08-22T19:05:17Z</time>
      </trkpt>
      <trkpt lat="45.28511" lon="5.7789">
        <ele>1633.5</ele>
        <time>2015-08-22T19:05:23Z</time>
      </trkpt>
      <trkpt lat="45.28514" lon="5.77891">
        <ele>1632.9</ele>
        <time>2015-08-22T19:05:26Z</time>
      </trkpt>
      <trkpt lat="45.28519" lon="5.77892">
        <ele>1631.3</ele>
        <time>2015-08-22T19:05:29Z</time>
      </trkpt>
      <trkpt lat="45.28525" lon="5.77896">
        <ele>1630.9</ele>
        <time>2015-08-22T19:05:33Z</time>
      </trkpt>
      <trkpt lat="45.28527" lon="5.77897">
        <ele>1630.7</ele>
        <time>2015-08-22T19:05:34Z</time>
      </trkpt>
      <trkpt lat="45.2853" lon="5.779">
        <ele>1630.9</ele>
        <time>2015-08-22T19:05:37Z</time>
      </trkpt>
      <trkpt lat="45.28533" lon="5.779">
        <ele>1630.2</ele>
        <time>2015-08-22T19:05:40Z</time>
      </trkpt>
      <trkpt lat="45.28544" lon="5.77904">
        <ele>1628.2</ele>
        <time>2015-08-22T19:05:46Z</time>
      </trkpt>
      <trkpt lat="45.28552" lon="5.77913">
        <ele>1629.7</ele>
        <time>2015-08-22T19:05:52Z</time>
      </trkpt>
      <trkpt lat="45.28557" lon="5.77915">
        <ele>1628.7</ele>
        <time>2015-08-22T19:05:55Z</time>
      </trkpt>
      <trkpt lat="45.28559" lon="5.77919">
        <ele>1629.7</ele>
        <time>2015-08-22T19:05:57Z</time>
      </trkpt>
      <trkpt lat="45.28566" lon="5.77929">
        <ele>1631.4</ele>
        <time>2015-08-22T19:06:03Z</time>
      </trkpt>
      <trkpt lat="45.28567" lon="5.77931">
        <ele>1631.7</ele>
        <time>2015-08-22T19:06:04Z</time>
      </trkpt>
      <trkpt lat="45.28572" lon="5.77939">
        <ele>1633.5</ele>
        <time>2015-08-22T19:06:09Z</time>
      </trkpt>
      <trkpt lat="45.28575" lon="5.77947">
        <ele>1635.5</ele>
        <time>2015-08-22T19:06:14Z</time>
      </trkpt>
      <trkpt lat="45.28575" lon="5.77949">
        <ele>1636.3</ele>
        <time>2015-08-22T19:06:16Z</time>
      </trkpt>
      <trkpt lat="45.28576" lon="5.77952">
        <ele>1637.3</ele>
        <time>2015-08-22T19:06:19Z</time>
      </trkpt>
      <trkpt lat="45.28579" lon="5.7796">
        <ele>1639.3</ele>
        <time>2015-08-22T19:06:25Z</time>
      </trkpt>
      <trkpt lat="45.2858" lon="5.77965">
        <ele>1640.5</ele>
        <time>2015-08-22T19:06:30Z</time>
      </trkpt>
      <trkpt lat="45.2858" lon="5.77965">
        <ele>1640.9</ele>
        <time>2015-08-22T19:06:31Z</time>
      </trkpt>
      <trkpt lat="45.2858" lon="5.77969">
        <ele>1642.1</ele>
        <time>2015-08-22T19:06:35Z</time>
      </trkpt>
      <trkpt lat="45.2858" lon="5.77971">
        <ele>1642.8</ele>
        <time>2015-08-22T19:06:37Z</time>
      </trkpt>
      <trkpt lat="45.28581" lon="5.77975">
        <ele>1643.8</ele>
        <time>2015-08-22T19:06:43Z</time>
      </trkpt>
      <trkpt lat="45.28582" lon="5.7798">
        <ele>1645.6</ele>
        <time>2015-08-22T19:06:48Z</time>
      </trkpt>
      <trkpt lat="45.28582" lon="5.77985">
        <ele>1647</ele>
        <time>2015-08-22T19:06:54Z</time>
      </trkpt>
      <trkpt lat="45.28584" lon="5.77988">
        <ele>1647.7</ele>
        <time>2015-08-22T19:07:02Z</time>
      </trkpt>
      <trkpt lat="45.28588" lon="5.77993">
        <ele>1647.8</ele>
        <time>2015-08-22T19:07:08Z</time>
      </trkpt>
      <trkpt lat="45.28588" lon="5.77996">
        <ele>1649.2</ele>
        <time>2015-08-22T19:07:11Z</time>
      </trkpt>
      <trkpt lat="45.28589" lon="5.77997">
        <ele>1649.1</ele>
        <time>2015-08-22T19:07:13Z</time>
      </trkpt>
      <trkpt lat="45.28592" lon="5.78001">
        <ele>1649.5</ele>
        <time>2015-08-22T19:07:20Z</time>
      </trkpt>
      <trkpt lat="45.28596" lon="5.78003">
        <ele>1648.6</ele>
        <time>2015-08-22T19:07:24Z</time>
      </trkpt>
      <trkpt lat="45.28606" lon="5.78005">
        <ele>1645.8</ele>
        <time>2015-08-22T19:07:32Z</time>
      </trkpt>
      <trkpt lat="45.28612" lon="5.78009">
        <ele>1644.9</ele>
        <time>2015-08-22T19:07:39Z</time>
      </trkpt>
      <trkpt lat="45.28614" lon="5.78012">
        <ele>1645</ele>
        <time>2015-08-22T19:07:44Z</time>
      </trkpt>
      <trkpt lat="45.28615" lon="5.78014">
        <ele>1645.3</ele>
        <time>2015-08-22T19:07:46Z</time>
      </trkpt>
      <trkpt lat="45.28619" lon="5.78017">
        <ele>1645.2</ele>
        <time>2015-08-22T19:07:51Z</time>
      </trkpt>
      <trkpt lat="45.28626" lon="5.78019">
        <ele>1643.7</ele>
        <time>2015-08-22T19:07:58Z</time>
      </trkpt>
      <trkpt lat="45.28631" lon="5.78021">
        <ele>1644.4</ele>
        <time>2015-08-22T19:08:03Z</time>
      </trkpt>
      <trkpt lat="45.28633" lon="5.78022">
        <ele>1644.5</ele>
        <time>2015-08-22T19:08:06Z</time>
      </trkpt>
      <trkpt lat="45.28634" lon="5.78023">
        <ele>1644.9</ele>
        <time>2015-08-22T19:08:08Z</time>
      </trkpt>
      <trkpt lat="45.28636" lon="5.78026">
        <ele>1646.1</ele>
        <time>2015-08-22T19:08:12Z</time>
      </trkpt>
      <trkpt lat="45.28639" lon="5.78028">
        <ele>1646.9</ele>
        <time>2015-08-22T19:08:17Z</time>
      </trkpt>
      <trkpt lat="45.28645" lon="5.78027">
        <ele>1646.3</ele>
        <time>2015-08-22T19:08:25Z</time>
      </trkpt>
      <trkpt lat="45.28653" lon="5.78027">
        <ele>1645.9</ele>
        <time>2015-08-22T19:08:32Z</time>
      </trkpt>
      <trkpt lat="45.28658" lon="5.78029">
        <ele>1646.7</ele>
        <time>2015-08-22T19:08:39Z</time>
      </trkpt>
      <trkpt lat="45.28661" lon="5.7803">
        <ele>1647.4</ele>
        <time>2015-08-22T19:08:43Z</time>
      </trkpt>
      <trkpt lat="45.28665" lon="5.7803">
        <ele>1647.1</ele>
        <time>2015-08-22T19:08:49Z</time>
      </trkpt>
      <trkpt lat="45.28671" lon="5.78027">
        <ele>1646</ele>
        <time>2015-08-22T19:08:55Z</time>
      </trkpt>
      <trkpt lat="45.28672" lon="5.78027">
        <ele>1645.7</ele>
        <time>2015-08-22T19:08:56Z</time>
      </trkpt>
      <trkpt lat="45.28679" lon="5.78023">
        <ele>1644</ele>
        <time>2015-08-22T19:09:01Z</time>
      </trkpt>
      <trkpt lat="45.28685" lon="5.78019">
        <ele>1642.4</ele>
        <time>2015-08-22T19:09:07Z</time>
      </trkpt>
      <trkpt lat="45.28694" lon="5.78017">
        <ele>1641.3</ele>
        <time>2015-08-22T19:09:14Z</time>
      </trkpt>
      <trkpt lat="45.28701" lon="5.78019">
        <ele>1641.7</ele>
        <time>2015-08-22T19:09:21Z</time>
      </trkpt>
      <trkpt lat="45.28703" lon="5.7802">
        <ele>1642.2</ele>
        <time>2015-08-22T19:09:23Z</time>
      </trkpt>
      <trkpt lat="45.287" lon="5.78021">
        <ele>1642.9</ele>
        <time>2015-08-22T19:09:26Z</time>
      </trkpt>
      <trkpt lat="45.28694" lon="5.78027">
        <ele>1645.3</ele>
        <time>2015-08-22T19:09:34Z</time>
      </trkpt>
      <trkpt lat="45.28691" lon="5.7803">
        <ele>1646.9</ele>
        <time>2015-08-22T19:09:38Z</time>
      </trkpt>
      <trkpt lat="45.28688" lon="5.78035">
        <ele>1649.2</ele>
        <time>2015-08-22T19:09:42Z</time>
      </trkpt>
      <trkpt lat="45.28685" lon="5.7804">
        <ele>1651.4</ele>
        <time>2015-08-22T19:09:46Z</time>
      </trkpt>
      <trkpt lat="45.28684" lon="5.78044">
        <ele>1652.9</ele>
        <time>2015-08-22T19:09:49Z</time>
      </trkpt>
      <trkpt lat="45.28683" lon="5.78046">
        <ele>1653.9</ele>
        <time>2015-08-22T19:09:51Z</time>
      </trkpt>
      <trkpt lat="45.28682" lon="5.7805">
        <ele>1655.5</ele>
        <time>2015-08-22T19:09:55Z</time>
      </trkpt>
      <trkpt lat="45.28679" lon="5.78057">
        <ele>1658.1</ele>
        <time>2015-08-22T19:10:01Z</time>
      </trkpt>
      <trkpt lat="45.28678" lon="5.78057">
        <ele>1658.2</ele>
        <time>2015-08-22T19:10:02Z</time>
      </trkpt>
      <trkpt lat="45.28676" lon="5.78061">
        <ele>1659.9</ele>
        <time>2015-08-22T19:10:06Z</time>
      </trkpt>
      <trkpt lat="45.28675" lon="5.78062">
        <ele>1660.2</ele>
        <time>2015-08-22T19:10:07Z</time>
      </trkpt>
      <trkpt lat="45.28669" lon="5.78065">
        <ele>1661.9</ele>
        <time>2015-08-22T19:10:13Z</time>
      </trkpt>
      <trkpt lat="45.28666" lon="5.7807">
        <ele>1664</ele>
        <time>2015-08-22T19:10:18Z</time>
      </trkpt>
      <trkpt lat="45.28666" lon="5.78071">
        <ele>1664.3</ele>
        <time>2015-08-22T19:10:19Z</time>
      </trkpt>
      <trkpt lat="45.28663" lon="5.78073">
        <ele>1665.1</ele>
        <time>2015-08-22T19:10:23Z</time>
      </trkpt>
      <trkpt lat="45.28661" lon="5.78075">
        <ele>1666</ele>
        <time>2015-08-22T19:10:26Z</time>
      </trkpt>
      <trkpt lat="45.28656" lon="5.78078">
        <ele>1667.8</ele>
        <time>2015-08-22T19:10:32Z</time>
      </trkpt>
      <trkpt lat="45.2865" lon="5.78083">
        <ele>1670</ele>
        <time>2015-08-22T19:10:38Z</time>
      </trkpt>
      <trkpt lat="45.28646" lon="5.78086">
        <ele>1671.2</ele>
        <time>2015-08-22T19:10:43Z</time>
      </trkpt>
      <trkpt lat="45.2864" lon="5.78087">
        <ele>1672.2</ele>
        <time>2015-08-22T19:10:49Z</time>
      </trkpt>
      <trkpt lat="45.28635" lon="5.7809">
        <ele>1673.4</ele>
        <time>2015-08-22T19:10:55Z</time>
      </trkpt>
      <trkpt lat="45.28634" lon="5.7809">
        <ele>1673.6</ele>
        <time>2015-08-22T19:10:56Z</time>
      </trkpt>
      <trkpt lat="45.2863" lon="5.78092">
        <ele>1674.6</ele>
        <time>2015-08-22T19:11:01Z</time>
      </trkpt>
      <trkpt lat="45.2863" lon="5.78092">
        <ele>1674.8</ele>
        <time>2015-08-22T19:11:02Z</time>
      </trkpt>
      <trkpt lat="45.28626" lon="5.78094">
        <ele>1675.8</ele>
        <time>2015-08-22T19:11:07Z</time>
      </trkpt>
      <trkpt lat="45.28619" lon="5.78095">
        <ele>1679.2</ele>
        <time>2015-08-22T19:11:14Z</time>
      </trkpt>
      <trkpt lat="45.28613" lon="5.78097">
        <ele>1683.4</ele>
        <time>2015-08-22T19:11:20Z</time>
      </trkpt>
      <trkpt lat="45.28607" lon="5.78101">
        <ele>1688.5</ele>
        <time>2015-08-22T19:11:27Z</time>
      </trkpt>
      <trkpt lat="45.28603" lon="5.78104">
        <ele>1692.5</ele>
        <time>2015-08-22T19:11:33Z</time>
      </trkpt>
      <trkpt lat="45.28603" lon="5.78108">
        <ele>1694.3</ele>
        <time>2015-08-22T19:11:37Z</time>
      </trkpt>
      <trkpt lat="45.28606" lon="5.78108">
        <ele>1693.1</ele>
        <time>2015-08-22T19:11:40Z</time>
      </trkpt>
      <trkpt lat="45.28606" lon="5.78108">
        <ele>1692.5</ele>
        <time>2015-08-22T19:11:41Z</time>
      </trkpt>
      <trkpt lat="45.28609" lon="5.78107">
        <ele>1690.9</ele>
        <time>2015-08-22T19:11:44Z</time>
      </trkpt>
      <trkpt lat="45.28611" lon="5.78108">
        <ele>1690.1</ele>
        <time>2015-08-22T19:11:46Z</time>
      </trkpt>
      <trkpt lat="45.28615" lon="5.78112">
        <ele>1689.7</ele>
        <time>2015-08-22T19:11:51Z</time>
      </trkpt>
      <trkpt lat="45.28617" lon="5.78114">
        <ele>1689.5</ele>
        <time>2015-08-22T19:11:55Z</time>
      </trkpt>
      <trkpt lat="45.2862" lon="5.78116">
        <ele>1688.5</ele>
        <time>2015-08-22T19:11:58Z</time>
      </trkpt>
      <trkpt lat="45.28624" lon="5.78119">
        <ele>1687.8</ele>
        <time>2015-08-22T19:12:02Z</time>
      </trkpt>
      <trkpt lat="45.28626" lon="5.7812">
        <ele>1687.7</ele>
        <time>2015-08-22T19:12:04Z</time>
      </trkpt>
      <trkpt lat="45.28629" lon="5.78122">
        <ele>1688.4</ele>
        <time>2015-08-22T19:12:07Z</time>
      </trkpt>
      <trkpt lat="45.28632" lon="5.78125">
        <ele>1689.7</ele>
        <time>2015-08-22T19:12:11Z</time>
      </trkpt>
      <trkpt lat="45.2864" lon="5.78128">
        <ele>1690.8</ele>
        <time>2015-08-22T19:12:18Z</time>
      </trkpt>
      <trkpt lat="45.28645" lon="5.78129">
        <ele>1690.7</ele>
        <time>2015-08-22T19:12:23Z</time>
      </trkpt>
      <trkpt lat="45.28654" lon="5.78129">
        <ele>1690.5</ele>
        <time>2015-08-22T19:12:30Z</time>
      </trkpt>
      <trkpt lat="45.28661" lon="5.7813">
        <ele>1690.5</ele>
        <time>2015-08-22T19:12:36Z</time>
      </trkpt>
      <trkpt lat="45.28667" lon="5.78132">
        <ele>1690.8</ele>
        <time>2015-08-22T19:12:42Z</time>
      </trkpt>
      <trkpt lat="45.28669" lon="5.78132">
        <ele>1690.7</ele>
        <time>2015-08-22T19:12:44Z</time>
      </trkpt>
      <trkpt lat="45.28672" lon="5.78131">
        <ele>1690</ele>
        <time>2015-08-22T19:12:47Z</time>
      </trkpt>
      <trkpt lat="45.28673" lon="5.78131">
        <ele>1690</ele>
        <time>2015-08-22T19:12:48Z</time>
      </trkpt>
      <trkpt lat="45.28677" lon="5.78131">
        <ele>1689.6</ele>
        <time>2015-08-22T19:12:51Z</time>
      </trkpt>
      <trkpt lat="45.28679" lon="5.78131">
        <ele>1689.3</ele>
        <time>2015-08-22T19:12:54Z</time>
      </trkpt>
      <trkpt lat="45.28683" lon="5.7813">
        <ele>1688.6</ele>
        <time>2015-08-22T19:12:58Z</time>
      </trkpt>
      <trkpt lat="45.28687" lon="5.78131">
        <ele>1688.3</ele>
        <time>2015-08-22T19:13:02Z</time>
      </trkpt>
      <trkpt lat="45.28691" lon="5.7813">
        <ele>1687.8</ele>
        <time>2015-08-22T19:13:06Z</time>
      </trkpt>
      <trkpt lat="45.28693" lon="5.7813">
        <ele>1687.7</ele>
        <time>2015-08-22T19:13:08Z</time>
      </trkpt>
      <trkpt lat="45.28696" lon="5.7813">
        <ele>1687.5</ele>
        <time>2015-08-22T19:13:12Z</time>
      </trkpt>
      <trkpt lat="45.28701" lon="5.78131">
        <ele>1687.4</ele>
        <time>2015-08-22T19:13:19Z</time>
      </trkpt>
      <trkpt lat="45.28707" lon="5.78134">
        <ele>1688</ele>
        <time>2015-08-22T19:13:25Z</time>
      </trkpt>
      <trkpt lat="45.28713" lon="5.78136">
        <ele>1689</ele>
        <time>2015-08-22T19:13:31Z</time>
      </trkpt>
      <trkpt lat="45.28714" lon="5.78137">
        <ele>1689.3</ele>
        <time>2015-08-22T19:13:33Z</time>
      </trkpt>
      <trkpt lat="45.28714" lon="5.78138">
        <ele>1689.7</ele>
        <time>2015-08-22T19:13:36Z</time>
      </trkpt>
      <trkpt lat="45.2871" lon="5.7814">
        <ele>1690.6</ele>
        <time>2015-08-22T19:13:42Z</time>
      </trkpt>
      <trkpt lat="45.28706" lon="5.78144">
        <ele>1692.4</ele>
        <time>2015-08-22T19:13:48Z</time>
      </trkpt>
      <trkpt lat="45.28701" lon="5.78148">
        <ele>1695.1</ele>
        <time>2015-08-22T19:13:55Z</time>
      </trkpt>
      <trkpt lat="45.28697" lon="5.78153">
        <ele>1698.2</ele>
        <time>2015-08-22T19:14:02Z</time>
      </trkpt>
      <trkpt lat="45.28695" lon="5.78159">
        <ele>1700.9</ele>
        <time>2015-08-22T19:14:08Z</time>
      </trkpt>
      <trkpt lat="45.28692" lon="5.78164">
        <ele>1703.8</ele>
        <time>2015-08-22T19:14:15Z</time>
      </trkpt>
      <trkpt lat="45.28689" lon="5.78168">
        <ele>1706.7</ele>
        <time>2015-08-22T19:14:21Z</time>
      </trkpt>
      <trkpt lat="45.28686" lon="5.78174">
        <ele>1710.1</ele>
        <time>2015-08-22T19:14:27Z</time>
      </trkpt>
      <trkpt lat="45.28686" lon="5.78177">
        <ele>1711.7</ele>
        <time>2015-08-22T19:14:30Z</time>
      </trkpt>
      <trkpt lat="45.28685" lon="5.7818">
        <ele>1713.2</ele>
        <time>2015-08-22T19:14:34Z</time>
      </trkpt>
      <trkpt lat="45.28684" lon="5.78183">
        <ele>1715.6</ele>
        <time>2015-08-22T19:14:39Z</time>
      </trkpt>
      <trkpt lat="45.28682" lon="5.78187">
        <ele>1717.9</ele>
        <time>2015-08-22T19:14:44Z</time>
      </trkpt>
      <trkpt lat="45.28679" lon="5.78191">
        <ele>1720.6</ele>
        <time>2015-08-22T19:14:50Z</time>
      </trkpt>
      <trkpt lat="45.28676" lon="5.78194">
        <ele>1723.4</ele>
        <time>2015-08-22T19:14:56Z</time>
      </trkpt>
      <trkpt lat="45.28669" lon="5.78194">
        <ele>1725.3</ele>
        <time>2015-08-22T19:15:02Z</time>
      </trkpt>
      <trkpt lat="45.28663" lon="5.78196">
        <ele>1728.4</ele>
        <time>2015-08-22T19:15:08Z</time>
      </trkpt>
      <trkpt lat="45.28658" lon="5.78198">
        <ele>1730.9</ele>
        <time>2015-08-22T19:15:14Z</time>
      </trkpt>
      <trkpt lat="45.28652" lon="5.78198">
        <ele>1732.8</ele>
        <time>2015-08-22T19:15:21Z</time>
      </trkpt>
      <trkpt lat="45.28648" lon="5.78201">
        <ele>1735.6</ele>
        <time>2015-08-22T19:15:28Z</time>
      </trkpt>
      <trkpt lat="45.28645" lon="5.78203">
        <ele>1737.9</ele>
        <time>2015-08-22T19:15:33Z</time>
      </trkpt>
      <trkpt lat="45.28649" lon="5.78207">
        <ele>1739.3</ele>
        <time>2015-08-22T19:15:39Z</time>
      </trkpt>
      <trkpt lat="45.2865" lon="5.78209">
        <ele>1739.9</ele>
        <time>2015-08-22T19:15:41Z</time>
      </trkpt>
      <trkpt lat="45.28652" lon="5.78211">
        <ele>1740.5</ele>
        <time>2015-08-22T19:15:44Z</time>
      </trkpt>
      <trkpt lat="45.28655" lon="5.78217">
        <ele>1743</ele>
        <time>2015-08-22T19:15:52Z</time>
      </trkpt>
      <trkpt lat="45.28657" lon="5.7822">
        <ele>1744.5</ele>
        <time>2015-08-22T19:15:57Z</time>
      </trkpt>
      <trkpt lat="45.28661" lon="5.78222">
        <ele>1744.1</ele>
        <time>2015-08-22T19:16:03Z</time>
      </trkpt>
      <trkpt lat="45.28661" lon="5.78223">
        <ele>1744.9</ele>
        <time>2015-08-22T19:16:07Z</time>
      </trkpt>
      <trkpt lat="45.28663" lon="5.78225">
        <ele>1745.4</ele>
        <time>2015-08-22T19:16:11Z</time>
      </trkpt>
      <trkpt lat="45.28665" lon="5.78227">
        <ele>1746.3</ele>
        <time>2015-08-22T19:16:16Z</time>
      </trkpt>
      <trkpt lat="45.28668" lon="5.7823">
        <ele>1746.7</ele>
        <time>2015-08-22T19:16:21Z</time>
      </trkpt>
      <trkpt lat="45.2867" lon="5.78234">
        <ele>1748.5</ele>
        <time>2015-08-22T19:16:27Z</time>
      </trkpt>
      <trkpt lat="45.28672" lon="5.78237">
        <ele>1749.9</ele>
        <time>2015-08-22T19:16:32Z</time>
      </trkpt>
      <trkpt lat="45.28676" lon="5.7824">
        <ele>1750.5</ele>
        <time>2015-08-22T19:16:39Z</time>
      </trkpt>
      <trkpt lat="45.28679" lon="5.78241">
        <ele>1750.3</ele>
        <time>2015-08-22T19:16:45Z</time>
      </trkpt>
      <trkpt lat="45.28684" lon="5.78244">
        <ele>1750.3</ele>
        <time>2015-08-22T19:16:53Z</time>
      </trkpt>
      <trkpt lat="45.28687" lon="5.78244">
        <ele>1749.6</ele>
        <time>2015-08-22T19:16:58Z</time>
      </trkpt>
      <trkpt lat="45.28687" lon="5.78245">
        <ele>1750.2</ele>
        <time>2015-08-22T19:17:02Z</time>
      </trkpt>
      <trkpt lat="45.28683" lon="5.78247">
        <ele>1752.8</ele>
        <time>2015-08-22T19:17:08Z</time>
      </trkpt>
      <trkpt lat="45.2868" lon="5.78251">
        <ele>1756.2</ele>
        <time>2015-08-22T19:17:14Z</time>
      </trkpt>
      <trkpt lat="45.28674" lon="5.78254">
        <ele>1759.3</ele>
        <time>2015-08-22T19:17:21Z</time>
      </trkpt>
      <trkpt lat="45.28667" lon="5.78252">
        <ele>1761</ele>
        <time>2015-08-22T19:17:27Z</time>
      </trkpt>
      <trkpt lat="45.28655" lon="5.7825">
        <ele>1762.8</ele>
        <time>2015-08-22T19:17:35Z</time>
      </trkpt>
      <trkpt lat="45.28648" lon="5.78243">
        <ele>1761</ele>
        <time>2015-08-22T19:17:42Z</time>
      </trkpt>
      <trkpt lat="45.28643" lon="5.78238">
        <ele>1759.9</ele>
        <time>2015-08-22T19:17:47Z</time>
      </trkpt>
      <trkpt lat="45.28638" lon="5.78239">
        <ele>1761.7</ele>
        <time>2015-08-22T19:17:53Z</time>
      </trkpt>
      <trkpt lat="45.28632" lon="5.78237">
        <ele>1762.1</ele>
        <time>2015-08-22T19:18:01Z</time>
      </trkpt>
      <trkpt lat="45.28627" lon="5.78237">
        <ele>1763.5</ele>
        <time>2015-08-22T19:18:07Z</time>
      </trkpt>
      <trkpt lat="45.28625" lon="5.78236">
        <ele>1763.9</ele>
        <time>2015-08-22T19:18:10Z</time>
      </trkpt>
      <trkpt lat="45.28623" lon="5.78237">
        <ele>1764.9</ele>
        <time>2015-08-22T19:18:13Z</time>
      </trkpt>
      <trkpt lat="45.28618" lon="5.78236">
        <ele>1766.3</ele>
        <time>2015-08-22T19:18:20Z</time>
      </trkpt>
      <trkpt lat="45.28615" lon="5.78239">
        <ele>1768.7</ele>
        <time>2015-08-22T19:18:27Z</time>
      </trkpt>
      <trkpt lat="45.28617" lon="5.78244">
        <ele>1770.8</ele>
        <time>2015-08-22T19:18:33Z</time>
      </trkpt>
      <trkpt lat="45.2862" lon="5.7825">
        <ele>1773.2</ele>
        <time>2015-08-22T19:18:41Z</time>
      </trkpt>
      <trkpt lat="45.28619" lon="5.78253">
        <ele>1775.1</ele>
        <time>2015-08-22T19:18:47Z</time>
      </trkpt>
      <trkpt lat="45.28615" lon="5.7825">
        <ele>1775</ele>
        <time>2015-08-22T19:18:53Z</time>
      </trkpt>
      <trkpt lat="45.2861" lon="5.78249">
        <ele>1775.8</ele>
        <time>2015-08-22T19:18:59Z</time>
      </trkpt>
      <trkpt lat="45.28608" lon="5.78249">
        <ele>1775.8</ele>
        <time>2015-08-22T19:19:01Z</time>
      </trkpt>
      <trkpt lat="45.28605" lon="5.78247">
        <ele>1775.8</ele>
        <time>2015-08-22T19:19:05Z</time>
      </trkpt>
      <trkpt lat="45.28605" lon="5.78247">
        <ele>1775.9</ele>
        <time>2015-08-22T19:19:06Z</time>
      </trkpt>
      <trkpt lat="45.28603" lon="5.78247">
        <ele>1776.2</ele>
        <time>2015-08-22T19:19:11Z</time>
      </trkpt>
      <trkpt lat="45.286" lon="5.78247">
        <ele>1777.3</ele>
        <time>2015-08-22T19:19:16Z</time>
      </trkpt>
      <trkpt lat="45.286" lon="5.78253">
        <ele>1780.1</ele>
        <time>2015-08-22T19:19:21Z</time>
      </trkpt>
      <trkpt lat="45.28602" lon="5.78257">
        <ele>1781.7</ele>
        <time>2015-08-22T19:19:27Z</time>
      </trkpt>
      <trkpt lat="45.28599" lon="5.78258">
        <ele>1783.2</ele>
        <time>2015-08-22T19:19:35Z</time>
      </trkpt>
      <trkpt lat="45.28594" lon="5.78256">
        <ele>1783.3</ele>
        <time>2015-08-22T19:19:41Z</time>
      </trkpt>
      <trkpt lat="45.28589" lon="5.78256">
        <ele>1784.6</ele>
        <time>2015-08-22T19:19:48Z</time>
      </trkpt>
      <trkpt lat="45.28582" lon="5.78256">
        <ele>1786.3</ele>
        <time>2015-08-22T19:19:55Z</time>
      </trkpt>
      <trkpt lat="45.28578" lon="5.78255">
        <ele>1786.9</ele>
        <time>2015-08-22T19:19:59Z</time>
      </trkpt>
      <trkpt lat="45.28576" lon="5.78255">
        <ele>1787.9</ele>
        <time>2015-08-22T19:20:02Z</time>
      </trkpt>
      <trkpt lat="45.28569" lon="5.78254">
        <ele>1788.6</ele>
        <time>2015-08-22T19:20:08Z</time>
      </trkpt>
      <trkpt lat="45.28568" lon="5.78253">
        <ele>1788.8</ele>
        <time>2015-08-22T19:20:09Z</time>
      </trkpt>
      <trkpt lat="45.2856" lon="5.78252">
        <ele>1790.3</ele>
        <time>2015-08-22T19:20:16Z</time>
      </trkpt>
      <trkpt lat="45.28551" lon="5.78251">
        <ele>1792.1</ele>
        <time>2015-08-22T19:20:23Z</time>
      </trkpt>
      <trkpt lat="45.28544" lon="5.78253">
        <ele>1795</ele>
        <time>2015-08-22T19:20:30Z</time>
      </trkpt>
      <trkpt lat="45.28535" lon="5.78251">
        <ele>1796.1</ele>
        <time>2015-08-22T19:20:37Z</time>
      </trkpt>
      <trkpt lat="45.28532" lon="5.7825">
        <ele>1796.4</ele>
        <time>2015-08-22T19:20:40Z</time>
      </trkpt>
      <trkpt lat="45.28529" lon="5.78249">
        <ele>1796.5</ele>
        <time>2015-08-22T19:20:43Z</time>
      </trkpt>
      <trkpt lat="45.28526" lon="5.78248">
        <ele>1796.6</ele>
        <time>2015-08-22T19:20:45Z</time>
      </trkpt>
      <trkpt lat="45.28522" lon="5.7825">
        <ele>1798.1</ele>
        <time>2015-08-22T19:20:49Z</time>
      </trkpt>
      <trkpt lat="45.2852" lon="5.7825">
        <ele>1798.5</ele>
        <time>2015-08-22T19:20:51Z</time>
      </trkpt>
      <trkpt lat="45.28515" lon="5.78248">
        <ele>1798.7</ele>
        <time>2015-08-22T19:20:55Z</time>
      </trkpt>
      <trkpt lat="45.28508" lon="5.78246">
        <ele>1799.6</ele>
        <time>2015-08-22T19:21:02Z</time>
      </trkpt>
      <trkpt lat="45.28502" lon="5.78247">
        <ele>1801</ele>
        <time>2015-08-22T19:21:08Z</time>
      </trkpt>
      <trkpt lat="45.28497" lon="5.78247">
        <ele>1801.9</ele>
        <time>2015-08-22T19:21:14Z</time>
      </trkpt>
      <trkpt lat="45.28495" lon="5.78246">
        <ele>1802</ele>
        <time>2015-08-22T19:21:16Z</time>
      </trkpt>
      <trkpt lat="45.28491" lon="5.78247">
        <ele>1802.9</ele>
        <time>2015-08-22T19:21:21Z</time>
      </trkpt>
      <trkpt lat="45.28489" lon="5.78247">
        <ele>1803.2</ele>
        <time>2015-08-22T19:21:23Z</time>
      </trkpt>
      <trkpt lat="45.28487" lon="5.78247">
        <ele>1803.7</ele>
        <time>2015-08-22T19:21:26Z</time>
      </trkpt>
      <trkpt lat="45.28485" lon="5.78247">
        <ele>1804</ele>
        <time>2015-08-22T19:21:28Z</time>
      </trkpt>
      <trkpt lat="45.28481" lon="5.78246">
        <ele>1804.5</ele>
        <time>2015-08-22T19:21:33Z</time>
      </trkpt>
      <trkpt lat="45.28476" lon="5.78244">
        <ele>1805.1</ele>
        <time>2015-08-22T19:21:39Z</time>
      </trkpt>
      <trkpt lat="45.28475" lon="5.78244">
        <ele>1805.2</ele>
        <time>2015-08-22T19:21:40Z</time>
      </trkpt>
      <trkpt lat="45.28471" lon="5.78244">
        <ele>1806.2</ele>
        <time>2015-08-22T19:21:45Z</time>
      </trkpt>
      <trkpt lat="45.2847" lon="5.78246">
        <ele>1806.6</ele>
        <time>2015-08-22T19:21:46Z</time>
      </trkpt>
      <trkpt lat="45.28472" lon="5.78251">
        <ele>1807.8</ele>
        <time>2015-08-22T19:21:51Z</time>
      </trkpt>
      <trkpt lat="45.28477" lon="5.78258">
        <ele>1808.7</ele>
        <time>2015-08-22T19:21:57Z</time>
      </trkpt>
      <trkpt lat="45.28477" lon="5.78259">
        <ele>1809</ele>
        <time>2015-08-22T19:21:58Z</time>
      </trkpt>
      <trkpt lat="45.28478" lon="5.78262">
        <ele>1809.9</ele>
        <time>2015-08-22T19:22:03Z</time>
      </trkpt>
      <trkpt lat="45.28478" lon="5.78262">
        <ele>1809.9</ele>
        <time>2015-08-22T19:22:04Z</time>
      </trkpt>
      <trkpt lat="45.28471" lon="5.78259">
        <ele>1810.2</ele>
        <time>2015-08-22T19:22:10Z</time>
      </trkpt>
      <trkpt lat="45.28466" lon="5.78257">
        <ele>1810.6</ele>
        <time>2015-08-22T19:22:15Z</time>
      </trkpt>
      <trkpt lat="45.2846" lon="5.78258">
        <ele>1811.8</ele>
        <time>2015-08-22T19:22:22Z</time>
      </trkpt>
      <trkpt lat="45.28457" lon="5.78258">
        <ele>1812.4</ele>
        <time>2015-08-22T19:22:28Z</time>
      </trkpt>
      <trkpt lat="45.28453" lon="5.78258">
        <ele>1813</ele>
        <time>2015-08-22T19:22:32Z</time>
      </trkpt>
      <trkpt lat="45.28449" lon="5.78257">
        <ele>1813.3</ele>
        <time>2015-08-22T19:22:35Z</time>
      </trkpt>
      <trkpt lat="45.2844" lon="5.78257">
        <ele>1814.8</ele>
        <time>2015-08-22T19:22:43Z</time>
      </trkpt>
      <trkpt lat="45.28433" lon="5.78259">
        <ele>1816.5</ele>
        <time>2015-08-22T19:22:50Z</time>
      </trkpt>
      <trkpt lat="45.2843" lon="5.78259">
        <ele>1817.1</ele>
        <time>2015-08-22T19:22:53Z</time>
      </trkpt>
      <trkpt lat="45.28428" lon="5.78261">
        <ele>1817.7</ele>
        <time>2015-08-22T19:22:55Z</time>
      </trkpt>
      <trkpt lat="45.28429" lon="5.78265">
        <ele>1818.8</ele>
        <time>2015-08-22T19:22:59Z</time>
      </trkpt>
      <trkpt lat="45.28431" lon="5.78269">
        <ele>1819.5</ele>
        <time>2015-08-22T19:23:02Z</time>
      </trkpt>
      <trkpt lat="45.28433" lon="5.78272">
        <ele>1820.1</ele>
        <time>2015-08-22T19:23:05Z</time>
      </trkpt>
      <trkpt lat="45.28435" lon="5.78276">
        <ele>1820.8</ele>
        <time>2015-08-22T19:23:10Z</time>
      </trkpt>
      <trkpt lat="45.28437" lon="5.78285">
        <ele>1822.7</ele>
        <time>2015-08-22T19:23:17Z</time>
      </trkpt>
      <trkpt lat="45.28438" lon="5.7829">
        <ele>1824</ele>
        <time>2015-08-22T19:23:23Z</time>
      </trkpt>
      <trkpt lat="45.28437" lon="5.78295">
        <ele>1825.7</ele>
        <time>2015-08-22T19:23:29Z</time>
      </trkpt>
      <trkpt lat="45.28434" lon="5.78298">
        <ele>1827.1</ele>
        <time>2015-08-22T19:23:35Z</time>
      </trkpt>
      <trkpt lat="45.28428" lon="5.783">
        <ele>1828.9</ele>
        <time>2015-08-22T19:23:43Z</time>
      </trkpt>
      <trkpt lat="45.28422" lon="5.78303">
        <ele>1830.6</ele>
        <time>2015-08-22T19:23:50Z</time>
      </trkpt>
      <trkpt lat="45.28424" lon="5.78307">
        <ele>1831.6</ele>
        <time>2015-08-22T19:23:54Z</time>
      </trkpt>
      <trkpt lat="45.28425" lon="5.78307">
        <ele>1831.7</ele>
        <time>2015-08-22T19:23:55Z</time>
      </trkpt>
      <trkpt lat="45.28429" lon="5.78314">
        <ele>1833.2</ele>
        <time>2015-08-22T19:24:02Z</time>
      </trkpt>
      <trkpt lat="45.2843" lon="5.78316">
        <ele>1833.6</ele>
        <time>2015-08-22T19:24:04Z</time>
      </trkpt>
      <trkpt lat="45.28433" lon="5.7832">
        <ele>1834.4</ele>
        <time>2015-08-22T19:24:08Z</time>
      </trkpt>
      <trkpt lat="45.28434" lon="5.78324">
        <ele>1835.4</ele>
        <time>2015-08-22T19:24:12Z</time>
      </trkpt>
      <trkpt lat="45.28436" lon="5.78325">
        <ele>1835.6</ele>
        <time>2015-08-22T19:24:15Z</time>
      </trkpt>
      <trkpt lat="45.28436" lon="5.78326">
        <ele>1835.9</ele>
        <time>2015-08-22T19:24:16Z</time>
      </trkpt>
      <trkpt lat="45.28438" lon="5.7833">
        <ele>1836.9</ele>
        <time>2015-08-22T19:24:20Z</time>
      </trkpt>
      <trkpt lat="45.28439" lon="5.78333">
        <ele>1837.7</ele>
        <time>2015-08-22T19:24:25Z</time>
      </trkpt>
      <trkpt lat="45.28436" lon="5.78336">
        <ele>1839.2</ele>
        <time>2015-08-22T19:24:31Z</time>
      </trkpt>
      <trkpt lat="45.28432" lon="5.78339">
        <ele>1840.6</ele>
        <time>2015-08-22T19:24:36Z</time>
      </trkpt>
      <trkpt lat="45.28426" lon="5.78339">
        <ele>1841.8</ele>
        <time>2015-08-22T19:24:43Z</time>
      </trkpt>
      <trkpt lat="45.28426" lon="5.7834">
        <ele>1842.3</ele>
        <time>2015-08-22T19:24:44Z</time>
      </trkpt>
      <trkpt lat="45.28427" lon="5.78344">
        <ele>1843.3</ele>
        <time>2015-08-22T19:24:47Z</time>
      </trkpt>
      <trkpt lat="45.28429" lon="5.78346">
        <ele>1843.7</ele>
        <time>2015-08-22T19:24:49Z</time>
      </trkpt>
      <trkpt lat="45.28433" lon="5.78352">
        <ele>1844.8</ele>
        <time>2015-08-22T19:24:55Z</time>
      </trkpt>
      <trkpt lat="45.28438" lon="5.78358">
        <ele>1845.9</ele>
        <time>2015-08-22T19:25:02Z</time>
      </trkpt>
      <trkpt lat="45.28442" lon="5.78363">
        <ele>1847</ele>
        <time>2015-08-22T19:25:08Z</time>
      </trkpt>
      <trkpt lat="45.28443" lon="5.78366">
        <ele>1847.6</ele>
        <time>2015-08-22T19:25:11Z</time>
      </trkpt>
      <trkpt lat="45.28444" lon="5.78368">
        <ele>1848</ele>
        <time>2015-08-22T19:25:14Z</time>
      </trkpt>
      <trkpt lat="45.28443" lon="5.78368">
        <ele>1848.5</ele>
        <time>2015-08-22T19:25:19Z</time>
      </trkpt>
      <trkpt lat="45.28438" lon="5.78372">
        <ele>1850.4</ele>
        <time>2015-08-22T19:25:26Z</time>
      </trkpt>
      <trkpt lat="45.28433" lon="5.78375">
        <ele>1852.5</ele>
        <time>2015-08-22T19:25:33Z</time>
      </trkpt>
      <trkpt lat="45.28428" lon="5.78378">
        <ele>1854.2</ele>
        <time>2015-08-22T19:25:39Z</time>
      </trkpt>
      <trkpt lat="45.28421" lon="5.78382">
        <ele>1856.5</ele>
        <time>2015-08-22T19:25:47Z</time>
      </trkpt>
      <trkpt lat="45.28415" lon="5.78385">
        <ele>1858.1</ele>
        <time>2015-08-22T19:25:54Z</time>
      </trkpt>
      <trkpt lat="45.28414" lon="5.78385">
        <ele>1858.4</ele>
        <time>2015-08-22T19:25:55Z</time>
      </trkpt>
      <trkpt lat="45.28415" lon="5.78389">
        <ele>1859.4</ele>
        <time>2015-08-22T19:25:58Z</time>
      </trkpt>
      <trkpt lat="45.28415" lon="5.7839">
        <ele>1859.6</ele>
        <time>2015-08-22T19:25:59Z</time>
      </trkpt>
      <trkpt lat="45.28419" lon="5.78394">
        <ele>1860.4</ele>
        <time>2015-08-22T19:26:04Z</time>
      </trkpt>
      <trkpt lat="45.28423" lon="5.78398">
        <ele>1860.9</ele>
        <time>2015-08-22T19:26:10Z</time>
      </trkpt>
      <trkpt lat="45.28424" lon="5.78398">
        <ele>1861</ele>
        <time>2015-08-22T19:26:11Z</time>
      </trkpt>
      <trkpt lat="45.28427" lon="5.78401">
        <ele>1861.4</ele>
        <time>2015-08-22T19:26:15Z</time>
      </trkpt>
      <trkpt lat="45.28433" lon="5.78407">
        <ele>1862.6</ele>
        <time>2015-08-22T19:26:22Z</time>
      </trkpt>
      <trkpt lat="45.28439" lon="5.78414">
        <ele>1864.3</ele>
        <time>2015-08-22T19:26:30Z</time>
      </trkpt>
      <trkpt lat="45.28441" lon="5.78416">
        <ele>1864.5</ele>
        <time>2015-08-22T19:26:32Z</time>
      </trkpt>
      <trkpt lat="45.28444" lon="5.78417">
        <ele>1864.6</ele>
        <time>2015-08-22T19:26:36Z</time>
      </trkpt>
      <trkpt lat="45.28445" lon="5.78417">
        <ele>1864.7</ele>
        <time>2015-08-22T19:26:37Z</time>
      </trkpt>
      <trkpt lat="45.28446" lon="5.78419">
        <ele>1865.1</ele>
        <time>2015-08-22T19:26:39Z</time>
      </trkpt>
      <trkpt lat="45.28447" lon="5.78421">
        <ele>1865.9</ele>
        <time>2015-08-22T19:26:42Z</time>
      </trkpt>
      <trkpt lat="45.28449" lon="5.78427">
        <ele>1867.6</ele>
        <time>2015-08-22T19:26:49Z</time>
      </trkpt>
      <trkpt lat="45.28452" lon="5.78431">
        <ele>1868.5</ele>
        <time>2015-08-22T19:26:55Z</time>
      </trkpt>
      <trkpt lat="45.28455" lon="5.78435">
        <ele>1869.8</ele>
        <time>2015-08-22T19:27:01Z</time>
      </trkpt>
      <trkpt lat="45.28458" lon="5.78438">
        <ele>1870.8</ele>
        <time>2015-08-22T19:27:07Z</time>
      </trkpt>
      <trkpt lat="45.28462" lon="5.78441">
        <ele>1871.3</ele>
        <time>2015-08-22T19:27:13Z</time>
      </trkpt>
      <trkpt lat="45.28467" lon="5.78443">
        <ele>1871.7</ele>
        <time>2015-08-22T19:27:19Z</time>
      </trkpt>
      <trkpt lat="45.28471" lon="5.78445">
        <ele>1872.2</ele>
        <time>2015-08-22T19:27:25Z</time>
      </trkpt>
      <trkpt lat="45.28476" lon="5.78448">
        <ele>1873</ele>
        <time>2015-08-22T19:27:31Z</time>
      </trkpt>
      <trkpt lat="45.28476" lon="5.78449">
        <ele>1873.2</ele>
        <time>2015-08-22T19:27:32Z</time>
      </trkpt>
      <trkpt lat="45.28479" lon="5.78453">
        <ele>1874.4</ele>
        <time>2015-08-22T19:27:37Z</time>
      </trkpt>
      <trkpt lat="45.28487" lon="5.78454">
        <ele>1874.5</ele>
        <time>2015-08-22T19:27:45Z</time>
      </trkpt>
      <trkpt lat="45.28493" lon="5.78457">
        <ele>1875.1</ele>
        <time>2015-08-22T19:27:52Z</time>
      </trkpt>
      <trkpt lat="45.28497" lon="5.78461">
        <ele>1876.1</ele>
        <time>2015-08-22T19:27:58Z</time>
      </trkpt>
      <trkpt lat="45.28498" lon="5.78461">
        <ele>1876</ele>
        <time>2015-08-22T19:28:00Z</time>
      </trkpt>
      <trkpt lat="45.28502" lon="5.7846">
        <ele>1875.5</ele>
        <time>2015-08-22T19:28:05Z</time>
      </trkpt>
      <trkpt lat="45.28504" lon="5.78461">
        <ele>1875.7</ele>
        <time>2015-08-22T19:28:09Z</time>
      </trkpt>
      <trkpt lat="45.2851" lon="5.78466">
        <ele>1877</ele>
        <time>2015-08-22T19:28:17Z</time>
      </trkpt>
      <trkpt lat="45.28515" lon="5.78466">
        <ele>1876.9</ele>
        <time>2015-08-22T19:28:23Z</time>
      </trkpt>
      <trkpt lat="45.28519" lon="5.78467">
        <ele>1876.8</ele>
        <time>2015-08-22T19:28:28Z</time>
      </trkpt>
      <trkpt lat="45.2852" lon="5.78467">
        <ele>1876.7</ele>
        <time>2015-08-22T19:28:29Z</time>
      </trkpt>
      <trkpt lat="45.28523" lon="5.78468">
        <ele>1877.1</ele>
        <time>2015-08-22T19:28:34Z</time>
      </trkpt>
      <trkpt lat="45.28529" lon="5.78469">
        <ele>1877.1</ele>
        <time>2015-08-22T19:28:40Z</time>
      </trkpt>
      <trkpt lat="45.28534" lon="5.78473">
        <ele>1878.3</ele>
        <time>2015-08-22T19:28:47Z</time>
      </trkpt>
      <trkpt lat="45.2854" lon="5.78475">
        <ele>1879</ele>
        <time>2015-08-22T19:28:54Z</time>
      </trkpt>
      <trkpt lat="45.28536" lon="5.78477">
        <ele>1880</ele>
        <time>2015-08-22T19:29:00Z</time>
      </trkpt>
      <trkpt lat="45.2853" lon="5.7848">
        <ele>1881.5</ele>
        <time>2015-08-22T19:29:07Z</time>
      </trkpt>
      <trkpt lat="45.28527" lon="5.78482">
        <ele>1882.2</ele>
        <time>2015-08-22T19:29:11Z</time>
      </trkpt>
      <trkpt lat="45.28528" lon="5.78485">
        <ele>1883.4</ele>
        <time>2015-08-22T19:29:14Z</time>
      </trkpt>
      <trkpt lat="45.28533" lon="5.78487">
        <ele>1884.2</ele>
        <time>2015-08-22T19:29:19Z</time>
      </trkpt>
      <trkpt lat="45.28539" lon="5.78489">
        <ele>1884.6</ele>
        <time>2015-08-22T19:29:26Z</time>
      </trkpt>
      <trkpt lat="45.28545" lon="5.78491">
        <ele>1885.4</ele>
        <time>2015-08-22T19:29:32Z</time>
      </trkpt>
      <trkpt lat="45.28552" lon="5.78493">
        <ele>1886.7</ele>
        <time>2015-08-22T19:29:39Z</time>
      </trkpt>
      <trkpt lat="45.2856" lon="5.78495">
        <ele>1887.6</ele>
        <time>2015-08-22T19:29:46Z</time>
      </trkpt>
      <trkpt lat="45.28567" lon="5.78497">
        <ele>1888.8</ele>
        <time>2015-08-22T19:29:53Z</time>
      </trkpt>
      <trkpt lat="45.28571" lon="5.78499">
        <ele>1889.7</ele>
        <time>2015-08-22T19:29:57Z</time>
      </trkpt>
      <trkpt lat="45.28573" lon="5.78501">
        <ele>1890.6</ele>
        <time>2015-08-22T19:29:59Z</time>
      </trkpt>
      <trkpt lat="45.28577" lon="5.78504">
        <ele>1892.3</ele>
        <time>2015-08-22T19:30:03Z</time>
      </trkpt>
      <trkpt lat="45.28579" lon="5.78504">
        <ele>1892.3</ele>
        <time>2015-08-22T19:30:05Z</time>
      </trkpt>
      <trkpt lat="45.28586" lon="5.78505">
        <ele>1893.1</ele>
        <time>2015-08-22T19:30:11Z</time>
      </trkpt>
      <trkpt lat="45.28587" lon="5.78506">
        <ele>1893.5</ele>
        <time>2015-08-22T19:30:12Z</time>
      </trkpt>
      <trkpt lat="45.28592" lon="5.78509">
        <ele>1895.1</ele>
        <time>2015-08-22T19:30:17Z</time>
      </trkpt>
      <trkpt lat="45.28597" lon="5.78515">
        <ele>1897.7</ele>
        <time>2015-08-22T19:30:24Z</time>
      </trkpt>
      <trkpt lat="45.286" lon="5.78519">
        <ele>1899.8</ele>
        <time>2015-08-22T19:30:30Z</time>
      </trkpt>
      <trkpt lat="45.28606" lon="5.78523">
        <ele>1902</ele>
        <time>2015-08-22T19:30:38Z</time>
      </trkpt>
      <trkpt lat="45.28611" lon="5.78528">
        <ele>1904.3</ele>
        <time>2015-08-22T19:30:45Z</time>
      </trkpt>
      <trkpt lat="45.28613" lon="5.78529">
        <ele>1904.5</ele>
        <time>2015-08-22T19:30:47Z</time>
      </trkpt>
      <trkpt lat="45.28615" lon="5.7853">
        <ele>1905.4</ele>
        <time>2015-08-22T19:30:51Z</time>
      </trkpt>
      <trkpt lat="45.28621" lon="5.78533">
        <ele>1907.1</ele>
        <time>2015-08-22T19:30:58Z</time>
      </trkpt>
      <trkpt lat="45.28626" lon="5.78537">
        <ele>1908.9</ele>
        <time>2015-08-22T19:31:05Z</time>
      </trkpt>
      <trkpt lat="45.2863" lon="5.7854">
        <ele>1910.2</ele>
        <time>2015-08-22T19:31:12Z</time>
      </trkpt>
      <trkpt lat="45.28634" lon="5.78542">
        <ele>1911.3</ele>
        <time>2015-08-22T19:31:18Z</time>
      </trkpt>
      <trkpt lat="45.28635" lon="5.78546">
        <ele>1913</ele>
        <time>2015-08-22T19:31:24Z</time>
      </trkpt>
      <trkpt lat="45.28632" lon="5.78547">
        <ele>1913.6</ele>
        <time>2015-08-22T19:31:29Z</time>
      </trkpt>
      <trkpt lat="45.28629" lon="5.78549">
        <ele>1914.2</ele>
        <time>2015-08-22T19:31:35Z</time>
      </trkpt>
      <trkpt lat="45.28626" lon="5.78549">
        <ele>1914.3</ele>
        <time>2015-08-22T19:31:40Z</time>
      </trkpt>
      <trkpt lat="45.28624" lon="5.7855">
        <ele>1914.9</ele>
        <time>2015-08-22T19:31:44Z</time>
      </trkpt>
      <trkpt lat="45.28621" lon="5.78551">
        <ele>1915.1</ele>
        <time>2015-08-22T19:31:49Z</time>
      </trkpt>
      <trkpt lat="45.28615" lon="5.78553">
        <ele>1915.4</ele>
        <time>2015-08-22T19:31:56Z</time>
      </trkpt>
      <trkpt lat="45.2861" lon="5.78554">
        <ele>1915.5</ele>
        <time>2015-08-22T19:32:03Z</time>
      </trkpt>
      <trkpt lat="45.28609" lon="5.78557">
        <ele>1916.9</ele>
        <time>2015-08-22T19:32:09Z</time>
      </trkpt>
      <trkpt lat="45.28611" lon="5.78561">
        <ele>1918.7</ele>
        <time>2015-08-22T19:32:15Z</time>
      </trkpt>
      <trkpt lat="45.28613" lon="5.78563">
        <ele>1919.9</ele>
        <time>2015-08-22T19:32:20Z</time>
      </trkpt>
      <trkpt lat="45.28617" lon="5.78566">
        <ele>1921.5</ele>
        <time>2015-08-22T19:32:27Z</time>
      </trkpt>
      <trkpt lat="45.2862" lon="5.78569">
        <ele>1923.2</ele>
        <time>2015-08-22T19:32:33Z</time>
      </trkpt>
      <trkpt lat="45.28624" lon="5.78573">
        <ele>1925</ele>
        <time>2015-08-22T19:32:39Z</time>
      </trkpt>
      <trkpt lat="45.28628" lon="5.78577">
        <ele>1927.1</ele>
        <time>2015-08-22T19:32:46Z</time>
      </trkpt>
      <trkpt lat="45.28631" lon="5.78578">
        <ele>1928</ele>
        <time>2015-08-22T19:32:50Z</time>
      </trkpt>
      <trkpt lat="45.28636" lon="5.78581">
        <ele>1929.7</ele>
        <time>2015-08-22T19:32:57Z</time>
      </trkpt>
      <trkpt lat="45.28636" lon="5.78583">
        <ele>1930.3</ele>
        <time>2015-08-22T19:33:03Z</time>
      </trkpt>
      <trkpt lat="45.28633" lon="5.78584">
        <ele>1930.7</ele>
        <time>2015-08-22T19:33:08Z</time>
      </trkpt>
      <trkpt lat="45.28629" lon="5.78585">
        <ele>1931.1</ele>
        <time>2015-08-22T19:33:14Z</time>
      </trkpt>
      <trkpt lat="45.28624" lon="5.78586">
        <ele>1931.2</ele>
        <time>2015-08-22T19:33:21Z</time>
      </trkpt>
      <trkpt lat="45.28621" lon="5.78588">
        <ele>1931.6</ele>
        <time>2015-08-22T19:33:26Z</time>
      </trkpt>
      <trkpt lat="45.28616" lon="5.78589">
        <ele>1931.7</ele>
        <time>2015-08-22T19:33:33Z</time>
      </trkpt>
      <trkpt lat="45.28609" lon="5.78591">
        <ele>1932</ele>
        <time>2015-08-22T19:33:39Z</time>
      </trkpt>
      <trkpt lat="45.28608" lon="5.78593">
        <ele>1933.1</ele>
        <time>2015-08-22T19:33:43Z</time>
      </trkpt>
      <trkpt lat="45.28605" lon="5.78594">
        <ele>1933.2</ele>
        <time>2015-08-22T19:33:47Z</time>
      </trkpt>
      <trkpt lat="45.28604" lon="5.78595">
        <ele>1933.5</ele>
        <time>2015-08-22T19:33:48Z</time>
      </trkpt>
      <trkpt lat="45.28603" lon="5.78596">
        <ele>1934</ele>
        <time>2015-08-22T19:33:49Z</time>
      </trkpt>
      <trkpt lat="45.28606" lon="5.786">
        <ele>1935.7</ele>
        <time>2015-08-22T19:33:54Z</time>
      </trkpt>
      <trkpt lat="45.28608" lon="5.78602">
        <ele>1936.9</ele>
        <time>2015-08-22T19:33:59Z</time>
      </trkpt>
      <trkpt lat="45.28612" lon="5.78602">
        <ele>1937.5</ele>
        <time>2015-08-22T19:34:05Z</time>
      </trkpt>
      <trkpt lat="45.28618" lon="5.78605">
        <ele>1939</ele>
        <time>2015-08-22T19:34:11Z</time>
      </trkpt>
      <trkpt lat="45.28624" lon="5.78605">
        <ele>1939.8</ele>
        <time>2015-08-22T19:34:16Z</time>
      </trkpt>
      <trkpt lat="45.28628" lon="5.78606">
        <ele>1940.7</ele>
        <time>2015-08-22T19:34:21Z</time>
      </trkpt>
      <trkpt lat="45.2863" lon="5.78607">
        <ele>1941.2</ele>
        <time>2015-08-22T19:34:23Z</time>
      </trkpt>
      <trkpt lat="45.28631" lon="5.78608">
        <ele>1941.7</ele>
        <time>2015-08-22T19:34:25Z</time>
      </trkpt>
      <trkpt lat="45.28632" lon="5.78609">
        <ele>1942.5</ele>
        <time>2015-08-22T19:34:27Z</time>
      </trkpt>
      <trkpt lat="45.28635" lon="5.78611">
        <ele>1943.4</ele>
        <time>2015-08-22T19:34:31Z</time>
      </trkpt>
      <trkpt lat="45.28639" lon="5.78613">
        <ele>1945.3</ele>
        <time>2015-08-22T19:34:37Z</time>
      </trkpt>
      <trkpt lat="45.28643" lon="5.78615">
        <ele>1946.5</ele>
        <time>2015-08-22T19:34:43Z</time>
      </trkpt>
      <trkpt lat="45.28648" lon="5.78615">
        <ele>1947.4</ele>
        <time>2015-08-22T19:34:49Z</time>
      </trkpt>
      <trkpt lat="45.28649" lon="5.78616">
        <ele>1947.6</ele>
        <time>2015-08-22T19:34:50Z</time>
      </trkpt>
      <trkpt lat="45.28653" lon="5.78619">
        <ele>1949.5</ele>
        <time>2015-08-22T19:34:55Z</time>
      </trkpt>
      <trkpt lat="45.28654" lon="5.78619">
        <ele>1949.6</ele>
        <time>2015-08-22T19:34:56Z</time>
      </trkpt>
      <trkpt lat="45.28658" lon="5.7862">
        <ele>1950.7</ele>
        <time>2015-08-22T19:35:00Z</time>
      </trkpt>
      <trkpt lat="45.28659" lon="5.78621">
        <ele>1951.5</ele>
        <time>2015-08-22T19:35:02Z</time>
      </trkpt>
      <trkpt lat="45.28656" lon="5.78622">
        <ele>1951.4</ele>
        <time>2015-08-22T19:35:08Z</time>
      </trkpt>
      <trkpt lat="45.28652" lon="5.78623">
        <ele>1951.8</ele>
        <time>2015-08-22T19:35:15Z</time>
      </trkpt>
      <trkpt lat="45.28651" lon="5.78626">
        <ele>1953</ele>
        <time>2015-08-22T19:35:21Z</time>
      </trkpt>
      <trkpt lat="45.28649" lon="5.78628">
        <ele>1953.4</ele>
        <time>2015-08-22T19:35:26Z</time>
      </trkpt>
      <trkpt lat="45.28647" lon="5.7863">
        <ele>1954</ele>
        <time>2015-08-22T19:35:32Z</time>
      </trkpt>
      <trkpt lat="45.28646" lon="5.78632">
        <ele>1954.5</ele>
        <time>2015-08-22T19:35:36Z</time>
      </trkpt>
      <trkpt lat="45.28643" lon="5.78633">
        <ele>1954.6</ele>
        <time>2015-08-22T19:35:41Z</time>
      </trkpt>
      <trkpt lat="45.2864" lon="5.78635">
        <ele>1954.9</ele>
        <time>2015-08-22T19:35:46Z</time>
      </trkpt>
      <trkpt lat="45.28635" lon="5.78638">
        <ele>1955.2</ele>
        <time>2015-08-22T19:35:55Z</time>
      </trkpt>
      <trkpt lat="45.28635" lon="5.78641">
        <ele>1956.4</ele>
        <time>2015-08-22T19:35:59Z</time>
      </trkpt>
      <trkpt lat="45.28636" lon="5.78644">
        <ele>1957.7</ele>
        <time>2015-08-22T19:36:04Z</time>
      </trkpt>
      <trkpt lat="45.28638" lon="5.78646">
        <ele>1958.9</ele>
        <time>2015-08-22T19:36:09Z</time>
      </trkpt>
      <trkpt lat="45.28644" lon="5.78646">
        <ele>1960</ele>
        <time>2015-08-22T19:36:16Z</time>
      </trkpt>
      <trkpt lat="45.28646" lon="5.78648">
        <ele>1961</ele>
        <time>2015-08-22T19:36:21Z</time>
      </trkpt>
      <trkpt lat="45.2865" lon="5.78648">
        <ele>1962</ele>
        <time>2015-08-22T19:36:27Z</time>
      </trkpt>
      <trkpt lat="45.28652" lon="5.78651">
        <ele>1963.5</ele>
        <time>2015-08-22T19:36:34Z</time>
      </trkpt>
      <trkpt lat="45.28652" lon="5.78653">
        <ele>1964.2</ele>
        <time>2015-08-22T19:36:38Z</time>
      </trkpt>
      <trkpt lat="45.28654" lon="5.78655">
        <ele>1965.6</ele>
        <time>2015-08-22T19:36:44Z</time>
      </trkpt>
      <trkpt lat="45.28657" lon="5.78657">
        <ele>1967</ele>
        <time>2015-08-22T19:36:49Z</time>
      </trkpt>
      <trkpt lat="45.28657" lon="5.78659">
        <ele>1967.7</ele>
        <time>2015-08-22T19:36:55Z</time>
      </trkpt>
      <trkpt lat="45.28652" lon="5.78659">
        <ele>1966.8</ele>
        <time>2015-08-22T19:37:01Z</time>
      </trkpt>
      <trkpt lat="45.28649" lon="5.78663">
        <ele>1967.8</ele>
        <time>2015-08-22T19:37:07Z</time>
      </trkpt>
      <trkpt lat="45.28653" lon="5.78664">
        <ele>1969.3</ele>
        <time>2015-08-22T19:37:12Z</time>
      </trkpt>
      <trkpt lat="45.28655" lon="5.78666">
        <ele>1970.3</ele>
        <time>2015-08-22T19:37:16Z</time>
      </trkpt>
      <trkpt lat="45.28657" lon="5.78668">
        <ele>1971.7</ele>
        <time>2015-08-22T19:37:21Z</time>
      </trkpt>
      <trkpt lat="45.28658" lon="5.7867">
        <ele>1972.6</ele>
        <time>2015-08-22T19:37:25Z</time>
      </trkpt>
      <trkpt lat="45.28656" lon="5.78671">
        <ele>1972.9</ele>
        <time>2015-08-22T19:37:31Z</time>
      </trkpt>
      <trkpt lat="45.28655" lon="5.78674">
        <ele>1973.7</ele>
        <time>2015-08-22T19:37:38Z</time>
      </trkpt>
      <trkpt lat="45.28653" lon="5.78676">
        <ele>1974.2</ele>
        <time>2015-08-22T19:37:44Z</time>
      </trkpt>
      <trkpt lat="45.2865" lon="5.78678">
        <ele>1974.2</ele>
        <time>2015-08-22T19:37:50Z</time>
      </trkpt>
      <trkpt lat="45.28647" lon="5.78681">
        <ele>1975</ele>
        <time>2015-08-22T19:37:56Z</time>
      </trkpt>
      <trkpt lat="45.28645" lon="5.78682">
        <ele>1975</ele>
        <time>2015-08-22T19:38:01Z</time>
      </trkpt>
      <trkpt lat="45.28641" lon="5.78683">
        <ele>1974.5</ele>
        <time>2015-08-22T19:38:06Z</time>
      </trkpt>
      <trkpt lat="45.28638" lon="5.78685">
        <ele>1974.4</ele>
        <time>2015-08-22T19:38:13Z</time>
      </trkpt>
      <trkpt lat="45.28634" lon="5.78686">
        <ele>1973.8</ele>
        <time>2015-08-22T19:38:18Z</time>
      </trkpt>
      <trkpt lat="45.28634" lon="5.78687">
        <ele>1974.2</ele>
        <time>2015-08-22T19:38:20Z</time>
      </trkpt>
      <trkpt lat="45.28631" lon="5.7869">
        <ele>1974.9</ele>
        <time>2015-08-22T19:38:25Z</time>
      </trkpt>
      <trkpt lat="45.28631" lon="5.78695">
        <ele>1976.5</ele>
        <time>2015-08-22T19:38:30Z</time>
      </trkpt>
      <trkpt lat="45.28629" lon="5.78697">
        <ele>1976.7</ele>
        <time>2015-08-22T19:38:35Z</time>
      </trkpt>
      <trkpt lat="45.28627" lon="5.78698">
        <ele>1976.8</ele>
        <time>2015-08-22T19:38:39Z</time>
      </trkpt>
      <trkpt lat="45.28625" lon="5.787">
        <ele>1976.9</ele>
        <time>2015-08-22T19:38:44Z</time>
      </trkpt>
      <trkpt lat="45.28622" lon="5.78701">
        <ele>1977</ele>
        <time>2015-08-22T19:38:48Z</time>
      </trkpt>
      <trkpt lat="45.2862" lon="5.78701">
        <ele>1976.7</ele>
        <time>2015-08-22T19:38:53Z</time>
      </trkpt>
      <trkpt lat="45.28621" lon="5.78701">
        <ele>1977</ele>
        <time>2015-08-22T19:39:58Z</time>
      </trkpt>
      <trkpt lat="45.28616" lon="5.78702">
        <ele>1976.8</ele>
        <time>2015-08-22T19:41:07Z</time>
      </trkpt>
      <trkpt lat="45.28616" lon="5.78696">
        <ele>1974.6</ele>
        <time>2015-08-22T19:41:40Z</time>
      </trkpt>
      <trkpt lat="45.28611" lon="5.78693">
        <ele>1973</ele>
        <time>2015-08-22T19:41:46Z</time>
      </trkpt>
      <trkpt lat="45.28609" lon="5.78691">
        <ele>1972</ele>
        <time>2015-08-22T19:41:50Z</time>
      </trkpt>
      <trkpt lat="45.28606" lon="5.78688">
        <ele>1970.8</ele>
        <time>2015-08-22T19:41:54Z</time>
      </trkpt>
      <trkpt lat="45.286" lon="5.78688">
        <ele>1970.3</ele>
        <time>2015-08-22T19:42:00Z</time>
      </trkpt>
      <trkpt lat="45.28599" lon="5.78688">
        <ele>1970.2</ele>
        <time>2015-08-22T19:42:01Z</time>
      </trkpt>
      <trkpt lat="45.28599" lon="5.78688">
        <ele>1970</ele>
        <time>2015-08-22T19:42:02Z</time>
      </trkpt>
      <trkpt lat="45.28597" lon="5.78685">
        <ele>1968.7</ele>
        <time>2015-08-22T19:42:06Z</time>
      </trkpt>
      <trkpt lat="45.28595" lon="5.78684">
        <ele>1968.2</ele>
        <time>2015-08-22T19:42:10Z</time>
      </trkpt>
      <trkpt lat="45.28594" lon="5.78679">
        <ele>1966.4</ele>
        <time>2015-08-22T19:42:17Z</time>
      </trkpt>
      <trkpt lat="45.28592" lon="5.78678">
        <ele>1965.6</ele>
        <time>2015-08-22T19:42:23Z</time>
      </trkpt>
      <trkpt lat="45.28588" lon="5.78677">
        <ele>1964.8</ele>
        <time>2015-08-22T19:42:40Z</time>
      </trkpt>
      <trkpt lat="45.28584" lon="5.78673">
        <ele>1963</ele>
        <time>2015-08-22T19:42:44Z</time>
      </trkpt>
      <trkpt lat="45.28583" lon="5.78669">
        <ele>1961.5</ele>
        <time>2015-08-22T19:42:47Z</time>
      </trkpt>
      <trkpt lat="45.28582" lon="5.78669">
        <ele>1961.1</ele>
        <time>2015-08-22T19:42:48Z</time>
      </trkpt>
      <trkpt lat="45.28579" lon="5.78668">
        <ele>1960.6</ele>
        <time>2015-08-22T19:42:50Z</time>
      </trkpt>
      <trkpt lat="45.28577" lon="5.78668">
        <ele>1960.3</ele>
        <time>2015-08-22T19:42:52Z</time>
      </trkpt>
      <trkpt lat="45.28572" lon="5.78668">
        <ele>1960</ele>
        <time>2015-08-22T19:42:56Z</time>
      </trkpt>
      <trkpt lat="45.28569" lon="5.78668">
        <ele>1959.8</ele>
        <time>2015-08-22T19:42:58Z</time>
      </trkpt>
      <trkpt lat="45.28565" lon="5.78667">
        <ele>1959</ele>
        <time>2015-08-22T19:43:02Z</time>
      </trkpt>
      <trkpt lat="45.28557" lon="5.78671">
        <ele>1959.5</ele>
        <time>2015-08-22T19:43:08Z</time>
      </trkpt>
      <trkpt lat="45.28556" lon="5.7867">
        <ele>1959.2</ele>
        <time>2015-08-22T19:43:09Z</time>
      </trkpt>
      <trkpt lat="45.2855" lon="5.78668">
        <ele>1957.8</ele>
        <time>2015-08-22T19:43:13Z</time>
      </trkpt>
      <trkpt lat="45.28546" lon="5.78666">
        <ele>1956.7</ele>
        <time>2015-08-22T19:43:16Z</time>
      </trkpt>
      <trkpt lat="45.28543" lon="5.78668">
        <ele>1957.1</ele>
        <time>2015-08-22T19:43:19Z</time>
      </trkpt>
      <trkpt lat="45.2854" lon="5.78668">
        <ele>1956.5</ele>
        <time>2015-08-22T19:43:21Z</time>
      </trkpt>
      <trkpt lat="45.28538" lon="5.78668">
        <ele>1955.5</ele>
        <time>2015-08-22T19:43:23Z</time>
      </trkpt>
      <trkpt lat="45.28536" lon="5.78665">
        <ele>1954.1</ele>
        <time>2015-08-22T19:43:25Z</time>
      </trkpt>
      <trkpt lat="45.28533" lon="5.78662">
        <ele>1951.7</ele>
        <time>2015-08-22T19:43:28Z</time>
      </trkpt>
      <trkpt lat="45.2853" lon="5.78662">
        <ele>1950.5</ele>
        <time>2015-08-22T19:43:30Z</time>
      </trkpt>
      <trkpt lat="45.28521" lon="5.7866">
        <ele>1946.8</ele>
        <time>2015-08-22T19:43:37Z</time>
      </trkpt>
      <trkpt lat="45.28513" lon="5.78658">
        <ele>1943.3</ele>
        <time>2015-08-22T19:43:44Z</time>
      </trkpt>
      <trkpt lat="45.28509" lon="5.78658">
        <ele>1942.1</ele>
        <time>2015-08-22T19:43:47Z</time>
      </trkpt>
      <trkpt lat="45.28507" lon="5.78657">
        <ele>1941.1</ele>
        <time>2015-08-22T19:43:49Z</time>
      </trkpt>
      <trkpt lat="45.28499" lon="5.78652">
        <ele>1937.8</ele>
        <time>2015-08-22T19:43:56Z</time>
      </trkpt>
      <trkpt lat="45.28489" lon="5.78649">
        <ele>1934.7</ele>
        <time>2015-08-22T19:44:03Z</time>
      </trkpt>
      <trkpt lat="45.2848" lon="5.78648">
        <ele>1932.2</ele>
        <time>2015-08-22T19:44:10Z</time>
      </trkpt>
      <trkpt lat="45.28475" lon="5.78646">
        <ele>1930.9</ele>
        <time>2015-08-22T19:44:15Z</time>
      </trkpt>
      <trkpt lat="45.28473" lon="5.78644">
        <ele>1930.3</ele>
        <time>2015-08-22T19:44:17Z</time>
      </trkpt>
      <trkpt lat="45.28469" lon="5.78643">
        <ele>1929.4</ele>
        <time>2015-08-22T19:44:20Z</time>
      </trkpt>
      <trkpt lat="45.28464" lon="5.78641">
        <ele>1928.3</ele>
        <time>2015-08-22T19:44:24Z</time>
      </trkpt>
      <trkpt lat="45.28461" lon="5.78639">
        <ele>1927.9</ele>
        <time>2015-08-22T19:44:26Z</time>
      </trkpt>
      <trkpt lat="45.28454" lon="5.78638">
        <ele>1925</ele>
        <time>2015-08-22T19:44:31Z</time>
      </trkpt>
      <trkpt lat="45.28448" lon="5.78639">
        <ele>1921.9</ele>
        <time>2015-08-22T19:44:37Z</time>
      </trkpt>
      <trkpt lat="45.28447" lon="5.78638">
        <ele>1921.5</ele>
        <time>2015-08-22T19:44:40Z</time>
      </trkpt>
      <trkpt lat="45.28446" lon="5.78637">
        <ele>1921.3</ele>
        <time>2015-08-22T19:44:42Z</time>
      </trkpt>
      <trkpt lat="45.28442" lon="5.78633">
        <ele>1919.8</ele>
        <time>2015-08-22T19:44:47Z</time>
      </trkpt>
      <trkpt lat="45.28438" lon="5.78631">
        <ele>1918.1</ele>
        <time>2015-08-22T19:44:51Z</time>
      </trkpt>
      <trkpt lat="45.28435" lon="5.78631">
        <ele>1916.6</ele>
        <time>2015-08-22T19:44:54Z</time>
      </trkpt>
      <trkpt lat="45.28432" lon="5.78625">
        <ele>1916.6</ele>
        <time>2015-08-22T19:44:59Z</time>
      </trkpt>
      <trkpt lat="45.28432" lon="5.78624">
        <ele>1916.6</ele>
        <time>2015-08-22T19:45:00Z</time>
      </trkpt>
      <trkpt lat="45.28432" lon="5.78621">
        <ele>1916</ele>
        <time>2015-08-22T19:45:02Z</time>
      </trkpt>
      <trkpt lat="45.28429" lon="5.78618">
        <ele>1914.3</ele>
        <time>2015-08-22T19:45:05Z</time>
      </trkpt>
      <trkpt lat="45.28423" lon="5.78616">
        <ele>1911.6</ele>
        <time>2015-08-22T19:45:10Z</time>
      </trkpt>
      <trkpt lat="45.28422" lon="5.78616">
        <ele>1911</ele>
        <time>2015-08-22T19:45:11Z</time>
      </trkpt>
      <trkpt lat="45.2842" lon="5.78614">
        <ele>1910</ele>
        <time>2015-08-22T19:45:13Z</time>
      </trkpt>
      <trkpt lat="45.28414" lon="5.7861">
        <ele>1907.3</ele>
        <time>2015-08-22T19:45:18Z</time>
      </trkpt>
      <trkpt lat="45.28413" lon="5.78609">
        <ele>1906.8</ele>
        <time>2015-08-22T19:45:19Z</time>
      </trkpt>
      <trkpt lat="45.28408" lon="5.78604">
        <ele>1904.6</ele>
        <time>2015-08-22T19:45:23Z</time>
      </trkpt>
      <trkpt lat="45.28402" lon="5.78599">
        <ele>1902.4</ele>
        <time>2015-08-22T19:45:28Z</time>
      </trkpt>
      <trkpt lat="45.28399" lon="5.78596">
        <ele>1901.6</ele>
        <time>2015-08-22T19:45:30Z</time>
      </trkpt>
      <trkpt lat="45.28395" lon="5.78592">
        <ele>1900.3</ele>
        <time>2015-08-22T19:45:34Z</time>
      </trkpt>
      <trkpt lat="45.28389" lon="5.78588">
        <ele>1898.8</ele>
        <time>2015-08-22T19:45:39Z</time>
      </trkpt>
      <trkpt lat="45.28388" lon="5.78587">
        <ele>1898.6</ele>
        <time>2015-08-22T19:45:40Z</time>
      </trkpt>
      <trkpt lat="45.28383" lon="5.78583">
        <ele>1897.7</ele>
        <time>2015-08-22T19:45:45Z</time>
      </trkpt>
      <trkpt lat="45.28382" lon="5.78581">
        <ele>1897.6</ele>
        <time>2015-08-22T19:45:47Z</time>
      </trkpt>
      <trkpt lat="45.28382" lon="5.78577">
        <ele>1897.9</ele>
        <time>2015-08-22T19:45:50Z</time>
      </trkpt>
      <trkpt lat="45.28382" lon="5.78576">
        <ele>1898.1</ele>
        <time>2015-08-22T19:45:51Z</time>
      </trkpt>
      <trkpt lat="45.2838" lon="5.78571">
        <ele>1898.1</ele>
        <time>2015-08-22T19:45:56Z</time>
      </trkpt>
      <trkpt lat="45.2838" lon="5.78572">
        <ele>1897.9</ele>
        <time>2015-08-22T19:46:00Z</time>
      </trkpt>
      <trkpt lat="45.28378" lon="5.78566">
        <ele>1898.3</ele>
        <time>2015-08-22T19:46:06Z</time>
      </trkpt>
      <trkpt lat="45.28375" lon="5.78559">
        <ele>1898.4</ele>
        <time>2015-08-22T19:46:12Z</time>
      </trkpt>
      <trkpt lat="45.28369" lon="5.78552">
        <ele>1893.7</ele>
        <time>2015-08-22T19:46:18Z</time>
      </trkpt>
      <trkpt lat="45.28362" lon="5.78545">
        <ele>1889.4</ele>
        <time>2015-08-22T19:46:24Z</time>
      </trkpt>
      <trkpt lat="45.28357" lon="5.78536">
        <ele>1884.5</ele>
        <time>2015-08-22T19:46:31Z</time>
      </trkpt>
      <trkpt lat="45.28354" lon="5.78532">
        <ele>1881.6</ele>
        <time>2015-08-22T19:46:35Z</time>
      </trkpt>
      <trkpt lat="45.28354" lon="5.7853">
        <ele>1880.9</ele>
        <time>2015-08-22T19:46:37Z</time>
      </trkpt>
      <trkpt lat="45.2835" lon="5.78524">
        <ele>1877.6</ele>
        <time>2015-08-22T19:46:41Z</time>
      </trkpt>
      <trkpt lat="45.28349" lon="5.78523">
        <ele>1876.6</ele>
        <time>2015-08-22T19:46:42Z</time>
      </trkpt>
      <trkpt lat="45.28342" lon="5.78514">
        <ele>1870.7</ele>
        <time>2015-08-22T19:46:49Z</time>
      </trkpt>
      <trkpt lat="45.28335" lon="5.78502">
        <ele>1865.1</ele>
        <time>2015-08-22T19:46:57Z</time>
      </trkpt>
      <trkpt lat="45.2833" lon="5.78495">
        <ele>1862.3</ele>
        <time>2015-08-22T19:47:02Z</time>
      </trkpt>
      <trkpt lat="45.2833" lon="5.78494">
        <ele>1862</ele>
        <time>2015-08-22T19:47:03Z</time>
      </trkpt>
      <trkpt lat="45.28326" lon="5.78483">
        <ele>1860</ele>
        <time>2015-08-22T19:47:10Z</time>
      </trkpt>
      <trkpt lat="45.28318" lon="5.78472">
        <ele>1857</ele>
        <time>2015-08-22T19:47:17Z</time>
      </trkpt>
      <trkpt lat="45.28314" lon="5.78463">
        <ele>1855.8</ele>
        <time>2015-08-22T19:47:23Z</time>
      </trkpt>
      <trkpt lat="45.2831" lon="5.78452">
        <ele>1855.5</ele>
        <time>2015-08-22T19:47:30Z</time>
      </trkpt>
      <trkpt lat="45.28308" lon="5.78447">
        <ele>1855.7</ele>
        <time>2015-08-22T19:47:34Z</time>
      </trkpt>
      <trkpt lat="45.28307" lon="5.78443">
        <ele>1856</ele>
        <time>2015-08-22T19:47:36Z</time>
      </trkpt>
      <trkpt lat="45.28304" lon="5.78439">
        <ele>1855.7</ele>
        <time>2015-08-22T19:47:39Z</time>
      </trkpt>
      <trkpt lat="45.28304" lon="5.78438">
        <ele>1855.7</ele>
        <time>2015-08-22T19:47:41Z</time>
      </trkpt>
      <trkpt lat="45.283" lon="5.7843">
        <ele>1856.2</ele>
        <time>2015-08-22T19:47:47Z</time>
      </trkpt>
      <trkpt lat="45.28301" lon="5.78426">
        <ele>1857.4</ele>
        <time>2015-08-22T19:47:52Z</time>
      </trkpt>
      <trkpt lat="45.28301" lon="5.78424">
        <ele>1857.7</ele>
        <time>2015-08-22T19:47:53Z</time>
      </trkpt>
      <trkpt lat="45.28301" lon="5.78419">
        <ele>1858.6</ele>
        <time>2015-08-22T19:47:56Z</time>
      </trkpt>
      <trkpt lat="45.283" lon="5.78414">
        <ele>1859.4</ele>
        <time>2015-08-22T19:48:00Z</time>
      </trkpt>
      <trkpt lat="45.28299" lon="5.78413">
        <ele>1859.6</ele>
        <time>2015-08-22T19:48:01Z</time>
      </trkpt>
      <trkpt lat="45.28299" lon="5.78412">
        <ele>1859.7</ele>
        <time>2015-08-22T19:48:02Z</time>
      </trkpt>
      <trkpt lat="45.28297" lon="5.7841">
        <ele>1860</ele>
        <time>2015-08-22T19:48:04Z</time>
      </trkpt>
      <trkpt lat="45.28297" lon="5.78406">
        <ele>1860.8</ele>
        <time>2015-08-22T19:48:07Z</time>
      </trkpt>
      <trkpt lat="45.28297" lon="5.78399">
        <ele>1862.3</ele>
        <time>2015-08-22T19:48:12Z</time>
      </trkpt>
      <trkpt lat="45.28295" lon="5.78387">
        <ele>1864.9</ele>
        <time>2015-08-22T19:48:20Z</time>
      </trkpt>
      <trkpt lat="45.28295" lon="5.78385">
        <ele>1865.5</ele>
        <time>2015-08-22T19:48:23Z</time>
      </trkpt>
      <trkpt lat="45.28297" lon="5.78383">
        <ele>1865.8</ele>
        <time>2015-08-22T19:48:25Z</time>
      </trkpt>
      <trkpt lat="45.283" lon="5.7838">
        <ele>1866.4</ele>
        <time>2015-08-22T19:48:30Z</time>
      </trkpt>
      <trkpt lat="45.28302" lon="5.78379">
        <ele>1866.5</ele>
        <time>2015-08-22T19:48:32Z</time>
      </trkpt>
      <trkpt lat="45.28306" lon="5.78376">
        <ele>1866.7</ele>
        <time>2015-08-22T19:48:38Z</time>
      </trkpt>
      <trkpt lat="45.2831" lon="5.78377">
        <ele>1866.4</ele>
        <time>2015-08-22T19:48:42Z</time>
      </trkpt>
      <trkpt lat="45.28312" lon="5.78374">
        <ele>1866.3</ele>
        <time>2015-08-22T19:48:45Z</time>
      </trkpt>
      <trkpt lat="45.28312" lon="5.78369">
        <ele>1865.6</ele>
        <time>2015-08-22T19:48:49Z</time>
      </trkpt>
      <trkpt lat="45.28312" lon="5.78368">
        <ele>1865.5</ele>
        <time>2015-08-22T19:48:50Z</time>
      </trkpt>
      <trkpt lat="45.28313" lon="5.78365">
        <ele>1864.8</ele>
        <time>2015-08-22T19:48:55Z</time>
      </trkpt>
      <trkpt lat="45.28318" lon="5.78364">
        <ele>1864.3</ele>
        <time>2015-08-22T19:49:00Z</time>
      </trkpt>
      <trkpt lat="45.28323" lon="5.78359">
        <ele>1862.7</ele>
        <time>2015-08-22T19:49:07Z</time>
      </trkpt>
      <trkpt lat="45.28329" lon="5.78356">
        <ele>1861.4</ele>
        <time>2015-08-22T19:49:14Z</time>
      </trkpt>
      <trkpt lat="45.28333" lon="5.78355">
        <ele>1860.7</ele>
        <time>2015-08-22T19:49:18Z</time>
      </trkpt>
      <trkpt lat="45.28334" lon="5.78354">
        <ele>1860.5</ele>
        <time>2015-08-22T19:49:19Z</time>
      </trkpt>
      <trkpt lat="45.28337" lon="5.78351">
        <ele>1859.3</ele>
        <time>2015-08-22T19:49:24Z</time>
      </trkpt>
      <trkpt lat="45.28342" lon="5.78348">
        <ele>1857.9</ele>
        <time>2015-08-22T19:49:30Z</time>
      </trkpt>
      <trkpt lat="45.28348" lon="5.78345">
        <ele>1856.3</ele>
        <time>2015-08-22T19:49:37Z</time>
      </trkpt>
      <trkpt lat="45.28354" lon="5.78344">
        <ele>1855.1</ele>
        <time>2015-08-22T19:49:43Z</time>
      </trkpt>
      <trkpt lat="45.28361" lon="5.7834">
        <ele>1853.1</ele>
        <time>2015-08-22T19:49:50Z</time>
      </trkpt>
      <trkpt lat="45.28363" lon="5.7834">
        <ele>1852.6</ele>
        <time>2015-08-22T19:49:52Z</time>
      </trkpt>
      <trkpt lat="45.28365" lon="5.78339">
        <ele>1852</ele>
        <time>2015-08-22T19:49:55Z</time>
      </trkpt>
      <trkpt lat="45.28369" lon="5.78339">
        <ele>1851.3</ele>
        <time>2015-08-22T19:49:58Z</time>
      </trkpt>
      <trkpt lat="45.28369" lon="5.78338">
        <ele>1851.1</ele>
        <time>2015-08-22T19:49:59Z</time>
      </trkpt>
      <trkpt lat="45.28378" lon="5.78334">
        <ele>1848.3</ele>
        <time>2015-08-22T19:50:08Z</time>
      </trkpt>
      <trkpt lat="45.28383" lon="5.78332">
        <ele>1846.5</ele>
        <time>2015-08-22T19:50:14Z</time>
      </trkpt>
      <trkpt lat="45.28387" lon="5.78329">
        <ele>1844.9</ele>
        <time>2015-08-22T19:50:19Z</time>
      </trkpt>
      <trkpt lat="45.28389" lon="5.78327">
        <ele>1844.2</ele>
        <time>2015-08-22T19:50:21Z</time>
      </trkpt>
      <trkpt lat="45.28391" lon="5.78323">
        <ele>1842.6</ele>
        <time>2015-08-22T19:50:25Z</time>
      </trkpt>
      <trkpt lat="45.28392" lon="5.7832">
        <ele>1841.3</ele>
        <time>2015-08-22T19:50:28Z</time>
      </trkpt>
      <trkpt lat="45.28394" lon="5.78317">
        <ele>1840.1</ele>
        <time>2015-08-22T19:50:31Z</time>
      </trkpt>
      <trkpt lat="45.28395" lon="5.78316">
        <ele>1839.6</ele>
        <time>2015-08-22T19:50:33Z</time>
      </trkpt>
      <trkpt lat="45.284" lon="5.78313">
        <ele>1837.8</ele>
        <time>2015-08-22T19:50:38Z</time>
      </trkpt>
      <trkpt lat="45.28403" lon="5.78309">
        <ele>1835.8</ele>
        <time>2015-08-22T19:50:42Z</time>
      </trkpt>
      <trkpt lat="45.28403" lon="5.78307">
        <ele>1835.3</ele>
        <time>2015-08-22T19:50:43Z</time>
      </trkpt>
      <trkpt lat="45.28406" lon="5.78305">
        <ele>1833.9</ele>
        <time>2015-08-22T19:50:46Z</time>
      </trkpt>
      <trkpt lat="45.28409" lon="5.78302">
        <ele>1832.6</ele>
        <time>2015-08-22T19:50:49Z</time>
      </trkpt>
      <trkpt lat="45.28415" lon="5.78294">
        <ele>1829.1</ele>
        <time>2015-08-22T19:50:56Z</time>
      </trkpt>
      <trkpt lat="45.28418" lon="5.7829">
        <ele>1827.4</ele>
        <time>2015-08-22T19:51:00Z</time>
      </trkpt>
      <trkpt lat="45.2842" lon="5.78289">
        <ele>1826.8</ele>
        <time>2015-08-22T19:51:02Z</time>
      </trkpt>
      <trkpt lat="45.28426" lon="5.78285">
        <ele>1824.6</ele>
        <time>2015-08-22T19:51:08Z</time>
      </trkpt>
      <trkpt lat="45.28428" lon="5.78282">
        <ele>1823.6</ele>
        <time>2015-08-22T19:51:10Z</time>
      </trkpt>
      <trkpt lat="45.28429" lon="5.78277">
        <ele>1822.1</ele>
        <time>2015-08-22T19:51:13Z</time>
      </trkpt>
      <trkpt lat="45.28429" lon="5.78273">
        <ele>1820.7</ele>
        <time>2015-08-22T19:51:16Z</time>
      </trkpt>
      <trkpt lat="45.28429" lon="5.78267">
        <ele>1819.2</ele>
        <time>2015-08-22T19:51:20Z</time>
      </trkpt>
      <trkpt lat="45.2843" lon="5.78262">
        <ele>1817.7</ele>
        <time>2015-08-22T19:51:24Z</time>
      </trkpt>
      <trkpt lat="45.28431" lon="5.78261">
        <ele>1817.5</ele>
        <time>2015-08-22T19:51:25Z</time>
      </trkpt>
      <trkpt lat="45.28439" lon="5.7826">
        <ele>1815.7</ele>
        <time>2015-08-22T19:51:30Z</time>
      </trkpt>
      <trkpt lat="45.28441" lon="5.78259">
        <ele>1815.3</ele>
        <time>2015-08-22T19:51:31Z</time>
      </trkpt>
      <trkpt lat="45.2845" lon="5.78259">
        <ele>1813.7</ele>
        <time>2015-08-22T19:51:37Z</time>
      </trkpt>
      <trkpt lat="45.28457" lon="5.78259">
        <ele>1812.6</ele>
        <time>2015-08-22T19:51:44Z</time>
      </trkpt>
      <trkpt lat="45.2846" lon="5.78259">
        <ele>1812</ele>
        <time>2015-08-22T19:51:48Z</time>
      </trkpt>
      <trkpt lat="45.28465" lon="5.78258">
        <ele>1811</ele>
        <time>2015-08-22T19:51:52Z</time>
      </trkpt>
      <trkpt lat="45.28468" lon="5.78261">
        <ele>1811.1</ele>
        <time>2015-08-22T19:51:54Z</time>
      </trkpt>
      <trkpt lat="45.2847" lon="5.78261">
        <ele>1810.9</ele>
        <time>2015-08-22T19:51:55Z</time>
      </trkpt>
      <trkpt lat="45.28474" lon="5.78262">
        <ele>1810.6</ele>
        <time>2015-08-22T19:51:58Z</time>
      </trkpt>
      <trkpt lat="45.28474" lon="5.78263">
        <ele>1810.7</ele>
        <time>2015-08-22T19:51:59Z</time>
      </trkpt>
      <trkpt lat="45.28476" lon="5.78263">
        <ele>1810.6</ele>
        <time>2015-08-22T19:52:00Z</time>
      </trkpt>
      <trkpt lat="45.28475" lon="5.78259">
        <ele>1809.4</ele>
        <time>2015-08-22T19:52:03Z</time>
      </trkpt>
      <trkpt lat="45.28471" lon="5.78251">
        <ele>1807.9</ele>
        <time>2015-08-22T19:52:09Z</time>
      </trkpt>
      <trkpt lat="45.2847" lon="5.78247">
        <ele>1807</ele>
        <time>2015-08-22T19:52:13Z</time>
      </trkpt>
      <trkpt lat="45.28471" lon="5.78246">
        <ele>1806.6</ele>
        <time>2015-08-22T19:52:14Z</time>
      </trkpt>
      <trkpt lat="45.28476" lon="5.78246">
        <ele>1805.6</ele>
        <time>2015-08-22T19:52:18Z</time>
      </trkpt>
      <trkpt lat="45.28477" lon="5.78247">
        <ele>1805.5</ele>
        <time>2015-08-22T19:52:19Z</time>
      </trkpt>
      <trkpt lat="45.28484" lon="5.78248">
        <ele>1804.6</ele>
        <time>2015-08-22T19:52:24Z</time>
      </trkpt>
      <trkpt lat="45.28488" lon="5.78251">
        <ele>1804.8</ele>
        <time>2015-08-22T19:52:28Z</time>
      </trkpt>
      <trkpt lat="45.28494" lon="5.78252">
        <ele>1804</ele>
        <time>2015-08-22T19:52:33Z</time>
      </trkpt>
      <trkpt lat="45.28501" lon="5.7825">
        <ele>1802.2</ele>
        <time>2015-08-22T19:52:39Z</time>
      </trkpt>
      <trkpt lat="45.2851" lon="5.78251">
        <ele>1800.6</ele>
        <time>2015-08-22T19:52:44Z</time>
      </trkpt>
      <trkpt lat="45.28514" lon="5.78252">
        <ele>1800.3</ele>
        <time>2015-08-22T19:52:46Z</time>
      </trkpt>
      <trkpt lat="45.28516" lon="5.78251">
        <ele>1799.7</ele>
        <time>2015-08-22T19:52:47Z</time>
      </trkpt>
      <trkpt lat="45.28523" lon="5.78251">
        <ele>1798.3</ele>
        <time>2015-08-22T19:52:51Z</time>
      </trkpt>
      <trkpt lat="45.28525" lon="5.78251">
        <ele>1797.9</ele>
        <time>2015-08-22T19:52:52Z</time>
      </trkpt>
      <trkpt lat="45.28526" lon="5.7825">
        <ele>1797.3</ele>
        <time>2015-08-22T19:52:53Z</time>
      </trkpt>
      <trkpt lat="45.28532" lon="5.78251">
        <ele>1796.8</ele>
        <time>2015-08-22T19:52:57Z</time>
      </trkpt>
      <trkpt lat="45.2854" lon="5.7825">
        <ele>1794.6</ele>
        <time>2015-08-22T19:53:02Z</time>
      </trkpt>
      <trkpt lat="45.28543" lon="5.78248">
        <ele>1793.6</ele>
        <time>2015-08-22T19:53:04Z</time>
      </trkpt>
      <trkpt lat="45.28549" lon="5.78253">
        <ele>1793.7</ele>
        <time>2015-08-22T19:53:07Z</time>
      </trkpt>
      <trkpt lat="45.28552" lon="5.78251">
        <ele>1792.3</ele>
        <time>2015-08-22T19:53:09Z</time>
      </trkpt>
      <trkpt lat="45.28555" lon="5.7825">
        <ele>1791</ele>
        <time>2015-08-22T19:53:11Z</time>
      </trkpt>
      <trkpt lat="45.28563" lon="5.78252">
        <ele>1789.7</ele>
        <time>2015-08-22T19:53:17Z</time>
      </trkpt>
      <trkpt lat="45.28566" lon="5.78255">
        <ele>1790.1</ele>
        <time>2015-08-22T19:53:20Z</time>
      </trkpt>
      <trkpt lat="45.2857" lon="5.78257">
        <ele>1790.1</ele>
        <time>2015-08-22T19:53:22Z</time>
      </trkpt>
      <trkpt lat="45.28576" lon="5.78258">
        <ele>1788.8</ele>
        <time>2015-08-22T19:53:26Z</time>
      </trkpt>
      <trkpt lat="45.28577" lon="5.78257">
        <ele>1788.1</ele>
        <time>2015-08-22T19:53:27Z</time>
      </trkpt>
      <trkpt lat="45.28583" lon="5.78256">
        <ele>1786.2</ele>
        <time>2015-08-22T19:53:32Z</time>
      </trkpt>
      <trkpt lat="45.28586" lon="5.78256">
        <ele>1785.6</ele>
        <time>2015-08-22T19:53:34Z</time>
      </trkpt>
      <trkpt lat="45.28588" lon="5.78257">
        <ele>1785.3</ele>
        <time>2015-08-22T19:53:36Z</time>
      </trkpt>
      <trkpt lat="45.28589" lon="5.78256">
        <ele>1784.6</ele>
        <time>2015-08-22T19:53:37Z</time>
      </trkpt>
      <trkpt lat="45.28593" lon="5.78258">
        <ele>1784.9</ele>
        <time>2015-08-22T19:53:40Z</time>
      </trkpt>
      <trkpt lat="45.28597" lon="5.78259">
        <ele>1784</ele>
        <time>2015-08-22T19:53:43Z</time>
      </trkpt>
      <trkpt lat="45.28598" lon="5.7826">
        <ele>1784.4</ele>
        <time>2015-08-22T19:53:44Z</time>
      </trkpt>
      <trkpt lat="45.28602" lon="5.7826">
        <ele>1783.4</ele>
        <time>2015-08-22T19:53:48Z</time>
      </trkpt>
      <trkpt lat="45.28605" lon="5.78252">
        <ele>1778.7</ele>
        <time>2015-08-22T19:53:52Z</time>
      </trkpt>
      <trkpt lat="45.28603" lon="5.78249">
        <ele>1777.5</ele>
        <time>2015-08-22T19:53:54Z</time>
      </trkpt>
      <trkpt lat="45.28604" lon="5.78244">
        <ele>1774.7</ele>
        <time>2015-08-22T19:53:57Z</time>
      </trkpt>
      <trkpt lat="45.28605" lon="5.78243">
        <ele>1773.9</ele>
        <time>2015-08-22T19:53:58Z</time>
      </trkpt>
      <trkpt lat="45.2861" lon="5.78244">
        <ele>1772.6</ele>
        <time>2015-08-22T19:54:03Z</time>
      </trkpt>
      <trkpt lat="45.28613" lon="5.78243">
        <ele>1771.5</ele>
        <time>2015-08-22T19:54:06Z</time>
      </trkpt>
      <trkpt lat="45.28616" lon="5.78244">
        <ele>1770.8</ele>
        <time>2015-08-22T19:54:08Z</time>
      </trkpt>
      <trkpt lat="45.28619" lon="5.78248">
        <ele>1772.6</ele>
        <time>2015-08-22T19:54:12Z</time>
      </trkpt>
      <trkpt lat="45.2862" lon="5.78249">
        <ele>1772.6</ele>
        <time>2015-08-22T19:54:13Z</time>
      </trkpt>
      <trkpt lat="45.28621" lon="5.7825">
        <ele>1773.1</ele>
        <time>2015-08-22T19:54:17Z</time>
      </trkpt>
      <trkpt lat="45.28621" lon="5.78246">
        <ele>1770.7</ele>
        <time>2015-08-22T19:54:22Z</time>
      </trkpt>
      <trkpt lat="45.28621" lon="5.78244">
        <ele>1769.8</ele>
        <time>2015-08-22T19:54:23Z</time>
      </trkpt>
      <trkpt lat="45.28616" lon="5.78238">
        <ele>1767.5</ele>
        <time>2015-08-22T19:54:29Z</time>
      </trkpt>
      <trkpt lat="45.28616" lon="5.78237">
        <ele>1767.4</ele>
        <time>2015-08-22T19:54:30Z</time>
      </trkpt>
      <trkpt lat="45.28618" lon="5.78238">
        <ele>1767.3</ele>
        <time>2015-08-22T19:54:32Z</time>
      </trkpt>
      <trkpt lat="45.28619" lon="5.78238">
        <ele>1767</ele>
        <time>2015-08-22T19:54:33Z</time>
      </trkpt>
      <trkpt lat="45.28622" lon="5.78239">
        <ele>1766.8</ele>
        <time>2015-08-22T19:54:37Z</time>
      </trkpt>
      <trkpt lat="45.28623" lon="5.78239">
        <ele>1766.5</ele>
        <time>2015-08-22T19:54:38Z</time>
      </trkpt>
      <trkpt lat="45.28625" lon="5.7824">
        <ele>1765.9</ele>
        <time>2015-08-22T19:54:40Z</time>
      </trkpt>
      <trkpt lat="45.28631" lon="5.7824">
        <ele>1764.3</ele>
        <time>2015-08-22T19:54:44Z</time>
      </trkpt>
      <trkpt lat="45.2864" lon="5.7824">
        <ele>1761.5</ele>
        <time>2015-08-22T19:54:50Z</time>
      </trkpt>
      <trkpt lat="45.28646" lon="5.78235">
        <ele>1756.9</ele>
        <time>2015-08-22T19:54:55Z</time>
      </trkpt>
      <trkpt lat="45.28652" lon="5.78236">
        <ele>1755.3</ele>
        <time>2015-08-22T19:54:58Z</time>
      </trkpt>
      <trkpt lat="45.28657" lon="5.78238">
        <ele>1755.2</ele>
        <time>2015-08-22T19:55:01Z</time>
      </trkpt>
      <trkpt lat="45.2866" lon="5.78245">
        <ele>1758.4</ele>
        <time>2015-08-22T19:55:05Z</time>
      </trkpt>
      <trkpt lat="45.28661" lon="5.78247">
        <ele>1758.9</ele>
        <time>2015-08-22T19:55:06Z</time>
      </trkpt>
      <trkpt lat="45.28671" lon="5.78253">
        <ele>1759.9</ele>
        <time>2015-08-22T19:55:13Z</time>
      </trkpt>
      <trkpt lat="45.28683" lon="5.78254">
        <ele>1757.1</ele>
        <time>2015-08-22T19:55:20Z</time>
      </trkpt>
      <trkpt lat="45.28685" lon="5.78252">
        <ele>1754.9</ele>
        <time>2015-08-22T19:55:23Z</time>
      </trkpt>
      <trkpt lat="45.28688" lon="5.78247">
        <ele>1751.6</ele>
        <time>2015-08-22T19:55:26Z</time>
      </trkpt>
      <trkpt lat="45.28689" lon="5.78247">
        <ele>1750.9</ele>
        <time>2015-08-22T19:55:27Z</time>
      </trkpt>
      <trkpt lat="45.28693" lon="5.78244">
        <ele>1747.9</ele>
        <time>2015-08-22T19:55:31Z</time>
      </trkpt>
      <trkpt lat="45.28688" lon="5.78243">
        <ele>1748.6</ele>
        <time>2015-08-22T19:55:36Z</time>
      </trkpt>
      <trkpt lat="45.2868" lon="5.78237">
        <ele>1747.5</ele>
        <time>2015-08-22T19:55:43Z</time>
      </trkpt>
      <trkpt lat="45.28676" lon="5.78236">
        <ele>1748</ele>
        <time>2015-08-22T19:55:46Z</time>
      </trkpt>
      <trkpt lat="45.28674" lon="5.78232">
        <ele>1746.1</ele>
        <time>2015-08-22T19:55:49Z</time>
      </trkpt>
      <trkpt lat="45.28673" lon="5.78231">
        <ele>1745.6</ele>
        <time>2015-08-22T19:55:50Z</time>
      </trkpt>
      <trkpt lat="45.28666" lon="5.78224">
        <ele>1743.9</ele>
        <time>2015-08-22T19:55:57Z</time>
      </trkpt>
      <trkpt lat="45.28663" lon="5.78222">
        <ele>1743.7</ele>
        <time>2015-08-22T19:56:02Z</time>
      </trkpt>
      <trkpt lat="45.28664" lon="5.78218">
        <ele>1740.9</ele>
        <time>2015-08-22T19:56:14Z</time>
      </trkpt>
      <trkpt lat="45.28664" lon="5.78216">
        <ele>1739.9</ele>
        <time>2015-08-22T19:56:16Z</time>
      </trkpt>
      <trkpt lat="45.28663" lon="5.78215">
        <ele>1739.5</ele>
        <time>2015-08-22T19:56:17Z</time>
      </trkpt>
      <trkpt lat="45.2866" lon="5.78212">
        <ele>1738.5</ele>
        <time>2015-08-22T19:56:21Z</time>
      </trkpt>
      <trkpt lat="45.2866" lon="5.78211">
        <ele>1738</ele>
        <time>2015-08-22T19:56:22Z</time>
      </trkpt>
      <trkpt lat="45.2866" lon="5.78209">
        <ele>1736.5</ele>
        <time>2015-08-22T19:56:24Z</time>
      </trkpt>
      <trkpt lat="45.28659" lon="5.78206">
        <ele>1735.2</ele>
        <time>2015-08-22T19:56:26Z</time>
      </trkpt>
      <trkpt lat="45.28658" lon="5.78203">
        <ele>1734</ele>
        <time>2015-08-22T19:56:29Z</time>
      </trkpt>
      <trkpt lat="45.28657" lon="5.78202">
        <ele>1733.4</ele>
        <time>2015-08-22T19:56:30Z</time>
      </trkpt>
      <trkpt lat="45.28652" lon="5.78198">
        <ele>1732.7</ele>
        <time>2015-08-22T19:56:35Z</time>
      </trkpt>
      <trkpt lat="45.2865" lon="5.78196">
        <ele>1731.9</ele>
        <time>2015-08-22T19:56:37Z</time>
      </trkpt>
      <trkpt lat="45.28651" lon="5.78196">
        <ele>1732.1</ele>
        <time>2015-08-22T19:56:40Z</time>
      </trkpt>
      <trkpt lat="45.28658" lon="5.78193">
        <ele>1727.7</ele>
        <time>2015-08-22T19:56:46Z</time>
      </trkpt>
      <trkpt lat="45.28664" lon="5.7819">
        <ele>1724.6</ele>
        <time>2015-08-22T19:56:50Z</time>
      </trkpt>
      <trkpt lat="45.28667" lon="5.7819">
        <ele>1723.5</ele>
        <time>2015-08-22T19:56:52Z</time>
      </trkpt>
      <trkpt lat="45.28668" lon="5.78189">
        <ele>1722.6</ele>
        <time>2015-08-22T19:56:53Z</time>
      </trkpt>
      <trkpt lat="45.28673" lon="5.78189">
        <ele>1721.1</ele>
        <time>2015-08-22T19:56:57Z</time>
      </trkpt>
      <trkpt lat="45.28677" lon="5.78191">
        <ele>1721.3</ele>
        <time>2015-08-22T19:57:01Z</time>
      </trkpt>
      <trkpt lat="45.28679" lon="5.7819">
        <ele>1720.2</ele>
        <time>2015-08-22T19:57:02Z</time>
      </trkpt>
      <trkpt lat="45.28684" lon="5.78183">
        <ele>1715.5</ele>
        <time>2015-08-22T19:57:09Z</time>
      </trkpt>
      <trkpt lat="45.28686" lon="5.78179">
        <ele>1713.1</ele>
        <time>2015-08-22T19:57:12Z</time>
      </trkpt>
      <trkpt lat="45.28687" lon="5.78176">
        <ele>1711.2</ele>
        <time>2015-08-22T19:57:14Z</time>
      </trkpt>
      <trkpt lat="45.28691" lon="5.78167">
        <ele>1705.5</ele>
        <time>2015-08-22T19:57:19Z</time>
      </trkpt>
      <trkpt lat="45.28692" lon="5.78165">
        <ele>1704.7</ele>
        <time>2015-08-22T19:57:20Z</time>
      </trkpt>
      <trkpt lat="45.28696" lon="5.78158">
        <ele>1700.6</ele>
        <time>2015-08-22T19:57:26Z</time>
      </trkpt>
      <trkpt lat="45.28698" lon="5.78153">
        <ele>1697.8</ele>
        <time>2015-08-22T19:57:30Z</time>
      </trkpt>
      <trkpt lat="45.28698" lon="5.78152">
        <ele>1697.1</ele>
        <time>2015-08-22T19:57:31Z</time>
      </trkpt>
      <trkpt lat="45.28699" lon="5.78151">
        <ele>1696.6</ele>
        <time>2015-08-22T19:57:32Z</time>
      </trkpt>
      <trkpt lat="45.28704" lon="5.78147">
        <ele>1694</ele>
        <time>2015-08-22T19:57:36Z</time>
      </trkpt>
      <trkpt lat="45.28709" lon="5.78142">
        <ele>1691.4</ele>
        <time>2015-08-22T19:57:41Z</time>
      </trkpt>
      <trkpt lat="45.28714" lon="5.78137">
        <ele>1689.4</ele>
        <time>2015-08-22T19:57:46Z</time>
      </trkpt>
      <trkpt lat="45.28715" lon="5.78137">
        <ele>1689.1</ele>
        <time>2015-08-22T19:57:47Z</time>
      </trkpt>
      <trkpt lat="45.28715" lon="5.78134">
        <ele>1688</ele>
        <time>2015-08-22T19:57:49Z</time>
      </trkpt>
      <trkpt lat="45.28713" lon="5.78132">
        <ele>1687.1</ele>
        <time>2015-08-22T19:57:51Z</time>
      </trkpt>
      <trkpt lat="45.28702" lon="5.78129">
        <ele>1686.1</ele>
        <time>2015-08-22T19:58:00Z</time>
      </trkpt>
      <trkpt lat="45.28694" lon="5.7813">
        <ele>1687.4</ele>
        <time>2015-08-22T19:58:06Z</time>
      </trkpt>
      <trkpt lat="45.28682" lon="5.78131">
        <ele>1688.9</ele>
        <time>2015-08-22T19:58:14Z</time>
      </trkpt>
      <trkpt lat="45.28677" lon="5.78131">
        <ele>1689.4</ele>
        <time>2015-08-22T19:58:18Z</time>
      </trkpt>
      <trkpt lat="45.28674" lon="5.78132">
        <ele>1690</ele>
        <time>2015-08-22T19:58:20Z</time>
      </trkpt>
      <trkpt lat="45.28671" lon="5.78132">
        <ele>1690.5</ele>
        <time>2015-08-22T19:58:23Z</time>
      </trkpt>
      <trkpt lat="45.28668" lon="5.78131">
        <ele>1690</ele>
        <time>2015-08-22T19:58:25Z</time>
      </trkpt>
      <trkpt lat="45.28664" lon="5.7813">
        <ele>1689.8</ele>
        <time>2015-08-22T19:58:28Z</time>
      </trkpt>
      <trkpt lat="45.28658" lon="5.78128">
        <ele>1689.3</ele>
        <time>2015-08-22T19:58:32Z</time>
      </trkpt>
      <trkpt lat="45.28653" lon="5.78128">
        <ele>1689.8</ele>
        <time>2015-08-22T19:58:35Z</time>
      </trkpt>
      <trkpt lat="45.28648" lon="5.78126">
        <ele>1688.8</ele>
        <time>2015-08-22T19:58:38Z</time>
      </trkpt>
      <trkpt lat="45.28638" lon="5.78123">
        <ele>1688</ele>
        <time>2015-08-22T19:58:44Z</time>
      </trkpt>
      <trkpt lat="45.28629" lon="5.78117">
        <ele>1686.1</ele>
        <time>2015-08-22T19:58:50Z</time>
      </trkpt>
      <trkpt lat="45.28621" lon="5.78111">
        <ele>1685.8</ele>
        <time>2015-08-22T19:58:56Z</time>
      </trkpt>
      <trkpt lat="45.28614" lon="5.78106">
        <ele>1687.3</ele>
        <time>2015-08-22T19:59:02Z</time>
      </trkpt>
      <trkpt lat="45.28608" lon="5.78104">
        <ele>1689.7</ele>
        <time>2015-08-22T19:59:08Z</time>
      </trkpt>
      <trkpt lat="45.28607" lon="5.78103">
        <ele>1689.6</ele>
        <time>2015-08-22T19:59:09Z</time>
      </trkpt>
      <trkpt lat="45.28607" lon="5.781">
        <ele>1688</ele>
        <time>2015-08-22T19:59:12Z</time>
      </trkpt>
      <trkpt lat="45.28609" lon="5.78099">
        <ele>1686.8</ele>
        <time>2015-08-22T19:59:13Z</time>
      </trkpt>
      <trkpt lat="45.28615" lon="5.78093">
        <ele>1680.3</ele>
        <time>2015-08-22T19:59:17Z</time>
      </trkpt>
      <trkpt lat="45.28617" lon="5.78091">
        <ele>1678.9</ele>
        <time>2015-08-22T19:59:18Z</time>
      </trkpt>
      <trkpt lat="45.28625" lon="5.78087">
        <ele>1673.1</ele>
        <time>2015-08-22T19:59:22Z</time>
      </trkpt>
      <trkpt lat="45.28632" lon="5.78086">
        <ele>1672</ele>
        <time>2015-08-22T19:59:26Z</time>
      </trkpt>
      <trkpt lat="45.28634" lon="5.78086">
        <ele>1671.7</ele>
        <time>2015-08-22T19:59:28Z</time>
      </trkpt>
      <trkpt lat="45.28642" lon="5.78081">
        <ele>1669.3</ele>
        <time>2015-08-22T19:59:35Z</time>
      </trkpt>
      <trkpt lat="45.28651" lon="5.78075">
        <ele>1666.4</ele>
        <time>2015-08-22T19:59:42Z</time>
      </trkpt>
      <trkpt lat="45.28654" lon="5.78075">
        <ele>1666.3</ele>
        <time>2015-08-22T19:59:45Z</time>
      </trkpt>
      <trkpt lat="45.28656" lon="5.78075">
        <ele>1666.3</ele>
        <time>2015-08-22T19:59:47Z</time>
      </trkpt>
      <trkpt lat="45.28662" lon="5.78075">
        <ele>1666.1</ele>
        <time>2015-08-22T19:59:53Z</time>
      </trkpt>
      <trkpt lat="45.28664" lon="5.78073">
        <ele>1665.4</ele>
        <time>2015-08-22T19:59:56Z</time>
      </trkpt>
      <trkpt lat="45.28665" lon="5.78073">
        <ele>1665.2</ele>
        <time>2015-08-22T19:59:57Z</time>
      </trkpt>
      <trkpt lat="45.28669" lon="5.7807">
        <ele>1663.8</ele>
        <time>2015-08-22T20:00:02Z</time>
      </trkpt>
      <trkpt lat="45.28671" lon="5.78067">
        <ele>1662.5</ele>
        <time>2015-08-22T20:00:04Z</time>
      </trkpt>
      <trkpt lat="45.28678" lon="5.78062">
        <ele>1660.4</ele>
        <time>2015-08-22T20:00:10Z</time>
      </trkpt>
      <trkpt lat="45.28682" lon="5.78056">
        <ele>1657.8</ele>
        <time>2015-08-22T20:00:15Z</time>
      </trkpt>
      <trkpt lat="45.28685" lon="5.78048">
        <ele>1654.5</ele>
        <time>2015-08-22T20:00:20Z</time>
      </trkpt>
      <trkpt lat="45.28686" lon="5.78046">
        <ele>1653.6</ele>
        <time>2015-08-22T20:00:21Z</time>
      </trkpt>
      <trkpt lat="45.28691" lon="5.78032">
        <ele>1647.9</ele>
        <time>2015-08-22T20:00:28Z</time>
      </trkpt>
      <trkpt lat="45.287" lon="5.78021">
        <ele>1642.7</ele>
        <time>2015-08-22T20:00:35Z</time>
      </trkpt>
      <trkpt lat="45.28704" lon="5.78019">
        <ele>1642</ele>
        <time>2015-08-22T20:00:39Z</time>
      </trkpt>
      <trkpt lat="45.28705" lon="5.78019">
        <ele>1641.8</ele>
        <time>2015-08-22T20:00:40Z</time>
      </trkpt>
      <trkpt lat="45.28705" lon="5.78015">
        <ele>1639.7</ele>
        <time>2015-08-22T20:00:43Z</time>
      </trkpt>
      <trkpt lat="45.28698" lon="5.78015">
        <ele>1640.2</ele>
        <time>2015-08-22T20:00:47Z</time>
      </trkpt>
      <trkpt lat="45.28688" lon="5.78018">
        <ele>1641.8</ele>
        <time>2015-08-22T20:00:53Z</time>
      </trkpt>
      <trkpt lat="45.28679" lon="5.78022">
        <ele>1643.6</ele>
        <time>2015-08-22T20:00:58Z</time>
      </trkpt>
      <trkpt lat="45.28678" lon="5.78023">
        <ele>1644.1</ele>
        <time>2015-08-22T20:00:59Z</time>
      </trkpt>
      <trkpt lat="45.28667" lon="5.78028">
        <ele>1646.5</ele>
        <time>2015-08-22T20:01:06Z</time>
      </trkpt>
      <trkpt lat="45.28664" lon="5.78029">
        <ele>1647</ele>
        <time>2015-08-22T20:01:10Z</time>
      </trkpt>
      <trkpt lat="45.28661" lon="5.78028">
        <ele>1646.3</ele>
        <time>2015-08-22T20:01:12Z</time>
      </trkpt>
      <trkpt lat="45.28653" lon="5.78026">
        <ele>1645.8</ele>
        <time>2015-08-22T20:01:18Z</time>
      </trkpt>
      <trkpt lat="45.28645" lon="5.78027">
        <ele>1646.2</ele>
        <time>2015-08-22T20:01:24Z</time>
      </trkpt>
      <trkpt lat="45.28639" lon="5.78023">
        <ele>1644.8</ele>
        <time>2015-08-22T20:01:30Z</time>
      </trkpt>
      <trkpt lat="45.28637" lon="5.7802">
        <ele>1643.7</ele>
        <time>2015-08-22T20:01:33Z</time>
      </trkpt>
      <trkpt lat="45.28635" lon="5.78019">
        <ele>1643.4</ele>
        <time>2015-08-22T20:01:35Z</time>
      </trkpt>
      <trkpt lat="45.28623" lon="5.78018">
        <ele>1643.9</ele>
        <time>2015-08-22T20:01:43Z</time>
      </trkpt>
      <trkpt lat="45.28616" lon="5.78011">
        <ele>1644</ele>
        <time>2015-08-22T20:01:50Z</time>
      </trkpt>
      <trkpt lat="45.2861" lon="5.78005">
        <ele>1643.8</ele>
        <time>2015-08-22T20:01:55Z</time>
      </trkpt>
      <trkpt lat="45.28599" lon="5.78002">
        <ele>1646.9</ele>
        <time>2015-08-22T20:02:03Z</time>
      </trkpt>
      <trkpt lat="45.28595" lon="5.77999">
        <ele>1647.3</ele>
        <time>2015-08-22T20:02:07Z</time>
      </trkpt>
      <trkpt lat="45.28595" lon="5.77998">
        <ele>1647.1</ele>
        <time>2015-08-22T20:02:08Z</time>
      </trkpt>
      <trkpt lat="45.28593" lon="5.77995">
        <ele>1646.5</ele>
        <time>2015-08-22T20:02:11Z</time>
      </trkpt>
      <trkpt lat="45.28592" lon="5.77991">
        <ele>1645.5</ele>
        <time>2015-08-22T20:02:13Z</time>
      </trkpt>
      <trkpt lat="45.28589" lon="5.77977">
        <ele>1641.5</ele>
        <time>2015-08-22T20:02:21Z</time>
      </trkpt>
      <trkpt lat="45.28587" lon="5.77969">
        <ele>1639.5</ele>
        <time>2015-08-22T20:02:27Z</time>
      </trkpt>
      <trkpt lat="45.28586" lon="5.77964">
        <ele>1638.1</ele>
        <time>2015-08-22T20:02:31Z</time>
      </trkpt>
      <trkpt lat="45.28586" lon="5.77963">
        <ele>1637.9</ele>
        <time>2015-08-22T20:02:32Z</time>
      </trkpt>
      <trkpt lat="45.28585" lon="5.77959">
        <ele>1636.9</ele>
        <time>2015-08-22T20:02:37Z</time>
      </trkpt>
      <trkpt lat="45.28586" lon="5.7796">
        <ele>1636.7</ele>
        <time>2015-08-22T20:02:40Z</time>
      </trkpt>
      <trkpt lat="45.28589" lon="5.77963">
        <ele>1636.9</ele>
        <time>2015-08-22T20:02:43Z</time>
      </trkpt>
      <trkpt lat="45.28589" lon="5.77964">
        <ele>1636.6</ele>
        <time>2015-08-22T20:02:44Z</time>
      </trkpt>
      <trkpt lat="45.28596" lon="5.77962">
        <ele>1633.8</ele>
        <time>2015-08-22T20:02:49Z</time>
      </trkpt>
      <trkpt lat="45.28596" lon="5.77963">
        <ele>1633.7</ele>
        <time>2015-08-22T20:02:50Z</time>
      </trkpt>
      <trkpt lat="45.28597" lon="5.77964">
        <ele>1633.9</ele>
        <time>2015-08-22T20:02:52Z</time>
      </trkpt>
      <trkpt lat="45.28598" lon="5.77965">
        <ele>1633.9</ele>
        <time>2015-08-22T20:02:53Z</time>
      </trkpt>
      <trkpt lat="45.28601" lon="5.77964">
        <ele>1632.5</ele>
        <time>2015-08-22T20:02:56Z</time>
      </trkpt>
      <trkpt lat="45.28607" lon="5.77958">
        <ele>1627.9</ele>
        <time>2015-08-22T20:03:06Z</time>
      </trkpt>
      <trkpt lat="45.28607" lon="5.77956">
        <ele>1627.2</ele>
        <time>2015-08-22T20:03:08Z</time>
      </trkpt>
      <trkpt lat="45.28608" lon="5.77956">
        <ele>1626.6</ele>
        <time>2015-08-22T20:03:10Z</time>
      </trkpt>
      <trkpt lat="45.28612" lon="5.77952">
        <ele>1623.6</ele>
        <time>2015-08-22T20:03:13Z</time>
      </trkpt>
      <trkpt lat="45.28612" lon="5.77951">
        <ele>1623.3</ele>
        <time>2015-08-22T20:03:14Z</time>
      </trkpt>
      <trkpt lat="45.28614" lon="5.77948">
        <ele>1621.5</ele>
        <time>2015-08-22T20:03:16Z</time>
      </trkpt>
      <trkpt lat="45.28615" lon="5.77946">
        <ele>1620.6</ele>
        <time>2015-08-22T20:03:17Z</time>
      </trkpt>
      <trkpt lat="45.28616" lon="5.77946">
        <ele>1619.9</ele>
        <time>2015-08-22T20:03:19Z</time>
      </trkpt>
      <trkpt lat="45.28618" lon="5.77943">
        <ele>1618.1</ele>
        <time>2015-08-22T20:03:21Z</time>
      </trkpt>
      <trkpt lat="45.28622" lon="5.77938">
        <ele>1614.8</ele>
        <time>2015-08-22T20:03:27Z</time>
      </trkpt>
      <trkpt lat="45.28623" lon="5.77938">
        <ele>1614.3</ele>
        <time>2015-08-22T20:03:28Z</time>
      </trkpt>
      <trkpt lat="45.28627" lon="5.77932">
        <ele>1611.3</ele>
        <time>2015-08-22T20:03:33Z</time>
      </trkpt>
      <trkpt lat="45.28629" lon="5.77927">
        <ele>1609.4</ele>
        <time>2015-08-22T20:03:38Z</time>
      </trkpt>
      <trkpt lat="45.28632" lon="5.77922">
        <ele>1607.1</ele>
        <time>2015-08-22T20:03:42Z</time>
      </trkpt>
      <trkpt lat="45.28634" lon="5.7792">
        <ele>1606.3</ele>
        <time>2015-08-22T20:03:44Z</time>
      </trkpt>
      <trkpt lat="45.28635" lon="5.77918">
        <ele>1605.4</ele>
        <time>2015-08-22T20:03:45Z</time>
      </trkpt>
      <trkpt lat="45.28638" lon="5.77913">
        <ele>1603.1</ele>
        <time>2015-08-22T20:03:49Z</time>
      </trkpt>
      <trkpt lat="45.28643" lon="5.77907">
        <ele>1600.5</ele>
        <time>2015-08-22T20:03:54Z</time>
      </trkpt>
      <trkpt lat="45.28646" lon="5.77904">
        <ele>1598.9</ele>
        <time>2015-08-22T20:03:57Z</time>
      </trkpt>
      <trkpt lat="45.28648" lon="5.77902">
        <ele>1597.6</ele>
        <time>2015-08-22T20:04:00Z</time>
      </trkpt>
      <trkpt lat="45.28649" lon="5.779">
        <ele>1596.8</ele>
        <time>2015-08-22T20:04:01Z</time>
      </trkpt>
      <trkpt lat="45.28648" lon="5.77895">
        <ele>1595.1</ele>
        <time>2015-08-22T20:04:04Z</time>
      </trkpt>
      <trkpt lat="45.28648" lon="5.77893">
        <ele>1594.6</ele>
        <time>2015-08-22T20:04:05Z</time>
      </trkpt>
      <trkpt lat="45.28651" lon="5.7789">
        <ele>1592.8</ele>
        <time>2015-08-22T20:04:09Z</time>
      </trkpt>
      <trkpt lat="45.2866" lon="5.7788">
        <ele>1587.9</ele>
        <time>2015-08-22T20:04:16Z</time>
      </trkpt>
      <trkpt lat="45.28663" lon="5.77874">
        <ele>1585.3</ele>
        <time>2015-08-22T20:04:19Z</time>
      </trkpt>
      <trkpt lat="45.28667" lon="5.77867">
        <ele>1581.7</ele>
        <time>2015-08-22T20:04:23Z</time>
      </trkpt>
      <trkpt lat="45.2867" lon="5.77862">
        <ele>1579.5</ele>
        <time>2015-08-22T20:04:26Z</time>
      </trkpt>
      <trkpt lat="45.28672" lon="5.77858">
        <ele>1577.7</ele>
        <time>2015-08-22T20:04:28Z</time>
      </trkpt>
      <trkpt lat="45.28674" lon="5.77853">
        <ele>1575.6</ele>
        <time>2015-08-22T20:04:30Z</time>
      </trkpt>
      <trkpt lat="45.28675" lon="5.7785">
        <ele>1574.3</ele>
        <time>2015-08-22T20:04:31Z</time>
      </trkpt>
      <trkpt lat="45.28676" lon="5.7785">
        <ele>1573.9</ele>
        <time>2015-08-22T20:04:32Z</time>
      </trkpt>
      <trkpt lat="45.28682" lon="5.77847">
        <ele>1572.2</ele>
        <time>2015-08-22T20:04:37Z</time>
      </trkpt>
      <trkpt lat="45.28689" lon="5.77847">
        <ele>1571.2</ele>
        <time>2015-08-22T20:04:43Z</time>
      </trkpt>
      <trkpt lat="45.28695" lon="5.77846">
        <ele>1570.1</ele>
        <time>2015-08-22T20:04:48Z</time>
      </trkpt>
      <trkpt lat="45.28697" lon="5.77845">
        <ele>1569.6</ele>
        <time>2015-08-22T20:04:49Z</time>
      </trkpt>
      <trkpt lat="45.28702" lon="5.77842">
        <ele>1567.5</ele>
        <time>2015-08-22T20:04:53Z</time>
      </trkpt>
      <trkpt lat="45.28708" lon="5.77841">
        <ele>1566.5</ele>
        <time>2015-08-22T20:05:00Z</time>
      </trkpt>
      <trkpt lat="45.28713" lon="5.77838">
        <ele>1565.2</ele>
        <time>2015-08-22T20:05:04Z</time>
      </trkpt>
      <trkpt lat="45.28713" lon="5.77838">
        <ele>1565.5</ele>
        <time>2015-08-22T20:05:05Z</time>
      </trkpt>
      <trkpt lat="45.28715" lon="5.7784">
        <ele>1566.2</ele>
        <time>2015-08-22T20:05:08Z</time>
      </trkpt>
      <trkpt lat="45.28717" lon="5.77843">
        <ele>1567.2</ele>
        <time>2015-08-22T20:05:10Z</time>
      </trkpt>
      <trkpt lat="45.28717" lon="5.77843">
        <ele>1567.2</ele>
        <time>2015-08-22T20:05:11Z</time>
      </trkpt>
      <trkpt lat="45.28722" lon="5.77844">
        <ele>1567.9</ele>
        <time>2015-08-22T20:05:15Z</time>
      </trkpt>
      <trkpt lat="45.28725" lon="5.77846">
        <ele>1568.7</ele>
        <time>2015-08-22T20:05:17Z</time>
      </trkpt>
      <trkpt lat="45.28728" lon="5.77847">
        <ele>1569</ele>
        <time>2015-08-22T20:05:20Z</time>
      </trkpt>
      <trkpt lat="45.28727" lon="5.7784">
        <ele>1566.2</ele>
        <time>2015-08-22T20:05:26Z</time>
      </trkpt>
      <trkpt lat="45.28728" lon="5.77839">
        <ele>1565.8</ele>
        <time>2015-08-22T20:05:27Z</time>
      </trkpt>
      <trkpt lat="45.28731" lon="5.77839">
        <ele>1566.1</ele>
        <time>2015-08-22T20:05:31Z</time>
      </trkpt>
      <trkpt lat="45.28735" lon="5.7784">
        <ele>1566.4</ele>
        <time>2015-08-22T20:05:37Z</time>
      </trkpt>
      <trkpt lat="45.28736" lon="5.77841">
        <ele>1566.7</ele>
        <time>2015-08-22T20:05:38Z</time>
      </trkpt>
      <trkpt lat="45.28742" lon="5.77843">
        <ele>1567.9</ele>
        <time>2015-08-22T20:05:45Z</time>
      </trkpt>
      <trkpt lat="45.28747" lon="5.77839">
        <ele>1566.3</ele>
        <time>2015-08-22T20:05:51Z</time>
      </trkpt>
      <trkpt lat="45.28746" lon="5.77838">
        <ele>1566</ele>
        <time>2015-08-22T20:05:54Z</time>
      </trkpt>
      <trkpt lat="45.28748" lon="5.77836">
        <ele>1565.1</ele>
        <time>2015-08-22T20:06:01Z</time>
      </trkpt>
      <trkpt lat="45.28753" lon="5.77835">
        <ele>1564.8</ele>
        <time>2015-08-22T20:06:05Z</time>
      </trkpt>
      <trkpt lat="45.2876" lon="5.77832">
        <ele>1563.6</ele>
        <time>2015-08-22T20:06:10Z</time>
      </trkpt>
      <trkpt lat="45.28761" lon="5.77832">
        <ele>1563.6</ele>
        <time>2015-08-22T20:06:12Z</time>
      </trkpt>
      <trkpt lat="45.28762" lon="5.77832">
        <ele>1563.6</ele>
        <time>2015-08-22T20:06:14Z</time>
      </trkpt>
      <trkpt lat="45.28764" lon="5.77832">
        <ele>1563.8</ele>
        <time>2015-08-22T20:06:16Z</time>
      </trkpt>
      <trkpt lat="45.28768" lon="5.77833">
        <ele>1563.9</ele>
        <time>2015-08-22T20:06:20Z</time>
      </trkpt>
      <trkpt lat="45.28769" lon="5.77832">
        <ele>1563.6</ele>
        <time>2015-08-22T20:06:22Z</time>
      </trkpt>
      <trkpt lat="45.28772" lon="5.77832">
        <ele>1563.6</ele>
        <time>2015-08-22T20:06:26Z</time>
      </trkpt>
      <trkpt lat="45.28777" lon="5.7783">
        <ele>1562.7</ele>
        <time>2015-08-22T20:06:32Z</time>
      </trkpt>
      <trkpt lat="45.28781" lon="5.7783">
        <ele>1563</ele>
        <time>2015-08-22T20:06:35Z</time>
      </trkpt>
      <trkpt lat="45.28783" lon="5.77828">
        <ele>1562.3</ele>
        <time>2015-08-22T20:06:37Z</time>
      </trkpt>
      <trkpt lat="45.28784" lon="5.77827">
        <ele>1561.5</ele>
        <time>2015-08-22T20:06:39Z</time>
      </trkpt>
      <trkpt lat="45.28782" lon="5.77818">
        <ele>1557.7</ele>
        <time>2015-08-22T20:06:43Z</time>
      </trkpt>
      <trkpt lat="45.2878" lon="5.77815">
        <ele>1556.6</ele>
        <time>2015-08-22T20:06:46Z</time>
      </trkpt>
      <trkpt lat="45.2878" lon="5.77813">
        <ele>1555.6</ele>
        <time>2015-08-22T20:06:47Z</time>
      </trkpt>
      <trkpt lat="45.28779" lon="5.77809">
        <ele>1553.6</ele>
        <time>2015-08-22T20:06:50Z</time>
      </trkpt>
      <trkpt lat="45.28778" lon="5.77807">
        <ele>1552.8</ele>
        <time>2015-08-22T20:06:51Z</time>
      </trkpt>
      <trkpt lat="45.28777" lon="5.77805">
        <ele>1552.1</ele>
        <time>2015-08-22T20:06:53Z</time>
      </trkpt>
      <trkpt lat="45.28773" lon="5.77802">
        <ele>1551</ele>
        <time>2015-08-22T20:06:56Z</time>
      </trkpt>
      <trkpt lat="45.28771" lon="5.77798">
        <ele>1549.1</ele>
        <time>2015-08-22T20:07:00Z</time>
      </trkpt>
      <trkpt lat="45.28763" lon="5.77799">
        <ele>1549.8</ele>
        <time>2015-08-22T20:07:06Z</time>
      </trkpt>
      <trkpt lat="45.28757" lon="5.77794">
        <ele>1547.7</ele>
        <time>2015-08-22T20:07:11Z</time>
      </trkpt>
      <trkpt lat="45.28757" lon="5.77791">
        <ele>1546.3</ele>
        <time>2015-08-22T20:07:12Z</time>
      </trkpt>
      <trkpt lat="45.28755" lon="5.77782">
        <ele>1542.3</ele>
        <time>2015-08-22T20:07:17Z</time>
      </trkpt>
      <trkpt lat="45.28751" lon="5.77777">
        <ele>1540.6</ele>
        <time>2015-08-22T20:07:21Z</time>
      </trkpt>
      <trkpt lat="45.28752" lon="5.77777">
        <ele>1540.2</ele>
        <time>2015-08-22T20:07:25Z</time>
      </trkpt>
      <trkpt lat="45.28752" lon="5.77776">
        <ele>1540</ele>
        <time>2015-08-22T20:07:26Z</time>
      </trkpt>
      <trkpt lat="45.2875" lon="5.77774">
        <ele>1538.8</ele>
        <time>2015-08-22T20:07:27Z</time>
      </trkpt>
      <trkpt lat="45.28746" lon="5.77773">
        <ele>1538.5</ele>
        <time>2015-08-22T20:07:30Z</time>
      </trkpt>
      <trkpt lat="45.28739" lon="5.77772">
        <ele>1538.2</ele>
        <time>2015-08-22T20:07:35Z</time>
      </trkpt>
      <trkpt lat="45.28737" lon="5.77771">
        <ele>1537.8</ele>
        <time>2015-08-22T20:07:36Z</time>
      </trkpt>
      <trkpt lat="45.28735" lon="5.77767">
        <ele>1536.1</ele>
        <time>2015-08-22T20:07:39Z</time>
      </trkpt>
      <trkpt lat="45.28732" lon="5.77768">
        <ele>1536.8</ele>
        <time>2015-08-22T20:07:44Z</time>
      </trkpt>
      <trkpt lat="45.28731" lon="5.77768">
        <ele>1536.6</ele>
        <time>2015-08-22T20:07:45Z</time>
      </trkpt>
      <trkpt lat="45.28726" lon="5.77767">
        <ele>1536.3</ele>
        <time>2015-08-22T20:07:48Z</time>
      </trkpt>
      <trkpt lat="45.28722" lon="5.7777">
        <ele>1538</ele>
        <time>2015-08-22T20:07:51Z</time>
      </trkpt>
      <trkpt lat="45.28718" lon="5.77769">
        <ele>1537.4</ele>
        <time>2015-08-22T20:07:55Z</time>
      </trkpt>
      <trkpt lat="45.28717" lon="5.77768">
        <ele>1537</ele>
        <time>2015-08-22T20:07:56Z</time>
      </trkpt>
      <trkpt lat="45.28711" lon="5.77767">
        <ele>1536.9</ele>
        <time>2015-08-22T20:08:00Z</time>
      </trkpt>
      <trkpt lat="45.28709" lon="5.77769">
        <ele>1537.7</ele>
        <time>2015-08-22T20:08:01Z</time>
      </trkpt>
      <trkpt lat="45.28708" lon="5.7777">
        <ele>1538.1</ele>
        <time>2015-08-22T20:08:02Z</time>
      </trkpt>
      <trkpt lat="45.28708" lon="5.77773">
        <ele>1539.7</ele>
        <time>2015-08-22T20:08:05Z</time>
      </trkpt>
      <trkpt lat="45.28705" lon="5.77773">
        <ele>1539.8</ele>
        <time>2015-08-22T20:08:08Z</time>
      </trkpt>
      <trkpt lat="45.287" lon="5.77774">
        <ele>1541.1</ele>
        <time>2015-08-22T20:08:12Z</time>
      </trkpt>
      <trkpt lat="45.28696" lon="5.77776">
        <ele>1542.5</ele>
        <time>2015-08-22T20:08:17Z</time>
      </trkpt>
      <trkpt lat="45.28694" lon="5.77775">
        <ele>1541.9</ele>
        <time>2015-08-22T20:08:18Z</time>
      </trkpt>
      <trkpt lat="45.2869" lon="5.77771">
        <ele>1540.9</ele>
        <time>2015-08-22T20:08:21Z</time>
      </trkpt>
      <trkpt lat="45.28683" lon="5.77772">
        <ele>1541.8</ele>
        <time>2015-08-22T20:08:27Z</time>
      </trkpt>
      <trkpt lat="45.2868" lon="5.77771">
        <ele>1541.9</ele>
        <time>2015-08-22T20:08:30Z</time>
      </trkpt>
      <trkpt lat="45.28679" lon="5.77769">
        <ele>1541.2</ele>
        <time>2015-08-22T20:08:34Z</time>
      </trkpt>
      <trkpt lat="45.28682" lon="5.77769">
        <ele>1540.9</ele>
        <time>2015-08-22T20:09:29Z</time>
      </trkpt>
      <trkpt lat="45.2868" lon="5.7777">
        <ele>1541.5</ele>
        <time>2015-08-22T20:09:32Z</time>
      </trkpt>
      <trkpt lat="45.28682" lon="5.77769">
        <ele>1540.7</ele>
        <time>2015-08-22T20:09:35Z</time>
      </trkpt>
      <trkpt lat="45.28687" lon="5.77768">
        <ele>1539.9</ele>
        <time>2015-08-22T20:09:39Z</time>
      </trkpt>
      <trkpt lat="45.28693" lon="5.77769">
        <ele>1539.6</ele>
        <time>2015-08-22T20:09:44Z</time>
      </trkpt>
      <trkpt lat="45.28694" lon="5.77769">
        <ele>1539.4</ele>
        <time>2015-08-22T20:09:45Z</time>
      </trkpt>
      <trkpt lat="45.28696" lon="5.77769">
        <ele>1539</ele>
        <time>2015-08-22T20:09:46Z</time>
      </trkpt>
      <trkpt lat="45.287" lon="5.77763">
        <ele>1536.1</ele>
        <time>2015-08-22T20:09:49Z</time>
      </trkpt>
      <trkpt lat="45.28707" lon="5.77757">
        <ele>1532.4</ele>
        <time>2015-08-22T20:09:53Z</time>
      </trkpt>
      <trkpt lat="45.28708" lon="5.77754">
        <ele>1530.8</ele>
        <time>2015-08-22T20:09:55Z</time>
      </trkpt>
      <trkpt lat="45.28713" lon="5.77752">
        <ele>1529.8</ele>
        <time>2015-08-22T20:09:58Z</time>
      </trkpt>
      <trkpt lat="45.28715" lon="5.77751">
        <ele>1529.4</ele>
        <time>2015-08-22T20:09:59Z</time>
      </trkpt>
      <trkpt lat="45.28726" lon="5.77745">
        <ele>1526.4</ele>
        <time>2015-08-22T20:10:05Z</time>
      </trkpt>
      <trkpt lat="45.28732" lon="5.77743">
        <ele>1525.3</ele>
        <time>2015-08-22T20:10:08Z</time>
      </trkpt>
      <trkpt lat="45.28738" lon="5.7774">
        <ele>1524.2</ele>
        <time>2015-08-22T20:10:11Z</time>
      </trkpt>
      <trkpt lat="45.28746" lon="5.77736">
        <ele>1522</ele>
        <time>2015-08-22T20:10:16Z</time>
      </trkpt>
      <trkpt lat="45.28748" lon="5.77735">
        <ele>1521.4</ele>
        <time>2015-08-22T20:10:17Z</time>
      </trkpt>
      <trkpt lat="45.2875" lon="5.77733">
        <ele>1520.7</ele>
        <time>2015-08-22T20:10:18Z</time>
      </trkpt>
      <trkpt lat="45.28754" lon="5.77732">
        <ele>1520.3</ele>
        <time>2015-08-22T20:10:21Z</time>
      </trkpt>
      <trkpt lat="45.2876" lon="5.77732">
        <ele>1519.9</ele>
        <time>2015-08-22T20:10:25Z</time>
      </trkpt>
      <trkpt lat="45.2876" lon="5.77731">
        <ele>1519.6</ele>
        <time>2015-08-22T20:10:26Z</time>
      </trkpt>
      <trkpt lat="45.28769" lon="5.7773">
        <ele>1518.9</ele>
        <time>2015-08-22T20:10:30Z</time>
      </trkpt>
      <trkpt lat="45.2877" lon="5.7773">
        <ele>1519</ele>
        <time>2015-08-22T20:10:31Z</time>
      </trkpt>
      <trkpt lat="45.28772" lon="5.77729">
        <ele>1518.7</ele>
        <time>2015-08-22T20:10:32Z</time>
      </trkpt>
      <trkpt lat="45.28775" lon="5.77727">
        <ele>1517.5</ele>
        <time>2015-08-22T20:10:34Z</time>
      </trkpt>
      <trkpt lat="45.28788" lon="5.77721">
        <ele>1514.6</ele>
        <time>2015-08-22T20:10:39Z</time>
      </trkpt>
      <trkpt lat="45.28796" lon="5.7772">
        <ele>1514.3</ele>
        <time>2015-08-22T20:10:44Z</time>
      </trkpt>
      <trkpt lat="45.28797" lon="5.77719">
        <ele>1514.2</ele>
        <time>2015-08-22T20:10:45Z</time>
      </trkpt>
      <trkpt lat="45.28804" lon="5.77717">
        <ele>1514</ele>
        <time>2015-08-22T20:10:49Z</time>
      </trkpt>
      <trkpt lat="45.28805" lon="5.77715">
        <ele>1513.3</ele>
        <time>2015-08-22T20:10:50Z</time>
      </trkpt>
      <trkpt lat="45.28809" lon="5.77716">
        <ele>1514.1</ele>
        <time>2015-08-22T20:10:53Z</time>
      </trkpt>
      <trkpt lat="45.28812" lon="5.77714">
        <ele>1513.2</ele>
        <time>2015-08-22T20:10:56Z</time>
      </trkpt>
      <trkpt lat="45.28813" lon="5.77712">
        <ele>1512.6</ele>
        <time>2015-08-22T20:10:57Z</time>
      </trkpt>
      <trkpt lat="45.28817" lon="5.77713">
        <ele>1513.6</ele>
        <time>2015-08-22T20:11:02Z</time>
      </trkpt>
      <trkpt lat="45.28821" lon="5.77709">
        <ele>1512.1</ele>
        <time>2015-08-22T20:11:06Z</time>
      </trkpt>
      <trkpt lat="45.28826" lon="5.77707">
        <ele>1511.9</ele>
        <time>2015-08-22T20:11:10Z</time>
      </trkpt>
      <trkpt lat="45.28828" lon="5.77703">
        <ele>1510.5</ele>
        <time>2015-08-22T20:11:12Z</time>
      </trkpt>
      <trkpt lat="45.28832" lon="5.77701">
        <ele>1510.1</ele>
        <time>2015-08-22T20:11:15Z</time>
      </trkpt>
      <trkpt lat="45.28834" lon="5.777">
        <ele>1510</ele>
        <time>2015-08-22T20:11:16Z</time>
      </trkpt>
      <trkpt lat="45.28841" lon="5.77684">
        <ele>1504.7</ele>
        <time>2015-08-22T20:11:23Z</time>
      </trkpt>
      <trkpt lat="45.28845" lon="5.77676">
        <ele>1502.1</ele>
        <time>2015-08-22T20:11:26Z</time>
      </trkpt>
      <trkpt lat="45.28849" lon="5.77673">
        <ele>1501.4</ele>
        <time>2015-08-22T20:11:28Z</time>
      </trkpt>
      <trkpt lat="45.28855" lon="5.77667">
        <ele>1499.7</ele>
        <time>2015-08-22T20:11:33Z</time>
      </trkpt>
      <trkpt lat="45.28863" lon="5.77661">
        <ele>1498.3</ele>
        <time>2015-08-22T20:11:39Z</time>
      </trkpt>
      <trkpt lat="45.28871" lon="5.77658">
        <ele>1497.7</ele>
        <time>2015-08-22T20:11:45Z</time>
      </trkpt>
      <trkpt lat="45.28874" lon="5.77656">
        <ele>1497.2</ele>
        <time>2015-08-22T20:11:48Z</time>
      </trkpt>
      <trkpt lat="45.28875" lon="5.77655">
        <ele>1497.1</ele>
        <time>2015-08-22T20:11:49Z</time>
      </trkpt>
      <trkpt lat="45.28885" lon="5.77652">
        <ele>1496</ele>
        <time>2015-08-22T20:11:53Z</time>
      </trkpt>
      <trkpt lat="45.28887" lon="5.77652">
        <ele>1495.8</ele>
        <time>2015-08-22T20:11:54Z</time>
      </trkpt>
      <trkpt lat="45.28895" lon="5.77646">
        <ele>1493.7</ele>
        <time>2015-08-22T20:12:00Z</time>
      </trkpt>
      <trkpt lat="45.28895" lon="5.77644">
        <ele>1493.1</ele>
        <time>2015-08-22T20:12:01Z</time>
      </trkpt>
      <trkpt lat="45.289" lon="5.77645">
        <ele>1493.4</ele>
        <time>2015-08-22T20:12:05Z</time>
      </trkpt>
      <trkpt lat="45.28905" lon="5.77644">
        <ele>1493</ele>
        <time>2015-08-22T20:12:07Z</time>
      </trkpt>
      <trkpt lat="45.28915" lon="5.77641">
        <ele>1491.9</ele>
        <time>2015-08-22T20:12:12Z</time>
      </trkpt>
      <trkpt lat="45.28925" lon="5.77641">
        <ele>1491.9</ele>
        <time>2015-08-22T20:12:17Z</time>
      </trkpt>
      <trkpt lat="45.28927" lon="5.77642">
        <ele>1492</ele>
        <time>2015-08-22T20:12:18Z</time>
      </trkpt>
      <trkpt lat="45.28937" lon="5.77646">
        <ele>1493.3</ele>
        <time>2015-08-22T20:12:23Z</time>
      </trkpt>
      <trkpt lat="45.28944" lon="5.77646">
        <ele>1493.5</ele>
        <time>2015-08-22T20:12:28Z</time>
      </trkpt>
      <trkpt lat="45.28944" lon="5.77647">
        <ele>1493.8</ele>
        <time>2015-08-22T20:12:30Z</time>
      </trkpt>
      <trkpt lat="45.28947" lon="5.77646">
        <ele>1493.3</ele>
        <time>2015-08-22T20:12:33Z</time>
      </trkpt>
      <trkpt lat="45.28948" lon="5.77646">
        <ele>1493.5</ele>
        <time>2015-08-22T20:12:34Z</time>
      </trkpt>
      <trkpt lat="45.28954" lon="5.77648">
        <ele>1493.9</ele>
        <time>2015-08-22T20:12:37Z</time>
      </trkpt>
      <trkpt lat="45.28958" lon="5.77649">
        <ele>1494.4</ele>
        <time>2015-08-22T20:12:41Z</time>
      </trkpt>
      <trkpt lat="45.2896" lon="5.77649">
        <ele>1494.2</ele>
        <time>2015-08-22T20:12:42Z</time>
      </trkpt>
      <trkpt lat="45.28965" lon="5.77648">
        <ele>1492.8</ele>
        <time>2015-08-22T20:12:45Z</time>
      </trkpt>
      <trkpt lat="45.28975" lon="5.77648">
        <ele>1491.7</ele>
        <time>2015-08-22T20:12:49Z</time>
      </trkpt>
      <trkpt lat="45.28978" lon="5.77647">
        <ele>1490.7</ele>
        <time>2015-08-22T20:12:51Z</time>
      </trkpt>
      <trkpt lat="45.2898" lon="5.77648">
        <ele>1490.6</ele>
        <time>2015-08-22T20:12:52Z</time>
      </trkpt>
      <trkpt lat="45.28986" lon="5.77646">
        <ele>1488.9</ele>
        <time>2015-08-22T20:12:56Z</time>
      </trkpt>
      <trkpt lat="45.2899" lon="5.77645">
        <ele>1488</ele>
        <time>2015-08-22T20:13:00Z</time>
      </trkpt>
      <trkpt lat="45.28999" lon="5.77649">
        <ele>1488.1</ele>
        <time>2015-08-22T20:13:05Z</time>
      </trkpt>
      <trkpt lat="45.29001" lon="5.77651">
        <ele>1488.6</ele>
        <time>2015-08-22T20:13:07Z</time>
      </trkpt>
      <trkpt lat="45.29006" lon="5.77657">
        <ele>1489.9</ele>
        <time>2015-08-22T20:13:12Z</time>
      </trkpt>
      <trkpt lat="45.2901" lon="5.7766">
        <ele>1490.5</ele>
        <time>2015-08-22T20:13:15Z</time>
      </trkpt>
      <trkpt lat="45.29016" lon="5.77662">
        <ele>1490.4</ele>
        <time>2015-08-22T20:13:18Z</time>
      </trkpt>
      <trkpt lat="45.29023" lon="5.77667">
        <ele>1491.3</ele>
        <time>2015-08-22T20:13:24Z</time>
      </trkpt>
      <trkpt lat="45.29024" lon="5.77667">
        <ele>1491.3</ele>
        <time>2015-08-22T20:13:25Z</time>
      </trkpt>
      <trkpt lat="45.29029" lon="5.7767">
        <ele>1491.5</ele>
        <time>2015-08-22T20:13:28Z</time>
      </trkpt>
      <trkpt lat="45.2903" lon="5.77671">
        <ele>1491.8</ele>
        <time>2015-08-22T20:13:29Z</time>
      </trkpt>
      <trkpt lat="45.29031" lon="5.77671">
        <ele>1491.8</ele>
        <time>2015-08-22T20:13:30Z</time>
      </trkpt>
      <trkpt lat="45.29037" lon="5.77672">
        <ele>1491.3</ele>
        <time>2015-08-22T20:13:33Z</time>
      </trkpt>
      <trkpt lat="45.29038" lon="5.77673">
        <ele>1491.4</ele>
        <time>2015-08-22T20:13:34Z</time>
      </trkpt>
      <trkpt lat="45.2904" lon="5.77673">
        <ele>1491.2</ele>
        <time>2015-08-22T20:13:35Z</time>
      </trkpt>
      <trkpt lat="45.29051" lon="5.7767">
        <ele>1487.8</ele>
        <time>2015-08-22T20:13:41Z</time>
      </trkpt>
      <trkpt lat="45.29058" lon="5.77667">
        <ele>1485.1</ele>
        <time>2015-08-22T20:13:46Z</time>
      </trkpt>
      <trkpt lat="45.29067" lon="5.77669">
        <ele>1483.7</ele>
        <time>2015-08-22T20:13:52Z</time>
      </trkpt>
      <trkpt lat="45.29069" lon="5.7767">
        <ele>1483.4</ele>
        <time>2015-08-22T20:13:53Z</time>
      </trkpt>
      <trkpt lat="45.29079" lon="5.77669">
        <ele>1480.8</ele>
        <time>2015-08-22T20:14:00Z</time>
      </trkpt>
      <trkpt lat="45.29083" lon="5.77668">
        <ele>1479.6</ele>
        <time>2015-08-22T20:14:02Z</time>
      </trkpt>
      <trkpt lat="45.29091" lon="5.77668">
        <ele>1477.6</ele>
        <time>2015-08-22T20:14:05Z</time>
      </trkpt>
      <trkpt lat="45.29094" lon="5.77668">
        <ele>1477.1</ele>
        <time>2015-08-22T20:14:08Z</time>
      </trkpt>
      <trkpt lat="45.29096" lon="5.77669">
        <ele>1476.9</ele>
        <time>2015-08-22T20:14:10Z</time>
      </trkpt>
      <trkpt lat="45.29102" lon="5.7767">
        <ele>1476.1</ele>
        <time>2015-08-22T20:14:14Z</time>
      </trkpt>
      <trkpt lat="45.29105" lon="5.7767">
        <ele>1475.3</ele>
        <time>2015-08-22T20:14:16Z</time>
      </trkpt>
      <trkpt lat="45.29106" lon="5.7767">
        <ele>1475.2</ele>
        <time>2015-08-22T20:14:17Z</time>
      </trkpt>
      <trkpt lat="45.2911" lon="5.77669">
        <ele>1473.7</ele>
        <time>2015-08-22T20:14:21Z</time>
      </trkpt>
      <trkpt lat="45.29116" lon="5.77672">
        <ele>1473.3</ele>
        <time>2015-08-22T20:14:27Z</time>
      </trkpt>
      <trkpt lat="45.29121" lon="5.77671">
        <ele>1472</ele>
        <time>2015-08-22T20:14:30Z</time>
      </trkpt>
      <trkpt lat="45.29124" lon="5.7767">
        <ele>1470.7</ele>
        <time>2015-08-22T20:14:34Z</time>
      </trkpt>
      <trkpt lat="45.29125" lon="5.77665">
        <ele>1468.9</ele>
        <time>2015-08-22T20:14:38Z</time>
      </trkpt>
      <trkpt lat="45.29124" lon="5.77664">
        <ele>1468.7</ele>
        <time>2015-08-22T20:14:39Z</time>
      </trkpt>
      <trkpt lat="45.29121" lon="5.77658">
        <ele>1467.5</ele>
        <time>2015-08-22T20:14:43Z</time>
      </trkpt>
      <trkpt lat="45.29118" lon="5.77654">
        <ele>1466.8</ele>
        <time>2015-08-22T20:14:45Z</time>
      </trkpt>
      <trkpt lat="45.29109" lon="5.77644">
        <ele>1464.9</ele>
        <time>2015-08-22T20:14:52Z</time>
      </trkpt>
      <trkpt lat="45.29106" lon="5.77638">
        <ele>1463.6</ele>
        <time>2015-08-22T20:14:55Z</time>
      </trkpt>
      <trkpt lat="45.29102" lon="5.77633">
        <ele>1462.4</ele>
        <time>2015-08-22T20:14:58Z</time>
      </trkpt>
      <trkpt lat="45.29101" lon="5.77629">
        <ele>1461.3</ele>
        <time>2015-08-22T20:15:00Z</time>
      </trkpt>
      <trkpt lat="45.29098" lon="5.77621">
        <ele>1459.7</ele>
        <time>2015-08-22T20:15:04Z</time>
      </trkpt>
      <trkpt lat="45.29093" lon="5.77611">
        <ele>1458.1</ele>
        <time>2015-08-22T20:15:09Z</time>
      </trkpt>
      <trkpt lat="45.29088" lon="5.77603">
        <ele>1457.2</ele>
        <time>2015-08-22T20:15:14Z</time>
      </trkpt>
      <trkpt lat="45.29087" lon="5.77601">
        <ele>1457</ele>
        <time>2015-08-22T20:15:15Z</time>
      </trkpt>
      <trkpt lat="45.29085" lon="5.77597">
        <ele>1456.2</ele>
        <time>2015-08-22T20:15:17Z</time>
      </trkpt>
      <trkpt lat="45.29083" lon="5.7759">
        <ele>1454.9</ele>
        <time>2015-08-22T20:15:21Z</time>
      </trkpt>
      <trkpt lat="45.29083" lon="5.77588">
        <ele>1454.6</ele>
        <time>2015-08-22T20:15:22Z</time>
      </trkpt>
      <trkpt lat="45.2908" lon="5.77582">
        <ele>1453.4</ele>
        <time>2015-08-22T20:15:26Z</time>
      </trkpt>
      <trkpt lat="45.2908" lon="5.77579">
        <ele>1452.9</ele>
        <time>2015-08-22T20:15:27Z</time>
      </trkpt>
      <trkpt lat="45.29078" lon="5.77573">
        <ele>1451.6</ele>
        <time>2015-08-22T20:15:30Z</time>
      </trkpt>
      <trkpt lat="45.29077" lon="5.77567">
        <ele>1450.2</ele>
        <time>2015-08-22T20:15:34Z</time>
      </trkpt>
      <trkpt lat="45.29076" lon="5.77565">
        <ele>1449.6</ele>
        <time>2015-08-22T20:15:35Z</time>
      </trkpt>
      <trkpt lat="45.29074" lon="5.77554">
        <ele>1447.2</ele>
        <time>2015-08-22T20:15:40Z</time>
      </trkpt>
      <trkpt lat="45.29066" lon="5.77541">
        <ele>1444.9</ele>
        <time>2015-08-22T20:15:46Z</time>
      </trkpt>
      <trkpt lat="45.29061" lon="5.7753">
        <ele>1443</ele>
        <time>2015-08-22T20:15:52Z</time>
      </trkpt>
      <trkpt lat="45.29055" lon="5.77516">
        <ele>1440.5</ele>
        <time>2015-08-22T20:15:59Z</time>
      </trkpt>
      <trkpt lat="45.29054" lon="5.77506">
        <ele>1438.1</ele>
        <time>2015-08-22T20:16:04Z</time>
      </trkpt>
      <trkpt lat="45.29054" lon="5.77501">
        <ele>1437.1</ele>
        <time>2015-08-22T20:16:06Z</time>
      </trkpt>
      <trkpt lat="45.29052" lon="5.77498">
        <ele>1436.6</ele>
        <time>2015-08-22T20:16:08Z</time>
      </trkpt>
      <trkpt lat="45.29048" lon="5.77487">
        <ele>1434.9</ele>
        <time>2015-08-22T20:16:14Z</time>
      </trkpt>
      <trkpt lat="45.29043" lon="5.77478">
        <ele>1433.2</ele>
        <time>2015-08-22T20:16:20Z</time>
      </trkpt>
      <trkpt lat="45.29038" lon="5.77469">
        <ele>1431.5</ele>
        <time>2015-08-22T20:16:25Z</time>
      </trkpt>
      <trkpt lat="45.29035" lon="5.77459">
        <ele>1429.6</ele>
        <time>2015-08-22T20:16:30Z</time>
      </trkpt>
      <trkpt lat="45.29035" lon="5.77457">
        <ele>1429.1</ele>
        <time>2015-08-22T20:16:31Z</time>
      </trkpt>
      <trkpt lat="45.29033" lon="5.77447">
        <ele>1426.5</ele>
        <time>2015-08-22T20:16:36Z</time>
      </trkpt>
      <trkpt lat="45.29027" lon="5.7744">
        <ele>1425.2</ele>
        <time>2015-08-22T20:16:41Z</time>
      </trkpt>
      <trkpt lat="45.29023" lon="5.77434">
        <ele>1423.9</ele>
        <time>2015-08-22T20:16:45Z</time>
      </trkpt>
      <trkpt lat="45.29022" lon="5.77432">
        <ele>1423.4</ele>
        <time>2015-08-22T20:16:46Z</time>
      </trkpt>
      <trkpt lat="45.29017" lon="5.77425">
        <ele>1421.6</ele>
        <time>2015-08-22T20:16:51Z</time>
      </trkpt>
      <trkpt lat="45.29013" lon="5.77419">
        <ele>1420.4</ele>
        <time>2015-08-22T20:16:54Z</time>
      </trkpt>
      <trkpt lat="45.29012" lon="5.77418">
        <ele>1420</ele>
        <time>2015-08-22T20:16:55Z</time>
      </trkpt>
      <trkpt lat="45.29009" lon="5.77412">
        <ele>1418.5</ele>
        <time>2015-08-22T20:16:59Z</time>
      </trkpt>
      <trkpt lat="45.29008" lon="5.77411">
        <ele>1418.3</ele>
        <time>2015-08-22T20:17:00Z</time>
      </trkpt>
      <trkpt lat="45.29005" lon="5.77409">
        <ele>1417.9</ele>
        <time>2015-08-22T20:17:02Z</time>
      </trkpt>
      <trkpt lat="45.29003" lon="5.77404">
        <ele>1416.7</ele>
        <time>2015-08-22T20:17:04Z</time>
      </trkpt>
      <trkpt lat="45.29" lon="5.774">
        <ele>1415.6</ele>
        <time>2015-08-22T20:17:06Z</time>
      </trkpt>
      <trkpt lat="45.28998" lon="5.77394">
        <ele>1414.1</ele>
        <time>2015-08-22T20:17:08Z</time>
      </trkpt>
      <trkpt lat="45.28991" lon="5.77382">
        <ele>1411</ele>
        <time>2015-08-22T20:17:15Z</time>
      </trkpt>
      <trkpt lat="45.28987" lon="5.77382">
        <ele>1411</ele>
        <time>2015-08-22T20:17:17Z</time>
      </trkpt>
      <trkpt lat="45.28981" lon="5.77379">
        <ele>1410.2</ele>
        <time>2015-08-22T20:17:22Z</time>
      </trkpt>
      <trkpt lat="45.28976" lon="5.77373">
        <ele>1408.6</ele>
        <time>2015-08-22T20:17:26Z</time>
      </trkpt>
      <trkpt lat="45.28974" lon="5.77372">
        <ele>1408.3</ele>
        <time>2015-08-22T20:17:27Z</time>
      </trkpt>
      <trkpt lat="45.28969" lon="5.77368">
        <ele>1407.4</ele>
        <time>2015-08-22T20:17:30Z</time>
      </trkpt>
      <trkpt lat="45.28966" lon="5.77364">
        <ele>1406.3</ele>
        <time>2015-08-22T20:17:33Z</time>
      </trkpt>
      <trkpt lat="45.28959" lon="5.77361">
        <ele>1405.7</ele>
        <time>2015-08-22T20:17:37Z</time>
      </trkpt>
      <trkpt lat="45.28957" lon="5.77361">
        <ele>1405.7</ele>
        <time>2015-08-22T20:17:38Z</time>
      </trkpt>
      <trkpt lat="45.2895" lon="5.77354">
        <ele>1404.7</ele>
        <time>2015-08-22T20:17:43Z</time>
      </trkpt>
      <trkpt lat="45.28946" lon="5.77352">
        <ele>1404.6</ele>
        <time>2015-08-22T20:17:45Z</time>
      </trkpt>
      <trkpt lat="45.28944" lon="5.77353">
        <ele>1405</ele>
        <time>2015-08-22T20:17:46Z</time>
      </trkpt>
      <trkpt lat="45.28941" lon="5.77352">
        <ele>1405</ele>
        <time>2015-08-22T20:17:48Z</time>
      </trkpt>
      <trkpt lat="45.28933" lon="5.77344">
        <ele>1403.6</ele>
        <time>2015-08-22T20:17:54Z</time>
      </trkpt>
      <trkpt lat="45.28932" lon="5.77341">
        <ele>1403.1</ele>
        <time>2015-08-22T20:17:55Z</time>
      </trkpt>
      <trkpt lat="45.28928" lon="5.77336">
        <ele>1402.3</ele>
        <time>2015-08-22T20:17:59Z</time>
      </trkpt>
      <trkpt lat="45.2892" lon="5.77327">
        <ele>1400.6</ele>
        <time>2015-08-22T20:18:04Z</time>
      </trkpt>
      <trkpt lat="45.28918" lon="5.77326">
        <ele>1400.5</ele>
        <time>2015-08-22T20:18:06Z</time>
      </trkpt>
      <trkpt lat="45.28915" lon="5.77325">
        <ele>1400.5</ele>
        <time>2015-08-22T20:18:08Z</time>
      </trkpt>
      <trkpt lat="45.2891" lon="5.77323">
        <ele>1400.5</ele>
        <time>2015-08-22T20:18:12Z</time>
      </trkpt>
      <trkpt lat="45.28907" lon="5.7732">
        <ele>1400</ele>
        <time>2015-08-22T20:18:14Z</time>
      </trkpt>
      <trkpt lat="45.28902" lon="5.77316">
        <ele>1399.2</ele>
        <time>2015-08-22T20:18:18Z</time>
      </trkpt>
      <trkpt lat="45.28896" lon="5.77313">
        <ele>1399</ele>
        <time>2015-08-22T20:18:21Z</time>
      </trkpt>
      <trkpt lat="45.28886" lon="5.77302">
        <ele>1396.9</ele>
        <time>2015-08-22T20:18:28Z</time>
      </trkpt>
      <trkpt lat="45.28882" lon="5.773">
        <ele>1396.8</ele>
        <time>2015-08-22T20:18:32Z</time>
      </trkpt>
      <trkpt lat="45.2888" lon="5.77299">
        <ele>1396.6</ele>
        <time>2015-08-22T20:18:34Z</time>
      </trkpt>
      <trkpt lat="45.28875" lon="5.77295">
        <ele>1395.8</ele>
        <time>2015-08-22T20:18:39Z</time>
      </trkpt>
      <trkpt lat="45.28872" lon="5.77293">
        <ele>1395.2</ele>
        <time>2015-08-22T20:18:41Z</time>
      </trkpt>
      <trkpt lat="45.28865" lon="5.77284">
        <ele>1393.1</ele>
        <time>2015-08-22T20:18:46Z</time>
      </trkpt>
      <trkpt lat="45.2886" lon="5.7728">
        <ele>1392.1</ele>
        <time>2015-08-22T20:18:50Z</time>
      </trkpt>
      <trkpt lat="45.28857" lon="5.77277">
        <ele>1391.5</ele>
        <time>2015-08-22T20:18:52Z</time>
      </trkpt>
      <trkpt lat="45.2885" lon="5.77271">
        <ele>1390</ele>
        <time>2015-08-22T20:18:58Z</time>
      </trkpt>
      <trkpt lat="45.28847" lon="5.77267">
        <ele>1389.1</ele>
        <time>2015-08-22T20:19:01Z</time>
      </trkpt>
      <trkpt lat="45.28845" lon="5.77264">
        <ele>1388.3</ele>
        <time>2015-08-22T20:19:03Z</time>
      </trkpt>
      <trkpt lat="45.28835" lon="5.77256">
        <ele>1386.6</ele>
        <time>2015-08-22T20:19:10Z</time>
      </trkpt>
      <trkpt lat="45.28834" lon="5.77254">
        <ele>1386.2</ele>
        <time>2015-08-22T20:19:11Z</time>
      </trkpt>
      <trkpt lat="45.28828" lon="5.77253">
        <ele>1385.7</ele>
        <time>2015-08-22T20:19:15Z</time>
      </trkpt>
      <trkpt lat="45.28827" lon="5.77252">
        <ele>1385.5</ele>
        <time>2015-08-22T20:19:16Z</time>
      </trkpt>
      <trkpt lat="45.28823" lon="5.77246">
        <ele>1384.2</ele>
        <time>2015-08-22T20:19:21Z</time>
      </trkpt>
      <trkpt lat="45.28822" lon="5.77239">
        <ele>1382.7</ele>
        <time>2015-08-22T20:19:26Z</time>
      </trkpt>
      <trkpt lat="45.28822" lon="5.77238">
        <ele>1382.5</ele>
        <time>2015-08-22T20:19:27Z</time>
      </trkpt>
      <trkpt lat="45.28822" lon="5.77237">
        <ele>1382.2</ele>
        <time>2015-08-22T20:19:28Z</time>
      </trkpt>
      <trkpt lat="45.2882" lon="5.7723">
        <ele>1380.9</ele>
        <time>2015-08-22T20:19:32Z</time>
      </trkpt>
      <trkpt lat="45.28817" lon="5.77223">
        <ele>1379.2</ele>
        <time>2015-08-22T20:19:36Z</time>
      </trkpt>
      <trkpt lat="45.28816" lon="5.77219">
        <ele>1378.5</ele>
        <time>2015-08-22T20:19:38Z</time>
      </trkpt>
      <trkpt lat="45.28815" lon="5.77213">
        <ele>1377.1</ele>
        <time>2015-08-22T20:19:41Z</time>
      </trkpt>
      <trkpt lat="45.28814" lon="5.77209">
        <ele>1376.4</ele>
        <time>2015-08-22T20:19:43Z</time>
      </trkpt>
      <trkpt lat="45.28811" lon="5.77197">
        <ele>1374.4</ele>
        <time>2015-08-22T20:19:49Z</time>
      </trkpt>
      <trkpt lat="45.28808" lon="5.77181">
        <ele>1371.5</ele>
        <time>2015-08-22T20:19:56Z</time>
      </trkpt>
      <trkpt lat="45.28806" lon="5.7717">
        <ele>1369.5</ele>
        <time>2015-08-22T20:20:00Z</time>
      </trkpt>
      <trkpt lat="45.28807" lon="5.77151">
        <ele>1366.2</ele>
        <time>2015-08-22T20:20:07Z</time>
      </trkpt>
      <trkpt lat="45.28807" lon="5.77135">
        <ele>1363.4</ele>
        <time>2015-08-22T20:20:14Z</time>
      </trkpt>
      <trkpt lat="45.28809" lon="5.77123">
        <ele>1361.6</ele>
        <time>2015-08-22T20:20:19Z</time>
      </trkpt>
      <trkpt lat="45.28809" lon="5.77102">
        <ele>1359.8</ele>
        <time>2015-08-22T20:20:28Z</time>
      </trkpt>
      <trkpt lat="45.28809" lon="5.7709">
        <ele>1358.7</ele>
        <time>2015-08-22T20:20:33Z</time>
      </trkpt>
      <trkpt lat="45.28808" lon="5.77075">
        <ele>1357.3</ele>
        <time>2015-08-22T20:20:39Z</time>
      </trkpt>
      <trkpt lat="45.28808" lon="5.7707">
        <ele>1356.9</ele>
        <time>2015-08-22T20:20:41Z</time>
      </trkpt>
      <trkpt lat="45.28808" lon="5.77063">
        <ele>1356.3</ele>
        <time>2015-08-22T20:20:44Z</time>
      </trkpt>
      <trkpt lat="45.28806" lon="5.77048">
        <ele>1354.9</ele>
        <time>2015-08-22T20:20:51Z</time>
      </trkpt>
      <trkpt lat="45.28805" lon="5.77029">
        <ele>1353.5</ele>
        <time>2015-08-22T20:20:58Z</time>
      </trkpt>
      <trkpt lat="45.28802" lon="5.77004">
        <ele>1351.8</ele>
        <time>2015-08-22T20:21:06Z</time>
      </trkpt>
      <trkpt lat="45.28798" lon="5.76986">
        <ele>1350.7</ele>
        <time>2015-08-22T20:21:12Z</time>
      </trkpt>
      <trkpt lat="45.28795" lon="5.76969">
        <ele>1349.6</ele>
        <time>2015-08-22T20:21:18Z</time>
      </trkpt>
      <trkpt lat="45.28789" lon="5.76956">
        <ele>1348.8</ele>
        <time>2015-08-22T20:21:23Z</time>
      </trkpt>
      <trkpt lat="45.28783" lon="5.76944">
        <ele>1348.2</ele>
        <time>2015-08-22T20:21:28Z</time>
      </trkpt>
      <trkpt lat="45.28777" lon="5.76927">
        <ele>1347.4</ele>
        <time>2015-08-22T20:21:35Z</time>
      </trkpt>
      <trkpt lat="45.28773" lon="5.76911">
        <ele>1346.8</ele>
        <time>2015-08-22T20:21:40Z</time>
      </trkpt>
      <trkpt lat="45.28762" lon="5.76903">
        <ele>1345.9</ele>
        <time>2015-08-22T20:21:46Z</time>
      </trkpt>
      <trkpt lat="45.28752" lon="5.76906">
        <ele>1345.4</ele>
        <time>2015-08-22T20:21:51Z</time>
      </trkpt>
      <trkpt lat="45.28744" lon="5.76904">
        <ele>1344.9</ele>
        <time>2015-08-22T20:21:55Z</time>
      </trkpt>
      <trkpt lat="45.28738" lon="5.769">
        <ele>1344.4</ele>
        <time>2015-08-22T20:21:59Z</time>
      </trkpt>
      <trkpt lat="45.28736" lon="5.76901">
        <ele>1344.3</ele>
        <time>2015-08-22T20:22:00Z</time>
      </trkpt>
      <trkpt lat="45.28724" lon="5.76901">
        <ele>1343.6</ele>
        <time>2015-08-22T20:22:06Z</time>
      </trkpt>
      <trkpt lat="45.28718" lon="5.76903">
        <ele>1343.3</ele>
        <time>2015-08-22T20:22:09Z</time>
      </trkpt>
      <trkpt lat="45.28716" lon="5.76903">
        <ele>1343.1</ele>
        <time>2015-08-22T20:22:10Z</time>
      </trkpt>
      <trkpt lat="45.28713" lon="5.76902">
        <ele>1342.9</ele>
        <time>2015-08-22T20:22:12Z</time>
      </trkpt>
      <trkpt lat="45.28702" lon="5.76902">
        <ele>1342.2</ele>
        <time>2015-08-22T20:22:17Z</time>
      </trkpt>
      <trkpt lat="45.287" lon="5.76903">
        <ele>1342</ele>
        <time>2015-08-22T20:22:18Z</time>
      </trkpt>
      <trkpt lat="45.28696" lon="5.76903">
        <ele>1341.7</ele>
        <time>2015-08-22T20:22:20Z</time>
      </trkpt>
      <trkpt lat="45.2869" lon="5.76904">
        <ele>1341.3</ele>
        <time>2015-08-22T20:22:23Z</time>
      </trkpt>
      <trkpt lat="45.28678" lon="5.76907">
        <ele>1340.5</ele>
        <time>2015-08-22T20:22:29Z</time>
      </trkpt>
      <trkpt lat="45.28668" lon="5.76909">
        <ele>1339.7</ele>
        <time>2015-08-22T20:22:34Z</time>
      </trkpt>
      <trkpt lat="45.28654" lon="5.76909">
        <ele>1338.6</ele>
        <time>2015-08-22T20:22:41Z</time>
      </trkpt>
      <trkpt lat="45.28645" lon="5.7691">
        <ele>1338</ele>
        <time>2015-08-22T20:22:46Z</time>
      </trkpt>
      <trkpt lat="45.28638" lon="5.76911">
        <ele>1337.5</ele>
        <time>2015-08-22T20:22:50Z</time>
      </trkpt>
      <trkpt lat="45.28637" lon="5.76911">
        <ele>1337.4</ele>
        <time>2015-08-22T20:22:51Z</time>
      </trkpt>
      <trkpt lat="45.2863" lon="5.76904">
        <ele>1336.7</ele>
        <time>2015-08-22T20:22:55Z</time>
      </trkpt>
      <trkpt lat="45.28619" lon="5.76901">
        <ele>1335.5</ele>
        <time>2015-08-22T20:23:00Z</time>
      </trkpt>
      <trkpt lat="45.28616" lon="5.76902">
        <ele>1335.1</ele>
        <time>2015-08-22T20:23:05Z</time>
      </trkpt>
      <trkpt lat="45.28614" lon="5.7691">
        <ele>1334.9</ele>
        <time>2015-08-22T20:23:09Z</time>
      </trkpt>
      <trkpt lat="45.28614" lon="5.76913">
        <ele>1334.9</ele>
        <time>2015-08-22T20:23:11Z</time>
      </trkpt>
      <trkpt lat="45.28612" lon="5.76916">
        <ele>1334.8</ele>
        <time>2015-08-22T20:23:14Z</time>
      </trkpt>
      <trkpt lat="45.28607" lon="5.7692">
        <ele>1334.2</ele>
        <time>2015-08-22T20:23:16Z</time>
      </trkpt>
      <trkpt lat="45.28604" lon="5.76925">
        <ele>1333.8</ele>
        <time>2015-08-22T20:23:18Z</time>
      </trkpt>
      <trkpt lat="45.28602" lon="5.76927">
        <ele>1333.6</ele>
        <time>2015-08-22T20:23:19Z</time>
      </trkpt>
      <trkpt lat="45.28596" lon="5.76934">
        <ele>1333</ele>
        <time>2015-08-22T20:23:23Z</time>
      </trkpt>
      <trkpt lat="45.28591" lon="5.7694">
        <ele>1332.5</ele>
        <time>2015-08-22T20:23:28Z</time>
      </trkpt>
      <trkpt lat="45.28589" lon="5.76941">
        <ele>1332.3</ele>
        <time>2015-08-22T20:23:29Z</time>
      </trkpt>
      <trkpt lat="45.28578" lon="5.76942">
        <ele>1331</ele>
        <time>2015-08-22T20:23:37Z</time>
      </trkpt>
      <trkpt lat="45.28575" lon="5.76943">
        <ele>1330.6</ele>
        <time>2015-08-22T20:23:39Z</time>
      </trkpt>
      <trkpt lat="45.28568" lon="5.76942">
        <ele>1329.7</ele>
        <time>2015-08-22T20:23:43Z</time>
      </trkpt>
      <trkpt lat="45.28564" lon="5.76942">
        <ele>1329.2</ele>
        <time>2015-08-22T20:23:45Z</time>
      </trkpt>
      <trkpt lat="45.28556" lon="5.76944">
        <ele>1328.2</ele>
        <time>2015-08-22T20:23:49Z</time>
      </trkpt>
      <trkpt lat="45.2855" lon="5.76948">
        <ele>1327.7</ele>
        <time>2015-08-22T20:23:54Z</time>
      </trkpt>
      <trkpt lat="45.28549" lon="5.76946">
        <ele>1327.5</ele>
        <time>2015-08-22T20:23:55Z</time>
      </trkpt>
      <trkpt lat="45.28543" lon="5.76943">
        <ele>1326.6</ele>
        <time>2015-08-22T20:23:59Z</time>
      </trkpt>
      <trkpt lat="45.28541" lon="5.76943">
        <ele>1326.4</ele>
        <time>2015-08-22T20:24:00Z</time>
      </trkpt>
      <trkpt lat="45.28539" lon="5.76942">
        <ele>1326.2</ele>
        <time>2015-08-22T20:24:01Z</time>
      </trkpt>
      <trkpt lat="45.28534" lon="5.76939">
        <ele>1325.7</ele>
        <time>2015-08-22T20:24:05Z</time>
      </trkpt>
      <trkpt lat="45.28526" lon="5.76937">
        <ele>1325.1</ele>
        <time>2015-08-22T20:24:11Z</time>
      </trkpt>
      <trkpt lat="45.28516" lon="5.76935">
        <ele>1324.2</ele>
        <time>2015-08-22T20:24:16Z</time>
      </trkpt>
      <trkpt lat="45.28516" lon="5.76935">
        <ele>1324.1</ele>
        <time>2015-08-22T20:24:20Z</time>
      </trkpt>
      <trkpt lat="45.28513" lon="5.76934">
        <ele>1323.9</ele>
        <time>2015-08-22T20:24:22Z</time>
      </trkpt>
      <trkpt lat="45.28508" lon="5.76933">
        <ele>1323.4</ele>
        <time>2015-08-22T20:24:26Z</time>
      </trkpt>
      <trkpt lat="45.28503" lon="5.76935">
        <ele>1323.2</ele>
        <time>2015-08-22T20:24:28Z</time>
      </trkpt>
      <trkpt lat="45.28502" lon="5.76934">
        <ele>1323</ele>
        <time>2015-08-22T20:24:29Z</time>
      </trkpt>
      <trkpt lat="45.28497" lon="5.76933">
        <ele>1322.5</ele>
        <time>2015-08-22T20:24:31Z</time>
      </trkpt>
      <trkpt lat="45.28493" lon="5.76933">
        <ele>1322.2</ele>
        <time>2015-08-22T20:24:34Z</time>
      </trkpt>
      <trkpt lat="45.28488" lon="5.76928">
        <ele>1321.3</ele>
        <time>2015-08-22T20:24:38Z</time>
      </trkpt>
      <trkpt lat="45.28486" lon="5.76929">
        <ele>1321.1</ele>
        <time>2015-08-22T20:24:39Z</time>
      </trkpt>
      <trkpt lat="45.28482" lon="5.76925">
        <ele>1320.3</ele>
        <time>2015-08-22T20:24:42Z</time>
      </trkpt>
      <trkpt lat="45.28481" lon="5.76923">
        <ele>1320.1</ele>
        <time>2015-08-22T20:24:43Z</time>
      </trkpt>
      <trkpt lat="45.2848" lon="5.76921">
        <ele>1319.7</ele>
        <time>2015-08-22T20:24:45Z</time>
      </trkpt>
      <trkpt lat="45.28473" lon="5.76912">
        <ele>1317.9</ele>
        <time>2015-08-22T20:24:50Z</time>
      </trkpt>
      <trkpt lat="45.28466" lon="5.76914">
        <ele>1317.4</ele>
        <time>2015-08-22T20:24:56Z</time>
      </trkpt>
      <trkpt lat="45.2846" lon="5.76914">
        <ele>1316.8</ele>
        <time>2015-08-22T20:25:00Z</time>
      </trkpt>
      <trkpt lat="45.28459" lon="5.76914">
        <ele>1316.8</ele>
        <time>2015-08-22T20:25:01Z</time>
      </trkpt>
      <trkpt lat="45.28448" lon="5.76907">
        <ele>1314.7</ele>
        <time>2015-08-22T20:25:07Z</time>
      </trkpt>
      <trkpt lat="45.28439" lon="5.76895">
        <ele>1311.9</ele>
        <time>2015-08-22T20:25:14Z</time>
      </trkpt>
      <trkpt lat="45.28432" lon="5.76886">
        <ele>1309.5</ele>
        <time>2015-08-22T20:25:20Z</time>
      </trkpt>
      <trkpt lat="45.28427" lon="5.76882">
        <ele>1308.1</ele>
        <time>2015-08-22T20:25:25Z</time>
      </trkpt>
      <trkpt lat="45.28426" lon="5.76881">
        <ele>1307.9</ele>
        <time>2015-08-22T20:25:26Z</time>
      </trkpt>
      <trkpt lat="45.28417" lon="5.76874">
        <ele>1305.4</ele>
        <time>2015-08-22T20:25:32Z</time>
      </trkpt>
      <trkpt lat="45.28408" lon="5.76867">
        <ele>1303.5</ele>
        <time>2015-08-22T20:25:38Z</time>
      </trkpt>
      <trkpt lat="45.28401" lon="5.76859">
        <ele>1301.6</ele>
        <time>2015-08-22T20:25:43Z</time>
      </trkpt>
      <trkpt lat="45.28398" lon="5.76857">
        <ele>1301</ele>
        <time>2015-08-22T20:25:45Z</time>
      </trkpt>
      <trkpt lat="45.28395" lon="5.76855">
        <ele>1300.3</ele>
        <time>2015-08-22T20:25:47Z</time>
      </trkpt>
      <trkpt lat="45.28392" lon="5.76854">
        <ele>1299.6</ele>
        <time>2015-08-22T20:25:49Z</time>
      </trkpt>
      <trkpt lat="45.28389" lon="5.76853">
        <ele>1299</ele>
        <time>2015-08-22T20:25:51Z</time>
      </trkpt>
      <trkpt lat="45.28382" lon="5.76852">
        <ele>1297.8</ele>
        <time>2015-08-22T20:25:55Z</time>
      </trkpt>
      <trkpt lat="45.28381" lon="5.76852">
        <ele>1297.5</ele>
        <time>2015-08-22T20:25:56Z</time>
      </trkpt>
      <trkpt lat="45.28373" lon="5.76851">
        <ele>1296.5</ele>
        <time>2015-08-22T20:26:01Z</time>
      </trkpt>
      <trkpt lat="45.28372" lon="5.76852">
        <ele>1296.7</ele>
        <time>2015-08-22T20:26:02Z</time>
      </trkpt>
      <trkpt lat="45.28369" lon="5.76853">
        <ele>1296.7</ele>
        <time>2015-08-22T20:26:05Z</time>
      </trkpt>
      <trkpt lat="45.28367" lon="5.76854">
        <ele>1296.7</ele>
        <time>2015-08-22T20:26:06Z</time>
      </trkpt>
      <trkpt lat="45.28357" lon="5.76856">
        <ele>1296.8</ele>
        <time>2015-08-22T20:26:13Z</time>
      </trkpt>
      <trkpt lat="45.28343" lon="5.76864">
        <ele>1297.8</ele>
        <time>2015-08-22T20:26:19Z</time>
      </trkpt>
      <trkpt lat="45.28335" lon="5.76867">
        <ele>1298.2</ele>
        <time>2015-08-22T20:26:24Z</time>
      </trkpt>
      <trkpt lat="45.28323" lon="5.76864">
        <ele>1297.5</ele>
        <time>2015-08-22T20:26:30Z</time>
      </trkpt>
      <trkpt lat="45.28312" lon="5.76863">
        <ele>1297.1</ele>
        <time>2015-08-22T20:26:36Z</time>
      </trkpt>
      <trkpt lat="45.28303" lon="5.76866">
        <ele>1297.5</ele>
        <time>2015-08-22T20:26:42Z</time>
      </trkpt>
      <trkpt lat="45.28296" lon="5.76866">
        <ele>1297.4</ele>
        <time>2015-08-22T20:26:47Z</time>
      </trkpt>
      <trkpt lat="45.28286" lon="5.76865">
        <ele>1297.1</ele>
        <time>2015-08-22T20:26:53Z</time>
      </trkpt>
      <trkpt lat="45.28276" lon="5.76867">
        <ele>1297.2</ele>
        <time>2015-08-22T20:26:59Z</time>
      </trkpt>
      <trkpt lat="45.28264" lon="5.7687">
        <ele>1297.7</ele>
        <time>2015-08-22T20:27:05Z</time>
      </trkpt>
      <trkpt lat="45.28255" lon="5.76877">
        <ele>1299</ele>
        <time>2015-08-22T20:27:10Z</time>
      </trkpt>
      <trkpt lat="45.28254" lon="5.76877">
        <ele>1299.1</ele>
        <time>2015-08-22T20:27:11Z</time>
      </trkpt>
      <trkpt lat="45.28246" lon="5.76878">
        <ele>1299.1</ele>
        <time>2015-08-22T20:27:16Z</time>
      </trkpt>
      <trkpt lat="45.2824" lon="5.76881">
        <ele>1299.7</ele>
        <time>2015-08-22T20:27:21Z</time>
      </trkpt>
      <trkpt lat="45.28231" lon="5.76884">
        <ele>1300.2</ele>
        <time>2015-08-22T20:27:26Z</time>
      </trkpt>
      <trkpt lat="45.28226" lon="5.76881">
        <ele>1299.5</ele>
        <time>2015-08-22T20:27:29Z</time>
      </trkpt>
      <trkpt lat="45.28223" lon="5.76882">
        <ele>1299.7</ele>
        <time>2015-08-22T20:27:31Z</time>
      </trkpt>
      <trkpt lat="45.28215" lon="5.76883">
        <ele>1299.7</ele>
        <time>2015-08-22T20:27:38Z</time>
      </trkpt>
      <trkpt lat="45.28208" lon="5.76883">
        <ele>1299.7</ele>
        <time>2015-08-22T20:27:42Z</time>
      </trkpt>
      <trkpt lat="45.28205" lon="5.76883">
        <ele>1299.7</ele>
        <time>2015-08-22T20:27:44Z</time>
      </trkpt>
      <trkpt lat="45.28199" lon="5.76887">
        <ele>1300.8</ele>
        <time>2015-08-22T20:27:48Z</time>
      </trkpt>
      <trkpt lat="45.28191" lon="5.76888">
        <ele>1301.4</ele>
        <time>2015-08-22T20:27:53Z</time>
      </trkpt>
      <trkpt lat="45.28185" lon="5.76887">
        <ele>1301.3</ele>
        <time>2015-08-22T20:27:56Z</time>
      </trkpt>
      <trkpt lat="45.28178" lon="5.76883">
        <ele>1300.7</ele>
        <time>2015-08-22T20:27:59Z</time>
      </trkpt>
      <trkpt lat="45.2817" lon="5.76885">
        <ele>1301.5</ele>
        <time>2015-08-22T20:28:04Z</time>
      </trkpt>
      <trkpt lat="45.28163" lon="5.76891">
        <ele>1303</ele>
        <time>2015-08-22T20:28:09Z</time>
      </trkpt>
      <trkpt lat="45.28162" lon="5.76891">
        <ele>1303.1</ele>
        <time>2015-08-22T20:28:10Z</time>
      </trkpt>
      <trkpt lat="45.28151" lon="5.76895">
        <ele>1304.6</ele>
        <time>2015-08-22T20:28:15Z</time>
      </trkpt>
      <trkpt lat="45.28146" lon="5.76898">
        <ele>1305.4</ele>
        <time>2015-08-22T20:28:18Z</time>
      </trkpt>
      <trkpt lat="45.2814" lon="5.76902">
        <ele>1306.4</ele>
        <time>2015-08-22T20:28:21Z</time>
      </trkpt>
      <trkpt lat="45.28133" lon="5.76907">
        <ele>1308</ele>
        <time>2015-08-22T20:28:25Z</time>
      </trkpt>
      <trkpt lat="45.28126" lon="5.76908">
        <ele>1308.6</ele>
        <time>2015-08-22T20:28:29Z</time>
      </trkpt>
      <trkpt lat="45.28126" lon="5.76908">
        <ele>1308.5</ele>
        <time>2015-08-22T20:28:30Z</time>
      </trkpt>
      <trkpt lat="45.28119" lon="5.76906">
        <ele>1307.8</ele>
        <time>2015-08-22T20:28:34Z</time>
      </trkpt>
      <trkpt lat="45.28118" lon="5.76906">
        <ele>1307.8</ele>
        <time>2015-08-22T20:28:35Z</time>
      </trkpt>
      <trkpt lat="45.28116" lon="5.76906">
        <ele>1307.7</ele>
        <time>2015-08-22T20:28:36Z</time>
      </trkpt>
      <trkpt lat="45.28115" lon="5.76907">
        <ele>1307.8</ele>
        <time>2015-08-22T20:28:37Z</time>
      </trkpt>
      <trkpt lat="45.28109" lon="5.76906">
        <ele>1307.4</ele>
        <time>2015-08-22T20:28:43Z</time>
      </trkpt>
      <trkpt lat="45.28103" lon="5.76905">
        <ele>1306.8</ele>
        <time>2015-08-22T20:28:48Z</time>
      </trkpt>
      <trkpt lat="45.28102" lon="5.76903">
        <ele>1306.5</ele>
        <time>2015-08-22T20:28:49Z</time>
      </trkpt>
      <trkpt lat="45.281" lon="5.76903">
        <ele>1306.4</ele>
        <time>2015-08-22T20:28:50Z</time>
      </trkpt>
      <trkpt lat="45.28094" lon="5.76905">
        <ele>1306.6</ele>
        <time>2015-08-22T20:28:54Z</time>
      </trkpt>
      <trkpt lat="45.28093" lon="5.76906">
        <ele>1306.7</ele>
        <time>2015-08-22T20:28:55Z</time>
      </trkpt>
      <trkpt lat="45.2808" lon="5.7691">
        <ele>1307.2</ele>
        <time>2015-08-22T20:29:04Z</time>
      </trkpt>
      <trkpt lat="45.28075" lon="5.76908">
        <ele>1306.4</ele>
        <time>2015-08-22T20:29:07Z</time>
      </trkpt>
      <trkpt lat="45.28071" lon="5.76908">
        <ele>1306.3</ele>
        <time>2015-08-22T20:29:09Z</time>
      </trkpt>
      <trkpt lat="45.28064" lon="5.76914">
        <ele>1307.7</ele>
        <time>2015-08-22T20:29:15Z</time>
      </trkpt>
      <trkpt lat="45.28054" lon="5.76917">
        <ele>1308.1</ele>
        <time>2015-08-22T20:29:22Z</time>
      </trkpt>
      <trkpt lat="45.28047" lon="5.76918">
        <ele>1308.1</ele>
        <time>2015-08-22T20:29:27Z</time>
      </trkpt>
      <trkpt lat="45.28046" lon="5.76919">
        <ele>1308.2</ele>
        <time>2015-08-22T20:29:28Z</time>
      </trkpt>
      <trkpt lat="45.2804" lon="5.76923">
        <ele>1309.2</ele>
        <time>2015-08-22T20:29:34Z</time>
      </trkpt>
      <trkpt lat="45.28036" lon="5.76927">
        <ele>1310.1</ele>
        <time>2015-08-22T20:29:36Z</time>
      </trkpt>
      <trkpt lat="45.28026" lon="5.76936">
        <ele>1312.3</ele>
        <time>2015-08-22T20:29:42Z</time>
      </trkpt>
      <trkpt lat="45.28024" lon="5.76936">
        <ele>1312.4</ele>
        <time>2015-08-22T20:29:43Z</time>
      </trkpt>
      <trkpt lat="45.28016" lon="5.76941">
        <ele>1313.5</ele>
        <time>2015-08-22T20:29:48Z</time>
      </trkpt>
      <trkpt lat="45.28008" lon="5.76945">
        <ele>1314.3</ele>
        <time>2015-08-22T20:29:56Z</time>
      </trkpt>
      <trkpt lat="45.28007" lon="5.76947">
        <ele>1314.8</ele>
        <time>2015-08-22T20:29:58Z</time>
      </trkpt>
      <trkpt lat="45.28003" lon="5.76946">
        <ele>1314.5</ele>
        <time>2015-08-22T20:30:00Z</time>
      </trkpt>
      <trkpt lat="45.28002" lon="5.76945">
        <ele>1314.3</ele>
        <time>2015-08-22T20:30:01Z</time>
      </trkpt>
      <trkpt lat="45.27998" lon="5.76948">
        <ele>1314.9</ele>
        <time>2015-08-22T20:30:04Z</time>
      </trkpt>
      <trkpt lat="45.27998" lon="5.76947">
        <ele>1314.8</ele>
        <time>2015-08-22T20:30:06Z</time>
      </trkpt>
      <trkpt lat="45.27992" lon="5.76948">
        <ele>1314.8</ele>
        <time>2015-08-22T20:30:11Z</time>
      </trkpt>
      <trkpt lat="45.27986" lon="5.76952">
        <ele>1315.8</ele>
        <time>2015-08-22T20:30:16Z</time>
      </trkpt>
      <trkpt lat="45.27983" lon="5.76954">
        <ele>1316.2</ele>
        <time>2015-08-22T20:30:18Z</time>
      </trkpt>
      <trkpt lat="45.27981" lon="5.76954">
        <ele>1316.4</ele>
        <time>2015-08-22T20:30:21Z</time>
      </trkpt>
      <trkpt lat="45.27977" lon="5.76958">
        <ele>1317.5</ele>
        <time>2015-08-22T20:30:25Z</time>
      </trkpt>
      <trkpt lat="45.27974" lon="5.7696">
        <ele>1317.8</ele>
        <time>2015-08-22T20:30:27Z</time>
      </trkpt>
      <trkpt lat="45.27968" lon="5.76963">
        <ele>1318.3</ele>
        <time>2015-08-22T20:30:31Z</time>
      </trkpt>
      <trkpt lat="45.27959" lon="5.76964">
        <ele>1318.5</ele>
        <time>2015-08-22T20:30:37Z</time>
      </trkpt>
      <trkpt lat="45.27948" lon="5.76964">
        <ele>1318.3</ele>
        <time>2015-08-22T20:30:43Z</time>
      </trkpt>
      <trkpt lat="45.27944" lon="5.76964">
        <ele>1318.3</ele>
        <time>2015-08-22T20:30:46Z</time>
      </trkpt>
      <trkpt lat="45.27938" lon="5.76964">
        <ele>1318.5</ele>
        <time>2015-08-22T20:30:48Z</time>
      </trkpt>
      <trkpt lat="45.27929" lon="5.76964">
        <ele>1318.3</ele>
        <time>2015-08-22T20:30:53Z</time>
      </trkpt>
      <trkpt lat="45.27928" lon="5.76964">
        <ele>1318.2</ele>
        <time>2015-08-22T20:30:54Z</time>
      </trkpt>
      <trkpt lat="45.27926" lon="5.76963">
        <ele>1318.1</ele>
        <time>2015-08-22T20:30:55Z</time>
      </trkpt>
      <trkpt lat="45.2792" lon="5.76958">
        <ele>1316.9</ele>
        <time>2015-08-22T20:30:59Z</time>
      </trkpt>
      <trkpt lat="45.27914" lon="5.76956">
        <ele>1316.3</ele>
        <time>2015-08-22T20:31:03Z</time>
      </trkpt>
      <trkpt lat="45.27912" lon="5.76955">
        <ele>1316</ele>
        <time>2015-08-22T20:31:04Z</time>
      </trkpt>
      <trkpt lat="45.27902" lon="5.76957">
        <ele>1316.5</ele>
        <time>2015-08-22T20:31:09Z</time>
      </trkpt>
      <trkpt lat="45.27892" lon="5.76959">
        <ele>1317.1</ele>
        <time>2015-08-22T20:31:14Z</time>
      </trkpt>
      <trkpt lat="45.27889" lon="5.76959">
        <ele>1317.2</ele>
        <time>2015-08-22T20:31:15Z</time>
      </trkpt>
      <trkpt lat="45.27881" lon="5.76962">
        <ele>1317.7</ele>
        <time>2015-08-22T20:31:18Z</time>
      </trkpt>
      <trkpt lat="45.27868" lon="5.76958">
        <ele>1316</ele>
        <time>2015-08-22T20:31:24Z</time>
      </trkpt>
      <trkpt lat="45.27858" lon="5.76959">
        <ele>1315</ele>
        <time>2015-08-22T20:31:29Z</time>
      </trkpt>
      <trkpt lat="45.27849" lon="5.7696">
        <ele>1314.2</ele>
        <time>2015-08-22T20:31:34Z</time>
      </trkpt>
      <trkpt lat="45.27838" lon="5.76957">
        <ele>1312</ele>
        <time>2015-08-22T20:31:38Z</time>
      </trkpt>
      <trkpt lat="45.27834" lon="5.76954">
        <ele>1310.9</ele>
        <time>2015-08-22T20:31:40Z</time>
      </trkpt>
      <trkpt lat="45.27828" lon="5.76954">
        <ele>1310.2</ele>
        <time>2015-08-22T20:31:43Z</time>
      </trkpt>
      <trkpt lat="45.27819" lon="5.76954">
        <ele>1309.1</ele>
        <time>2015-08-22T20:31:48Z</time>
      </trkpt>
      <trkpt lat="45.27808" lon="5.76957">
        <ele>1308.5</ele>
        <time>2015-08-22T20:31:53Z</time>
      </trkpt>
      <trkpt lat="45.27808" lon="5.76958">
        <ele>1308.8</ele>
        <time>2015-08-22T20:31:54Z</time>
      </trkpt>
      <trkpt lat="45.27797" lon="5.76954">
        <ele>1306.5</ele>
        <time>2015-08-22T20:31:59Z</time>
      </trkpt>
      <trkpt lat="45.27784" lon="5.76952">
        <ele>1303.1</ele>
        <time>2015-08-22T20:32:04Z</time>
      </trkpt>
      <trkpt lat="45.27779" lon="5.76952">
        <ele>1301.7</ele>
        <time>2015-08-22T20:32:06Z</time>
      </trkpt>
      <trkpt lat="45.27769" lon="5.76956">
        <ele>1299.6</ele>
        <time>2015-08-22T20:32:10Z</time>
      </trkpt>
      <trkpt lat="45.27759" lon="5.76965">
        <ele>1298.1</ele>
        <time>2015-08-22T20:32:16Z</time>
      </trkpt>
      <trkpt lat="45.27748" lon="5.76974">
        <ele>1295.9</ele>
        <time>2015-08-22T20:32:22Z</time>
      </trkpt>
      <trkpt lat="45.27744" lon="5.76983">
        <ele>1295.9</ele>
        <time>2015-08-22T20:32:25Z</time>
      </trkpt>
      <trkpt lat="45.27742" lon="5.76987">
        <ele>1296.1</ele>
        <time>2015-08-22T20:32:27Z</time>
      </trkpt>
      <trkpt lat="45.27737" lon="5.77">
        <ele>1296.4</ele>
        <time>2015-08-22T20:32:32Z</time>
      </trkpt>
      <trkpt lat="45.27736" lon="5.77014">
        <ele>1298</ele>
        <time>2015-08-22T20:32:38Z</time>
      </trkpt>
      <trkpt lat="45.27739" lon="5.77026">
        <ele>1300.9</ele>
        <time>2015-08-22T20:32:45Z</time>
      </trkpt>
      <trkpt lat="45.27738" lon="5.77039">
        <ele>1302.5</ele>
        <time>2015-08-22T20:32:52Z</time>
      </trkpt>
      <trkpt lat="45.27732" lon="5.77048">
        <ele>1301.6</ele>
        <time>2015-08-22T20:32:57Z</time>
      </trkpt>
      <trkpt lat="45.2772" lon="5.77061">
        <ele>1299</ele>
        <time>2015-08-22T20:33:04Z</time>
      </trkpt>
      <trkpt lat="45.27719" lon="5.77062">
        <ele>1298.8</ele>
        <time>2015-08-22T20:33:05Z</time>
      </trkpt>
      <trkpt lat="45.27714" lon="5.7707">
        <ele>1298.4</ele>
        <time>2015-08-22T20:33:10Z</time>
      </trkpt>
      <trkpt lat="45.27708" lon="5.7708">
        <ele>1297.5</ele>
        <time>2015-08-22T20:33:14Z</time>
      </trkpt>
      <trkpt lat="45.27706" lon="5.77082">
        <ele>1297.2</ele>
        <time>2015-08-22T20:33:16Z</time>
      </trkpt>
      <trkpt lat="45.27703" lon="5.77088">
        <ele>1297</ele>
        <time>2015-08-22T20:33:19Z</time>
      </trkpt>
      <trkpt lat="45.27703" lon="5.7709">
        <ele>1297.1</ele>
        <time>2015-08-22T20:33:21Z</time>
      </trkpt>
      <trkpt lat="45.27696" lon="5.77098">
        <ele>1296.1</ele>
        <time>2015-08-22T20:33:24Z</time>
      </trkpt>
      <trkpt lat="45.27684" lon="5.77113">
        <ele>1294.7</ele>
        <time>2015-08-22T20:33:31Z</time>
      </trkpt>
      <trkpt lat="45.27678" lon="5.77123">
        <ele>1294.7</ele>
        <time>2015-08-22T20:33:36Z</time>
      </trkpt>
      <trkpt lat="45.27676" lon="5.77126">
        <ele>1294.7</ele>
        <time>2015-08-22T20:33:37Z</time>
      </trkpt>
      <trkpt lat="45.27671" lon="5.77138">
        <ele>1295.1</ele>
        <time>2015-08-22T20:33:43Z</time>
      </trkpt>
      <trkpt lat="45.27666" lon="5.7715">
        <ele>1295.9</ele>
        <time>2015-08-22T20:33:48Z</time>
      </trkpt>
      <trkpt lat="45.2766" lon="5.77159">
        <ele>1296.3</ele>
        <time>2015-08-22T20:33:54Z</time>
      </trkpt>
      <trkpt lat="45.27657" lon="5.77168">
        <ele>1297.3</ele>
        <time>2015-08-22T20:34:00Z</time>
      </trkpt>
      <trkpt lat="45.27657" lon="5.77168">
        <ele>1297.3</ele>
        <time>2015-08-22T20:34:01Z</time>
      </trkpt>
      <trkpt lat="45.27655" lon="5.77175">
        <ele>1298.3</ele>
        <time>2015-08-22T20:34:05Z</time>
      </trkpt>
      <trkpt lat="45.27651" lon="5.77185">
        <ele>1299.7</ele>
        <time>2015-08-22T20:34:11Z</time>
      </trkpt>
      <trkpt lat="45.27647" lon="5.77192">
        <ele>1300.6</ele>
        <time>2015-08-22T20:34:16Z</time>
      </trkpt>
      <trkpt lat="45.27646" lon="5.77193">
        <ele>1300.5</ele>
        <time>2015-08-22T20:34:17Z</time>
      </trkpt>
      <trkpt lat="45.27639" lon="5.77197">
        <ele>1300.7</ele>
        <time>2015-08-22T20:34:22Z</time>
      </trkpt>
      <trkpt lat="45.27626" lon="5.77198">
        <ele>1299.5</ele>
        <time>2015-08-22T20:34:28Z</time>
      </trkpt>
      <trkpt lat="45.27622" lon="5.7719">
        <ele>1297.5</ele>
        <time>2015-08-22T20:34:32Z</time>
      </trkpt>
      <trkpt lat="45.27619" lon="5.77179">
        <ele>1294.5</ele>
        <time>2015-08-22T20:34:37Z</time>
      </trkpt>
      <trkpt lat="45.27616" lon="5.77175">
        <ele>1293.6</ele>
        <time>2015-08-22T20:34:40Z</time>
      </trkpt>
      <trkpt lat="45.27612" lon="5.77171">
        <ele>1292.5</ele>
        <time>2015-08-22T20:34:43Z</time>
      </trkpt>
      <trkpt lat="45.27604" lon="5.77161">
        <ele>1289.4</ele>
        <time>2015-08-22T20:34:49Z</time>
      </trkpt>
      <trkpt lat="45.276" lon="5.77153">
        <ele>1287.1</ele>
        <time>2015-08-22T20:34:54Z</time>
      </trkpt>
      <trkpt lat="45.27589" lon="5.77145">
        <ele>1284.2</ele>
        <time>2015-08-22T20:35:01Z</time>
      </trkpt>
      <trkpt lat="45.27578" lon="5.77134">
        <ele>1279.9</ele>
        <time>2015-08-22T20:35:07Z</time>
      </trkpt>
      <trkpt lat="45.27569" lon="5.77125">
        <ele>1276.2</ele>
        <time>2015-08-22T20:35:13Z</time>
      </trkpt>
      <trkpt lat="45.27566" lon="5.77118">
        <ele>1274.4</ele>
        <time>2015-08-22T20:35:16Z</time>
      </trkpt>
      <trkpt lat="45.27564" lon="5.77117">
        <ele>1273.8</ele>
        <time>2015-08-22T20:35:18Z</time>
      </trkpt>
      <trkpt lat="45.27558" lon="5.7711">
        <ele>1271.6</ele>
        <time>2015-08-22T20:35:22Z</time>
      </trkpt>
      <trkpt lat="45.27556" lon="5.77108">
        <ele>1270.8</ele>
        <time>2015-08-22T20:35:23Z</time>
      </trkpt>
      <trkpt lat="45.27551" lon="5.77103">
        <ele>1269.2</ele>
        <time>2015-08-22T20:35:26Z</time>
      </trkpt>
      <trkpt lat="45.27547" lon="5.77099">
        <ele>1267.7</ele>
        <time>2015-08-22T20:35:29Z</time>
      </trkpt>
      <trkpt lat="45.27539" lon="5.7709">
        <ele>1264.6</ele>
        <time>2015-08-22T20:35:34Z</time>
      </trkpt>
      <trkpt lat="45.27538" lon="5.77088">
        <ele>1263.9</ele>
        <time>2015-08-22T20:35:35Z</time>
      </trkpt>
      <trkpt lat="45.27531" lon="5.77091">
        <ele>1264</ele>
        <time>2015-08-22T20:35:40Z</time>
      </trkpt>
      <trkpt lat="45.2753" lon="5.77091">
        <ele>1263.9</ele>
        <time>2015-08-22T20:35:41Z</time>
      </trkpt>
      <trkpt lat="45.27529" lon="5.77092">
        <ele>1264</ele>
        <time>2015-08-22T20:35:42Z</time>
      </trkpt>
      <trkpt lat="45.27524" lon="5.77092">
        <ele>1263.7</ele>
        <time>2015-08-22T20:35:46Z</time>
      </trkpt>
      <trkpt lat="45.27523" lon="5.77092">
        <ele>1263.4</ele>
        <time>2015-08-22T20:35:47Z</time>
      </trkpt>
      <trkpt lat="45.27516" lon="5.77087">
        <ele>1261.7</ele>
        <time>2015-08-22T20:35:52Z</time>
      </trkpt>
      <trkpt lat="45.27512" lon="5.77086">
        <ele>1260.9</ele>
        <time>2015-08-22T20:35:55Z</time>
      </trkpt>
      <trkpt lat="45.2751" lon="5.77083">
        <ele>1260</ele>
        <time>2015-08-22T20:35:57Z</time>
      </trkpt>
      <trkpt lat="45.27502" lon="5.7708">
        <ele>1258.7</ele>
        <time>2015-08-22T20:36:01Z</time>
      </trkpt>
      <trkpt lat="45.275" lon="5.77079">
        <ele>1258.3</ele>
        <time>2015-08-22T20:36:03Z</time>
      </trkpt>
      <trkpt lat="45.27497" lon="5.77074">
        <ele>1256.8</ele>
        <time>2015-08-22T20:36:05Z</time>
      </trkpt>
      <trkpt lat="45.27492" lon="5.77071">
        <ele>1255.7</ele>
        <time>2015-08-22T20:36:08Z</time>
      </trkpt>
      <trkpt lat="45.2749" lon="5.77066">
        <ele>1254.5</ele>
        <time>2015-08-22T20:36:10Z</time>
      </trkpt>
      <trkpt lat="45.27485" lon="5.77063">
        <ele>1253.4</ele>
        <time>2015-08-22T20:36:14Z</time>
      </trkpt>
      <trkpt lat="45.27484" lon="5.77062">
        <ele>1253</ele>
        <time>2015-08-22T20:36:15Z</time>
      </trkpt>
      <trkpt lat="45.27481" lon="5.77057">
        <ele>1251.8</ele>
        <time>2015-08-22T20:36:19Z</time>
      </trkpt>
      <trkpt lat="45.27473" lon="5.77051">
        <ele>1249.9</ele>
        <time>2015-08-22T20:36:26Z</time>
      </trkpt>
      <trkpt lat="45.27469" lon="5.77048">
        <ele>1249</ele>
        <time>2015-08-22T20:36:29Z</time>
      </trkpt>
      <trkpt lat="45.27467" lon="5.77045">
        <ele>1248.3</ele>
        <time>2015-08-22T20:36:30Z</time>
      </trkpt>
      <trkpt lat="45.27461" lon="5.77039">
        <ele>1247.2</ele>
        <time>2015-08-22T20:36:35Z</time>
      </trkpt>
      <trkpt lat="45.27455" lon="5.77034">
        <ele>1246.3</ele>
        <time>2015-08-22T20:36:40Z</time>
      </trkpt>
      <trkpt lat="45.27454" lon="5.77033">
        <ele>1246.2</ele>
        <time>2015-08-22T20:36:41Z</time>
      </trkpt>
      <trkpt lat="45.27447" lon="5.77029">
        <ele>1244.8</ele>
        <time>2015-08-22T20:36:48Z</time>
      </trkpt>
      <trkpt lat="45.27439" lon="5.77033">
        <ele>1243.3</ele>
        <time>2015-08-22T20:36:54Z</time>
      </trkpt>
      <trkpt lat="45.27438" lon="5.77033">
        <ele>1243</ele>
        <time>2015-08-22T20:36:56Z</time>
      </trkpt>
      <trkpt lat="45.27433" lon="5.7703">
        <ele>1242.1</ele>
        <time>2015-08-22T20:36:59Z</time>
      </trkpt>
      <trkpt lat="45.2743" lon="5.77026">
        <ele>1241.7</ele>
        <time>2015-08-22T20:37:03Z</time>
      </trkpt>
      <trkpt lat="45.27423" lon="5.77023">
        <ele>1240.4</ele>
        <time>2015-08-22T20:37:08Z</time>
      </trkpt>
      <trkpt lat="45.27411" lon="5.77018">
        <ele>1238.5</ele>
        <time>2015-08-22T20:37:14Z</time>
      </trkpt>
      <trkpt lat="45.27408" lon="5.77017">
        <ele>1238</ele>
        <time>2015-08-22T20:37:16Z</time>
      </trkpt>
      <trkpt lat="45.27406" lon="5.77016">
        <ele>1237.6</ele>
        <time>2015-08-22T20:37:19Z</time>
      </trkpt>
      <trkpt lat="45.27402" lon="5.77014">
        <ele>1237.1</ele>
        <time>2015-08-22T20:37:22Z</time>
      </trkpt>
      <trkpt lat="45.27395" lon="5.77014">
        <ele>1235.8</ele>
        <time>2015-08-22T20:37:26Z</time>
      </trkpt>
      <trkpt lat="45.2739" lon="5.77013">
        <ele>1234.9</ele>
        <time>2015-08-22T20:37:29Z</time>
      </trkpt>
      <trkpt lat="45.27386" lon="5.77012">
        <ele>1234.3</ele>
        <time>2015-08-22T20:37:32Z</time>
      </trkpt>
      <trkpt lat="45.2738" lon="5.77012">
        <ele>1233.4</ele>
        <time>2015-08-22T20:37:36Z</time>
      </trkpt>
      <trkpt lat="45.27379" lon="5.77012">
        <ele>1233.2</ele>
        <time>2015-08-22T20:37:37Z</time>
      </trkpt>
      <trkpt lat="45.27371" lon="5.77013">
        <ele>1231.1</ele>
        <time>2015-08-22T20:37:40Z</time>
      </trkpt>
      <trkpt lat="45.27367" lon="5.77011">
        <ele>1229.4</ele>
        <time>2015-08-22T20:37:43Z</time>
      </trkpt>
      <trkpt lat="45.27361" lon="5.77013">
        <ele>1227.3</ele>
        <time>2015-08-22T20:37:45Z</time>
      </trkpt>
      <trkpt lat="45.27356" lon="5.77017">
        <ele>1225</ele>
        <time>2015-08-22T20:37:49Z</time>
      </trkpt>
      <trkpt lat="45.27355" lon="5.77017">
        <ele>1224.5</ele>
        <time>2015-08-22T20:37:50Z</time>
      </trkpt>
      <trkpt lat="45.27348" lon="5.7702">
        <ele>1221.8</ele>
        <time>2015-08-22T20:37:55Z</time>
      </trkpt>
      <trkpt lat="45.27347" lon="5.77021">
        <ele>1221.3</ele>
        <time>2015-08-22T20:37:56Z</time>
      </trkpt>
      <trkpt lat="45.27343" lon="5.77025">
        <ele>1219.4</ele>
        <time>2015-08-22T20:38:01Z</time>
      </trkpt>
      <trkpt lat="45.27342" lon="5.77025">
        <ele>1219.1</ele>
        <time>2015-08-22T20:38:02Z</time>
      </trkpt>
      <trkpt lat="45.27336" lon="5.7702">
        <ele>1217.3</ele>
        <time>2015-08-22T20:38:07Z</time>
      </trkpt>
      <trkpt lat="45.27328" lon="5.77019">
        <ele>1214.3</ele>
        <time>2015-08-22T20:38:12Z</time>
      </trkpt>
      <trkpt lat="45.27322" lon="5.77022">
        <ele>1211.6</ele>
        <time>2015-08-22T20:38:16Z</time>
      </trkpt>
      <trkpt lat="45.27319" lon="5.77023">
        <ele>1210.8</ele>
        <time>2015-08-22T20:38:18Z</time>
      </trkpt>
      <trkpt lat="45.27315" lon="5.77026">
        <ele>1208.7</ele>
        <time>2015-08-22T20:38:23Z</time>
      </trkpt>
      <trkpt lat="45.27314" lon="5.77026">
        <ele>1208.4</ele>
        <time>2015-08-22T20:38:24Z</time>
      </trkpt>
      <trkpt lat="45.2731" lon="5.77025">
        <ele>1207</ele>
        <time>2015-08-22T20:38:28Z</time>
      </trkpt>
      <trkpt lat="45.27304" lon="5.77024">
        <ele>1204.7</ele>
        <time>2015-08-22T20:38:35Z</time>
      </trkpt>
      <trkpt lat="45.27295" lon="5.77023">
        <ele>1201.5</ele>
        <time>2015-08-22T20:38:42Z</time>
      </trkpt>
      <trkpt lat="45.27284" lon="5.77027">
        <ele>1196.6</ele>
        <time>2015-08-22T20:38:49Z</time>
      </trkpt>
      <trkpt lat="45.27276" lon="5.77028">
        <ele>1192.8</ele>
        <time>2015-08-22T20:38:56Z</time>
      </trkpt>
      <trkpt lat="45.27271" lon="5.77027">
        <ele>1190.9</ele>
        <time>2015-08-22T20:39:01Z</time>
      </trkpt>
      <trkpt lat="45.2727" lon="5.77029">
        <ele>1190.4</ele>
        <time>2015-08-22T20:39:03Z</time>
      </trkpt>
      <trkpt lat="45.27266" lon="5.77029">
        <ele>1188.8</ele>
        <time>2015-08-22T20:39:06Z</time>
      </trkpt>
      <trkpt lat="45.27263" lon="5.7703">
        <ele>1187.1</ele>
        <time>2015-08-22T20:39:08Z</time>
      </trkpt>
      <trkpt lat="45.27261" lon="5.77029">
        <ele>1186.2</ele>
        <time>2015-08-22T20:39:10Z</time>
      </trkpt>
      <trkpt lat="45.27256" lon="5.77028">
        <ele>1184.3</ele>
        <time>2015-08-22T20:39:13Z</time>
      </trkpt>
      <trkpt lat="45.27254" lon="5.77027">
        <ele>1183.3</ele>
        <time>2015-08-22T20:39:15Z</time>
      </trkpt>
      <trkpt lat="45.27252" lon="5.77027">
        <ele>1182.5</ele>
        <time>2015-08-22T20:39:17Z</time>
      </trkpt>
      <trkpt lat="45.27241" lon="5.7703">
        <ele>1177.4</ele>
        <time>2015-08-22T20:39:24Z</time>
      </trkpt>
      <trkpt lat="45.27239" lon="5.77032">
        <ele>1176.8</ele>
        <time>2015-08-22T20:39:25Z</time>
      </trkpt>
      <trkpt lat="45.27232" lon="5.77043">
        <ele>1173.5</ele>
        <time>2015-08-22T20:39:29Z</time>
      </trkpt>
      <trkpt lat="45.27224" lon="5.77056">
        <ele>1171.9</ele>
        <time>2015-08-22T20:39:36Z</time>
      </trkpt>
      <trkpt lat="45.27221" lon="5.77062">
        <ele>1171.2</ele>
        <time>2015-08-22T20:39:40Z</time>
      </trkpt>
      <trkpt lat="45.2722" lon="5.77063">
        <ele>1171</ele>
        <time>2015-08-22T20:39:41Z</time>
      </trkpt>
      <trkpt lat="45.27216" lon="5.7707">
        <ele>1170.2</ele>
        <time>2015-08-22T20:39:46Z</time>
      </trkpt>
      <trkpt lat="45.27212" lon="5.77073">
        <ele>1168.9</ele>
        <time>2015-08-22T20:39:49Z</time>
      </trkpt>
      <trkpt lat="45.27211" lon="5.77074">
        <ele>1169</ele>
        <time>2015-08-22T20:39:50Z</time>
      </trkpt>
      <trkpt lat="45.2721" lon="5.77076">
        <ele>1168.6</ele>
        <time>2015-08-22T20:39:51Z</time>
      </trkpt>
      <trkpt lat="45.272" lon="5.77076">
        <ele>1165.5</ele>
        <time>2015-08-22T20:39:56Z</time>
      </trkpt>
      <trkpt lat="45.27198" lon="5.77076">
        <ele>1165.2</ele>
        <time>2015-08-22T20:39:57Z</time>
      </trkpt>
      <trkpt lat="45.2719" lon="5.77077">
        <ele>1162.8</ele>
        <time>2015-08-22T20:40:02Z</time>
      </trkpt>
      <trkpt lat="45.27181" lon="5.77081">
        <ele>1160.8</ele>
        <time>2015-08-22T20:40:08Z</time>
      </trkpt>
      <trkpt lat="45.27173" lon="5.77081">
        <ele>1158.6</ele>
        <time>2015-08-22T20:40:13Z</time>
      </trkpt>
      <trkpt lat="45.27169" lon="5.7708">
        <ele>1157.5</ele>
        <time>2015-08-22T20:40:15Z</time>
      </trkpt>
      <trkpt lat="45.27162" lon="5.77078">
        <ele>1155.1</ele>
        <time>2015-08-22T20:40:19Z</time>
      </trkpt>
      <trkpt lat="45.27154" lon="5.77079">
        <ele>1152.8</ele>
        <time>2015-08-22T20:40:24Z</time>
      </trkpt>
      <trkpt lat="45.27152" lon="5.7708">
        <ele>1152.6</ele>
        <time>2015-08-22T20:40:25Z</time>
      </trkpt>
      <trkpt lat="45.27149" lon="5.77087">
        <ele>1153</ele>
        <time>2015-08-22T20:40:29Z</time>
      </trkpt>
      <trkpt lat="45.27148" lon="5.77088">
        <ele>1152.9</ele>
        <time>2015-08-22T20:40:30Z</time>
      </trkpt>
      <trkpt lat="45.27148" lon="5.77088">
        <ele>1152.8</ele>
        <time>2015-08-22T20:40:31Z</time>
      </trkpt>
      <trkpt lat="45.27146" lon="5.77094">
        <ele>1153.5</ele>
        <time>2015-08-22T20:40:35Z</time>
      </trkpt>
      <trkpt lat="45.27146" lon="5.77095">
        <ele>1153.7</ele>
        <time>2015-08-22T20:40:37Z</time>
      </trkpt>
      <trkpt lat="45.27144" lon="5.77098">
        <ele>1153.5</ele>
        <time>2015-08-22T20:40:41Z</time>
      </trkpt>
      <trkpt lat="45.27142" lon="5.771">
        <ele>1153.3</ele>
        <time>2015-08-22T20:40:45Z</time>
      </trkpt>
      <trkpt lat="45.27138" lon="5.77104">
        <ele>1153</ele>
        <time>2015-08-22T20:40:48Z</time>
      </trkpt>
      <trkpt lat="45.27136" lon="5.77109">
        <ele>1153.5</ele>
        <time>2015-08-22T20:40:51Z</time>
      </trkpt>
      <trkpt lat="45.27132" lon="5.77123">
        <ele>1155.2</ele>
        <time>2015-08-22T20:40:59Z</time>
      </trkpt>
      <trkpt lat="45.2713" lon="5.77131">
        <ele>1157</ele>
        <time>2015-08-22T20:41:06Z</time>
      </trkpt>
      <trkpt lat="45.27128" lon="5.77142">
        <ele>1159.7</ele>
        <time>2015-08-22T20:41:12Z</time>
      </trkpt>
      <trkpt lat="45.27125" lon="5.77149">
        <ele>1161.1</ele>
        <time>2015-08-22T20:41:17Z</time>
      </trkpt>
      <trkpt lat="45.27123" lon="5.77151">
        <ele>1161</ele>
        <time>2015-08-22T20:41:19Z</time>
      </trkpt>
      <trkpt lat="45.27122" lon="5.77153">
        <ele>1161.3</ele>
        <time>2015-08-22T20:41:20Z</time>
      </trkpt>
      <trkpt lat="45.27122" lon="5.77157">
        <ele>1162.4</ele>
        <time>2015-08-22T20:41:23Z</time>
      </trkpt>
      <trkpt lat="45.2712" lon="5.77159">
        <ele>1162.7</ele>
        <time>2015-08-22T20:41:24Z</time>
      </trkpt>
      <trkpt lat="45.27118" lon="5.77162">
        <ele>1163.1</ele>
        <time>2015-08-22T20:41:28Z</time>
      </trkpt>
      <trkpt lat="45.27118" lon="5.77166">
        <ele>1164.2</ele>
        <time>2015-08-22T20:41:31Z</time>
      </trkpt>
      <trkpt lat="45.27115" lon="5.77172">
        <ele>1165.3</ele>
        <time>2015-08-22T20:41:34Z</time>
      </trkpt>
      <trkpt lat="45.27113" lon="5.77176">
        <ele>1166.4</ele>
        <time>2015-08-22T20:41:37Z</time>
      </trkpt>
      <trkpt lat="45.27112" lon="5.77181">
        <ele>1167.4</ele>
        <time>2015-08-22T20:41:40Z</time>
      </trkpt>
      <trkpt lat="45.27111" lon="5.77185">
        <ele>1168.7</ele>
        <time>2015-08-22T20:41:44Z</time>
      </trkpt>
      <trkpt lat="45.27111" lon="5.77187">
        <ele>1169</ele>
        <time>2015-08-22T20:41:45Z</time>
      </trkpt>
      <trkpt lat="45.27111" lon="5.77188">
        <ele>1169.4</ele>
        <time>2015-08-22T20:41:46Z</time>
      </trkpt>
      <trkpt lat="45.2711" lon="5.77191">
        <ele>1170.4</ele>
        <time>2015-08-22T20:41:50Z</time>
      </trkpt>
      <trkpt lat="45.27106" lon="5.77196">
        <ele>1171.1</ele>
        <time>2015-08-22T20:41:56Z</time>
      </trkpt>
      <trkpt lat="45.27103" lon="5.77199">
        <ele>1171.4</ele>
        <time>2015-08-22T20:42:00Z</time>
      </trkpt>
      <trkpt lat="45.27101" lon="5.77204">
        <ele>1172.4</ele>
        <time>2015-08-22T20:42:02Z</time>
      </trkpt>
      <trkpt lat="45.27098" lon="5.77205">
        <ele>1172.6</ele>
        <time>2015-08-22T20:42:05Z</time>
      </trkpt>
      <trkpt lat="45.27098" lon="5.77209">
        <ele>1173.7</ele>
        <time>2015-08-22T20:42:07Z</time>
      </trkpt>
      <trkpt lat="45.27092" lon="5.77218">
        <ele>1175.8</ele>
        <time>2015-08-22T20:42:12Z</time>
      </trkpt>
      <trkpt lat="45.2709" lon="5.7722">
        <ele>1176</ele>
        <time>2015-08-22T20:42:13Z</time>
      </trkpt>
      <trkpt lat="45.27088" lon="5.77221">
        <ele>1176.1</ele>
        <time>2015-08-22T20:42:16Z</time>
      </trkpt>
      <trkpt lat="45.27086" lon="5.77224">
        <ele>1176.6</ele>
        <time>2015-08-22T20:42:18Z</time>
      </trkpt>
      <trkpt lat="45.27084" lon="5.77227">
        <ele>1177.6</ele>
        <time>2015-08-22T20:42:21Z</time>
      </trkpt>
      <trkpt lat="45.27083" lon="5.7723">
        <ele>1178.2</ele>
        <time>2015-08-22T20:42:22Z</time>
      </trkpt>
      <trkpt lat="45.2708" lon="5.77235">
        <ele>1179.7</ele>
        <time>2015-08-22T20:42:26Z</time>
      </trkpt>
      <trkpt lat="45.27077" lon="5.7724">
        <ele>1180.9</ele>
        <time>2015-08-22T20:42:30Z</time>
      </trkpt>
      <trkpt lat="45.27076" lon="5.77243">
        <ele>1181.8</ele>
        <time>2015-08-22T20:42:32Z</time>
      </trkpt>
      <trkpt lat="45.27074" lon="5.7725">
        <ele>1183.9</ele>
        <time>2015-08-22T20:42:37Z</time>
      </trkpt>
      <trkpt lat="45.27074" lon="5.7725">
        <ele>1183.9</ele>
        <time>2015-08-22T20:42:38Z</time>
      </trkpt>
      <trkpt lat="45.27071" lon="5.77256">
        <ele>1185.5</ele>
        <time>2015-08-22T20:42:44Z</time>
      </trkpt>
      <trkpt lat="45.2707" lon="5.77259">
        <ele>1186.3</ele>
        <time>2015-08-22T20:42:47Z</time>
      </trkpt>
      <trkpt lat="45.27069" lon="5.7726">
        <ele>1186.4</ele>
        <time>2015-08-22T20:42:50Z</time>
      </trkpt>
      <trkpt lat="45.27065" lon="5.77266">
        <ele>1188.1</ele>
        <time>2015-08-22T20:42:55Z</time>
      </trkpt>
      <trkpt lat="45.27062" lon="5.77273">
        <ele>1190</ele>
        <time>2015-08-22T20:43:01Z</time>
      </trkpt>
      <trkpt lat="45.27061" lon="5.77274">
        <ele>1190.3</ele>
        <time>2015-08-22T20:43:03Z</time>
      </trkpt>
      <trkpt lat="45.2706" lon="5.77277">
        <ele>1191.2</ele>
        <time>2015-08-22T20:43:05Z</time>
      </trkpt>
      <trkpt lat="45.27055" lon="5.77284">
        <ele>1193.1</ele>
        <time>2015-08-22T20:43:12Z</time>
      </trkpt>
      <trkpt lat="45.27054" lon="5.77289">
        <ele>1194.7</ele>
        <time>2015-08-22T20:43:16Z</time>
      </trkpt>
      <trkpt lat="45.27054" lon="5.77292">
        <ele>1195.6</ele>
        <time>2015-08-22T20:43:18Z</time>
      </trkpt>
      <trkpt lat="45.27053" lon="5.77293">
        <ele>1195.7</ele>
        <time>2015-08-22T20:43:19Z</time>
      </trkpt>
      <trkpt lat="45.27049" lon="5.77296">
        <ele>1196.2</ele>
        <time>2015-08-22T20:43:24Z</time>
      </trkpt>
      <trkpt lat="45.27043" lon="5.77298">
        <ele>1195.6</ele>
        <time>2015-08-22T20:43:30Z</time>
      </trkpt>
      <trkpt lat="45.27038" lon="5.77298">
        <ele>1194.5</ele>
        <time>2015-08-22T20:43:36Z</time>
      </trkpt>
      <trkpt lat="45.27033" lon="5.77298">
        <ele>1192.5</ele>
        <time>2015-08-22T20:43:43Z</time>
      </trkpt>
      <trkpt lat="45.27028" lon="5.77297">
        <ele>1190.5</ele>
        <time>2015-08-22T20:43:49Z</time>
      </trkpt>
      <trkpt lat="45.27027" lon="5.77298">
        <ele>1190.3</ele>
        <time>2015-08-22T20:43:50Z</time>
      </trkpt>
      <trkpt lat="45.27023" lon="5.77301">
        <ele>1190</ele>
        <time>2015-08-22T20:43:54Z</time>
      </trkpt>
      <trkpt lat="45.27021" lon="5.77303">
        <ele>1189.5</ele>
        <time>2015-08-22T20:43:57Z</time>
      </trkpt>
      <trkpt lat="45.27018" lon="5.77306">
        <ele>1189.3</ele>
        <time>2015-08-22T20:43:59Z</time>
      </trkpt>
      <trkpt lat="45.27014" lon="5.77313">
        <ele>1189.3</ele>
        <time>2015-08-22T20:44:03Z</time>
      </trkpt>
      <trkpt lat="45.27013" lon="5.77314">
        <ele>1189</ele>
        <time>2015-08-22T20:44:06Z</time>
      </trkpt>
      <trkpt lat="45.27012" lon="5.77317">
        <ele>1189.4</ele>
        <time>2015-08-22T20:44:08Z</time>
      </trkpt>
      <trkpt lat="45.27008" lon="5.77323">
        <ele>1189.4</ele>
        <time>2015-08-22T20:44:13Z</time>
      </trkpt>
      <trkpt lat="45.27007" lon="5.77324">
        <ele>1189.3</ele>
        <time>2015-08-22T20:44:14Z</time>
      </trkpt>
      <trkpt lat="45.27007" lon="5.77326">
        <ele>1189.4</ele>
        <time>2015-08-22T20:44:15Z</time>
      </trkpt>
      <trkpt lat="45.27005" lon="5.77331">
        <ele>1189.9</ele>
        <time>2015-08-22T20:44:19Z</time>
      </trkpt>
      <trkpt lat="45.27004" lon="5.77331">
        <ele>1189.6</ele>
        <time>2015-08-22T20:44:20Z</time>
      </trkpt>
      <trkpt lat="45.27003" lon="5.77331">
        <ele>1189.4</ele>
        <time>2015-08-22T20:44:21Z</time>
      </trkpt>
      <trkpt lat="45.26997" lon="5.77343">
        <ele>1189.4</ele>
        <time>2015-08-22T20:44:28Z</time>
      </trkpt>
      <trkpt lat="45.26995" lon="5.77358">
        <ele>1191.6</ele>
        <time>2015-08-22T20:44:34Z</time>
      </trkpt>
      <trkpt lat="45.26993" lon="5.77377">
        <ele>1194.3</ele>
        <time>2015-08-22T20:44:40Z</time>
      </trkpt>
      <trkpt lat="45.26991" lon="5.77381">
        <ele>1194</ele>
        <time>2015-08-22T20:44:42Z</time>
      </trkpt>
      <trkpt lat="45.26988" lon="5.77389">
        <ele>1193.3</ele>
        <time>2015-08-22T20:44:45Z</time>
      </trkpt>
      <trkpt lat="45.26988" lon="5.77392">
        <ele>1193.5</ele>
        <time>2015-08-22T20:44:46Z</time>
      </trkpt>
      <trkpt lat="45.26987" lon="5.77397">
        <ele>1193.5</ele>
        <time>2015-08-22T20:44:48Z</time>
      </trkpt>
      <trkpt lat="45.26985" lon="5.77403">
        <ele>1193.1</ele>
        <time>2015-08-22T20:44:50Z</time>
      </trkpt>
      <trkpt lat="45.26985" lon="5.77405">
        <ele>1193.2</ele>
        <time>2015-08-22T20:44:51Z</time>
      </trkpt>
      <trkpt lat="45.26986" lon="5.77415">
        <ele>1194.2</ele>
        <time>2015-08-22T20:44:54Z</time>
      </trkpt>
      <trkpt lat="45.26985" lon="5.7742">
        <ele>1194.4</ele>
        <time>2015-08-22T20:44:56Z</time>
      </trkpt>
      <trkpt lat="45.26982" lon="5.77438">
        <ele>1194</ele>
        <time>2015-08-22T20:45:02Z</time>
      </trkpt>
      <trkpt lat="45.26983" lon="5.77449">
        <ele>1195.5</ele>
        <time>2015-08-22T20:45:07Z</time>
      </trkpt>
      <trkpt lat="45.26986" lon="5.77463">
        <ele>1198</ele>
        <time>2015-08-22T20:45:13Z</time>
      </trkpt>
      <trkpt lat="45.26987" lon="5.77475">
        <ele>1198.9</ele>
        <time>2015-08-22T20:45:19Z</time>
      </trkpt>
      <trkpt lat="45.26988" lon="5.77477">
        <ele>1199.5</ele>
        <time>2015-08-22T20:45:20Z</time>
      </trkpt>
      <trkpt lat="45.26991" lon="5.77485">
        <ele>1201.5</ele>
        <time>2015-08-22T20:45:24Z</time>
      </trkpt>
      <trkpt lat="45.2699" lon="5.775">
        <ele>1202</ele>
        <time>2015-08-22T20:45:30Z</time>
      </trkpt>
      <trkpt lat="45.26988" lon="5.77514">
        <ele>1201.8</ele>
        <time>2015-08-22T20:45:36Z</time>
      </trkpt>
      <trkpt lat="45.26986" lon="5.77526">
        <ele>1201.5</ele>
        <time>2015-08-22T20:45:41Z</time>
      </trkpt>
      <trkpt lat="45.26985" lon="5.77529">
        <ele>1201.3</ele>
        <time>2015-08-22T20:45:42Z</time>
      </trkpt>
      <trkpt lat="45.26979" lon="5.7754">
        <ele>1199.4</ele>
        <time>2015-08-22T20:45:46Z</time>
      </trkpt>
      <trkpt lat="45.26974" lon="5.77555">
        <ele>1197.6</ele>
        <time>2015-08-22T20:45:52Z</time>
      </trkpt>
      <trkpt lat="45.26974" lon="5.77559">
        <ele>1197.7</ele>
        <time>2015-08-22T20:45:53Z</time>
      </trkpt>
      <trkpt lat="45.26972" lon="5.77568">
        <ele>1196.8</ele>
        <time>2015-08-22T20:45:56Z</time>
      </trkpt>
      <trkpt lat="45.26967" lon="5.77577">
        <ele>1194.7</ele>
        <time>2015-08-22T20:45:59Z</time>
      </trkpt>
      <trkpt lat="45.26963" lon="5.77586">
        <ele>1192.6</ele>
        <time>2015-08-22T20:46:02Z</time>
      </trkpt>
      <trkpt lat="45.26956" lon="5.77595">
        <ele>1189.7</ele>
        <time>2015-08-22T20:46:05Z</time>
      </trkpt>
      <trkpt lat="45.26953" lon="5.77601">
        <ele>1188.6</ele>
        <time>2015-08-22T20:46:07Z</time>
      </trkpt>
      <trkpt lat="45.26951" lon="5.77615">
        <ele>1187.8</ele>
        <time>2015-08-22T20:46:13Z</time>
      </trkpt>
      <trkpt lat="45.2695" lon="5.77619">
        <ele>1187.5</ele>
        <time>2015-08-22T20:46:14Z</time>
      </trkpt>
      <trkpt lat="45.26948" lon="5.77628">
        <ele>1187.4</ele>
        <time>2015-08-22T20:46:18Z</time>
      </trkpt>
      <trkpt lat="45.26948" lon="5.7763">
        <ele>1187.8</ele>
        <time>2015-08-22T20:46:19Z</time>
      </trkpt>
      <trkpt lat="45.26946" lon="5.77635">
        <ele>1187.9</ele>
        <time>2015-08-22T20:46:22Z</time>
      </trkpt>
      <trkpt lat="45.26945" lon="5.7764">
        <ele>1188.1</ele>
        <time>2015-08-22T20:46:24Z</time>
      </trkpt>
      <trkpt lat="45.26942" lon="5.77645">
        <ele>1187.9</ele>
        <time>2015-08-22T20:46:27Z</time>
      </trkpt>
      <trkpt lat="45.2694" lon="5.77646">
        <ele>1187.5</ele>
        <time>2015-08-22T20:46:28Z</time>
      </trkpt>
      <trkpt lat="45.26939" lon="5.77647">
        <ele>1187.1</ele>
        <time>2015-08-22T20:46:29Z</time>
      </trkpt>
      <trkpt lat="45.26932" lon="5.77653">
        <ele>1185.8</ele>
        <time>2015-08-22T20:46:33Z</time>
      </trkpt>
      <trkpt lat="45.26928" lon="5.77658">
        <ele>1185.2</ele>
        <time>2015-08-22T20:46:36Z</time>
      </trkpt>
      <trkpt lat="45.26926" lon="5.77659">
        <ele>1184.8</ele>
        <time>2015-08-22T20:46:37Z</time>
      </trkpt>
      <trkpt lat="45.26915" lon="5.77667">
        <ele>1182.4</ele>
        <time>2015-08-22T20:46:43Z</time>
      </trkpt>
      <trkpt lat="45.26908" lon="5.77674">
        <ele>1181.4</ele>
        <time>2015-08-22T20:46:48Z</time>
      </trkpt>
      <trkpt lat="45.26902" lon="5.77682">
        <ele>1181</ele>
        <time>2015-08-22T20:46:52Z</time>
      </trkpt>
      <trkpt lat="45.26901" lon="5.77683">
        <ele>1180.8</ele>
        <time>2015-08-22T20:46:53Z</time>
      </trkpt>
      <trkpt lat="45.26896" lon="5.77686">
        <ele>1180.1</ele>
        <time>2015-08-22T20:46:56Z</time>
      </trkpt>
      <trkpt lat="45.26892" lon="5.77687">
        <ele>1179.1</ele>
        <time>2015-08-22T20:46:59Z</time>
      </trkpt>
      <trkpt lat="45.26892" lon="5.77689">
        <ele>1179.3</ele>
        <time>2015-08-22T20:47:00Z</time>
      </trkpt>
      <trkpt lat="45.26888" lon="5.77692">
        <ele>1178.7</ele>
        <time>2015-08-22T20:47:03Z</time>
      </trkpt>
      <trkpt lat="45.26878" lon="5.77698">
        <ele>1177.1</ele>
        <time>2015-08-22T20:47:07Z</time>
      </trkpt>
      <trkpt lat="45.26873" lon="5.77701">
        <ele>1175.8</ele>
        <time>2015-08-22T20:47:09Z</time>
      </trkpt>
      <trkpt lat="45.26867" lon="5.77707">
        <ele>1174.5</ele>
        <time>2015-08-22T20:47:13Z</time>
      </trkpt>
      <trkpt lat="45.26862" lon="5.77711">
        <ele>1172.6</ele>
        <time>2015-08-22T20:47:15Z</time>
      </trkpt>
      <trkpt lat="45.26853" lon="5.77722">
        <ele>1169.9</ele>
        <time>2015-08-22T20:47:20Z</time>
      </trkpt>
      <trkpt lat="45.26849" lon="5.77727">
        <ele>1168.5</ele>
        <time>2015-08-22T20:47:23Z</time>
      </trkpt>
      <trkpt lat="45.26845" lon="5.7773">
        <ele>1167</ele>
        <time>2015-08-22T20:47:25Z</time>
      </trkpt>
      <trkpt lat="45.26843" lon="5.7774">
        <ele>1167.4</ele>
        <time>2015-08-22T20:47:31Z</time>
      </trkpt>
      <trkpt lat="45.26843" lon="5.77743">
        <ele>1167.8</ele>
        <time>2015-08-22T20:47:32Z</time>
      </trkpt>
      <trkpt lat="45.26843" lon="5.77748">
        <ele>1168.8</ele>
        <time>2015-08-22T20:47:35Z</time>
      </trkpt>
      <trkpt lat="45.26842" lon="5.77749">
        <ele>1168.8</ele>
        <time>2015-08-22T20:47:36Z</time>
      </trkpt>
      <trkpt lat="45.26841" lon="5.77756">
        <ele>1169.2</ele>
        <time>2015-08-22T20:47:40Z</time>
      </trkpt>
      <trkpt lat="45.26841" lon="5.7776">
        <ele>1170</ele>
        <time>2015-08-22T20:47:42Z</time>
      </trkpt>
      <trkpt lat="45.26838" lon="5.77766">
        <ele>1169.7</ele>
        <time>2015-08-22T20:47:45Z</time>
      </trkpt>
      <trkpt lat="45.26831" lon="5.77774">
        <ele>1167.3</ele>
        <time>2015-08-22T20:47:48Z</time>
      </trkpt>
      <trkpt lat="45.26829" lon="5.77785">
        <ele>1167.8</ele>
        <time>2015-08-22T20:47:53Z</time>
      </trkpt>
      <trkpt lat="45.26823" lon="5.77798">
        <ele>1166.3</ele>
        <time>2015-08-22T20:47:58Z</time>
      </trkpt>
      <trkpt lat="45.2682" lon="5.77809">
        <ele>1165.6</ele>
        <time>2015-08-22T20:48:03Z</time>
      </trkpt>
      <trkpt lat="45.26816" lon="5.7782">
        <ele>1163.9</ele>
        <time>2015-08-22T20:48:08Z</time>
      </trkpt>
      <trkpt lat="45.26814" lon="5.77831">
        <ele>1163.5</ele>
        <time>2015-08-22T20:48:13Z</time>
      </trkpt>
      <trkpt lat="45.26809" lon="5.77842">
        <ele>1161.3</ele>
        <time>2015-08-22T20:48:19Z</time>
      </trkpt>
      <trkpt lat="45.26806" lon="5.77857">
        <ele>1160.3</ele>
        <time>2015-08-22T20:48:24Z</time>
      </trkpt>
      <trkpt lat="45.26806" lon="5.77861">
        <ele>1160.4</ele>
        <time>2015-08-22T20:48:26Z</time>
      </trkpt>
      <trkpt lat="45.26808" lon="5.77864">
        <ele>1161.7</ele>
        <time>2015-08-22T20:48:28Z</time>
      </trkpt>
      <trkpt lat="45.26809" lon="5.77869">
        <ele>1162.5</ele>
        <time>2015-08-22T20:48:31Z</time>
      </trkpt>
      <trkpt lat="45.26809" lon="5.77877">
        <ele>1162.8</ele>
        <time>2015-08-22T20:48:34Z</time>
      </trkpt>
      <trkpt lat="45.2681" lon="5.7788">
        <ele>1163.3</ele>
        <time>2015-08-22T20:48:36Z</time>
      </trkpt>
      <trkpt lat="45.2681" lon="5.77893">
        <ele>1163.5</ele>
        <time>2015-08-22T20:48:42Z</time>
      </trkpt>
      <trkpt lat="45.2681" lon="5.77906">
        <ele>1163.4</ele>
        <time>2015-08-22T20:48:48Z</time>
      </trkpt>
      <trkpt lat="45.2681" lon="5.77919">
        <ele>1163.4</ele>
        <time>2015-08-22T20:48:53Z</time>
      </trkpt>
      <trkpt lat="45.26813" lon="5.77932">
        <ele>1165.3</ele>
        <time>2015-08-22T20:48:59Z</time>
      </trkpt>
      <trkpt lat="45.2682" lon="5.77942">
        <ele>1169.1</ele>
        <time>2015-08-22T20:49:05Z</time>
      </trkpt>
      <trkpt lat="45.26828" lon="5.77952">
        <ele>1173.3</ele>
        <time>2015-08-22T20:49:12Z</time>
      </trkpt>
      <trkpt lat="45.26836" lon="5.77964">
        <ele>1175.6</ele>
        <time>2015-08-22T20:49:18Z</time>
      </trkpt>
      <trkpt lat="45.26843" lon="5.77981">
        <ele>1174.7</ele>
        <time>2015-08-22T20:49:26Z</time>
      </trkpt>
      <trkpt lat="45.26844" lon="5.77996">
        <ele>1170.9</ele>
        <time>2015-08-22T20:49:30Z</time>
      </trkpt>
      <trkpt lat="45.26845" lon="5.78001">
        <ele>1170</ele>
        <time>2015-08-22T20:49:32Z</time>
      </trkpt>
      <trkpt lat="45.26847" lon="5.78002">
        <ele>1170.3</ele>
        <time>2015-08-22T20:49:34Z</time>
      </trkpt>
      <trkpt lat="45.26848" lon="5.78002">
        <ele>1170.7</ele>
        <time>2015-08-22T20:49:36Z</time>
      </trkpt>
      <trkpt lat="45.26845" lon="5.78006">
        <ele>1168.4</ele>
        <time>2015-08-22T20:49:37Z</time>
      </trkpt>
      <trkpt lat="45.26849" lon="5.78009">
        <ele>1168.9</ele>
        <time>2015-08-22T20:49:41Z</time>
      </trkpt>
      <trkpt lat="45.26856" lon="5.78016">
        <ele>1169.6</ele>
        <time>2015-08-22T20:49:48Z</time>
      </trkpt>
      <trkpt lat="45.26859" lon="5.7802">
        <ele>1169.7</ele>
        <time>2015-08-22T20:49:51Z</time>
      </trkpt>
      <trkpt lat="45.26862" lon="5.78021">
        <ele>1170.8</ele>
        <time>2015-08-22T20:49:53Z</time>
      </trkpt>
      <trkpt lat="45.26866" lon="5.78022">
        <ele>1171.7</ele>
        <time>2015-08-22T20:49:56Z</time>
      </trkpt>
      <trkpt lat="45.26867" lon="5.78024">
        <ele>1171.1</ele>
        <time>2015-08-22T20:49:57Z</time>
      </trkpt>
      <trkpt lat="45.26869" lon="5.78027">
        <ele>1171</ele>
        <time>2015-08-22T20:49:59Z</time>
      </trkpt>
      <trkpt lat="45.26874" lon="5.78031">
        <ele>1171.6</ele>
        <time>2015-08-22T20:50:03Z</time>
      </trkpt>
      <trkpt lat="45.26877" lon="5.78032">
        <ele>1171.7</ele>
        <time>2015-08-22T20:50:05Z</time>
      </trkpt>
      <trkpt lat="45.26879" lon="5.78034">
        <ele>1171.3</ele>
        <time>2015-08-22T20:50:07Z</time>
      </trkpt>
      <trkpt lat="45.26883" lon="5.78041">
        <ele>1169.4</ele>
        <time>2015-08-22T20:50:12Z</time>
      </trkpt>
      <trkpt lat="45.26884" lon="5.78045">
        <ele>1168.3</ele>
        <time>2015-08-22T20:50:14Z</time>
      </trkpt>
      <trkpt lat="45.26884" lon="5.78049">
        <ele>1166.9</ele>
        <time>2015-08-22T20:50:16Z</time>
      </trkpt>
      <trkpt lat="45.26885" lon="5.78055">
        <ele>1165.4</ele>
        <time>2015-08-22T20:50:19Z</time>
      </trkpt>
      <trkpt lat="45.26888" lon="5.78064">
        <ele>1163.2</ele>
        <time>2015-08-22T20:50:25Z</time>
      </trkpt>
      <trkpt lat="45.26889" lon="5.78069">
        <ele>1162.2</ele>
        <time>2015-08-22T20:50:28Z</time>
      </trkpt>
      <trkpt lat="45.2689" lon="5.7807">
        <ele>1161.8</ele>
        <time>2015-08-22T20:50:30Z</time>
      </trkpt>
      <trkpt lat="45.2689" lon="5.78077">
        <ele>1159.9</ele>
        <time>2015-08-22T20:50:35Z</time>
      </trkpt>
      <trkpt lat="45.26889" lon="5.7808">
        <ele>1159.1</ele>
        <time>2015-08-22T20:50:36Z</time>
      </trkpt>
      <trkpt lat="45.26886" lon="5.78089">
        <ele>1156.1</ele>
        <time>2015-08-22T20:50:40Z</time>
      </trkpt>
      <trkpt lat="45.26883" lon="5.78098">
        <ele>1153.1</ele>
        <time>2015-08-22T20:50:46Z</time>
      </trkpt>
      <trkpt lat="45.26881" lon="5.78107">
        <ele>1150.2</ele>
        <time>2015-08-22T20:50:52Z</time>
      </trkpt>
      <trkpt lat="45.2688" lon="5.78109">
        <ele>1149.6</ele>
        <time>2015-08-22T20:50:53Z</time>
      </trkpt>
      <trkpt lat="45.26879" lon="5.78115">
        <ele>1147.5</ele>
        <time>2015-08-22T20:50:56Z</time>
      </trkpt>
      <trkpt lat="45.26878" lon="5.78116">
        <ele>1147</ele>
        <time>2015-08-22T20:50:57Z</time>
      </trkpt>
      <trkpt lat="45.26873" lon="5.78121">
        <ele>1144.7</ele>
        <time>2015-08-22T20:51:01Z</time>
      </trkpt>
      <trkpt lat="45.26873" lon="5.78122">
        <ele>1143.9</ele>
        <time>2015-08-22T20:51:02Z</time>
      </trkpt>
      <trkpt lat="45.26871" lon="5.78124">
        <ele>1142.8</ele>
        <time>2015-08-22T20:51:03Z</time>
      </trkpt>
      <trkpt lat="45.2687" lon="5.78135">
        <ele>1140.6</ele>
        <time>2015-08-22T20:51:09Z</time>
      </trkpt>
      <trkpt lat="45.26862" lon="5.78141">
        <ele>1136.9</ele>
        <time>2015-08-22T20:51:15Z</time>
      </trkpt>
      <trkpt lat="45.26853" lon="5.78143">
        <ele>1133.4</ele>
        <time>2015-08-22T20:51:20Z</time>
      </trkpt>
      <trkpt lat="45.26846" lon="5.78148">
        <ele>1130.3</ele>
        <time>2015-08-22T20:51:25Z</time>
      </trkpt>
      <trkpt lat="45.26836" lon="5.78153">
        <ele>1126.6</ele>
        <time>2015-08-22T20:51:31Z</time>
      </trkpt>
      <trkpt lat="45.2683" lon="5.78156">
        <ele>1124.3</ele>
        <time>2015-08-22T20:51:35Z</time>
      </trkpt>
      <trkpt lat="45.26818" lon="5.78161">
        <ele>1120.1</ele>
        <time>2015-08-22T20:51:40Z</time>
      </trkpt>
      <trkpt lat="45.26805" lon="5.78169">
        <ele>1115.4</ele>
        <time>2015-08-22T20:51:47Z</time>
      </trkpt>
      <trkpt lat="45.26794" lon="5.78172">
        <ele>1112</ele>
        <time>2015-08-22T20:51:53Z</time>
      </trkpt>
      <trkpt lat="45.26783" lon="5.78173">
        <ele>1109.3</ele>
        <time>2015-08-22T20:51:58Z</time>
      </trkpt>
      <trkpt lat="45.26771" lon="5.78179">
        <ele>1106.3</ele>
        <time>2015-08-22T20:52:04Z</time>
      </trkpt>
      <trkpt lat="45.26764" lon="5.78188">
        <ele>1104.5</ele>
        <time>2015-08-22T20:52:09Z</time>
      </trkpt>
      <trkpt lat="45.26765" lon="5.7819">
        <ele>1104.7</ele>
        <time>2015-08-22T20:52:10Z</time>
      </trkpt>
      <trkpt lat="45.26771" lon="5.78202">
        <ele>1105.4</ele>
        <time>2015-08-22T20:52:15Z</time>
      </trkpt>
      <trkpt lat="45.26772" lon="5.78205">
        <ele>1105.3</ele>
        <time>2015-08-22T20:52:16Z</time>
      </trkpt>
      <trkpt lat="45.26775" lon="5.78216">
        <ele>1105.7</ele>
        <time>2015-08-22T20:52:21Z</time>
      </trkpt>
      <trkpt lat="45.26778" lon="5.78231">
        <ele>1106.1</ele>
        <time>2015-08-22T20:52:27Z</time>
      </trkpt>
      <trkpt lat="45.26778" lon="5.78236">
        <ele>1106.2</ele>
        <time>2015-08-22T20:52:29Z</time>
      </trkpt>
      <trkpt lat="45.26782" lon="5.78241">
        <ele>1106.8</ele>
        <time>2015-08-22T20:52:31Z</time>
      </trkpt>
      <trkpt lat="45.26789" lon="5.78251">
        <ele>1108</ele>
        <time>2015-08-22T20:52:37Z</time>
      </trkpt>
      <trkpt lat="45.26794" lon="5.78259">
        <ele>1108.9</ele>
        <time>2015-08-22T20:52:43Z</time>
      </trkpt>
      <trkpt lat="45.26801" lon="5.78269">
        <ele>1110.3</ele>
        <time>2015-08-22T20:52:51Z</time>
      </trkpt>
      <trkpt lat="45.26804" lon="5.78275">
        <ele>1110.9</ele>
        <time>2015-08-22T20:52:56Z</time>
      </trkpt>
      <trkpt lat="45.26804" lon="5.78277">
        <ele>1110.9</ele>
        <time>2015-08-22T20:52:57Z</time>
      </trkpt>
      <trkpt lat="45.26807" lon="5.7829">
        <ele>1111.1</ele>
        <time>2015-08-22T20:53:04Z</time>
      </trkpt>
      <trkpt lat="45.26811" lon="5.78299">
        <ele>1112.1</ele>
        <time>2015-08-22T20:53:10Z</time>
      </trkpt>
      <trkpt lat="45.26813" lon="5.78303">
        <ele>1112.5</ele>
        <time>2015-08-22T20:53:13Z</time>
      </trkpt>
      <trkpt lat="45.26814" lon="5.78307">
        <ele>1112.7</ele>
        <time>2015-08-22T20:53:15Z</time>
      </trkpt>
      <trkpt lat="45.26816" lon="5.7831">
        <ele>1113</ele>
        <time>2015-08-22T20:53:17Z</time>
      </trkpt>
      <trkpt lat="45.26819" lon="5.78315">
        <ele>1113.7</ele>
        <time>2015-08-22T20:53:21Z</time>
      </trkpt>
      <trkpt lat="45.26822" lon="5.78319">
        <ele>1114.4</ele>
        <time>2015-08-22T20:53:24Z</time>
      </trkpt>
      <trkpt lat="45.26826" lon="5.78323">
        <ele>1115.3</ele>
        <time>2015-08-22T20:53:27Z</time>
      </trkpt>
      <trkpt lat="45.26829" lon="5.78327">
        <ele>1115.9</ele>
        <time>2015-08-22T20:53:30Z</time>
      </trkpt>
      <trkpt lat="45.26831" lon="5.7833">
        <ele>1116.5</ele>
        <time>2015-08-22T20:53:33Z</time>
      </trkpt>
      <trkpt lat="45.26835" lon="5.78336">
        <ele>1117.4</ele>
        <time>2015-08-22T20:53:37Z</time>
      </trkpt>
      <trkpt lat="45.2684" lon="5.78346">
        <ele>1118.7</ele>
        <time>2015-08-22T20:53:44Z</time>
      </trkpt>
      <trkpt lat="45.26843" lon="5.78351">
        <ele>1119.3</ele>
        <time>2015-08-22T20:53:47Z</time>
      </trkpt>
      <trkpt lat="45.26845" lon="5.78353">
        <ele>1119.9</ele>
        <time>2015-08-22T20:53:49Z</time>
      </trkpt>
      <trkpt lat="45.26849" lon="5.78364">
        <ele>1121</ele>
        <time>2015-08-22T20:53:56Z</time>
      </trkpt>
      <trkpt lat="45.26854" lon="5.7837">
        <ele>1122.2</ele>
        <time>2015-08-22T20:54:01Z</time>
      </trkpt>
      <trkpt lat="45.26857" lon="5.7838">
        <ele>1122.8</ele>
        <time>2015-08-22T20:54:07Z</time>
      </trkpt>
      <trkpt lat="45.26865" lon="5.78388">
        <ele>1124.4</ele>
        <time>2015-08-22T20:54:14Z</time>
      </trkpt>
      <trkpt lat="45.26871" lon="5.78396">
        <ele>1125.5</ele>
        <time>2015-08-22T20:54:20Z</time>
      </trkpt>
      <trkpt lat="45.26877" lon="5.78407">
        <ele>1126.3</ele>
        <time>2015-08-22T20:54:28Z</time>
      </trkpt>
      <trkpt lat="45.26883" lon="5.78415">
        <ele>1127.2</ele>
        <time>2015-08-22T20:54:35Z</time>
      </trkpt>
      <trkpt lat="45.26886" lon="5.78419">
        <ele>1127.5</ele>
        <time>2015-08-22T20:54:38Z</time>
      </trkpt>
      <trkpt lat="45.26889" lon="5.78422">
        <ele>1128</ele>
        <time>2015-08-22T20:54:41Z</time>
      </trkpt>
      <trkpt lat="45.26891" lon="5.78425">
        <ele>1128.1</ele>
        <time>2015-08-22T20:54:43Z</time>
      </trkpt>
      <trkpt lat="45.26895" lon="5.78432">
        <ele>1128.5</ele>
        <time>2015-08-22T20:54:48Z</time>
      </trkpt>
      <trkpt lat="45.26899" lon="5.78439">
        <ele>1128.9</ele>
        <time>2015-08-22T20:54:54Z</time>
      </trkpt>
      <trkpt lat="45.26904" lon="5.78444">
        <ele>1129.4</ele>
        <time>2015-08-22T20:54:58Z</time>
      </trkpt>
      <trkpt lat="45.26906" lon="5.78447">
        <ele>1129.6</ele>
        <time>2015-08-22T20:55:01Z</time>
      </trkpt>
      <trkpt lat="45.26912" lon="5.78458">
        <ele>1129.7</ele>
        <time>2015-08-22T20:55:08Z</time>
      </trkpt>
      <trkpt lat="45.26914" lon="5.78462">
        <ele>1130.4</ele>
        <time>2015-08-22T20:55:11Z</time>
      </trkpt>
      <trkpt lat="45.26916" lon="5.78465">
        <ele>1130.8</ele>
        <time>2015-08-22T20:55:13Z</time>
      </trkpt>
      <trkpt lat="45.26917" lon="5.78468">
        <ele>1131.2</ele>
        <time>2015-08-22T20:55:15Z</time>
      </trkpt>
      <trkpt lat="45.26921" lon="5.78475">
        <ele>1132.3</ele>
        <time>2015-08-22T20:55:20Z</time>
      </trkpt>
      <trkpt lat="45.26925" lon="5.78486">
        <ele>1133.5</ele>
        <time>2015-08-22T20:55:27Z</time>
      </trkpt>
      <trkpt lat="45.26929" lon="5.78495">
        <ele>1134.7</ele>
        <time>2015-08-22T20:55:33Z</time>
      </trkpt>
      <trkpt lat="45.26934" lon="5.78506">
        <ele>1136</ele>
        <time>2015-08-22T20:55:40Z</time>
      </trkpt>
      <trkpt lat="45.2694" lon="5.78517">
        <ele>1137.5</ele>
        <time>2015-08-22T20:55:48Z</time>
      </trkpt>
      <trkpt lat="45.26947" lon="5.78526">
        <ele>1138.8</ele>
        <time>2015-08-22T20:55:55Z</time>
      </trkpt>
      <trkpt lat="45.26952" lon="5.78533">
        <ele>1139.8</ele>
        <time>2015-08-22T20:56:01Z</time>
      </trkpt>
      <trkpt lat="45.26952" lon="5.78535">
        <ele>1139.8</ele>
        <time>2015-08-22T20:56:02Z</time>
      </trkpt>
      <trkpt lat="45.26958" lon="5.78537">
        <ele>1140.7</ele>
        <time>2015-08-22T20:56:05Z</time>
      </trkpt>
      <trkpt lat="45.26964" lon="5.7854">
        <ele>1142</ele>
        <time>2015-08-22T20:56:10Z</time>
      </trkpt>
      <trkpt lat="45.26968" lon="5.78542">
        <ele>1142.6</ele>
        <time>2015-08-22T20:56:14Z</time>
      </trkpt>
      <trkpt lat="45.2697" lon="5.78544">
        <ele>1143.6</ele>
        <time>2015-08-22T20:56:17Z</time>
      </trkpt>
      <trkpt lat="45.26971" lon="5.78548">
        <ele>1144.7</ele>
        <time>2015-08-22T20:56:19Z</time>
      </trkpt>
      <trkpt lat="45.26975" lon="5.78552">
        <ele>1146.2</ele>
        <time>2015-08-22T20:56:23Z</time>
      </trkpt>
      <trkpt lat="45.26978" lon="5.78555">
        <ele>1147.4</ele>
        <time>2015-08-22T20:56:25Z</time>
      </trkpt>
      <trkpt lat="45.26978" lon="5.78557">
        <ele>1147.8</ele>
        <time>2015-08-22T20:56:26Z</time>
      </trkpt>
      <trkpt lat="45.2698" lon="5.78566">
        <ele>1150.2</ele>
        <time>2015-08-22T20:56:31Z</time>
      </trkpt>
      <trkpt lat="45.2698" lon="5.78573">
        <ele>1152</ele>
        <time>2015-08-22T20:56:37Z</time>
      </trkpt>
      <trkpt lat="45.26978" lon="5.78579">
        <ele>1153.2</ele>
        <time>2015-08-22T20:56:41Z</time>
      </trkpt>
      <trkpt lat="45.26977" lon="5.78585">
        <ele>1154.3</ele>
        <time>2015-08-22T20:56:46Z</time>
      </trkpt>
      <trkpt lat="45.26977" lon="5.78586">
        <ele>1154.6</ele>
        <time>2015-08-22T20:56:47Z</time>
      </trkpt>
      <trkpt lat="45.26976" lon="5.78587">
        <ele>1154.7</ele>
        <time>2015-08-22T20:56:51Z</time>
      </trkpt>
      <trkpt lat="45.26971" lon="5.78588">
        <ele>1154.2</ele>
        <time>2015-08-22T20:56:56Z</time>
      </trkpt>
      <trkpt lat="45.26965" lon="5.78589">
        <ele>1153.9</ele>
        <time>2015-08-22T20:57:02Z</time>
      </trkpt>
      <trkpt lat="45.2696" lon="5.78587">
        <ele>1152.6</ele>
        <time>2015-08-22T20:57:09Z</time>
      </trkpt>
      <trkpt lat="45.26952" lon="5.78591">
        <ele>1153.1</ele>
        <time>2015-08-22T20:57:15Z</time>
      </trkpt>
      <trkpt lat="45.26947" lon="5.78597">
        <ele>1154.5</ele>
        <time>2015-08-22T20:57:20Z</time>
      </trkpt>
      <trkpt lat="45.2694" lon="5.78599">
        <ele>1155</ele>
        <time>2015-08-22T20:57:25Z</time>
      </trkpt>
      <trkpt lat="45.26935" lon="5.786">
        <ele>1155</ele>
        <time>2015-08-22T20:57:29Z</time>
      </trkpt>
      <trkpt lat="45.26928" lon="5.78604">
        <ele>1156.1</ele>
        <time>2015-08-22T20:57:35Z</time>
      </trkpt>
      <trkpt lat="45.26922" lon="5.78608">
        <ele>1157.1</ele>
        <time>2015-08-22T20:57:40Z</time>
      </trkpt>
      <trkpt lat="45.26914" lon="5.78612">
        <ele>1158.2</ele>
        <time>2015-08-22T20:57:46Z</time>
      </trkpt>
      <trkpt lat="45.26912" lon="5.78612">
        <ele>1158.2</ele>
        <time>2015-08-22T20:57:48Z</time>
      </trkpt>
      <trkpt lat="45.26908" lon="5.78612">
        <ele>1158.2</ele>
        <time>2015-08-22T20:57:52Z</time>
      </trkpt>
      <trkpt lat="45.26901" lon="5.78619">
        <ele>1160.6</ele>
        <time>2015-08-22T20:57:58Z</time>
      </trkpt>
      <trkpt lat="45.26897" lon="5.78623">
        <ele>1161.9</ele>
        <time>2015-08-22T20:58:02Z</time>
      </trkpt>
      <trkpt lat="45.26895" lon="5.78625">
        <ele>1162.9</ele>
        <time>2015-08-22T20:58:04Z</time>
      </trkpt>
      <trkpt lat="45.26892" lon="5.78631">
        <ele>1164.6</ele>
        <time>2015-08-22T20:58:07Z</time>
      </trkpt>
      <trkpt lat="45.26888" lon="5.78635">
        <ele>1165.7</ele>
        <time>2015-08-22T20:58:11Z</time>
      </trkpt>
      <trkpt lat="45.26881" lon="5.78637">
        <ele>1166.3</ele>
        <time>2015-08-22T20:58:18Z</time>
      </trkpt>
      <trkpt lat="45.2688" lon="5.78637">
        <ele>1166.3</ele>
        <time>2015-08-22T20:58:19Z</time>
      </trkpt>
      <trkpt lat="45.26878" lon="5.78637">
        <ele>1166.3</ele>
        <time>2015-08-22T20:58:23Z</time>
      </trkpt>
      <trkpt lat="45.26873" lon="5.78638">
        <ele>1166.5</ele>
        <time>2015-08-22T20:58:28Z</time>
      </trkpt>
      <trkpt lat="45.26869" lon="5.78635">
        <ele>1165.6</ele>
        <time>2015-08-22T20:58:31Z</time>
      </trkpt>
      <trkpt lat="45.26868" lon="5.78637">
        <ele>1165.8</ele>
        <time>2015-08-22T20:58:33Z</time>
      </trkpt>
      <trkpt lat="45.26867" lon="5.78638">
        <ele>1166</ele>
        <time>2015-08-22T20:58:36Z</time>
      </trkpt>
      <trkpt lat="45.26866" lon="5.78638">
        <ele>1166.1</ele>
        <time>2015-08-22T20:58:37Z</time>
      </trkpt>
      <trkpt lat="45.2686" lon="5.78641">
        <ele>1166.7</ele>
        <time>2015-08-22T20:58:42Z</time>
      </trkpt>
      <trkpt lat="45.26857" lon="5.78646">
        <ele>1167.8</ele>
        <time>2015-08-22T20:58:47Z</time>
      </trkpt>
      <trkpt lat="45.26856" lon="5.78651">
        <ele>1169</ele>
        <time>2015-08-22T20:58:51Z</time>
      </trkpt>
      <trkpt lat="45.2685" lon="5.78653">
        <ele>1169.3</ele>
        <time>2015-08-22T20:58:56Z</time>
      </trkpt>
      <trkpt lat="45.26845" lon="5.78658">
        <ele>1170.4</ele>
        <time>2015-08-22T20:59:02Z</time>
      </trkpt>
      <trkpt lat="45.26835" lon="5.78666">
        <ele>1171.8</ele>
        <time>2015-08-22T20:59:12Z</time>
      </trkpt>
      <trkpt lat="45.26828" lon="5.78666">
        <ele>1171.6</ele>
        <time>2015-08-22T20:59:19Z</time>
      </trkpt>
      <trkpt lat="45.26828" lon="5.78672">
        <ele>1173</ele>
        <time>2015-08-22T20:59:24Z</time>
      </trkpt>
      <trkpt lat="45.26821" lon="5.78678">
        <ele>1174.3</ele>
        <time>2015-08-22T20:59:30Z</time>
      </trkpt>
      <trkpt lat="45.26813" lon="5.78688">
        <ele>1176.3</ele>
        <time>2015-08-22T20:59:38Z</time>
      </trkpt>
      <trkpt lat="45.26811" lon="5.78692">
        <ele>1177.3</ele>
        <time>2015-08-22T20:59:41Z</time>
      </trkpt>
      <trkpt lat="45.2681" lon="5.78693">
        <ele>1177.4</ele>
        <time>2015-08-22T20:59:43Z</time>
      </trkpt>
      <trkpt lat="45.26807" lon="5.78695">
        <ele>1177.8</ele>
        <time>2015-08-22T20:59:47Z</time>
      </trkpt>
      <trkpt lat="45.26804" lon="5.78693">
        <ele>1177</ele>
        <time>2015-08-22T20:59:50Z</time>
      </trkpt>
      <trkpt lat="45.26799" lon="5.78689">
        <ele>1175.6</ele>
        <time>2015-08-22T20:59:55Z</time>
      </trkpt>
      <trkpt lat="45.26795" lon="5.78687">
        <ele>1174.8</ele>
        <time>2015-08-22T20:59:58Z</time>
      </trkpt>
      <trkpt lat="45.26793" lon="5.78686">
        <ele>1174.4</ele>
        <time>2015-08-22T20:59:59Z</time>
      </trkpt>
      <trkpt lat="45.26781" lon="5.78677">
        <ele>1171.1</ele>
        <time>2015-08-22T21:00:05Z</time>
      </trkpt>
      <trkpt lat="45.26776" lon="5.78672">
        <ele>1169.6</ele>
        <time>2015-08-22T21:00:09Z</time>
      </trkpt>
      <trkpt lat="45.26775" lon="5.7867">
        <ele>1169</ele>
        <time>2015-08-22T21:00:10Z</time>
      </trkpt>
      <trkpt lat="45.26769" lon="5.78665">
        <ele>1167.7</ele>
        <time>2015-08-22T21:00:14Z</time>
      </trkpt>
      <trkpt lat="45.26765" lon="5.78663">
        <ele>1167</ele>
        <time>2015-08-22T21:00:16Z</time>
      </trkpt>
      <trkpt lat="45.26757" lon="5.78657">
        <ele>1165.7</ele>
        <time>2015-08-22T21:00:21Z</time>
      </trkpt>
      <trkpt lat="45.26757" lon="5.78657">
        <ele>1165.7</ele>
        <time>2015-08-22T21:00:23Z</time>
      </trkpt>
      <trkpt lat="45.26755" lon="5.78656">
        <ele>1165.5</ele>
        <time>2015-08-22T21:00:25Z</time>
      </trkpt>
      <trkpt lat="45.26749" lon="5.78654">
        <ele>1165</ele>
        <time>2015-08-22T21:00:29Z</time>
      </trkpt>
      <trkpt lat="45.26748" lon="5.78653">
        <ele>1164.9</ele>
        <time>2015-08-22T21:00:30Z</time>
      </trkpt>
      <trkpt lat="45.26739" lon="5.78649">
        <ele>1164.1</ele>
        <time>2015-08-22T21:00:34Z</time>
      </trkpt>
      <trkpt lat="45.26737" lon="5.78648">
        <ele>1164</ele>
        <time>2015-08-22T21:00:35Z</time>
      </trkpt>
      <trkpt lat="45.26726" lon="5.78644">
        <ele>1163.5</ele>
        <time>2015-08-22T21:00:41Z</time>
      </trkpt>
      <trkpt lat="45.2672" lon="5.78639">
        <ele>1163.2</ele>
        <time>2015-08-22T21:00:44Z</time>
      </trkpt>
      <trkpt lat="45.26719" lon="5.78638">
        <ele>1163.2</ele>
        <time>2015-08-22T21:00:45Z</time>
      </trkpt>
      <trkpt lat="45.2671" lon="5.78632">
        <ele>1163.1</ele>
        <time>2015-08-22T21:00:50Z</time>
      </trkpt>
      <trkpt lat="45.26702" lon="5.78622">
        <ele>1161</ele>
        <time>2015-08-22T21:00:56Z</time>
      </trkpt>
      <trkpt lat="45.26694" lon="5.78611">
        <ele>1156.4</ele>
        <time>2015-08-22T21:01:01Z</time>
      </trkpt>
      <trkpt lat="45.26688" lon="5.78606">
        <ele>1154.1</ele>
        <time>2015-08-22T21:01:04Z</time>
      </trkpt>
      <trkpt lat="45.26686" lon="5.78604">
        <ele>1153.5</ele>
        <time>2015-08-22T21:01:06Z</time>
      </trkpt>
      <trkpt lat="45.2668" lon="5.786">
        <ele>1151.7</ele>
        <time>2015-08-22T21:01:11Z</time>
      </trkpt>
      <trkpt lat="45.26678" lon="5.78596">
        <ele>1150.5</ele>
        <time>2015-08-22T21:01:15Z</time>
      </trkpt>
      <trkpt lat="45.26675" lon="5.78594">
        <ele>1149.7</ele>
        <time>2015-08-22T21:01:18Z</time>
      </trkpt>
      <trkpt lat="45.26671" lon="5.78592">
        <ele>1148.7</ele>
        <time>2015-08-22T21:01:21Z</time>
      </trkpt>
      <trkpt lat="45.26668" lon="5.78589">
        <ele>1147.9</ele>
        <time>2015-08-22T21:01:24Z</time>
      </trkpt>
      <trkpt lat="45.26666" lon="5.78588">
        <ele>1147.4</ele>
        <time>2015-08-22T21:01:26Z</time>
      </trkpt>
      <trkpt lat="45.26664" lon="5.78586">
        <ele>1146.8</ele>
        <time>2015-08-22T21:01:29Z</time>
      </trkpt>
      <trkpt lat="45.26663" lon="5.78584">
        <ele>1146.2</ele>
        <time>2015-08-22T21:01:30Z</time>
      </trkpt>
      <trkpt lat="45.26658" lon="5.78576">
        <ele>1144.3</ele>
        <time>2015-08-22T21:01:34Z</time>
      </trkpt>
      <trkpt lat="45.26647" lon="5.78566">
        <ele>1141.9</ele>
        <time>2015-08-22T21:01:40Z</time>
      </trkpt>
      <trkpt lat="45.26646" lon="5.78566">
        <ele>1141.7</ele>
        <time>2015-08-22T21:01:41Z</time>
      </trkpt>
      <trkpt lat="45.26639" lon="5.78557">
        <ele>1140.2</ele>
        <time>2015-08-22T21:01:45Z</time>
      </trkpt>
      <trkpt lat="45.26635" lon="5.78556">
        <ele>1139.9</ele>
        <time>2015-08-22T21:01:47Z</time>
      </trkpt>
      <trkpt lat="45.26629" lon="5.78552">
        <ele>1139.2</ele>
        <time>2015-08-22T21:01:50Z</time>
      </trkpt>
      <trkpt lat="45.2662" lon="5.78546">
        <ele>1137.8</ele>
        <time>2015-08-22T21:01:56Z</time>
      </trkpt>
      <trkpt lat="45.26617" lon="5.78545">
        <ele>1137.3</ele>
        <time>2015-08-22T21:01:59Z</time>
      </trkpt>
      <trkpt lat="45.26616" lon="5.78542">
        <ele>1136.8</ele>
        <time>2015-08-22T21:02:01Z</time>
      </trkpt>
      <trkpt lat="45.26615" lon="5.78536">
        <ele>1135.6</ele>
        <time>2015-08-22T21:02:03Z</time>
      </trkpt>
      <trkpt lat="45.26613" lon="5.78532">
        <ele>1134.8</ele>
        <time>2015-08-22T21:02:05Z</time>
      </trkpt>
      <trkpt lat="45.26612" lon="5.7853">
        <ele>1134.4</ele>
        <time>2015-08-22T21:02:06Z</time>
      </trkpt>
      <trkpt lat="45.26609" lon="5.78527">
        <ele>1133.7</ele>
        <time>2015-08-22T21:02:09Z</time>
      </trkpt>
      <trkpt lat="45.26606" lon="5.78523">
        <ele>1132.6</ele>
        <time>2015-08-22T21:02:13Z</time>
      </trkpt>
      <trkpt lat="45.266" lon="5.7851">
        <ele>1130.2</ele>
        <time>2015-08-22T21:02:19Z</time>
      </trkpt>
      <trkpt lat="45.26594" lon="5.785">
        <ele>1128.3</ele>
        <time>2015-08-22T21:02:25Z</time>
      </trkpt>
      <trkpt lat="45.26592" lon="5.78498">
        <ele>1127.9</ele>
        <time>2015-08-22T21:02:27Z</time>
      </trkpt>
      <trkpt lat="45.26588" lon="5.78497">
        <ele>1127.5</ele>
        <time>2015-08-22T21:02:29Z</time>
      </trkpt>
      <trkpt lat="45.26584" lon="5.78496">
        <ele>1127.1</ele>
        <time>2015-08-22T21:02:31Z</time>
      </trkpt>
      <trkpt lat="45.26573" lon="5.78491">
        <ele>1125.8</ele>
        <time>2015-08-22T21:02:37Z</time>
      </trkpt>
      <trkpt lat="45.26561" lon="5.78487">
        <ele>1124.8</ele>
        <time>2015-08-22T21:02:43Z</time>
      </trkpt>
      <trkpt lat="45.26555" lon="5.78485">
        <ele>1124.3</ele>
        <time>2015-08-22T21:02:46Z</time>
      </trkpt>
      <trkpt lat="45.26549" lon="5.78481">
        <ele>1123.7</ele>
        <time>2015-08-22T21:02:49Z</time>
      </trkpt>
      <trkpt lat="45.26547" lon="5.78479">
        <ele>1123.5</ele>
        <time>2015-08-22T21:02:50Z</time>
      </trkpt>
      <trkpt lat="45.26539" lon="5.78472">
        <ele>1122.4</ele>
        <time>2015-08-22T21:02:56Z</time>
      </trkpt>
      <trkpt lat="45.26536" lon="5.7847">
        <ele>1121.7</ele>
        <time>2015-08-22T21:02:59Z</time>
      </trkpt>
      <trkpt lat="45.26531" lon="5.78465">
        <ele>1120.5</ele>
        <time>2015-08-22T21:03:02Z</time>
      </trkpt>
      <trkpt lat="45.26523" lon="5.78456">
        <ele>1118.3</ele>
        <time>2015-08-22T21:03:08Z</time>
      </trkpt>
      <trkpt lat="45.26523" lon="5.78455">
        <ele>1118</ele>
        <time>2015-08-22T21:03:09Z</time>
      </trkpt>
      <trkpt lat="45.26519" lon="5.78449">
        <ele>1116.6</ele>
        <time>2015-08-22T21:03:13Z</time>
      </trkpt>
      <trkpt lat="45.26514" lon="5.78437">
        <ele>1114</ele>
        <time>2015-08-22T21:03:18Z</time>
      </trkpt>
      <trkpt lat="45.26509" lon="5.78432">
        <ele>1112.7</ele>
        <time>2015-08-22T21:03:21Z</time>
      </trkpt>
      <trkpt lat="45.26505" lon="5.78429">
        <ele>1111.7</ele>
        <time>2015-08-22T21:03:24Z</time>
      </trkpt>
      <trkpt lat="45.26502" lon="5.78425">
        <ele>1111</ele>
        <time>2015-08-22T21:03:26Z</time>
      </trkpt>
      <trkpt lat="45.26498" lon="5.78419">
        <ele>1109.9</ele>
        <time>2015-08-22T21:03:29Z</time>
      </trkpt>
      <trkpt lat="45.26495" lon="5.78414">
        <ele>1109</ele>
        <time>2015-08-22T21:03:33Z</time>
      </trkpt>
      <trkpt lat="45.26488" lon="5.78398">
        <ele>1107</ele>
        <time>2015-08-22T21:03:40Z</time>
      </trkpt>
      <trkpt lat="45.2648" lon="5.78387">
        <ele>1105.8</ele>
        <time>2015-08-22T21:03:45Z</time>
      </trkpt>
      <trkpt lat="45.26479" lon="5.78385">
        <ele>1105.6</ele>
        <time>2015-08-22T21:03:46Z</time>
      </trkpt>
      <trkpt lat="45.26471" lon="5.78369">
        <ele>1104.5</ele>
        <time>2015-08-22T21:03:53Z</time>
      </trkpt>
      <trkpt lat="45.26463" lon="5.78358">
        <ele>1103.8</ele>
        <time>2015-08-22T21:04:01Z</time>
      </trkpt>
      <trkpt lat="45.2646" lon="5.78353">
        <ele>1103.6</ele>
        <time>2015-08-22T21:04:03Z</time>
      </trkpt>
      <trkpt lat="45.26453" lon="5.78348">
        <ele>1102.7</ele>
        <time>2015-08-22T21:04:06Z</time>
      </trkpt>
      <trkpt lat="45.2645" lon="5.78346">
        <ele>1102.1</ele>
        <time>2015-08-22T21:04:08Z</time>
      </trkpt>
      <trkpt lat="45.26441" lon="5.78341">
        <ele>1100.6</ele>
        <time>2015-08-22T21:04:13Z</time>
      </trkpt>
      <trkpt lat="45.26426" lon="5.78328">
        <ele>1098</ele>
        <time>2015-08-22T21:04:20Z</time>
      </trkpt>
      <trkpt lat="45.26416" lon="5.78321">
        <ele>1096.3</ele>
        <time>2015-08-22T21:04:26Z</time>
      </trkpt>
      <trkpt lat="45.26409" lon="5.78318">
        <ele>1095.3</ele>
        <time>2015-08-22T21:04:29Z</time>
      </trkpt>
      <trkpt lat="45.26407" lon="5.78315">
        <ele>1094.9</ele>
        <time>2015-08-22T21:04:30Z</time>
      </trkpt>
      <trkpt lat="45.26403" lon="5.7831">
        <ele>1094.2</ele>
        <time>2015-08-22T21:04:33Z</time>
      </trkpt>
      <trkpt lat="45.26397" lon="5.78306">
        <ele>1093.2</ele>
        <time>2015-08-22T21:04:36Z</time>
      </trkpt>
      <trkpt lat="45.26393" lon="5.78304">
        <ele>1092.7</ele>
        <time>2015-08-22T21:04:38Z</time>
      </trkpt>
      <trkpt lat="45.26388" lon="5.78302">
        <ele>1092</ele>
        <time>2015-08-22T21:04:41Z</time>
      </trkpt>
      <trkpt lat="45.26385" lon="5.783">
        <ele>1091.6</ele>
        <time>2015-08-22T21:04:43Z</time>
      </trkpt>
      <trkpt lat="45.26379" lon="5.78295">
        <ele>1090.6</ele>
        <time>2015-08-22T21:04:47Z</time>
      </trkpt>
      <trkpt lat="45.26377" lon="5.78293">
        <ele>1090.3</ele>
        <time>2015-08-22T21:04:48Z</time>
      </trkpt>
      <trkpt lat="45.26375" lon="5.78291">
        <ele>1090</ele>
        <time>2015-08-22T21:04:49Z</time>
      </trkpt>
      <trkpt lat="45.2637" lon="5.78287">
        <ele>1088.8</ele>
        <time>2015-08-22T21:04:53Z</time>
      </trkpt>
      <trkpt lat="45.26365" lon="5.7828">
        <ele>1087.4</ele>
        <time>2015-08-22T21:04:58Z</time>
      </trkpt>
      <trkpt lat="45.26361" lon="5.78276">
        <ele>1086.4</ele>
        <time>2015-08-22T21:05:01Z</time>
      </trkpt>
      <trkpt lat="45.26354" lon="5.78274">
        <ele>1085.1</ele>
        <time>2015-08-22T21:05:05Z</time>
      </trkpt>
      <trkpt lat="45.26344" lon="5.78269">
        <ele>1083</ele>
        <time>2015-08-22T21:05:10Z</time>
      </trkpt>
      <trkpt lat="45.26339" lon="5.78265">
        <ele>1081.9</ele>
        <time>2015-08-22T21:05:13Z</time>
      </trkpt>
      <trkpt lat="45.26333" lon="5.7826">
        <ele>1080.7</ele>
        <time>2015-08-22T21:05:16Z</time>
      </trkpt>
      <trkpt lat="45.26325" lon="5.78255">
        <ele>1079.3</ele>
        <time>2015-08-22T21:05:19Z</time>
      </trkpt>
      <trkpt lat="45.26323" lon="5.78254">
        <ele>1078.9</ele>
        <time>2015-08-22T21:05:20Z</time>
      </trkpt>
      <trkpt lat="45.26316" lon="5.7825">
        <ele>1077.7</ele>
        <time>2015-08-22T21:05:25Z</time>
      </trkpt>
      <trkpt lat="45.26314" lon="5.78249">
        <ele>1077.3</ele>
        <time>2015-08-22T21:05:26Z</time>
      </trkpt>
      <trkpt lat="45.26304" lon="5.78243">
        <ele>1075.7</ele>
        <time>2015-08-22T21:05:32Z</time>
      </trkpt>
      <trkpt lat="45.26303" lon="5.78244">
        <ele>1075.6</ele>
        <time>2015-08-22T21:05:33Z</time>
      </trkpt>
      <trkpt lat="45.26297" lon="5.78239">
        <ele>1074.5</ele>
        <time>2015-08-22T21:05:38Z</time>
      </trkpt>
      <trkpt lat="45.26288" lon="5.78231">
        <ele>1072.9</ele>
        <time>2015-08-22T21:05:43Z</time>
      </trkpt>
      <trkpt lat="45.26283" lon="5.78229">
        <ele>1072.2</ele>
        <time>2015-08-22T21:05:46Z</time>
      </trkpt>
      <trkpt lat="45.2628" lon="5.78225">
        <ele>1071.6</ele>
        <time>2015-08-22T21:05:48Z</time>
      </trkpt>
      <trkpt lat="45.26275" lon="5.78221">
        <ele>1070.8</ele>
        <time>2015-08-22T21:05:51Z</time>
      </trkpt>
      <trkpt lat="45.26271" lon="5.78218">
        <ele>1070.2</ele>
        <time>2015-08-22T21:05:53Z</time>
      </trkpt>
      <trkpt lat="45.26265" lon="5.78212">
        <ele>1069.1</ele>
        <time>2015-08-22T21:05:57Z</time>
      </trkpt>
      <trkpt lat="45.26259" lon="5.7821">
        <ele>1068.4</ele>
        <time>2015-08-22T21:06:00Z</time>
      </trkpt>
      <trkpt lat="45.26256" lon="5.7821">
        <ele>1067.9</ele>
        <time>2015-08-22T21:06:02Z</time>
      </trkpt>
      <trkpt lat="45.26254" lon="5.7821">
        <ele>1067.7</ele>
        <time>2015-08-22T21:06:03Z</time>
      </trkpt>
      <trkpt lat="45.26245" lon="5.78209">
        <ele>1066.3</ele>
        <time>2015-08-22T21:06:07Z</time>
      </trkpt>
      <trkpt lat="45.26242" lon="5.78205">
        <ele>1065.5</ele>
        <time>2015-08-22T21:06:09Z</time>
      </trkpt>
      <trkpt lat="45.26236" lon="5.78201">
        <ele>1064.4</ele>
        <time>2015-08-22T21:06:12Z</time>
      </trkpt>
      <trkpt lat="45.26234" lon="5.78201">
        <ele>1064.1</ele>
        <time>2015-08-22T21:06:13Z</time>
      </trkpt>
      <trkpt lat="45.26227" lon="5.78198">
        <ele>1062.9</ele>
        <time>2015-08-22T21:06:17Z</time>
      </trkpt>
      <trkpt lat="45.26224" lon="5.78197">
        <ele>1062.3</ele>
        <time>2015-08-22T21:06:19Z</time>
      </trkpt>
      <trkpt lat="45.26218" lon="5.78195">
        <ele>1061.4</ele>
        <time>2015-08-22T21:06:23Z</time>
      </trkpt>
      <trkpt lat="45.26207" lon="5.78186">
        <ele>1059.4</ele>
        <time>2015-08-22T21:06:29Z</time>
      </trkpt>
      <trkpt lat="45.26196" lon="5.78175">
        <ele>1057.3</ele>
        <time>2015-08-22T21:06:34Z</time>
      </trkpt>
      <trkpt lat="45.26189" lon="5.78166">
        <ele>1056</ele>
        <time>2015-08-22T21:06:39Z</time>
      </trkpt>
      <trkpt lat="45.26182" lon="5.78159">
        <ele>1054.7</ele>
        <time>2015-08-22T21:06:44Z</time>
      </trkpt>
      <trkpt lat="45.26174" lon="5.78153">
        <ele>1053.6</ele>
        <time>2015-08-22T21:06:48Z</time>
      </trkpt>
      <trkpt lat="45.26172" lon="5.7815">
        <ele>1053.2</ele>
        <time>2015-08-22T21:06:49Z</time>
      </trkpt>
      <trkpt lat="45.26163" lon="5.78143">
        <ele>1052</ele>
        <time>2015-08-22T21:06:54Z</time>
      </trkpt>
      <trkpt lat="45.26154" lon="5.7814">
        <ele>1050.9</ele>
        <time>2015-08-22T21:06:59Z</time>
      </trkpt>
      <trkpt lat="45.26151" lon="5.78138">
        <ele>1050.7</ele>
        <time>2015-08-22T21:07:00Z</time>
      </trkpt>
      <trkpt lat="45.26145" lon="5.78132">
        <ele>1050</ele>
        <time>2015-08-22T21:07:03Z</time>
      </trkpt>
      <trkpt lat="45.26139" lon="5.78122">
        <ele>1049.1</ele>
        <time>2015-08-22T21:07:08Z</time>
      </trkpt>
      <trkpt lat="45.26137" lon="5.7812">
        <ele>1048.9</ele>
        <time>2015-08-22T21:07:09Z</time>
      </trkpt>
      <trkpt lat="45.26129" lon="5.78104">
        <ele>1047.2</ele>
        <time>2015-08-22T21:07:15Z</time>
      </trkpt>
      <trkpt lat="45.26123" lon="5.78092">
        <ele>1045.5</ele>
        <time>2015-08-22T21:07:22Z</time>
      </trkpt>
      <trkpt lat="45.26118" lon="5.78085">
        <ele>1044.2</ele>
        <time>2015-08-22T21:07:27Z</time>
      </trkpt>
      <trkpt lat="45.26112" lon="5.78071">
        <ele>1042.2</ele>
        <time>2015-08-22T21:07:33Z</time>
      </trkpt>
      <trkpt lat="45.26103" lon="5.78057">
        <ele>1040</ele>
        <time>2015-08-22T21:07:40Z</time>
      </trkpt>
      <trkpt lat="45.26101" lon="5.78049">
        <ele>1039.4</ele>
        <time>2015-08-22T21:07:43Z</time>
      </trkpt>
      <trkpt lat="45.26099" lon="5.78045">
        <ele>1039</ele>
        <time>2015-08-22T21:07:45Z</time>
      </trkpt>
      <trkpt lat="45.26094" lon="5.78035">
        <ele>1037.2</ele>
        <time>2015-08-22T21:07:51Z</time>
      </trkpt>
      <trkpt lat="45.26088" lon="5.78032">
        <ele>1035.7</ele>
        <time>2015-08-22T21:07:57Z</time>
      </trkpt>
      <trkpt lat="45.26087" lon="5.78038">
        <ele>1036.5</ele>
        <time>2015-08-22T21:08:03Z</time>
      </trkpt>
      <trkpt lat="45.26089" lon="5.78043">
        <ele>1037.4</ele>
        <time>2015-08-22T21:08:06Z</time>
      </trkpt>
      <trkpt lat="45.2609" lon="5.78044">
        <ele>1037.5</ele>
        <time>2015-08-22T21:08:07Z</time>
      </trkpt>
      <trkpt lat="45.26088" lon="5.78037">
        <ele>1036.5</ele>
        <time>2015-08-22T21:08:12Z</time>
      </trkpt>
      <trkpt lat="45.2609" lon="5.78025">
        <ele>1034.9</ele>
        <time>2015-08-22T21:08:54Z</time>
      </trkpt>
      <trkpt lat="45.26086" lon="5.78021">
        <ele>1033.7</ele>
        <time>2015-08-22T21:08:58Z</time>
      </trkpt>
      <trkpt lat="45.26083" lon="5.78019">
        <ele>1032.9</ele>
        <time>2015-08-22T21:09:02Z</time>
      </trkpt>
      <trkpt lat="45.26081" lon="5.78017">
        <ele>1032.4</ele>
        <time>2015-08-22T21:09:03Z</time>
      </trkpt>
      <trkpt lat="45.26074" lon="5.78012">
        <ele>1030.6</ele>
        <time>2015-08-22T21:09:09Z</time>
      </trkpt>
      <trkpt lat="45.26066" lon="5.78009">
        <ele>1029.1</ele>
        <time>2015-08-22T21:09:15Z</time>
      </trkpt>
      <trkpt lat="45.2606" lon="5.78006">
        <ele>1027.8</ele>
        <time>2015-08-22T21:09:19Z</time>
      </trkpt>
      <trkpt lat="45.26056" lon="5.78004">
        <ele>1027</ele>
        <time>2015-08-22T21:09:21Z</time>
      </trkpt>
      <trkpt lat="45.26053" lon="5.77999">
        <ele>1025.8</ele>
        <time>2015-08-22T21:09:23Z</time>
      </trkpt>
      <trkpt lat="45.26049" lon="5.77995">
        <ele>1024.7</ele>
        <time>2015-08-22T21:09:26Z</time>
      </trkpt>
      <trkpt lat="45.26042" lon="5.77987">
        <ele>1022.7</ele>
        <time>2015-08-22T21:09:31Z</time>
      </trkpt>
      <trkpt lat="45.26032" lon="5.77979">
        <ele>1020.4</ele>
        <time>2015-08-22T21:09:38Z</time>
      </trkpt>
      <trkpt lat="45.26023" lon="5.77968">
        <ele>1017.9</ele>
        <time>2015-08-22T21:09:44Z</time>
      </trkpt>
      <trkpt lat="45.2602" lon="5.77966">
        <ele>1017.3</ele>
        <time>2015-08-22T21:09:46Z</time>
      </trkpt>
      <trkpt lat="45.26017" lon="5.77964">
        <ele>1016.7</ele>
        <time>2015-08-22T21:09:49Z</time>
      </trkpt>
      <trkpt lat="45.26015" lon="5.77961">
        <ele>1016.2</ele>
        <time>2015-08-22T21:09:50Z</time>
      </trkpt>
      <trkpt lat="45.26005" lon="5.77947">
        <ele>1013.8</ele>
        <time>2015-08-22T21:09:56Z</time>
      </trkpt>
      <trkpt lat="45.25997" lon="5.77937">
        <ele>1012.4</ele>
        <time>2015-08-22T21:10:01Z</time>
      </trkpt>
      <trkpt lat="45.25994" lon="5.77933">
        <ele>1012</ele>
        <time>2015-08-22T21:10:05Z</time>
      </trkpt>
      <trkpt lat="45.25993" lon="5.77931">
        <ele>1011.8</ele>
        <time>2015-08-22T21:10:06Z</time>
      </trkpt>
      <trkpt lat="45.25992" lon="5.77929">
        <ele>1011.6</ele>
        <time>2015-08-22T21:10:07Z</time>
      </trkpt>
      <trkpt lat="45.25987" lon="5.7792">
        <ele>1010.9</ele>
        <time>2015-08-22T21:10:10Z</time>
      </trkpt>
      <trkpt lat="45.25985" lon="5.77917">
        <ele>1010.6</ele>
        <time>2015-08-22T21:10:11Z</time>
      </trkpt>
      <trkpt lat="45.25983" lon="5.77911">
        <ele>1010.3</ele>
        <time>2015-08-22T21:10:12Z</time>
      </trkpt>
      <trkpt lat="45.25977" lon="5.77901">
        <ele>1009.7</ele>
        <time>2015-08-22T21:10:15Z</time>
      </trkpt>
      <trkpt lat="45.25972" lon="5.77888">
        <ele>1009.3</ele>
        <time>2015-08-22T21:10:20Z</time>
      </trkpt>
      <trkpt lat="45.25967" lon="5.77883">
        <ele>1009.1</ele>
        <time>2015-08-22T21:10:24Z</time>
      </trkpt>
      <trkpt lat="45.25963" lon="5.77877">
        <ele>1009</ele>
        <time>2015-08-22T21:10:26Z</time>
      </trkpt>
      <trkpt lat="45.2596" lon="5.77873">
        <ele>1008.9</ele>
        <time>2015-08-22T21:10:29Z</time>
      </trkpt>
      <trkpt lat="45.2595" lon="5.77859">
        <ele>1007.1</ele>
        <time>2015-08-22T21:10:34Z</time>
      </trkpt>
      <trkpt lat="45.25944" lon="5.77848">
        <ele>1005.7</ele>
        <time>2015-08-22T21:10:39Z</time>
      </trkpt>
      <trkpt lat="45.25932" lon="5.77846">
        <ele>1004.5</ele>
        <time>2015-08-22T21:10:43Z</time>
      </trkpt>
      <trkpt lat="45.25929" lon="5.77848">
        <ele>1004.4</ele>
        <time>2015-08-22T21:10:45Z</time>
      </trkpt>
      <trkpt lat="45.25927" lon="5.77849">
        <ele>1004.2</ele>
        <time>2015-08-22T21:10:47Z</time>
      </trkpt>
      <trkpt lat="45.25918" lon="5.77856">
        <ele>1003.9</ele>
        <time>2015-08-22T21:10:52Z</time>
      </trkpt>
      <trkpt lat="45.25901" lon="5.77866">
        <ele>1002.9</ele>
        <time>2015-08-22T21:10:57Z</time>
      </trkpt>
      <trkpt lat="45.25891" lon="5.77878">
        <ele>1002.6</ele>
        <time>2015-08-22T21:11:02Z</time>
      </trkpt>
      <trkpt lat="45.25891" lon="5.77879">
        <ele>1002.7</ele>
        <time>2015-08-22T21:11:06Z</time>
      </trkpt>
      <trkpt lat="45.25893" lon="5.77869">
        <ele>1002.3</ele>
        <time>2015-08-22T21:11:10Z</time>
      </trkpt>
      <trkpt lat="45.25892" lon="5.77866">
        <ele>1002</ele>
        <time>2015-08-22T21:11:11Z</time>
      </trkpt>
      <trkpt lat="45.25888" lon="5.77858">
        <ele>1001.2</ele>
        <time>2015-08-22T21:11:14Z</time>
      </trkpt>
      <trkpt lat="45.25882" lon="5.77843">
        <ele>999.7</ele>
        <time>2015-08-22T21:11:20Z</time>
      </trkpt>
      <trkpt lat="45.25877" lon="5.77838">
        <ele>999</ele>
        <time>2015-08-22T21:11:23Z</time>
      </trkpt>
      <trkpt lat="45.25875" lon="5.77839">
        <ele>998.9</ele>
        <time>2015-08-22T21:11:24Z</time>
      </trkpt>
      <trkpt lat="45.25872" lon="5.7784">
        <ele>998.7</ele>
        <time>2015-08-22T21:11:30Z</time>
      </trkpt>
      <trkpt lat="45.25871" lon="5.77839">
        <ele>998.4</ele>
        <time>2015-08-22T21:11:35Z</time>
      </trkpt>
      <trkpt lat="45.25871" lon="5.77837">
        <ele>998.3</ele>
        <time>2015-08-22T21:11:37Z</time>
      </trkpt>
      <trkpt lat="45.2587" lon="5.77834">
        <ele>998.1</ele>
        <time>2015-08-22T21:11:39Z</time>
      </trkpt>
      <trkpt lat="45.25864" lon="5.77828">
        <ele>997.1</ele>
        <time>2015-08-22T21:11:44Z</time>
      </trkpt>
      <trkpt lat="45.25866" lon="5.77825">
        <ele>997.1</ele>
        <time>2015-08-22T21:11:49Z</time>
      </trkpt>
      <trkpt lat="45.25865" lon="5.77821">
        <ele>996.7</ele>
        <time>2015-08-22T21:11:52Z</time>
      </trkpt>
      <trkpt lat="45.25865" lon="5.77813">
        <ele>996.3</ele>
        <time>2015-08-22T21:11:56Z</time>
      </trkpt>
      <trkpt lat="45.25866" lon="5.77813">
        <ele>996.4</ele>
        <time>2015-08-22T21:11:58Z</time>
      </trkpt>
      <trkpt lat="45.25868" lon="5.77814">
        <ele>996.6</ele>
        <time>2015-08-22T21:11:59Z</time>
      </trkpt>
      <trkpt lat="45.2587" lon="5.77823">
        <ele>997.4</ele>
        <time>2015-08-22T21:12:21Z</time>
      </trkpt>
      <trkpt lat="45.2586" lon="5.77821">
        <ele>996.3</ele>
        <time>2015-08-22T21:12:31Z</time>
      </trkpt>
      <trkpt lat="45.25856" lon="5.77819">
        <ele>995.7</ele>
        <time>2015-08-22T21:12:40Z</time>
      </trkpt>
      <trkpt lat="45.25857" lon="5.77831">
        <ele>996.6</ele>
        <time>2015-08-22T21:12:52Z</time>
      </trkpt>
      <trkpt lat="45.25857" lon="5.77828">
        <ele>996.5</ele>
        <time>2015-08-22T21:12:55Z</time>
      </trkpt>
      <trkpt lat="45.25872" lon="5.77832">
        <ele>998.1</ele>
        <time>2015-08-22T21:13:01Z</time>
      </trkpt>
      <trkpt lat="45.25864" lon="5.77825">
        <ele>996.9</ele>
        <time>2015-08-22T21:13:18Z</time>
      </trkpt>
      <trkpt lat="45.25861" lon="5.77826">
        <ele>996.7</ele>
        <time>2015-08-22T21:13:26Z</time>
      </trkpt>
      <trkpt lat="45.25855" lon="5.7782">
        <ele>995.7</ele>
        <time>2015-08-22T21:13:29Z</time>
      </trkpt>
      <trkpt lat="45.25863" lon="5.77823">
        <ele>996.7</ele>
        <time>2015-08-22T21:13:33Z</time>
      </trkpt>
      <trkpt lat="45.25867" lon="5.77825">
        <ele>997.2</ele>
        <time>2015-08-22T21:13:37Z</time>
      </trkpt>
      <trkpt lat="45.25866" lon="5.77824">
        <ele>997.1</ele>
        <time>2015-08-22T21:13:39Z</time>
      </trkpt>
      <trkpt lat="45.25855" lon="5.77825">
        <ele>996.1</ele>
        <time>2015-08-22T21:14:00Z</time>
      </trkpt>
      <trkpt lat="45.25851" lon="5.77816">
        <ele>995</ele>
        <time>2015-08-22T21:14:02Z</time>
      </trkpt>
      <trkpt lat="45.25848" lon="5.77815">
        <ele>994.7</ele>
        <time>2015-08-22T21:14:08Z</time>
      </trkpt>
      <trkpt lat="45.25852" lon="5.77808">
        <ele>994.6</ele>
        <time>2015-08-22T21:14:20Z</time>
      </trkpt>
      <trkpt lat="45.25852" lon="5.77813">
        <ele>995</ele>
        <time>2015-08-22T21:14:23Z</time>
      </trkpt>
      <trkpt lat="45.25852" lon="5.77821">
        <ele>995.5</ele>
        <time>2015-08-22T21:14:29Z</time>
      </trkpt>
      <trkpt lat="45.25852" lon="5.77818">
        <ele>995.2</ele>
        <time>2015-08-22T21:14:32Z</time>
      </trkpt>
      <trkpt lat="45.25855" lon="5.77817">
        <ele>995.5</ele>
        <time>2015-08-22T21:14:50Z</time>
      </trkpt>
      <trkpt lat="45.25856" lon="5.7781">
        <ele>995.1</ele>
        <time>2015-08-22T21:14:54Z</time>
      </trkpt>
      <trkpt lat="45.25857" lon="5.77811">
        <ele>995.3</ele>
        <time>2015-08-22T21:14:55Z</time>
      </trkpt>
      <trkpt lat="45.25858" lon="5.77813">
        <ele>995.6</ele>
        <time>2015-08-22T21:14:58Z</time>
      </trkpt>
      <trkpt lat="45.25858" lon="5.77812">
        <ele>995.5</ele>
        <time>2015-08-22T21:14:59Z</time>
      </trkpt>
      <trkpt lat="45.25855" lon="5.77802">
        <ele>994.5</ele>
        <time>2015-08-22T21:15:03Z</time>
      </trkpt>
      <trkpt lat="45.2586" lon="5.7782">
        <ele>996.2</ele>
        <time>2015-08-22T21:15:14Z</time>
      </trkpt>
      <trkpt lat="45.25859" lon="5.77821">
        <ele>996.1</ele>
        <time>2015-08-22T21:15:15Z</time>
      </trkpt>
      <trkpt lat="45.25859" lon="5.77816">
        <ele>995.8</ele>
        <time>2015-08-22T21:15:28Z</time>
      </trkpt>
      <trkpt lat="45.25865" lon="5.77826">
        <ele>997.1</ele>
        <time>2015-08-22T21:15:32Z</time>
      </trkpt>
      <trkpt lat="45.25865" lon="5.77824">
        <ele>996.9</ele>
        <time>2015-08-22T21:15:37Z</time>
      </trkpt>
      <trkpt lat="45.25852" lon="5.77826">
        <ele>995.8</ele>
        <time>2015-08-22T21:16:13Z</time>
      </trkpt>
      <trkpt lat="45.25855" lon="5.77827">
        <ele>996.2</ele>
        <time>2015-08-22T21:16:19Z</time>
      </trkpt>
      <trkpt lat="45.25857" lon="5.77827">
        <ele>996.4</ele>
        <time>2015-08-22T21:16:20Z</time>
      </trkpt>
      <trkpt lat="45.25861" lon="5.77826">
        <ele>996.7</ele>
        <time>2015-08-22T21:16:23Z</time>
      </trkpt>
      <trkpt lat="45.25864" lon="5.77805">
        <ele>995.6</ele>
        <time>2015-08-22T21:16:29Z</time>
      </trkpt>
      <trkpt lat="45.25865" lon="5.77808">
        <ele>996</ele>
        <time>2015-08-22T21:16:31Z</time>
      </trkpt>
      <trkpt lat="45.25853" lon="5.77827">
        <ele>996</ele>
        <time>2015-08-22T21:16:57Z</time>
      </trkpt>
      <trkpt lat="45.25856" lon="5.77829">
        <ele>996.4</ele>
        <time>2015-08-22T21:17:05Z</time>
      </trkpt>
      <trkpt lat="45.25862" lon="5.77819">
        <ele>996.4</ele>
        <time>2015-08-22T21:17:15Z</time>
      </trkpt>
      <trkpt lat="45.25861" lon="5.77827">
        <ele>996.8</ele>
        <time>2015-08-22T21:17:20Z</time>
      </trkpt>
      <trkpt lat="45.25861" lon="5.77828">
        <ele>996.8</ele>
        <time>2015-08-22T21:17:23Z</time>
      </trkpt>
      <trkpt lat="45.25864" lon="5.77834">
        <ele>997.4</ele>
        <time>2015-08-22T21:17:33Z</time>
      </trkpt>
      <trkpt lat="45.25864" lon="5.77834">
        <ele>997.5</ele>
        <time>2015-08-22T21:17:34Z</time>
      </trkpt>
      <trkpt lat="45.25865" lon="5.77834">
        <ele>997.6</ele>
        <time>2015-08-22T21:17:35Z</time>
      </trkpt>
      <trkpt lat="45.25863" lon="5.77833">
        <ele>997.3</ele>
        <time>2015-08-22T21:17:37Z</time>
      </trkpt>
      <trkpt lat="45.25863" lon="5.77832">
        <ele>997.3</ele>
        <time>2015-08-22T21:17:39Z</time>
      </trkpt>
      <trkpt lat="45.25862" lon="5.77829">
        <ele>997</ele>
        <time>2015-08-22T21:17:43Z</time>
      </trkpt>
      <trkpt lat="45.25859" lon="5.77824">
        <ele>996.3</ele>
        <time>2015-08-22T21:17:46Z</time>
      </trkpt>
      <trkpt lat="45.25858" lon="5.7782">
        <ele>995.9</ele>
        <time>2015-08-22T21:17:50Z</time>
      </trkpt>
      <trkpt lat="45.25858" lon="5.77824">
        <ele>996.2</ele>
        <time>2015-08-22T21:17:51Z</time>
      </trkpt>
      <trkpt lat="45.25865" lon="5.77834">
        <ele>997.6</ele>
        <time>2015-08-22T21:17:56Z</time>
      </trkpt>
      <trkpt lat="45.25875" lon="5.77848">
        <ele>999.4</ele>
        <time>2015-08-22T21:18:01Z</time>
      </trkpt>
      <trkpt lat="45.25877" lon="5.7785">
        <ele>999.6</ele>
        <time>2015-08-22T21:18:02Z</time>
      </trkpt>
      <trkpt lat="45.25892" lon="5.77844">
        <ele>1000.7</ele>
        <time>2015-08-22T21:18:13Z</time>
      </trkpt>
      <trkpt lat="45.25885" lon="5.77843">
        <ele>1000</ele>
        <time>2015-08-22T21:18:15Z</time>
      </trkpt>
      <trkpt lat="45.25865" lon="5.77832">
        <ele>997.4</ele>
        <time>2015-08-22T21:18:19Z</time>
      </trkpt>
      <trkpt lat="45.2586" lon="5.77821">
        <ele>996.2</ele>
        <time>2015-08-22T21:18:29Z</time>
      </trkpt>
      <trkpt lat="45.25861" lon="5.77818">
        <ele>996.2</ele>
        <time>2015-08-22T21:18:32Z</time>
      </trkpt>
      <trkpt lat="45.25863" lon="5.77819">
        <ele>996.4</ele>
        <time>2015-08-22T21:18:33Z</time>
      </trkpt>
      <trkpt lat="45.25863" lon="5.77819">
        <ele>996.4</ele>
        <time>2015-08-22T21:18:36Z</time>
      </trkpt>
      <trkpt lat="45.25858" lon="5.77814">
        <ele>995.6</ele>
        <time>2015-08-22T21:18:40Z</time>
      </trkpt>
      <trkpt lat="45.25856" lon="5.77815">
        <ele>995.5</ele>
        <time>2015-08-22T21:18:44Z</time>
      </trkpt>
      <trkpt lat="45.2586" lon="5.77817">
        <ele>996</ele>
        <time>2015-08-22T21:18:47Z</time>
      </trkpt>
      <trkpt lat="45.2586" lon="5.77818">
        <ele>996.1</ele>
        <time>2015-08-22T21:18:49Z</time>
      </trkpt>
      <trkpt lat="45.25858" lon="5.77817">
        <ele>995.8</ele>
        <time>2015-08-22T21:18:50Z</time>
      </trkpt>
      <trkpt lat="45.25855" lon="5.77815">
        <ele>995.3</ele>
        <time>2015-08-22T21:18:53Z</time>
      </trkpt>
      <trkpt lat="45.25854" lon="5.77805">
        <ele>994.6</ele>
        <time>2015-08-22T21:19:32Z</time>
      </trkpt>
      <trkpt lat="45.25854" lon="5.77803">
        <ele>994.5</ele>
        <time>2015-08-22T21:19:35Z</time>
      </trkpt>
      <trkpt lat="45.25869" lon="5.77837">
        <ele>998.2</ele>
        <time>2015-08-22T21:20:09Z</time>
      </trkpt>
      <trkpt lat="45.25868" lon="5.77841">
        <ele>998.3</ele>
        <time>2015-08-22T21:20:11Z</time>
      </trkpt>
      <trkpt lat="45.25863" lon="5.77841">
        <ele>997.8</ele>
        <time>2015-08-22T21:20:16Z</time>
      </trkpt>
      <trkpt lat="45.25865" lon="5.77844">
        <ele>998.2</ele>
        <time>2015-08-22T21:20:18Z</time>
      </trkpt>
      <trkpt lat="45.25864" lon="5.77846">
        <ele>998.2</ele>
        <time>2015-08-22T21:20:21Z</time>
      </trkpt>
      <trkpt lat="45.25862" lon="5.77843">
        <ele>997.9</ele>
        <time>2015-08-22T21:20:22Z</time>
      </trkpt>
      <trkpt lat="45.25869" lon="5.77844">
        <ele>998.6</ele>
        <time>2015-08-22T21:20:26Z</time>
      </trkpt>
      <trkpt lat="45.25867" lon="5.77846">
        <ele>998.5</ele>
        <time>2015-08-22T21:20:30Z</time>
      </trkpt>
      <trkpt lat="45.25863" lon="5.77845">
        <ele>998</ele>
        <time>2015-08-22T21:20:32Z</time>
      </trkpt>
      <trkpt lat="45.25859" lon="5.77846">
        <ele>997.8</ele>
        <time>2015-08-22T21:20:35Z</time>
      </trkpt>
      <trkpt lat="45.25859" lon="5.77847">
        <ele>997.9</ele>
        <time>2015-08-22T21:20:37Z</time>
      </trkpt>
      <trkpt lat="45.25864" lon="5.77844">
        <ele>998.1</ele>
        <time>2015-08-22T21:20:40Z</time>
      </trkpt>
      <trkpt lat="45.25872" lon="5.77844">
        <ele>998.9</ele>
        <time>2015-08-22T21:20:43Z</time>
      </trkpt>
      <trkpt lat="45.25886" lon="5.77851">
        <ele>1000.6</ele>
        <time>2015-08-22T21:20:48Z</time>
      </trkpt>
      <trkpt lat="45.25887" lon="5.77847">
        <ele>1000.4</ele>
        <time>2015-08-22T21:20:52Z</time>
      </trkpt>
      <trkpt lat="45.25885" lon="5.77845">
        <ele>1000.2</ele>
        <time>2015-08-22T21:20:53Z</time>
      </trkpt>
      <trkpt lat="45.25884" lon="5.77844">
        <ele>999.9</ele>
        <time>2015-08-22T21:20:57Z</time>
      </trkpt>
      <trkpt lat="45.25878" lon="5.77845">
        <ele>999.5</ele>
        <time>2015-08-22T21:21:00Z</time>
      </trkpt>
      <trkpt lat="45.25869" lon="5.77821">
        <ele>997.2</ele>
        <time>2015-08-22T21:21:10Z</time>
      </trkpt>
      <trkpt lat="45.25866" lon="5.77819">
        <ele>996.7</ele>
        <time>2015-08-22T21:21:11Z</time>
      </trkpt>
      <trkpt lat="45.25859" lon="5.77814">
        <ele>995.7</ele>
        <time>2015-08-22T21:21:15Z</time>
      </trkpt>
      <trkpt lat="45.25864" lon="5.77826">
        <ele>997</ele>
        <time>2015-08-22T21:21:19Z</time>
      </trkpt>
      <trkpt lat="45.2587" lon="5.77833">
        <ele>998</ele>
        <time>2015-08-22T21:21:24Z</time>
      </trkpt>
      <trkpt lat="45.2587" lon="5.77836">
        <ele>998.1</ele>
        <time>2015-08-22T21:21:26Z</time>
      </trkpt>
      <trkpt lat="45.25869" lon="5.77832">
        <ele>997.9</ele>
        <time>2015-08-22T21:21:32Z</time>
      </trkpt>
      <trkpt lat="45.25864" lon="5.77828">
        <ele>997.1</ele>
        <time>2015-08-22T21:21:35Z</time>
      </trkpt>
      <trkpt lat="45.25861" lon="5.77824">
        <ele>996.6</ele>
        <time>2015-08-22T21:21:38Z</time>
      </trkpt>
      <trkpt lat="45.25861" lon="5.77826">
        <ele>996.7</ele>
        <time>2015-08-22T21:21:40Z</time>
      </trkpt>
      <trkpt lat="45.2586" lon="5.7782">
        <ele>996.2</ele>
        <time>2015-08-22T21:21:52Z</time>
      </trkpt>
      <trkpt lat="45.25861" lon="5.77822">
        <ele>996.4</ele>
        <time>2015-08-22T21:21:55Z</time>
      </trkpt>
      <trkpt lat="45.25867" lon="5.77825">
        <ele>997.3</ele>
        <time>2015-08-22T21:22:00Z</time>
      </trkpt>
      <trkpt lat="45.25863" lon="5.77833">
        <ele>997.3</ele>
        <time>2015-08-22T21:22:42Z</time>
      </trkpt>
      <trkpt lat="45.25858" lon="5.77828">
        <ele>996.5</ele>
        <time>2015-08-22T21:22:45Z</time>
      </trkpt>
      <trkpt lat="45.25854" lon="5.7783">
        <ele>996.3</ele>
        <time>2015-08-22T21:22:48Z</time>
      </trkpt>
      <trkpt lat="45.25852" lon="5.77837">
        <ele>996.5</ele>
        <time>2015-08-22T21:22:54Z</time>
      </trkpt>
      <trkpt lat="45.25851" lon="5.77834">
        <ele>996.3</ele>
        <time>2015-08-22T21:22:58Z</time>
      </trkpt>
      <trkpt lat="45.2585" lon="5.77834">
        <ele>996.1</ele>
        <time>2015-08-22T21:23:05Z</time>
      </trkpt>
      <trkpt lat="45.25847" lon="5.77845">
        <ele>996.6</ele>
        <time>2015-08-22T21:23:18Z</time>
      </trkpt>
      <trkpt lat="45.2585" lon="5.77844">
        <ele>996.8</ele>
        <time>2015-08-22T21:23:24Z</time>
      </trkpt>
      <trkpt lat="45.25854" lon="5.77841">
        <ele>996.9</ele>
        <time>2015-08-22T21:23:28Z</time>
      </trkpt>
      <trkpt lat="45.25855" lon="5.77837">
        <ele>996.8</ele>
        <time>2015-08-22T21:23:30Z</time>
      </trkpt>
      <trkpt lat="45.25854" lon="5.77834">
        <ele>996.6</ele>
        <time>2015-08-22T21:23:34Z</time>
      </trkpt>
      <trkpt lat="45.25853" lon="5.77834">
        <ele>996.4</ele>
        <time>2015-08-22T21:23:35Z</time>
      </trkpt>
      <trkpt lat="45.25851" lon="5.77829">
        <ele>995.9</ele>
        <time>2015-08-22T21:23:38Z</time>
      </trkpt>
      <trkpt lat="45.25851" lon="5.77827">
        <ele>995.7</ele>
        <time>2015-08-22T21:23:39Z</time>
      </trkpt>
      <trkpt lat="45.25846" lon="5.7783">
        <ele>995.5</ele>
        <time>2015-08-22T21:23:44Z</time>
      </trkpt>
      <trkpt lat="45.25845" lon="5.77836">
        <ele>995.8</ele>
        <time>2015-08-22T21:23:47Z</time>
      </trkpt>
      <trkpt lat="45.25846" lon="5.77843">
        <ele>996.4</ele>
        <time>2015-08-22T21:23:50Z</time>
      </trkpt>
      <trkpt lat="45.25847" lon="5.77847">
        <ele>996.7</ele>
        <time>2015-08-22T21:23:53Z</time>
      </trkpt>
      <trkpt lat="45.25847" lon="5.7785">
        <ele>996.9</ele>
        <time>2015-08-22T21:23:56Z</time>
      </trkpt>
      <trkpt lat="45.25847" lon="5.77855">
        <ele>997.2</ele>
        <time>2015-08-22T21:24:02Z</time>
      </trkpt>
      <trkpt lat="45.25845" lon="5.77861">
        <ele>997.5</ele>
        <time>2015-08-22T21:24:09Z</time>
      </trkpt>
      <trkpt lat="45.25839" lon="5.77868">
        <ele>997.4</ele>
        <time>2015-08-22T21:24:14Z</time>
      </trkpt>
      <trkpt lat="45.25833" lon="5.77876">
        <ele>997.5</ele>
        <time>2015-08-22T21:24:19Z</time>
      </trkpt>
      <trkpt lat="45.25828" lon="5.77886">
        <ele>997.3</ele>
        <time>2015-08-22T21:24:25Z</time>
      </trkpt>
      <trkpt lat="45.25831" lon="5.77894">
        <ele>997.8</ele>
        <time>2015-08-22T21:24:29Z</time>
      </trkpt>
      <trkpt lat="45.25832" lon="5.77895">
        <ele>997.9</ele>
        <time>2015-08-22T21:24:30Z</time>
      </trkpt>
      <trkpt lat="45.25834" lon="5.77903">
        <ele>998.3</ele>
        <time>2015-08-22T21:24:34Z</time>
      </trkpt>
      <trkpt lat="45.25842" lon="5.77912">
        <ele>999.2</ele>
        <time>2015-08-22T21:24:40Z</time>
      </trkpt>
      <trkpt lat="45.25843" lon="5.77912">
        <ele>999.3</ele>
        <time>2015-08-22T21:24:41Z</time>
      </trkpt>
      <trkpt lat="45.25839" lon="5.77917">
        <ele>999</ele>
        <time>2015-08-22T21:24:46Z</time>
      </trkpt>
      <trkpt lat="45.25826" lon="5.77917">
        <ele>997.8</ele>
        <time>2015-08-22T21:24:55Z</time>
      </trkpt>
      <trkpt lat="45.25817" lon="5.77922">
        <ele>997</ele>
        <time>2015-08-22T21:25:01Z</time>
      </trkpt>
      <trkpt lat="45.25809" lon="5.77926">
        <ele>996.3</ele>
        <time>2015-08-22T21:25:06Z</time>
      </trkpt>
      <trkpt lat="45.25807" lon="5.77929">
        <ele>996.2</ele>
        <time>2015-08-22T21:25:08Z</time>
      </trkpt>
      <trkpt lat="45.25797" lon="5.77939">
        <ele>995.3</ele>
        <time>2015-08-22T21:25:15Z</time>
      </trkpt>
      <trkpt lat="45.25791" lon="5.77952">
        <ele>994.9</ele>
        <time>2015-08-22T21:25:21Z</time>
      </trkpt>
      <trkpt lat="45.25786" lon="5.77965">
        <ele>994.7</ele>
        <time>2015-08-22T21:25:27Z</time>
      </trkpt>
      <trkpt lat="45.25782" lon="5.77979">
        <ele>994.7</ele>
        <time>2015-08-22T21:25:34Z</time>
      </trkpt>
      <trkpt lat="45.25782" lon="5.77999">
        <ele>995</ele>
        <time>2015-08-22T21:25:44Z</time>
      </trkpt>
      <trkpt lat="45.2578" lon="5.78009">
        <ele>995</ele>
        <time>2015-08-22T21:25:50Z</time>
      </trkpt>
      <trkpt lat="45.25776" lon="5.78021">
        <ele>995</ele>
        <time>2015-08-22T21:25:57Z</time>
      </trkpt>
      <trkpt lat="45.25772" lon="5.78032">
        <ele>994.9</ele>
        <time>2015-08-22T21:26:04Z</time>
      </trkpt>
      <trkpt lat="45.25768" lon="5.78038">
        <ele>994.8</ele>
        <time>2015-08-22T21:26:08Z</time>
      </trkpt>
      <trkpt lat="45.25768" lon="5.78046">
        <ele>995.1</ele>
        <time>2015-08-22T21:26:11Z</time>
      </trkpt>
      <trkpt lat="45.25768" lon="5.78046">
        <ele>995.1</ele>
        <time>2015-08-22T21:26:12Z</time>
      </trkpt>
      <trkpt lat="45.25765" lon="5.78051">
        <ele>995.2</ele>
        <time>2015-08-22T21:26:16Z</time>
      </trkpt>
      <trkpt lat="45.25757" lon="5.78057">
        <ele>995.3</ele>
        <time>2015-08-22T21:26:22Z</time>
      </trkpt>
      <trkpt lat="45.25755" lon="5.78061">
        <ele>995.6</ele>
        <time>2015-08-22T21:26:24Z</time>
      </trkpt>
      <trkpt lat="45.25752" lon="5.78067">
        <ele>996</ele>
        <time>2015-08-22T21:26:27Z</time>
      </trkpt>
      <trkpt lat="45.2575" lon="5.78068">
        <ele>996.1</ele>
        <time>2015-08-22T21:26:28Z</time>
      </trkpt>
      <trkpt lat="45.25746" lon="5.78076">
        <ele>996.7</ele>
        <time>2015-08-22T21:26:32Z</time>
      </trkpt>
      <trkpt lat="45.25746" lon="5.78078">
        <ele>996.8</ele>
        <time>2015-08-22T21:26:33Z</time>
      </trkpt>
      <trkpt lat="45.25746" lon="5.78083">
        <ele>997.3</ele>
        <time>2015-08-22T21:26:36Z</time>
      </trkpt>
      <trkpt lat="45.25746" lon="5.78084">
        <ele>997.4</ele>
        <time>2015-08-22T21:26:37Z</time>
      </trkpt>
      <trkpt lat="45.25745" lon="5.78088">
        <ele>997.8</ele>
        <time>2015-08-22T21:26:40Z</time>
      </trkpt>
      <trkpt lat="45.25743" lon="5.78095">
        <ele>998.4</ele>
        <time>2015-08-22T21:26:43Z</time>
      </trkpt>
      <trkpt lat="45.2574" lon="5.78098">
        <ele>998.8</ele>
        <time>2015-08-22T21:26:45Z</time>
      </trkpt>
      <trkpt lat="45.25737" lon="5.78103">
        <ele>999.4</ele>
        <time>2015-08-22T21:26:50Z</time>
      </trkpt>
      <trkpt lat="45.25735" lon="5.78107">
        <ele>999.9</ele>
        <time>2015-08-22T21:26:55Z</time>
      </trkpt>
      <trkpt lat="45.25729" lon="5.7811">
        <ele>1000.6</ele>
        <time>2015-08-22T21:27:00Z</time>
      </trkpt>
      <trkpt lat="45.25728" lon="5.78111">
        <ele>1000.8</ele>
        <time>2015-08-22T21:27:01Z</time>
      </trkpt>
      <trkpt lat="45.25723" lon="5.78116">
        <ele>1001.7</ele>
        <time>2015-08-22T21:27:08Z</time>
      </trkpt>
      <trkpt lat="45.25721" lon="5.7812">
        <ele>1002.4</ele>
        <time>2015-08-22T21:27:14Z</time>
      </trkpt>
      <trkpt lat="45.25719" lon="5.78123">
        <ele>1002.9</ele>
        <time>2015-08-22T21:27:17Z</time>
      </trkpt>
      <trkpt lat="45.25715" lon="5.78126">
        <ele>1003.6</ele>
        <time>2015-08-22T21:27:20Z</time>
      </trkpt>
      <trkpt lat="45.25707" lon="5.78133">
        <ele>1006</ele>
        <time>2015-08-22T21:27:27Z</time>
      </trkpt>
      <trkpt lat="45.25703" lon="5.78143">
        <ele>1009.1</ele>
        <time>2015-08-22T21:27:34Z</time>
      </trkpt>
      <trkpt lat="45.25702" lon="5.78143">
        <ele>1009.5</ele>
        <time>2015-08-22T21:27:40Z</time>
      </trkpt>
      <trkpt lat="45.25703" lon="5.7814">
        <ele>1008.8</ele>
        <time>2015-08-22T21:27:43Z</time>
      </trkpt>
      <trkpt lat="45.25702" lon="5.78139">
        <ele>1008.7</ele>
        <time>2015-08-22T21:27:45Z</time>
      </trkpt>
      <trkpt lat="45.25702" lon="5.78136">
        <ele>1008.5</ele>
        <time>2015-08-22T21:27:49Z</time>
      </trkpt>
      <trkpt lat="45.25699" lon="5.78131">
        <ele>1008.5</ele>
        <time>2015-08-22T21:27:55Z</time>
      </trkpt>
      <trkpt lat="45.25694" lon="5.78126">
        <ele>1009.5</ele>
        <time>2015-08-22T21:28:01Z</time>
      </trkpt>
      <trkpt lat="45.25691" lon="5.7812">
        <ele>1009.6</ele>
        <time>2015-08-22T21:28:06Z</time>
      </trkpt>
      <trkpt lat="45.25686" lon="5.78118">
        <ele>1010.9</ele>
        <time>2015-08-22T21:28:10Z</time>
      </trkpt>
      <trkpt lat="45.25686" lon="5.78119">
        <ele>1011.3</ele>
        <time>2015-08-22T21:28:11Z</time>
      </trkpt>
      <trkpt lat="45.25684" lon="5.78116">
        <ele>1011.3</ele>
        <time>2015-08-22T21:28:12Z</time>
      </trkpt>
      <trkpt lat="45.25682" lon="5.78114">
        <ele>1011.7</ele>
        <time>2015-08-22T21:28:15Z</time>
      </trkpt>
      <trkpt lat="45.25681" lon="5.78113">
        <ele>1012</ele>
        <time>2015-08-22T21:28:16Z</time>
      </trkpt>
      <trkpt lat="45.2568" lon="5.78113">
        <ele>1012.4</ele>
        <time>2015-08-22T21:28:17Z</time>
      </trkpt>
      <trkpt lat="45.25674" lon="5.7811">
        <ele>1013.9</ele>
        <time>2015-08-22T21:28:22Z</time>
      </trkpt>
      <trkpt lat="45.25674" lon="5.7811">
        <ele>1014</ele>
        <time>2015-08-22T21:28:23Z</time>
      </trkpt>
      <trkpt lat="45.2567" lon="5.78109">
        <ele>1015.3</ele>
        <time>2015-08-22T21:28:27Z</time>
      </trkpt>
      <trkpt lat="45.25666" lon="5.7811">
        <ele>1017</ele>
        <time>2015-08-22T21:28:30Z</time>
      </trkpt>
      <trkpt lat="45.25662" lon="5.78107">
        <ele>1017.9</ele>
        <time>2015-08-22T21:28:33Z</time>
      </trkpt>
      <trkpt lat="45.25661" lon="5.78105">
        <ele>1017.8</ele>
        <time>2015-08-22T21:28:37Z</time>
      </trkpt>
      <trkpt lat="45.25663" lon="5.78098">
        <ele>1016.1</ele>
        <time>2015-08-22T21:28:44Z</time>
      </trkpt>
      <trkpt lat="45.25663" lon="5.78096">
        <ele>1015.8</ele>
        <time>2015-08-22T21:28:45Z</time>
      </trkpt>
      <trkpt lat="45.25661" lon="5.78093">
        <ele>1016.1</ele>
        <time>2015-08-22T21:28:48Z</time>
      </trkpt>
      <trkpt lat="45.2566" lon="5.78094">
        <ele>1016.4</ele>
        <time>2015-08-22T21:28:49Z</time>
      </trkpt>
      <trkpt lat="45.25657" lon="5.78092">
        <ele>1017.1</ele>
        <time>2015-08-22T21:28:51Z</time>
      </trkpt>
      <trkpt lat="45.2565" lon="5.78087">
        <ele>1018.9</ele>
        <time>2015-08-22T21:28:55Z</time>
      </trkpt>
      <trkpt lat="45.25644" lon="5.78082">
        <ele>1020.3</ele>
        <time>2015-08-22T21:29:01Z</time>
      </trkpt>
      <trkpt lat="45.25641" lon="5.78079">
        <ele>1020.6</ele>
        <time>2015-08-22T21:29:02Z</time>
      </trkpt>
      <trkpt lat="45.25636" lon="5.78077">
        <ele>1022.1</ele>
        <time>2015-08-22T21:29:07Z</time>
      </trkpt>
      <trkpt lat="45.25632" lon="5.78076">
        <ele>1023.2</ele>
        <time>2015-08-22T21:29:09Z</time>
      </trkpt>
      <trkpt lat="45.25629" lon="5.78076">
        <ele>1024.5</ele>
        <time>2015-08-22T21:29:12Z</time>
      </trkpt>
      <trkpt lat="45.25623" lon="5.78074">
        <ele>1025.8</ele>
        <time>2015-08-22T21:29:16Z</time>
      </trkpt>
      <trkpt lat="45.25621" lon="5.78074">
        <ele>1026.2</ele>
        <time>2015-08-22T21:29:17Z</time>
      </trkpt>
      <trkpt lat="45.25616" lon="5.78073">
        <ele>1026.7</ele>
        <time>2015-08-22T21:29:21Z</time>
      </trkpt>
      <trkpt lat="45.25609" lon="5.7807">
        <ele>1027.1</ele>
        <time>2015-08-22T21:29:27Z</time>
      </trkpt>
      <trkpt lat="45.25596" lon="5.78065">
        <ele>1028.3</ele>
        <time>2015-08-22T21:29:34Z</time>
      </trkpt>
      <trkpt lat="45.25585" lon="5.78065">
        <ele>1029.8</ele>
        <time>2015-08-22T21:29:40Z</time>
      </trkpt>
      <trkpt lat="45.25584" lon="5.78064">
        <ele>1029.9</ele>
        <time>2015-08-22T21:29:42Z</time>
      </trkpt>
      <trkpt lat="45.25582" lon="5.78062">
        <ele>1029.7</ele>
        <time>2015-08-22T21:29:45Z</time>
      </trkpt>
      <trkpt lat="45.2558" lon="5.78061">
        <ele>1029.7</ele>
        <time>2015-08-22T21:29:46Z</time>
      </trkpt>
      <trkpt lat="45.25577" lon="5.78056">
        <ele>1029.2</ele>
        <time>2015-08-22T21:29:52Z</time>
      </trkpt>
      <trkpt lat="45.25572" lon="5.78053">
        <ele>1029.3</ele>
        <time>2015-08-22T21:29:57Z</time>
      </trkpt>
      <trkpt lat="45.25571" lon="5.78051">
        <ele>1028.9</ele>
        <time>2015-08-22T21:29:58Z</time>
      </trkpt>
      <trkpt lat="45.25569" lon="5.78049">
        <ele>1029.1</ele>
        <time>2015-08-22T21:30:01Z</time>
      </trkpt>
      <trkpt lat="45.25566" lon="5.78044">
        <ele>1028.4</ele>
        <time>2015-08-22T21:30:06Z</time>
      </trkpt>
      <trkpt lat="45.25559" lon="5.78039">
        <ele>1028.1</ele>
        <time>2015-08-22T21:30:12Z</time>
      </trkpt>
      <trkpt lat="45.25552" lon="5.78033">
        <ele>1027.7</ele>
        <time>2015-08-22T21:30:18Z</time>
      </trkpt>
      <trkpt lat="45.25547" lon="5.78026">
        <ele>1026.8</ele>
        <time>2015-08-22T21:30:24Z</time>
      </trkpt>
      <trkpt lat="45.25538" lon="5.78022">
        <ele>1027.4</ele>
        <time>2015-08-22T21:30:31Z</time>
      </trkpt>
      <trkpt lat="45.25533" lon="5.78019">
        <ele>1027.9</ele>
        <time>2015-08-22T21:30:35Z</time>
      </trkpt>
      <trkpt lat="45.25533" lon="5.78016">
        <ele>1027.7</ele>
        <time>2015-08-22T21:30:37Z</time>
      </trkpt>
      <trkpt lat="45.25531" lon="5.78015">
        <ele>1027.7</ele>
        <time>2015-08-22T21:30:39Z</time>
      </trkpt>
      <trkpt lat="45.25528" lon="5.78013">
        <ele>1028.1</ele>
        <time>2015-08-22T21:30:41Z</time>
      </trkpt>
      <trkpt lat="45.25526" lon="5.78012">
        <ele>1028.2</ele>
        <time>2015-08-22T21:30:43Z</time>
      </trkpt>
      <trkpt lat="45.25522" lon="5.78016">
        <ele>1030.4</ele>
        <time>2015-08-22T21:30:50Z</time>
      </trkpt>
      <trkpt lat="45.2552" lon="5.78022">
        <ele>1032.4</ele>
        <time>2015-08-22T21:30:54Z</time>
      </trkpt>
      <trkpt lat="45.25519" lon="5.78023">
        <ele>1032.9</ele>
        <time>2015-08-22T21:30:55Z</time>
      </trkpt>
      <trkpt lat="45.25517" lon="5.78025">
        <ele>1033.7</ele>
        <time>2015-08-22T21:30:56Z</time>
      </trkpt>
      <trkpt lat="45.25515" lon="5.78028">
        <ele>1035.1</ele>
        <time>2015-08-22T21:31:00Z</time>
      </trkpt>
      <trkpt lat="45.25506" lon="5.78031">
        <ele>1038.1</ele>
        <time>2015-08-22T21:31:06Z</time>
      </trkpt>
      <trkpt lat="45.25504" lon="5.78028">
        <ele>1037.9</ele>
        <time>2015-08-22T21:31:11Z</time>
      </trkpt>
      <trkpt lat="45.25499" lon="5.78026">
        <ele>1038.9</ele>
        <time>2015-08-22T21:31:15Z</time>
      </trkpt>
      <trkpt lat="45.25494" lon="5.78023">
        <ele>1039.5</ele>
        <time>2015-08-22T21:31:20Z</time>
      </trkpt>
      <trkpt lat="45.25489" lon="5.78021">
        <ele>1040.1</ele>
        <time>2015-08-22T21:31:25Z</time>
      </trkpt>
      <trkpt lat="45.25489" lon="5.78019">
        <ele>1039.8</ele>
        <time>2015-08-22T21:31:26Z</time>
      </trkpt>
      <trkpt lat="45.25489" lon="5.78018">
        <ele>1039.6</ele>
        <time>2015-08-22T21:31:28Z</time>
      </trkpt>
      <trkpt lat="45.25485" lon="5.78014">
        <ele>1039.7</ele>
        <time>2015-08-22T21:31:32Z</time>
      </trkpt>
      <trkpt lat="45.25482" lon="5.78012">
        <ele>1040</ele>
        <time>2015-08-22T21:31:35Z</time>
      </trkpt>
      <trkpt lat="45.25479" lon="5.78011">
        <ele>1040.3</ele>
        <time>2015-08-22T21:31:39Z</time>
      </trkpt>
      <trkpt lat="45.25472" lon="5.78005">
        <ele>1040.6</ele>
        <time>2015-08-22T21:31:44Z</time>
      </trkpt>
      <trkpt lat="45.25471" lon="5.78005">
        <ele>1040.9</ele>
        <time>2015-08-22T21:31:45Z</time>
      </trkpt>
      <trkpt lat="45.25465" lon="5.78003">
        <ele>1042</ele>
        <time>2015-08-22T21:31:49Z</time>
      </trkpt>
      <trkpt lat="45.25449" lon="5.77998">
        <ele>1046.4</ele>
        <time>2015-08-22T21:31:56Z</time>
      </trkpt>
      <trkpt lat="45.25433" lon="5.77997">
        <ele>1052.7</ele>
        <time>2015-08-22T21:32:02Z</time>
      </trkpt>
      <trkpt lat="45.25418" lon="5.77998">
        <ele>1059.2</ele>
        <time>2015-08-22T21:32:09Z</time>
      </trkpt>
      <trkpt lat="45.25411" lon="5.77994">
        <ele>1061.5</ele>
        <time>2015-08-22T21:32:13Z</time>
      </trkpt>
      <trkpt lat="45.25411" lon="5.77995">
        <ele>1061.7</ele>
        <time>2015-08-22T21:32:14Z</time>
      </trkpt>
      <trkpt lat="45.25407" lon="5.77997">
        <ele>1063.7</ele>
        <time>2015-08-22T21:32:18Z</time>
      </trkpt>
      <trkpt lat="45.25404" lon="5.78001">
        <ele>1065.4</ele>
        <time>2015-08-22T21:32:22Z</time>
      </trkpt>
      <trkpt lat="45.25404" lon="5.78">
        <ele>1065.2</ele>
        <time>2015-08-22T21:32:24Z</time>
      </trkpt>
      <trkpt lat="45.254" lon="5.77999">
        <ele>1066.6</ele>
        <time>2015-08-22T21:32:28Z</time>
      </trkpt>
      <trkpt lat="45.25399" lon="5.78001">
        <ele>1067.3</ele>
        <time>2015-08-22T21:32:30Z</time>
      </trkpt>
      <trkpt lat="45.25399" lon="5.78002">
        <ele>1067.4</ele>
        <time>2015-08-22T21:32:31Z</time>
      </trkpt>
      <trkpt lat="45.25398" lon="5.78003">
        <ele>1068</ele>
        <time>2015-08-22T21:32:35Z</time>
      </trkpt>
      <trkpt lat="45.25393" lon="5.78004">
        <ele>1070.1</ele>
        <time>2015-08-22T21:32:39Z</time>
      </trkpt>
      <trkpt lat="45.25383" lon="5.78001">
        <ele>1073.7</ele>
        <time>2015-08-22T21:32:44Z</time>
      </trkpt>
      <trkpt lat="45.25374" lon="5.77999">
        <ele>1077.4</ele>
        <time>2015-08-22T21:32:51Z</time>
      </trkpt>
      <trkpt lat="45.25369" lon="5.77996">
        <ele>1078.6</ele>
        <time>2015-08-22T21:32:54Z</time>
      </trkpt>
      <trkpt lat="45.25366" lon="5.77995">
        <ele>1079.6</ele>
        <time>2015-08-22T21:32:55Z</time>
      </trkpt>
      <trkpt lat="45.2536" lon="5.77995">
        <ele>1081.6</ele>
        <time>2015-08-22T21:33:00Z</time>
      </trkpt>
      <trkpt lat="45.25358" lon="5.77995">
        <ele>1082.5</ele>
        <time>2015-08-22T21:33:06Z</time>
      </trkpt>
      <trkpt lat="45.25348" lon="5.77989">
        <ele>1085.1</ele>
        <time>2015-08-22T21:33:12Z</time>
      </trkpt>
      <trkpt lat="45.25346" lon="5.77986">
        <ele>1085.6</ele>
        <time>2015-08-22T21:33:13Z</time>
      </trkpt>
      <trkpt lat="45.25343" lon="5.77989">
        <ele>1086.7</ele>
        <time>2015-08-22T21:33:16Z</time>
      </trkpt>
      <trkpt lat="45.25344" lon="5.77991">
        <ele>1086.8</ele>
        <time>2015-08-22T21:33:17Z</time>
      </trkpt>
      <trkpt lat="45.2534" lon="5.77992">
        <ele>1088.1</ele>
        <time>2015-08-22T21:33:24Z</time>
      </trkpt>
      <trkpt lat="45.25331" lon="5.77988">
        <ele>1090.8</ele>
        <time>2015-08-22T21:33:30Z</time>
      </trkpt>
      <trkpt lat="45.25322" lon="5.77985">
        <ele>1093.7</ele>
        <time>2015-08-22T21:33:37Z</time>
      </trkpt>
      <trkpt lat="45.25313" lon="5.77985">
        <ele>1096.5</ele>
        <time>2015-08-22T21:33:43Z</time>
      </trkpt>
      <trkpt lat="45.25312" lon="5.77985">
        <ele>1096.9</ele>
        <time>2015-08-22T21:33:49Z</time>
      </trkpt>
      <trkpt lat="45.25309" lon="5.77982">
        <ele>1097.8</ele>
        <time>2015-08-22T21:33:59Z</time>
      </trkpt>
      <trkpt lat="45.25318" lon="5.77979">
        <ele>1094.3</ele>
        <time>2015-08-22T21:34:11Z</time>
      </trkpt>
      <trkpt lat="45.25321" lon="5.7798">
        <ele>1093.5</ele>
        <time>2015-08-22T21:34:12Z</time>
      </trkpt>
      <trkpt lat="45.2533" lon="5.77976">
        <ele>1089.9</ele>
        <time>2015-08-22T21:34:16Z</time>
      </trkpt>
      <trkpt lat="45.25332" lon="5.77975">
        <ele>1089.1</ele>
        <time>2015-08-22T21:34:17Z</time>
      </trkpt>
      <trkpt lat="45.25332" lon="5.77975">
        <ele>1089</ele>
        <time>2015-08-22T21:34:18Z</time>
      </trkpt>
      <trkpt lat="45.25334" lon="5.77974">
        <ele>1088.4</ele>
        <time>2015-08-22T21:34:20Z</time>
      </trkpt>
      <trkpt lat="45.25335" lon="5.7797">
        <ele>1087.7</ele>
        <time>2015-08-22T21:34:27Z</time>
      </trkpt>
      <trkpt lat="45.25333" lon="5.77965">
        <ele>1087.7</ele>
        <time>2015-08-22T21:34:32Z</time>
      </trkpt>
      <trkpt lat="45.25332" lon="5.77953">
        <ele>1086.7</ele>
        <time>2015-08-22T21:34:38Z</time>
      </trkpt>
      <trkpt lat="45.2533" lon="5.77946">
        <ele>1086.1</ele>
        <time>2015-08-22T21:34:43Z</time>
      </trkpt>
      <trkpt lat="45.25329" lon="5.77935">
        <ele>1084.6</ele>
        <time>2015-08-22T21:34:48Z</time>
      </trkpt>
      <trkpt lat="45.25329" lon="5.77934">
        <ele>1084.5</ele>
        <time>2015-08-22T21:34:49Z</time>
      </trkpt>
      <trkpt lat="45.25326" lon="5.77922">
        <ele>1083.4</ele>
        <time>2015-08-22T21:34:54Z</time>
      </trkpt>
      <trkpt lat="45.25325" lon="5.77913">
        <ele>1082.2</ele>
        <time>2015-08-22T21:34:59Z</time>
      </trkpt>
      <trkpt lat="45.25324" lon="5.77911">
        <ele>1081.9</ele>
        <time>2015-08-22T21:35:00Z</time>
      </trkpt>
      <trkpt lat="45.25321" lon="5.77902">
        <ele>1081.2</ele>
        <time>2015-08-22T21:35:06Z</time>
      </trkpt>
      <trkpt lat="45.25317" lon="5.77894">
        <ele>1080.8</ele>
        <time>2015-08-22T21:35:11Z</time>
      </trkpt>
      <trkpt lat="45.25315" lon="5.77887">
        <ele>1079.7</ele>
        <time>2015-08-22T21:35:15Z</time>
      </trkpt>
      <trkpt lat="45.25315" lon="5.77887">
        <ele>1079.6</ele>
        <time>2015-08-22T21:35:16Z</time>
      </trkpt>
      <trkpt lat="45.25314" lon="5.77878">
        <ele>1078.2</ele>
        <time>2015-08-22T21:35:20Z</time>
      </trkpt>
      <trkpt lat="45.25314" lon="5.77876">
        <ele>1077.9</ele>
        <time>2015-08-22T21:35:21Z</time>
      </trkpt>
      <trkpt lat="45.25313" lon="5.77865">
        <ele>1076.4</ele>
        <time>2015-08-22T21:35:25Z</time>
      </trkpt>
      <trkpt lat="45.25313" lon="5.77859">
        <ele>1075.8</ele>
        <time>2015-08-22T21:35:27Z</time>
      </trkpt>
      <trkpt lat="45.25312" lon="5.77852">
        <ele>1075</ele>
        <time>2015-08-22T21:35:30Z</time>
      </trkpt>
      <trkpt lat="45.25308" lon="5.77846">
        <ele>1074.9</ele>
        <time>2015-08-22T21:35:34Z</time>
      </trkpt>
      <trkpt lat="45.25305" lon="5.77843">
        <ele>1074.9</ele>
        <time>2015-08-22T21:35:36Z</time>
      </trkpt>
      <trkpt lat="45.25306" lon="5.77835">
        <ele>1073.6</ele>
        <time>2015-08-22T21:35:41Z</time>
      </trkpt>
      <trkpt lat="45.25306" lon="5.77834">
        <ele>1073.5</ele>
        <time>2015-08-22T21:35:42Z</time>
      </trkpt>
      <trkpt lat="45.25305" lon="5.77825">
        <ele>1072.4</ele>
        <time>2015-08-22T21:35:47Z</time>
      </trkpt>
      <trkpt lat="45.25308" lon="5.77815">
        <ele>1070.4</ele>
        <time>2015-08-22T21:35:52Z</time>
      </trkpt>
      <trkpt lat="45.2531" lon="5.77806">
        <ele>1068.9</ele>
        <time>2015-08-22T21:35:57Z</time>
      </trkpt>
      <trkpt lat="45.25309" lon="5.77793">
        <ele>1067.4</ele>
        <time>2015-08-22T21:36:03Z</time>
      </trkpt>
      <trkpt lat="45.25306" lon="5.77783">
        <ele>1066.2</ele>
        <time>2015-08-22T21:36:08Z</time>
      </trkpt>
      <trkpt lat="45.25306" lon="5.7778">
        <ele>1065.8</ele>
        <time>2015-08-22T21:36:09Z</time>
      </trkpt>
      <trkpt lat="45.25306" lon="5.77764">
        <ele>1063.2</ele>
        <time>2015-08-22T21:36:15Z</time>
      </trkpt>
      <trkpt lat="45.25306" lon="5.77745">
        <ele>1060.2</ele>
        <time>2015-08-22T21:36:23Z</time>
      </trkpt>
      <trkpt lat="45.25299" lon="5.77726">
        <ele>1058</ele>
        <time>2015-08-22T21:36:32Z</time>
      </trkpt>
      <trkpt lat="45.25294" lon="5.77707">
        <ele>1055.2</ele>
        <time>2015-08-22T21:36:41Z</time>
      </trkpt>
      <trkpt lat="45.25289" lon="5.77701">
        <ele>1053.7</ele>
        <time>2015-08-22T21:36:45Z</time>
      </trkpt>
      <trkpt lat="45.25286" lon="5.77698">
        <ele>1052.7</ele>
        <time>2015-08-22T21:36:47Z</time>
      </trkpt>
      <trkpt lat="45.25279" lon="5.77693">
        <ele>1051.5</ele>
        <time>2015-08-22T21:36:52Z</time>
      </trkpt>
      <trkpt lat="45.25277" lon="5.77692">
        <ele>1051.1</ele>
        <time>2015-08-22T21:36:53Z</time>
      </trkpt>
      <trkpt lat="45.25266" lon="5.77684">
        <ele>1049</ele>
        <time>2015-08-22T21:37:01Z</time>
      </trkpt>
      <trkpt lat="45.2526" lon="5.77679">
        <ele>1047.8</ele>
        <time>2015-08-22T21:37:06Z</time>
      </trkpt>
      <trkpt lat="45.25254" lon="5.77674">
        <ele>1046.4</ele>
        <time>2015-08-22T21:37:12Z</time>
      </trkpt>
      <trkpt lat="45.25249" lon="5.77668">
        <ele>1044.7</ele>
        <time>2015-08-22T21:37:19Z</time>
      </trkpt>
      <trkpt lat="45.25242" lon="5.77659">
        <ele>1042.3</ele>
        <time>2015-08-22T21:37:25Z</time>
      </trkpt>
      <trkpt lat="45.2524" lon="5.77656">
        <ele>1041.3</ele>
        <time>2015-08-22T21:37:28Z</time>
      </trkpt>
      <trkpt lat="45.25237" lon="5.77651">
        <ele>1039.7</ele>
        <time>2015-08-22T21:37:31Z</time>
      </trkpt>
      <trkpt lat="45.25236" lon="5.7765">
        <ele>1039.4</ele>
        <time>2015-08-22T21:37:32Z</time>
      </trkpt>
      <trkpt lat="45.25233" lon="5.7764">
        <ele>1036.3</ele>
        <time>2015-08-22T21:37:38Z</time>
      </trkpt>
      <trkpt lat="45.25226" lon="5.77627">
        <ele>1032.2</ele>
        <time>2015-08-22T21:37:46Z</time>
      </trkpt>
      <trkpt lat="45.2522" lon="5.77616">
        <ele>1030.3</ele>
        <time>2015-08-22T21:37:53Z</time>
      </trkpt>
      <trkpt lat="45.25214" lon="5.77605">
        <ele>1028.3</ele>
        <time>2015-08-22T21:38:01Z</time>
      </trkpt>
      <trkpt lat="45.25211" lon="5.77601">
        <ele>1027.6</ele>
        <time>2015-08-22T21:38:04Z</time>
      </trkpt>
      <trkpt lat="45.25211" lon="5.77595">
        <ele>1026.2</ele>
        <time>2015-08-22T21:38:08Z</time>
      </trkpt>
      <trkpt lat="45.25208" lon="5.77583">
        <ele>1024</ele>
        <time>2015-08-22T21:38:14Z</time>
      </trkpt>
      <trkpt lat="45.25208" lon="5.77575">
        <ele>1022.3</ele>
        <time>2015-08-22T21:38:18Z</time>
      </trkpt>
      <trkpt lat="45.25209" lon="5.77571">
        <ele>1021.4</ele>
        <time>2015-08-22T21:38:20Z</time>
      </trkpt>
      <trkpt lat="45.2521" lon="5.77561">
        <ele>1019</ele>
        <time>2015-08-22T21:38:25Z</time>
      </trkpt>
      <trkpt lat="45.2521" lon="5.77551">
        <ele>1016.9</ele>
        <time>2015-08-22T21:38:30Z</time>
      </trkpt>
      <trkpt lat="45.25212" lon="5.77536">
        <ele>1014.6</ele>
        <time>2015-08-22T21:38:38Z</time>
      </trkpt>
      <trkpt lat="45.25211" lon="5.77519">
        <ele>1013.6</ele>
        <time>2015-08-22T21:38:45Z</time>
      </trkpt>
      <trkpt lat="45.25204" lon="5.77506">
        <ele>1014.2</ele>
        <time>2015-08-22T21:38:52Z</time>
      </trkpt>
      <trkpt lat="45.25196" lon="5.77493">
        <ele>1016.4</ele>
        <time>2015-08-22T21:38:59Z</time>
      </trkpt>
      <trkpt lat="45.2519" lon="5.77479">
        <ele>1017.9</ele>
        <time>2015-08-22T21:39:04Z</time>
      </trkpt>
      <trkpt lat="45.25185" lon="5.77466">
        <ele>1019.4</ele>
        <time>2015-08-22T21:39:09Z</time>
      </trkpt>
      <trkpt lat="45.25179" lon="5.77449">
        <ele>1020.6</ele>
        <time>2015-08-22T21:39:15Z</time>
      </trkpt>
      <trkpt lat="45.25175" lon="5.77431">
        <ele>1020.6</ele>
        <time>2015-08-22T21:39:21Z</time>
      </trkpt>
      <trkpt lat="45.25169" lon="5.77416">
        <ele>1020.8</ele>
        <time>2015-08-22T21:39:25Z</time>
      </trkpt>
      <trkpt lat="45.25166" lon="5.77401">
        <ele>1020.2</ele>
        <time>2015-08-22T21:39:30Z</time>
      </trkpt>
      <trkpt lat="45.25163" lon="5.77383">
        <ele>1018.9</ele>
        <time>2015-08-22T21:39:36Z</time>
      </trkpt>
      <trkpt lat="45.25163" lon="5.77375">
        <ele>1018.2</ele>
        <time>2015-08-22T21:39:39Z</time>
      </trkpt>
      <trkpt lat="45.25162" lon="5.7736">
        <ele>1015.6</ele>
        <time>2015-08-22T21:39:44Z</time>
      </trkpt>
      <trkpt lat="45.25163" lon="5.77343">
        <ele>1012.4</ele>
        <time>2015-08-22T21:39:50Z</time>
      </trkpt>
      <trkpt lat="45.25164" lon="5.7733">
        <ele>1009.7</ele>
        <time>2015-08-22T21:39:55Z</time>
      </trkpt>
      <trkpt lat="45.25165" lon="5.77315">
        <ele>1006.9</ele>
        <time>2015-08-22T21:40:00Z</time>
      </trkpt>
      <trkpt lat="45.25164" lon="5.77296">
        <ele>1003.6</ele>
        <time>2015-08-22T21:40:07Z</time>
      </trkpt>
      <trkpt lat="45.25162" lon="5.77284">
        <ele>1002.4</ele>
        <time>2015-08-22T21:40:12Z</time>
      </trkpt>
      <trkpt lat="45.25159" lon="5.7727">
        <ele>1001.1</ele>
        <time>2015-08-22T21:40:17Z</time>
      </trkpt>
      <trkpt lat="45.25154" lon="5.77259">
        <ele>1000.6</ele>
        <time>2015-08-22T21:40:22Z</time>
      </trkpt>
      <trkpt lat="45.25145" lon="5.77245">
        <ele>1000</ele>
        <time>2015-08-22T21:40:28Z</time>
      </trkpt>
      <trkpt lat="45.25136" lon="5.77235">
        <ele>999.7</ele>
        <time>2015-08-22T21:40:34Z</time>
      </trkpt>
      <trkpt lat="45.25121" lon="5.77219">
        <ele>998.9</ele>
        <time>2015-08-22T21:40:42Z</time>
      </trkpt>
      <trkpt lat="45.25111" lon="5.77206">
        <ele>997.9</ele>
        <time>2015-08-22T21:40:48Z</time>
      </trkpt>
      <trkpt lat="45.25103" lon="5.77196">
        <ele>997.9</ele>
        <time>2015-08-22T21:40:53Z</time>
      </trkpt>
      <trkpt lat="45.25094" lon="5.77189">
        <ele>998.3</ele>
        <time>2015-08-22T21:40:59Z</time>
      </trkpt>
      <trkpt lat="45.25085" lon="5.77182">
        <ele>998.9</ele>
        <time>2015-08-22T21:41:05Z</time>
      </trkpt>
      <trkpt lat="45.25078" lon="5.77172">
        <ele>999.2</ele>
        <time>2015-08-22T21:41:10Z</time>
      </trkpt>
      <trkpt lat="45.25069" lon="5.77161">
        <ele>999.8</ele>
        <time>2015-08-22T21:41:16Z</time>
      </trkpt>
      <trkpt lat="45.2506" lon="5.77149">
        <ele>1000.7</ele>
        <time>2015-08-22T21:41:23Z</time>
      </trkpt>
      <trkpt lat="45.25055" lon="5.77143">
        <ele>1001.2</ele>
        <time>2015-08-22T21:41:27Z</time>
      </trkpt>
      <trkpt lat="45.25054" lon="5.77142">
        <ele>1001.3</ele>
        <time>2015-08-22T21:41:28Z</time>
      </trkpt>
      <trkpt lat="45.25046" lon="5.77133">
        <ele>1002.4</ele>
        <time>2015-08-22T21:41:32Z</time>
      </trkpt>
      <trkpt lat="45.25043" lon="5.7713">
        <ele>1002.8</ele>
        <time>2015-08-22T21:41:33Z</time>
      </trkpt>
      <trkpt lat="45.25037" lon="5.77117">
        <ele>1002.1</ele>
        <time>2015-08-22T21:41:38Z</time>
      </trkpt>
      <trkpt lat="45.25032" lon="5.771">
        <ele>1000.6</ele>
        <time>2015-08-22T21:41:44Z</time>
      </trkpt>
      <trkpt lat="45.25026" lon="5.77082">
        <ele>999.3</ele>
        <time>2015-08-22T21:41:51Z</time>
      </trkpt>
      <trkpt lat="45.25022" lon="5.77066">
        <ele>998.3</ele>
        <time>2015-08-22T21:41:57Z</time>
      </trkpt>
      <trkpt lat="45.2502" lon="5.77053">
        <ele>997.5</ele>
        <time>2015-08-22T21:42:02Z</time>
      </trkpt>
      <trkpt lat="45.25016" lon="5.77042">
        <ele>997.2</ele>
        <time>2015-08-22T21:42:07Z</time>
      </trkpt>
      <trkpt lat="45.25005" lon="5.7703">
        <ele>997.7</ele>
        <time>2015-08-22T21:42:12Z</time>
      </trkpt>
      <trkpt lat="45.24998" lon="5.77017">
        <ele>998</ele>
        <time>2015-08-22T21:42:18Z</time>
      </trkpt>
      <trkpt lat="45.24992" lon="5.77001">
        <ele>998.4</ele>
        <time>2015-08-22T21:42:24Z</time>
      </trkpt>
      <trkpt lat="45.24985" lon="5.76987">
        <ele>999.4</ele>
        <time>2015-08-22T21:42:29Z</time>
      </trkpt>
      <trkpt lat="45.24981" lon="5.76971">
        <ele>1000.1</ele>
        <time>2015-08-22T21:42:35Z</time>
      </trkpt>
      <trkpt lat="45.24974" lon="5.76956">
        <ele>1001.3</ele>
        <time>2015-08-22T21:42:42Z</time>
      </trkpt>
      <trkpt lat="45.24967" lon="5.76947">
        <ele>1000.6</ele>
        <time>2015-08-22T21:42:47Z</time>
      </trkpt>
      <trkpt lat="45.24958" lon="5.76943">
        <ele>1001.5</ele>
        <time>2015-08-22T21:42:52Z</time>
      </trkpt>
      <trkpt lat="45.24949" lon="5.76948">
        <ele>1004.2</ele>
        <time>2015-08-22T21:42:59Z</time>
      </trkpt>
      <trkpt lat="45.24943" lon="5.76953">
        <ele>1006.5</ele>
        <time>2015-08-22T21:43:05Z</time>
      </trkpt>
      <trkpt lat="45.24935" lon="5.76955">
        <ele>1008.5</ele>
        <time>2015-08-22T21:43:10Z</time>
      </trkpt>
      <trkpt lat="45.24933" lon="5.76954">
        <ele>1008.5</ele>
        <time>2015-08-22T21:43:13Z</time>
      </trkpt>
      <trkpt lat="45.24932" lon="5.76949">
        <ele>1007.8</ele>
        <time>2015-08-22T21:43:15Z</time>
      </trkpt>
      <trkpt lat="45.24931" lon="5.76946">
        <ele>1007.1</ele>
        <time>2015-08-22T21:43:17Z</time>
      </trkpt>
      <trkpt lat="45.24931" lon="5.76942">
        <ele>1006.2</ele>
        <time>2015-08-22T21:43:20Z</time>
      </trkpt>
      <trkpt lat="45.24931" lon="5.76939">
        <ele>1005.6</ele>
        <time>2015-08-22T21:43:21Z</time>
      </trkpt>
      <trkpt lat="45.24929" lon="5.76931">
        <ele>1004.1</ele>
        <time>2015-08-22T21:43:27Z</time>
      </trkpt>
      <trkpt lat="45.24928" lon="5.7693">
        <ele>1004</ele>
        <time>2015-08-22T21:43:28Z</time>
      </trkpt>
      <trkpt lat="45.24924" lon="5.76923">
        <ele>1003.1</ele>
        <time>2015-08-22T21:43:34Z</time>
      </trkpt>
      <trkpt lat="45.24916" lon="5.76908">
        <ele>1001.2</ele>
        <time>2015-08-22T21:43:43Z</time>
      </trkpt>
      <trkpt lat="45.24911" lon="5.76899">
        <ele>1000.2</ele>
        <time>2015-08-22T21:43:50Z</time>
      </trkpt>
      <trkpt lat="45.24905" lon="5.76896">
        <ele>1000.4</ele>
        <time>2015-08-22T21:43:56Z</time>
      </trkpt>
      <trkpt lat="45.24898" lon="5.76892">
        <ele>1000.8</ele>
        <time>2015-08-22T21:44:02Z</time>
      </trkpt>
      <trkpt lat="45.24896" lon="5.76892">
        <ele>1001.2</ele>
        <time>2015-08-22T21:44:07Z</time>
      </trkpt>
      <trkpt lat="45.24892" lon="5.76892">
        <ele>1001.6</ele>
        <time>2015-08-22T21:44:13Z</time>
      </trkpt>
      <trkpt lat="45.24887" lon="5.76889">
        <ele>1002.1</ele>
        <time>2015-08-22T21:44:18Z</time>
      </trkpt>
      <trkpt lat="45.24878" lon="5.76889">
        <ele>1003.5</ele>
        <time>2015-08-22T21:44:23Z</time>
      </trkpt>
      <trkpt lat="45.24876" lon="5.7689">
        <ele>1004.1</ele>
        <time>2015-08-22T21:44:25Z</time>
      </trkpt>
      <trkpt lat="45.24874" lon="5.76889">
        <ele>1004.2</ele>
        <time>2015-08-22T21:44:27Z</time>
      </trkpt>
      <trkpt lat="45.24867" lon="5.76889">
        <ele>1003.3</ele>
        <time>2015-08-22T21:44:33Z</time>
      </trkpt>
      <trkpt lat="45.24859" lon="5.76889">
        <ele>1002.4</ele>
        <time>2015-08-22T21:44:39Z</time>
      </trkpt>
      <trkpt lat="45.24854" lon="5.7689">
        <ele>1002.2</ele>
        <time>2015-08-22T21:44:44Z</time>
      </trkpt>
      <trkpt lat="45.24853" lon="5.76891">
        <ele>1002.2</ele>
        <time>2015-08-22T21:44:45Z</time>
      </trkpt>
      <trkpt lat="45.24851" lon="5.76893">
        <ele>1002.4</ele>
        <time>2015-08-22T21:44:48Z</time>
      </trkpt>
      <trkpt lat="45.24847" lon="5.76893">
        <ele>1002.2</ele>
        <time>2015-08-22T21:44:52Z</time>
      </trkpt>
      <trkpt lat="45.24843" lon="5.76899">
        <ele>1003.3</ele>
        <time>2015-08-22T21:44:57Z</time>
      </trkpt>
      <trkpt lat="45.2484" lon="5.76901">
        <ele>1003.4</ele>
        <time>2015-08-22T21:45:00Z</time>
      </trkpt>
      <trkpt lat="45.24838" lon="5.76903">
        <ele>1003.6</ele>
        <time>2015-08-22T21:45:02Z</time>
      </trkpt>
      <trkpt lat="45.24831" lon="5.76911">
        <ele>1005.2</ele>
        <time>2015-08-22T21:45:08Z</time>
      </trkpt>
      <trkpt lat="45.24824" lon="5.76919">
        <ele>1006.5</ele>
        <time>2015-08-22T21:45:14Z</time>
      </trkpt>
      <trkpt lat="45.24818" lon="5.76926">
        <ele>1008</ele>
        <time>2015-08-22T21:45:20Z</time>
      </trkpt>
      <trkpt lat="45.24812" lon="5.76929">
        <ele>1008.3</ele>
        <time>2015-08-22T21:45:25Z</time>
      </trkpt>
      <trkpt lat="45.2481" lon="5.76932">
        <ele>1008.8</ele>
        <time>2015-08-22T21:45:27Z</time>
      </trkpt>
      <trkpt lat="45.24802" lon="5.76939">
        <ele>1010.3</ele>
        <time>2015-08-22T21:45:32Z</time>
      </trkpt>
      <trkpt lat="45.24802" lon="5.76942">
        <ele>1010.9</ele>
        <time>2015-08-22T21:45:33Z</time>
      </trkpt>
      <trkpt lat="45.24801" lon="5.76946">
        <ele>1012</ele>
        <time>2015-08-22T21:45:36Z</time>
      </trkpt>
      <trkpt lat="45.24796" lon="5.76955">
        <ele>1014.3</ele>
        <time>2015-08-22T21:45:42Z</time>
      </trkpt>
      <trkpt lat="45.24792" lon="5.76957">
        <ele>1014.5</ele>
        <time>2015-08-22T21:45:44Z</time>
      </trkpt>
      <trkpt lat="45.2479" lon="5.76959">
        <ele>1015</ele>
        <time>2015-08-22T21:45:46Z</time>
      </trkpt>
      <trkpt lat="45.24788" lon="5.7696">
        <ele>1015.2</ele>
        <time>2015-08-22T21:45:47Z</time>
      </trkpt>
      <trkpt lat="45.24782" lon="5.76963">
        <ele>1015.6</ele>
        <time>2015-08-22T21:45:52Z</time>
      </trkpt>
      <trkpt lat="45.2478" lon="5.76964">
        <ele>1015.6</ele>
        <time>2015-08-22T21:45:53Z</time>
      </trkpt>
      <trkpt lat="45.24774" lon="5.76966">
        <ele>1015.9</ele>
        <time>2015-08-22T21:45:57Z</time>
      </trkpt>
      <trkpt lat="45.24771" lon="5.76969">
        <ele>1016.4</ele>
        <time>2015-08-22T21:46:00Z</time>
      </trkpt>
      <trkpt lat="45.2477" lon="5.76967">
        <ele>1015.9</ele>
        <time>2015-08-22T21:46:01Z</time>
      </trkpt>
      <trkpt lat="45.24768" lon="5.76968">
        <ele>1016</ele>
        <time>2015-08-22T21:46:02Z</time>
      </trkpt>
      <trkpt lat="45.2476" lon="5.76974">
        <ele>1017</ele>
        <time>2015-08-22T21:46:08Z</time>
      </trkpt>
      <trkpt lat="45.24754" lon="5.7698">
        <ele>1017.9</ele>
        <time>2015-08-22T21:46:14Z</time>
      </trkpt>
      <trkpt lat="45.24744" lon="5.76987">
        <ele>1018.9</ele>
        <time>2015-08-22T21:46:20Z</time>
      </trkpt>
      <trkpt lat="45.24741" lon="5.7699">
        <ele>1019.3</ele>
        <time>2015-08-22T21:46:23Z</time>
      </trkpt>
      <trkpt lat="45.24738" lon="5.76993">
        <ele>1019.8</ele>
        <time>2015-08-22T21:46:26Z</time>
      </trkpt>
      <trkpt lat="45.2473" lon="5.77001">
        <ele>1021.2</ele>
        <time>2015-08-22T21:46:33Z</time>
      </trkpt>
      <trkpt lat="45.24722" lon="5.77011">
        <ele>1022.7</ele>
        <time>2015-08-22T21:46:41Z</time>
      </trkpt>
      <trkpt lat="45.24719" lon="5.77014">
        <ele>1023.2</ele>
        <time>2015-08-22T21:46:44Z</time>
      </trkpt>
      <trkpt lat="45.24717" lon="5.77017">
        <ele>1023.7</ele>
        <time>2015-08-22T21:46:46Z</time>
      </trkpt>
      <trkpt lat="45.24711" lon="5.7702">
        <ele>1024</ele>
        <time>2015-08-22T21:46:52Z</time>
      </trkpt>
      <trkpt lat="45.2471" lon="5.7702">
        <ele>1023.9</ele>
        <time>2015-08-22T21:46:53Z</time>
      </trkpt>
      <trkpt lat="45.24703" lon="5.77024">
        <ele>1025.4</ele>
        <time>2015-08-22T21:46:58Z</time>
      </trkpt>
      <trkpt lat="45.24699" lon="5.77026">
        <ele>1026.3</ele>
        <time>2015-08-22T21:47:01Z</time>
      </trkpt>
      <trkpt lat="45.24699" lon="5.77026">
        <ele>1026.3</ele>
        <time>2015-08-22T21:47:02Z</time>
      </trkpt>
      <trkpt lat="45.24691" lon="5.77029">
        <ele>1028</ele>
        <time>2015-08-22T21:47:09Z</time>
      </trkpt>
      <trkpt lat="45.24688" lon="5.77031">
        <ele>1028.7</ele>
        <time>2015-08-22T21:47:11Z</time>
      </trkpt>
      <trkpt lat="45.24684" lon="5.77033">
        <ele>1029.6</ele>
        <time>2015-08-22T21:47:14Z</time>
      </trkpt>
      <trkpt lat="45.24683" lon="5.77033">
        <ele>1029.8</ele>
        <time>2015-08-22T21:47:15Z</time>
      </trkpt>
      <trkpt lat="45.24681" lon="5.77035">
        <ele>1030.5</ele>
        <time>2015-08-22T21:47:17Z</time>
      </trkpt>
      <trkpt lat="45.24678" lon="5.77038">
        <ele>1031.3</ele>
        <time>2015-08-22T21:47:20Z</time>
      </trkpt>
      <trkpt lat="45.24676" lon="5.77038">
        <ele>1031.6</ele>
        <time>2015-08-22T21:47:21Z</time>
      </trkpt>
      <trkpt lat="45.24673" lon="5.7704">
        <ele>1032.3</ele>
        <time>2015-08-22T21:47:25Z</time>
      </trkpt>
      <trkpt lat="45.24671" lon="5.7704">
        <ele>1032.7</ele>
        <time>2015-08-22T21:47:26Z</time>
      </trkpt>
      <trkpt lat="45.24665" lon="5.77041">
        <ele>1033.6</ele>
        <time>2015-08-22T21:47:30Z</time>
      </trkpt>
      <trkpt lat="45.24662" lon="5.77047">
        <ele>1035.9</ele>
        <time>2015-08-22T21:47:36Z</time>
      </trkpt>
      <trkpt lat="45.24653" lon="5.77053">
        <ele>1038.8</ele>
        <time>2015-08-22T21:47:42Z</time>
      </trkpt>
      <trkpt lat="45.24646" lon="5.77057">
        <ele>1040.6</ele>
        <time>2015-08-22T21:47:47Z</time>
      </trkpt>
      <trkpt lat="45.24645" lon="5.77058">
        <ele>1041</ele>
        <time>2015-08-22T21:47:48Z</time>
      </trkpt>
      <trkpt lat="45.24637" lon="5.77062">
        <ele>1043.2</ele>
        <time>2015-08-22T21:47:53Z</time>
      </trkpt>
      <trkpt lat="45.24631" lon="5.77068">
        <ele>1045.6</ele>
        <time>2015-08-22T21:47:59Z</time>
      </trkpt>
      <trkpt lat="45.24626" lon="5.77072">
        <ele>1047.1</ele>
        <time>2015-08-22T21:48:04Z</time>
      </trkpt>
      <trkpt lat="45.24624" lon="5.77073">
        <ele>1047.8</ele>
        <time>2015-08-22T21:48:06Z</time>
      </trkpt>
      <trkpt lat="45.24621" lon="5.77073">
        <ele>1048.2</ele>
        <time>2015-08-22T21:48:12Z</time>
      </trkpt>
      <trkpt lat="45.2462" lon="5.77075">
        <ele>1048.7</ele>
        <time>2015-08-22T21:48:14Z</time>
      </trkpt>
      <trkpt lat="45.24619" lon="5.77076">
        <ele>1049.2</ele>
        <time>2015-08-22T21:48:15Z</time>
      </trkpt>
      <trkpt lat="45.24613" lon="5.77077">
        <ele>1050</ele>
        <time>2015-08-22T21:48:18Z</time>
      </trkpt>
      <trkpt lat="45.24612" lon="5.77078">
        <ele>1050.5</ele>
        <time>2015-08-22T21:48:19Z</time>
      </trkpt>
      <trkpt lat="45.24606" lon="5.77084">
        <ele>1052.7</ele>
        <time>2015-08-22T21:48:25Z</time>
      </trkpt>
      <trkpt lat="45.24601" lon="5.77086">
        <ele>1053.7</ele>
        <time>2015-08-22T21:48:30Z</time>
      </trkpt>
      <trkpt lat="45.24599" lon="5.77087">
        <ele>1054.1</ele>
        <time>2015-08-22T21:48:32Z</time>
      </trkpt>
      <trkpt lat="45.24592" lon="5.77088">
        <ele>1054.9</ele>
        <time>2015-08-22T21:48:38Z</time>
      </trkpt>
      <trkpt lat="45.24586" lon="5.7709">
        <ele>1056.1</ele>
        <time>2015-08-22T21:48:44Z</time>
      </trkpt>
      <trkpt lat="45.24585" lon="5.7709">
        <ele>1056.1</ele>
        <time>2015-08-22T21:48:45Z</time>
      </trkpt>
      <trkpt lat="45.24583" lon="5.77095">
        <ele>1057.4</ele>
        <time>2015-08-22T21:48:50Z</time>
      </trkpt>
      <trkpt lat="45.24581" lon="5.77097">
        <ele>1058.1</ele>
        <time>2015-08-22T21:48:54Z</time>
      </trkpt>
      <trkpt lat="45.24577" lon="5.77101">
        <ele>1059.4</ele>
        <time>2015-08-22T21:49:01Z</time>
      </trkpt>
      <trkpt lat="45.24571" lon="5.77102">
        <ele>1060.2</ele>
        <time>2015-08-22T21:49:07Z</time>
      </trkpt>
      <trkpt lat="45.24565" lon="5.77104">
        <ele>1061.1</ele>
        <time>2015-08-22T21:49:12Z</time>
      </trkpt>
      <trkpt lat="45.24563" lon="5.77105">
        <ele>1061.5</ele>
        <time>2015-08-22T21:49:14Z</time>
      </trkpt>
      <trkpt lat="45.24558" lon="5.7711">
        <ele>1063</ele>
        <time>2015-08-22T21:49:20Z</time>
      </trkpt>
      <trkpt lat="45.24557" lon="5.77111">
        <ele>1063.2</ele>
        <time>2015-08-22T21:49:21Z</time>
      </trkpt>
      <trkpt lat="45.24553" lon="5.77112">
        <ele>1063.6</ele>
        <time>2015-08-22T21:49:25Z</time>
      </trkpt>
      <trkpt lat="45.24548" lon="5.7711">
        <ele>1063.7</ele>
        <time>2015-08-22T21:49:30Z</time>
      </trkpt>
      <trkpt lat="45.24548" lon="5.7711">
        <ele>1063.7</ele>
        <time>2015-08-22T21:49:31Z</time>
      </trkpt>
      <trkpt lat="45.24543" lon="5.7711">
        <ele>1063.9</ele>
        <time>2015-08-22T21:49:35Z</time>
      </trkpt>
      <trkpt lat="45.24541" lon="5.7711">
        <ele>1064.2</ele>
        <time>2015-08-22T21:49:37Z</time>
      </trkpt>
      <trkpt lat="45.24538" lon="5.77111">
        <ele>1065.3</ele>
        <time>2015-08-22T21:49:40Z</time>
      </trkpt>
      <trkpt lat="45.24535" lon="5.77111">
        <ele>1066.2</ele>
        <time>2015-08-22T21:49:43Z</time>
      </trkpt>
      <trkpt lat="45.24534" lon="5.77112">
        <ele>1066.6</ele>
        <time>2015-08-22T21:49:44Z</time>
      </trkpt>
      <trkpt lat="45.24528" lon="5.77117">
        <ele>1069.4</ele>
        <time>2015-08-22T21:49:51Z</time>
      </trkpt>
      <trkpt lat="45.24526" lon="5.77117">
        <ele>1069.8</ele>
        <time>2015-08-22T21:49:52Z</time>
      </trkpt>
      <trkpt lat="45.24523" lon="5.77122">
        <ele>1071.5</ele>
        <time>2015-08-22T21:49:56Z</time>
      </trkpt>
      <trkpt lat="45.24522" lon="5.77121">
        <ele>1071.6</ele>
        <time>2015-08-22T21:49:57Z</time>
      </trkpt>
      <trkpt lat="45.24521" lon="5.77122">
        <ele>1072.1</ele>
        <time>2015-08-22T21:49:58Z</time>
      </trkpt>
      <trkpt lat="45.24517" lon="5.77125">
        <ele>1073.8</ele>
        <time>2015-08-22T21:50:03Z</time>
      </trkpt>
      <trkpt lat="45.24515" lon="5.77126">
        <ele>1074.7</ele>
        <time>2015-08-22T21:50:05Z</time>
      </trkpt>
      <trkpt lat="45.24514" lon="5.77132">
        <ele>1077.1</ele>
        <time>2015-08-22T21:50:08Z</time>
      </trkpt>
      <trkpt lat="45.24509" lon="5.77136">
        <ele>1079.5</ele>
        <time>2015-08-22T21:50:14Z</time>
      </trkpt>
      <trkpt lat="45.24508" lon="5.77137">
        <ele>1080.1</ele>
        <time>2015-08-22T21:50:15Z</time>
      </trkpt>
      <trkpt lat="45.24506" lon="5.77138">
        <ele>1080.9</ele>
        <time>2015-08-22T21:50:16Z</time>
      </trkpt>
      <trkpt lat="45.24503" lon="5.77139">
        <ele>1082.3</ele>
        <time>2015-08-22T21:50:19Z</time>
      </trkpt>
      <trkpt lat="45.24497" lon="5.77137">
        <ele>1083.2</ele>
        <time>2015-08-22T21:50:24Z</time>
      </trkpt>
      <trkpt lat="45.24491" lon="5.77139">
        <ele>1085.4</ele>
        <time>2015-08-22T21:50:30Z</time>
      </trkpt>
      <trkpt lat="45.24488" lon="5.77139">
        <ele>1086.6</ele>
        <time>2015-08-22T21:50:33Z</time>
      </trkpt>
      <trkpt lat="45.24487" lon="5.77139">
        <ele>1086.6</ele>
        <time>2015-08-22T21:50:34Z</time>
      </trkpt>
      <trkpt lat="45.24486" lon="5.7714">
        <ele>1087.5</ele>
        <time>2015-08-22T21:50:37Z</time>
      </trkpt>
      <trkpt lat="45.24484" lon="5.77141">
        <ele>1088.2</ele>
        <time>2015-08-22T21:50:39Z</time>
      </trkpt>
      <trkpt lat="45.24482" lon="5.77142">
        <ele>1089</ele>
        <time>2015-08-22T21:50:41Z</time>
      </trkpt>
      <trkpt lat="45.24479" lon="5.77142">
        <ele>1089.9</ele>
        <time>2015-08-22T21:50:46Z</time>
      </trkpt>
      <trkpt lat="45.24478" lon="5.77143">
        <ele>1090.5</ele>
        <time>2015-08-22T21:50:48Z</time>
      </trkpt>
      <trkpt lat="45.24476" lon="5.77144">
        <ele>1091.5</ele>
        <time>2015-08-22T21:50:52Z</time>
      </trkpt>
      <trkpt lat="45.24475" lon="5.77144">
        <ele>1091.8</ele>
        <time>2015-08-22T21:50:53Z</time>
      </trkpt>
      <trkpt lat="45.24473" lon="5.77145">
        <ele>1092.4</ele>
        <time>2015-08-22T21:50:54Z</time>
      </trkpt>
      <trkpt lat="45.24469" lon="5.77144">
        <ele>1093.4</ele>
        <time>2015-08-22T21:50:57Z</time>
      </trkpt>
      <trkpt lat="45.24467" lon="5.77145">
        <ele>1094.2</ele>
        <time>2015-08-22T21:50:58Z</time>
      </trkpt>
      <trkpt lat="45.24465" lon="5.77144">
        <ele>1094.5</ele>
        <time>2015-08-22T21:50:59Z</time>
      </trkpt>
      <trkpt lat="45.24462" lon="5.77144">
        <ele>1095.3</ele>
        <time>2015-08-22T21:51:01Z</time>
      </trkpt>
      <trkpt lat="45.24459" lon="5.77145">
        <ele>1096.3</ele>
        <time>2015-08-22T21:51:04Z</time>
      </trkpt>
      <trkpt lat="45.24458" lon="5.77145">
        <ele>1096.7</ele>
        <time>2015-08-22T21:51:05Z</time>
      </trkpt>
      <trkpt lat="45.24454" lon="5.77143">
        <ele>1098.2</ele>
        <time>2015-08-22T21:51:10Z</time>
      </trkpt>
      <trkpt lat="45.24453" lon="5.77143">
        <ele>1098.3</ele>
        <time>2015-08-22T21:51:11Z</time>
      </trkpt>
      <trkpt lat="45.24452" lon="5.77142">
        <ele>1098.7</ele>
        <time>2015-08-22T21:51:13Z</time>
      </trkpt>
      <trkpt lat="45.2445" lon="5.77142">
        <ele>1099</ele>
        <time>2015-08-22T21:51:14Z</time>
      </trkpt>
      <trkpt lat="45.24447" lon="5.77143">
        <ele>1100.8</ele>
        <time>2015-08-22T21:51:18Z</time>
      </trkpt>
      <trkpt lat="45.24447" lon="5.77142">
        <ele>1100.8</ele>
        <time>2015-08-22T21:51:19Z</time>
      </trkpt>
      <trkpt lat="45.24446" lon="5.7714">
        <ele>1100.6</ele>
        <time>2015-08-22T21:51:25Z</time>
      </trkpt>
      <trkpt lat="45.24442" lon="5.77135">
        <ele>1100.7</ele>
        <time>2015-08-22T21:51:30Z</time>
      </trkpt>
      <trkpt lat="45.24437" lon="5.77133">
        <ele>1102.2</ele>
        <time>2015-08-22T21:51:35Z</time>
      </trkpt>
      <trkpt lat="45.24436" lon="5.77133">
        <ele>1102.5</ele>
        <time>2015-08-22T21:51:36Z</time>
      </trkpt>
      <trkpt lat="45.24433" lon="5.77129">
        <ele>1102.7</ele>
        <time>2015-08-22T21:51:38Z</time>
      </trkpt>
      <trkpt lat="45.2443" lon="5.77125">
        <ele>1102.7</ele>
        <time>2015-08-22T21:51:40Z</time>
      </trkpt>
      <trkpt lat="45.24429" lon="5.77122">
        <ele>1102.8</ele>
        <time>2015-08-22T21:51:45Z</time>
      </trkpt>
      <trkpt lat="45.24427" lon="5.7712">
        <ele>1103.2</ele>
        <time>2015-08-22T21:51:49Z</time>
      </trkpt>
      <trkpt lat="45.24422" lon="5.77114">
        <ele>1104.9</ele>
        <time>2015-08-22T21:51:54Z</time>
      </trkpt>
      <trkpt lat="45.2442" lon="5.77112">
        <ele>1105.3</ele>
        <time>2015-08-22T21:51:56Z</time>
      </trkpt>
      <trkpt lat="45.2441" lon="5.77106">
        <ele>1108.6</ele>
        <time>2015-08-22T21:52:02Z</time>
      </trkpt>
      <trkpt lat="45.24409" lon="5.77105">
        <ele>1109.1</ele>
        <time>2015-08-22T21:52:04Z</time>
      </trkpt>
      <trkpt lat="45.24407" lon="5.77104">
        <ele>1109.7</ele>
        <time>2015-08-22T21:52:07Z</time>
      </trkpt>
      <trkpt lat="45.24402" lon="5.77101">
        <ele>1111.4</ele>
        <time>2015-08-22T21:52:12Z</time>
      </trkpt>
      <trkpt lat="45.24401" lon="5.77101">
        <ele>1111.9</ele>
        <time>2015-08-22T21:52:14Z</time>
      </trkpt>
      <trkpt lat="45.244" lon="5.77103">
        <ele>1112.9</ele>
        <time>2015-08-22T21:52:17Z</time>
      </trkpt>
      <trkpt lat="45.24396" lon="5.77104">
        <ele>1114.4</ele>
        <time>2015-08-22T21:52:23Z</time>
      </trkpt>
      <trkpt lat="45.24393" lon="5.77104">
        <ele>1115.6</ele>
        <time>2015-08-22T21:52:25Z</time>
      </trkpt>
      <trkpt lat="45.24391" lon="5.77102">
        <ele>1116.4</ele>
        <time>2015-08-22T21:52:29Z</time>
      </trkpt>
      <trkpt lat="45.24389" lon="5.77107">
        <ele>1118.2</ele>
        <time>2015-08-22T21:52:34Z</time>
      </trkpt>
      <trkpt lat="45.24387" lon="5.77108">
        <ele>1119</ele>
        <time>2015-08-22T21:52:39Z</time>
      </trkpt>
      <trkpt lat="45.24387" lon="5.77108">
        <ele>1119.4</ele>
        <time>2015-08-22T21:52:43Z</time>
      </trkpt>
      <trkpt lat="45.24383" lon="5.77101">
        <ele>1119.7</ele>
        <time>2015-08-22T21:52:50Z</time>
      </trkpt>
      <trkpt lat="45.24379" lon="5.77098">
        <ele>1120.6</ele>
        <time>2015-08-22T21:52:55Z</time>
      </trkpt>
      <trkpt lat="45.24378" lon="5.77097">
        <ele>1120.9</ele>
        <time>2015-08-22T21:52:56Z</time>
      </trkpt>
      <trkpt lat="45.24372" lon="5.77097">
        <ele>1123.3</ele>
        <time>2015-08-22T21:53:01Z</time>
      </trkpt>
      <trkpt lat="45.24372" lon="5.77097">
        <ele>1123.3</ele>
        <time>2015-08-22T21:53:02Z</time>
      </trkpt>
      <trkpt lat="45.24371" lon="5.77096">
        <ele>1123.5</ele>
        <time>2015-08-22T21:53:05Z</time>
      </trkpt>
      <trkpt lat="45.24369" lon="5.77095">
        <ele>1123.7</ele>
        <time>2015-08-22T21:53:07Z</time>
      </trkpt>
      <trkpt lat="45.24368" lon="5.77092">
        <ele>1123.6</ele>
        <time>2015-08-22T21:53:10Z</time>
      </trkpt>
      <trkpt lat="45.24368" lon="5.77091">
        <ele>1123.3</ele>
        <time>2015-08-22T21:53:12Z</time>
      </trkpt>
      <trkpt lat="45.24367" lon="5.7709">
        <ele>1123.6</ele>
        <time>2015-08-22T21:53:13Z</time>
      </trkpt>
      <trkpt lat="45.24362" lon="5.77086">
        <ele>1124.1</ele>
        <time>2015-08-22T21:53:17Z</time>
      </trkpt>
      <trkpt lat="45.24355" lon="5.7708">
        <ele>1125.1</ele>
        <time>2015-08-22T21:53:24Z</time>
      </trkpt>
      <trkpt lat="45.24346" lon="5.77075">
        <ele>1127</ele>
        <time>2015-08-22T21:53:30Z</time>
      </trkpt>
      <trkpt lat="45.24344" lon="5.77076">
        <ele>1128</ele>
        <time>2015-08-22T21:53:33Z</time>
      </trkpt>
      <trkpt lat="45.24342" lon="5.77076">
        <ele>1128.5</ele>
        <time>2015-08-22T21:53:35Z</time>
      </trkpt>
      <trkpt lat="45.24339" lon="5.77074">
        <ele>1129.1</ele>
        <time>2015-08-22T21:53:38Z</time>
      </trkpt>
      <trkpt lat="45.24339" lon="5.77072">
        <ele>1128.5</ele>
        <time>2015-08-22T21:53:41Z</time>
      </trkpt>
      <trkpt lat="45.24334" lon="5.77068">
        <ele>1129.1</ele>
        <time>2015-08-22T21:53:46Z</time>
      </trkpt>
      <trkpt lat="45.2433" lon="5.77065">
        <ele>1129.7</ele>
        <time>2015-08-22T21:53:51Z</time>
      </trkpt>
      <trkpt lat="45.24326" lon="5.77062">
        <ele>1130.4</ele>
        <time>2015-08-22T21:53:55Z</time>
      </trkpt>
      <trkpt lat="45.24323" lon="5.77061">
        <ele>1130.9</ele>
        <time>2015-08-22T21:53:57Z</time>
      </trkpt>
      <trkpt lat="45.24321" lon="5.7706">
        <ele>1131.2</ele>
        <time>2015-08-22T21:53:59Z</time>
      </trkpt>
      <trkpt lat="45.24319" lon="5.77058">
        <ele>1131.4</ele>
        <time>2015-08-22T21:54:01Z</time>
      </trkpt>
      <trkpt lat="45.24312" lon="5.77051">
        <ele>1132</ele>
        <time>2015-08-22T21:54:07Z</time>
      </trkpt>
      <trkpt lat="45.24311" lon="5.7705">
        <ele>1132.1</ele>
        <time>2015-08-22T21:54:08Z</time>
      </trkpt>
      <trkpt lat="45.2431" lon="5.77048">
        <ele>1132.1</ele>
        <time>2015-08-22T21:54:11Z</time>
      </trkpt>
      <trkpt lat="45.24309" lon="5.77047">
        <ele>1132.1</ele>
        <time>2015-08-22T21:54:12Z</time>
      </trkpt>
      <trkpt lat="45.24306" lon="5.77046">
        <ele>1132.6</ele>
        <time>2015-08-22T21:54:14Z</time>
      </trkpt>
      <trkpt lat="45.24301" lon="5.77045">
        <ele>1134</ele>
        <time>2015-08-22T21:54:18Z</time>
      </trkpt>
      <trkpt lat="45.24299" lon="5.77046">
        <ele>1134.9</ele>
        <time>2015-08-22T21:54:21Z</time>
      </trkpt>
      <trkpt lat="45.24297" lon="5.77044">
        <ele>1135</ele>
        <time>2015-08-22T21:54:26Z</time>
      </trkpt>
      <trkpt lat="45.24294" lon="5.77042">
        <ele>1135.2</ele>
        <time>2015-08-22T21:54:29Z</time>
      </trkpt>
      <trkpt lat="45.24295" lon="5.77041">
        <ele>1134.9</ele>
        <time>2015-08-22T21:54:31Z</time>
      </trkpt>
      <trkpt lat="45.2429" lon="5.77037">
        <ele>1135.7</ele>
        <time>2015-08-22T21:54:35Z</time>
      </trkpt>
      <trkpt lat="45.24285" lon="5.77032">
        <ele>1136.4</ele>
        <time>2015-08-22T21:54:39Z</time>
      </trkpt>
      <trkpt lat="45.24282" lon="5.77031">
        <ele>1137.1</ele>
        <time>2015-08-22T21:54:41Z</time>
      </trkpt>
      <trkpt lat="45.24281" lon="5.7703">
        <ele>1137.5</ele>
        <time>2015-08-22T21:54:44Z</time>
      </trkpt>
      <trkpt lat="45.24278" lon="5.77032">
        <ele>1138.9</ele>
        <time>2015-08-22T21:54:48Z</time>
      </trkpt>
      <trkpt lat="45.24277" lon="5.77032">
        <ele>1139.1</ele>
        <time>2015-08-22T21:54:49Z</time>
      </trkpt>
      <trkpt lat="45.24276" lon="5.77033">
        <ele>1139.7</ele>
        <time>2015-08-22T21:54:51Z</time>
      </trkpt>
      <trkpt lat="45.24272" lon="5.77032">
        <ele>1140.7</ele>
        <time>2015-08-22T21:54:53Z</time>
      </trkpt>
      <trkpt lat="45.2427" lon="5.77031">
        <ele>1141.2</ele>
        <time>2015-08-22T21:54:55Z</time>
      </trkpt>
      <trkpt lat="45.24269" lon="5.7703">
        <ele>1141.6</ele>
        <time>2015-08-22T21:54:57Z</time>
      </trkpt>
      <trkpt lat="45.24266" lon="5.7703">
        <ele>1142.3</ele>
        <time>2015-08-22T21:54:59Z</time>
      </trkpt>
      <trkpt lat="45.24259" lon="5.7703">
        <ele>1144.7</ele>
        <time>2015-08-22T21:55:05Z</time>
      </trkpt>
      <trkpt lat="45.24258" lon="5.77029">
        <ele>1145</ele>
        <time>2015-08-22T21:55:08Z</time>
      </trkpt>
      <trkpt lat="45.24257" lon="5.77028">
        <ele>1145</ele>
        <time>2015-08-22T21:55:10Z</time>
      </trkpt>
      <trkpt lat="45.24256" lon="5.77022">
        <ele>1144</ele>
        <time>2015-08-22T21:55:17Z</time>
      </trkpt>
      <trkpt lat="45.24254" lon="5.77016">
        <ele>1143.7</ele>
        <time>2015-08-22T21:55:21Z</time>
      </trkpt>
      <trkpt lat="45.24251" lon="5.77013">
        <ele>1143.8</ele>
        <time>2015-08-22T21:55:23Z</time>
      </trkpt>
      <trkpt lat="45.24248" lon="5.77007">
        <ele>1143.7</ele>
        <time>2015-08-22T21:55:26Z</time>
      </trkpt>
      <trkpt lat="45.2424" lon="5.77003">
        <ele>1145.5</ele>
        <time>2015-08-22T21:55:31Z</time>
      </trkpt>
      <trkpt lat="45.24233" lon="5.77">
        <ele>1147.3</ele>
        <time>2015-08-22T21:55:36Z</time>
      </trkpt>
      <trkpt lat="45.24226" lon="5.76998">
        <ele>1149</ele>
        <time>2015-08-22T21:55:43Z</time>
      </trkpt>
      <trkpt lat="45.24221" lon="5.76993">
        <ele>1149.6</ele>
        <time>2015-08-22T21:55:50Z</time>
      </trkpt>
      <trkpt lat="45.2422" lon="5.76995">
        <ele>1150.3</ele>
        <time>2015-08-22T21:55:51Z</time>
      </trkpt>
      <trkpt lat="45.24217" lon="5.76992">
        <ele>1150.5</ele>
        <time>2015-08-22T21:55:54Z</time>
      </trkpt>
      <trkpt lat="45.24214" lon="5.76987">
        <ele>1150.4</ele>
        <time>2015-08-22T21:55:57Z</time>
      </trkpt>
      <trkpt lat="45.24213" lon="5.76986">
        <ele>1150.4</ele>
        <time>2015-08-22T21:55:59Z</time>
      </trkpt>
      <trkpt lat="45.24213" lon="5.76987">
        <ele>1150.8</ele>
        <time>2015-08-22T21:56:01Z</time>
      </trkpt>
      <trkpt lat="45.24211" lon="5.76987">
        <ele>1151.3</ele>
        <time>2015-08-22T21:56:03Z</time>
      </trkpt>
      <trkpt lat="45.24202" lon="5.76982">
        <ele>1152.8</ele>
        <time>2015-08-22T21:56:09Z</time>
      </trkpt>
      <trkpt lat="45.24195" lon="5.76979">
        <ele>1154.2</ele>
        <time>2015-08-22T21:56:14Z</time>
      </trkpt>
      <trkpt lat="45.24193" lon="5.76979">
        <ele>1154.7</ele>
        <time>2015-08-22T21:56:16Z</time>
      </trkpt>
      <trkpt lat="45.24186" lon="5.76978">
        <ele>1156.3</ele>
        <time>2015-08-22T21:56:21Z</time>
      </trkpt>
      <trkpt lat="45.24179" lon="5.76973">
        <ele>1157.3</ele>
        <time>2015-08-22T21:56:27Z</time>
      </trkpt>
      <trkpt lat="45.24174" lon="5.7697">
        <ele>1158.2</ele>
        <time>2015-08-22T21:56:32Z</time>
      </trkpt>
      <trkpt lat="45.24172" lon="5.76967">
        <ele>1158.1</ele>
        <time>2015-08-22T21:56:33Z</time>
      </trkpt>
      <trkpt lat="45.24171" lon="5.76965">
        <ele>1158.2</ele>
        <time>2015-08-22T21:56:35Z</time>
      </trkpt>
      <trkpt lat="45.24169" lon="5.76964">
        <ele>1158.5</ele>
        <time>2015-08-22T21:56:38Z</time>
      </trkpt>
      <trkpt lat="45.24168" lon="5.76964">
        <ele>1158.7</ele>
        <time>2015-08-22T21:56:43Z</time>
      </trkpt>
      <trkpt lat="45.24165" lon="5.7696">
        <ele>1158.7</ele>
        <time>2015-08-22T21:56:47Z</time>
      </trkpt>
      <trkpt lat="45.2416" lon="5.76956">
        <ele>1159.7</ele>
        <time>2015-08-22T21:56:50Z</time>
      </trkpt>
      <trkpt lat="45.24154" lon="5.76954">
        <ele>1161</ele>
        <time>2015-08-22T21:56:54Z</time>
      </trkpt>
      <trkpt lat="45.24153" lon="5.76954">
        <ele>1161.3</ele>
        <time>2015-08-22T21:56:55Z</time>
      </trkpt>
      <trkpt lat="45.2415" lon="5.76952">
        <ele>1161.9</ele>
        <time>2015-08-22T21:56:57Z</time>
      </trkpt>
      <trkpt lat="45.24147" lon="5.7695">
        <ele>1162.7</ele>
        <time>2015-08-22T21:57:00Z</time>
      </trkpt>
      <trkpt lat="45.24146" lon="5.76949">
        <ele>1162.8</ele>
        <time>2015-08-22T21:57:01Z</time>
      </trkpt>
      <trkpt lat="45.2414" lon="5.76944">
        <ele>1163.8</ele>
        <time>2015-08-22T21:57:05Z</time>
      </trkpt>
      <trkpt lat="45.24135" lon="5.76942">
        <ele>1164.9</ele>
        <time>2015-08-22T21:57:10Z</time>
      </trkpt>
      <trkpt lat="45.24132" lon="5.76939">
        <ele>1165.6</ele>
        <time>2015-08-22T21:57:12Z</time>
      </trkpt>
      <trkpt lat="45.24131" lon="5.76936">
        <ele>1165.5</ele>
        <time>2015-08-22T21:57:14Z</time>
      </trkpt>
      <trkpt lat="45.24128" lon="5.76931">
        <ele>1165.9</ele>
        <time>2015-08-22T21:57:17Z</time>
      </trkpt>
      <trkpt lat="45.24125" lon="5.76929">
        <ele>1166.4</ele>
        <time>2015-08-22T21:57:20Z</time>
      </trkpt>
      <trkpt lat="45.24118" lon="5.76926">
        <ele>1168.1</ele>
        <time>2015-08-22T21:57:25Z</time>
      </trkpt>
      <trkpt lat="45.24117" lon="5.76926">
        <ele>1168.3</ele>
        <time>2015-08-22T21:57:26Z</time>
      </trkpt>
      <trkpt lat="45.2411" lon="5.76926">
        <ele>1170.3</ele>
        <time>2015-08-22T21:57:30Z</time>
      </trkpt>
      <trkpt lat="45.24106" lon="5.76928">
        <ele>1171.4</ele>
        <time>2015-08-22T21:57:33Z</time>
      </trkpt>
      <trkpt lat="45.24105" lon="5.76927">
        <ele>1171.6</ele>
        <time>2015-08-22T21:57:34Z</time>
      </trkpt>
      <trkpt lat="45.24105" lon="5.76928">
        <ele>1171.8</ele>
        <time>2015-08-22T21:57:35Z</time>
      </trkpt>
      <trkpt lat="45.24104" lon="5.76925">
        <ele>1171.9</ele>
        <time>2015-08-22T21:57:39Z</time>
      </trkpt>
      <trkpt lat="45.24096" lon="5.76922">
        <ele>1173.4</ele>
        <time>2015-08-22T21:57:44Z</time>
      </trkpt>
      <trkpt lat="45.2409" lon="5.76918">
        <ele>1174.7</ele>
        <time>2015-08-22T21:57:49Z</time>
      </trkpt>
      <trkpt lat="45.24088" lon="5.76919">
        <ele>1175.2</ele>
        <time>2015-08-22T21:57:50Z</time>
      </trkpt>
      <trkpt lat="45.24084" lon="5.76921">
        <ele>1176.8</ele>
        <time>2015-08-22T21:57:53Z</time>
      </trkpt>
      <trkpt lat="45.24078" lon="5.76923">
        <ele>1178.6</ele>
        <time>2015-08-22T21:58:00Z</time>
      </trkpt>
      <trkpt lat="45.24072" lon="5.76918">
        <ele>1179.4</ele>
        <time>2015-08-22T21:58:06Z</time>
      </trkpt>
      <trkpt lat="45.24069" lon="5.76914">
        <ele>1179.7</ele>
        <time>2015-08-22T21:58:13Z</time>
      </trkpt>
      <trkpt lat="45.24061" lon="5.76901">
        <ele>1179.6</ele>
        <time>2015-08-22T21:58:21Z</time>
      </trkpt>
      <trkpt lat="45.24058" lon="5.76893">
        <ele>1179.1</ele>
        <time>2015-08-22T21:58:29Z</time>
      </trkpt>
      <trkpt lat="45.24053" lon="5.76886">
        <ele>1179.2</ele>
        <time>2015-08-22T21:58:35Z</time>
      </trkpt>
      <trkpt lat="45.24042" lon="5.76876">
        <ele>1180.3</ele>
        <time>2015-08-22T21:58:44Z</time>
      </trkpt>
      <trkpt lat="45.24039" lon="5.76875">
        <ele>1180.8</ele>
        <time>2015-08-22T21:58:47Z</time>
      </trkpt>
      <trkpt lat="45.24038" lon="5.76874">
        <ele>1181.3</ele>
        <time>2015-08-22T21:58:49Z</time>
      </trkpt>
      <trkpt lat="45.24031" lon="5.7687">
        <ele>1183.4</ele>
        <time>2015-08-22T21:58:56Z</time>
      </trkpt>
      <trkpt lat="45.24031" lon="5.7687">
        <ele>1183.4</ele>
        <time>2015-08-22T21:58:58Z</time>
      </trkpt>
      <trkpt lat="45.2403" lon="5.7687">
        <ele>1183.9</ele>
        <time>2015-08-22T21:59:01Z</time>
      </trkpt>
      <trkpt lat="45.24018" lon="5.76864">
        <ele>1187.9</ele>
        <time>2015-08-22T21:59:08Z</time>
      </trkpt>
      <trkpt lat="45.24013" lon="5.76862">
        <ele>1189.3</ele>
        <time>2015-08-22T21:59:12Z</time>
      </trkpt>
      <trkpt lat="45.24011" lon="5.76862">
        <ele>1190.3</ele>
        <time>2015-08-22T21:59:14Z</time>
      </trkpt>
      <trkpt lat="45.24007" lon="5.7686">
        <ele>1191.5</ele>
        <time>2015-08-22T21:59:18Z</time>
      </trkpt>
      <trkpt lat="45.24003" lon="5.76855">
        <ele>1192.5</ele>
        <time>2015-08-22T21:59:24Z</time>
      </trkpt>
      <trkpt lat="45.24002" lon="5.76852">
        <ele>1192.4</ele>
        <time>2015-08-22T21:59:27Z</time>
      </trkpt>
      <trkpt lat="45.24001" lon="5.7685">
        <ele>1192.7</ele>
        <time>2015-08-22T21:59:29Z</time>
      </trkpt>
      <trkpt lat="45.24" lon="5.7685">
        <ele>1193.2</ele>
        <time>2015-08-22T21:59:31Z</time>
      </trkpt>
      <trkpt lat="45.23997" lon="5.76851">
        <ele>1194.1</ele>
        <time>2015-08-22T21:59:34Z</time>
      </trkpt>
      <trkpt lat="45.23991" lon="5.76848">
        <ele>1196.2</ele>
        <time>2015-08-22T21:59:39Z</time>
      </trkpt>
      <trkpt lat="45.23986" lon="5.76845">
        <ele>1197.7</ele>
        <time>2015-08-22T21:59:45Z</time>
      </trkpt>
      <trkpt lat="45.23979" lon="5.76843">
        <ele>1200</ele>
        <time>2015-08-22T21:59:53Z</time>
      </trkpt>
      <trkpt lat="45.23977" lon="5.76844">
        <ele>1201</ele>
        <time>2015-08-22T21:59:57Z</time>
      </trkpt>
      <trkpt lat="45.23974" lon="5.76847">
        <ele>1202.3</ele>
        <time>2015-08-22T22:00:01Z</time>
      </trkpt>
      <trkpt lat="45.23973" lon="5.76847">
        <ele>1202.6</ele>
        <time>2015-08-22T22:00:02Z</time>
      </trkpt>
      <trkpt lat="45.23971" lon="5.76846">
        <ele>1203.4</ele>
        <time>2015-08-22T22:00:04Z</time>
      </trkpt>
      <trkpt lat="45.23969" lon="5.76845">
        <ele>1204</ele>
        <time>2015-08-22T22:00:06Z</time>
      </trkpt>
      <trkpt lat="45.23965" lon="5.76846">
        <ele>1205.7</ele>
        <time>2015-08-22T22:00:13Z</time>
      </trkpt>
      <trkpt lat="45.23962" lon="5.76845">
        <ele>1206.8</ele>
        <time>2015-08-22T22:00:18Z</time>
      </trkpt>
      <trkpt lat="45.2396" lon="5.76845">
        <ele>1207.4</ele>
        <time>2015-08-22T22:00:23Z</time>
      </trkpt>
      <trkpt lat="45.23958" lon="5.76846">
        <ele>1208.3</ele>
        <time>2015-08-22T22:00:27Z</time>
      </trkpt>
      <trkpt lat="45.23958" lon="5.76846">
        <ele>1208.4</ele>
        <time>2015-08-22T22:00:29Z</time>
      </trkpt>
      <trkpt lat="45.23956" lon="5.76846">
        <ele>1209</ele>
        <time>2015-08-22T22:00:35Z</time>
      </trkpt>
      <trkpt lat="45.23951" lon="5.76843">
        <ele>1210.3</ele>
        <time>2015-08-22T22:00:39Z</time>
      </trkpt>
      <trkpt lat="45.2395" lon="5.76842">
        <ele>1210.5</ele>
        <time>2015-08-22T22:00:40Z</time>
      </trkpt>
      <trkpt lat="45.23947" lon="5.7684">
        <ele>1211.3</ele>
        <time>2015-08-22T22:00:43Z</time>
      </trkpt>
      <trkpt lat="45.23944" lon="5.76838">
        <ele>1212</ele>
        <time>2015-08-22T22:00:47Z</time>
      </trkpt>
      <trkpt lat="45.23943" lon="5.76837">
        <ele>1212.5</ele>
        <time>2015-08-22T22:00:49Z</time>
      </trkpt>
      <trkpt lat="45.23942" lon="5.76836">
        <ele>1212.7</ele>
        <time>2015-08-22T22:00:50Z</time>
      </trkpt>
      <trkpt lat="45.23939" lon="5.76836">
        <ele>1213.6</ele>
        <time>2015-08-22T22:00:53Z</time>
      </trkpt>
      <trkpt lat="45.23938" lon="5.76835">
        <ele>1213.8</ele>
        <time>2015-08-22T22:00:54Z</time>
      </trkpt>
      <trkpt lat="45.23937" lon="5.76834">
        <ele>1214.1</ele>
        <time>2015-08-22T22:00:59Z</time>
      </trkpt>
      <trkpt lat="45.23938" lon="5.76834">
        <ele>1213.8</ele>
        <time>2015-08-22T22:01:03Z</time>
      </trkpt>
      <trkpt lat="45.2393" lon="5.76835">
        <ele>1216.6</ele>
        <time>2015-08-22T22:01:09Z</time>
      </trkpt>
      <trkpt lat="45.23928" lon="5.76833">
        <ele>1217.1</ele>
        <time>2015-08-22T22:01:11Z</time>
      </trkpt>
      <trkpt lat="45.23925" lon="5.76833">
        <ele>1218.1</ele>
        <time>2015-08-22T22:01:14Z</time>
      </trkpt>
      <trkpt lat="45.23923" lon="5.76832">
        <ele>1218.8</ele>
        <time>2015-08-22T22:01:16Z</time>
      </trkpt>
      <trkpt lat="45.2392" lon="5.76831">
        <ele>1219.7</ele>
        <time>2015-08-22T22:01:19Z</time>
      </trkpt>
      <trkpt lat="45.23919" lon="5.7683">
        <ele>1220.2</ele>
        <time>2015-08-22T22:01:22Z</time>
      </trkpt>
      <trkpt lat="45.23917" lon="5.76826">
        <ele>1220.6</ele>
        <time>2015-08-22T22:01:27Z</time>
      </trkpt>
      <trkpt lat="45.23914" lon="5.76824">
        <ele>1221.4</ele>
        <time>2015-08-22T22:01:31Z</time>
      </trkpt>
      <trkpt lat="45.23912" lon="5.76822">
        <ele>1221.9</ele>
        <time>2015-08-22T22:01:33Z</time>
      </trkpt>
      <trkpt lat="45.23908" lon="5.76819">
        <ele>1222.8</ele>
        <time>2015-08-22T22:01:38Z</time>
      </trkpt>
      <trkpt lat="45.239" lon="5.76811">
        <ele>1225.1</ele>
        <time>2015-08-22T22:01:44Z</time>
      </trkpt>
      <trkpt lat="45.23898" lon="5.7681">
        <ele>1225.7</ele>
        <time>2015-08-22T22:01:45Z</time>
      </trkpt>
      <trkpt lat="45.23895" lon="5.76808">
        <ele>1226.9</ele>
        <time>2015-08-22T22:01:50Z</time>
      </trkpt>
      <trkpt lat="45.23889" lon="5.76803">
        <ele>1228.4</ele>
        <time>2015-08-22T22:01:56Z</time>
      </trkpt>
      <trkpt lat="45.23889" lon="5.76804">
        <ele>1228.8</ele>
        <time>2015-08-22T22:01:57Z</time>
      </trkpt>
      <trkpt lat="45.23887" lon="5.76803">
        <ele>1229.3</ele>
        <time>2015-08-22T22:01:59Z</time>
      </trkpt>
      <trkpt lat="45.23886" lon="5.76803">
        <ele>1229.7</ele>
        <time>2015-08-22T22:02:01Z</time>
      </trkpt>
      <trkpt lat="45.23885" lon="5.76802">
        <ele>1230</ele>
        <time>2015-08-22T22:02:02Z</time>
      </trkpt>
      <trkpt lat="45.23882" lon="5.76801">
        <ele>1231.2</ele>
        <time>2015-08-22T22:02:06Z</time>
      </trkpt>
      <trkpt lat="45.23879" lon="5.76799">
        <ele>1232.2</ele>
        <time>2015-08-22T22:02:08Z</time>
      </trkpt>
      <trkpt lat="45.23873" lon="5.76794">
        <ele>1233.7</ele>
        <time>2015-08-22T22:02:14Z</time>
      </trkpt>
      <trkpt lat="45.23872" lon="5.76793">
        <ele>1234</ele>
        <time>2015-08-22T22:02:15Z</time>
      </trkpt>
      <trkpt lat="45.23869" lon="5.76789">
        <ele>1234.8</ele>
        <time>2015-08-22T22:02:20Z</time>
      </trkpt>
      <trkpt lat="45.23866" lon="5.76788">
        <ele>1235.6</ele>
        <time>2015-08-22T22:02:22Z</time>
      </trkpt>
      <trkpt lat="45.23864" lon="5.76786">
        <ele>1236</ele>
        <time>2015-08-22T22:02:25Z</time>
      </trkpt>
      <trkpt lat="45.23862" lon="5.76784">
        <ele>1236.8</ele>
        <time>2015-08-22T22:02:28Z</time>
      </trkpt>
      <trkpt lat="45.23861" lon="5.76784">
        <ele>1237.1</ele>
        <time>2015-08-22T22:02:29Z</time>
      </trkpt>
      <trkpt lat="45.23859" lon="5.76783">
        <ele>1237.5</ele>
        <time>2015-08-22T22:02:34Z</time>
      </trkpt>
      <trkpt lat="45.23858" lon="5.76781">
        <ele>1237.9</ele>
        <time>2015-08-22T22:02:36Z</time>
      </trkpt>
      <trkpt lat="45.23856" lon="5.76779">
        <ele>1238.2</ele>
        <time>2015-08-22T22:02:38Z</time>
      </trkpt>
      <trkpt lat="45.23855" lon="5.76776">
        <ele>1238.5</ele>
        <time>2015-08-22T22:02:41Z</time>
      </trkpt>
      <trkpt lat="45.23853" lon="5.76775">
        <ele>1238.9</ele>
        <time>2015-08-22T22:02:43Z</time>
      </trkpt>
      <trkpt lat="45.23848" lon="5.76774">
        <ele>1240.9</ele>
        <time>2015-08-22T22:02:48Z</time>
      </trkpt>
      <trkpt lat="45.23846" lon="5.76774">
        <ele>1241.2</ele>
        <time>2015-08-22T22:02:49Z</time>
      </trkpt>
      <trkpt lat="45.23845" lon="5.76773">
        <ele>1241.8</ele>
        <time>2015-08-22T22:02:50Z</time>
      </trkpt>
      <trkpt lat="45.23843" lon="5.76772">
        <ele>1242.5</ele>
        <time>2015-08-22T22:02:52Z</time>
      </trkpt>
      <trkpt lat="45.2384" lon="5.76772">
        <ele>1243.3</ele>
        <time>2015-08-22T22:02:55Z</time>
      </trkpt>
      <trkpt lat="45.23839" lon="5.76772">
        <ele>1243.7</ele>
        <time>2015-08-22T22:02:57Z</time>
      </trkpt>
      <trkpt lat="45.23838" lon="5.76772">
        <ele>1244.1</ele>
        <time>2015-08-22T22:02:58Z</time>
      </trkpt>
      <trkpt lat="45.23834" lon="5.76775">
        <ele>1245.8</ele>
        <time>2015-08-22T22:03:03Z</time>
      </trkpt>
      <trkpt lat="45.23829" lon="5.76774">
        <ele>1247.4</ele>
        <time>2015-08-22T22:03:08Z</time>
      </trkpt>
      <trkpt lat="45.23829" lon="5.76775">
        <ele>1247.7</ele>
        <time>2015-08-22T22:03:09Z</time>
      </trkpt>
      <trkpt lat="45.23826" lon="5.76775">
        <ele>1248.8</ele>
        <time>2015-08-22T22:03:14Z</time>
      </trkpt>
      <trkpt lat="45.23825" lon="5.76775">
        <ele>1248.8</ele>
        <time>2015-08-22T22:03:15Z</time>
      </trkpt>
      <trkpt lat="45.23824" lon="5.76772">
        <ele>1249.2</ele>
        <time>2015-08-22T22:03:21Z</time>
      </trkpt>
      <trkpt lat="45.2382" lon="5.76769">
        <ele>1250.3</ele>
        <time>2015-08-22T22:03:30Z</time>
      </trkpt>
      <trkpt lat="45.2382" lon="5.76769">
        <ele>1250.5</ele>
        <time>2015-08-22T22:03:31Z</time>
      </trkpt>
      <trkpt lat="45.23819" lon="5.76769">
        <ele>1250.9</ele>
        <time>2015-08-22T22:03:35Z</time>
      </trkpt>
      <trkpt lat="45.23816" lon="5.76766">
        <ele>1251.8</ele>
        <time>2015-08-22T22:03:40Z</time>
      </trkpt>
      <trkpt lat="45.23814" lon="5.76764">
        <ele>1252.5</ele>
        <time>2015-08-22T22:03:45Z</time>
      </trkpt>
      <trkpt lat="45.2381" lon="5.76763">
        <ele>1254.1</ele>
        <time>2015-08-22T22:03:49Z</time>
      </trkpt>
      <trkpt lat="45.23807" lon="5.76763">
        <ele>1255.1</ele>
        <time>2015-08-22T22:03:51Z</time>
      </trkpt>
      <trkpt lat="45.23801" lon="5.76761">
        <ele>1257.1</ele>
        <time>2015-08-22T22:03:55Z</time>
      </trkpt>
      <trkpt lat="45.23798" lon="5.76759">
        <ele>1258.4</ele>
        <time>2015-08-22T22:03:57Z</time>
      </trkpt>
      <trkpt lat="45.23796" lon="5.76759">
        <ele>1258.8</ele>
        <time>2015-08-22T22:03:58Z</time>
      </trkpt>
      <trkpt lat="45.23793" lon="5.76759">
        <ele>1260</ele>
        <time>2015-08-22T22:04:01Z</time>
      </trkpt>
      <trkpt lat="45.23787" lon="5.76757">
        <ele>1262.3</ele>
        <time>2015-08-22T22:04:08Z</time>
      </trkpt>
      <trkpt lat="45.23786" lon="5.76756">
        <ele>1262.8</ele>
        <time>2015-08-22T22:04:09Z</time>
      </trkpt>
      <trkpt lat="45.23785" lon="5.76756">
        <ele>1263.1</ele>
        <time>2015-08-22T22:04:13Z</time>
      </trkpt>
      <trkpt lat="45.23783" lon="5.76757">
        <ele>1263.8</ele>
        <time>2015-08-22T22:04:18Z</time>
      </trkpt>
      <trkpt lat="45.23779" lon="5.76758">
        <ele>1265.3</ele>
        <time>2015-08-22T22:04:24Z</time>
      </trkpt>
      <trkpt lat="45.23778" lon="5.76759">
        <ele>1265.8</ele>
        <time>2015-08-22T22:04:29Z</time>
      </trkpt>
      <trkpt lat="45.23773" lon="5.76759">
        <ele>1267.5</ele>
        <time>2015-08-22T22:04:34Z</time>
      </trkpt>
      <trkpt lat="45.23772" lon="5.7676">
        <ele>1268.1</ele>
        <time>2015-08-22T22:04:36Z</time>
      </trkpt>
      <trkpt lat="45.2377" lon="5.7676">
        <ele>1269</ele>
        <time>2015-08-22T22:04:39Z</time>
      </trkpt>
      <trkpt lat="45.23769" lon="5.7676">
        <ele>1269.4</ele>
        <time>2015-08-22T22:04:40Z</time>
      </trkpt>
      <trkpt lat="45.23764" lon="5.76757">
        <ele>1271</ele>
        <time>2015-08-22T22:04:45Z</time>
      </trkpt>
      <trkpt lat="45.23762" lon="5.76757">
        <ele>1271.8</ele>
        <time>2015-08-22T22:04:48Z</time>
      </trkpt>
      <trkpt lat="45.2376" lon="5.76757">
        <ele>1272.5</ele>
        <time>2015-08-22T22:04:50Z</time>
      </trkpt>
      <trkpt lat="45.23756" lon="5.76757">
        <ele>1274</ele>
        <time>2015-08-22T22:04:56Z</time>
      </trkpt>
      <trkpt lat="45.23755" lon="5.76755">
        <ele>1274.5</ele>
        <time>2015-08-22T22:04:59Z</time>
      </trkpt>
      <trkpt lat="45.23754" lon="5.76755">
        <ele>1274.6</ele>
        <time>2015-08-22T22:05:01Z</time>
      </trkpt>
      <trkpt lat="45.23749" lon="5.76754">
        <ele>1276.6</ele>
        <time>2015-08-22T22:05:06Z</time>
      </trkpt>
      <trkpt lat="45.23748" lon="5.76754">
        <ele>1276.9</ele>
        <time>2015-08-22T22:05:07Z</time>
      </trkpt>
      <trkpt lat="45.23745" lon="5.76756">
        <ele>1277.9</ele>
        <time>2015-08-22T22:05:12Z</time>
      </trkpt>
      <trkpt lat="45.23743" lon="5.76755">
        <ele>1278.7</ele>
        <time>2015-08-22T22:05:14Z</time>
      </trkpt>
      <trkpt lat="45.23742" lon="5.76754">
        <ele>1279.2</ele>
        <time>2015-08-22T22:05:16Z</time>
      </trkpt>
      <trkpt lat="45.23744" lon="5.76752">
        <ele>1278.4</ele>
        <time>2015-08-22T22:05:21Z</time>
      </trkpt>
      <trkpt lat="45.2374" lon="5.76751">
        <ele>1279.6</ele>
        <time>2015-08-22T22:05:25Z</time>
      </trkpt>
      <trkpt lat="45.23738" lon="5.7675">
        <ele>1280.3</ele>
        <time>2015-08-22T22:05:29Z</time>
      </trkpt>
      <trkpt lat="45.23735" lon="5.76747">
        <ele>1281.3</ele>
        <time>2015-08-22T22:05:34Z</time>
      </trkpt>
      <trkpt lat="45.2373" lon="5.76743">
        <ele>1283.1</ele>
        <time>2015-08-22T22:05:40Z</time>
      </trkpt>
      <trkpt lat="45.23727" lon="5.7674">
        <ele>1284.3</ele>
        <time>2015-08-22T22:05:44Z</time>
      </trkpt>
      <trkpt lat="45.23723" lon="5.76741">
        <ele>1285.4</ele>
        <time>2015-08-22T22:05:49Z</time>
      </trkpt>
      <trkpt lat="45.23721" lon="5.7674">
        <ele>1286.2</ele>
        <time>2015-08-22T22:05:52Z</time>
      </trkpt>
      <trkpt lat="45.23718" lon="5.76739">
        <ele>1287.4</ele>
        <time>2015-08-22T22:05:55Z</time>
      </trkpt>
      <trkpt lat="45.23715" lon="5.76738">
        <ele>1288.4</ele>
        <time>2015-08-22T22:05:58Z</time>
      </trkpt>
      <trkpt lat="45.23714" lon="5.76737">
        <ele>1288.6</ele>
        <time>2015-08-22T22:05:59Z</time>
      </trkpt>
      <trkpt lat="45.23712" lon="5.76733">
        <ele>1289</ele>
        <time>2015-08-22T22:06:06Z</time>
      </trkpt>
      <trkpt lat="45.23707" lon="5.76728">
        <ele>1290.2</ele>
        <time>2015-08-22T22:06:14Z</time>
      </trkpt>
      <trkpt lat="45.23705" lon="5.76727">
        <ele>1290.2</ele>
        <time>2015-08-22T22:06:16Z</time>
      </trkpt>
      <trkpt lat="45.23705" lon="5.76724">
        <ele>1290.2</ele>
        <time>2015-08-22T22:06:19Z</time>
      </trkpt>
      <trkpt lat="45.23704" lon="5.76723">
        <ele>1290.2</ele>
        <time>2015-08-22T22:06:20Z</time>
      </trkpt>
      <trkpt lat="45.237" lon="5.76722">
        <ele>1290.5</ele>
        <time>2015-08-22T22:06:25Z</time>
      </trkpt>
      <trkpt lat="45.23692" lon="5.76718">
        <ele>1292</ele>
        <time>2015-08-22T22:06:32Z</time>
      </trkpt>
      <trkpt lat="45.23691" lon="5.76717">
        <ele>1292.2</ele>
        <time>2015-08-22T22:06:33Z</time>
      </trkpt>
      <trkpt lat="45.23688" lon="5.76715">
        <ele>1293.1</ele>
        <time>2015-08-22T22:06:37Z</time>
      </trkpt>
      <trkpt lat="45.23687" lon="5.76713">
        <ele>1293.8</ele>
        <time>2015-08-22T22:06:39Z</time>
      </trkpt>
      <trkpt lat="45.23684" lon="5.76711">
        <ele>1294.9</ele>
        <time>2015-08-22T22:06:43Z</time>
      </trkpt>
      <trkpt lat="45.23681" lon="5.76709">
        <ele>1296.4</ele>
        <time>2015-08-22T22:06:51Z</time>
      </trkpt>
      <trkpt lat="45.23675" lon="5.76707">
        <ele>1298.1</ele>
        <time>2015-08-22T22:06:57Z</time>
      </trkpt>
      <trkpt lat="45.23675" lon="5.76707">
        <ele>1298.2</ele>
        <time>2015-08-22T22:06:58Z</time>
      </trkpt>
      <trkpt lat="45.23671" lon="5.76706">
        <ele>1299.2</ele>
        <time>2015-08-22T22:07:04Z</time>
      </trkpt>
      <trkpt lat="45.23666" lon="5.76706">
        <ele>1300.5</ele>
        <time>2015-08-22T22:07:11Z</time>
      </trkpt>
      <trkpt lat="45.23663" lon="5.76705">
        <ele>1301.2</ele>
        <time>2015-08-22T22:07:17Z</time>
      </trkpt>
      <trkpt lat="45.23662" lon="5.76705">
        <ele>1301.4</ele>
        <time>2015-08-22T22:07:22Z</time>
      </trkpt>
      <trkpt lat="45.23659" lon="5.76708">
        <ele>1302.4</ele>
        <time>2015-08-22T22:07:26Z</time>
      </trkpt>
      <trkpt lat="45.23659" lon="5.76709">
        <ele>1301.9</ele>
        <time>2015-08-22T22:07:28Z</time>
      </trkpt>
      <trkpt lat="45.23658" lon="5.76707">
        <ele>1302.8</ele>
        <time>2015-08-22T22:07:36Z</time>
      </trkpt>
      <trkpt lat="45.23652" lon="5.76703">
        <ele>1304.1</ele>
        <time>2015-08-22T22:07:43Z</time>
      </trkpt>
      <trkpt lat="45.2365" lon="5.76703">
        <ele>1304.7</ele>
        <time>2015-08-22T22:07:47Z</time>
      </trkpt>
      <trkpt lat="45.23648" lon="5.76705">
        <ele>1305.3</ele>
        <time>2015-08-22T22:07:49Z</time>
      </trkpt>
      <trkpt lat="45.23646" lon="5.76705">
        <ele>1306</ele>
        <time>2015-08-22T22:07:54Z</time>
      </trkpt>
      <trkpt lat="45.23646" lon="5.76704">
        <ele>1305.9</ele>
        <time>2015-08-22T22:07:56Z</time>
      </trkpt>
      <trkpt lat="45.23639" lon="5.76698">
        <ele>1307.1</ele>
        <time>2015-08-22T22:08:03Z</time>
      </trkpt>
      <trkpt lat="45.23636" lon="5.76702">
        <ele>1308.6</ele>
        <time>2015-08-22T22:08:08Z</time>
      </trkpt>
      <trkpt lat="45.23633" lon="5.76706">
        <ele>1309.6</ele>
        <time>2015-08-22T22:08:14Z</time>
      </trkpt>
      <trkpt lat="45.2363" lon="5.76708">
        <ele>1310.5</ele>
        <time>2015-08-22T22:08:19Z</time>
      </trkpt>
      <trkpt lat="45.23627" lon="5.76708">
        <ele>1311.4</ele>
        <time>2015-08-22T22:08:27Z</time>
      </trkpt>
      <trkpt lat="45.23624" lon="5.76702">
        <ele>1310</ele>
        <time>2015-08-22T22:08:34Z</time>
      </trkpt>
      <trkpt lat="45.23618" lon="5.76702">
        <ele>1300.4</ele>
        <time>2015-08-22T22:08:43Z</time>
      </trkpt>
      <trkpt lat="45.23616" lon="5.76702">
        <ele>1296.2</ele>
        <time>2015-08-22T22:08:49Z</time>
      </trkpt>
      <trkpt lat="45.23613" lon="5.76698">
        <ele>1291.5</ele>
        <time>2015-08-22T22:08:56Z</time>
      </trkpt>
      <trkpt lat="45.23609" lon="5.76693">
        <ele>1284.4</ele>
        <time>2015-08-22T22:09:01Z</time>
      </trkpt>
      <trkpt lat="45.23608" lon="5.76692">
        <ele>1282.6</ele>
        <time>2015-08-22T22:09:02Z</time>
      </trkpt>
      <trkpt lat="45.23607" lon="5.76692">
        <ele>1280.5</ele>
        <time>2015-08-22T22:09:04Z</time>
      </trkpt>
      <trkpt lat="45.23606" lon="5.76691">
        <ele>1279.3</ele>
        <time>2015-08-22T22:09:06Z</time>
      </trkpt>
      <trkpt lat="45.236" lon="5.76687">
        <ele>1270.2</ele>
        <time>2015-08-22T22:09:13Z</time>
      </trkpt>
      <trkpt lat="45.23598" lon="5.76685">
        <ele>1266.6</ele>
        <time>2015-08-22T22:09:18Z</time>
      </trkpt>
      <trkpt lat="45.23595" lon="5.76684">
        <ele>1261.1</ele>
        <time>2015-08-22T22:09:22Z</time>
      </trkpt>
      <trkpt lat="45.23594" lon="5.76683">
        <ele>1259.9</ele>
        <time>2015-08-22T22:09:23Z</time>
      </trkpt>
      <trkpt lat="45.23591" lon="5.76682">
        <ele>1255.3</ele>
        <time>2015-08-22T22:09:28Z</time>
      </trkpt>
      <trkpt lat="45.23588" lon="5.76679">
        <ele>1250.9</ele>
        <time>2015-08-22T22:09:34Z</time>
      </trkpt>
      <trkpt lat="45.23586" lon="5.76671">
        <ele>1248</ele>
        <time>2015-08-22T22:09:40Z</time>
      </trkpt>
      <trkpt lat="45.23585" lon="5.7667">
        <ele>1246.9</ele>
        <time>2015-08-22T22:09:41Z</time>
      </trkpt>
      <trkpt lat="45.2358" lon="5.76669">
        <ele>1238.3</ele>
        <time>2015-08-22T22:09:47Z</time>
      </trkpt>
      <trkpt lat="45.23579" lon="5.76669">
        <ele>1237.1</ele>
        <time>2015-08-22T22:09:48Z</time>
      </trkpt>
      <trkpt lat="45.23574" lon="5.76669">
        <ele>1230.5</ele>
        <time>2015-08-22T22:09:52Z</time>
      </trkpt>
      <trkpt lat="45.23568" lon="5.76666">
        <ele>1221.5</ele>
        <time>2015-08-22T22:09:59Z</time>
      </trkpt>
      <trkpt lat="45.23564" lon="5.76659">
        <ele>1216.2</ele>
        <time>2015-08-22T22:10:05Z</time>
      </trkpt>
      <trkpt lat="45.23563" lon="5.76654">
        <ele>1215.2</ele>
        <time>2015-08-22T22:10:08Z</time>
      </trkpt>
      <trkpt lat="45.23561" lon="5.7665">
        <ele>1212.9</ele>
        <time>2015-08-22T22:10:11Z</time>
      </trkpt>
      <trkpt lat="45.23558" lon="5.76646">
        <ele>1210.1</ele>
        <time>2015-08-22T22:10:14Z</time>
      </trkpt>
      <trkpt lat="45.23557" lon="5.76642">
        <ele>1209.2</ele>
        <time>2015-08-22T22:10:16Z</time>
      </trkpt>
      <trkpt lat="45.23555" lon="5.76634">
        <ele>1207.2</ele>
        <time>2015-08-22T22:10:22Z</time>
      </trkpt>
      <trkpt lat="45.23554" lon="5.76632">
        <ele>1206.7</ele>
        <time>2015-08-22T22:10:23Z</time>
      </trkpt>
      <trkpt lat="45.2355" lon="5.76625">
        <ele>1203.1</ele>
        <time>2015-08-22T22:10:29Z</time>
      </trkpt>
      <trkpt lat="45.23549" lon="5.76621">
        <ele>1201.3</ele>
        <time>2015-08-22T22:10:38Z</time>
      </trkpt>
      <trkpt lat="45.23549" lon="5.76616">
        <ele>1202.1</ele>
        <time>2015-08-22T22:11:20Z</time>
      </trkpt>
      <trkpt lat="45.23549" lon="5.76609">
        <ele>1203.9</ele>
        <time>2015-08-22T22:11:28Z</time>
      </trkpt>
      <trkpt lat="45.23549" lon="5.76608">
        <ele>1203.7</ele>
        <time>2015-08-22T22:11:29Z</time>
      </trkpt>
      <trkpt lat="45.2355" lon="5.76598">
        <ele>1205.9</ele>
        <time>2015-08-22T22:11:35Z</time>
      </trkpt>
      <trkpt lat="45.23549" lon="5.76586">
        <ele>1207.2</ele>
        <time>2015-08-22T22:11:43Z</time>
      </trkpt>
      <trkpt lat="45.23551" lon="5.76576">
        <ele>1211.6</ele>
        <time>2015-08-22T22:11:50Z</time>
      </trkpt>
      <trkpt lat="45.23552" lon="5.76573">
        <ele>1212.8</ele>
        <time>2015-08-22T22:11:51Z</time>
      </trkpt>
      <trkpt lat="45.23555" lon="5.76564">
        <ele>1217.8</ele>
        <time>2015-08-22T22:11:55Z</time>
      </trkpt>
      <trkpt lat="45.23555" lon="5.76562">
        <ele>1218.5</ele>
        <time>2015-08-22T22:11:56Z</time>
      </trkpt>
      <trkpt lat="45.23558" lon="5.76551">
        <ele>1223.2</ele>
        <time>2015-08-22T22:12:02Z</time>
      </trkpt>
      <trkpt lat="45.23558" lon="5.7655">
        <ele>1223.5</ele>
        <time>2015-08-22T22:12:03Z</time>
      </trkpt>
      <trkpt lat="45.23555" lon="5.76536">
        <ele>1221.9</ele>
        <time>2015-08-22T22:12:09Z</time>
      </trkpt>
      <trkpt lat="45.2355" lon="5.76537">
        <ele>1216.1</ele>
        <time>2015-08-22T22:12:14Z</time>
      </trkpt>
      <trkpt lat="45.23549" lon="5.76539">
        <ele>1215</ele>
        <time>2015-08-22T22:12:16Z</time>
      </trkpt>
      <trkpt lat="45.23547" lon="5.76545">
        <ele>1211.2</ele>
        <time>2015-08-22T22:12:21Z</time>
      </trkpt>
      <trkpt lat="45.23544" lon="5.76553">
        <ele>1206.1</ele>
        <time>2015-08-22T22:12:26Z</time>
      </trkpt>
      <trkpt lat="45.23542" lon="5.76552">
        <ele>1204.7</ele>
        <time>2015-08-22T22:12:28Z</time>
      </trkpt>
      <trkpt lat="45.23538" lon="5.7654">
        <ele>1203.1</ele>
        <time>2015-08-22T22:12:36Z</time>
      </trkpt>
      <trkpt lat="45.23539" lon="5.76527">
        <ele>1205.7</ele>
        <time>2015-08-22T22:12:43Z</time>
      </trkpt>
      <trkpt lat="45.23536" lon="5.76515">
        <ele>1205.1</ele>
        <time>2015-08-22T22:12:50Z</time>
      </trkpt>
      <trkpt lat="45.23535" lon="5.76504">
        <ele>1206</ele>
        <time>2015-08-22T22:12:56Z</time>
      </trkpt>
      <trkpt lat="45.23533" lon="5.76495">
        <ele>1205.9</ele>
        <time>2015-08-22T22:13:01Z</time>
      </trkpt>
      <trkpt lat="45.23532" lon="5.76493">
        <ele>1205.8</ele>
        <time>2015-08-22T22:13:02Z</time>
      </trkpt>
      <trkpt lat="45.23529" lon="5.76486">
        <ele>1204</ele>
        <time>2015-08-22T22:13:07Z</time>
      </trkpt>
      <trkpt lat="45.23521" lon="5.76472">
        <ele>1199.6</ele>
        <time>2015-08-22T22:13:15Z</time>
      </trkpt>
      <trkpt lat="45.23514" lon="5.7646">
        <ele>1195.3</ele>
        <time>2015-08-22T22:13:21Z</time>
      </trkpt>
      <trkpt lat="45.23508" lon="5.76445">
        <ele>1192.6</ele>
        <time>2015-08-22T22:13:28Z</time>
      </trkpt>
      <trkpt lat="45.23504" lon="5.76432">
        <ele>1191.7</ele>
        <time>2015-08-22T22:13:34Z</time>
      </trkpt>
      <trkpt lat="45.23502" lon="5.76417">
        <ele>1192.5</ele>
        <time>2015-08-22T22:13:42Z</time>
      </trkpt>
      <trkpt lat="45.23503" lon="5.76406">
        <ele>1195.3</ele>
        <time>2015-08-22T22:13:49Z</time>
      </trkpt>
      <trkpt lat="45.23503" lon="5.76404">
        <ele>1195.8</ele>
        <time>2015-08-22T22:13:51Z</time>
      </trkpt>
      <trkpt lat="45.23504" lon="5.76404">
        <ele>1196.6</ele>
        <time>2015-08-22T22:13:54Z</time>
      </trkpt>
      <trkpt lat="45.23505" lon="5.76402">
        <ele>1198.6</ele>
        <time>2015-08-22T22:14:02Z</time>
      </trkpt>
      <trkpt lat="45.23508" lon="5.76401">
        <ele>1201.3</ele>
        <time>2015-08-22T22:14:08Z</time>
      </trkpt>
      <trkpt lat="45.23512" lon="5.76404">
        <ele>1204.2</ele>
        <time>2015-08-22T22:14:14Z</time>
      </trkpt>
      <trkpt lat="45.23516" lon="5.76403">
        <ele>1207.9</ele>
        <time>2015-08-22T22:14:19Z</time>
      </trkpt>
      <trkpt lat="45.2352" lon="5.76397">
        <ele>1212.8</ele>
        <time>2015-08-22T22:14:25Z</time>
      </trkpt>
      <trkpt lat="45.23526" lon="5.76394">
        <ele>1218.4</ele>
        <time>2015-08-22T22:14:31Z</time>
      </trkpt>
      <trkpt lat="45.23535" lon="5.76391">
        <ele>1227.3</ele>
        <time>2015-08-22T22:14:38Z</time>
      </trkpt>
      <trkpt lat="45.23537" lon="5.7639">
        <ele>1229.1</ele>
        <time>2015-08-22T22:14:39Z</time>
      </trkpt>
      <trkpt lat="45.23541" lon="5.76385">
        <ele>1233.2</ele>
        <time>2015-08-22T22:14:44Z</time>
      </trkpt>
      <trkpt lat="45.23542" lon="5.76381">
        <ele>1235.1</ele>
        <time>2015-08-22T22:14:46Z</time>
      </trkpt>
      <trkpt lat="45.23544" lon="5.76372">
        <ele>1238.3</ele>
        <time>2015-08-22T22:14:50Z</time>
      </trkpt>
      <trkpt lat="45.23543" lon="5.76353">
        <ele>1241.1</ele>
        <time>2015-08-22T22:14:58Z</time>
      </trkpt>
      <trkpt lat="45.23547" lon="5.76342">
        <ele>1246.1</ele>
        <time>2015-08-22T22:15:05Z</time>
      </trkpt>
      <trkpt lat="45.2355" lon="5.76334">
        <ele>1249.5</ele>
        <time>2015-08-22T22:15:12Z</time>
      </trkpt>
      <trkpt lat="45.2355" lon="5.76332">
        <ele>1250.2</ele>
        <time>2015-08-22T22:15:13Z</time>
      </trkpt>
      <trkpt lat="45.23553" lon="5.76325">
        <ele>1253.9</ele>
        <time>2015-08-22T22:15:19Z</time>
      </trkpt>
      <trkpt lat="45.2356" lon="5.76315">
        <ele>1261.1</ele>
        <time>2015-08-22T22:15:25Z</time>
      </trkpt>
      <trkpt lat="45.23562" lon="5.76307">
        <ele>1264.1</ele>
        <time>2015-08-22T22:15:30Z</time>
      </trkpt>
      <trkpt lat="45.23563" lon="5.76305">
        <ele>1264.7</ele>
        <time>2015-08-22T22:15:31Z</time>
      </trkpt>
      <trkpt lat="45.23566" lon="5.76299">
        <ele>1268.6</ele>
        <time>2015-08-22T22:15:35Z</time>
      </trkpt>
      <trkpt lat="45.23565" lon="5.76296">
        <ele>1268.2</ele>
        <time>2015-08-22T22:15:37Z</time>
      </trkpt>
      <trkpt lat="45.23565" lon="5.76292">
        <ele>1269.2</ele>
        <time>2015-08-22T22:15:41Z</time>
      </trkpt>
      <trkpt lat="45.23565" lon="5.76291">
        <ele>1269.2</ele>
        <time>2015-08-22T22:15:42Z</time>
      </trkpt>
      <trkpt lat="45.23562" lon="5.76284">
        <ele>1267.9</ele>
        <time>2015-08-22T22:15:47Z</time>
      </trkpt>
      <trkpt lat="45.23561" lon="5.76275">
        <ele>1268</ele>
        <time>2015-08-22T22:15:53Z</time>
      </trkpt>
      <trkpt lat="45.23562" lon="5.76274">
        <ele>1268.7</ele>
        <time>2015-08-22T22:15:54Z</time>
      </trkpt>
      <trkpt lat="45.23563" lon="5.76272">
        <ele>1269.8</ele>
        <time>2015-08-22T22:15:55Z</time>
      </trkpt>
      <trkpt lat="45.23564" lon="5.76266">
        <ele>1271.6</ele>
        <time>2015-08-22T22:15:59Z</time>
      </trkpt>
      <trkpt lat="45.23564" lon="5.76264">
        <ele>1272</ele>
        <time>2015-08-22T22:16:01Z</time>
      </trkpt>
      <trkpt lat="45.23565" lon="5.76262">
        <ele>1273.2</ele>
        <time>2015-08-22T22:16:02Z</time>
      </trkpt>
      <trkpt lat="45.23567" lon="5.76259">
        <ele>1275.3</ele>
        <time>2015-08-22T22:16:05Z</time>
      </trkpt>
      <trkpt lat="45.23569" lon="5.76257">
        <ele>1277.3</ele>
        <time>2015-08-22T22:16:08Z</time>
      </trkpt>
      <trkpt lat="45.23571" lon="5.76253">
        <ele>1279.1</ele>
        <time>2015-08-22T22:16:12Z</time>
      </trkpt>
      <trkpt lat="45.23571" lon="5.7625">
        <ele>1280.2</ele>
        <time>2015-08-22T22:16:17Z</time>
      </trkpt>
      <trkpt lat="45.23573" lon="5.76246">
        <ele>1282.6</ele>
        <time>2015-08-22T22:16:22Z</time>
      </trkpt>
      <trkpt lat="45.23575" lon="5.76239">
        <ele>1285</ele>
        <time>2015-08-22T22:16:28Z</time>
      </trkpt>
      <trkpt lat="45.23575" lon="5.76232">
        <ele>1286.3</ele>
        <time>2015-08-22T22:16:34Z</time>
      </trkpt>
      <trkpt lat="45.23577" lon="5.76222">
        <ele>1289.4</ele>
        <time>2015-08-22T22:16:39Z</time>
      </trkpt>
      <trkpt lat="45.23583" lon="5.76214">
        <ele>1296.5</ele>
        <time>2015-08-22T22:16:45Z</time>
      </trkpt>
      <trkpt lat="45.23584" lon="5.76213">
        <ele>1297.3</ele>
        <time>2015-08-22T22:16:46Z</time>
      </trkpt>
      <trkpt lat="45.23586" lon="5.76204">
        <ele>1300.8</ele>
        <time>2015-08-22T22:16:52Z</time>
      </trkpt>
      <trkpt lat="45.23587" lon="5.762">
        <ele>1301.9</ele>
        <time>2015-08-22T22:16:56Z</time>
      </trkpt>
      <trkpt lat="45.23586" lon="5.76199">
        <ele>1301.6</ele>
        <time>2015-08-22T22:16:58Z</time>
      </trkpt>
      <trkpt lat="45.23585" lon="5.76198">
        <ele>1300.8</ele>
        <time>2015-08-22T22:17:01Z</time>
      </trkpt>
      <trkpt lat="45.23582" lon="5.76195">
        <ele>1298.7</ele>
        <time>2015-08-22T22:17:04Z</time>
      </trkpt>
      <trkpt lat="45.23581" lon="5.76192">
        <ele>1297.9</ele>
        <time>2015-08-22T22:17:06Z</time>
      </trkpt>
      <trkpt lat="45.23576" lon="5.76186">
        <ele>1294.7</ele>
        <time>2015-08-22T22:17:14Z</time>
      </trkpt>
      <trkpt lat="45.23576" lon="5.76186">
        <ele>1294.2</ele>
        <time>2015-08-22T22:17:15Z</time>
      </trkpt>
      <trkpt lat="45.23575" lon="5.76186">
        <ele>1293.4</ele>
        <time>2015-08-22T22:17:16Z</time>
      </trkpt>
      <trkpt lat="45.23573" lon="5.76186">
        <ele>1291.8</ele>
        <time>2015-08-22T22:17:19Z</time>
      </trkpt>
      <trkpt lat="45.2357" lon="5.76185">
        <ele>1289.6</ele>
        <time>2015-08-22T22:17:24Z</time>
      </trkpt>
      <trkpt lat="45.23569" lon="5.76182">
        <ele>1288.7</ele>
        <time>2015-08-22T22:17:28Z</time>
      </trkpt>
      <trkpt lat="45.23569" lon="5.76179">
        <ele>1289.3</ele>
        <time>2015-08-22T22:17:32Z</time>
      </trkpt>
      <trkpt lat="45.23567" lon="5.76178">
        <ele>1287.8</ele>
        <time>2015-08-22T22:17:37Z</time>
      </trkpt>
      <trkpt lat="45.23565" lon="5.76177">
        <ele>1287</ele>
        <time>2015-08-22T22:17:42Z</time>
      </trkpt>
      <trkpt lat="45.23565" lon="5.76172">
        <ele>1287.6</ele>
        <time>2015-08-22T22:17:48Z</time>
      </trkpt>
      <trkpt lat="45.23563" lon="5.76171">
        <ele>1286.5</ele>
        <time>2015-08-22T22:17:53Z</time>
      </trkpt>
      <trkpt lat="45.23562" lon="5.76166">
        <ele>1287</ele>
        <time>2015-08-22T22:17:59Z</time>
      </trkpt>
      <trkpt lat="45.2356" lon="5.76163">
        <ele>1286</ele>
        <time>2015-08-22T22:18:04Z</time>
      </trkpt>
      <trkpt lat="45.23557" lon="5.76162">
        <ele>1283.9</ele>
        <time>2015-08-22T22:18:09Z</time>
      </trkpt>
      <trkpt lat="45.23554" lon="5.76158">
        <ele>1282.1</ele>
        <time>2015-08-22T22:18:15Z</time>
      </trkpt>
      <trkpt lat="45.23553" lon="5.76156">
        <ele>1281.5</ele>
        <time>2015-08-22T22:18:20Z</time>
      </trkpt>
      <trkpt lat="45.23554" lon="5.76151">
        <ele>1283.8</ele>
        <time>2015-08-22T22:18:23Z</time>
      </trkpt>
      <trkpt lat="45.23555" lon="5.76148">
        <ele>1285.4</ele>
        <time>2015-08-22T22:18:25Z</time>
      </trkpt>
      <trkpt lat="45.23556" lon="5.76144">
        <ele>1287.3</ele>
        <time>2015-08-22T22:18:30Z</time>
      </trkpt>
      <trkpt lat="45.23558" lon="5.76145">
        <ele>1288.5</ele>
        <time>2015-08-22T22:18:51Z</time>
      </trkpt>
      <trkpt lat="45.2356" lon="5.76142">
        <ele>1290.8</ele>
        <time>2015-08-22T22:18:58Z</time>
      </trkpt>
      <trkpt lat="45.2356" lon="5.76136">
        <ele>1291.8</ele>
        <time>2015-08-22T22:19:03Z</time>
      </trkpt>
      <trkpt lat="45.2356" lon="5.76129">
        <ele>1293.8</ele>
        <time>2015-08-22T22:19:08Z</time>
      </trkpt>
      <trkpt lat="45.2356" lon="5.76128">
        <ele>1293.8</ele>
        <time>2015-08-22T22:19:10Z</time>
      </trkpt>
      <trkpt lat="45.2356" lon="5.76132">
        <ele>1293.1</ele>
        <time>2015-08-22T22:19:12Z</time>
      </trkpt>
      <trkpt lat="45.23561" lon="5.76135">
        <ele>1292.8</ele>
        <time>2015-08-22T22:19:14Z</time>
      </trkpt>
      <trkpt lat="45.2356" lon="5.76135">
        <ele>1292.5</ele>
        <time>2015-08-22T22:19:15Z</time>
      </trkpt>
      <trkpt lat="45.23559" lon="5.76136">
        <ele>1291.7</ele>
        <time>2015-08-22T22:19:16Z</time>
      </trkpt>
      <trkpt lat="45.23559" lon="5.76138">
        <ele>1290.6</ele>
        <time>2015-08-22T22:19:21Z</time>
      </trkpt>
      <trkpt lat="45.23556" lon="5.76136">
        <ele>1289.1</ele>
        <time>2015-08-22T22:19:34Z</time>
      </trkpt>
      <trkpt lat="45.23551" lon="5.76132">
        <ele>1286.5</ele>
        <time>2015-08-22T22:19:39Z</time>
      </trkpt>
      <trkpt lat="45.23551" lon="5.76131">
        <ele>1286.9</ele>
        <time>2015-08-22T22:19:40Z</time>
      </trkpt>
      <trkpt lat="45.23553" lon="5.76127">
        <ele>1289.6</ele>
        <time>2015-08-22T22:19:44Z</time>
      </trkpt>
      <trkpt lat="45.23555" lon="5.76126">
        <ele>1290.9</ele>
        <time>2015-08-22T22:19:45Z</time>
      </trkpt>
      <trkpt lat="45.2356" lon="5.76122">
        <ele>1292.3</ele>
        <time>2015-08-22T22:19:50Z</time>
      </trkpt>
      <trkpt lat="45.23561" lon="5.76122">
        <ele>1292.9</ele>
        <time>2015-08-22T22:19:51Z</time>
      </trkpt>
      <trkpt lat="45.23563" lon="5.76122">
        <ele>1294.4</ele>
        <time>2015-08-22T22:19:52Z</time>
      </trkpt>
      <trkpt lat="45.23567" lon="5.76123">
        <ele>1297.7</ele>
        <time>2015-08-22T22:19:55Z</time>
      </trkpt>
      <trkpt lat="45.23568" lon="5.76122">
        <ele>1298.4</ele>
        <time>2015-08-22T22:19:57Z</time>
      </trkpt>
      <trkpt lat="45.23571" lon="5.7612">
        <ele>1298.5</ele>
        <time>2015-08-22T22:20:00Z</time>
      </trkpt>
      <trkpt lat="45.23571" lon="5.76121">
        <ele>1299.3</ele>
        <time>2015-08-22T22:20:01Z</time>
      </trkpt>
      <trkpt lat="45.23572" lon="5.76121">
        <ele>1300.1</ele>
        <time>2015-08-22T22:20:02Z</time>
      </trkpt>
      <trkpt lat="45.23575" lon="5.7612">
        <ele>1301.1</ele>
        <time>2015-08-22T22:20:04Z</time>
      </trkpt>
      <trkpt lat="45.23583" lon="5.76117">
        <ele>1304.4</ele>
        <time>2015-08-22T22:20:10Z</time>
      </trkpt>
      <trkpt lat="45.23586" lon="5.76106">
        <ele>1298.5</ele>
        <time>2015-08-22T22:20:15Z</time>
      </trkpt>
      <trkpt lat="45.23584" lon="5.761">
        <ele>1292.3</ele>
        <time>2015-08-22T22:20:20Z</time>
      </trkpt>
      <trkpt lat="45.23579" lon="5.76102">
        <ele>1290.1</ele>
        <time>2015-08-22T22:20:25Z</time>
      </trkpt>
      <trkpt lat="45.23576" lon="5.76104">
        <ele>1289.6</ele>
        <time>2015-08-22T22:20:27Z</time>
      </trkpt>
      <trkpt lat="45.23574" lon="5.76104">
        <ele>1288.7</ele>
        <time>2015-08-22T22:20:28Z</time>
      </trkpt>
      <trkpt lat="45.2357" lon="5.76105">
        <ele>1286.7</ele>
        <time>2015-08-22T22:20:31Z</time>
      </trkpt>
      <trkpt lat="45.23563" lon="5.76106">
        <ele>1282.2</ele>
        <time>2015-08-22T22:20:38Z</time>
      </trkpt>
      <trkpt lat="45.2356" lon="5.76106">
        <ele>1280.2</ele>
        <time>2015-08-22T22:20:41Z</time>
      </trkpt>
      <trkpt lat="45.23559" lon="5.76104">
        <ele>1277.8</ele>
        <time>2015-08-22T22:20:42Z</time>
      </trkpt>
      <trkpt lat="45.2356" lon="5.761">
        <ele>1276.1</ele>
        <time>2015-08-22T22:20:46Z</time>
      </trkpt>
      <trkpt lat="45.23561" lon="5.761">
        <ele>1276.2</ele>
        <time>2015-08-22T22:20:47Z</time>
      </trkpt>
      <trkpt lat="45.23568" lon="5.76095">
        <ele>1277.3</ele>
        <time>2015-08-22T22:20:53Z</time>
      </trkpt>
      <trkpt lat="45.23573" lon="5.76089">
        <ele>1276.2</ele>
        <time>2015-08-22T22:20:59Z</time>
      </trkpt>
      <trkpt lat="45.23576" lon="5.76088">
        <ele>1277.1</ele>
        <time>2015-08-22T22:21:02Z</time>
      </trkpt>
      <trkpt lat="45.23577" lon="5.76086">
        <ele>1277.3</ele>
        <time>2015-08-22T22:21:04Z</time>
      </trkpt>
      <trkpt lat="45.23582" lon="5.7608">
        <ele>1275.6</ele>
        <time>2015-08-22T22:21:09Z</time>
      </trkpt>
      <trkpt lat="45.23588" lon="5.76072">
        <ele>1273.8</ele>
        <time>2015-08-22T22:21:15Z</time>
      </trkpt>
      <trkpt lat="45.2359" lon="5.76061">
        <ele>1267.3</ele>
        <time>2015-08-22T22:21:21Z</time>
      </trkpt>
      <trkpt lat="45.23591" lon="5.76058">
        <ele>1265.9</ele>
        <time>2015-08-22T22:21:23Z</time>
      </trkpt>
      <trkpt lat="45.23588" lon="5.76058">
        <ele>1263.4</ele>
        <time>2015-08-22T22:21:27Z</time>
      </trkpt>
      <trkpt lat="45.23582" lon="5.76059">
        <ele>1260</ele>
        <time>2015-08-22T22:21:34Z</time>
      </trkpt>
      <trkpt lat="45.23577" lon="5.76059">
        <ele>1257</ele>
        <time>2015-08-22T22:21:39Z</time>
      </trkpt>
      <trkpt lat="45.23573" lon="5.76062">
        <ele>1255.3</ele>
        <time>2015-08-22T22:21:43Z</time>
      </trkpt>
      <trkpt lat="45.23572" lon="5.76062">
        <ele>1255.1</ele>
        <time>2015-08-22T22:21:44Z</time>
      </trkpt>
      <trkpt lat="45.2357" lon="5.76063">
        <ele>1253.8</ele>
        <time>2015-08-22T22:21:47Z</time>
      </trkpt>
      <trkpt lat="45.23567" lon="5.76063">
        <ele>1252.1</ele>
        <time>2015-08-22T22:21:50Z</time>
      </trkpt>
      <trkpt lat="45.23565" lon="5.76061">
        <ele>1249.1</ele>
        <time>2015-08-22T22:21:53Z</time>
      </trkpt>
      <trkpt lat="45.23568" lon="5.76057">
        <ele>1247.9</ele>
        <time>2015-08-22T22:21:58Z</time>
      </trkpt>
      <trkpt lat="45.23569" lon="5.76056">
        <ele>1248.1</ele>
        <time>2015-08-22T22:21:59Z</time>
      </trkpt>
      <trkpt lat="45.2357" lon="5.76054">
        <ele>1248.1</ele>
        <time>2015-08-22T22:22:02Z</time>
      </trkpt>
      <trkpt lat="45.23571" lon="5.76051">
        <ele>1246.1</ele>
        <time>2015-08-22T22:22:05Z</time>
      </trkpt>
      <trkpt lat="45.23573" lon="5.76046">
        <ele>1243.3</ele>
        <time>2015-08-22T22:22:09Z</time>
      </trkpt>
      <trkpt lat="45.23575" lon="5.76045">
        <ele>1243.7</ele>
        <time>2015-08-22T22:22:11Z</time>
      </trkpt>
      <trkpt lat="45.23577" lon="5.76044">
        <ele>1244.2</ele>
        <time>2015-08-22T22:22:15Z</time>
      </trkpt>
      <trkpt lat="45.23579" lon="5.76041">
        <ele>1244</ele>
        <time>2015-08-22T22:22:18Z</time>
      </trkpt>
      <trkpt lat="45.23582" lon="5.76041">
        <ele>1246.3</ele>
        <time>2015-08-22T22:22:20Z</time>
      </trkpt>
      <trkpt lat="45.23583" lon="5.76039">
        <ele>1246.4</ele>
        <time>2015-08-22T22:22:22Z</time>
      </trkpt>
      <trkpt lat="45.23586" lon="5.76035">
        <ele>1246.3</ele>
        <time>2015-08-22T22:22:24Z</time>
      </trkpt>
      <trkpt lat="45.23587" lon="5.76033">
        <ele>1246.3</ele>
        <time>2015-08-22T22:22:25Z</time>
      </trkpt>
      <trkpt lat="45.23589" lon="5.76027">
        <ele>1246.1</ele>
        <time>2015-08-22T22:22:29Z</time>
      </trkpt>
      <trkpt lat="45.23591" lon="5.76022">
        <ele>1245.1</ele>
        <time>2015-08-22T22:22:33Z</time>
      </trkpt>
      <trkpt lat="45.23593" lon="5.76016">
        <ele>1244.5</ele>
        <time>2015-08-22T22:22:37Z</time>
      </trkpt>
      <trkpt lat="45.23594" lon="5.76016">
        <ele>1244.7</ele>
        <time>2015-08-22T22:22:38Z</time>
      </trkpt>
      <trkpt lat="45.23597" lon="5.76011">
        <ele>1244.7</ele>
        <time>2015-08-22T22:22:41Z</time>
      </trkpt>
      <trkpt lat="45.236" lon="5.76002">
        <ele>1243.1</ele>
        <time>2015-08-22T22:22:46Z</time>
      </trkpt>
      <trkpt lat="45.23602" lon="5.76001">
        <ele>1243.3</ele>
        <time>2015-08-22T22:22:47Z</time>
      </trkpt>
      <trkpt lat="45.23606" lon="5.75991">
        <ele>1242.1</ele>
        <time>2015-08-22T22:22:52Z</time>
      </trkpt>
      <trkpt lat="45.2361" lon="5.75988">
        <ele>1243.3</ele>
        <time>2015-08-22T22:22:55Z</time>
      </trkpt>
      <trkpt lat="45.23614" lon="5.75983">
        <ele>1243.6</ele>
        <time>2015-08-22T22:22:58Z</time>
      </trkpt>
      <trkpt lat="45.23619" lon="5.75976">
        <ele>1243.9</ele>
        <time>2015-08-22T22:23:02Z</time>
      </trkpt>
      <trkpt lat="45.2362" lon="5.75973">
        <ele>1243</ele>
        <time>2015-08-22T22:23:03Z</time>
      </trkpt>
      <trkpt lat="45.23623" lon="5.75965">
        <ele>1241</ele>
        <time>2015-08-22T22:23:08Z</time>
      </trkpt>
      <trkpt lat="45.23626" lon="5.7596">
        <ele>1240</ele>
        <time>2015-08-22T22:23:11Z</time>
      </trkpt>
      <trkpt lat="45.2363" lon="5.75957">
        <ele>1239.7</ele>
        <time>2015-08-22T22:23:15Z</time>
      </trkpt>
      <trkpt lat="45.23632" lon="5.75954">
        <ele>1238.9</ele>
        <time>2015-08-22T22:23:16Z</time>
      </trkpt>
      <trkpt lat="45.23632" lon="5.7595">
        <ele>1237.5</ele>
        <time>2015-08-22T22:23:19Z</time>
      </trkpt>
      <trkpt lat="45.23632" lon="5.75946">
        <ele>1236.3</ele>
        <time>2015-08-22T22:23:21Z</time>
      </trkpt>
      <trkpt lat="45.2363" lon="5.75944">
        <ele>1235.2</ele>
        <time>2015-08-22T22:23:24Z</time>
      </trkpt>
      <trkpt lat="45.23624" lon="5.7595">
        <ele>1235.7</ele>
        <time>2015-08-22T22:23:47Z</time>
      </trkpt>
      <trkpt lat="45.2362" lon="5.75946">
        <ele>1231.3</ele>
        <time>2015-08-22T22:23:51Z</time>
      </trkpt>
      <trkpt lat="45.23612" lon="5.75947">
        <ele>1227.9</ele>
        <time>2015-08-22T22:23:55Z</time>
      </trkpt>
      <trkpt lat="45.23605" lon="5.75949">
        <ele>1224</ele>
        <time>2015-08-22T22:24:00Z</time>
      </trkpt>
      <trkpt lat="45.23595" lon="5.75951">
        <ele>1219.6</ele>
        <time>2015-08-22T22:24:05Z</time>
      </trkpt>
      <trkpt lat="45.23594" lon="5.75953">
        <ele>1219.6</ele>
        <time>2015-08-22T22:24:06Z</time>
      </trkpt>
      <trkpt lat="45.23588" lon="5.75956">
        <ele>1217.3</ele>
        <time>2015-08-22T22:24:10Z</time>
      </trkpt>
      <trkpt lat="45.23586" lon="5.75956">
        <ele>1216.2</ele>
        <time>2015-08-22T22:24:11Z</time>
      </trkpt>
      <trkpt lat="45.23578" lon="5.7596">
        <ele>1213.4</ele>
        <time>2015-08-22T22:24:16Z</time>
      </trkpt>
      <trkpt lat="45.23576" lon="5.75965">
        <ele>1213.9</ele>
        <time>2015-08-22T22:24:18Z</time>
      </trkpt>
      <trkpt lat="45.23574" lon="5.75969">
        <ele>1214.1</ele>
        <time>2015-08-22T22:24:21Z</time>
      </trkpt>
      <trkpt lat="45.23572" lon="5.75968">
        <ele>1212.8</ele>
        <time>2015-08-22T22:24:23Z</time>
      </trkpt>
      <trkpt lat="45.23566" lon="5.75968">
        <ele>1209.2</ele>
        <time>2015-08-22T22:24:27Z</time>
      </trkpt>
      <trkpt lat="45.23553" lon="5.75972">
        <ele>1202.8</ele>
        <time>2015-08-22T22:24:33Z</time>
      </trkpt>
      <trkpt lat="45.23543" lon="5.75978">
        <ele>1198.7</ele>
        <time>2015-08-22T22:24:38Z</time>
      </trkpt>
      <trkpt lat="45.23541" lon="5.75979">
        <ele>1198</ele>
        <time>2015-08-22T22:24:39Z</time>
      </trkpt>
      <trkpt lat="45.23534" lon="5.75985">
        <ele>1196</ele>
        <time>2015-08-22T22:24:44Z</time>
      </trkpt>
      <trkpt lat="45.23527" lon="5.75989">
        <ele>1193.4</ele>
        <time>2015-08-22T22:24:49Z</time>
      </trkpt>
      <trkpt lat="45.2352" lon="5.75995">
        <ele>1191.2</ele>
        <time>2015-08-22T22:24:54Z</time>
      </trkpt>
      <trkpt lat="45.23517" lon="5.75999">
        <ele>1190.7</ele>
        <time>2015-08-22T22:24:56Z</time>
      </trkpt>
      <trkpt lat="45.23514" lon="5.76005">
        <ele>1191</ele>
        <time>2015-08-22T22:24:59Z</time>
      </trkpt>
      <trkpt lat="45.2351" lon="5.7601">
        <ele>1190.1</ele>
        <time>2015-08-22T22:25:03Z</time>
      </trkpt>
      <trkpt lat="45.23509" lon="5.7601">
        <ele>1189.5</ele>
        <time>2015-08-22T22:25:04Z</time>
      </trkpt>
      <trkpt lat="45.23511" lon="5.76003">
        <ele>1188.2</ele>
        <time>2015-08-22T22:25:09Z</time>
      </trkpt>
      <trkpt lat="45.23514" lon="5.75997">
        <ele>1188.7</ele>
        <time>2015-08-22T22:25:14Z</time>
      </trkpt>
      <trkpt lat="45.23514" lon="5.75996">
        <ele>1188.4</ele>
        <time>2015-08-22T22:25:15Z</time>
      </trkpt>
      <trkpt lat="45.23516" lon="5.75989">
        <ele>1187.2</ele>
        <time>2015-08-22T22:25:20Z</time>
      </trkpt>
      <trkpt lat="45.23523" lon="5.75978">
        <ele>1187.7</ele>
        <time>2015-08-22T22:25:25Z</time>
      </trkpt>
      <trkpt lat="45.23528" lon="5.7597">
        <ele>1188</ele>
        <time>2015-08-22T22:25:30Z</time>
      </trkpt>
      <trkpt lat="45.23532" lon="5.75963">
        <ele>1188.4</ele>
        <time>2015-08-22T22:25:34Z</time>
      </trkpt>
      <trkpt lat="45.23534" lon="5.75958">
        <ele>1188</ele>
        <time>2015-08-22T22:25:36Z</time>
      </trkpt>
      <trkpt lat="45.23538" lon="5.75945">
        <ele>1185.2</ele>
        <time>2015-08-22T22:25:42Z</time>
      </trkpt>
      <trkpt lat="45.23537" lon="5.75936">
        <ele>1181.4</ele>
        <time>2015-08-22T22:25:46Z</time>
      </trkpt>
      <trkpt lat="45.23539" lon="5.7592">
        <ele>1177</ele>
        <time>2015-08-22T22:25:52Z</time>
      </trkpt>
      <trkpt lat="45.2354" lon="5.75917">
        <ele>1176.4</ele>
        <time>2015-08-22T22:25:53Z</time>
      </trkpt>
      <trkpt lat="45.23542" lon="5.75913">
        <ele>1175.9</ele>
        <time>2015-08-22T22:25:57Z</time>
      </trkpt>
      <trkpt lat="45.23549" lon="5.75891">
        <ele>1171.9</ele>
        <time>2015-08-22T22:26:06Z</time>
      </trkpt>
      <trkpt lat="45.23551" lon="5.75886">
        <ele>1171.4</ele>
        <time>2015-08-22T22:26:08Z</time>
      </trkpt>
      <trkpt lat="45.23554" lon="5.75883">
        <ele>1171.8</ele>
        <time>2015-08-22T22:26:11Z</time>
      </trkpt>
      <trkpt lat="45.23558" lon="5.75876">
        <ele>1171.7</ele>
        <time>2015-08-22T22:26:16Z</time>
      </trkpt>
      <trkpt lat="45.23561" lon="5.75869">
        <ele>1170.4</ele>
        <time>2015-08-22T22:26:19Z</time>
      </trkpt>
      <trkpt lat="45.23563" lon="5.75866">
        <ele>1170.1</ele>
        <time>2015-08-22T22:26:21Z</time>
      </trkpt>
      <trkpt lat="45.23565" lon="5.75864">
        <ele>1170.3</ele>
        <time>2015-08-22T22:26:23Z</time>
      </trkpt>
      <trkpt lat="45.23569" lon="5.75857">
        <ele>1169.4</ele>
        <time>2015-08-22T22:26:27Z</time>
      </trkpt>
      <trkpt lat="45.23572" lon="5.75847">
        <ele>1167.1</ele>
        <time>2015-08-22T22:26:31Z</time>
      </trkpt>
      <trkpt lat="45.23573" lon="5.75845">
        <ele>1166.9</ele>
        <time>2015-08-22T22:26:32Z</time>
      </trkpt>
      <trkpt lat="45.23578" lon="5.75836">
        <ele>1165.4</ele>
        <time>2015-08-22T22:26:37Z</time>
      </trkpt>
      <trkpt lat="45.23579" lon="5.75833">
        <ele>1164.5</ele>
        <time>2015-08-22T22:26:38Z</time>
      </trkpt>
      <trkpt lat="45.23582" lon="5.7582">
        <ele>1160.2</ele>
        <time>2015-08-22T22:26:42Z</time>
      </trkpt>
      <trkpt lat="45.23583" lon="5.75819">
        <ele>1160.1</ele>
        <time>2015-08-22T22:26:43Z</time>
      </trkpt>
      <trkpt lat="45.23585" lon="5.75811">
        <ele>1158.1</ele>
        <time>2015-08-22T22:26:47Z</time>
      </trkpt>
      <trkpt lat="45.23594" lon="5.75802">
        <ele>1158.6</ele>
        <time>2015-08-22T22:26:54Z</time>
      </trkpt>
      <trkpt lat="45.23596" lon="5.758">
        <ele>1158.3</ele>
        <time>2015-08-22T22:26:55Z</time>
      </trkpt>
      <trkpt lat="45.23599" lon="5.75797">
        <ele>1158.2</ele>
        <time>2015-08-22T22:26:57Z</time>
      </trkpt>
      <trkpt lat="45.23603" lon="5.75794">
        <ele>1159.1</ele>
        <time>2015-08-22T22:27:00Z</time>
      </trkpt>
      <trkpt lat="45.23606" lon="5.75791">
        <ele>1158.8</ele>
        <time>2015-08-22T22:27:02Z</time>
      </trkpt>
      <trkpt lat="45.23607" lon="5.75789">
        <ele>1157</ele>
        <time>2015-08-22T22:27:03Z</time>
      </trkpt>
      <trkpt lat="45.23606" lon="5.75783">
        <ele>1150.2</ele>
        <time>2015-08-22T22:27:05Z</time>
      </trkpt>
      <trkpt lat="45.23602" lon="5.75786">
        <ele>1151.1</ele>
        <time>2015-08-22T22:27:08Z</time>
      </trkpt>
      <trkpt lat="45.23601" lon="5.75786">
        <ele>1150.7</ele>
        <time>2015-08-22T22:27:09Z</time>
      </trkpt>
      <trkpt lat="45.23592" lon="5.75788">
        <ele>1149</ele>
        <time>2015-08-22T22:27:15Z</time>
      </trkpt>
      <trkpt lat="45.23583" lon="5.75791">
        <ele>1148</ele>
        <time>2015-08-22T22:27:22Z</time>
      </trkpt>
      <trkpt lat="45.23574" lon="5.75794">
        <ele>1145.2</ele>
        <time>2015-08-22T22:27:28Z</time>
      </trkpt>
      <trkpt lat="45.23567" lon="5.75795">
        <ele>1142.2</ele>
        <time>2015-08-22T22:27:34Z</time>
      </trkpt>
      <trkpt lat="45.23563" lon="5.75798">
        <ele>1141.3</ele>
        <time>2015-08-22T22:27:37Z</time>
      </trkpt>
      <trkpt lat="45.2356" lon="5.75797">
        <ele>1140</ele>
        <time>2015-08-22T22:27:39Z</time>
      </trkpt>
      <trkpt lat="45.23554" lon="5.758">
        <ele>1138.3</ele>
        <time>2015-08-22T22:27:43Z</time>
      </trkpt>
      <trkpt lat="45.23552" lon="5.75802">
        <ele>1138</ele>
        <time>2015-08-22T22:27:45Z</time>
      </trkpt>
      <trkpt lat="45.23543" lon="5.75806">
        <ele>1135.2</ele>
        <time>2015-08-22T22:27:52Z</time>
      </trkpt>
      <trkpt lat="45.23534" lon="5.75812">
        <ele>1133.4</ele>
        <time>2015-08-22T22:27:59Z</time>
      </trkpt>
      <trkpt lat="45.23533" lon="5.75812">
        <ele>1133.2</ele>
        <time>2015-08-22T22:28:00Z</time>
      </trkpt>
      <trkpt lat="45.2353" lon="5.75814">
        <ele>1132</ele>
        <time>2015-08-22T22:28:03Z</time>
      </trkpt>
      <trkpt lat="45.23526" lon="5.75813">
        <ele>1129.7</ele>
        <time>2015-08-22T22:28:05Z</time>
      </trkpt>
      <trkpt lat="45.23521" lon="5.75815">
        <ele>1128.3</ele>
        <time>2015-08-22T22:28:09Z</time>
      </trkpt>
      <trkpt lat="45.23516" lon="5.75819">
        <ele>1127.4</ele>
        <time>2015-08-22T22:28:12Z</time>
      </trkpt>
      <trkpt lat="45.2351" lon="5.75824">
        <ele>1126.6</ele>
        <time>2015-08-22T22:28:16Z</time>
      </trkpt>
      <trkpt lat="45.23505" lon="5.75827">
        <ele>1125.5</ele>
        <time>2015-08-22T22:28:20Z</time>
      </trkpt>
      <trkpt lat="45.23501" lon="5.75829">
        <ele>1124.5</ele>
        <time>2015-08-22T22:28:23Z</time>
      </trkpt>
      <trkpt lat="45.23492" lon="5.75833">
        <ele>1121.8</ele>
        <time>2015-08-22T22:28:29Z</time>
      </trkpt>
      <trkpt lat="45.2349" lon="5.75837">
        <ele>1122.4</ele>
        <time>2015-08-22T22:28:31Z</time>
      </trkpt>
      <trkpt lat="45.23484" lon="5.75836">
        <ele>1119.2</ele>
        <time>2015-08-22T22:28:34Z</time>
      </trkpt>
      <trkpt lat="45.23478" lon="5.75838">
        <ele>1117.1</ele>
        <time>2015-08-22T22:28:38Z</time>
      </trkpt>
      <trkpt lat="45.23475" lon="5.75841">
        <ele>1116.9</ele>
        <time>2015-08-22T22:28:40Z</time>
      </trkpt>
      <trkpt lat="45.23469" lon="5.75846">
        <ele>1116.6</ele>
        <time>2015-08-22T22:28:45Z</time>
      </trkpt>
      <trkpt lat="45.23465" lon="5.75848">
        <ele>1114.9</ele>
        <time>2015-08-22T22:28:49Z</time>
      </trkpt>
      <trkpt lat="45.23464" lon="5.75848">
        <ele>1114.8</ele>
        <time>2015-08-22T22:28:50Z</time>
      </trkpt>
      <trkpt lat="45.23459" lon="5.75851">
        <ele>1113.6</ele>
        <time>2015-08-22T22:28:54Z</time>
      </trkpt>
      <trkpt lat="45.23458" lon="5.75852">
        <ele>1113.4</ele>
        <time>2015-08-22T22:28:55Z</time>
      </trkpt>
      <trkpt lat="45.23454" lon="5.75855">
        <ele>1112.6</ele>
        <time>2015-08-22T22:28:58Z</time>
      </trkpt>
      <trkpt lat="45.2345" lon="5.7586">
        <ele>1112.9</ele>
        <time>2015-08-22T22:29:02Z</time>
      </trkpt>
      <trkpt lat="45.23442" lon="5.75864">
        <ele>1111.2</ele>
        <time>2015-08-22T22:29:07Z</time>
      </trkpt>
      <trkpt lat="45.2344" lon="5.75865">
        <ele>1111</ele>
        <time>2015-08-22T22:29:08Z</time>
      </trkpt>
      <trkpt lat="45.23434" lon="5.75875">
        <ele>1112.9</ele>
        <time>2015-08-22T22:29:13Z</time>
      </trkpt>
      <trkpt lat="45.23433" lon="5.75876">
        <ele>1112.7</ele>
        <time>2015-08-22T22:29:14Z</time>
      </trkpt>
      <trkpt lat="45.23424" lon="5.75878">
        <ele>1109.9</ele>
        <time>2015-08-22T22:29:19Z</time>
      </trkpt>
      <trkpt lat="45.23421" lon="5.75879">
        <ele>1108.6</ele>
        <time>2015-08-22T22:29:21Z</time>
      </trkpt>
      <trkpt lat="45.23416" lon="5.75879">
        <ele>1107</ele>
        <time>2015-08-22T22:29:24Z</time>
      </trkpt>
      <trkpt lat="45.23408" lon="5.75883">
        <ele>1104.4</ele>
        <time>2015-08-22T22:29:29Z</time>
      </trkpt>
      <trkpt lat="45.23399" lon="5.75882">
        <ele>1100.6</ele>
        <time>2015-08-22T22:29:35Z</time>
      </trkpt>
      <trkpt lat="45.23388" lon="5.75885">
        <ele>1096.7</ele>
        <time>2015-08-22T22:29:42Z</time>
      </trkpt>
      <trkpt lat="45.23382" lon="5.75894">
        <ele>1096</ele>
        <time>2015-08-22T22:29:48Z</time>
      </trkpt>
      <trkpt lat="45.23378" lon="5.75908">
        <ele>1097.4</ele>
        <time>2015-08-22T22:29:55Z</time>
      </trkpt>
      <trkpt lat="45.23376" lon="5.75915">
        <ele>1098.3</ele>
        <time>2015-08-22T22:29:58Z</time>
      </trkpt>
      <trkpt lat="45.23375" lon="5.75921">
        <ele>1098.9</ele>
        <time>2015-08-22T22:30:00Z</time>
      </trkpt>
      <trkpt lat="45.23374" lon="5.75931">
        <ele>1099.8</ele>
        <time>2015-08-22T22:30:05Z</time>
      </trkpt>
      <trkpt lat="45.23373" lon="5.75934">
        <ele>1099.6</ele>
        <time>2015-08-22T22:30:06Z</time>
      </trkpt>
      <trkpt lat="45.23372" lon="5.75937">
        <ele>1098.8</ele>
        <time>2015-08-22T22:30:08Z</time>
      </trkpt>
      <trkpt lat="45.2337" lon="5.75936">
        <ele>1095.7</ele>
        <time>2015-08-22T22:30:11Z</time>
      </trkpt>
      <trkpt lat="45.23369" lon="5.75928">
        <ele>1093.3</ele>
        <time>2015-08-22T22:30:15Z</time>
      </trkpt>
      <trkpt lat="45.23368" lon="5.75924">
        <ele>1091.3</ele>
        <time>2015-08-22T22:30:17Z</time>
      </trkpt>
      <trkpt lat="45.23367" lon="5.75918">
        <ele>1088.5</ele>
        <time>2015-08-22T22:30:20Z</time>
      </trkpt>
      <trkpt lat="45.23366" lon="5.75914">
        <ele>1085.3</ele>
        <time>2015-08-22T22:30:23Z</time>
      </trkpt>
      <trkpt lat="45.23362" lon="5.75905">
        <ele>1078</ele>
        <time>2015-08-22T22:30:29Z</time>
      </trkpt>
      <trkpt lat="45.23361" lon="5.75904">
        <ele>1077.1</ele>
        <time>2015-08-22T22:30:30Z</time>
      </trkpt>
      <trkpt lat="45.23359" lon="5.75898">
        <ele>1071.7</ele>
        <time>2015-08-22T22:30:34Z</time>
      </trkpt>
      <trkpt lat="45.23358" lon="5.75895">
        <ele>1069.9</ele>
        <time>2015-08-22T22:30:36Z</time>
      </trkpt>
      <trkpt lat="45.23353" lon="5.75884">
        <ele>1060.2</ele>
        <time>2015-08-22T22:30:43Z</time>
      </trkpt>
      <trkpt lat="45.23351" lon="5.75875">
        <ele>1054</ele>
        <time>2015-08-22T22:30:48Z</time>
      </trkpt>
      <trkpt lat="45.23351" lon="5.75865">
        <ele>1047.8</ele>
        <time>2015-08-22T22:30:53Z</time>
      </trkpt>
      <trkpt lat="45.23354" lon="5.75855">
        <ele>1046.3</ele>
        <time>2015-08-22T22:30:58Z</time>
      </trkpt>
      <trkpt lat="45.23357" lon="5.75852">
        <ele>1047.7</ele>
        <time>2015-08-22T22:31:00Z</time>
      </trkpt>
      <trkpt lat="45.23361" lon="5.75849">
        <ele>1051.3</ele>
        <time>2015-08-22T22:31:02Z</time>
      </trkpt>
      <trkpt lat="45.23363" lon="5.75847">
        <ele>1052.4</ele>
        <time>2015-08-22T22:31:03Z</time>
      </trkpt>
      <trkpt lat="45.2337" lon="5.75838">
        <ele>1056.8</ele>
        <time>2015-08-22T22:31:10Z</time>
      </trkpt>
      <trkpt lat="45.23372" lon="5.75838">
        <ele>1059.2</ele>
        <time>2015-08-22T22:31:11Z</time>
      </trkpt>
      <trkpt lat="45.23377" lon="5.75835">
        <ele>1062.2</ele>
        <time>2015-08-22T22:31:15Z</time>
      </trkpt>
      <trkpt lat="45.2338" lon="5.75835">
        <ele>1063</ele>
        <time>2015-08-22T22:31:18Z</time>
      </trkpt>
      <trkpt lat="45.23382" lon="5.75833">
        <ele>1063.3</ele>
        <time>2015-08-22T22:31:20Z</time>
      </trkpt>
      <trkpt lat="45.23386" lon="5.75835">
        <ele>1066.8</ele>
        <time>2015-08-22T22:31:23Z</time>
      </trkpt>
      <trkpt lat="45.23387" lon="5.75833">
        <ele>1066.1</ele>
        <time>2015-08-22T22:31:24Z</time>
      </trkpt>
      <trkpt lat="45.23388" lon="5.75831">
        <ele>1065.6</ele>
        <time>2015-08-22T22:31:25Z</time>
      </trkpt>
      <trkpt lat="45.23396" lon="5.75825">
        <ele>1066</ele>
        <time>2015-08-22T22:31:31Z</time>
      </trkpt>
      <trkpt lat="45.23399" lon="5.75819">
        <ele>1063.6</ele>
        <time>2015-08-22T22:31:34Z</time>
      </trkpt>
      <trkpt lat="45.234" lon="5.75814">
        <ele>1061.4</ele>
        <time>2015-08-22T22:31:36Z</time>
      </trkpt>
      <trkpt lat="45.23402" lon="5.758">
        <ele>1054.7</ele>
        <time>2015-08-22T22:31:42Z</time>
      </trkpt>
      <trkpt lat="45.23404" lon="5.75794">
        <ele>1052</ele>
        <time>2015-08-22T22:31:46Z</time>
      </trkpt>
      <trkpt lat="45.23406" lon="5.7579">
        <ele>1051</ele>
        <time>2015-08-22T22:31:48Z</time>
      </trkpt>
      <trkpt lat="45.23407" lon="5.75777">
        <ele>1044.2</ele>
        <time>2015-08-22T22:31:54Z</time>
      </trkpt>
      <trkpt lat="45.23409" lon="5.75773">
        <ele>1042.6</ele>
        <time>2015-08-22T22:31:56Z</time>
      </trkpt>
      <trkpt lat="45.23411" lon="5.75769">
        <ele>1041.8</ele>
        <time>2015-08-22T22:31:59Z</time>
      </trkpt>
      <trkpt lat="45.23415" lon="5.75762">
        <ele>1040.2</ele>
        <time>2015-08-22T22:32:03Z</time>
      </trkpt>
      <trkpt lat="45.23416" lon="5.75754">
        <ele>1036.8</ele>
        <time>2015-08-22T22:32:07Z</time>
      </trkpt>
      <trkpt lat="45.23417" lon="5.75751">
        <ele>1036.3</ele>
        <time>2015-08-22T22:32:08Z</time>
      </trkpt>
      <trkpt lat="45.2342" lon="5.75744">
        <ele>1033.8</ele>
        <time>2015-08-22T22:32:12Z</time>
      </trkpt>
      <trkpt lat="45.23421" lon="5.7574">
        <ele>1032</ele>
        <time>2015-08-22T22:32:14Z</time>
      </trkpt>
      <trkpt lat="45.23422" lon="5.75738">
        <ele>1031.9</ele>
        <time>2015-08-22T22:32:15Z</time>
      </trkpt>
      <trkpt lat="45.23422" lon="5.7573">
        <ele>1028</ele>
        <time>2015-08-22T22:32:18Z</time>
      </trkpt>
      <trkpt lat="45.23424" lon="5.75727">
        <ele>1027.2</ele>
        <time>2015-08-22T22:32:20Z</time>
      </trkpt>
      <trkpt lat="45.23427" lon="5.7572">
        <ele>1025.4</ele>
        <time>2015-08-22T22:32:24Z</time>
      </trkpt>
      <trkpt lat="45.23431" lon="5.75707">
        <ele>1022</ele>
        <time>2015-08-22T22:32:31Z</time>
      </trkpt>
      <trkpt lat="45.23431" lon="5.75706">
        <ele>1021.4</ele>
        <time>2015-08-22T22:32:32Z</time>
      </trkpt>
      <trkpt lat="45.23432" lon="5.757">
        <ele>1020.3</ele>
        <time>2015-08-22T22:32:37Z</time>
      </trkpt>
      <trkpt lat="45.23437" lon="5.75691">
        <ele>1019.7</ele>
        <time>2015-08-22T22:32:42Z</time>
      </trkpt>
      <trkpt lat="45.23436" lon="5.75687">
        <ele>1017.9</ele>
        <time>2015-08-22T22:32:44Z</time>
      </trkpt>
      <trkpt lat="45.23434" lon="5.75688">
        <ele>1016.3</ele>
        <time>2015-08-22T22:32:46Z</time>
      </trkpt>
      <trkpt lat="45.23433" lon="5.75689">
        <ele>1015.9</ele>
        <time>2015-08-22T22:32:47Z</time>
      </trkpt>
      <trkpt lat="45.23428" lon="5.75693">
        <ele>1013.9</ele>
        <time>2015-08-22T22:32:51Z</time>
      </trkpt>
      <trkpt lat="45.23423" lon="5.75701">
        <ele>1013</ele>
        <time>2015-08-22T22:32:57Z</time>
      </trkpt>
      <trkpt lat="45.23418" lon="5.75707">
        <ele>1011.3</ele>
        <time>2015-08-22T22:33:02Z</time>
      </trkpt>
      <trkpt lat="45.23409" lon="5.75717">
        <ele>1009.1</ele>
        <time>2015-08-22T22:33:09Z</time>
      </trkpt>
      <trkpt lat="45.23405" lon="5.7572">
        <ele>1008.1</ele>
        <time>2015-08-22T22:33:13Z</time>
      </trkpt>
      <trkpt lat="45.23404" lon="5.75719">
        <ele>1006.8</ele>
        <time>2015-08-22T22:33:14Z</time>
      </trkpt>
      <trkpt lat="45.23399" lon="5.75722">
        <ele>1004.4</ele>
        <time>2015-08-22T22:33:18Z</time>
      </trkpt>
      <trkpt lat="45.23399" lon="5.75719">
        <ele>1002.6</ele>
        <time>2015-08-22T22:33:21Z</time>
      </trkpt>
      <trkpt lat="45.234" lon="5.75714">
        <ele>1000.1</ele>
        <time>2015-08-22T22:33:23Z</time>
      </trkpt>
      <trkpt lat="45.23404" lon="5.75703">
        <ele>998.5</ele>
        <time>2015-08-22T22:33:29Z</time>
      </trkpt>
      <trkpt lat="45.23406" lon="5.75693">
        <ele>996.8</ele>
        <time>2015-08-22T22:33:34Z</time>
      </trkpt>
      <trkpt lat="45.23407" lon="5.75692">
        <ele>996.4</ele>
        <time>2015-08-22T22:33:35Z</time>
      </trkpt>
      <trkpt lat="45.23409" lon="5.75685">
        <ele>995.9</ele>
        <time>2015-08-22T22:33:41Z</time>
      </trkpt>
      <trkpt lat="45.2341" lon="5.75683">
        <ele>995.8</ele>
        <time>2015-08-22T22:33:42Z</time>
      </trkpt>
      <trkpt lat="45.23414" lon="5.75679">
        <ele>997.2</ele>
        <time>2015-08-22T22:33:46Z</time>
      </trkpt>
      <trkpt lat="45.23415" lon="5.75673">
        <ele>996</ele>
        <time>2015-08-22T22:33:49Z</time>
      </trkpt>
      <trkpt lat="45.23417" lon="5.75665">
        <ele>994.6</ele>
        <time>2015-08-22T22:33:52Z</time>
      </trkpt>
      <trkpt lat="45.23418" lon="5.75661">
        <ele>994.3</ele>
        <time>2015-08-22T22:33:55Z</time>
      </trkpt>
      <trkpt lat="45.23422" lon="5.75656">
        <ele>994.7</ele>
        <time>2015-08-22T22:33:58Z</time>
      </trkpt>
      <trkpt lat="45.23423" lon="5.75655">
        <ele>995.4</ele>
        <time>2015-08-22T22:34:00Z</time>
      </trkpt>
      <trkpt lat="45.23425" lon="5.75654">
        <ele>996</ele>
        <time>2015-08-22T22:34:01Z</time>
      </trkpt>
      <trkpt lat="45.23429" lon="5.75652">
        <ele>998</ele>
        <time>2015-08-22T22:34:05Z</time>
      </trkpt>
      <trkpt lat="45.23434" lon="5.75652">
        <ele>1001.3</ele>
        <time>2015-08-22T22:34:09Z</time>
      </trkpt>
      <trkpt lat="45.23436" lon="5.75652">
        <ele>1003.1</ele>
        <time>2015-08-22T22:34:11Z</time>
      </trkpt>
      <trkpt lat="45.23438" lon="5.75651">
        <ele>1004.3</ele>
        <time>2015-08-22T22:34:13Z</time>
      </trkpt>
      <trkpt lat="45.23444" lon="5.75647">
        <ele>1006.3</ele>
        <time>2015-08-22T22:34:17Z</time>
      </trkpt>
      <trkpt lat="45.23445" lon="5.75645">
        <ele>1006.4</ele>
        <time>2015-08-22T22:34:18Z</time>
      </trkpt>
      <trkpt lat="45.2345" lon="5.7564">
        <ele>1007.5</ele>
        <time>2015-08-22T22:34:22Z</time>
      </trkpt>
      <trkpt lat="45.23457" lon="5.75638">
        <ele>1011.2</ele>
        <time>2015-08-22T22:34:26Z</time>
      </trkpt>
      <trkpt lat="45.23458" lon="5.75636">
        <ele>1011.3</ele>
        <time>2015-08-22T22:34:27Z</time>
      </trkpt>
      <trkpt lat="45.23465" lon="5.75634">
        <ele>1011.6</ele>
        <time>2015-08-22T22:34:31Z</time>
      </trkpt>
      <trkpt lat="45.23467" lon="5.75635">
        <ele>1012.2</ele>
        <time>2015-08-22T22:34:33Z</time>
      </trkpt>
      <trkpt lat="45.23472" lon="5.75633">
        <ele>1012.5</ele>
        <time>2015-08-22T22:34:37Z</time>
      </trkpt>
      <trkpt lat="45.23479" lon="5.75633">
        <ele>1013.7</ele>
        <time>2015-08-22T22:34:41Z</time>
      </trkpt>
      <trkpt lat="45.23484" lon="5.7563">
        <ele>1013</ele>
        <time>2015-08-22T22:34:43Z</time>
      </trkpt>
      <trkpt lat="45.23492" lon="5.75627">
        <ele>1013.2</ele>
        <time>2015-08-22T22:34:50Z</time>
      </trkpt>
      <trkpt lat="45.23496" lon="5.75626">
        <ele>1013.3</ele>
        <time>2015-08-22T22:34:53Z</time>
      </trkpt>
      <trkpt lat="45.23501" lon="5.75627">
        <ele>1015</ele>
        <time>2015-08-22T22:34:56Z</time>
      </trkpt>
      <trkpt lat="45.23503" lon="5.75626">
        <ele>1014.6</ele>
        <time>2015-08-22T22:34:57Z</time>
      </trkpt>
      <trkpt lat="45.23508" lon="5.75624">
        <ele>1014.5</ele>
        <time>2015-08-22T22:35:00Z</time>
      </trkpt>
      <trkpt lat="45.23512" lon="5.75626">
        <ele>1016.4</ele>
        <time>2015-08-22T22:35:03Z</time>
      </trkpt>
      <trkpt lat="45.23513" lon="5.75626">
        <ele>1016.3</ele>
        <time>2015-08-22T22:35:04Z</time>
      </trkpt>
      <trkpt lat="45.2352" lon="5.75619">
        <ele>1012.9</ele>
        <time>2015-08-22T22:35:07Z</time>
      </trkpt>
      <trkpt lat="45.23526" lon="5.75612">
        <ele>1009.9</ele>
        <time>2015-08-22T22:35:10Z</time>
      </trkpt>
      <trkpt lat="45.23535" lon="5.75611">
        <ele>1010.6</ele>
        <time>2015-08-22T22:35:16Z</time>
      </trkpt>
      <trkpt lat="45.23537" lon="5.7561">
        <ele>1009.9</ele>
        <time>2015-08-22T22:35:18Z</time>
      </trkpt>
      <trkpt lat="45.23537" lon="5.75608">
        <ele>1008.6</ele>
        <time>2015-08-22T22:35:19Z</time>
      </trkpt>
      <trkpt lat="45.23535" lon="5.75605">
        <ele>1006.3</ele>
        <time>2015-08-22T22:35:21Z</time>
      </trkpt>
      <trkpt lat="45.23531" lon="5.75601">
        <ele>1003.2</ele>
        <time>2015-08-22T22:35:24Z</time>
      </trkpt>
      <trkpt lat="45.23525" lon="5.75597">
        <ele>999.6</ele>
        <time>2015-08-22T22:35:28Z</time>
      </trkpt>
      <trkpt lat="45.23524" lon="5.75597">
        <ele>999.4</ele>
        <time>2015-08-22T22:35:29Z</time>
      </trkpt>
      <trkpt lat="45.2352" lon="5.75596">
        <ele>998</ele>
        <time>2015-08-22T22:35:32Z</time>
      </trkpt>
      <trkpt lat="45.23517" lon="5.75595">
        <ele>996.9</ele>
        <time>2015-08-22T22:35:34Z</time>
      </trkpt>
      <trkpt lat="45.23514" lon="5.75592">
        <ele>994.7</ele>
        <time>2015-08-22T22:35:36Z</time>
      </trkpt>
      <trkpt lat="45.23512" lon="5.7559">
        <ele>992.6</ele>
        <time>2015-08-22T22:35:39Z</time>
      </trkpt>
      <trkpt lat="45.23506" lon="5.75585">
        <ele>988.7</ele>
        <time>2015-08-22T22:35:44Z</time>
      </trkpt>
      <trkpt lat="45.23493" lon="5.75579">
        <ele>982.4</ele>
        <time>2015-08-22T22:35:52Z</time>
      </trkpt>
      <trkpt lat="45.23486" lon="5.75581">
        <ele>983</ele>
        <time>2015-08-22T22:35:57Z</time>
      </trkpt>
      <trkpt lat="45.23478" lon="5.75579">
        <ele>980.5</ele>
        <time>2015-08-22T22:36:03Z</time>
      </trkpt>
      <trkpt lat="45.23468" lon="5.75577">
        <ele>977.5</ele>
        <time>2015-08-22T22:36:09Z</time>
      </trkpt>
      <trkpt lat="45.23458" lon="5.75576">
        <ele>974.8</ele>
        <time>2015-08-22T22:36:16Z</time>
      </trkpt>
      <trkpt lat="45.23448" lon="5.75576">
        <ele>970.4</ele>
        <time>2015-08-22T22:36:23Z</time>
      </trkpt>
      <trkpt lat="45.23432" lon="5.75575">
        <ele>962.4</ele>
        <time>2015-08-22T22:36:32Z</time>
      </trkpt>
      <trkpt lat="45.2343" lon="5.75575">
        <ele>961.8</ele>
        <time>2015-08-22T22:36:34Z</time>
      </trkpt>
      <trkpt lat="45.23427" lon="5.75576">
        <ele>960.3</ele>
        <time>2015-08-22T22:36:37Z</time>
      </trkpt>
      <trkpt lat="45.23422" lon="5.75572">
        <ele>955.8</ele>
        <time>2015-08-22T22:36:41Z</time>
      </trkpt>
      <trkpt lat="45.23417" lon="5.75569">
        <ele>952.6</ele>
        <time>2015-08-22T22:36:43Z</time>
      </trkpt>
      <trkpt lat="45.23409" lon="5.75568">
        <ele>948.4</ele>
        <time>2015-08-22T22:36:49Z</time>
      </trkpt>
      <trkpt lat="45.23408" lon="5.75569">
        <ele>948.2</ele>
        <time>2015-08-22T22:36:50Z</time>
      </trkpt>
      <trkpt lat="45.234" lon="5.7557">
        <ele>945.2</ele>
        <time>2015-08-22T22:36:55Z</time>
      </trkpt>
      <trkpt lat="45.23398" lon="5.75569">
        <ele>943.9</ele>
        <time>2015-08-22T22:36:56Z</time>
      </trkpt>
      <trkpt lat="45.23392" lon="5.75572">
        <ele>942.3</ele>
        <time>2015-08-22T22:37:01Z</time>
      </trkpt>
      <trkpt lat="45.2339" lon="5.75572">
        <ele>941.5</ele>
        <time>2015-08-22T22:37:02Z</time>
      </trkpt>
      <trkpt lat="45.23385" lon="5.75573">
        <ele>939.6</ele>
        <time>2015-08-22T22:37:05Z</time>
      </trkpt>
      <trkpt lat="45.23383" lon="5.75573">
        <ele>938.7</ele>
        <time>2015-08-22T22:37:06Z</time>
      </trkpt>
      <trkpt lat="45.23376" lon="5.75576">
        <ele>936.6</ele>
        <time>2015-08-22T22:37:12Z</time>
      </trkpt>
      <trkpt lat="45.23373" lon="5.75578">
        <ele>935.3</ele>
        <time>2015-08-22T22:37:14Z</time>
      </trkpt>
      <trkpt lat="45.23372" lon="5.75577">
        <ele>934.2</ele>
        <time>2015-08-22T22:37:15Z</time>
      </trkpt>
      <trkpt lat="45.23367" lon="5.75578">
        <ele>931</ele>
        <time>2015-08-22T22:37:18Z</time>
      </trkpt>
      <trkpt lat="45.2336" lon="5.75584">
        <ele>928.4</ele>
        <time>2015-08-22T22:37:24Z</time>
      </trkpt>
      <trkpt lat="45.23356" lon="5.75586">
        <ele>926.5</ele>
        <time>2015-08-22T22:37:27Z</time>
      </trkpt>
      <trkpt lat="45.23351" lon="5.75588">
        <ele>923.9</ele>
        <time>2015-08-22T22:37:31Z</time>
      </trkpt>
      <trkpt lat="45.23347" lon="5.7559">
        <ele>922.3</ele>
        <time>2015-08-22T22:37:34Z</time>
      </trkpt>
      <trkpt lat="45.23343" lon="5.75592">
        <ele>920.2</ele>
        <time>2015-08-22T22:37:37Z</time>
      </trkpt>
      <trkpt lat="45.23338" lon="5.75593">
        <ele>917.1</ele>
        <time>2015-08-22T22:37:42Z</time>
      </trkpt>
      <trkpt lat="45.23339" lon="5.75591">
        <ele>916.8</ele>
        <time>2015-08-22T22:37:43Z</time>
      </trkpt>
      <trkpt lat="45.23342" lon="5.7559">
        <ele>918.6</ele>
        <time>2015-08-22T22:37:47Z</time>
      </trkpt>
      <trkpt lat="45.23343" lon="5.75589">
        <ele>918.6</ele>
        <time>2015-08-22T22:37:48Z</time>
      </trkpt>
      <trkpt lat="45.23347" lon="5.75582">
        <ele>919.3</ele>
        <time>2015-08-22T22:37:52Z</time>
      </trkpt>
      <trkpt lat="45.23356" lon="5.75576">
        <ele>922.8</ele>
        <time>2015-08-22T22:37:58Z</time>
      </trkpt>
      <trkpt lat="45.23357" lon="5.75573">
        <ele>922.5</ele>
        <time>2015-08-22T22:38:00Z</time>
      </trkpt>
      <trkpt lat="45.23361" lon="5.75564">
        <ele>922.3</ele>
        <time>2015-08-22T22:38:04Z</time>
      </trkpt>
      <trkpt lat="45.23363" lon="5.75561">
        <ele>923</ele>
        <time>2015-08-22T22:38:06Z</time>
      </trkpt>
      <trkpt lat="45.23365" lon="5.75561">
        <ele>923.9</ele>
        <time>2015-08-22T22:38:07Z</time>
      </trkpt>
      <trkpt lat="45.23367" lon="5.75558">
        <ele>924</ele>
        <time>2015-08-22T22:38:09Z</time>
      </trkpt>
      <trkpt lat="45.23376" lon="5.75554">
        <ele>928.5</ele>
        <time>2015-08-22T22:38:15Z</time>
      </trkpt>
      <trkpt lat="45.23376" lon="5.75552">
        <ele>928</ele>
        <time>2015-08-22T22:38:16Z</time>
      </trkpt>
      <trkpt lat="45.23385" lon="5.75542">
        <ele>927.6</ele>
        <time>2015-08-22T22:38:22Z</time>
      </trkpt>
      <trkpt lat="45.23394" lon="5.75531">
        <ele>925.9</ele>
        <time>2015-08-22T22:38:28Z</time>
      </trkpt>
      <trkpt lat="45.234" lon="5.75527">
        <ele>925.7</ele>
        <time>2015-08-22T22:38:33Z</time>
      </trkpt>
      <trkpt lat="45.23401" lon="5.75526">
        <ele>925.7</ele>
        <time>2015-08-22T22:38:34Z</time>
      </trkpt>
      <trkpt lat="45.23406" lon="5.7552">
        <ele>924.7</ele>
        <time>2015-08-22T22:38:38Z</time>
      </trkpt>
      <trkpt lat="45.23407" lon="5.75519">
        <ele>924.4</ele>
        <time>2015-08-22T22:38:39Z</time>
      </trkpt>
      <trkpt lat="45.23408" lon="5.75516">
        <ele>923.4</ele>
        <time>2015-08-22T22:38:41Z</time>
      </trkpt>
      <trkpt lat="45.23411" lon="5.75513">
        <ele>923</ele>
        <time>2015-08-22T22:38:43Z</time>
      </trkpt>
      <trkpt lat="45.23417" lon="5.7551">
        <ele>923.2</ele>
        <time>2015-08-22T22:38:47Z</time>
      </trkpt>
      <trkpt lat="45.23419" lon="5.75509">
        <ele>923.7</ele>
        <time>2015-08-22T22:38:48Z</time>
      </trkpt>
      <trkpt lat="45.23426" lon="5.75506">
        <ele>924</ele>
        <time>2015-08-22T22:38:53Z</time>
      </trkpt>
      <trkpt lat="45.23427" lon="5.75506">
        <ele>924.3</ele>
        <time>2015-08-22T22:38:54Z</time>
      </trkpt>
      <trkpt lat="45.23432" lon="5.75506">
        <ele>926</ele>
        <time>2015-08-22T22:38:58Z</time>
      </trkpt>
      <trkpt lat="45.23434" lon="5.75506">
        <ele>926.6</ele>
        <time>2015-08-22T22:38:59Z</time>
      </trkpt>
      <trkpt lat="45.23438" lon="5.75504">
        <ele>926.7</ele>
        <time>2015-08-22T22:39:02Z</time>
      </trkpt>
      <trkpt lat="45.2344" lon="5.75503">
        <ele>927</ele>
        <time>2015-08-22T22:39:04Z</time>
      </trkpt>
      <trkpt lat="45.23446" lon="5.75499">
        <ele>926.7</ele>
        <time>2015-08-22T22:39:08Z</time>
      </trkpt>
      <trkpt lat="45.23452" lon="5.75498">
        <ele>927.9</ele>
        <time>2015-08-22T22:39:12Z</time>
      </trkpt>
      <trkpt lat="45.23455" lon="5.75499">
        <ele>929.2</ele>
        <time>2015-08-22T22:39:13Z</time>
      </trkpt>
      <trkpt lat="45.23457" lon="5.75498">
        <ele>929.4</ele>
        <time>2015-08-22T22:39:14Z</time>
      </trkpt>
      <trkpt lat="45.23463" lon="5.755">
        <ele>931.6</ele>
        <time>2015-08-22T22:39:20Z</time>
      </trkpt>
      <trkpt lat="45.23467" lon="5.75492">
        <ele>928.1</ele>
        <time>2015-08-22T22:39:24Z</time>
      </trkpt>
      <trkpt lat="45.23468" lon="5.75488">
        <ele>926.3</ele>
        <time>2015-08-22T22:39:26Z</time>
      </trkpt>
      <trkpt lat="45.2347" lon="5.75487">
        <ele>925.6</ele>
        <time>2015-08-22T22:39:28Z</time>
      </trkpt>
      <trkpt lat="45.23475" lon="5.75483">
        <ele>924.3</ele>
        <time>2015-08-22T22:39:32Z</time>
      </trkpt>
      <trkpt lat="45.23479" lon="5.7548">
        <ele>923.4</ele>
        <time>2015-08-22T22:39:34Z</time>
      </trkpt>
      <trkpt lat="45.23484" lon="5.75476">
        <ele>922.2</ele>
        <time>2015-08-22T22:39:37Z</time>
      </trkpt>
      <trkpt lat="45.23487" lon="5.75475">
        <ele>922.3</ele>
        <time>2015-08-22T22:39:39Z</time>
      </trkpt>
      <trkpt lat="45.2349" lon="5.75472">
        <ele>921.1</ele>
        <time>2015-08-22T22:39:42Z</time>
      </trkpt>
      <trkpt lat="45.23489" lon="5.7547">
        <ele>920.3</ele>
        <time>2015-08-22T22:39:43Z</time>
      </trkpt>
      <trkpt lat="45.23484" lon="5.75467">
        <ele>917.4</ele>
        <time>2015-08-22T22:39:47Z</time>
      </trkpt>
      <trkpt lat="45.23476" lon="5.75464">
        <ele>914.7</ele>
        <time>2015-08-22T22:39:53Z</time>
      </trkpt>
      <trkpt lat="45.2347" lon="5.75464">
        <ele>913.3</ele>
        <time>2015-08-22T22:39:57Z</time>
      </trkpt>
      <trkpt lat="45.23469" lon="5.75464">
        <ele>913.3</ele>
        <time>2015-08-22T22:39:58Z</time>
      </trkpt>
      <trkpt lat="45.2346" lon="5.75464">
        <ele>911.2</ele>
        <time>2015-08-22T22:40:04Z</time>
      </trkpt>
      <trkpt lat="45.23453" lon="5.75464">
        <ele>909.5</ele>
        <time>2015-08-22T22:40:08Z</time>
      </trkpt>
      <trkpt lat="45.23451" lon="5.75463">
        <ele>908.5</ele>
        <time>2015-08-22T22:40:10Z</time>
      </trkpt>
      <trkpt lat="45.23441" lon="5.75459">
        <ele>904</ele>
        <time>2015-08-22T22:40:17Z</time>
      </trkpt>
      <trkpt lat="45.23439" lon="5.7546">
        <ele>903.9</ele>
        <time>2015-08-22T22:40:18Z</time>
      </trkpt>
      <trkpt lat="45.23433" lon="5.75459">
        <ele>902.1</ele>
        <time>2015-08-22T22:40:22Z</time>
      </trkpt>
      <trkpt lat="45.23431" lon="5.75459">
        <ele>901.3</ele>
        <time>2015-08-22T22:40:23Z</time>
      </trkpt>
      <trkpt lat="45.23425" lon="5.75458">
        <ele>899.6</ele>
        <time>2015-08-22T22:40:26Z</time>
      </trkpt>
      <trkpt lat="45.23424" lon="5.75458">
        <ele>899.4</ele>
        <time>2015-08-22T22:40:27Z</time>
      </trkpt>
      <trkpt lat="45.23416" lon="5.75456">
        <ele>896.3</ele>
        <time>2015-08-22T22:40:32Z</time>
      </trkpt>
      <trkpt lat="45.23403" lon="5.75452">
        <ele>891.3</ele>
        <time>2015-08-22T22:40:39Z</time>
      </trkpt>
      <trkpt lat="45.23394" lon="5.75448">
        <ele>887.3</ele>
        <time>2015-08-22T22:40:45Z</time>
      </trkpt>
      <trkpt lat="45.23388" lon="5.75451">
        <ele>887.4</ele>
        <time>2015-08-22T22:40:50Z</time>
      </trkpt>
      <trkpt lat="45.23386" lon="5.75453">
        <ele>887.3</ele>
        <time>2015-08-22T22:40:52Z</time>
      </trkpt>
      <trkpt lat="45.23377" lon="5.75451">
        <ele>884.5</ele>
        <time>2015-08-22T22:40:58Z</time>
      </trkpt>
      <trkpt lat="45.2337" lon="5.75451">
        <ele>881.7</ele>
        <time>2015-08-22T22:41:03Z</time>
      </trkpt>
      <trkpt lat="45.23369" lon="5.75452">
        <ele>881.6</ele>
        <time>2015-08-22T22:41:04Z</time>
      </trkpt>
      <trkpt lat="45.23359" lon="5.75454">
        <ele>877.7</ele>
        <time>2015-08-22T22:41:10Z</time>
      </trkpt>
      <trkpt lat="45.23348" lon="5.75454">
        <ele>872.9</ele>
        <time>2015-08-22T22:41:16Z</time>
      </trkpt>
      <trkpt lat="45.23336" lon="5.75455">
        <ele>867.1</ele>
        <time>2015-08-22T22:41:24Z</time>
      </trkpt>
      <trkpt lat="45.23329" lon="5.75459">
        <ele>865.3</ele>
        <time>2015-08-22T22:41:30Z</time>
      </trkpt>
      <trkpt lat="45.23318" lon="5.75459">
        <ele>859.6</ele>
        <time>2015-08-22T22:41:36Z</time>
      </trkpt>
      <trkpt lat="45.23311" lon="5.75461">
        <ele>857.1</ele>
        <time>2015-08-22T22:41:42Z</time>
      </trkpt>
      <trkpt lat="45.23304" lon="5.75462">
        <ele>853.6</ele>
        <time>2015-08-22T22:41:46Z</time>
      </trkpt>
      <trkpt lat="45.23301" lon="5.75463">
        <ele>852.7</ele>
        <time>2015-08-22T22:41:48Z</time>
      </trkpt>
      <trkpt lat="45.23297" lon="5.75467">
        <ele>852.1</ele>
        <time>2015-08-22T22:41:51Z</time>
      </trkpt>
      <trkpt lat="45.23297" lon="5.75468">
        <ele>852.2</ele>
        <time>2015-08-22T22:41:52Z</time>
      </trkpt>
      <trkpt lat="45.23292" lon="5.75473">
        <ele>850.8</ele>
        <time>2015-08-22T22:41:56Z</time>
      </trkpt>
      <trkpt lat="45.2329" lon="5.75474">
        <ele>850.2</ele>
        <time>2015-08-22T22:41:57Z</time>
      </trkpt>
      <trkpt lat="45.23289" lon="5.75474">
        <ele>849.6</ele>
        <time>2015-08-22T22:41:58Z</time>
      </trkpt>
      <trkpt lat="45.23284" lon="5.75477">
        <ele>847.7</ele>
        <time>2015-08-22T22:42:02Z</time>
      </trkpt>
      <trkpt lat="45.23279" lon="5.7548">
        <ele>845.6</ele>
        <time>2015-08-22T22:42:06Z</time>
      </trkpt>
      <trkpt lat="45.23271" lon="5.75484">
        <ele>842.4</ele>
        <time>2015-08-22T22:42:12Z</time>
      </trkpt>
      <trkpt lat="45.23272" lon="5.75479">
        <ele>841.8</ele>
        <time>2015-08-22T22:42:17Z</time>
      </trkpt>
      <trkpt lat="45.23273" lon="5.75478">
        <ele>842.4</ele>
        <time>2015-08-22T22:42:18Z</time>
      </trkpt>
      <trkpt lat="45.23277" lon="5.75476">
        <ele>843.8</ele>
        <time>2015-08-22T22:42:22Z</time>
      </trkpt>
      <trkpt lat="45.23279" lon="5.75472">
        <ele>844.1</ele>
        <time>2015-08-22T22:42:25Z</time>
      </trkpt>
      <trkpt lat="45.23281" lon="5.75467">
        <ele>844</ele>
        <time>2015-08-22T22:42:28Z</time>
      </trkpt>
      <trkpt lat="45.23283" lon="5.75466">
        <ele>844.6</ele>
        <time>2015-08-22T22:42:29Z</time>
      </trkpt>
      <trkpt lat="45.23283" lon="5.75464">
        <ele>844.3</ele>
        <time>2015-08-22T22:42:30Z</time>
      </trkpt>
      <trkpt lat="45.23286" lon="5.75459">
        <ele>844.4</ele>
        <time>2015-08-22T22:42:33Z</time>
      </trkpt>
      <trkpt lat="45.23285" lon="5.75458">
        <ele>843.8</ele>
        <time>2015-08-22T22:42:34Z</time>
      </trkpt>
      <trkpt lat="45.23286" lon="5.75455">
        <ele>843.6</ele>
        <time>2015-08-22T22:42:35Z</time>
      </trkpt>
      <trkpt lat="45.23291" lon="5.75448">
        <ele>844.5</ele>
        <time>2015-08-22T22:42:40Z</time>
      </trkpt>
      <trkpt lat="45.23295" lon="5.75444">
        <ele>845.3</ele>
        <time>2015-08-22T22:42:42Z</time>
      </trkpt>
      <trkpt lat="45.23297" lon="5.75441">
        <ele>845.5</ele>
        <time>2015-08-22T22:42:45Z</time>
      </trkpt>
      <trkpt lat="45.23298" lon="5.75439">
        <ele>845.9</ele>
        <time>2015-08-22T22:42:47Z</time>
      </trkpt>
      <trkpt lat="45.23299" lon="5.75438">
        <ele>845.8</ele>
        <time>2015-08-22T22:42:48Z</time>
      </trkpt>
      <trkpt lat="45.23301" lon="5.7543">
        <ele>844.8</ele>
        <time>2015-08-22T22:42:52Z</time>
      </trkpt>
      <trkpt lat="45.23303" lon="5.75428">
        <ele>845</ele>
        <time>2015-08-22T22:42:54Z</time>
      </trkpt>
      <trkpt lat="45.23307" lon="5.7542">
        <ele>844.4</ele>
        <time>2015-08-22T22:42:59Z</time>
      </trkpt>
      <trkpt lat="45.23309" lon="5.75416">
        <ele>844.2</ele>
        <time>2015-08-22T22:43:01Z</time>
      </trkpt>
      <trkpt lat="45.23314" lon="5.75408">
        <ele>844.1</ele>
        <time>2015-08-22T22:43:05Z</time>
      </trkpt>
      <trkpt lat="45.23318" lon="5.754">
        <ele>843.3</ele>
        <time>2015-08-22T22:43:10Z</time>
      </trkpt>
      <trkpt lat="45.23322" lon="5.75396">
        <ele>843.3</ele>
        <time>2015-08-22T22:43:15Z</time>
      </trkpt>
      <trkpt lat="45.23323" lon="5.75394">
        <ele>843.3</ele>
        <time>2015-08-22T22:43:16Z</time>
      </trkpt>
      <trkpt lat="45.23326" lon="5.75391">
        <ele>843.1</ele>
        <time>2015-08-22T22:43:19Z</time>
      </trkpt>
      <trkpt lat="45.23329" lon="5.75382">
        <ele>841.5</ele>
        <time>2015-08-22T22:43:24Z</time>
      </trkpt>
      <trkpt lat="45.2333" lon="5.75381">
        <ele>841.3</ele>
        <time>2015-08-22T22:43:25Z</time>
      </trkpt>
      <trkpt lat="45.23332" lon="5.75378">
        <ele>841</ele>
        <time>2015-08-22T22:43:28Z</time>
      </trkpt>
      <trkpt lat="45.23334" lon="5.75377">
        <ele>841.2</ele>
        <time>2015-08-22T22:43:29Z</time>
      </trkpt>
      <trkpt lat="45.2334" lon="5.75372">
        <ele>841.2</ele>
        <time>2015-08-22T22:43:35Z</time>
      </trkpt>
      <trkpt lat="45.23347" lon="5.75369">
        <ele>841.8</ele>
        <time>2015-08-22T22:43:40Z</time>
      </trkpt>
      <trkpt lat="45.23349" lon="5.75369">
        <ele>841.8</ele>
        <time>2015-08-22T22:43:41Z</time>
      </trkpt>
      <trkpt lat="45.23355" lon="5.75363">
        <ele>841</ele>
        <time>2015-08-22T22:43:46Z</time>
      </trkpt>
      <trkpt lat="45.23356" lon="5.75361">
        <ele>840.7</ele>
        <time>2015-08-22T22:43:47Z</time>
      </trkpt>
      <trkpt lat="45.23362" lon="5.75357">
        <ele>840.3</ele>
        <time>2015-08-22T22:43:51Z</time>
      </trkpt>
      <trkpt lat="45.23364" lon="5.75357">
        <ele>840.7</ele>
        <time>2015-08-22T22:43:53Z</time>
      </trkpt>
      <trkpt lat="45.23366" lon="5.75355">
        <ele>840.6</ele>
        <time>2015-08-22T22:43:55Z</time>
      </trkpt>
      <trkpt lat="45.23373" lon="5.75348">
        <ele>839.2</ele>
        <time>2015-08-22T22:44:00Z</time>
      </trkpt>
      <trkpt lat="45.23378" lon="5.75344">
        <ele>838.5</ele>
        <time>2015-08-22T22:44:04Z</time>
      </trkpt>
      <trkpt lat="45.23379" lon="5.75343">
        <ele>838.3</ele>
        <time>2015-08-22T22:44:05Z</time>
      </trkpt>
      <trkpt lat="45.23382" lon="5.75345">
        <ele>839.8</ele>
        <time>2015-08-22T22:44:09Z</time>
      </trkpt>
      <trkpt lat="45.23386" lon="5.75344">
        <ele>840.5</ele>
        <time>2015-08-22T22:44:14Z</time>
      </trkpt>
      <trkpt lat="45.23392" lon="5.75339">
        <ele>839.6</ele>
        <time>2015-08-22T22:44:18Z</time>
      </trkpt>
      <trkpt lat="45.23394" lon="5.75337">
        <ele>839.3</ele>
        <time>2015-08-22T22:44:19Z</time>
      </trkpt>
      <trkpt lat="45.23399" lon="5.75332">
        <ele>838.3</ele>
        <time>2015-08-22T22:44:23Z</time>
      </trkpt>
      <trkpt lat="45.23402" lon="5.75333">
        <ele>839.1</ele>
        <time>2015-08-22T22:44:24Z</time>
      </trkpt>
      <trkpt lat="45.23413" lon="5.75327">
        <ele>839.5</ele>
        <time>2015-08-22T22:44:29Z</time>
      </trkpt>
      <trkpt lat="45.23416" lon="5.75324">
        <ele>838.9</ele>
        <time>2015-08-22T22:44:31Z</time>
      </trkpt>
      <trkpt lat="45.2342" lon="5.75316">
        <ele>836.7</ele>
        <time>2015-08-22T22:44:35Z</time>
      </trkpt>
      <trkpt lat="45.23421" lon="5.75313">
        <ele>835.5</ele>
        <time>2015-08-22T22:44:37Z</time>
      </trkpt>
      <trkpt lat="45.23421" lon="5.75303">
        <ele>831.6</ele>
        <time>2015-08-22T22:44:41Z</time>
      </trkpt>
      <trkpt lat="45.2342" lon="5.7529">
        <ele>825.6</ele>
        <time>2015-08-22T22:44:47Z</time>
      </trkpt>
      <trkpt lat="45.23421" lon="5.75287">
        <ele>824.5</ele>
        <time>2015-08-22T22:44:48Z</time>
      </trkpt>
      <trkpt lat="45.23426" lon="5.75277">
        <ele>821.9</ele>
        <time>2015-08-22T22:44:53Z</time>
      </trkpt>
      <trkpt lat="45.23428" lon="5.75276">
        <ele>821.8</ele>
        <time>2015-08-22T22:44:54Z</time>
      </trkpt>
      <trkpt lat="45.23431" lon="5.75269">
        <ele>819.7</ele>
        <time>2015-08-22T22:44:57Z</time>
      </trkpt>
      <trkpt lat="45.23434" lon="5.75265">
        <ele>818.8</ele>
        <time>2015-08-22T22:45:00Z</time>
      </trkpt>
      <trkpt lat="45.23435" lon="5.75261">
        <ele>817.4</ele>
        <time>2015-08-22T22:45:02Z</time>
      </trkpt>
      <trkpt lat="45.23439" lon="5.75257">
        <ele>816.6</ele>
        <time>2015-08-22T22:45:04Z</time>
      </trkpt>
      <trkpt lat="45.23446" lon="5.75249">
        <ele>815.4</ele>
        <time>2015-08-22T22:45:09Z</time>
      </trkpt>
      <trkpt lat="45.23449" lon="5.75235">
        <ele>810.1</ele>
        <time>2015-08-22T22:45:16Z</time>
      </trkpt>
      <trkpt lat="45.23451" lon="5.75228">
        <ele>807.4</ele>
        <time>2015-08-22T22:45:21Z</time>
      </trkpt>
      <trkpt lat="45.23458" lon="5.75219">
        <ele>805.7</ele>
        <time>2015-08-22T22:45:26Z</time>
      </trkpt>
      <trkpt lat="45.23465" lon="5.75215">
        <ele>805.1</ele>
        <time>2015-08-22T22:45:31Z</time>
      </trkpt>
      <trkpt lat="45.23466" lon="5.75214">
        <ele>805.1</ele>
        <time>2015-08-22T22:45:32Z</time>
      </trkpt>
      <trkpt lat="45.23469" lon="5.75211">
        <ele>804.6</ele>
        <time>2015-08-22T22:45:34Z</time>
      </trkpt>
      <trkpt lat="45.23475" lon="5.75205">
        <ele>803.6</ele>
        <time>2015-08-22T22:45:37Z</time>
      </trkpt>
      <trkpt lat="45.23487" lon="5.75196">
        <ele>803.2</ele>
        <time>2015-08-22T22:45:43Z</time>
      </trkpt>
      <trkpt lat="45.23495" lon="5.75189">
        <ele>803</ele>
        <time>2015-08-22T22:45:49Z</time>
      </trkpt>
      <trkpt lat="45.23502" lon="5.7518">
        <ele>801.7</ele>
        <time>2015-08-22T22:45:53Z</time>
      </trkpt>
      <trkpt lat="45.23504" lon="5.75176">
        <ele>801</ele>
        <time>2015-08-22T22:45:54Z</time>
      </trkpt>
      <trkpt lat="45.23513" lon="5.75169">
        <ele>800.9</ele>
        <time>2015-08-22T22:46:00Z</time>
      </trkpt>
      <trkpt lat="45.23516" lon="5.75165">
        <ele>800.4</ele>
        <time>2015-08-22T22:46:03Z</time>
      </trkpt>
      <trkpt lat="45.23518" lon="5.75162">
        <ele>800</ele>
        <time>2015-08-22T22:46:05Z</time>
      </trkpt>
      <trkpt lat="45.23524" lon="5.75157">
        <ele>799.8</ele>
        <time>2015-08-22T22:46:10Z</time>
      </trkpt>
      <trkpt lat="45.23527" lon="5.75155">
        <ele>800.2</ele>
        <time>2015-08-22T22:46:13Z</time>
      </trkpt>
      <trkpt lat="45.2353" lon="5.75154">
        <ele>800.5</ele>
        <time>2015-08-22T22:46:15Z</time>
      </trkpt>
      <trkpt lat="45.23531" lon="5.75154">
        <ele>800.8</ele>
        <time>2015-08-22T22:46:16Z</time>
      </trkpt>
      <trkpt lat="45.23535" lon="5.75151">
        <ele>801</ele>
        <time>2015-08-22T22:46:19Z</time>
      </trkpt>
      <trkpt lat="45.23537" lon="5.75149">
        <ele>801</ele>
        <time>2015-08-22T22:46:20Z</time>
      </trkpt>
      <trkpt lat="45.23543" lon="5.75144">
        <ele>800.6</ele>
        <time>2015-08-22T22:46:23Z</time>
      </trkpt>
      <trkpt lat="45.2355" lon="5.75136">
        <ele>798.4</ele>
        <time>2015-08-22T22:46:28Z</time>
      </trkpt>
      <trkpt lat="45.23551" lon="5.75136">
        <ele>798.4</ele>
        <time>2015-08-22T22:46:29Z</time>
      </trkpt>
      <trkpt lat="45.23556" lon="5.75134">
        <ele>798.2</ele>
        <time>2015-08-22T22:46:33Z</time>
      </trkpt>
      <trkpt lat="45.23561" lon="5.7513">
        <ele>797</ele>
        <time>2015-08-22T22:46:36Z</time>
      </trkpt>
      <trkpt lat="45.23566" lon="5.75127">
        <ele>796.4</ele>
        <time>2015-08-22T22:46:38Z</time>
      </trkpt>
      <trkpt lat="45.23569" lon="5.75127">
        <ele>796.5</ele>
        <time>2015-08-22T22:46:39Z</time>
      </trkpt>
      <trkpt lat="45.23574" lon="5.75125">
        <ele>796.3</ele>
        <time>2015-08-22T22:46:43Z</time>
      </trkpt>
      <trkpt lat="45.23576" lon="5.75126">
        <ele>796.5</ele>
        <time>2015-08-22T22:46:44Z</time>
      </trkpt>
      <trkpt lat="45.2358" lon="5.75126">
        <ele>796.5</ele>
        <time>2015-08-22T22:46:48Z</time>
      </trkpt>
      <trkpt lat="45.23582" lon="5.75116">
        <ele>799.5</ele>
        <time>2015-08-22T22:46:53Z</time>
      </trkpt>
      <trkpt lat="45.23575" lon="5.75111">
        <ele>801.1</ele>
        <time>2015-08-22T22:46:58Z</time>
      </trkpt>
      <trkpt lat="45.23574" lon="5.75111">
        <ele>801.2</ele>
        <time>2015-08-22T22:47:00Z</time>
      </trkpt>
      <trkpt lat="45.23569" lon="5.75106">
        <ele>802.4</ele>
        <time>2015-08-22T22:47:03Z</time>
      </trkpt>
      <trkpt lat="45.23568" lon="5.75104">
        <ele>803</ele>
        <time>2015-08-22T22:47:04Z</time>
      </trkpt>
      <trkpt lat="45.23563" lon="5.75099">
        <ele>804.4</ele>
        <time>2015-08-22T22:47:07Z</time>
      </trkpt>
      <trkpt lat="45.23556" lon="5.75091">
        <ele>806.8</ele>
        <time>2015-08-22T22:47:12Z</time>
      </trkpt>
      <trkpt lat="45.23554" lon="5.75089">
        <ele>807.2</ele>
        <time>2015-08-22T22:47:13Z</time>
      </trkpt>
      <trkpt lat="45.23547" lon="5.7508">
        <ele>809.5</ele>
        <time>2015-08-22T22:47:16Z</time>
      </trkpt>
      <trkpt lat="45.23544" lon="5.75076">
        <ele>810.4</ele>
        <time>2015-08-22T22:47:19Z</time>
      </trkpt>
      <trkpt lat="45.23545" lon="5.75076">
        <ele>810.6</ele>
        <time>2015-08-22T22:47:20Z</time>
      </trkpt>
      <trkpt lat="45.23548" lon="5.75078">
        <ele>810.3</ele>
        <time>2015-08-22T22:47:22Z</time>
      </trkpt>
      <trkpt lat="45.23551" lon="5.75078">
        <ele>810.4</ele>
        <time>2015-08-22T22:47:23Z</time>
      </trkpt>
      <trkpt lat="45.23559" lon="5.75078">
        <ele>811.2</ele>
        <time>2015-08-22T22:47:27Z</time>
      </trkpt>
      <trkpt lat="45.23561" lon="5.75076">
        <ele>812.1</ele>
        <time>2015-08-22T22:47:29Z</time>
      </trkpt>
      <trkpt lat="45.23561" lon="5.75074">
        <ele>812.8</ele>
        <time>2015-08-22T22:47:31Z</time>
      </trkpt>
      <trkpt lat="45.23561" lon="5.75072">
        <ele>813.4</ele>
        <time>2015-08-22T22:47:32Z</time>
      </trkpt>
      <trkpt lat="45.23561" lon="5.7507">
        <ele>813.9</ele>
        <time>2015-08-22T22:47:33Z</time>
      </trkpt>
      <trkpt lat="45.23557" lon="5.75067">
        <ele>814.9</ele>
        <time>2015-08-22T22:47:38Z</time>
      </trkpt>
      <trkpt lat="45.23557" lon="5.75066">
        <ele>815</ele>
        <time>2015-08-22T22:47:39Z</time>
      </trkpt>
      <trkpt lat="45.23553" lon="5.75063">
        <ele>815.6</ele>
        <time>2015-08-22T22:47:45Z</time>
      </trkpt>
      <trkpt lat="45.23545" lon="5.75058">
        <ele>816.2</ele>
        <time>2015-08-22T22:47:52Z</time>
      </trkpt>
      <trkpt lat="45.23531" lon="5.75052">
        <ele>814.8</ele>
        <time>2015-08-22T22:48:00Z</time>
      </trkpt>
      <trkpt lat="45.23514" lon="5.75052">
        <ele>810.6</ele>
        <time>2015-08-22T22:48:09Z</time>
      </trkpt>
      <trkpt lat="45.23502" lon="5.75058">
        <ele>805.7</ele>
        <time>2015-08-22T22:48:17Z</time>
      </trkpt>
      <trkpt lat="45.23489" lon="5.75066">
        <ele>799.8</ele>
        <time>2015-08-22T22:48:26Z</time>
      </trkpt>
      <trkpt lat="45.23476" lon="5.75065">
        <ele>796.6</ele>
        <time>2015-08-22T22:48:33Z</time>
      </trkpt>
      <trkpt lat="45.23463" lon="5.75061">
        <ele>794.5</ele>
        <time>2015-08-22T22:48:40Z</time>
      </trkpt>
      <trkpt lat="45.23452" lon="5.7506">
        <ele>792.3</ele>
        <time>2015-08-22T22:48:46Z</time>
      </trkpt>
      <trkpt lat="45.23439" lon="5.75063">
        <ele>789</ele>
        <time>2015-08-22T22:48:54Z</time>
      </trkpt>
      <trkpt lat="45.23431" lon="5.75072">
        <ele>785.1</ele>
        <time>2015-08-22T22:49:00Z</time>
      </trkpt>
      <trkpt lat="45.23429" lon="5.75073">
        <ele>784.5</ele>
        <time>2015-08-22T22:49:02Z</time>
      </trkpt>
      <trkpt lat="45.23427" lon="5.75074">
        <ele>784</ele>
        <time>2015-08-22T22:49:05Z</time>
      </trkpt>
      <trkpt lat="45.23423" lon="5.75072">
        <ele>783.8</ele>
        <time>2015-08-22T22:49:25Z</time>
      </trkpt>
      <trkpt lat="45.23425" lon="5.75078">
        <ele>782.8</ele>
        <time>2015-08-22T22:52:11Z</time>
      </trkpt>
      <trkpt lat="45.23417" lon="5.75078">
        <ele>781.6</ele>
        <time>2015-08-22T22:52:33Z</time>
      </trkpt>
      <trkpt lat="45.23413" lon="5.75074">
        <ele>781.7</ele>
        <time>2015-08-22T22:52:41Z</time>
      </trkpt>
      <trkpt lat="45.23408" lon="5.7507">
        <ele>781.5</ele>
        <time>2015-08-22T22:52:45Z</time>
      </trkpt>
      <trkpt lat="45.23405" lon="5.75069">
        <ele>781.2</ele>
        <time>2015-08-22T22:52:47Z</time>
      </trkpt>
      <trkpt lat="45.23404" lon="5.7507">
        <ele>780.7</ele>
        <time>2015-08-22T22:52:48Z</time>
      </trkpt>
      <trkpt lat="45.23399" lon="5.7507">
        <ele>779.9</ele>
        <time>2015-08-22T22:52:51Z</time>
      </trkpt>
      <trkpt lat="45.23392" lon="5.75067">
        <ele>779.2</ele>
        <time>2015-08-22T22:52:55Z</time>
      </trkpt>
      <trkpt lat="45.23385" lon="5.75072">
        <ele>777.3</ele>
        <time>2015-08-22T22:53:00Z</time>
      </trkpt>
      <trkpt lat="45.23385" lon="5.75074">
        <ele>776.9</ele>
        <time>2015-08-22T22:53:01Z</time>
      </trkpt>
      <trkpt lat="45.23385" lon="5.75083">
        <ele>775.9</ele>
        <time>2015-08-22T22:53:05Z</time>
      </trkpt>
      <trkpt lat="45.23384" lon="5.75086">
        <ele>775.4</ele>
        <time>2015-08-22T22:53:07Z</time>
      </trkpt>
      <trkpt lat="45.23377" lon="5.75091">
        <ele>774.1</ele>
        <time>2015-08-22T22:53:12Z</time>
      </trkpt>
      <trkpt lat="45.2337" lon="5.7509">
        <ele>773.1</ele>
        <time>2015-08-22T22:53:15Z</time>
      </trkpt>
      <trkpt lat="45.23368" lon="5.7509">
        <ele>772.8</ele>
        <time>2015-08-22T22:53:16Z</time>
      </trkpt>
      <trkpt lat="45.23356" lon="5.75091">
        <ele>770.7</ele>
        <time>2015-08-22T22:53:22Z</time>
      </trkpt>
      <trkpt lat="45.23343" lon="5.75092">
        <ele>768.5</ele>
        <time>2015-08-22T22:53:28Z</time>
      </trkpt>
      <trkpt lat="45.23333" lon="5.75092">
        <ele>766.8</ele>
        <time>2015-08-22T22:53:33Z</time>
      </trkpt>
      <trkpt lat="45.23321" lon="5.75092">
        <ele>764.8</ele>
        <time>2015-08-22T22:53:39Z</time>
      </trkpt>
      <trkpt lat="45.23319" lon="5.7509">
        <ele>764.7</ele>
        <time>2015-08-22T22:53:41Z</time>
      </trkpt>
      <trkpt lat="45.23319" lon="5.75087">
        <ele>764.8</ele>
        <time>2015-08-22T22:53:43Z</time>
      </trkpt>
      <trkpt lat="45.23323" lon="5.75078">
        <ele>766.1</ele>
        <time>2015-08-22T22:53:47Z</time>
      </trkpt>
      <trkpt lat="45.23323" lon="5.75076">
        <ele>766.3</ele>
        <time>2015-08-22T22:53:48Z</time>
      </trkpt>
      <trkpt lat="45.23329" lon="5.75064">
        <ele>768.1</ele>
        <time>2015-08-22T22:53:54Z</time>
      </trkpt>
      <trkpt lat="45.2333" lon="5.75052">
        <ele>769.2</ele>
        <time>2015-08-22T22:54:00Z</time>
      </trkpt>
      <trkpt lat="45.23328" lon="5.75036">
        <ele>771.2</ele>
        <time>2015-08-22T22:54:08Z</time>
      </trkpt>
      <trkpt lat="45.23321" lon="5.75026">
        <ele>773</ele>
        <time>2015-08-22T22:54:16Z</time>
      </trkpt>
      <trkpt lat="45.23315" lon="5.75016">
        <ele>775</ele>
        <time>2015-08-22T22:54:23Z</time>
      </trkpt>
      <trkpt lat="45.23309" lon="5.75005">
        <ele>776.5</ele>
        <time>2015-08-22T22:54:30Z</time>
      </trkpt>
      <trkpt lat="45.23305" lon="5.74996">
        <ele>778.2</ele>
        <time>2015-08-22T22:54:36Z</time>
      </trkpt>
      <trkpt lat="45.23299" lon="5.74985">
        <ele>779.5</ele>
        <time>2015-08-22T22:54:43Z</time>
      </trkpt>
      <trkpt lat="45.23292" lon="5.74974">
        <ele>780.4</ele>
        <time>2015-08-22T22:54:51Z</time>
      </trkpt>
      <trkpt lat="45.23287" lon="5.74961">
        <ele>781.7</ele>
        <time>2015-08-22T22:54:58Z</time>
      </trkpt>
      <trkpt lat="45.23284" lon="5.74957">
        <ele>782.1</ele>
        <time>2015-08-22T22:55:01Z</time>
      </trkpt>
      <trkpt lat="45.23282" lon="5.74952">
        <ele>783.6</ele>
        <time>2015-08-22T22:55:04Z</time>
      </trkpt>
      <trkpt lat="45.23278" lon="5.74947">
        <ele>785</ele>
        <time>2015-08-22T22:55:08Z</time>
      </trkpt>
      <trkpt lat="45.23269" lon="5.74933">
        <ele>788.4</ele>
        <time>2015-08-22T22:55:17Z</time>
      </trkpt>
      <trkpt lat="45.23262" lon="5.74923">
        <ele>790.9</ele>
        <time>2015-08-22T22:55:25Z</time>
      </trkpt>
      <trkpt lat="45.23253" lon="5.74912">
        <ele>793.1</ele>
        <time>2015-08-22T22:55:34Z</time>
      </trkpt>
      <trkpt lat="45.23248" lon="5.74902">
        <ele>796.2</ele>
        <time>2015-08-22T22:55:41Z</time>
      </trkpt>
      <trkpt lat="45.23247" lon="5.749">
        <ele>797</ele>
        <time>2015-08-22T22:55:47Z</time>
      </trkpt>
      <trkpt lat="45.23246" lon="5.74896">
        <ele>798.3</ele>
        <time>2015-08-22T22:56:07Z</time>
      </trkpt>
      <trkpt lat="45.23244" lon="5.74903">
        <ele>794.4</ele>
        <time>2015-08-22T22:56:13Z</time>
      </trkpt>
      <trkpt lat="45.23242" lon="5.74911">
        <ele>789.7</ele>
        <time>2015-08-22T22:56:16Z</time>
      </trkpt>
      <trkpt lat="45.23242" lon="5.74908">
        <ele>790.8</ele>
        <time>2015-08-22T22:56:18Z</time>
      </trkpt>
      <trkpt lat="45.23239" lon="5.74911">
        <ele>788.4</ele>
        <time>2015-08-22T22:56:23Z</time>
      </trkpt>
      <trkpt lat="45.23238" lon="5.7491">
        <ele>788.6</ele>
        <time>2015-08-22T22:56:24Z</time>
      </trkpt>
      <trkpt lat="45.23236" lon="5.74911">
        <ele>787.6</ele>
        <time>2015-08-22T22:56:26Z</time>
      </trkpt>
      <trkpt lat="45.23236" lon="5.74907">
        <ele>789.6</ele>
        <time>2015-08-22T22:56:31Z</time>
      </trkpt>
      <trkpt lat="45.23234" lon="5.74902">
        <ele>791</ele>
        <time>2015-08-22T22:56:35Z</time>
      </trkpt>
      <trkpt lat="45.23232" lon="5.74902">
        <ele>790.5</ele>
        <time>2015-08-22T22:56:36Z</time>
      </trkpt>
      <trkpt lat="45.2323" lon="5.74896">
        <ele>792.9</ele>
        <time>2015-08-22T22:56:39Z</time>
      </trkpt>
      <trkpt lat="45.2323" lon="5.74893">
        <ele>794.5</ele>
        <time>2015-08-22T22:56:40Z</time>
      </trkpt>
      <trkpt lat="45.2323" lon="5.74887">
        <ele>796.7</ele>
        <time>2015-08-22T22:56:42Z</time>
      </trkpt>
      <trkpt lat="45.2323" lon="5.74886">
        <ele>797.5</ele>
        <time>2015-08-22T22:56:43Z</time>
      </trkpt>
      <trkpt lat="45.23225" lon="5.74881">
        <ele>798.4</ele>
        <time>2015-08-22T22:56:47Z</time>
      </trkpt>
      <trkpt lat="45.23224" lon="5.74866">
        <ele>803.9</ele>
        <time>2015-08-22T22:56:54Z</time>
      </trkpt>
      <trkpt lat="45.2322" lon="5.74856">
        <ele>805.7</ele>
        <time>2015-08-22T22:57:00Z</time>
      </trkpt>
      <trkpt lat="45.23213" lon="5.74851">
        <ele>804.7</ele>
        <time>2015-08-22T22:57:05Z</time>
      </trkpt>
      <trkpt lat="45.23209" lon="5.74851">
        <ele>802.9</ele>
        <time>2015-08-22T22:57:08Z</time>
      </trkpt>
      <trkpt lat="45.23206" lon="5.74851">
        <ele>801.9</ele>
        <time>2015-08-22T22:57:10Z</time>
      </trkpt>
      <trkpt lat="45.23205" lon="5.74851">
        <ele>801.1</ele>
        <time>2015-08-22T22:57:11Z</time>
      </trkpt>
      <trkpt lat="45.23199" lon="5.74849">
        <ele>799.6</ele>
        <time>2015-08-22T22:57:16Z</time>
      </trkpt>
      <trkpt lat="45.23193" lon="5.7484">
        <ele>799.8</ele>
        <time>2015-08-22T22:57:23Z</time>
      </trkpt>
      <trkpt lat="45.23192" lon="5.74839">
        <ele>799.7</ele>
        <time>2015-08-22T22:57:24Z</time>
      </trkpt>
      <trkpt lat="45.23186" lon="5.74832">
        <ele>799.1</ele>
        <time>2015-08-22T22:57:29Z</time>
      </trkpt>
      <trkpt lat="45.23185" lon="5.74828">
        <ele>800.2</ele>
        <time>2015-08-22T22:57:31Z</time>
      </trkpt>
      <trkpt lat="45.23183" lon="5.74822">
        <ele>801.3</ele>
        <time>2015-08-22T22:57:34Z</time>
      </trkpt>
      <trkpt lat="45.2318" lon="5.74813">
        <ele>802.8</ele>
        <time>2015-08-22T22:57:40Z</time>
      </trkpt>
      <trkpt lat="45.23177" lon="5.74806">
        <ele>804.1</ele>
        <time>2015-08-22T22:57:45Z</time>
      </trkpt>
      <trkpt lat="45.23173" lon="5.74796">
        <ele>805.5</ele>
        <time>2015-08-22T22:57:51Z</time>
      </trkpt>
      <trkpt lat="45.23167" lon="5.74789">
        <ele>806</ele>
        <time>2015-08-22T22:57:56Z</time>
      </trkpt>
      <trkpt lat="45.23168" lon="5.74787">
        <ele>806.7</ele>
        <time>2015-08-22T22:57:58Z</time>
      </trkpt>
      <trkpt lat="45.23164" lon="5.74783">
        <ele>806.8</ele>
        <time>2015-08-22T22:58:01Z</time>
      </trkpt>
      <trkpt lat="45.23158" lon="5.74777">
        <ele>806.9</ele>
        <time>2015-08-22T22:58:06Z</time>
      </trkpt>
      <trkpt lat="45.23156" lon="5.74773">
        <ele>807.4</ele>
        <time>2015-08-22T22:58:08Z</time>
      </trkpt>
      <trkpt lat="45.23154" lon="5.74768">
        <ele>808.2</ele>
        <time>2015-08-22T22:58:11Z</time>
      </trkpt>
      <trkpt lat="45.23153" lon="5.74767">
        <ele>808.2</ele>
        <time>2015-08-22T22:58:12Z</time>
      </trkpt>
      <trkpt lat="45.23147" lon="5.74762">
        <ele>808</ele>
        <time>2015-08-22T22:58:18Z</time>
      </trkpt>
      <trkpt lat="45.23146" lon="5.74755">
        <ele>809.7</ele>
        <time>2015-08-22T22:58:22Z</time>
      </trkpt>
      <trkpt lat="45.23144" lon="5.74753">
        <ele>809.7</ele>
        <time>2015-08-22T22:58:24Z</time>
      </trkpt>
      <trkpt lat="45.2314" lon="5.74745">
        <ele>811.3</ele>
        <time>2015-08-22T22:58:30Z</time>
      </trkpt>
      <trkpt lat="45.23137" lon="5.74736">
        <ele>813.2</ele>
        <time>2015-08-22T22:58:35Z</time>
      </trkpt>
      <trkpt lat="45.23135" lon="5.74733">
        <ele>813.7</ele>
        <time>2015-08-22T22:58:37Z</time>
      </trkpt>
      <trkpt lat="45.2313" lon="5.74725">
        <ele>814.4</ele>
        <time>2015-08-22T22:58:44Z</time>
      </trkpt>
      <trkpt lat="45.23127" lon="5.74719">
        <ele>814.8</ele>
        <time>2015-08-22T22:58:48Z</time>
      </trkpt>
      <trkpt lat="45.23123" lon="5.74715">
        <ele>814.9</ele>
        <time>2015-08-22T22:58:52Z</time>
      </trkpt>
      <trkpt lat="45.2312" lon="5.74713">
        <ele>814.6</ele>
        <time>2015-08-22T22:58:55Z</time>
      </trkpt>
      <trkpt lat="45.23117" lon="5.7471">
        <ele>814.7</ele>
        <time>2015-08-22T22:58:58Z</time>
      </trkpt>
      <trkpt lat="45.23113" lon="5.74705">
        <ele>816.3</ele>
        <time>2015-08-22T22:59:02Z</time>
      </trkpt>
      <trkpt lat="45.23112" lon="5.74703">
        <ele>816.9</ele>
        <time>2015-08-22T22:59:03Z</time>
      </trkpt>
      <trkpt lat="45.23108" lon="5.74699">
        <ele>817.8</ele>
        <time>2015-08-22T22:59:07Z</time>
      </trkpt>
      <trkpt lat="45.23106" lon="5.74696">
        <ele>818.6</ele>
        <time>2015-08-22T22:59:09Z</time>
      </trkpt>
      <trkpt lat="45.231" lon="5.74693">
        <ele>818.3</ele>
        <time>2015-08-22T22:59:14Z</time>
      </trkpt>
      <trkpt lat="45.23099" lon="5.74693">
        <ele>817.4</ele>
        <time>2015-08-22T22:59:15Z</time>
      </trkpt>
      <trkpt lat="45.23095" lon="5.74686">
        <ele>820.3</ele>
        <time>2015-08-22T22:59:21Z</time>
      </trkpt>
      <trkpt lat="45.23092" lon="5.74677">
        <ele>823.7</ele>
        <time>2015-08-22T22:59:27Z</time>
      </trkpt>
      <trkpt lat="45.23088" lon="5.74669">
        <ele>826.4</ele>
        <time>2015-08-22T22:59:33Z</time>
      </trkpt>
      <trkpt lat="45.23087" lon="5.74668">
        <ele>826.1</ele>
        <time>2015-08-22T22:59:34Z</time>
      </trkpt>
      <trkpt lat="45.23084" lon="5.74661">
        <ele>828.4</ele>
        <time>2015-08-22T22:59:39Z</time>
      </trkpt>
      <trkpt lat="45.23081" lon="5.74657">
        <ele>829.4</ele>
        <time>2015-08-22T22:59:43Z</time>
      </trkpt>
      <trkpt lat="45.23077" lon="5.74649">
        <ele>831.9</ele>
        <time>2015-08-22T22:59:49Z</time>
      </trkpt>
      <trkpt lat="45.23071" lon="5.74641">
        <ele>833.5</ele>
        <time>2015-08-22T22:59:56Z</time>
      </trkpt>
      <trkpt lat="45.23069" lon="5.74636">
        <ele>834.9</ele>
        <time>2015-08-22T22:59:59Z</time>
      </trkpt>
      <trkpt lat="45.23066" lon="5.74633">
        <ele>835</ele>
        <time>2015-08-22T23:00:02Z</time>
      </trkpt>
      <trkpt lat="45.23059" lon="5.7463">
        <ele>833.9</ele>
        <time>2015-08-22T23:00:07Z</time>
      </trkpt>
      <trkpt lat="45.23058" lon="5.74628">
        <ele>834</ele>
        <time>2015-08-22T23:00:08Z</time>
      </trkpt>
      <trkpt lat="45.23057" lon="5.74626">
        <ele>834.6</ele>
        <time>2015-08-22T23:00:09Z</time>
      </trkpt>
      <trkpt lat="45.23054" lon="5.74623">
        <ele>834.7</ele>
        <time>2015-08-22T23:00:12Z</time>
      </trkpt>
      <trkpt lat="45.2305" lon="5.7462">
        <ele>834.7</ele>
        <time>2015-08-22T23:00:15Z</time>
      </trkpt>
      <trkpt lat="45.23049" lon="5.74617">
        <ele>835.7</ele>
        <time>2015-08-22T23:00:17Z</time>
      </trkpt>
      <trkpt lat="45.23047" lon="5.74616">
        <ele>835.6</ele>
        <time>2015-08-22T23:00:19Z</time>
      </trkpt>
      <trkpt lat="45.23042" lon="5.74612">
        <ele>835.5</ele>
        <time>2015-08-22T23:00:23Z</time>
      </trkpt>
      <trkpt lat="45.23035" lon="5.74604">
        <ele>836.3</ele>
        <time>2015-08-22T23:00:30Z</time>
      </trkpt>
      <trkpt lat="45.23034" lon="5.74602">
        <ele>837.2</ele>
        <time>2015-08-22T23:00:35Z</time>
      </trkpt>
      <trkpt lat="45.2303" lon="5.746">
        <ele>836.7</ele>
        <time>2015-08-22T23:00:40Z</time>
      </trkpt>
      <trkpt lat="45.23029" lon="5.746">
        <ele>836</ele>
        <time>2015-08-22T23:00:41Z</time>
      </trkpt>
      <trkpt lat="45.23021" lon="5.74595">
        <ele>835.6</ele>
        <time>2015-08-22T23:00:48Z</time>
      </trkpt>
      <trkpt lat="45.2302" lon="5.74594">
        <ele>835.5</ele>
        <time>2015-08-22T23:00:49Z</time>
      </trkpt>
      <trkpt lat="45.23014" lon="5.74594">
        <ele>833.5</ele>
        <time>2015-08-22T23:00:54Z</time>
      </trkpt>
      <trkpt lat="45.23009" lon="5.74587">
        <ele>835.2</ele>
        <time>2015-08-22T23:00:59Z</time>
      </trkpt>
      <trkpt lat="45.23006" lon="5.74578">
        <ele>838.9</ele>
        <time>2015-08-22T23:01:02Z</time>
      </trkpt>
      <trkpt lat="45.23005" lon="5.74579">
        <ele>837.9</ele>
        <time>2015-08-22T23:01:03Z</time>
      </trkpt>
      <trkpt lat="45.23005" lon="5.74574">
        <ele>840.4</ele>
        <time>2015-08-22T23:01:05Z</time>
      </trkpt>
      <trkpt lat="45.23002" lon="5.74566">
        <ele>844</ele>
        <time>2015-08-22T23:01:10Z</time>
      </trkpt>
      <trkpt lat="45.23001" lon="5.74564">
        <ele>844.5</ele>
        <time>2015-08-22T23:01:12Z</time>
      </trkpt>
      <trkpt lat="45.22998" lon="5.74552">
        <ele>849.5</ele>
        <time>2015-08-22T23:01:18Z</time>
      </trkpt>
      <trkpt lat="45.22991" lon="5.74552">
        <ele>847.4</ele>
        <time>2015-08-22T23:01:23Z</time>
      </trkpt>
      <trkpt lat="45.22986" lon="5.74552">
        <ele>845.9</ele>
        <time>2015-08-22T23:01:26Z</time>
      </trkpt>
      <trkpt lat="45.22981" lon="5.74548">
        <ele>846.2</ele>
        <time>2015-08-22T23:01:30Z</time>
      </trkpt>
      <trkpt lat="45.22974" lon="5.74542">
        <ele>847.1</ele>
        <time>2015-08-22T23:01:36Z</time>
      </trkpt>
      <trkpt lat="45.22973" lon="5.74536">
        <ele>849</ele>
        <time>2015-08-22T23:01:39Z</time>
      </trkpt>
      <trkpt lat="45.22973" lon="5.74528">
        <ele>852.2</ele>
        <time>2015-08-22T23:01:41Z</time>
      </trkpt>
      <trkpt lat="45.22973" lon="5.74527">
        <ele>852.6</ele>
        <time>2015-08-22T23:01:42Z</time>
      </trkpt>
      <trkpt lat="45.22971" lon="5.74523">
        <ele>853.3</ele>
        <time>2015-08-22T23:01:45Z</time>
      </trkpt>
      <trkpt lat="45.22967" lon="5.74522">
        <ele>852.6</ele>
        <time>2015-08-22T23:01:48Z</time>
      </trkpt>
      <trkpt lat="45.22964" lon="5.74519">
        <ele>852.6</ele>
        <time>2015-08-22T23:01:51Z</time>
      </trkpt>
      <trkpt lat="45.22959" lon="5.74515">
        <ele>853</ele>
        <time>2015-08-22T23:01:55Z</time>
      </trkpt>
      <trkpt lat="45.22958" lon="5.74515">
        <ele>852.4</ele>
        <time>2015-08-22T23:01:56Z</time>
      </trkpt>
      <trkpt lat="45.22956" lon="5.74502">
        <ele>856.8</ele>
        <time>2015-08-22T23:02:01Z</time>
      </trkpt>
      <trkpt lat="45.22955" lon="5.74502">
        <ele>856.2</ele>
        <time>2015-08-22T23:02:02Z</time>
      </trkpt>
      <trkpt lat="45.22951" lon="5.74499">
        <ele>856.5</ele>
        <time>2015-08-22T23:02:06Z</time>
      </trkpt>
      <trkpt lat="45.22947" lon="5.74494">
        <ele>857.1</ele>
        <time>2015-08-22T23:02:10Z</time>
      </trkpt>
      <trkpt lat="45.22945" lon="5.74494">
        <ele>856.2</ele>
        <time>2015-08-22T23:02:11Z</time>
      </trkpt>
      <trkpt lat="45.22937" lon="5.74489">
        <ele>855.3</ele>
        <time>2015-08-22T23:02:16Z</time>
      </trkpt>
      <trkpt lat="45.22938" lon="5.74486">
        <ele>857</ele>
        <time>2015-08-22T23:02:17Z</time>
      </trkpt>
      <trkpt lat="45.22939" lon="5.74483">
        <ele>858.2</ele>
        <time>2015-08-22T23:02:18Z</time>
      </trkpt>
      <trkpt lat="45.22933" lon="5.74485">
        <ele>855.9</ele>
        <time>2015-08-22T23:02:22Z</time>
      </trkpt>
      <trkpt lat="45.22933" lon="5.74483">
        <ele>856.7</ele>
        <time>2015-08-22T23:02:23Z</time>
      </trkpt>
      <trkpt lat="45.22932" lon="5.74478">
        <ele>858.2</ele>
        <time>2015-08-22T23:02:26Z</time>
      </trkpt>
      <trkpt lat="45.2293" lon="5.74475">
        <ele>859</ele>
        <time>2015-08-22T23:02:28Z</time>
      </trkpt>
      <trkpt lat="45.2293" lon="5.74471">
        <ele>860.5</ele>
        <time>2015-08-22T23:02:30Z</time>
      </trkpt>
      <trkpt lat="45.22926" lon="5.74468">
        <ele>860.5</ele>
        <time>2015-08-22T23:02:33Z</time>
      </trkpt>
      <trkpt lat="45.22924" lon="5.74468">
        <ele>859.9</ele>
        <time>2015-08-22T23:02:34Z</time>
      </trkpt>
      <trkpt lat="45.22921" lon="5.74467">
        <ele>859.1</ele>
        <time>2015-08-22T23:02:37Z</time>
      </trkpt>
      <trkpt lat="45.2291" lon="5.74464">
        <ele>856.9</ele>
        <time>2015-08-22T23:02:44Z</time>
      </trkpt>
      <trkpt lat="45.22908" lon="5.74463">
        <ele>856.9</ele>
        <time>2015-08-22T23:02:46Z</time>
      </trkpt>
      <trkpt lat="45.22908" lon="5.74456">
        <ele>859.3</ele>
        <time>2015-08-22T23:02:49Z</time>
      </trkpt>
      <trkpt lat="45.22906" lon="5.74453">
        <ele>859.8</ele>
        <time>2015-08-22T23:02:51Z</time>
      </trkpt>
      <trkpt lat="45.22902" lon="5.74451">
        <ele>859.4</ele>
        <time>2015-08-22T23:02:55Z</time>
      </trkpt>
      <trkpt lat="45.22896" lon="5.7445">
        <ele>857.7</ele>
        <time>2015-08-22T23:03:00Z</time>
      </trkpt>
      <trkpt lat="45.2289" lon="5.74444">
        <ele>857.9</ele>
        <time>2015-08-22T23:03:05Z</time>
      </trkpt>
      <trkpt lat="45.22887" lon="5.7444">
        <ele>858.7</ele>
        <time>2015-08-22T23:03:07Z</time>
      </trkpt>
      <trkpt lat="45.22886" lon="5.74439">
        <ele>858.8</ele>
        <time>2015-08-22T23:03:09Z</time>
      </trkpt>
      <trkpt lat="45.22878" lon="5.74433">
        <ele>858.8</ele>
        <time>2015-08-22T23:03:16Z</time>
      </trkpt>
      <trkpt lat="45.22869" lon="5.74427">
        <ele>858.8</ele>
        <time>2015-08-22T23:03:23Z</time>
      </trkpt>
      <trkpt lat="45.22861" lon="5.74425">
        <ele>858.3</ele>
        <time>2015-08-22T23:03:29Z</time>
      </trkpt>
      <trkpt lat="45.22853" lon="5.74417">
        <ele>860</ele>
        <time>2015-08-22T23:03:36Z</time>
      </trkpt>
      <trkpt lat="45.22848" lon="5.74416">
        <ele>859.5</ele>
        <time>2015-08-22T23:03:40Z</time>
      </trkpt>
      <trkpt lat="45.22846" lon="5.74415">
        <ele>859.6</ele>
        <time>2015-08-22T23:03:42Z</time>
      </trkpt>
      <trkpt lat="45.22844" lon="5.74409">
        <ele>861.7</ele>
        <time>2015-08-22T23:03:45Z</time>
      </trkpt>
      <trkpt lat="45.22841" lon="5.74408">
        <ele>861.5</ele>
        <time>2015-08-22T23:03:48Z</time>
      </trkpt>
      <trkpt lat="45.22837" lon="5.74406">
        <ele>861.6</ele>
        <time>2015-08-22T23:03:51Z</time>
      </trkpt>
      <trkpt lat="45.22836" lon="5.74405">
        <ele>861.9</ele>
        <time>2015-08-22T23:03:52Z</time>
      </trkpt>
      <trkpt lat="45.22831" lon="5.74402">
        <ele>862.3</ele>
        <time>2015-08-22T23:03:57Z</time>
      </trkpt>
      <trkpt lat="45.22827" lon="5.74401">
        <ele>862.1</ele>
        <time>2015-08-22T23:04:00Z</time>
      </trkpt>
      <trkpt lat="45.22825" lon="5.74394">
        <ele>864.5</ele>
        <time>2015-08-22T23:04:03Z</time>
      </trkpt>
      <trkpt lat="45.22824" lon="5.74395">
        <ele>864.3</ele>
        <time>2015-08-22T23:04:04Z</time>
      </trkpt>
      <trkpt lat="45.22821" lon="5.74393">
        <ele>864.3</ele>
        <time>2015-08-22T23:04:06Z</time>
      </trkpt>
      <trkpt lat="45.22814" lon="5.74393">
        <ele>863.1</ele>
        <time>2015-08-22T23:04:11Z</time>
      </trkpt>
      <trkpt lat="45.22812" lon="5.74394">
        <ele>862.6</ele>
        <time>2015-08-22T23:04:12Z</time>
      </trkpt>
      <trkpt lat="45.22807" lon="5.74391">
        <ele>863.2</ele>
        <time>2015-08-22T23:04:16Z</time>
      </trkpt>
      <trkpt lat="45.22806" lon="5.7439">
        <ele>863.5</ele>
        <time>2015-08-22T23:04:17Z</time>
      </trkpt>
      <trkpt lat="45.22801" lon="5.74389">
        <ele>863</ele>
        <time>2015-08-22T23:04:21Z</time>
      </trkpt>
      <trkpt lat="45.22799" lon="5.74383">
        <ele>865.3</ele>
        <time>2015-08-22T23:04:24Z</time>
      </trkpt>
      <trkpt lat="45.22795" lon="5.74378">
        <ele>867.2</ele>
        <time>2015-08-22T23:04:29Z</time>
      </trkpt>
      <trkpt lat="45.22794" lon="5.74378">
        <ele>866.9</ele>
        <time>2015-08-22T23:04:30Z</time>
      </trkpt>
      <trkpt lat="45.22791" lon="5.74378">
        <ele>866.5</ele>
        <time>2015-08-22T23:04:33Z</time>
      </trkpt>
      <trkpt lat="45.22788" lon="5.74376">
        <ele>867</ele>
        <time>2015-08-22T23:04:35Z</time>
      </trkpt>
      <trkpt lat="45.22785" lon="5.74374">
        <ele>867.2</ele>
        <time>2015-08-22T23:04:37Z</time>
      </trkpt>
      <trkpt lat="45.22781" lon="5.7437">
        <ele>868</ele>
        <time>2015-08-22T23:04:41Z</time>
      </trkpt>
      <trkpt lat="45.2278" lon="5.74371">
        <ele>867.6</ele>
        <time>2015-08-22T23:04:42Z</time>
      </trkpt>
      <trkpt lat="45.22776" lon="5.74364">
        <ele>869.4</ele>
        <time>2015-08-22T23:04:47Z</time>
      </trkpt>
      <trkpt lat="45.22774" lon="5.74363">
        <ele>869.6</ele>
        <time>2015-08-22T23:04:48Z</time>
      </trkpt>
      <trkpt lat="45.22772" lon="5.74361">
        <ele>869.8</ele>
        <time>2015-08-22T23:04:50Z</time>
      </trkpt>
      <trkpt lat="45.22767" lon="5.74358">
        <ele>870.3</ele>
        <time>2015-08-22T23:04:54Z</time>
      </trkpt>
      <trkpt lat="45.22764" lon="5.74356">
        <ele>870.3</ele>
        <time>2015-08-22T23:04:56Z</time>
      </trkpt>
      <trkpt lat="45.22763" lon="5.7435">
        <ele>872.3</ele>
        <time>2015-08-22T23:04:59Z</time>
      </trkpt>
      <trkpt lat="45.22761" lon="5.74348">
        <ele>873</ele>
        <time>2015-08-22T23:05:01Z</time>
      </trkpt>
      <trkpt lat="45.2276" lon="5.74347">
        <ele>872.8</ele>
        <time>2015-08-22T23:05:02Z</time>
      </trkpt>
      <trkpt lat="45.22758" lon="5.74347">
        <ele>872.7</ele>
        <time>2015-08-22T23:05:03Z</time>
      </trkpt>
      <trkpt lat="45.2275" lon="5.74345">
        <ele>871.9</ele>
        <time>2015-08-22T23:05:09Z</time>
      </trkpt>
      <trkpt lat="45.22747" lon="5.74342">
        <ele>872.4</ele>
        <time>2015-08-22T23:05:12Z</time>
      </trkpt>
      <trkpt lat="45.22744" lon="5.74341">
        <ele>872.3</ele>
        <time>2015-08-22T23:05:14Z</time>
      </trkpt>
      <trkpt lat="45.22735" lon="5.74338">
        <ele>871.8</ele>
        <time>2015-08-22T23:05:21Z</time>
      </trkpt>
      <trkpt lat="45.22732" lon="5.74331">
        <ele>873.4</ele>
        <time>2015-08-22T23:05:25Z</time>
      </trkpt>
      <trkpt lat="45.22728" lon="5.74331">
        <ele>872.7</ele>
        <time>2015-08-22T23:05:27Z</time>
      </trkpt>
      <trkpt lat="45.22726" lon="5.7433">
        <ele>872.8</ele>
        <time>2015-08-22T23:05:30Z</time>
      </trkpt>
      <trkpt lat="45.22725" lon="5.74325">
        <ele>874.4</ele>
        <time>2015-08-22T23:05:33Z</time>
      </trkpt>
      <trkpt lat="45.2272" lon="5.7432">
        <ele>875.2</ele>
        <time>2015-08-22T23:05:37Z</time>
      </trkpt>
      <trkpt lat="45.22716" lon="5.74317">
        <ele>875.3</ele>
        <time>2015-08-22T23:05:41Z</time>
      </trkpt>
      <trkpt lat="45.22713" lon="5.74317">
        <ele>874.6</ele>
        <time>2015-08-22T23:05:43Z</time>
      </trkpt>
      <trkpt lat="45.22707" lon="5.74316">
        <ele>874.2</ele>
        <time>2015-08-22T23:05:47Z</time>
      </trkpt>
      <trkpt lat="45.22705" lon="5.74314">
        <ele>874.9</ele>
        <time>2015-08-22T23:05:49Z</time>
      </trkpt>
      <trkpt lat="45.227" lon="5.74306">
        <ele>877.6</ele>
        <time>2015-08-22T23:05:55Z</time>
      </trkpt>
      <trkpt lat="45.22692" lon="5.74298">
        <ele>880.7</ele>
        <time>2015-08-22T23:06:02Z</time>
      </trkpt>
      <trkpt lat="45.22691" lon="5.74297">
        <ele>881.1</ele>
        <time>2015-08-22T23:06:03Z</time>
      </trkpt>
      <trkpt lat="45.22686" lon="5.74293">
        <ele>882.9</ele>
        <time>2015-08-22T23:06:07Z</time>
      </trkpt>
      <trkpt lat="45.22684" lon="5.74292">
        <ele>883.2</ele>
        <time>2015-08-22T23:06:08Z</time>
      </trkpt>
      <trkpt lat="45.22679" lon="5.74286">
        <ele>885.6</ele>
        <time>2015-08-22T23:06:14Z</time>
      </trkpt>
      <trkpt lat="45.22675" lon="5.74281">
        <ele>887.1</ele>
        <time>2015-08-22T23:06:19Z</time>
      </trkpt>
      <trkpt lat="45.22673" lon="5.74279">
        <ele>887.7</ele>
        <time>2015-08-22T23:06:20Z</time>
      </trkpt>
      <trkpt lat="45.22667" lon="5.74273">
        <ele>889.8</ele>
        <time>2015-08-22T23:06:27Z</time>
      </trkpt>
      <trkpt lat="45.22666" lon="5.74273">
        <ele>890</ele>
        <time>2015-08-22T23:06:28Z</time>
      </trkpt>
      <trkpt lat="45.22665" lon="5.74273">
        <ele>890.1</ele>
        <time>2015-08-22T23:06:29Z</time>
      </trkpt>
      <trkpt lat="45.22661" lon="5.74274">
        <ele>890</ele>
        <time>2015-08-22T23:06:31Z</time>
      </trkpt>
      <trkpt lat="45.22657" lon="5.74273">
        <ele>890.3</ele>
        <time>2015-08-22T23:06:35Z</time>
      </trkpt>
      <trkpt lat="45.22654" lon="5.74272">
        <ele>890.8</ele>
        <time>2015-08-22T23:06:37Z</time>
      </trkpt>
      <trkpt lat="45.22646" lon="5.74269">
        <ele>892.1</ele>
        <time>2015-08-22T23:06:43Z</time>
      </trkpt>
      <trkpt lat="45.22644" lon="5.74267">
        <ele>892.5</ele>
        <time>2015-08-22T23:06:45Z</time>
      </trkpt>
      <trkpt lat="45.22639" lon="5.74267">
        <ele>892.9</ele>
        <time>2015-08-22T23:06:49Z</time>
      </trkpt>
      <trkpt lat="45.22637" lon="5.74265">
        <ele>893.4</ele>
        <time>2015-08-22T23:06:51Z</time>
      </trkpt>
      <trkpt lat="45.22629" lon="5.74265">
        <ele>893.8</ele>
        <time>2015-08-22T23:06:57Z</time>
      </trkpt>
      <trkpt lat="45.22628" lon="5.74263">
        <ele>894.5</ele>
        <time>2015-08-22T23:06:59Z</time>
      </trkpt>
      <trkpt lat="45.22624" lon="5.74261">
        <ele>894.9</ele>
        <time>2015-08-22T23:07:02Z</time>
      </trkpt>
      <trkpt lat="45.22612" lon="5.74261">
        <ele>893.5</ele>
        <time>2015-08-22T23:07:08Z</time>
      </trkpt>
      <trkpt lat="45.22611" lon="5.74259">
        <ele>893.7</ele>
        <time>2015-08-22T23:07:10Z</time>
      </trkpt>
      <trkpt lat="45.22605" lon="5.74258">
        <ele>893.3</ele>
        <time>2015-08-22T23:07:14Z</time>
      </trkpt>
      <trkpt lat="45.22597" lon="5.74255">
        <ele>893.1</ele>
        <time>2015-08-22T23:07:21Z</time>
      </trkpt>
      <trkpt lat="45.22589" lon="5.74252">
        <ele>893</ele>
        <time>2015-08-22T23:07:27Z</time>
      </trkpt>
      <trkpt lat="45.22587" lon="5.74252">
        <ele>892.7</ele>
        <time>2015-08-22T23:07:28Z</time>
      </trkpt>
      <trkpt lat="45.22579" lon="5.74249">
        <ele>892.5</ele>
        <time>2015-08-22T23:07:35Z</time>
      </trkpt>
      <trkpt lat="45.22572" lon="5.74248">
        <ele>891.9</ele>
        <time>2015-08-22T23:07:40Z</time>
      </trkpt>
      <trkpt lat="45.22571" lon="5.74247">
        <ele>892.3</ele>
        <time>2015-08-22T23:07:42Z</time>
      </trkpt>
      <trkpt lat="45.22565" lon="5.74243">
        <ele>892.5</ele>
        <time>2015-08-22T23:07:46Z</time>
      </trkpt>
      <trkpt lat="45.22561" lon="5.7424">
        <ele>893</ele>
        <time>2015-08-22T23:07:49Z</time>
      </trkpt>
      <trkpt lat="45.22558" lon="5.74238">
        <ele>893.2</ele>
        <time>2015-08-22T23:07:52Z</time>
      </trkpt>
      <trkpt lat="45.22557" lon="5.74236">
        <ele>893.7</ele>
        <time>2015-08-22T23:07:54Z</time>
      </trkpt>
      <trkpt lat="45.2255" lon="5.74236">
        <ele>893.2</ele>
        <time>2015-08-22T23:07:58Z</time>
      </trkpt>
      <trkpt lat="45.2255" lon="5.74235">
        <ele>893.2</ele>
        <time>2015-08-22T23:07:59Z</time>
      </trkpt>
      <trkpt lat="45.22546" lon="5.74233">
        <ele>893.6</ele>
        <time>2015-08-22T23:08:03Z</time>
      </trkpt>
      <trkpt lat="45.22545" lon="5.74233">
        <ele>893.2</ele>
        <time>2015-08-22T23:08:04Z</time>
      </trkpt>
      <trkpt lat="45.22536" lon="5.74231">
        <ele>892.2</ele>
        <time>2015-08-22T23:08:10Z</time>
      </trkpt>
      <trkpt lat="45.22535" lon="5.7423">
        <ele>892.3</ele>
        <time>2015-08-22T23:08:11Z</time>
      </trkpt>
      <trkpt lat="45.22529" lon="5.74226">
        <ele>891.7</ele>
        <time>2015-08-22T23:08:15Z</time>
      </trkpt>
      <trkpt lat="45.22528" lon="5.74226">
        <ele>891.5</ele>
        <time>2015-08-22T23:08:16Z</time>
      </trkpt>
      <trkpt lat="45.22522" lon="5.74221">
        <ele>891.1</ele>
        <time>2015-08-22T23:08:22Z</time>
      </trkpt>
      <trkpt lat="45.22512" lon="5.74218">
        <ele>889.7</ele>
        <time>2015-08-22T23:08:29Z</time>
      </trkpt>
      <trkpt lat="45.22506" lon="5.74212">
        <ele>889.8</ele>
        <time>2015-08-22T23:08:35Z</time>
      </trkpt>
      <trkpt lat="45.22501" lon="5.74205">
        <ele>890.7</ele>
        <time>2015-08-22T23:08:40Z</time>
      </trkpt>
      <trkpt lat="45.22498" lon="5.74203">
        <ele>890.5</ele>
        <time>2015-08-22T23:08:42Z</time>
      </trkpt>
      <trkpt lat="45.22491" lon="5.74196">
        <ele>890.4</ele>
        <time>2015-08-22T23:08:48Z</time>
      </trkpt>
      <trkpt lat="45.22482" lon="5.74192">
        <ele>889.5</ele>
        <time>2015-08-22T23:08:55Z</time>
      </trkpt>
      <trkpt lat="45.22476" lon="5.74184">
        <ele>890.4</ele>
        <time>2015-08-22T23:09:01Z</time>
      </trkpt>
      <trkpt lat="45.22469" lon="5.74175">
        <ele>891.5</ele>
        <time>2015-08-22T23:09:07Z</time>
      </trkpt>
      <trkpt lat="45.22466" lon="5.74166">
        <ele>893.8</ele>
        <time>2015-08-22T23:09:12Z</time>
      </trkpt>
      <trkpt lat="45.22465" lon="5.74163">
        <ele>894.5</ele>
        <time>2015-08-22T23:09:14Z</time>
      </trkpt>
      <trkpt lat="45.22458" lon="5.74156">
        <ele>895.6</ele>
        <time>2015-08-22T23:09:21Z</time>
      </trkpt>
      <trkpt lat="45.22452" lon="5.74146">
        <ele>897</ele>
        <time>2015-08-22T23:09:28Z</time>
      </trkpt>
      <trkpt lat="45.22444" lon="5.7414">
        <ele>896.7</ele>
        <time>2015-08-22T23:09:34Z</time>
      </trkpt>
      <trkpt lat="45.22437" lon="5.74131">
        <ele>897.9</ele>
        <time>2015-08-22T23:09:41Z</time>
      </trkpt>
      <trkpt lat="45.22436" lon="5.74131">
        <ele>897.8</ele>
        <time>2015-08-22T23:09:42Z</time>
      </trkpt>
      <trkpt lat="45.22432" lon="5.74125">
        <ele>898.8</ele>
        <time>2015-08-22T23:09:47Z</time>
      </trkpt>
      <trkpt lat="45.22431" lon="5.74124">
        <ele>898.9</ele>
        <time>2015-08-22T23:09:48Z</time>
      </trkpt>
      <trkpt lat="45.22428" lon="5.74114">
        <ele>900.7</ele>
        <time>2015-08-22T23:09:54Z</time>
      </trkpt>
      <trkpt lat="45.22423" lon="5.74107">
        <ele>901.4</ele>
        <time>2015-08-22T23:09:59Z</time>
      </trkpt>
      <trkpt lat="45.22415" lon="5.74097">
        <ele>902</ele>
        <time>2015-08-22T23:10:07Z</time>
      </trkpt>
      <trkpt lat="45.22413" lon="5.74096">
        <ele>901.7</ele>
        <time>2015-08-22T23:10:09Z</time>
      </trkpt>
      <trkpt lat="45.22409" lon="5.74093">
        <ele>901.7</ele>
        <time>2015-08-22T23:10:12Z</time>
      </trkpt>
      <trkpt lat="45.22407" lon="5.7409">
        <ele>901.8</ele>
        <time>2015-08-22T23:10:15Z</time>
      </trkpt>
      <trkpt lat="45.22406" lon="5.74088">
        <ele>902.2</ele>
        <time>2015-08-22T23:10:16Z</time>
      </trkpt>
      <trkpt lat="45.22405" lon="5.74087">
        <ele>902.3</ele>
        <time>2015-08-22T23:10:17Z</time>
      </trkpt>
      <trkpt lat="45.22396" lon="5.74076">
        <ele>903</ele>
        <time>2015-08-22T23:10:25Z</time>
      </trkpt>
      <trkpt lat="45.2239" lon="5.7407">
        <ele>903</ele>
        <time>2015-08-22T23:10:31Z</time>
      </trkpt>
      <trkpt lat="45.22385" lon="5.74065">
        <ele>902.8</ele>
        <time>2015-08-22T23:10:35Z</time>
      </trkpt>
      <trkpt lat="45.22381" lon="5.74064">
        <ele>902.2</ele>
        <time>2015-08-22T23:10:37Z</time>
      </trkpt>
      <trkpt lat="45.22374" lon="5.74055">
        <ele>902.9</ele>
        <time>2015-08-22T23:10:44Z</time>
      </trkpt>
      <trkpt lat="45.22369" lon="5.74042">
        <ele>905.1</ele>
        <time>2015-08-22T23:10:50Z</time>
      </trkpt>
      <trkpt lat="45.22365" lon="5.74035">
        <ele>906.4</ele>
        <time>2015-08-22T23:10:55Z</time>
      </trkpt>
      <trkpt lat="45.22356" lon="5.74028">
        <ele>906.7</ele>
        <time>2015-08-22T23:11:01Z</time>
      </trkpt>
      <trkpt lat="45.22353" lon="5.74025">
        <ele>907.1</ele>
        <time>2015-08-22T23:11:04Z</time>
      </trkpt>
      <trkpt lat="45.22349" lon="5.74021">
        <ele>907.4</ele>
        <time>2015-08-22T23:11:07Z</time>
      </trkpt>
      <trkpt lat="45.22343" lon="5.7402">
        <ele>906.3</ele>
        <time>2015-08-22T23:11:10Z</time>
      </trkpt>
      <trkpt lat="45.22337" lon="5.74017">
        <ele>906.2</ele>
        <time>2015-08-22T23:11:13Z</time>
      </trkpt>
      <trkpt lat="45.22329" lon="5.74013">
        <ele>905.7</ele>
        <time>2015-08-22T23:11:18Z</time>
      </trkpt>
      <trkpt lat="45.22318" lon="5.74008">
        <ele>904.7</ele>
        <time>2015-08-22T23:11:24Z</time>
      </trkpt>
      <trkpt lat="45.22307" lon="5.74002">
        <ele>904.3</ele>
        <time>2015-08-22T23:11:29Z</time>
      </trkpt>
      <trkpt lat="45.22298" lon="5.73999">
        <ele>903.3</ele>
        <time>2015-08-22T23:11:33Z</time>
      </trkpt>
      <trkpt lat="45.22293" lon="5.73998">
        <ele>902.2</ele>
        <time>2015-08-22T23:11:35Z</time>
      </trkpt>
      <trkpt lat="45.22291" lon="5.73999">
        <ele>901.3</ele>
        <time>2015-08-22T23:11:36Z</time>
      </trkpt>
      <trkpt lat="45.22285" lon="5.73994">
        <ele>901.1</ele>
        <time>2015-08-22T23:11:40Z</time>
      </trkpt>
      <trkpt lat="45.22276" lon="5.73987">
        <ele>901.2</ele>
        <time>2015-08-22T23:11:45Z</time>
      </trkpt>
      <trkpt lat="45.22273" lon="5.73984">
        <ele>901.1</ele>
        <time>2015-08-22T23:11:47Z</time>
      </trkpt>
      <trkpt lat="45.22268" lon="5.73984">
        <ele>899.9</ele>
        <time>2015-08-22T23:11:49Z</time>
      </trkpt>
      <trkpt lat="45.22267" lon="5.73983">
        <ele>899.6</ele>
        <time>2015-08-22T23:11:50Z</time>
      </trkpt>
      <trkpt lat="45.22256" lon="5.73975">
        <ele>898.6</ele>
        <time>2015-08-22T23:11:56Z</time>
      </trkpt>
      <trkpt lat="45.2225" lon="5.73975">
        <ele>896.6</ele>
        <time>2015-08-22T23:11:59Z</time>
      </trkpt>
      <trkpt lat="45.22244" lon="5.73973">
        <ele>895.2</ele>
        <time>2015-08-22T23:12:01Z</time>
      </trkpt>
      <trkpt lat="45.22236" lon="5.73964">
        <ele>895.4</ele>
        <time>2015-08-22T23:12:05Z</time>
      </trkpt>
      <trkpt lat="45.22234" lon="5.73963">
        <ele>895.2</ele>
        <time>2015-08-22T23:12:06Z</time>
      </trkpt>
      <trkpt lat="45.22233" lon="5.73959">
        <ele>896.3</ele>
        <time>2015-08-22T23:12:08Z</time>
      </trkpt>
      <trkpt lat="45.22228" lon="5.73954">
        <ele>896.8</ele>
        <time>2015-08-22T23:12:11Z</time>
      </trkpt>
      <trkpt lat="45.22223" lon="5.73945">
        <ele>899.1</ele>
        <time>2015-08-22T23:12:15Z</time>
      </trkpt>
      <trkpt lat="45.22222" lon="5.73942">
        <ele>899.7</ele>
        <time>2015-08-22T23:12:16Z</time>
      </trkpt>
      <trkpt lat="45.22214" lon="5.73941">
        <ele>897.3</ele>
        <time>2015-08-22T23:12:19Z</time>
      </trkpt>
      <trkpt lat="45.22213" lon="5.73939">
        <ele>897.7</ele>
        <time>2015-08-22T23:12:20Z</time>
      </trkpt>
      <trkpt lat="45.22212" lon="5.73935">
        <ele>899.3</ele>
        <time>2015-08-22T23:12:21Z</time>
      </trkpt>
      <trkpt lat="45.22209" lon="5.73925">
        <ele>903.5</ele>
        <time>2015-08-22T23:12:25Z</time>
      </trkpt>
      <trkpt lat="45.22204" lon="5.73918">
        <ele>904.9</ele>
        <time>2015-08-22T23:12:28Z</time>
      </trkpt>
      <trkpt lat="45.22198" lon="5.73917">
        <ele>903.4</ele>
        <time>2015-08-22T23:12:30Z</time>
      </trkpt>
      <trkpt lat="45.22191" lon="5.73907">
        <ele>905.2</ele>
        <time>2015-08-22T23:12:34Z</time>
      </trkpt>
      <trkpt lat="45.22188" lon="5.73907">
        <ele>904.3</ele>
        <time>2015-08-22T23:12:35Z</time>
      </trkpt>
      <trkpt lat="45.2218" lon="5.73902">
        <ele>903.9</ele>
        <time>2015-08-22T23:12:39Z</time>
      </trkpt>
      <trkpt lat="45.22171" lon="5.73901">
        <ele>901</ele>
        <time>2015-08-22T23:12:44Z</time>
      </trkpt>
      <trkpt lat="45.22165" lon="5.73897">
        <ele>900.4</ele>
        <time>2015-08-22T23:12:48Z</time>
      </trkpt>
      <trkpt lat="45.22155" lon="5.73893">
        <ele>897.7</ele>
        <time>2015-08-22T23:12:53Z</time>
      </trkpt>
      <trkpt lat="45.22152" lon="5.73894">
        <ele>896.4</ele>
        <time>2015-08-22T23:12:54Z</time>
      </trkpt>
      <trkpt lat="45.22143" lon="5.73894">
        <ele>893.3</ele>
        <time>2015-08-22T23:12:57Z</time>
      </trkpt>
      <trkpt lat="45.22136" lon="5.73892">
        <ele>891.3</ele>
        <time>2015-08-22T23:13:00Z</time>
      </trkpt>
      <trkpt lat="45.22127" lon="5.73886">
        <ele>890.1</ele>
        <time>2015-08-22T23:13:05Z</time>
      </trkpt>
      <trkpt lat="45.22121" lon="5.73882">
        <ele>890</ele>
        <time>2015-08-22T23:13:10Z</time>
      </trkpt>
      <trkpt lat="45.22116" lon="5.7388">
        <ele>889.7</ele>
        <time>2015-08-22T23:13:14Z</time>
      </trkpt>
      <trkpt lat="45.22111" lon="5.73878">
        <ele>889.8</ele>
        <time>2015-08-22T23:13:17Z</time>
      </trkpt>
      <trkpt lat="45.22098" lon="5.73877">
        <ele>888.2</ele>
        <time>2015-08-22T23:13:23Z</time>
      </trkpt>
      <trkpt lat="45.22089" lon="5.73872">
        <ele>888.9</ele>
        <time>2015-08-22T23:13:29Z</time>
      </trkpt>
      <trkpt lat="45.22077" lon="5.7387">
        <ele>888.1</ele>
        <time>2015-08-22T23:13:36Z</time>
      </trkpt>
      <trkpt lat="45.22067" lon="5.73862">
        <ele>889.7</ele>
        <time>2015-08-22T23:13:43Z</time>
      </trkpt>
      <trkpt lat="45.22065" lon="5.73862">
        <ele>889.5</ele>
        <time>2015-08-22T23:13:44Z</time>
      </trkpt>
      <trkpt lat="45.22059" lon="5.73858">
        <ele>890</ele>
        <time>2015-08-22T23:13:48Z</time>
      </trkpt>
      <trkpt lat="45.22053" lon="5.73854">
        <ele>890.6</ele>
        <time>2015-08-22T23:13:52Z</time>
      </trkpt>
      <trkpt lat="45.2204" lon="5.73852">
        <ele>889.4</ele>
        <time>2015-08-22T23:14:00Z</time>
      </trkpt>
      <trkpt lat="45.22033" lon="5.73847">
        <ele>888.3</ele>
        <time>2015-08-22T23:14:05Z</time>
      </trkpt>
      <trkpt lat="45.22033" lon="5.73847">
        <ele>888.2</ele>
        <time>2015-08-22T23:14:06Z</time>
      </trkpt>
      <trkpt lat="45.22029" lon="5.7384">
        <ele>889.4</ele>
        <time>2015-08-22T23:14:10Z</time>
      </trkpt>
      <trkpt lat="45.22027" lon="5.73839">
        <ele>888.7</ele>
        <time>2015-08-22T23:14:11Z</time>
      </trkpt>
      <trkpt lat="45.2202" lon="5.73831">
        <ele>889.3</ele>
        <time>2015-08-22T23:14:18Z</time>
      </trkpt>
      <trkpt lat="45.22011" lon="5.73832">
        <ele>885.5</ele>
        <time>2015-08-22T23:14:23Z</time>
      </trkpt>
      <trkpt lat="45.2201" lon="5.73831">
        <ele>885.1</ele>
        <time>2015-08-22T23:14:24Z</time>
      </trkpt>
      <trkpt lat="45.22007" lon="5.73827">
        <ele>885.7</ele>
        <time>2015-08-22T23:14:28Z</time>
      </trkpt>
      <trkpt lat="45.22002" lon="5.73827">
        <ele>884.2</ele>
        <time>2015-08-22T23:14:31Z</time>
      </trkpt>
      <trkpt lat="45.21999" lon="5.73827">
        <ele>882.6</ele>
        <time>2015-08-22T23:14:33Z</time>
      </trkpt>
      <trkpt lat="45.21995" lon="5.73822">
        <ele>883.3</ele>
        <time>2015-08-22T23:14:37Z</time>
      </trkpt>
      <trkpt lat="45.21993" lon="5.73819">
        <ele>884</ele>
        <time>2015-08-22T23:14:40Z</time>
      </trkpt>
      <trkpt lat="45.2199" lon="5.73816">
        <ele>883.9</ele>
        <time>2015-08-22T23:14:43Z</time>
      </trkpt>
      <trkpt lat="45.21987" lon="5.73815">
        <ele>883.3</ele>
        <time>2015-08-22T23:14:45Z</time>
      </trkpt>
      <trkpt lat="45.21985" lon="5.73813">
        <ele>883.3</ele>
        <time>2015-08-22T23:14:48Z</time>
      </trkpt>
      <trkpt lat="45.21981" lon="5.73804">
        <ele>886</ele>
        <time>2015-08-22T23:14:54Z</time>
      </trkpt>
      <trkpt lat="45.21977" lon="5.73793">
        <ele>889.3</ele>
        <time>2015-08-22T23:15:01Z</time>
      </trkpt>
      <trkpt lat="45.21974" lon="5.73781">
        <ele>893.8</ele>
        <time>2015-08-22T23:15:08Z</time>
      </trkpt>
      <trkpt lat="45.21972" lon="5.73775">
        <ele>895.9</ele>
        <time>2015-08-22T23:15:11Z</time>
      </trkpt>
      <trkpt lat="45.21971" lon="5.73773">
        <ele>896.7</ele>
        <time>2015-08-22T23:15:13Z</time>
      </trkpt>
      <trkpt lat="45.2197" lon="5.73771">
        <ele>897.1</ele>
        <time>2015-08-22T23:15:14Z</time>
      </trkpt>
      <trkpt lat="45.21968" lon="5.73767">
        <ele>898.5</ele>
        <time>2015-08-22T23:15:17Z</time>
      </trkpt>
      <trkpt lat="45.21967" lon="5.73764">
        <ele>899.5</ele>
        <time>2015-08-22T23:15:19Z</time>
      </trkpt>
      <trkpt lat="45.21966" lon="5.73763">
        <ele>899.9</ele>
        <time>2015-08-22T23:15:20Z</time>
      </trkpt>
      <trkpt lat="45.21961" lon="5.73756">
        <ele>901.5</ele>
        <time>2015-08-22T23:15:26Z</time>
      </trkpt>
      <trkpt lat="45.21959" lon="5.73754">
        <ele>902.3</ele>
        <time>2015-08-22T23:15:28Z</time>
      </trkpt>
      <trkpt lat="45.21957" lon="5.73751">
        <ele>902.9</ele>
        <time>2015-08-22T23:15:30Z</time>
      </trkpt>
      <trkpt lat="45.21958" lon="5.73749">
        <ele>904.2</ele>
        <time>2015-08-22T23:15:31Z</time>
      </trkpt>
      <trkpt lat="45.21956" lon="5.73744">
        <ele>906</ele>
        <time>2015-08-22T23:15:34Z</time>
      </trkpt>
      <trkpt lat="45.21955" lon="5.73737">
        <ele>909.3</ele>
        <time>2015-08-22T23:15:38Z</time>
      </trkpt>
      <trkpt lat="45.21954" lon="5.73736">
        <ele>909.4</ele>
        <time>2015-08-22T23:15:40Z</time>
      </trkpt>
      <trkpt lat="45.21951" lon="5.73733">
        <ele>909.4</ele>
        <time>2015-08-22T23:15:43Z</time>
      </trkpt>
      <trkpt lat="45.21945" lon="5.73731">
        <ele>908.2</ele>
        <time>2015-08-22T23:15:48Z</time>
      </trkpt>
      <trkpt lat="45.21943" lon="5.7373">
        <ele>908.3</ele>
        <time>2015-08-22T23:15:50Z</time>
      </trkpt>
      <trkpt lat="45.21935" lon="5.73729">
        <ele>905.5</ele>
        <time>2015-08-22T23:15:55Z</time>
      </trkpt>
      <trkpt lat="45.21935" lon="5.73727">
        <ele>906.3</ele>
        <time>2015-08-22T23:15:56Z</time>
      </trkpt>
      <trkpt lat="45.21935" lon="5.73723">
        <ele>908.2</ele>
        <time>2015-08-22T23:15:59Z</time>
      </trkpt>
      <trkpt lat="45.21932" lon="5.73715">
        <ele>910.5</ele>
        <time>2015-08-22T23:16:03Z</time>
      </trkpt>
      <trkpt lat="45.2193" lon="5.73716">
        <ele>909.4</ele>
        <time>2015-08-22T23:16:04Z</time>
      </trkpt>
      <trkpt lat="45.21925" lon="5.73713">
        <ele>909</ele>
        <time>2015-08-22T23:16:08Z</time>
      </trkpt>
      <trkpt lat="45.21919" lon="5.73709">
        <ele>907.9</ele>
        <time>2015-08-22T23:16:13Z</time>
      </trkpt>
      <trkpt lat="45.21915" lon="5.73709">
        <ele>906.3</ele>
        <time>2015-08-22T23:16:18Z</time>
      </trkpt>
      <trkpt lat="45.21913" lon="5.73707">
        <ele>906.6</ele>
        <time>2015-08-22T23:16:20Z</time>
      </trkpt>
      <trkpt lat="45.21913" lon="5.73708">
        <ele>906.1</ele>
        <time>2015-08-22T23:16:21Z</time>
      </trkpt>
      <trkpt lat="45.2191" lon="5.73706">
        <ele>905.6</ele>
        <time>2015-08-22T23:16:23Z</time>
      </trkpt>
      <trkpt lat="45.21908" lon="5.73703">
        <ele>905.8</ele>
        <time>2015-08-22T23:16:28Z</time>
      </trkpt>
      <trkpt lat="45.21899" lon="5.73701">
        <ele>903.1</ele>
        <time>2015-08-22T23:16:36Z</time>
      </trkpt>
      <trkpt lat="45.21897" lon="5.737">
        <ele>902.6</ele>
        <time>2015-08-22T23:16:38Z</time>
      </trkpt>
      <trkpt lat="45.21892" lon="5.73698">
        <ele>900.8</ele>
        <time>2015-08-22T23:16:42Z</time>
      </trkpt>
      <trkpt lat="45.21889" lon="5.73693">
        <ele>901.4</ele>
        <time>2015-08-22T23:16:46Z</time>
      </trkpt>
      <trkpt lat="45.21886" lon="5.73689">
        <ele>901.7</ele>
        <time>2015-08-22T23:16:49Z</time>
      </trkpt>
      <trkpt lat="45.2188" lon="5.7368">
        <ele>902.1</ele>
        <time>2015-08-22T23:16:56Z</time>
      </trkpt>
      <trkpt lat="45.21878" lon="5.7368">
        <ele>901.5</ele>
        <time>2015-08-22T23:16:57Z</time>
      </trkpt>
      <trkpt lat="45.21873" lon="5.73673">
        <ele>901.5</ele>
        <time>2015-08-22T23:17:02Z</time>
      </trkpt>
      <trkpt lat="45.21866" lon="5.73665">
        <ele>901.4</ele>
        <time>2015-08-22T23:17:08Z</time>
      </trkpt>
      <trkpt lat="45.21857" lon="5.73658">
        <ele>900.5</ele>
        <time>2015-08-22T23:17:15Z</time>
      </trkpt>
      <trkpt lat="45.21851" lon="5.73648">
        <ele>901.9</ele>
        <time>2015-08-22T23:17:22Z</time>
      </trkpt>
      <trkpt lat="45.2185" lon="5.73644">
        <ele>903.1</ele>
        <time>2015-08-22T23:17:25Z</time>
      </trkpt>
      <trkpt lat="45.21847" lon="5.73636">
        <ele>905.2</ele>
        <time>2015-08-22T23:17:29Z</time>
      </trkpt>
      <trkpt lat="45.21847" lon="5.73633">
        <ele>906.7</ele>
        <time>2015-08-22T23:17:31Z</time>
      </trkpt>
      <trkpt lat="45.21844" lon="5.73625">
        <ele>908.9</ele>
        <time>2015-08-22T23:17:35Z</time>
      </trkpt>
      <trkpt lat="45.21843" lon="5.73622">
        <ele>909.9</ele>
        <time>2015-08-22T23:17:37Z</time>
      </trkpt>
      <trkpt lat="45.2184" lon="5.73614">
        <ele>912</ele>
        <time>2015-08-22T23:17:42Z</time>
      </trkpt>
      <trkpt lat="45.21837" lon="5.73612">
        <ele>911.7</ele>
        <time>2015-08-22T23:17:45Z</time>
      </trkpt>
      <trkpt lat="45.21834" lon="5.73609">
        <ele>912.2</ele>
        <time>2015-08-22T23:17:47Z</time>
      </trkpt>
      <trkpt lat="45.21833" lon="5.73608">
        <ele>912.2</ele>
        <time>2015-08-22T23:17:48Z</time>
      </trkpt>
      <trkpt lat="45.21827" lon="5.73601">
        <ele>913.3</ele>
        <time>2015-08-22T23:17:54Z</time>
      </trkpt>
      <trkpt lat="45.21824" lon="5.73593">
        <ele>915.5</ele>
        <time>2015-08-22T23:17:59Z</time>
      </trkpt>
      <trkpt lat="45.21818" lon="5.7359">
        <ele>915.1</ele>
        <time>2015-08-22T23:18:05Z</time>
      </trkpt>
      <trkpt lat="45.21815" lon="5.73586">
        <ele>915.8</ele>
        <time>2015-08-22T23:18:08Z</time>
      </trkpt>
      <trkpt lat="45.21812" lon="5.73581">
        <ele>916.8</ele>
        <time>2015-08-22T23:18:12Z</time>
      </trkpt>
      <trkpt lat="45.2181" lon="5.73576">
        <ele>918.1</ele>
        <time>2015-08-22T23:18:15Z</time>
      </trkpt>
      <trkpt lat="45.21808" lon="5.73573">
        <ele>918.8</ele>
        <time>2015-08-22T23:18:18Z</time>
      </trkpt>
      <trkpt lat="45.21807" lon="5.73572">
        <ele>918.7</ele>
        <time>2015-08-22T23:18:19Z</time>
      </trkpt>
      <trkpt lat="45.21805" lon="5.73572">
        <ele>918.3</ele>
        <time>2015-08-22T23:18:20Z</time>
      </trkpt>
      <trkpt lat="45.21806" lon="5.73565">
        <ele>921.3</ele>
        <time>2015-08-22T23:18:23Z</time>
      </trkpt>
      <trkpt lat="45.21805" lon="5.73558">
        <ele>924</ele>
        <time>2015-08-22T23:18:28Z</time>
      </trkpt>
      <trkpt lat="45.21804" lon="5.73557">
        <ele>924.3</ele>
        <time>2015-08-22T23:18:30Z</time>
      </trkpt>
      <trkpt lat="45.21801" lon="5.73556">
        <ele>923.7</ele>
        <time>2015-08-22T23:18:33Z</time>
      </trkpt>
      <trkpt lat="45.218" lon="5.73554">
        <ele>924</ele>
        <time>2015-08-22T23:18:34Z</time>
      </trkpt>
      <trkpt lat="45.21798" lon="5.73548">
        <ele>926.2</ele>
        <time>2015-08-22T23:18:39Z</time>
      </trkpt>
      <trkpt lat="45.21798" lon="5.73547">
        <ele>926.6</ele>
        <time>2015-08-22T23:18:40Z</time>
      </trkpt>
      <trkpt lat="45.21798" lon="5.73543">
        <ele>928.3</ele>
        <time>2015-08-22T23:18:43Z</time>
      </trkpt>
      <trkpt lat="45.21797" lon="5.73541">
        <ele>929</ele>
        <time>2015-08-22T23:18:44Z</time>
      </trkpt>
      <trkpt lat="45.21795" lon="5.73537">
        <ele>930.4</ele>
        <time>2015-08-22T23:18:49Z</time>
      </trkpt>
      <trkpt lat="45.21793" lon="5.73536">
        <ele>930.2</ele>
        <time>2015-08-22T23:18:51Z</time>
      </trkpt>
      <trkpt lat="45.2179" lon="5.73529">
        <ele>932.3</ele>
        <time>2015-08-22T23:18:57Z</time>
      </trkpt>
      <trkpt lat="45.21786" lon="5.73524">
        <ele>932.9</ele>
        <time>2015-08-22T23:19:01Z</time>
      </trkpt>
      <trkpt lat="45.21786" lon="5.73521">
        <ele>934.1</ele>
        <time>2015-08-22T23:19:02Z</time>
      </trkpt>
      <trkpt lat="45.2178" lon="5.73521">
        <ele>931.9</ele>
        <time>2015-08-22T23:19:06Z</time>
      </trkpt>
      <trkpt lat="45.21779" lon="5.7352">
        <ele>931.9</ele>
        <time>2015-08-22T23:19:07Z</time>
      </trkpt>
      <trkpt lat="45.21777" lon="5.7352">
        <ele>930.5</ele>
        <time>2015-08-22T23:19:08Z</time>
      </trkpt>
      <trkpt lat="45.21772" lon="5.7352">
        <ele>928.3</ele>
        <time>2015-08-22T23:19:11Z</time>
      </trkpt>
      <trkpt lat="45.2177" lon="5.73521">
        <ele>927.2</ele>
        <time>2015-08-22T23:19:12Z</time>
      </trkpt>
      <trkpt lat="45.21766" lon="5.73521">
        <ele>925.6</ele>
        <time>2015-08-22T23:19:14Z</time>
      </trkpt>
      <trkpt lat="45.21763" lon="5.73522">
        <ele>923.5</ele>
        <time>2015-08-22T23:19:16Z</time>
      </trkpt>
      <trkpt lat="45.21756" lon="5.73522">
        <ele>920.6</ele>
        <time>2015-08-22T23:19:20Z</time>
      </trkpt>
      <trkpt lat="45.21752" lon="5.73521">
        <ele>919.7</ele>
        <time>2015-08-22T23:19:22Z</time>
      </trkpt>
      <trkpt lat="45.21749" lon="5.73516">
        <ele>920.2</ele>
        <time>2015-08-22T23:19:25Z</time>
      </trkpt>
      <trkpt lat="45.21743" lon="5.73511">
        <ele>919.4</ele>
        <time>2015-08-22T23:19:30Z</time>
      </trkpt>
      <trkpt lat="45.21738" lon="5.73512">
        <ele>917.2</ele>
        <time>2015-08-22T23:19:32Z</time>
      </trkpt>
      <trkpt lat="45.21731" lon="5.73509">
        <ele>915.1</ele>
        <time>2015-08-22T23:19:36Z</time>
      </trkpt>
      <trkpt lat="45.21729" lon="5.73505">
        <ele>916.2</ele>
        <time>2015-08-22T23:19:38Z</time>
      </trkpt>
      <trkpt lat="45.21725" lon="5.73503">
        <ele>914.7</ele>
        <time>2015-08-22T23:19:40Z</time>
      </trkpt>
      <trkpt lat="45.21721" lon="5.73497">
        <ele>915.4</ele>
        <time>2015-08-22T23:19:43Z</time>
      </trkpt>
      <trkpt lat="45.21717" lon="5.73492">
        <ele>915.6</ele>
        <time>2015-08-22T23:19:46Z</time>
      </trkpt>
      <trkpt lat="45.21714" lon="5.73491">
        <ele>914.9</ele>
        <time>2015-08-22T23:19:48Z</time>
      </trkpt>
      <trkpt lat="45.21711" lon="5.73488">
        <ele>914.4</ele>
        <time>2015-08-22T23:19:51Z</time>
      </trkpt>
      <trkpt lat="45.21706" lon="5.73486">
        <ele>913</ele>
        <time>2015-08-22T23:19:54Z</time>
      </trkpt>
      <trkpt lat="45.21701" lon="5.73487">
        <ele>910</ele>
        <time>2015-08-22T23:19:57Z</time>
      </trkpt>
      <trkpt lat="45.21698" lon="5.73488">
        <ele>907.5</ele>
        <time>2015-08-22T23:19:59Z</time>
      </trkpt>
      <trkpt lat="45.21691" lon="5.73486">
        <ele>905</ele>
        <time>2015-08-22T23:20:03Z</time>
      </trkpt>
      <trkpt lat="45.21688" lon="5.73485">
        <ele>904.1</ele>
        <time>2015-08-22T23:20:05Z</time>
      </trkpt>
      <trkpt lat="45.2168" lon="5.73478">
        <ele>902.5</ele>
        <time>2015-08-22T23:20:10Z</time>
      </trkpt>
      <trkpt lat="45.21673" lon="5.7347">
        <ele>902.3</ele>
        <time>2015-08-22T23:20:15Z</time>
      </trkpt>
      <trkpt lat="45.2167" lon="5.73459">
        <ele>904.9</ele>
        <time>2015-08-22T23:20:20Z</time>
      </trkpt>
      <trkpt lat="45.21669" lon="5.73441">
        <ele>909.4</ele>
        <time>2015-08-22T23:20:27Z</time>
      </trkpt>
      <trkpt lat="45.21666" lon="5.73426">
        <ele>912.1</ele>
        <time>2015-08-22T23:20:33Z</time>
      </trkpt>
      <trkpt lat="45.21661" lon="5.73416">
        <ele>912.1</ele>
        <time>2015-08-22T23:20:38Z</time>
      </trkpt>
      <trkpt lat="45.21659" lon="5.73411">
        <ele>912.3</ele>
        <time>2015-08-22T23:20:41Z</time>
      </trkpt>
      <trkpt lat="45.21656" lon="5.73406">
        <ele>912.2</ele>
        <time>2015-08-22T23:20:44Z</time>
      </trkpt>
      <trkpt lat="45.21649" lon="5.73394">
        <ele>911.6</ele>
        <time>2015-08-22T23:20:50Z</time>
      </trkpt>
      <trkpt lat="45.21638" lon="5.73382">
        <ele>908.5</ele>
        <time>2015-08-22T23:20:57Z</time>
      </trkpt>
      <trkpt lat="45.21629" lon="5.73375">
        <ele>905.3</ele>
        <time>2015-08-22T23:21:02Z</time>
      </trkpt>
      <trkpt lat="45.2162" lon="5.7337">
        <ele>901.5</ele>
        <time>2015-08-22T23:21:09Z</time>
      </trkpt>
      <trkpt lat="45.21612" lon="5.73362">
        <ele>899.3</ele>
        <time>2015-08-22T23:21:16Z</time>
      </trkpt>
      <trkpt lat="45.21605" lon="5.73354">
        <ele>897.5</ele>
        <time>2015-08-22T23:21:23Z</time>
      </trkpt>
      <trkpt lat="45.21597" lon="5.73342">
        <ele>897.9</ele>
        <time>2015-08-22T23:21:30Z</time>
      </trkpt>
      <trkpt lat="45.21595" lon="5.73341">
        <ele>896.9</ele>
        <time>2015-08-22T23:21:31Z</time>
      </trkpt>
      <trkpt lat="45.21591" lon="5.73338">
        <ele>895.3</ele>
        <time>2015-08-22T23:21:35Z</time>
      </trkpt>
      <trkpt lat="45.21584" lon="5.73332">
        <ele>893.4</ele>
        <time>2015-08-22T23:21:40Z</time>
      </trkpt>
      <trkpt lat="45.21579" lon="5.7333">
        <ele>891</ele>
        <time>2015-08-22T23:21:43Z</time>
      </trkpt>
      <trkpt lat="45.21571" lon="5.73324">
        <ele>888.6</ele>
        <time>2015-08-22T23:21:50Z</time>
      </trkpt>
      <trkpt lat="45.21563" lon="5.73325">
        <ele>883.1</ele>
        <time>2015-08-22T23:21:54Z</time>
      </trkpt>
      <trkpt lat="45.21561" lon="5.73325">
        <ele>881.5</ele>
        <time>2015-08-22T23:21:55Z</time>
      </trkpt>
      <trkpt lat="45.21552" lon="5.73325">
        <ele>875.8</ele>
        <time>2015-08-22T23:22:01Z</time>
      </trkpt>
      <trkpt lat="45.21549" lon="5.73318">
        <ele>877.4</ele>
        <time>2015-08-22T23:22:06Z</time>
      </trkpt>
      <trkpt lat="45.21539" lon="5.73316">
        <ele>871.9</ele>
        <time>2015-08-22T23:22:12Z</time>
      </trkpt>
      <trkpt lat="45.21528" lon="5.73311">
        <ele>865.9</ele>
        <time>2015-08-22T23:22:19Z</time>
      </trkpt>
      <trkpt lat="45.21522" lon="5.73306">
        <ele>863.6</ele>
        <time>2015-08-22T23:22:25Z</time>
      </trkpt>
      <trkpt lat="45.21519" lon="5.7329">
        <ele>869.2</ele>
        <time>2015-08-22T23:22:33Z</time>
      </trkpt>
      <trkpt lat="45.21516" lon="5.73272">
        <ele>873.5</ele>
        <time>2015-08-22T23:22:41Z</time>
      </trkpt>
      <trkpt lat="45.21515" lon="5.7326">
        <ele>877.9</ele>
        <time>2015-08-22T23:22:47Z</time>
      </trkpt>
      <trkpt lat="45.21514" lon="5.73257">
        <ele>877.6</ele>
        <time>2015-08-22T23:22:49Z</time>
      </trkpt>
      <trkpt lat="45.21508" lon="5.7325">
        <ele>876.4</ele>
        <time>2015-08-22T23:22:54Z</time>
      </trkpt>
      <trkpt lat="45.21502" lon="5.73241">
        <ele>875.2</ele>
        <time>2015-08-22T23:23:01Z</time>
      </trkpt>
      <trkpt lat="45.21499" lon="5.73235">
        <ele>875.3</ele>
        <time>2015-08-22T23:23:05Z</time>
      </trkpt>
      <trkpt lat="45.21495" lon="5.7323">
        <ele>874.5</ele>
        <time>2015-08-22T23:23:09Z</time>
      </trkpt>
      <trkpt lat="45.21492" lon="5.73227">
        <ele>873.4</ele>
        <time>2015-08-22T23:23:11Z</time>
      </trkpt>
      <trkpt lat="45.21486" lon="5.7322">
        <ele>871.8</ele>
        <time>2015-08-22T23:23:16Z</time>
      </trkpt>
      <trkpt lat="45.21481" lon="5.7321">
        <ele>872.4</ele>
        <time>2015-08-22T23:23:22Z</time>
      </trkpt>
      <trkpt lat="45.21482" lon="5.73198">
        <ele>878.4</ele>
        <time>2015-08-22T23:23:27Z</time>
      </trkpt>
      <trkpt lat="45.21481" lon="5.73186">
        <ele>883.5</ele>
        <time>2015-08-22T23:23:33Z</time>
      </trkpt>
      <trkpt lat="45.21479" lon="5.73182">
        <ele>883.8</ele>
        <time>2015-08-22T23:23:37Z</time>
      </trkpt>
      <trkpt lat="45.21479" lon="5.73182">
        <ele>883.8</ele>
        <time>2015-08-22T23:23:38Z</time>
      </trkpt>
      <trkpt lat="45.21475" lon="5.73178">
        <ele>882.8</ele>
        <time>2015-08-22T23:23:42Z</time>
      </trkpt>
      <trkpt lat="45.21472" lon="5.73172">
        <ele>882.8</ele>
        <time>2015-08-22T23:23:47Z</time>
      </trkpt>
      <trkpt lat="45.21471" lon="5.7317">
        <ele>883.2</ele>
        <time>2015-08-22T23:23:49Z</time>
      </trkpt>
      <trkpt lat="45.21462" lon="5.7317">
        <ele>876</ele>
        <time>2015-08-22T23:23:54Z</time>
      </trkpt>
      <trkpt lat="45.21459" lon="5.73166">
        <ele>875.2</ele>
        <time>2015-08-22T23:23:57Z</time>
      </trkpt>
      <trkpt lat="45.21454" lon="5.73168">
        <ele>871.6</ele>
        <time>2015-08-22T23:23:59Z</time>
      </trkpt>
      <trkpt lat="45.2145" lon="5.7317">
        <ele>867.9</ele>
        <time>2015-08-22T23:24:00Z</time>
      </trkpt>
      <trkpt lat="45.21444" lon="5.73167">
        <ele>864.6</ele>
        <time>2015-08-22T23:24:05Z</time>
      </trkpt>
      <trkpt lat="45.21442" lon="5.73164">
        <ele>864.2</ele>
        <time>2015-08-22T23:24:07Z</time>
      </trkpt>
      <trkpt lat="45.21442" lon="5.73153">
        <ele>869.4</ele>
        <time>2015-08-22T23:24:11Z</time>
      </trkpt>
      <trkpt lat="45.21443" lon="5.73149">
        <ele>871.6</ele>
        <time>2015-08-22T23:24:12Z</time>
      </trkpt>
      <trkpt lat="45.21438" lon="5.73145">
        <ele>870.4</ele>
        <time>2015-08-22T23:24:15Z</time>
      </trkpt>
      <trkpt lat="45.21429" lon="5.7314">
        <ele>865.5</ele>
        <time>2015-08-22T23:24:22Z</time>
      </trkpt>
      <trkpt lat="45.21422" lon="5.73137">
        <ele>862.4</ele>
        <time>2015-08-22T23:24:26Z</time>
      </trkpt>
      <trkpt lat="45.21421" lon="5.73135">
        <ele>862.6</ele>
        <time>2015-08-22T23:24:27Z</time>
      </trkpt>
      <trkpt lat="45.21418" lon="5.73126">
        <ele>863.8</ele>
        <time>2015-08-22T23:24:32Z</time>
      </trkpt>
      <trkpt lat="45.21415" lon="5.73122">
        <ele>863</ele>
        <time>2015-08-22T23:24:34Z</time>
      </trkpt>
      <trkpt lat="45.21408" lon="5.73114">
        <ele>860.2</ele>
        <time>2015-08-22T23:24:40Z</time>
      </trkpt>
      <trkpt lat="45.21406" lon="5.7311">
        <ele>859.6</ele>
        <time>2015-08-22T23:24:42Z</time>
      </trkpt>
      <trkpt lat="45.21403" lon="5.73105">
        <ele>858.4</ele>
        <time>2015-08-22T23:24:45Z</time>
      </trkpt>
      <trkpt lat="45.21398" lon="5.731">
        <ele>855.6</ele>
        <time>2015-08-22T23:24:49Z</time>
      </trkpt>
      <trkpt lat="45.21396" lon="5.73096">
        <ele>854.8</ele>
        <time>2015-08-22T23:24:51Z</time>
      </trkpt>
      <trkpt lat="45.21388" lon="5.7309">
        <ele>850.6</ele>
        <time>2015-08-22T23:24:57Z</time>
      </trkpt>
      <trkpt lat="45.21386" lon="5.73087">
        <ele>849.1</ele>
        <time>2015-08-22T23:24:59Z</time>
      </trkpt>
      <trkpt lat="45.21382" lon="5.7308">
        <ele>848.4</ele>
        <time>2015-08-22T23:25:03Z</time>
      </trkpt>
      <trkpt lat="45.21383" lon="5.73078">
        <ele>849.1</ele>
        <time>2015-08-22T23:25:04Z</time>
      </trkpt>
      <trkpt lat="45.21382" lon="5.73075">
        <ele>849.4</ele>
        <time>2015-08-22T23:25:05Z</time>
      </trkpt>
      <trkpt lat="45.2138" lon="5.73074">
        <ele>848.2</ele>
        <time>2015-08-22T23:25:06Z</time>
      </trkpt>
      <trkpt lat="45.21376" lon="5.73069">
        <ele>846.1</ele>
        <time>2015-08-22T23:25:10Z</time>
      </trkpt>
      <trkpt lat="45.21371" lon="5.73064">
        <ele>843.9</ele>
        <time>2015-08-22T23:25:14Z</time>
      </trkpt>
      <trkpt lat="45.21365" lon="5.73056">
        <ele>842.5</ele>
        <time>2015-08-22T23:25:20Z</time>
      </trkpt>
      <trkpt lat="45.21359" lon="5.73046">
        <ele>841.4</ele>
        <time>2015-08-22T23:25:28Z</time>
      </trkpt>
      <trkpt lat="45.21359" lon="5.73044">
        <ele>841.6</ele>
        <time>2015-08-22T23:25:29Z</time>
      </trkpt>
      <trkpt lat="45.21353" lon="5.73035">
        <ele>838.8</ele>
        <time>2015-08-22T23:25:35Z</time>
      </trkpt>
      <trkpt lat="45.2135" lon="5.7303">
        <ele>837</ele>
        <time>2015-08-22T23:25:39Z</time>
      </trkpt>
      <trkpt lat="45.21348" lon="5.73027">
        <ele>835.9</ele>
        <time>2015-08-22T23:25:42Z</time>
      </trkpt>
      <trkpt lat="45.21347" lon="5.73026">
        <ele>835.3</ele>
        <time>2015-08-22T23:25:43Z</time>
      </trkpt>
      <trkpt lat="45.21347" lon="5.73025">
        <ele>835.1</ele>
        <time>2015-08-22T23:25:44Z</time>
      </trkpt>
      <trkpt lat="45.21343" lon="5.73021">
        <ele>833.3</ele>
        <time>2015-08-22T23:25:47Z</time>
      </trkpt>
      <trkpt lat="45.21336" lon="5.73014">
        <ele>829.6</ele>
        <time>2015-08-22T23:25:53Z</time>
      </trkpt>
      <trkpt lat="45.2133" lon="5.73007">
        <ele>826.4</ele>
        <time>2015-08-22T23:25:58Z</time>
      </trkpt>
      <trkpt lat="45.21329" lon="5.73005">
        <ele>825.8</ele>
        <time>2015-08-22T23:25:59Z</time>
      </trkpt>
      <trkpt lat="45.21324" lon="5.72997">
        <ele>823.1</ele>
        <time>2015-08-22T23:26:04Z</time>
      </trkpt>
      <trkpt lat="45.21318" lon="5.72992">
        <ele>820.5</ele>
        <time>2015-08-22T23:26:09Z</time>
      </trkpt>
      <trkpt lat="45.21312" lon="5.72985">
        <ele>817.4</ele>
        <time>2015-08-22T23:26:15Z</time>
      </trkpt>
      <trkpt lat="45.21309" lon="5.72981">
        <ele>816.3</ele>
        <time>2015-08-22T23:26:18Z</time>
      </trkpt>
      <trkpt lat="45.21305" lon="5.72978">
        <ele>814.6</ele>
        <time>2015-08-22T23:26:21Z</time>
      </trkpt>
      <trkpt lat="45.21299" lon="5.72973">
        <ele>811.7</ele>
        <time>2015-08-22T23:26:27Z</time>
      </trkpt>
      <trkpt lat="45.21293" lon="5.72966">
        <ele>809.5</ele>
        <time>2015-08-22T23:26:33Z</time>
      </trkpt>
      <trkpt lat="45.21288" lon="5.72962">
        <ele>808.1</ele>
        <time>2015-08-22T23:26:39Z</time>
      </trkpt>
      <trkpt lat="45.21282" lon="5.7296">
        <ele>807.3</ele>
        <time>2015-08-22T23:26:43Z</time>
      </trkpt>
      <trkpt lat="45.21282" lon="5.7296">
        <ele>807.2</ele>
        <time>2015-08-22T23:26:44Z</time>
      </trkpt>
      <trkpt lat="45.21277" lon="5.72952">
        <ele>806</ele>
        <time>2015-08-22T23:26:50Z</time>
      </trkpt>
      <trkpt lat="45.21276" lon="5.72951">
        <ele>805.8</ele>
        <time>2015-08-22T23:26:51Z</time>
      </trkpt>
      <trkpt lat="45.21272" lon="5.72948">
        <ele>804.8</ele>
        <time>2015-08-22T23:26:56Z</time>
      </trkpt>
      <trkpt lat="45.21271" lon="5.72948">
        <ele>804.7</ele>
        <time>2015-08-22T23:26:57Z</time>
      </trkpt>
      <trkpt lat="45.21268" lon="5.72948">
        <ele>804.2</ele>
        <time>2015-08-22T23:27:01Z</time>
      </trkpt>
      <trkpt lat="45.21265" lon="5.72948">
        <ele>803.8</ele>
        <time>2015-08-22T23:27:04Z</time>
      </trkpt>
      <trkpt lat="45.21264" lon="5.72947">
        <ele>803.7</ele>
        <time>2015-08-22T23:27:05Z</time>
      </trkpt>
      <trkpt lat="45.2126" lon="5.72943">
        <ele>802.8</ele>
        <time>2015-08-22T23:27:10Z</time>
      </trkpt>
      <trkpt lat="45.21255" lon="5.7294">
        <ele>801.9</ele>
        <time>2015-08-22T23:27:15Z</time>
      </trkpt>
      <trkpt lat="45.21254" lon="5.72939">
        <ele>801.7</ele>
        <time>2015-08-22T23:27:16Z</time>
      </trkpt>
      <trkpt lat="45.21253" lon="5.72939">
        <ele>801.6</ele>
        <time>2015-08-22T23:27:17Z</time>
      </trkpt>
      <trkpt lat="45.21246" lon="5.72937">
        <ele>800.5</ele>
        <time>2015-08-22T23:27:24Z</time>
      </trkpt>
      <trkpt lat="45.21236" lon="5.72932">
        <ele>799.2</ele>
        <time>2015-08-22T23:27:33Z</time>
      </trkpt>
      <trkpt lat="45.21231" lon="5.72926">
        <ele>798.6</ele>
        <time>2015-08-22T23:27:37Z</time>
      </trkpt>
      <trkpt lat="45.2123" lon="5.72921">
        <ele>798.4</ele>
        <time>2015-08-22T23:27:39Z</time>
      </trkpt>
      <trkpt lat="45.21226" lon="5.72917">
        <ele>798.1</ele>
        <time>2015-08-22T23:27:43Z</time>
      </trkpt>
      <trkpt lat="45.21224" lon="5.72917">
        <ele>797.9</ele>
        <time>2015-08-22T23:27:45Z</time>
      </trkpt>
      <trkpt lat="45.21219" lon="5.72913">
        <ele>797.5</ele>
        <time>2015-08-22T23:27:50Z</time>
      </trkpt>
      <trkpt lat="45.21212" lon="5.72912">
        <ele>797</ele>
        <time>2015-08-22T23:27:55Z</time>
      </trkpt>
      <trkpt lat="45.21212" lon="5.72913">
        <ele>796.9</ele>
        <time>2015-08-22T23:27:56Z</time>
      </trkpt>
      <trkpt lat="45.21213" lon="5.72918">
        <ele>796.9</ele>
        <time>2015-08-22T23:27:59Z</time>
      </trkpt>
      <trkpt lat="45.21216" lon="5.72924">
        <ele>797</ele>
        <time>2015-08-22T23:28:04Z</time>
      </trkpt>
      <trkpt lat="45.21217" lon="5.72926">
        <ele>797.1</ele>
        <time>2015-08-22T23:28:06Z</time>
      </trkpt>
      <trkpt lat="45.21223" lon="5.72936">
        <ele>797.7</ele>
        <time>2015-08-22T23:28:14Z</time>
      </trkpt>
      <trkpt lat="45.21222" lon="5.72938">
        <ele>797.5</ele>
        <time>2015-08-22T23:28:16Z</time>
      </trkpt>
      <trkpt lat="45.21219" lon="5.72937">
        <ele>797.2</ele>
        <time>2015-08-22T23:28:18Z</time>
      </trkpt>
      <trkpt lat="45.2121" lon="5.72935">
        <ele>796.1</ele>
        <time>2015-08-22T23:28:24Z</time>
      </trkpt>
      <trkpt lat="45.21205" lon="5.72929">
        <ele>795.4</ele>
        <time>2015-08-22T23:28:29Z</time>
      </trkpt>
      <trkpt lat="45.21203" lon="5.72925">
        <ele>795</ele>
        <time>2015-08-22T23:28:32Z</time>
      </trkpt>
      <trkpt lat="45.21201" lon="5.72922">
        <ele>794.8</ele>
        <time>2015-08-22T23:28:34Z</time>
      </trkpt>
      <trkpt lat="45.21198" lon="5.7292">
        <ele>794.3</ele>
        <time>2015-08-22T23:28:36Z</time>
      </trkpt>
      <trkpt lat="45.21195" lon="5.72917">
        <ele>793.8</ele>
        <time>2015-08-22T23:28:39Z</time>
      </trkpt>
      <trkpt lat="45.21193" lon="5.72915">
        <ele>793.5</ele>
        <time>2015-08-22T23:28:41Z</time>
      </trkpt>
      <trkpt lat="45.2119" lon="5.72911">
        <ele>793.1</ele>
        <time>2015-08-22T23:28:44Z</time>
      </trkpt>
      <trkpt lat="45.21182" lon="5.72904">
        <ele>792.1</ele>
        <time>2015-08-22T23:28:50Z</time>
      </trkpt>
      <trkpt lat="45.21179" lon="5.72901">
        <ele>791.7</ele>
        <time>2015-08-22T23:28:53Z</time>
      </trkpt>
      <trkpt lat="45.21177" lon="5.72899">
        <ele>791.6</ele>
        <time>2015-08-22T23:28:55Z</time>
      </trkpt>
      <trkpt lat="45.21171" lon="5.72897">
        <ele>790.7</ele>
        <time>2015-08-22T23:28:58Z</time>
      </trkpt>
      <trkpt lat="45.21169" lon="5.72898">
        <ele>790.1</ele>
        <time>2015-08-22T23:29:00Z</time>
      </trkpt>
      <trkpt lat="45.21162" lon="5.72894">
        <ele>789.3</ele>
        <time>2015-08-22T23:29:05Z</time>
      </trkpt>
      <trkpt lat="45.21161" lon="5.72892">
        <ele>789.3</ele>
        <time>2015-08-22T23:29:06Z</time>
      </trkpt>
      <trkpt lat="45.21159" lon="5.72892">
        <ele>789.1</ele>
        <time>2015-08-22T23:29:07Z</time>
      </trkpt>
      <trkpt lat="45.21157" lon="5.72891">
        <ele>788.8</ele>
        <time>2015-08-22T23:29:09Z</time>
      </trkpt>
      <trkpt lat="45.21154" lon="5.7289">
        <ele>788.4</ele>
        <time>2015-08-22T23:29:11Z</time>
      </trkpt>
      <trkpt lat="45.21151" lon="5.72887">
        <ele>788.3</ele>
        <time>2015-08-22T23:29:14Z</time>
      </trkpt>
      <trkpt lat="45.21147" lon="5.72885">
        <ele>787.9</ele>
        <time>2015-08-22T23:29:18Z</time>
      </trkpt>
      <trkpt lat="45.21142" lon="5.72883">
        <ele>787.3</ele>
        <time>2015-08-22T23:29:23Z</time>
      </trkpt>
      <trkpt lat="45.21135" lon="5.72879">
        <ele>786.9</ele>
        <time>2015-08-22T23:29:29Z</time>
      </trkpt>
      <trkpt lat="45.2113" lon="5.72877">
        <ele>786.4</ele>
        <time>2015-08-22T23:29:34Z</time>
      </trkpt>
      <trkpt lat="45.21126" lon="5.72875">
        <ele>786.2</ele>
        <time>2015-08-22T23:29:36Z</time>
      </trkpt>
      <trkpt lat="45.21125" lon="5.72874">
        <ele>786</ele>
        <time>2015-08-22T23:29:37Z</time>
      </trkpt>
      <trkpt lat="45.21116" lon="5.72867">
        <ele>783.7</ele>
        <time>2015-08-22T23:29:43Z</time>
      </trkpt>
      <trkpt lat="45.21109" lon="5.7286">
        <ele>782.1</ele>
        <time>2015-08-22T23:29:50Z</time>
      </trkpt>
      <trkpt lat="45.21107" lon="5.72856">
        <ele>781.3</ele>
        <time>2015-08-22T23:29:53Z</time>
      </trkpt>
      <trkpt lat="45.21104" lon="5.72856">
        <ele>780.7</ele>
        <time>2015-08-22T23:29:55Z</time>
      </trkpt>
      <trkpt lat="45.21097" lon="5.72849">
        <ele>778.7</ele>
        <time>2015-08-22T23:30:01Z</time>
      </trkpt>
      <trkpt lat="45.21092" lon="5.72843">
        <ele>777.3</ele>
        <time>2015-08-22T23:30:05Z</time>
      </trkpt>
      <trkpt lat="45.2109" lon="5.72838">
        <ele>776.5</ele>
        <time>2015-08-22T23:30:07Z</time>
      </trkpt>
      <trkpt lat="45.21089" lon="5.72838">
        <ele>776.2</ele>
        <time>2015-08-22T23:30:08Z</time>
      </trkpt>
      <trkpt lat="45.21085" lon="5.72834">
        <ele>774.9</ele>
        <time>2015-08-22T23:30:12Z</time>
      </trkpt>
      <trkpt lat="45.21081" lon="5.7283">
        <ele>773.7</ele>
        <time>2015-08-22T23:30:16Z</time>
      </trkpt>
      <trkpt lat="45.2108" lon="5.72829">
        <ele>773.4</ele>
        <time>2015-08-22T23:30:17Z</time>
      </trkpt>
      <trkpt lat="45.21076" lon="5.72816">
        <ele>771.4</ele>
        <time>2015-08-22T23:30:23Z</time>
      </trkpt>
      <trkpt lat="45.21074" lon="5.72814">
        <ele>770.9</ele>
        <time>2015-08-22T23:30:24Z</time>
      </trkpt>
      <trkpt lat="45.21072" lon="5.72811">
        <ele>770.2</ele>
        <time>2015-08-22T23:30:26Z</time>
      </trkpt>
      <trkpt lat="45.2107" lon="5.72804">
        <ele>769</ele>
        <time>2015-08-22T23:30:30Z</time>
      </trkpt>
      <trkpt lat="45.21067" lon="5.72792">
        <ele>767.4</ele>
        <time>2015-08-22T23:30:35Z</time>
      </trkpt>
      <trkpt lat="45.21066" lon="5.72791">
        <ele>767</ele>
        <time>2015-08-22T23:30:36Z</time>
      </trkpt>
      <trkpt lat="45.21064" lon="5.72786">
        <ele>765.2</ele>
        <time>2015-08-22T23:30:39Z</time>
      </trkpt>
      <trkpt lat="45.21062" lon="5.72777">
        <ele>762.4</ele>
        <time>2015-08-22T23:30:42Z</time>
      </trkpt>
      <trkpt lat="45.21058" lon="5.72766">
        <ele>758.6</ele>
        <time>2015-08-22T23:30:47Z</time>
      </trkpt>
      <trkpt lat="45.21054" lon="5.72754">
        <ele>754.8</ele>
        <time>2015-08-22T23:30:53Z</time>
      </trkpt>
      <trkpt lat="45.21052" lon="5.72746">
        <ele>752.4</ele>
        <time>2015-08-22T23:30:57Z</time>
      </trkpt>
      <trkpt lat="45.2105" lon="5.72744">
        <ele>751.4</ele>
        <time>2015-08-22T23:30:59Z</time>
      </trkpt>
      <trkpt lat="45.21045" lon="5.72739">
        <ele>748.9</ele>
        <time>2015-08-22T23:31:04Z</time>
      </trkpt>
      <trkpt lat="45.21041" lon="5.72736">
        <ele>747.2</ele>
        <time>2015-08-22T23:31:07Z</time>
      </trkpt>
      <trkpt lat="45.2104" lon="5.72736">
        <ele>746.8</ele>
        <time>2015-08-22T23:31:08Z</time>
      </trkpt>
      <trkpt lat="45.21036" lon="5.72736">
        <ele>746.1</ele>
        <time>2015-08-22T23:31:11Z</time>
      </trkpt>
      <trkpt lat="45.21034" lon="5.72735">
        <ele>745.4</ele>
        <time>2015-08-22T23:31:14Z</time>
      </trkpt>
      <trkpt lat="45.2103" lon="5.72732">
        <ele>744</ele>
        <time>2015-08-22T23:31:17Z</time>
      </trkpt>
      <trkpt lat="45.21025" lon="5.72733">
        <ele>743.1</ele>
        <time>2015-08-22T23:31:21Z</time>
      </trkpt>
      <trkpt lat="45.2102" lon="5.72735">
        <ele>742.6</ele>
        <time>2015-08-22T23:31:27Z</time>
      </trkpt>
      <trkpt lat="45.2102" lon="5.72734">
        <ele>742.3</ele>
        <time>2015-08-22T23:31:28Z</time>
      </trkpt>
      <trkpt lat="45.21016" lon="5.72735">
        <ele>741.7</ele>
        <time>2015-08-22T23:31:32Z</time>
      </trkpt>
      <trkpt lat="45.21014" lon="5.72734">
        <ele>741.1</ele>
        <time>2015-08-22T23:31:34Z</time>
      </trkpt>
      <trkpt lat="45.21011" lon="5.72737">
        <ele>740.9</ele>
        <time>2015-08-22T23:31:39Z</time>
      </trkpt>
      <trkpt lat="45.21011" lon="5.72738">
        <ele>740.9</ele>
        <time>2015-08-22T23:31:40Z</time>
      </trkpt>
      <trkpt lat="45.2101" lon="5.72738">
        <ele>740.7</ele>
        <time>2015-08-22T23:31:41Z</time>
      </trkpt>
      <trkpt lat="45.21008" lon="5.72738">
        <ele>740.5</ele>
        <time>2015-08-22T23:31:43Z</time>
      </trkpt>
      <trkpt lat="45.21007" lon="5.72739">
        <ele>740.3</ele>
        <time>2015-08-22T23:31:45Z</time>
      </trkpt>
      <trkpt lat="45.21004" lon="5.72741">
        <ele>740.1</ele>
        <time>2015-08-22T23:31:49Z</time>
      </trkpt>
      <trkpt lat="45.21003" lon="5.72744">
        <ele>740.5</ele>
        <time>2015-08-22T23:31:51Z</time>
      </trkpt>
      <trkpt lat="45.21003" lon="5.72747">
        <ele>740.9</ele>
        <time>2015-08-22T23:31:54Z</time>
      </trkpt>
      <trkpt lat="45.21" lon="5.72748">
        <ele>740.2</ele>
        <time>2015-08-22T23:31:59Z</time>
      </trkpt>
      <trkpt lat="45.20998" lon="5.72748">
        <ele>740</ele>
        <time>2015-08-22T23:32:01Z</time>
      </trkpt>
      <trkpt lat="45.20995" lon="5.72747">
        <ele>739.1</ele>
        <time>2015-08-22T23:32:03Z</time>
      </trkpt>
      <trkpt lat="45.20994" lon="5.72748">
        <ele>739</ele>
        <time>2015-08-22T23:32:05Z</time>
      </trkpt>
      <trkpt lat="45.20994" lon="5.72749">
        <ele>739.2</ele>
        <time>2015-08-22T23:32:06Z</time>
      </trkpt>
      <trkpt lat="45.20994" lon="5.7275">
        <ele>739.4</ele>
        <time>2015-08-22T23:32:07Z</time>
      </trkpt>
      <trkpt lat="45.20993" lon="5.7275">
        <ele>739.1</ele>
        <time>2015-08-22T23:32:09Z</time>
      </trkpt>
      <trkpt lat="45.20991" lon="5.72752">
        <ele>739</ele>
        <time>2015-08-22T23:32:11Z</time>
      </trkpt>
      <trkpt lat="45.20991" lon="5.72751">
        <ele>738.9</ele>
        <time>2015-08-22T23:32:12Z</time>
      </trkpt>
      <trkpt lat="45.20989" lon="5.7275">
        <ele>738.2</ele>
        <time>2015-08-22T23:32:16Z</time>
      </trkpt>
      <trkpt lat="45.20987" lon="5.72747">
        <ele>737.3</ele>
        <time>2015-08-22T23:32:19Z</time>
      </trkpt>
      <trkpt lat="45.20984" lon="5.72743">
        <ele>736</ele>
        <time>2015-08-22T23:32:22Z</time>
      </trkpt>
      <trkpt lat="45.20983" lon="5.72743">
        <ele>735.7</ele>
        <time>2015-08-22T23:32:23Z</time>
      </trkpt>
      <trkpt lat="45.20982" lon="5.7274">
        <ele>735.1</ele>
        <time>2015-08-22T23:32:25Z</time>
      </trkpt>
      <trkpt lat="45.2098" lon="5.72739">
        <ele>734.5</ele>
        <time>2015-08-22T23:32:28Z</time>
      </trkpt>
      <trkpt lat="45.20978" lon="5.72737">
        <ele>733.8</ele>
        <time>2015-08-22T23:32:31Z</time>
      </trkpt>
      <trkpt lat="45.20978" lon="5.72736">
        <ele>733.5</ele>
        <time>2015-08-22T23:32:32Z</time>
      </trkpt>
      <trkpt lat="45.20977" lon="5.72735">
        <ele>733.3</ele>
        <time>2015-08-22T23:32:33Z</time>
      </trkpt>
      <trkpt lat="45.20976" lon="5.72734">
        <ele>732.9</ele>
        <time>2015-08-22T23:32:34Z</time>
      </trkpt>
      <trkpt lat="45.20974" lon="5.72728">
        <ele>731.6</ele>
        <time>2015-08-22T23:32:39Z</time>
      </trkpt>
      <trkpt lat="45.20971" lon="5.72723">
        <ele>730.3</ele>
        <time>2015-08-22T23:32:44Z</time>
      </trkpt>
      <trkpt lat="45.20968" lon="5.7272">
        <ele>729.4</ele>
        <time>2015-08-22T23:32:46Z</time>
      </trkpt>
      <trkpt lat="45.20966" lon="5.72714">
        <ele>728</ele>
        <time>2015-08-22T23:32:50Z</time>
      </trkpt>
      <trkpt lat="45.20959" lon="5.72709">
        <ele>726.3</ele>
        <time>2015-08-22T23:32:56Z</time>
      </trkpt>
      <trkpt lat="45.20954" lon="5.72705">
        <ele>723.9</ele>
        <time>2015-08-22T23:33:01Z</time>
      </trkpt>
      <trkpt lat="45.20953" lon="5.72702">
        <ele>722.9</ele>
        <time>2015-08-22T23:33:02Z</time>
      </trkpt>
      <trkpt lat="45.20946" lon="5.72693">
        <ele>718.8</ele>
        <time>2015-08-22T23:33:08Z</time>
      </trkpt>
      <trkpt lat="45.20945" lon="5.7269">
        <ele>717.7</ele>
        <time>2015-08-22T23:33:09Z</time>
      </trkpt>
      <trkpt lat="45.20939" lon="5.72684">
        <ele>714.7</ele>
        <time>2015-08-22T23:33:16Z</time>
      </trkpt>
      <trkpt lat="45.20932" lon="5.7268">
        <ele>712</ele>
        <time>2015-08-22T23:33:21Z</time>
      </trkpt>
      <trkpt lat="45.2093" lon="5.72679">
        <ele>711.3</ele>
        <time>2015-08-22T23:33:22Z</time>
      </trkpt>
      <trkpt lat="45.20925" lon="5.7267">
        <ele>708</ele>
        <time>2015-08-22T23:33:27Z</time>
      </trkpt>
      <trkpt lat="45.20921" lon="5.72667">
        <ele>706.1</ele>
        <time>2015-08-22T23:33:31Z</time>
      </trkpt>
      <trkpt lat="45.20919" lon="5.72667">
        <ele>705.8</ele>
        <time>2015-08-22T23:33:32Z</time>
      </trkpt>
      <trkpt lat="45.20917" lon="5.72667">
        <ele>705.5</ele>
        <time>2015-08-22T23:33:33Z</time>
      </trkpt>
      <trkpt lat="45.2091" lon="5.72668">
        <ele>704.3</ele>
        <time>2015-08-22T23:33:38Z</time>
      </trkpt>
      <trkpt lat="45.20905" lon="5.72668">
        <ele>703.4</ele>
        <time>2015-08-22T23:33:43Z</time>
      </trkpt>
      <trkpt lat="45.20903" lon="5.7267">
        <ele>703.3</ele>
        <time>2015-08-22T23:33:46Z</time>
      </trkpt>
      <trkpt lat="45.20901" lon="5.7267">
        <ele>702.9</ele>
        <time>2015-08-22T23:33:48Z</time>
      </trkpt>
      <trkpt lat="45.20894" lon="5.72668">
        <ele>701.1</ele>
        <time>2015-08-22T23:33:53Z</time>
      </trkpt>
      <trkpt lat="45.20886" lon="5.72671">
        <ele>700.4</ele>
        <time>2015-08-22T23:33:59Z</time>
      </trkpt>
      <trkpt lat="45.20884" lon="5.72672">
        <ele>700.1</ele>
        <time>2015-08-22T23:34:00Z</time>
      </trkpt>
      <trkpt lat="45.20876" lon="5.72675">
        <ele>699.1</ele>
        <time>2015-08-22T23:34:06Z</time>
      </trkpt>
      <trkpt lat="45.20875" lon="5.72676">
        <ele>699</ele>
        <time>2015-08-22T23:34:08Z</time>
      </trkpt>
      <trkpt lat="45.2087" lon="5.72678">
        <ele>698.2</ele>
        <time>2015-08-22T23:34:11Z</time>
      </trkpt>
      <trkpt lat="45.20868" lon="5.72678">
        <ele>697.7</ele>
        <time>2015-08-22T23:34:12Z</time>
      </trkpt>
      <trkpt lat="45.20859" lon="5.72682">
        <ele>695.7</ele>
        <time>2015-08-22T23:34:17Z</time>
      </trkpt>
      <trkpt lat="45.20854" lon="5.72683">
        <ele>694.3</ele>
        <time>2015-08-22T23:34:23Z</time>
      </trkpt>
      <trkpt lat="45.20851" lon="5.72685">
        <ele>693.7</ele>
        <time>2015-08-22T23:34:27Z</time>
      </trkpt>
      <trkpt lat="45.2085" lon="5.72686">
        <ele>693.6</ele>
        <time>2015-08-22T23:34:28Z</time>
      </trkpt>
      <trkpt lat="45.20843" lon="5.72689">
        <ele>692.2</ele>
        <time>2015-08-22T23:34:35Z</time>
      </trkpt>
      <trkpt lat="45.20841" lon="5.7269">
        <ele>691.7</ele>
        <time>2015-08-22T23:34:38Z</time>
      </trkpt>
      <trkpt lat="45.20839" lon="5.72689">
        <ele>690.8</ele>
        <time>2015-08-22T23:34:41Z</time>
      </trkpt>
      <trkpt lat="45.20838" lon="5.72685">
        <ele>689.8</ele>
        <time>2015-08-22T23:34:45Z</time>
      </trkpt>
      <trkpt lat="45.20838" lon="5.72682">
        <ele>689.2</ele>
        <time>2015-08-22T23:34:47Z</time>
      </trkpt>
      <trkpt lat="45.20837" lon="5.7267">
        <ele>686.2</ele>
        <time>2015-08-22T23:34:55Z</time>
      </trkpt>
      <trkpt lat="45.20836" lon="5.72666">
        <ele>685</ele>
        <time>2015-08-22T23:34:58Z</time>
      </trkpt>
      <trkpt lat="45.20836" lon="5.72663">
        <ele>684.7</ele>
        <time>2015-08-22T23:35:01Z</time>
      </trkpt>
      <trkpt lat="45.20836" lon="5.72661">
        <ele>684.1</ele>
        <time>2015-08-22T23:35:02Z</time>
      </trkpt>
      <trkpt lat="45.20835" lon="5.72658">
        <ele>683.1</ele>
        <time>2015-08-22T23:35:05Z</time>
      </trkpt>
      <trkpt lat="45.20834" lon="5.72656">
        <ele>682.5</ele>
        <time>2015-08-22T23:35:06Z</time>
      </trkpt>
      <trkpt lat="45.2083" lon="5.72648">
        <ele>679.9</ele>
        <time>2015-08-22T23:35:11Z</time>
      </trkpt>
      <trkpt lat="45.20829" lon="5.72649">
        <ele>679.7</ele>
        <time>2015-08-22T23:35:12Z</time>
      </trkpt>
      <trkpt lat="45.20828" lon="5.72653">
        <ele>680.3</ele>
        <time>2015-08-22T23:35:15Z</time>
      </trkpt>
      <trkpt lat="45.20827" lon="5.72658">
        <ele>680.8</ele>
        <time>2015-08-22T23:35:20Z</time>
      </trkpt>
      <trkpt lat="45.20819" lon="5.72661">
        <ele>679.3</ele>
        <time>2015-08-22T23:35:25Z</time>
      </trkpt>
      <trkpt lat="45.20812" lon="5.72663">
        <ele>677.3</ele>
        <time>2015-08-22T23:35:30Z</time>
      </trkpt>
      <trkpt lat="45.20811" lon="5.72664">
        <ele>677.1</ele>
        <time>2015-08-22T23:35:31Z</time>
      </trkpt>
      <trkpt lat="45.2081" lon="5.72664">
        <ele>676.9</ele>
        <time>2015-08-22T23:35:32Z</time>
      </trkpt>
      <trkpt lat="45.2081" lon="5.72659">
        <ele>676.1</ele>
        <time>2015-08-22T23:35:36Z</time>
      </trkpt>
      <trkpt lat="45.20808" lon="5.72652">
        <ele>674.1</ele>
        <time>2015-08-22T23:35:41Z</time>
      </trkpt>
      <trkpt lat="45.20809" lon="5.72648">
        <ele>673.7</ele>
        <time>2015-08-22T23:35:43Z</time>
      </trkpt>
      <trkpt lat="45.20808" lon="5.72641">
        <ele>672.3</ele>
        <time>2015-08-22T23:35:48Z</time>
      </trkpt>
      <trkpt lat="45.20805" lon="5.72632">
        <ele>669.8</ele>
        <time>2015-08-22T23:35:54Z</time>
      </trkpt>
      <trkpt lat="45.20801" lon="5.72624">
        <ele>667.4</ele>
        <time>2015-08-22T23:36:00Z</time>
      </trkpt>
      <trkpt lat="45.20797" lon="5.72622">
        <ele>665.9</ele>
        <time>2015-08-22T23:36:05Z</time>
      </trkpt>
      <trkpt lat="45.20797" lon="5.72626">
        <ele>666.7</ele>
        <time>2015-08-22T23:36:09Z</time>
      </trkpt>
      <trkpt lat="45.20798" lon="5.72628">
        <ele>667.2</ele>
        <time>2015-08-22T23:36:10Z</time>
      </trkpt>
      <trkpt lat="45.20792" lon="5.72635">
        <ele>666.9</ele>
        <time>2015-08-22T23:36:15Z</time>
      </trkpt>
      <trkpt lat="45.20791" lon="5.72635">
        <ele>666.5</ele>
        <time>2015-08-22T23:36:16Z</time>
      </trkpt>
      <trkpt lat="45.20785" lon="5.72638">
        <ele>665.8</ele>
        <time>2015-08-22T23:36:21Z</time>
      </trkpt>
      <trkpt lat="45.2078" lon="5.72641">
        <ele>665</ele>
        <time>2015-08-22T23:36:26Z</time>
      </trkpt>
      <trkpt lat="45.20778" lon="5.72641">
        <ele>664.6</ele>
        <time>2015-08-22T23:36:28Z</time>
      </trkpt>
      <trkpt lat="45.20775" lon="5.7264">
        <ele>663.8</ele>
        <time>2015-08-22T23:36:32Z</time>
      </trkpt>
      <trkpt lat="45.20775" lon="5.72639">
        <ele>663.6</ele>
        <time>2015-08-22T23:36:33Z</time>
      </trkpt>
      <trkpt lat="45.20776" lon="5.72635">
        <ele>663.1</ele>
        <time>2015-08-22T23:36:37Z</time>
      </trkpt>
      <trkpt lat="45.20777" lon="5.72626">
        <ele>662.2</ele>
        <time>2015-08-22T23:36:44Z</time>
      </trkpt>
      <trkpt lat="45.20778" lon="5.72622">
        <ele>661.8</ele>
        <time>2015-08-22T23:36:46Z</time>
      </trkpt>
      <trkpt lat="45.20777" lon="5.72612">
        <ele>660.4</ele>
        <time>2015-08-22T23:36:51Z</time>
      </trkpt>
      <trkpt lat="45.20775" lon="5.72609">
        <ele>659.7</ele>
        <time>2015-08-22T23:36:53Z</time>
      </trkpt>
      <trkpt lat="45.20771" lon="5.72609">
        <ele>658.9</ele>
        <time>2015-08-22T23:36:56Z</time>
      </trkpt>
      <trkpt lat="45.20768" lon="5.7261">
        <ele>658.5</ele>
        <time>2015-08-22T23:36:58Z</time>
      </trkpt>
      <trkpt lat="45.20764" lon="5.72611">
        <ele>657.7</ele>
        <time>2015-08-22T23:37:02Z</time>
      </trkpt>
      <trkpt lat="45.20756" lon="5.72611">
        <ele>656.3</ele>
        <time>2015-08-22T23:37:08Z</time>
      </trkpt>
      <trkpt lat="45.20755" lon="5.72611">
        <ele>656.1</ele>
        <time>2015-08-22T23:37:09Z</time>
      </trkpt>
      <trkpt lat="45.2075" lon="5.72613">
        <ele>655.4</ele>
        <time>2015-08-22T23:37:13Z</time>
      </trkpt>
      <trkpt lat="45.20747" lon="5.72611">
        <ele>654.6</ele>
        <time>2015-08-22T23:37:19Z</time>
      </trkpt>
      <trkpt lat="45.20745" lon="5.72599">
        <ele>653.1</ele>
        <time>2015-08-22T23:37:26Z</time>
      </trkpt>
      <trkpt lat="45.20743" lon="5.72589">
        <ele>651.8</ele>
        <time>2015-08-22T23:37:32Z</time>
      </trkpt>
      <trkpt lat="45.20741" lon="5.72588">
        <ele>651.5</ele>
        <time>2015-08-22T23:37:33Z</time>
      </trkpt>
      <trkpt lat="45.20735" lon="5.72587">
        <ele>650.4</ele>
        <time>2015-08-22T23:37:37Z</time>
      </trkpt>
      <trkpt lat="45.20728" lon="5.72583">
        <ele>649</ele>
        <time>2015-08-22T23:37:43Z</time>
      </trkpt>
      <trkpt lat="45.20724" lon="5.72579">
        <ele>648.1</ele>
        <time>2015-08-22T23:37:47Z</time>
      </trkpt>
      <trkpt lat="45.2072" lon="5.72578">
        <ele>647.5</ele>
        <time>2015-08-22T23:37:49Z</time>
      </trkpt>
      <trkpt lat="45.20716" lon="5.72577">
        <ele>646.9</ele>
        <time>2015-08-22T23:37:53Z</time>
      </trkpt>
      <trkpt lat="45.20714" lon="5.72576">
        <ele>646.5</ele>
        <time>2015-08-22T23:37:55Z</time>
      </trkpt>
      <trkpt lat="45.20708" lon="5.72572">
        <ele>645.4</ele>
        <time>2015-08-22T23:38:01Z</time>
      </trkpt>
      <trkpt lat="45.20707" lon="5.7257">
        <ele>645.2</ele>
        <time>2015-08-22T23:38:04Z</time>
      </trkpt>
      <trkpt lat="45.20703" lon="5.72566">
        <ele>644.7</ele>
        <time>2015-08-22T23:38:07Z</time>
      </trkpt>
      <trkpt lat="45.20693" lon="5.72563">
        <ele>643.6</ele>
        <time>2015-08-22T23:38:14Z</time>
      </trkpt>
      <trkpt lat="45.20684" lon="5.72565">
        <ele>642.8</ele>
        <time>2015-08-22T23:38:20Z</time>
      </trkpt>
      <trkpt lat="45.20682" lon="5.72563">
        <ele>642.6</ele>
        <time>2015-08-22T23:38:21Z</time>
      </trkpt>
      <trkpt lat="45.20675" lon="5.72567">
        <ele>642</ele>
        <time>2015-08-22T23:38:26Z</time>
      </trkpt>
      <trkpt lat="45.20671" lon="5.72572">
        <ele>641.8</ele>
        <time>2015-08-22T23:38:29Z</time>
      </trkpt>
      <trkpt lat="45.20668" lon="5.72579">
        <ele>641.6</ele>
        <time>2015-08-22T23:38:32Z</time>
      </trkpt>
      <trkpt lat="45.20664" lon="5.72585">
        <ele>641.2</ele>
        <time>2015-08-22T23:38:37Z</time>
      </trkpt>
      <trkpt lat="45.20662" lon="5.72587">
        <ele>641</ele>
        <time>2015-08-22T23:38:39Z</time>
      </trkpt>
      <trkpt lat="45.20652" lon="5.72599">
        <ele>640</ele>
        <time>2015-08-22T23:38:46Z</time>
      </trkpt>
      <trkpt lat="45.20644" lon="5.72602">
        <ele>638.9</ele>
        <time>2015-08-22T23:38:51Z</time>
      </trkpt>
      <trkpt lat="45.20636" lon="5.72605">
        <ele>637.9</ele>
        <time>2015-08-22T23:38:56Z</time>
      </trkpt>
      <trkpt lat="45.20627" lon="5.726">
        <ele>636.8</ele>
        <time>2015-08-22T23:39:02Z</time>
      </trkpt>
      <trkpt lat="45.20616" lon="5.72596">
        <ele>635.5</ele>
        <time>2015-08-22T23:39:08Z</time>
      </trkpt>
      <trkpt lat="45.20605" lon="5.72587">
        <ele>634.6</ele>
        <time>2015-08-22T23:39:15Z</time>
      </trkpt>
      <trkpt lat="45.20596" lon="5.72579">
        <ele>634</ele>
        <time>2015-08-22T23:39:21Z</time>
      </trkpt>
      <trkpt lat="45.20587" lon="5.7257">
        <ele>633.9</ele>
        <time>2015-08-22T23:39:27Z</time>
      </trkpt>
      <trkpt lat="45.20585" lon="5.72569">
        <ele>633.9</ele>
        <time>2015-08-22T23:39:28Z</time>
      </trkpt>
      <trkpt lat="45.20578" lon="5.72563">
        <ele>633.9</ele>
        <time>2015-08-22T23:39:34Z</time>
      </trkpt>
      <trkpt lat="45.20568" lon="5.7256">
        <ele>633.6</ele>
        <time>2015-08-22T23:39:39Z</time>
      </trkpt>
      <trkpt lat="45.20558" lon="5.72558">
        <ele>633.2</ele>
        <time>2015-08-22T23:39:45Z</time>
      </trkpt>
      <trkpt lat="45.20552" lon="5.72556">
        <ele>633.2</ele>
        <time>2015-08-22T23:39:49Z</time>
      </trkpt>
      <trkpt lat="45.20549" lon="5.72554">
        <ele>633.2</ele>
        <time>2015-08-22T23:39:51Z</time>
      </trkpt>
      <trkpt lat="45.2054" lon="5.72557">
        <ele>631.9</ele>
        <time>2015-08-22T23:39:56Z</time>
      </trkpt>
      <trkpt lat="45.20538" lon="5.7256">
        <ele>631.1</ele>
        <time>2015-08-22T23:39:57Z</time>
      </trkpt>
      <trkpt lat="45.20535" lon="5.72566">
        <ele>629.4</ele>
        <time>2015-08-22T23:40:00Z</time>
      </trkpt>
      <trkpt lat="45.20525" lon="5.72571">
        <ele>626.3</ele>
        <time>2015-08-22T23:40:07Z</time>
      </trkpt>
      <trkpt lat="45.20513" lon="5.72574">
        <ele>623.3</ele>
        <time>2015-08-22T23:40:14Z</time>
      </trkpt>
      <trkpt lat="45.20503" lon="5.7257">
        <ele>622.1</ele>
        <time>2015-08-22T23:40:20Z</time>
      </trkpt>
      <trkpt lat="45.20495" lon="5.72566">
        <ele>621.2</ele>
        <time>2015-08-22T23:40:24Z</time>
      </trkpt>
      <trkpt lat="45.20493" lon="5.72565">
        <ele>621</ele>
        <time>2015-08-22T23:40:25Z</time>
      </trkpt>
      <trkpt lat="45.2048" lon="5.72555">
        <ele>620.3</ele>
        <time>2015-08-22T23:40:32Z</time>
      </trkpt>
      <trkpt lat="45.20472" lon="5.72548">
        <ele>620.3</ele>
        <time>2015-08-22T23:40:37Z</time>
      </trkpt>
      <trkpt lat="45.20464" lon="5.72538">
        <ele>620.3</ele>
        <time>2015-08-22T23:40:42Z</time>
      </trkpt>
      <trkpt lat="45.20455" lon="5.72521">
        <ele>619</ele>
        <time>2015-08-22T23:40:49Z</time>
      </trkpt>
      <trkpt lat="45.20447" lon="5.72508">
        <ele>617.3</ele>
        <time>2015-08-22T23:40:55Z</time>
      </trkpt>
      <trkpt lat="45.20445" lon="5.72507">
        <ele>616.8</ele>
        <time>2015-08-22T23:40:56Z</time>
      </trkpt>
      <trkpt lat="45.20441" lon="5.72511">
        <ele>615.1</ele>
        <time>2015-08-22T23:40:59Z</time>
      </trkpt>
      <trkpt lat="45.20442" lon="5.72527">
        <ele>614.9</ele>
        <time>2015-08-22T23:41:03Z</time>
      </trkpt>
      <trkpt lat="45.20442" lon="5.72533">
        <ele>614.6</ele>
        <time>2015-08-22T23:41:05Z</time>
      </trkpt>
      <trkpt lat="45.20444" lon="5.72545">
        <ele>613.8</ele>
        <time>2015-08-22T23:41:09Z</time>
      </trkpt>
      <trkpt lat="45.2045" lon="5.72559">
        <ele>612.3</ele>
        <time>2015-08-22T23:41:15Z</time>
      </trkpt>
      <trkpt lat="45.2046" lon="5.72573">
        <ele>612.6</ele>
        <time>2015-08-22T23:41:21Z</time>
      </trkpt>
      <trkpt lat="45.20465" lon="5.72582">
        <ele>611.6</ele>
        <time>2015-08-22T23:41:25Z</time>
      </trkpt>
      <trkpt lat="45.2047" lon="5.72596">
        <ele>609.8</ele>
        <time>2015-08-22T23:41:30Z</time>
      </trkpt>
      <trkpt lat="45.20478" lon="5.72611">
        <ele>608.5</ele>
        <time>2015-08-22T23:41:37Z</time>
      </trkpt>
      <trkpt lat="45.20486" lon="5.72622">
        <ele>608</ele>
        <time>2015-08-22T23:41:42Z</time>
      </trkpt>
      <trkpt lat="45.20495" lon="5.72626">
        <ele>608.9</ele>
        <time>2015-08-22T23:41:47Z</time>
      </trkpt>
      <trkpt lat="45.20504" lon="5.72633">
        <ele>608.4</ele>
        <time>2015-08-22T23:41:54Z</time>
      </trkpt>
      <trkpt lat="45.20507" lon="5.72632">
        <ele>609.6</ele>
        <time>2015-08-22T23:41:55Z</time>
      </trkpt>
      <trkpt lat="45.20512" lon="5.72634">
        <ele>610.2</ele>
        <time>2015-08-22T23:41:58Z</time>
      </trkpt>
      <trkpt lat="45.20519" lon="5.72644">
        <ele>607.9</ele>
        <time>2015-08-22T23:42:04Z</time>
      </trkpt>
      <trkpt lat="45.20526" lon="5.72654">
        <ele>606.3</ele>
        <time>2015-08-22T23:42:09Z</time>
      </trkpt>
      <trkpt lat="45.20533" lon="5.72664">
        <ele>604.5</ele>
        <time>2015-08-22T23:42:15Z</time>
      </trkpt>
      <trkpt lat="45.2054" lon="5.72674">
        <ele>602.9</ele>
        <time>2015-08-22T23:42:21Z</time>
      </trkpt>
      <trkpt lat="45.20542" lon="5.72675">
        <ele>603.3</ele>
        <time>2015-08-22T23:42:22Z</time>
      </trkpt>
      <trkpt lat="45.20548" lon="5.72679">
        <ele>603.9</ele>
        <time>2015-08-22T23:42:25Z</time>
      </trkpt>
      <trkpt lat="45.20553" lon="5.72686">
        <ele>603.1</ele>
        <time>2015-08-22T23:42:29Z</time>
      </trkpt>
      <trkpt lat="45.20553" lon="5.72688">
        <ele>602.7</ele>
        <time>2015-08-22T23:42:30Z</time>
      </trkpt>
      <trkpt lat="45.20558" lon="5.72693">
        <ele>602.7</ele>
        <time>2015-08-22T23:42:34Z</time>
      </trkpt>
      <trkpt lat="45.20565" lon="5.72702">
        <ele>602.6</ele>
        <time>2015-08-22T23:42:40Z</time>
      </trkpt>
      <trkpt lat="45.20571" lon="5.72703">
        <ele>604.4</ele>
        <time>2015-08-22T23:42:42Z</time>
      </trkpt>
      <trkpt lat="45.20578" lon="5.7271">
        <ele>604.9</ele>
        <time>2015-08-22T23:42:46Z</time>
      </trkpt>
      <trkpt lat="45.20576" lon="5.72714">
        <ele>602.3</ele>
        <time>2015-08-22T23:42:50Z</time>
      </trkpt>
      <trkpt lat="45.20571" lon="5.72711">
        <ele>601.8</ele>
        <time>2015-08-22T23:42:53Z</time>
      </trkpt>
      <trkpt lat="45.20568" lon="5.72708">
        <ele>601.7</ele>
        <time>2015-08-22T23:42:55Z</time>
      </trkpt>
      <trkpt lat="45.2056" lon="5.72701">
        <ele>600.8</ele>
        <time>2015-08-22T23:43:01Z</time>
      </trkpt>
      <trkpt lat="45.20553" lon="5.72697">
        <ele>600</ele>
        <time>2015-08-22T23:43:06Z</time>
      </trkpt>
      <trkpt lat="45.20546" lon="5.7269">
        <ele>599.5</ele>
        <time>2015-08-22T23:43:11Z</time>
      </trkpt>
      <trkpt lat="45.20542" lon="5.72687">
        <ele>599.2</ele>
        <time>2015-08-22T23:43:14Z</time>
      </trkpt>
      <trkpt lat="45.2054" lon="5.72684">
        <ele>599.4</ele>
        <time>2015-08-22T23:43:17Z</time>
      </trkpt>
      <trkpt lat="45.20534" lon="5.72681">
        <ele>598.9</ele>
        <time>2015-08-22T23:43:21Z</time>
      </trkpt>
      <trkpt lat="45.2053" lon="5.7268">
        <ele>598.4</ele>
        <time>2015-08-22T23:43:23Z</time>
      </trkpt>
      <trkpt lat="45.20523" lon="5.72675">
        <ele>598.2</ele>
        <time>2015-08-22T23:43:27Z</time>
      </trkpt>
      <trkpt lat="45.2051" lon="5.72667">
        <ele>597.5</ele>
        <time>2015-08-22T23:43:34Z</time>
      </trkpt>
      <trkpt lat="45.20501" lon="5.72666">
        <ele>595.7</ele>
        <time>2015-08-22T23:43:40Z</time>
      </trkpt>
      <trkpt lat="45.20498" lon="5.72665">
        <ele>595.2</ele>
        <time>2015-08-22T23:43:42Z</time>
      </trkpt>
      <trkpt lat="45.20492" lon="5.72662">
        <ele>594.8</ele>
        <time>2015-08-22T23:43:46Z</time>
      </trkpt>
      <trkpt lat="45.20488" lon="5.72659">
        <ele>594.7</ele>
        <time>2015-08-22T23:43:49Z</time>
      </trkpt>
      <trkpt lat="45.20482" lon="5.72658">
        <ele>593.8</ele>
        <time>2015-08-22T23:43:52Z</time>
      </trkpt>
      <trkpt lat="45.2047" lon="5.7265">
        <ele>593.6</ele>
        <time>2015-08-22T23:43:59Z</time>
      </trkpt>
      <trkpt lat="45.20469" lon="5.72648">
        <ele>594.3</ele>
        <time>2015-08-22T23:44:01Z</time>
      </trkpt>
      <trkpt lat="45.20466" lon="5.72646">
        <ele>594.5</ele>
        <time>2015-08-22T23:44:03Z</time>
      </trkpt>
      <trkpt lat="45.20461" lon="5.72644">
        <ele>593.9</ele>
        <time>2015-08-22T23:44:06Z</time>
      </trkpt>
      <trkpt lat="45.20459" lon="5.72643">
        <ele>594</ele>
        <time>2015-08-22T23:44:07Z</time>
      </trkpt>
      <trkpt lat="45.20449" lon="5.72639">
        <ele>590.8</ele>
        <time>2015-08-22T23:44:12Z</time>
      </trkpt>
      <trkpt lat="45.20439" lon="5.72635">
        <ele>587.3</ele>
        <time>2015-08-22T23:44:16Z</time>
      </trkpt>
      <trkpt lat="45.20437" lon="5.72634">
        <ele>586.6</ele>
        <time>2015-08-22T23:44:17Z</time>
      </trkpt>
      <trkpt lat="45.2043" lon="5.72623">
        <ele>587.2</ele>
        <time>2015-08-22T23:44:22Z</time>
      </trkpt>
      <trkpt lat="45.20423" lon="5.72613">
        <ele>586.5</ele>
        <time>2015-08-22T23:44:27Z</time>
      </trkpt>
      <trkpt lat="45.20422" lon="5.72614">
        <ele>585.8</ele>
        <time>2015-08-22T23:44:28Z</time>
      </trkpt>
      <trkpt lat="45.20424" lon="5.72624">
        <ele>583.7</ele>
        <time>2015-08-22T23:44:32Z</time>
      </trkpt>
      <trkpt lat="45.20426" lon="5.72637">
        <ele>579.7</ele>
        <time>2015-08-22T23:44:37Z</time>
      </trkpt>
      <trkpt lat="45.20427" lon="5.7264">
        <ele>578.5</ele>
        <time>2015-08-22T23:44:38Z</time>
      </trkpt>
      <trkpt lat="45.20429" lon="5.72649">
        <ele>576.3</ele>
        <time>2015-08-22T23:44:42Z</time>
      </trkpt>
      <trkpt lat="45.20435" lon="5.72662">
        <ele>574</ele>
        <time>2015-08-22T23:44:49Z</time>
      </trkpt>
      <trkpt lat="45.20442" lon="5.72671">
        <ele>574</ele>
        <time>2015-08-22T23:44:56Z</time>
      </trkpt>
      <trkpt lat="45.20446" lon="5.72675">
        <ele>574.6</ele>
        <time>2015-08-22T23:45:00Z</time>
      </trkpt>
      <trkpt lat="45.2045" lon="5.72677">
        <ele>575.4</ele>
        <time>2015-08-22T23:45:02Z</time>
      </trkpt>
      <trkpt lat="45.2046" lon="5.72687">
        <ele>576.4</ele>
        <time>2015-08-22T23:45:08Z</time>
      </trkpt>
      <trkpt lat="45.20468" lon="5.72697">
        <ele>574.5</ele>
        <time>2015-08-22T23:45:14Z</time>
      </trkpt>
      <trkpt lat="45.20478" lon="5.72703">
        <ele>574.9</ele>
        <time>2015-08-22T23:45:19Z</time>
      </trkpt>
      <trkpt lat="45.20487" lon="5.72713">
        <ele>573.3</ele>
        <time>2015-08-22T23:45:25Z</time>
      </trkpt>
      <trkpt lat="45.20499" lon="5.72719">
        <ele>573.9</ele>
        <time>2015-08-22T23:45:31Z</time>
      </trkpt>
      <trkpt lat="45.20509" lon="5.72726">
        <ele>572.8</ele>
        <time>2015-08-22T23:45:37Z</time>
      </trkpt>
      <trkpt lat="45.20517" lon="5.72736">
        <ele>570.6</ele>
        <time>2015-08-22T23:45:43Z</time>
      </trkpt>
      <trkpt lat="45.20525" lon="5.72744">
        <ele>568.6</ele>
        <time>2015-08-22T23:45:48Z</time>
      </trkpt>
      <trkpt lat="45.20526" lon="5.72746">
        <ele>568</ele>
        <time>2015-08-22T23:45:49Z</time>
      </trkpt>
      <trkpt lat="45.20521" lon="5.72743">
        <ele>568</ele>
        <time>2015-08-22T23:45:53Z</time>
      </trkpt>
      <trkpt lat="45.20512" lon="5.72733">
        <ele>570.2</ele>
        <time>2015-08-22T23:45:59Z</time>
      </trkpt>
      <trkpt lat="45.20503" lon="5.72728">
        <ele>570.4</ele>
        <time>2015-08-22T23:46:05Z</time>
      </trkpt>
      <trkpt lat="45.20502" lon="5.72727">
        <ele>570.4</ele>
        <time>2015-08-22T23:46:06Z</time>
      </trkpt>
      <trkpt lat="45.20489" lon="5.72721">
        <ele>569.6</ele>
        <time>2015-08-22T23:46:13Z</time>
      </trkpt>
      <trkpt lat="45.20482" lon="5.72717">
        <ele>569.8</ele>
        <time>2015-08-22T23:46:18Z</time>
      </trkpt>
      <trkpt lat="45.2048" lon="5.72717">
        <ele>568.8</ele>
        <time>2015-08-22T23:46:20Z</time>
      </trkpt>
      <trkpt lat="45.20474" lon="5.72714">
        <ele>568.5</ele>
        <time>2015-08-22T23:46:24Z</time>
      </trkpt>
      <trkpt lat="45.20472" lon="5.72714">
        <ele>567.7</ele>
        <time>2015-08-22T23:46:25Z</time>
      </trkpt>
      <trkpt lat="45.20453" lon="5.72715">
        <ele>561</ele>
        <time>2015-08-22T23:46:34Z</time>
      </trkpt>
      <trkpt lat="45.20446" lon="5.72712">
        <ele>559</ele>
        <time>2015-08-22T23:46:39Z</time>
      </trkpt>
      <trkpt lat="45.20436" lon="5.72707">
        <ele>556.6</ele>
        <time>2015-08-22T23:46:45Z</time>
      </trkpt>
      <trkpt lat="45.2043" lon="5.72698">
        <ele>557</ele>
        <time>2015-08-22T23:46:51Z</time>
      </trkpt>
      <trkpt lat="45.2043" lon="5.72697">
        <ele>557.3</ele>
        <time>2015-08-22T23:46:52Z</time>
      </trkpt>
      <trkpt lat="45.20429" lon="5.72696">
        <ele>557.1</ele>
        <time>2015-08-22T23:46:53Z</time>
      </trkpt>
      <trkpt lat="45.20423" lon="5.72692">
        <ele>555.7</ele>
        <time>2015-08-22T23:46:57Z</time>
      </trkpt>
      <trkpt lat="45.20414" lon="5.72684">
        <ele>554.2</ele>
        <time>2015-08-22T23:47:03Z</time>
      </trkpt>
      <trkpt lat="45.20413" lon="5.72683">
        <ele>554.1</ele>
        <time>2015-08-22T23:47:04Z</time>
      </trkpt>
      <trkpt lat="45.20404" lon="5.72676">
        <ele>552.2</ele>
        <time>2015-08-22T23:47:10Z</time>
      </trkpt>
      <trkpt lat="45.20398" lon="5.72672">
        <ele>551.3</ele>
        <time>2015-08-22T23:47:14Z</time>
      </trkpt>
      <trkpt lat="45.20396" lon="5.72668">
        <ele>551.7</ele>
        <time>2015-08-22T23:47:16Z</time>
      </trkpt>
      <trkpt lat="45.20388" lon="5.72662">
        <ele>549.8</ele>
        <time>2015-08-22T23:47:21Z</time>
      </trkpt>
      <trkpt lat="45.2038" lon="5.72651">
        <ele>550.1</ele>
        <time>2015-08-22T23:47:27Z</time>
      </trkpt>
      <trkpt lat="45.20369" lon="5.72642">
        <ele>549.7</ele>
        <time>2015-08-22T23:47:34Z</time>
      </trkpt>
      <trkpt lat="45.20361" lon="5.72634">
        <ele>550.5</ele>
        <time>2015-08-22T23:47:39Z</time>
      </trkpt>
      <trkpt lat="45.20349" lon="5.72626">
        <ele>550.1</ele>
        <time>2015-08-22T23:47:45Z</time>
      </trkpt>
      <trkpt lat="45.20341" lon="5.7262">
        <ele>550.2</ele>
        <time>2015-08-22T23:47:52Z</time>
      </trkpt>
      <trkpt lat="45.20333" lon="5.72616">
        <ele>549.4</ele>
        <time>2015-08-22T23:47:58Z</time>
      </trkpt>
      <trkpt lat="45.20332" lon="5.72614">
        <ele>549.7</ele>
        <time>2015-08-22T23:47:59Z</time>
      </trkpt>
      <trkpt lat="45.20327" lon="5.72614">
        <ele>548.4</ele>
        <time>2015-08-22T23:48:02Z</time>
      </trkpt>
      <trkpt lat="45.20318" lon="5.72609">
        <ele>546.9</ele>
        <time>2015-08-22T23:48:08Z</time>
      </trkpt>
      <trkpt lat="45.20309" lon="5.72604">
        <ele>546.1</ele>
        <time>2015-08-22T23:48:14Z</time>
      </trkpt>
      <trkpt lat="45.203" lon="5.72604">
        <ele>543.1</ele>
        <time>2015-08-22T23:48:19Z</time>
      </trkpt>
      <trkpt lat="45.20296" lon="5.72605">
        <ele>541.6</ele>
        <time>2015-08-22T23:48:21Z</time>
      </trkpt>
      <trkpt lat="45.20289" lon="5.72605">
        <ele>539.1</ele>
        <time>2015-08-22T23:48:26Z</time>
      </trkpt>
      <trkpt lat="45.20285" lon="5.72604">
        <ele>537.8</ele>
        <time>2015-08-22T23:48:28Z</time>
      </trkpt>
      <trkpt lat="45.20275" lon="5.72607">
        <ele>533.1</ele>
        <time>2015-08-22T23:48:34Z</time>
      </trkpt>
      <trkpt lat="45.20273" lon="5.72608">
        <ele>532.3</ele>
        <time>2015-08-22T23:48:35Z</time>
      </trkpt>
      <trkpt lat="45.20266" lon="5.72609">
        <ele>529.2</ele>
        <time>2015-08-22T23:48:39Z</time>
      </trkpt>
      <trkpt lat="45.20264" lon="5.72608">
        <ele>528.3</ele>
        <time>2015-08-22T23:48:40Z</time>
      </trkpt>
      <trkpt lat="45.20257" lon="5.72608">
        <ele>525.8</ele>
        <time>2015-08-22T23:48:44Z</time>
      </trkpt>
      <trkpt lat="45.20248" lon="5.72608">
        <ele>522.3</ele>
        <time>2015-08-22T23:48:49Z</time>
      </trkpt>
      <trkpt lat="45.20241" lon="5.72604">
        <ele>520.4</ele>
        <time>2015-08-22T23:48:54Z</time>
      </trkpt>
      <trkpt lat="45.2023" lon="5.72598">
        <ele>517.9</ele>
        <time>2015-08-22T23:49:00Z</time>
      </trkpt>
      <trkpt lat="45.20218" lon="5.72595">
        <ele>514</ele>
        <time>2015-08-22T23:49:06Z</time>
      </trkpt>
      <trkpt lat="45.20207" lon="5.72587">
        <ele>511.3</ele>
        <time>2015-08-22T23:49:13Z</time>
      </trkpt>
      <trkpt lat="45.20197" lon="5.72579">
        <ele>509.8</ele>
        <time>2015-08-22T23:49:21Z</time>
      </trkpt>
      <trkpt lat="45.20187" lon="5.72574">
        <ele>507.7</ele>
        <time>2015-08-22T23:49:28Z</time>
      </trkpt>
      <trkpt lat="45.20178" lon="5.72569">
        <ele>505.6</ele>
        <time>2015-08-22T23:49:35Z</time>
      </trkpt>
      <trkpt lat="45.20169" lon="5.72563">
        <ele>503.8</ele>
        <time>2015-08-22T23:49:41Z</time>
      </trkpt>
      <trkpt lat="45.20163" lon="5.72562">
        <ele>501.7</ele>
        <time>2015-08-22T23:49:46Z</time>
      </trkpt>
      <trkpt lat="45.20149" lon="5.72558">
        <ele>497.6</ele>
        <time>2015-08-22T23:49:54Z</time>
      </trkpt>
      <trkpt lat="45.20136" lon="5.72554">
        <ele>493.6</ele>
        <time>2015-08-22T23:50:01Z</time>
      </trkpt>
      <trkpt lat="45.20127" lon="5.72549">
        <ele>490.9</ele>
        <time>2015-08-22T23:50:06Z</time>
      </trkpt>
      <trkpt lat="45.20118" lon="5.72545">
        <ele>490.1</ele>
        <time>2015-08-22T23:50:13Z</time>
      </trkpt>
      <trkpt lat="45.20118" lon="5.72544">
        <ele>490.3</ele>
        <time>2015-08-22T23:50:19Z</time>
      </trkpt>
      <trkpt lat="45.20112" lon="5.72536">
        <ele>489.3</ele>
        <time>2015-08-22T23:51:09Z</time>
      </trkpt>
      <trkpt lat="45.20106" lon="5.7254">
        <ele>489.3</ele>
        <time>2015-08-22T23:51:16Z</time>
      </trkpt>
      <trkpt lat="45.20097" lon="5.72542">
        <ele>488.9</ele>
        <time>2015-08-22T23:51:23Z</time>
      </trkpt>
      <trkpt lat="45.20088" lon="5.72543">
        <ele>488.3</ele>
        <time>2015-08-22T23:51:28Z</time>
      </trkpt>
      <trkpt lat="45.20083" lon="5.72542">
        <ele>488</ele>
        <time>2015-08-22T23:51:32Z</time>
      </trkpt>
      <trkpt lat="45.20081" lon="5.72539">
        <ele>487.3</ele>
        <time>2015-08-22T23:51:34Z</time>
      </trkpt>
      <trkpt lat="45.20078" lon="5.72535">
        <ele>486.2</ele>
        <time>2015-08-22T23:51:37Z</time>
      </trkpt>
      <trkpt lat="45.20073" lon="5.72527">
        <ele>484.1</ele>
        <time>2015-08-22T23:51:42Z</time>
      </trkpt>
      <trkpt lat="45.20072" lon="5.72512">
        <ele>481</ele>
        <time>2015-08-22T23:51:49Z</time>
      </trkpt>
      <trkpt lat="45.20075" lon="5.72497">
        <ele>478.3</ele>
        <time>2015-08-22T23:51:54Z</time>
      </trkpt>
      <trkpt lat="45.20077" lon="5.72492">
        <ele>477.6</ele>
        <time>2015-08-22T23:51:56Z</time>
      </trkpt>
      <trkpt lat="45.20078" lon="5.72483">
        <ele>475.9</ele>
        <time>2015-08-22T23:51:59Z</time>
      </trkpt>
      <trkpt lat="45.20078" lon="5.72477">
        <ele>474.6</ele>
        <time>2015-08-22T23:52:01Z</time>
      </trkpt>
      <trkpt lat="45.20077" lon="5.72467">
        <ele>472.5</ele>
        <time>2015-08-22T23:52:04Z</time>
      </trkpt>
      <trkpt lat="45.20075" lon="5.72451">
        <ele>466</ele>
        <time>2015-08-22T23:52:10Z</time>
      </trkpt>
      <trkpt lat="45.2007" lon="5.72436">
        <ele>457.6</ele>
        <time>2015-08-22T23:52:15Z</time>
      </trkpt>
      <trkpt lat="45.20061" lon="5.7243">
        <ele>453.1</ele>
        <time>2015-08-22T23:52:20Z</time>
      </trkpt>
      <trkpt lat="45.20049" lon="5.72429">
        <ele>450.4</ele>
        <time>2015-08-22T23:52:25Z</time>
      </trkpt>
      <trkpt lat="45.20036" lon="5.72427">
        <ele>448.7</ele>
        <time>2015-08-22T23:52:31Z</time>
      </trkpt>
      <trkpt lat="45.20023" lon="5.72426">
        <ele>449.1</ele>
        <time>2015-08-22T23:52:37Z</time>
      </trkpt>
      <trkpt lat="45.20011" lon="5.72425">
        <ele>449.1</ele>
        <time>2015-08-22T23:52:42Z</time>
      </trkpt>
      <trkpt lat="45.19996" lon="5.72423">
        <ele>449.2</ele>
        <time>2015-08-22T23:52:49Z</time>
      </trkpt>
      <trkpt lat="45.19982" lon="5.72424">
        <ele>450.3</ele>
        <time>2015-08-22T23:52:55Z</time>
      </trkpt>
      <trkpt lat="45.19974" lon="5.72425">
        <ele>451.4</ele>
        <time>2015-08-22T23:52:59Z</time>
      </trkpt>
      <trkpt lat="45.19958" lon="5.72425">
        <ele>452.6</ele>
        <time>2015-08-22T23:53:06Z</time>
      </trkpt>
      <trkpt lat="45.19943" lon="5.72426">
        <ele>449.8</ele>
        <time>2015-08-22T23:53:12Z</time>
      </trkpt>
      <trkpt lat="45.19931" lon="5.72427">
        <ele>448.2</ele>
        <time>2015-08-22T23:53:17Z</time>
      </trkpt>
      <trkpt lat="45.19919" lon="5.72434">
        <ele>448.7</ele>
        <time>2015-08-22T23:53:24Z</time>
      </trkpt>
      <trkpt lat="45.1991" lon="5.72438">
        <ele>449</ele>
        <time>2015-08-22T23:53:30Z</time>
      </trkpt>
      <trkpt lat="45.19903" lon="5.72442">
        <ele>448.9</ele>
        <time>2015-08-22T23:53:34Z</time>
      </trkpt>
      <trkpt lat="45.199" lon="5.72444">
        <ele>448.8</ele>
        <time>2015-08-22T23:53:36Z</time>
      </trkpt>
      <trkpt lat="45.19898" lon="5.72446">
        <ele>449.2</ele>
        <time>2015-08-22T23:53:37Z</time>
      </trkpt>
      <trkpt lat="45.19896" lon="5.7245">
        <ele>450.2</ele>
        <time>2015-08-22T23:53:40Z</time>
      </trkpt>
      <trkpt lat="45.19896" lon="5.72451">
        <ele>450.9</ele>
        <time>2015-08-22T23:53:41Z</time>
      </trkpt>
      <trkpt lat="45.19897" lon="5.72455">
        <ele>452.6</ele>
        <time>2015-08-22T23:53:43Z</time>
      </trkpt>
      <trkpt lat="45.19897" lon="5.72457">
        <ele>453.4</ele>
        <time>2015-08-22T23:53:44Z</time>
      </trkpt>
      <trkpt lat="45.19896" lon="5.72473">
        <ele>455.9</ele>
        <time>2015-08-22T23:53:49Z</time>
      </trkpt>
      <trkpt lat="45.19895" lon="5.72479">
        <ele>456.4</ele>
        <time>2015-08-22T23:53:50Z</time>
      </trkpt>
      <trkpt lat="45.19888" lon="5.72486">
        <ele>455.7</ele>
        <time>2015-08-22T23:53:54Z</time>
      </trkpt>
      <trkpt lat="45.19877" lon="5.72492">
        <ele>453.5</ele>
        <time>2015-08-22T23:53:59Z</time>
      </trkpt>
      <trkpt lat="45.19866" lon="5.72504">
        <ele>448.7</ele>
        <time>2015-08-22T23:54:06Z</time>
      </trkpt>
      <trkpt lat="45.19864" lon="5.72519">
        <ele>449.2</ele>
        <time>2015-08-22T23:54:11Z</time>
      </trkpt>
      <trkpt lat="45.19864" lon="5.72536">
        <ele>451.9</ele>
        <time>2015-08-22T23:54:17Z</time>
      </trkpt>
      <trkpt lat="45.19866" lon="5.72549">
        <ele>453.3</ele>
        <time>2015-08-22T23:54:22Z</time>
      </trkpt>
      <trkpt lat="45.19865" lon="5.72551">
        <ele>452.8</ele>
        <time>2015-08-22T23:54:23Z</time>
      </trkpt>
      <trkpt lat="45.19862" lon="5.72551">
        <ele>450.6</ele>
        <time>2015-08-22T23:54:26Z</time>
      </trkpt>
      <trkpt lat="45.1986" lon="5.72545">
        <ele>449.4</ele>
        <time>2015-08-22T23:54:29Z</time>
      </trkpt>
      <trkpt lat="45.1986" lon="5.72542">
        <ele>449.6</ele>
        <time>2015-08-22T23:54:30Z</time>
      </trkpt>
      <trkpt lat="45.1986" lon="5.7254">
        <ele>449.4</ele>
        <time>2015-08-22T23:54:31Z</time>
      </trkpt>
      <trkpt lat="45.1986" lon="5.72524">
        <ele>447.1</ele>
        <time>2015-08-22T23:54:38Z</time>
      </trkpt>
      <trkpt lat="45.19857" lon="5.72513">
        <ele>443.8</ele>
        <time>2015-08-22T23:54:42Z</time>
      </trkpt>
      <trkpt lat="45.19856" lon="5.72511">
        <ele>443</ele>
        <time>2015-08-22T23:54:43Z</time>
      </trkpt>
      <trkpt lat="45.19854" lon="5.72489">
        <ele>438.7</ele>
        <time>2015-08-22T23:54:49Z</time>
      </trkpt>
      <trkpt lat="45.19851" lon="5.7247">
        <ele>433.7</ele>
        <time>2015-08-22T23:54:55Z</time>
      </trkpt>
      <trkpt lat="45.19848" lon="5.72459">
        <ele>430.5</ele>
        <time>2015-08-22T23:54:59Z</time>
      </trkpt>
      <trkpt lat="45.19846" lon="5.72442">
        <ele>424.3</ele>
        <time>2015-08-22T23:55:05Z</time>
      </trkpt>
      <trkpt lat="45.19844" lon="5.72441">
        <ele>422.8</ele>
        <time>2015-08-22T23:55:06Z</time>
      </trkpt>
      <trkpt lat="45.19838" lon="5.72449">
        <ele>421.5</ele>
        <time>2015-08-22T23:55:10Z</time>
      </trkpt>
      <trkpt lat="45.19838" lon="5.72452">
        <ele>421.9</ele>
        <time>2015-08-22T23:55:11Z</time>
      </trkpt>
      <trkpt lat="45.19837" lon="5.72467">
        <ele>424.3</ele>
        <time>2015-08-22T23:55:16Z</time>
      </trkpt>
      <trkpt lat="45.19834" lon="5.72475">
        <ele>423.8</ele>
        <time>2015-08-22T23:55:20Z</time>
      </trkpt>
      <trkpt lat="45.19834" lon="5.72478">
        <ele>424.2</ele>
        <time>2015-08-22T23:55:21Z</time>
      </trkpt>
      <trkpt lat="45.19834" lon="5.72491">
        <ele>425.4</ele>
        <time>2015-08-22T23:55:26Z</time>
      </trkpt>
      <trkpt lat="45.19833" lon="5.72501">
        <ele>426.3</ele>
        <time>2015-08-22T23:55:30Z</time>
      </trkpt>
      <trkpt lat="45.19832" lon="5.72505">
        <ele>426.1</ele>
        <time>2015-08-22T23:55:31Z</time>
      </trkpt>
      <trkpt lat="45.19829" lon="5.72518">
        <ele>425.4</ele>
        <time>2015-08-22T23:55:36Z</time>
      </trkpt>
      <trkpt lat="45.19829" lon="5.72533">
        <ele>427.3</ele>
        <time>2015-08-22T23:55:42Z</time>
      </trkpt>
      <trkpt lat="45.19828" lon="5.72546">
        <ele>428.2</ele>
        <time>2015-08-22T23:55:47Z</time>
      </trkpt>
      <trkpt lat="45.1983" lon="5.72559">
        <ele>430.1</ele>
        <time>2015-08-22T23:55:52Z</time>
      </trkpt>
      <trkpt lat="45.19832" lon="5.72571">
        <ele>431.9</ele>
        <time>2015-08-22T23:55:56Z</time>
      </trkpt>
      <trkpt lat="45.19832" lon="5.72578">
        <ele>431.8</ele>
        <time>2015-08-22T23:55:59Z</time>
      </trkpt>
      <trkpt lat="45.19833" lon="5.72583">
        <ele>432.6</ele>
        <time>2015-08-22T23:56:01Z</time>
      </trkpt>
      <trkpt lat="45.19834" lon="5.726">
        <ele>433.7</ele>
        <time>2015-08-22T23:56:06Z</time>
      </trkpt>
      <trkpt lat="45.19834" lon="5.72604">
        <ele>434.3</ele>
        <time>2015-08-22T23:56:07Z</time>
      </trkpt>
      <trkpt lat="45.19841" lon="5.72624">
        <ele>438.2</ele>
        <time>2015-08-22T23:56:13Z</time>
      </trkpt>
      <trkpt lat="45.19849" lon="5.7264">
        <ele>439.8</ele>
        <time>2015-08-22T23:56:19Z</time>
      </trkpt>
      <trkpt lat="45.19851" lon="5.72657">
        <ele>438</ele>
        <time>2015-08-22T23:56:24Z</time>
      </trkpt>
      <trkpt lat="45.19855" lon="5.72667">
        <ele>438.2</ele>
        <time>2015-08-22T23:56:28Z</time>
      </trkpt>
      <trkpt lat="45.19855" lon="5.72669">
        <ele>438.4</ele>
        <time>2015-08-22T23:56:29Z</time>
      </trkpt>
      <trkpt lat="45.19861" lon="5.72681">
        <ele>439</ele>
        <time>2015-08-22T23:56:35Z</time>
      </trkpt>
      <trkpt lat="45.1986" lon="5.72689">
        <ele>437.6</ele>
        <time>2015-08-22T23:56:38Z</time>
      </trkpt>
      <trkpt lat="45.1986" lon="5.72689">
        <ele>437.5</ele>
        <time>2015-08-22T23:56:40Z</time>
      </trkpt>
      <trkpt lat="45.19857" lon="5.72685">
        <ele>436.7</ele>
        <time>2015-08-22T23:56:42Z</time>
      </trkpt>
      <trkpt lat="45.19856" lon="5.72683">
        <ele>436.4</ele>
        <time>2015-08-22T23:56:43Z</time>
      </trkpt>
      <trkpt lat="45.19855" lon="5.72682">
        <ele>435.7</ele>
        <time>2015-08-22T23:56:44Z</time>
      </trkpt>
      <trkpt lat="45.19851" lon="5.72675">
        <ele>434.9</ele>
        <time>2015-08-22T23:56:47Z</time>
      </trkpt>
      <trkpt lat="45.19845" lon="5.72669">
        <ele>433</ele>
        <time>2015-08-22T23:56:50Z</time>
      </trkpt>
      <trkpt lat="45.19842" lon="5.72666">
        <ele>432.2</ele>
        <time>2015-08-22T23:56:52Z</time>
      </trkpt>
      <trkpt lat="45.19837" lon="5.72658">
        <ele>430.8</ele>
        <time>2015-08-22T23:56:55Z</time>
      </trkpt>
      <trkpt lat="45.19836" lon="5.72655">
        <ele>430.6</ele>
        <time>2015-08-22T23:56:56Z</time>
      </trkpt>
      <trkpt lat="45.19826" lon="5.72646">
        <ele>427.1</ele>
        <time>2015-08-22T23:57:01Z</time>
      </trkpt>
      <trkpt lat="45.19824" lon="5.72644">
        <ele>426.6</ele>
        <time>2015-08-22T23:57:02Z</time>
      </trkpt>
      <trkpt lat="45.19815" lon="5.72635">
        <ele>423.7</ele>
        <time>2015-08-22T23:57:06Z</time>
      </trkpt>
      <trkpt lat="45.19806" lon="5.72626">
        <ele>420.9</ele>
        <time>2015-08-22T23:57:12Z</time>
      </trkpt>
      <trkpt lat="45.198" lon="5.72619">
        <ele>417.2</ele>
        <time>2015-08-22T23:57:16Z</time>
      </trkpt>
      <trkpt lat="45.19791" lon="5.72605">
        <ele>411.3</ele>
        <time>2015-08-22T23:57:23Z</time>
      </trkpt>
      <trkpt lat="45.1979" lon="5.72593">
        <ele>409.2</ele>
        <time>2015-08-22T23:57:28Z</time>
      </trkpt>
      <trkpt lat="45.1979" lon="5.72582">
        <ele>407.7</ele>
        <time>2015-08-22T23:57:33Z</time>
      </trkpt>
      <trkpt lat="45.1979" lon="5.7258">
        <ele>407.2</ele>
        <time>2015-08-22T23:57:34Z</time>
      </trkpt>
      <trkpt lat="45.19788" lon="5.72571">
        <ele>405.3</ele>
        <time>2015-08-22T23:57:38Z</time>
      </trkpt>
      <trkpt lat="45.1979" lon="5.72559">
        <ele>404.6</ele>
        <time>2015-08-22T23:57:43Z</time>
      </trkpt>
      <trkpt lat="45.1979" lon="5.72558">
        <ele>404.6</ele>
        <time>2015-08-22T23:57:44Z</time>
      </trkpt>
      <trkpt lat="45.19792" lon="5.72547">
        <ele>404.3</ele>
        <time>2015-08-22T23:57:49Z</time>
      </trkpt>
      <trkpt lat="45.19792" lon="5.72536">
        <ele>402.9</ele>
        <time>2015-08-22T23:57:54Z</time>
      </trkpt>
      <trkpt lat="45.19793" lon="5.72531">
        <ele>402.6</ele>
        <time>2015-08-22T23:57:57Z</time>
      </trkpt>
      <trkpt lat="45.19789" lon="5.72528">
        <ele>400.3</ele>
        <time>2015-08-22T23:57:59Z</time>
      </trkpt>
      <trkpt lat="45.19783" lon="5.72533">
        <ele>398.5</ele>
        <time>2015-08-22T23:58:04Z</time>
      </trkpt>
      <trkpt lat="45.19783" lon="5.72545">
        <ele>399.8</ele>
        <time>2015-08-22T23:58:10Z</time>
      </trkpt>
      <trkpt lat="45.19783" lon="5.72555">
        <ele>401</ele>
        <time>2015-08-22T23:58:15Z</time>
      </trkpt>
      <trkpt lat="45.19783" lon="5.72556">
        <ele>401.1</ele>
        <time>2015-08-22T23:58:16Z</time>
      </trkpt>
      <trkpt lat="45.19783" lon="5.72559">
        <ele>401.5</ele>
        <time>2015-08-22T23:58:18Z</time>
      </trkpt>
      <trkpt lat="45.19782" lon="5.72567">
        <ele>401.9</ele>
        <time>2015-08-22T23:58:22Z</time>
      </trkpt>
      <trkpt lat="45.1978" lon="5.72574">
        <ele>402.1</ele>
        <time>2015-08-22T23:58:25Z</time>
      </trkpt>
      <trkpt lat="45.19776" lon="5.72573">
        <ele>400.3</ele>
        <time>2015-08-22T23:58:27Z</time>
      </trkpt>
      <trkpt lat="45.19771" lon="5.72565">
        <ele>397</ele>
        <time>2015-08-22T23:58:32Z</time>
      </trkpt>
      <trkpt lat="45.19771" lon="5.72562">
        <ele>396.6</ele>
        <time>2015-08-22T23:58:33Z</time>
      </trkpt>
      <trkpt lat="45.19769" lon="5.72546">
        <ele>394.2</ele>
        <time>2015-08-22T23:58:40Z</time>
      </trkpt>
      <trkpt lat="45.1977" lon="5.72533">
        <ele>392.9</ele>
        <time>2015-08-22T23:58:46Z</time>
      </trkpt>
      <trkpt lat="45.19769" lon="5.7253">
        <ele>392.5</ele>
        <time>2015-08-22T23:58:47Z</time>
      </trkpt>
      <trkpt lat="45.19769" lon="5.72519">
        <ele>390.9</ele>
        <time>2015-08-22T23:58:51Z</time>
      </trkpt>
      <trkpt lat="45.19775" lon="5.72509">
        <ele>392.4</ele>
        <time>2015-08-22T23:58:56Z</time>
      </trkpt>
      <trkpt lat="45.19778" lon="5.72502">
        <ele>392.5</ele>
        <time>2015-08-22T23:58:59Z</time>
      </trkpt>
      <trkpt lat="45.19776" lon="5.725">
        <ele>391.4</ele>
        <time>2015-08-22T23:59:01Z</time>
      </trkpt>
      <trkpt lat="45.19769" lon="5.72507">
        <ele>389.1</ele>
        <time>2015-08-22T23:59:05Z</time>
      </trkpt>
      <trkpt lat="45.1976" lon="5.72518">
        <ele>386.6</ele>
        <time>2015-08-22T23:59:10Z</time>
      </trkpt>
      <trkpt lat="45.19757" lon="5.72523">
        <ele>386.2</ele>
        <time>2015-08-22T23:59:12Z</time>
      </trkpt>
      <trkpt lat="45.19757" lon="5.7253">
        <ele>387.1</ele>
        <time>2015-08-22T23:59:15Z</time>
      </trkpt>
      <trkpt lat="45.19756" lon="5.72543">
        <ele>388.8</ele>
        <time>2015-08-22T23:59:20Z</time>
      </trkpt>
      <trkpt lat="45.19761" lon="5.72561">
        <ele>392.1</ele>
        <time>2015-08-22T23:59:27Z</time>
      </trkpt>
      <trkpt lat="45.19762" lon="5.72574">
        <ele>393.8</ele>
        <time>2015-08-22T23:59:33Z</time>
      </trkpt>
      <trkpt lat="45.19764" lon="5.72591">
        <ele>396.5</ele>
        <time>2015-08-22T23:59:40Z</time>
      </trkpt>
      <trkpt lat="45.19767" lon="5.72609">
        <ele>399.5</ele>
        <time>2015-08-22T23:59:46Z</time>
      </trkpt>
      <trkpt lat="45.19768" lon="5.72625">
        <ele>401.6</ele>
        <time>2015-08-22T23:59:52Z</time>
      </trkpt>
      <trkpt lat="45.19773" lon="5.72641">
        <ele>400.8</ele>
        <time>2015-08-22T23:59:58Z</time>
      </trkpt>
      <trkpt lat="45.19779" lon="5.72654">
        <ele>401.9</ele>
        <time>2015-08-23T00:00:03Z</time>
      </trkpt>
      <trkpt lat="45.19785" lon="5.72668">
        <ele>402.6</ele>
        <time>2015-08-23T00:00:09Z</time>
      </trkpt>
      <trkpt lat="45.19793" lon="5.7268">
        <ele>404.7</ele>
        <time>2015-08-23T00:00:15Z</time>
      </trkpt>
      <trkpt lat="45.19801" lon="5.72689">
        <ele>407.4</ele>
        <time>2015-08-23T00:00:21Z</time>
      </trkpt>
      <trkpt lat="45.19811" lon="5.72696">
        <ele>411.1</ele>
        <time>2015-08-23T00:00:27Z</time>
      </trkpt>
      <trkpt lat="45.19821" lon="5.72702">
        <ele>415.1</ele>
        <time>2015-08-23T00:00:32Z</time>
      </trkpt>
      <trkpt lat="45.1983" lon="5.72712">
        <ele>417.4</ele>
        <time>2015-08-23T00:00:38Z</time>
      </trkpt>
      <trkpt lat="45.19837" lon="5.72727">
        <ele>414.2</ele>
        <time>2015-08-23T00:00:45Z</time>
      </trkpt>
      <trkpt lat="45.19844" lon="5.72742">
        <ele>411.9</ele>
        <time>2015-08-23T00:00:51Z</time>
      </trkpt>
      <trkpt lat="45.19846" lon="5.72743">
        <ele>413.1</ele>
        <time>2015-08-23T00:00:52Z</time>
      </trkpt>
      <trkpt lat="45.19852" lon="5.72742">
        <ele>417.1</ele>
        <time>2015-08-23T00:00:55Z</time>
      </trkpt>
      <trkpt lat="45.19867" lon="5.72751">
        <ele>422.6</ele>
        <time>2015-08-23T00:01:13Z</time>
      </trkpt>
      <trkpt lat="45.19868" lon="5.72755">
        <ele>421.6</ele>
        <time>2015-08-23T00:01:14Z</time>
      </trkpt>
      <trkpt lat="45.19862" lon="5.72762">
        <ele>415.3</ele>
        <time>2015-08-23T00:01:18Z</time>
      </trkpt>
      <trkpt lat="45.19861" lon="5.72759">
        <ele>415.7</ele>
        <time>2015-08-23T00:01:20Z</time>
      </trkpt>
      <trkpt lat="45.1986" lon="5.72758">
        <ele>415.2</ele>
        <time>2015-08-23T00:01:24Z</time>
      </trkpt>
      <trkpt lat="45.1986" lon="5.72757">
        <ele>415.7</ele>
        <time>2015-08-23T00:01:26Z</time>
      </trkpt>
      <trkpt lat="45.19858" lon="5.7276">
        <ele>413.5</ele>
        <time>2015-08-23T00:01:28Z</time>
      </trkpt>
      <trkpt lat="45.1986" lon="5.72765">
        <ele>412.8</ele>
        <time>2015-08-23T00:01:32Z</time>
      </trkpt>
      <trkpt lat="45.19895" lon="5.72772">
        <ele>425.1</ele>
        <time>2015-08-23T00:02:02Z</time>
      </trkpt>
      <trkpt lat="45.19886" lon="5.7276">
        <ele>427</ele>
        <time>2015-08-23T00:02:03Z</time>
      </trkpt>
      <trkpt lat="45.19867" lon="5.72762">
        <ele>418.2</ele>
        <time>2015-08-23T00:02:08Z</time>
      </trkpt>
      <trkpt lat="45.19865" lon="5.72762">
        <ele>417</ele>
        <time>2015-08-23T00:02:09Z</time>
      </trkpt>
      <trkpt lat="45.19861" lon="5.72759">
        <ele>415.9</ele>
        <time>2015-08-23T00:02:15Z</time>
      </trkpt>
      <trkpt lat="45.1986" lon="5.7276">
        <ele>414.8</ele>
        <time>2015-08-23T00:02:20Z</time>
      </trkpt>
      <trkpt lat="45.19865" lon="5.72763">
        <ele>417</ele>
        <time>2015-08-23T00:02:23Z</time>
      </trkpt>
      <trkpt lat="45.19866" lon="5.72765">
        <ele>416.9</ele>
        <time>2015-08-23T00:02:24Z</time>
      </trkpt>
      <trkpt lat="45.19863" lon="5.72766">
        <ele>414.5</ele>
        <time>2015-08-23T00:02:28Z</time>
      </trkpt>
      <trkpt lat="45.1986" lon="5.72763">
        <ele>413.8</ele>
        <time>2015-08-23T00:02:30Z</time>
      </trkpt>
      <trkpt lat="45.19854" lon="5.7276">
        <ele>411.4</ele>
        <time>2015-08-23T00:02:33Z</time>
      </trkpt>
      <trkpt lat="45.19842" lon="5.72749">
        <ele>408.2</ele>
        <time>2015-08-23T00:02:39Z</time>
      </trkpt>
      <trkpt lat="45.19835" lon="5.72745">
        <ele>405.7</ele>
        <time>2015-08-23T00:02:43Z</time>
      </trkpt>
      <trkpt lat="45.1982" lon="5.7274">
        <ele>399.2</ele>
        <time>2015-08-23T00:02:50Z</time>
      </trkpt>
      <trkpt lat="45.19811" lon="5.72735">
        <ele>397</ele>
        <time>2015-08-23T00:02:55Z</time>
      </trkpt>
      <trkpt lat="45.19798" lon="5.72724">
        <ele>394.1</ele>
        <time>2015-08-23T00:03:02Z</time>
      </trkpt>
      <trkpt lat="45.19795" lon="5.72725">
        <ele>392.2</ele>
        <time>2015-08-23T00:03:03Z</time>
      </trkpt>
      <trkpt lat="45.19794" lon="5.7273">
        <ele>389.1</ele>
        <time>2015-08-23T00:03:06Z</time>
      </trkpt>
      <trkpt lat="45.19799" lon="5.72739">
        <ele>387.9</ele>
        <time>2015-08-23T00:03:10Z</time>
      </trkpt>
      <trkpt lat="45.19807" lon="5.72746">
        <ele>388.9</ele>
        <time>2015-08-23T00:03:15Z</time>
      </trkpt>
      <trkpt lat="45.19813" lon="5.72755">
        <ele>388.4</ele>
        <time>2015-08-23T00:03:19Z</time>
      </trkpt>
      <trkpt lat="45.19821" lon="5.7277">
        <ele>386.1</ele>
        <time>2015-08-23T00:03:26Z</time>
      </trkpt>
      <trkpt lat="45.19831" lon="5.7278">
        <ele>388.1</ele>
        <time>2015-08-23T00:03:32Z</time>
      </trkpt>
      <trkpt lat="45.19838" lon="5.72791">
        <ele>388.6</ele>
        <time>2015-08-23T00:03:38Z</time>
      </trkpt>
      <trkpt lat="45.19848" lon="5.72798">
        <ele>391</ele>
        <time>2015-08-23T00:03:44Z</time>
      </trkpt>
      <trkpt lat="45.19845" lon="5.728">
        <ele>388</ele>
        <time>2015-08-23T00:03:47Z</time>
      </trkpt>
      <trkpt lat="45.19843" lon="5.72801">
        <ele>386.5</ele>
        <time>2015-08-23T00:03:48Z</time>
      </trkpt>
      <trkpt lat="45.19836" lon="5.72795">
        <ele>384.9</ele>
        <time>2015-08-23T00:03:53Z</time>
      </trkpt>
      <trkpt lat="45.19834" lon="5.72794">
        <ele>384.2</ele>
        <time>2015-08-23T00:03:54Z</time>
      </trkpt>
      <trkpt lat="45.19824" lon="5.72788">
        <ele>380.5</ele>
        <time>2015-08-23T00:03:59Z</time>
      </trkpt>
      <trkpt lat="45.19818" lon="5.7278">
        <ele>379.8</ele>
        <time>2015-08-23T00:04:04Z</time>
      </trkpt>
      <trkpt lat="45.19808" lon="5.72775">
        <ele>376</ele>
        <time>2015-08-23T00:04:10Z</time>
      </trkpt>
      <trkpt lat="45.19803" lon="5.72774">
        <ele>372.7</ele>
        <time>2015-08-23T00:04:14Z</time>
      </trkpt>
      <trkpt lat="45.198" lon="5.72778">
        <ele>369.4</ele>
        <time>2015-08-23T00:04:16Z</time>
      </trkpt>
      <trkpt lat="45.19806" lon="5.72783">
        <ele>370.3</ele>
        <time>2015-08-23T00:04:20Z</time>
      </trkpt>
      <trkpt lat="45.19813" lon="5.72791">
        <ele>371.7</ele>
        <time>2015-08-23T00:04:25Z</time>
      </trkpt>
      <trkpt lat="45.19821" lon="5.72796">
        <ele>374.6</ele>
        <time>2015-08-23T00:04:30Z</time>
      </trkpt>
      <trkpt lat="45.19829" lon="5.72803">
        <ele>376.3</ele>
        <time>2015-08-23T00:04:35Z</time>
      </trkpt>
      <trkpt lat="45.19838" lon="5.72813">
        <ele>376.3</ele>
        <time>2015-08-23T00:04:42Z</time>
      </trkpt>
      <trkpt lat="45.1984" lon="5.72815">
        <ele>376.3</ele>
        <time>2015-08-23T00:04:43Z</time>
      </trkpt>
      <trkpt lat="45.19845" lon="5.72821">
        <ele>375.8</ele>
        <time>2015-08-23T00:04:47Z</time>
      </trkpt>
      <trkpt lat="45.19848" lon="5.72825">
        <ele>375.4</ele>
        <time>2015-08-23T00:04:51Z</time>
      </trkpt>
      <trkpt lat="45.19846" lon="5.72826">
        <ele>373.6</ele>
        <time>2015-08-23T00:04:52Z</time>
      </trkpt>
      <trkpt lat="45.1984" lon="5.72821">
        <ele>373.1</ele>
        <time>2015-08-23T00:04:57Z</time>
      </trkpt>
      <trkpt lat="45.19834" lon="5.72815">
        <ele>372.9</ele>
        <time>2015-08-23T00:05:01Z</time>
      </trkpt>
      <trkpt lat="45.1983" lon="5.72813">
        <ele>371.8</ele>
        <time>2015-08-23T00:05:03Z</time>
      </trkpt>
      <trkpt lat="45.19823" lon="5.72809">
        <ele>369.7</ele>
        <time>2015-08-23T00:05:08Z</time>
      </trkpt>
      <trkpt lat="45.19821" lon="5.72809">
        <ele>368.2</ele>
        <time>2015-08-23T00:05:10Z</time>
      </trkpt>
      <trkpt lat="45.19822" lon="5.72814">
        <ele>366.3</ele>
        <time>2015-08-23T00:05:12Z</time>
      </trkpt>
      <trkpt lat="45.19829" lon="5.72822">
        <ele>366.3</ele>
        <time>2015-08-23T00:05:17Z</time>
      </trkpt>
      <trkpt lat="45.19835" lon="5.72826">
        <ele>367.3</ele>
        <time>2015-08-23T00:05:21Z</time>
      </trkpt>
      <trkpt lat="45.19835" lon="5.72828">
        <ele>366.5</ele>
        <time>2015-08-23T00:05:22Z</time>
      </trkpt>
      <trkpt lat="45.19836" lon="5.7283">
        <ele>365.8</ele>
        <time>2015-08-23T00:05:23Z</time>
      </trkpt>
      <trkpt lat="45.19836" lon="5.72832">
        <ele>365</ele>
        <time>2015-08-23T00:05:25Z</time>
      </trkpt>
      <trkpt lat="45.19834" lon="5.72833">
        <ele>363.1</ele>
        <time>2015-08-23T00:05:27Z</time>
      </trkpt>
      <trkpt lat="45.19829" lon="5.7283">
        <ele>362.2</ele>
        <time>2015-08-23T00:05:30Z</time>
      </trkpt>
      <trkpt lat="45.19826" lon="5.72827">
        <ele>361.7</ele>
        <time>2015-08-23T00:05:33Z</time>
      </trkpt>
      <trkpt lat="45.19822" lon="5.72825">
        <ele>360.6</ele>
        <time>2015-08-23T00:05:35Z</time>
      </trkpt>
      <trkpt lat="45.19815" lon="5.72821">
        <ele>358.8</ele>
        <time>2015-08-23T00:05:39Z</time>
      </trkpt>
      <trkpt lat="45.19813" lon="5.72819">
        <ele>358.6</ele>
        <time>2015-08-23T00:05:41Z</time>
      </trkpt>
      <trkpt lat="45.19808" lon="5.72813">
        <ele>358</ele>
        <time>2015-08-23T00:05:45Z</time>
      </trkpt>
      <trkpt lat="45.19799" lon="5.72804">
        <ele>356.7</ele>
        <time>2015-08-23T00:05:50Z</time>
      </trkpt>
      <trkpt lat="45.19797" lon="5.72804">
        <ele>355.5</ele>
        <time>2015-08-23T00:05:51Z</time>
      </trkpt>
      <trkpt lat="45.19798" lon="5.72811">
        <ele>353.3</ele>
        <time>2015-08-23T00:05:54Z</time>
      </trkpt>
      <trkpt lat="45.19808" lon="5.72822">
        <ele>354.1</ele>
        <time>2015-08-23T00:05:59Z</time>
      </trkpt>
      <trkpt lat="45.19812" lon="5.72831">
        <ele>352.1</ele>
        <time>2015-08-23T00:06:03Z</time>
      </trkpt>
      <trkpt lat="45.1982" lon="5.72838">
        <ele>353.4</ele>
        <time>2015-08-23T00:06:08Z</time>
      </trkpt>
      <trkpt lat="45.19825" lon="5.72841">
        <ele>354.3</ele>
        <time>2015-08-23T00:06:10Z</time>
      </trkpt>
      <trkpt lat="45.19826" lon="5.72844">
        <ele>353.2</ele>
        <time>2015-08-23T00:06:13Z</time>
      </trkpt>
      <trkpt lat="45.19824" lon="5.72844">
        <ele>352.3</ele>
        <time>2015-08-23T00:06:14Z</time>
      </trkpt>
      <trkpt lat="45.1982" lon="5.72842">
        <ele>351.6</ele>
        <time>2015-08-23T00:06:17Z</time>
      </trkpt>
      <trkpt lat="45.19815" lon="5.72837">
        <ele>351.1</ele>
        <time>2015-08-23T00:06:21Z</time>
      </trkpt>
      <trkpt lat="45.19814" lon="5.72837">
        <ele>350.7</ele>
        <time>2015-08-23T00:06:22Z</time>
      </trkpt>
      <trkpt lat="45.19802" lon="5.72826">
        <ele>349</ele>
        <time>2015-08-23T00:06:29Z</time>
      </trkpt>
      <trkpt lat="45.19794" lon="5.7282">
        <ele>346.9</ele>
        <time>2015-08-23T00:06:33Z</time>
      </trkpt>
      <trkpt lat="45.19792" lon="5.7282">
        <ele>345.6</ele>
        <time>2015-08-23T00:06:34Z</time>
      </trkpt>
      <trkpt lat="45.1978" lon="5.72815">
        <ele>342</ele>
        <time>2015-08-23T00:06:39Z</time>
      </trkpt>
      <trkpt lat="45.19777" lon="5.72814">
        <ele>340.6</ele>
        <time>2015-08-23T00:06:40Z</time>
      </trkpt>
      <trkpt lat="45.19769" lon="5.72808">
        <ele>338.6</ele>
        <time>2015-08-23T00:06:44Z</time>
      </trkpt>
      <trkpt lat="45.19767" lon="5.72807">
        <ele>337.8</ele>
        <time>2015-08-23T00:06:45Z</time>
      </trkpt>
      <trkpt lat="45.19761" lon="5.72798">
        <ele>338.1</ele>
        <time>2015-08-23T00:06:48Z</time>
      </trkpt>
      <trkpt lat="45.1976" lon="5.72796">
        <ele>338</ele>
        <time>2015-08-23T00:06:49Z</time>
      </trkpt>
      <trkpt lat="45.19759" lon="5.72801">
        <ele>335.5</ele>
        <time>2015-08-23T00:06:51Z</time>
      </trkpt>
      <trkpt lat="45.19759" lon="5.72806">
        <ele>334.2</ele>
        <time>2015-08-23T00:06:52Z</time>
      </trkpt>
      <trkpt lat="45.19765" lon="5.72819">
        <ele>332.5</ele>
        <time>2015-08-23T00:06:57Z</time>
      </trkpt>
      <trkpt lat="45.19767" lon="5.72821">
        <ele>333.1</ele>
        <time>2015-08-23T00:06:58Z</time>
      </trkpt>
      <trkpt lat="45.19773" lon="5.72828">
        <ele>333.4</ele>
        <time>2015-08-23T00:07:02Z</time>
      </trkpt>
      <trkpt lat="45.19783" lon="5.72842">
        <ele>332.7</ele>
        <time>2015-08-23T00:07:08Z</time>
      </trkpt>
      <trkpt lat="45.19792" lon="5.72847">
        <ele>335.1</ele>
        <time>2015-08-23T00:07:13Z</time>
      </trkpt>
      <trkpt lat="45.198" lon="5.72859">
        <ele>334.1</ele>
        <time>2015-08-23T00:07:19Z</time>
      </trkpt>
      <trkpt lat="45.19803" lon="5.72862">
        <ele>334.1</ele>
        <time>2015-08-23T00:07:21Z</time>
      </trkpt>
      <trkpt lat="45.19805" lon="5.72867">
        <ele>332.8</ele>
        <time>2015-08-23T00:07:23Z</time>
      </trkpt>
      <trkpt lat="45.19806" lon="5.72871">
        <ele>331.5</ele>
        <time>2015-08-23T00:07:25Z</time>
      </trkpt>
      <trkpt lat="45.19806" lon="5.72876">
        <ele>329.4</ele>
        <time>2015-08-23T00:07:27Z</time>
      </trkpt>
      <trkpt lat="45.19803" lon="5.72881">
        <ele>327</ele>
        <time>2015-08-23T00:07:32Z</time>
      </trkpt>
      <trkpt lat="45.19803" lon="5.72877">
        <ele>327.8</ele>
        <time>2015-08-23T00:07:34Z</time>
      </trkpt>
      <trkpt lat="45.19803" lon="5.72876">
        <ele>328</ele>
        <time>2015-08-23T00:07:35Z</time>
      </trkpt>
      <trkpt lat="45.19797" lon="5.72868">
        <ele>328.8</ele>
        <time>2015-08-23T00:07:40Z</time>
      </trkpt>
      <trkpt lat="45.19786" lon="5.72862">
        <ele>326.6</ele>
        <time>2015-08-23T00:07:45Z</time>
      </trkpt>
      <trkpt lat="45.19774" lon="5.72855">
        <ele>323.7</ele>
        <time>2015-08-23T00:07:51Z</time>
      </trkpt>
      <trkpt lat="45.19764" lon="5.72846">
        <ele>322.1</ele>
        <time>2015-08-23T00:07:57Z</time>
      </trkpt>
      <trkpt lat="45.19755" lon="5.72836">
        <ele>321.2</ele>
        <time>2015-08-23T00:08:02Z</time>
      </trkpt>
      <trkpt lat="45.19749" lon="5.7283">
        <ele>320.6</ele>
        <time>2015-08-23T00:08:05Z</time>
      </trkpt>
      <trkpt lat="45.1975" lon="5.72838">
        <ele>318.3</ele>
        <time>2015-08-23T00:08:07Z</time>
      </trkpt>
      <trkpt lat="45.19751" lon="5.7284">
        <ele>318.3</ele>
        <time>2015-08-23T00:08:08Z</time>
      </trkpt>
      <trkpt lat="45.19755" lon="5.72849">
        <ele>317.1</ele>
        <time>2015-08-23T00:08:11Z</time>
      </trkpt>
      <trkpt lat="45.19755" lon="5.72849">
        <ele>317</ele>
        <time>2015-08-23T00:08:12Z</time>
      </trkpt>
      <trkpt lat="45.1976" lon="5.72854">
        <ele>317.5</ele>
        <time>2015-08-23T00:08:15Z</time>
      </trkpt>
      <trkpt lat="45.19765" lon="5.72864">
        <ele>316.6</ele>
        <time>2015-08-23T00:08:19Z</time>
      </trkpt>
      <trkpt lat="45.19769" lon="5.72873">
        <ele>314.8</ele>
        <time>2015-08-23T00:08:23Z</time>
      </trkpt>
      <trkpt lat="45.1977" lon="5.72878">
        <ele>313.9</ele>
        <time>2015-08-23T00:08:25Z</time>
      </trkpt>
      <trkpt lat="45.19775" lon="5.72885">
        <ele>314.1</ele>
        <time>2015-08-23T00:08:29Z</time>
      </trkpt>
      <trkpt lat="45.19777" lon="5.72887">
        <ele>314.4</ele>
        <time>2015-08-23T00:08:30Z</time>
      </trkpt>
      <trkpt lat="45.19779" lon="5.72893">
        <ele>314.1</ele>
        <time>2015-08-23T00:08:34Z</time>
      </trkpt>
      <trkpt lat="45.19788" lon="5.72907">
        <ele>314.3</ele>
        <time>2015-08-23T00:08:40Z</time>
      </trkpt>
      <trkpt lat="45.19796" lon="5.72917">
        <ele>314.6</ele>
        <time>2015-08-23T00:08:46Z</time>
      </trkpt>
      <trkpt lat="45.19796" lon="5.72917">
        <ele>314.4</ele>
        <time>2015-08-23T00:08:47Z</time>
      </trkpt>
      <trkpt lat="45.19794" lon="5.72916">
        <ele>314.2</ele>
        <time>2015-08-23T00:08:48Z</time>
      </trkpt>
      <trkpt lat="45.19791" lon="5.72914">
        <ele>313.8</ele>
        <time>2015-08-23T00:08:50Z</time>
      </trkpt>
      <trkpt lat="45.19779" lon="5.72905">
        <ele>310.7</ele>
        <time>2015-08-23T00:08:57Z</time>
      </trkpt>
      <trkpt lat="45.19764" lon="5.72894">
        <ele>307</ele>
        <time>2015-08-23T00:09:03Z</time>
      </trkpt>
      <trkpt lat="45.19753" lon="5.72888">
        <ele>303.9</ele>
        <time>2015-08-23T00:09:09Z</time>
      </trkpt>
      <trkpt lat="45.19744" lon="5.72884">
        <ele>301</ele>
        <time>2015-08-23T00:09:14Z</time>
      </trkpt>
      <trkpt lat="45.19734" lon="5.72877">
        <ele>298.4</ele>
        <time>2015-08-23T00:09:19Z</time>
      </trkpt>
      <trkpt lat="45.19724" lon="5.7287">
        <ele>296.3</ele>
        <time>2015-08-23T00:09:24Z</time>
      </trkpt>
      <trkpt lat="45.19716" lon="5.72863">
        <ele>294.6</ele>
        <time>2015-08-23T00:09:29Z</time>
      </trkpt>
      <trkpt lat="45.19713" lon="5.72861">
        <ele>294</ele>
        <time>2015-08-23T00:09:30Z</time>
      </trkpt>
      <trkpt lat="45.19702" lon="5.72848">
        <ele>293.1</ele>
        <time>2015-08-23T00:09:36Z</time>
      </trkpt>
      <trkpt lat="45.19696" lon="5.72844">
        <ele>291.8</ele>
        <time>2015-08-23T00:09:42Z</time>
      </trkpt>
      <trkpt lat="45.19697" lon="5.72847">
        <ele>291.4</ele>
        <time>2015-08-23T00:09:43Z</time>
      </trkpt>
      <trkpt lat="45.197" lon="5.72855">
        <ele>290.3</ele>
        <time>2015-08-23T00:09:45Z</time>
      </trkpt>
      <trkpt lat="45.19701" lon="5.72858">
        <ele>289.9</ele>
        <time>2015-08-23T00:09:46Z</time>
      </trkpt>
      <trkpt lat="45.19706" lon="5.72873">
        <ele>287.8</ele>
        <time>2015-08-23T00:09:52Z</time>
      </trkpt>
      <trkpt lat="45.19707" lon="5.72876">
        <ele>287.2</ele>
        <time>2015-08-23T00:09:53Z</time>
      </trkpt>
      <trkpt lat="45.19712" lon="5.72891">
        <ele>285</ele>
        <time>2015-08-23T00:09:59Z</time>
      </trkpt>
      <trkpt lat="45.19719" lon="5.72903">
        <ele>284.6</ele>
        <time>2015-08-23T00:10:05Z</time>
      </trkpt>
      <trkpt lat="45.19725" lon="5.72915">
        <ele>284.1</ele>
        <time>2015-08-23T00:10:10Z</time>
      </trkpt>
      <trkpt lat="45.19728" lon="5.7292">
        <ele>283.9</ele>
        <time>2015-08-23T00:10:13Z</time>
      </trkpt>
      <trkpt lat="45.1973" lon="5.72927">
        <ele>282.8</ele>
        <time>2015-08-23T00:10:16Z</time>
      </trkpt>
      <trkpt lat="45.1974" lon="5.72938">
        <ele>284.4</ele>
        <time>2015-08-23T00:10:22Z</time>
      </trkpt>
      <trkpt lat="45.19746" lon="5.72953">
        <ele>283.4</ele>
        <time>2015-08-23T00:10:28Z</time>
      </trkpt>
      <trkpt lat="45.19751" lon="5.72959">
        <ele>283.4</ele>
        <time>2015-08-23T00:10:32Z</time>
      </trkpt>
      <trkpt lat="45.19754" lon="5.72962">
        <ele>284</ele>
        <time>2015-08-23T00:10:34Z</time>
      </trkpt>
      <trkpt lat="45.19763" lon="5.7297">
        <ele>284.3</ele>
        <time>2015-08-23T00:10:39Z</time>
      </trkpt>
      <trkpt lat="45.19766" lon="5.72981">
        <ele>281.2</ele>
        <time>2015-08-23T00:10:43Z</time>
      </trkpt>
      <trkpt lat="45.19776" lon="5.7299">
        <ele>281.5</ele>
        <time>2015-08-23T00:10:48Z</time>
      </trkpt>
      <trkpt lat="45.19786" lon="5.72999">
        <ele>281.2</ele>
        <time>2015-08-23T00:10:53Z</time>
      </trkpt>
      <trkpt lat="45.19796" lon="5.73004">
        <ele>281.7</ele>
        <time>2015-08-23T00:10:58Z</time>
      </trkpt>
      <trkpt lat="45.19807" lon="5.73011">
        <ele>280.5</ele>
        <time>2015-08-23T00:11:04Z</time>
      </trkpt>
      <trkpt lat="45.1981" lon="5.73012">
        <ele>280</ele>
        <time>2015-08-23T00:11:06Z</time>
      </trkpt>
      <trkpt lat="45.19806" lon="5.73012">
        <ele>279.5</ele>
        <time>2015-08-23T00:11:08Z</time>
      </trkpt>
      <trkpt lat="45.19797" lon="5.73011">
        <ele>278.5</ele>
        <time>2015-08-23T00:11:14Z</time>
      </trkpt>
      <trkpt lat="45.19791" lon="5.73009">
        <ele>278.4</ele>
        <time>2015-08-23T00:11:18Z</time>
      </trkpt>
      <trkpt lat="45.19782" lon="5.73006">
        <ele>276.4</ele>
        <time>2015-08-23T00:11:23Z</time>
      </trkpt>
      <trkpt lat="45.19776" lon="5.73003">
        <ele>275.2</ele>
        <time>2015-08-23T00:11:26Z</time>
      </trkpt>
      <trkpt lat="45.19774" lon="5.73004">
        <ele>274.6</ele>
        <time>2015-08-23T00:11:27Z</time>
      </trkpt>
      <trkpt lat="45.19771" lon="5.73006">
        <ele>272.2</ele>
        <time>2015-08-23T00:11:32Z</time>
      </trkpt>
      <trkpt lat="45.19779" lon="5.73013">
        <ele>272.1</ele>
        <time>2015-08-23T00:11:36Z</time>
      </trkpt>
      <trkpt lat="45.19782" lon="5.73017">
        <ele>271.3</ele>
        <time>2015-08-23T00:11:38Z</time>
      </trkpt>
      <trkpt lat="45.19788" lon="5.73022">
        <ele>271</ele>
        <time>2015-08-23T00:11:41Z</time>
      </trkpt>
      <trkpt lat="45.19799" lon="5.73029">
        <ele>270.1</ele>
        <time>2015-08-23T00:11:47Z</time>
      </trkpt>
      <trkpt lat="45.19806" lon="5.73039">
        <ele>266.6</ele>
        <time>2015-08-23T00:11:53Z</time>
      </trkpt>
      <trkpt lat="45.19801" lon="5.73036">
        <ele>267.1</ele>
        <time>2015-08-23T00:11:57Z</time>
      </trkpt>
      <trkpt lat="45.19799" lon="5.73035">
        <ele>267.5</ele>
        <time>2015-08-23T00:11:59Z</time>
      </trkpt>
      <trkpt lat="45.19793" lon="5.73034">
        <ele>266.9</ele>
        <time>2015-08-23T00:12:02Z</time>
      </trkpt>
      <trkpt lat="45.19784" lon="5.7303">
        <ele>266.3</ele>
        <time>2015-08-23T00:12:07Z</time>
      </trkpt>
      <trkpt lat="45.19776" lon="5.73028">
        <ele>264.3</ele>
        <time>2015-08-23T00:12:12Z</time>
      </trkpt>
      <trkpt lat="45.19764" lon="5.73025">
        <ele>261.5</ele>
        <time>2015-08-23T00:12:18Z</time>
      </trkpt>
      <trkpt lat="45.19762" lon="5.73029">
        <ele>259.5</ele>
        <time>2015-08-23T00:12:22Z</time>
      </trkpt>
      <trkpt lat="45.19765" lon="5.73031">
        <ele>259.3</ele>
        <time>2015-08-23T00:12:23Z</time>
      </trkpt>
      <trkpt lat="45.19769" lon="5.73034">
        <ele>259.1</ele>
        <time>2015-08-23T00:12:27Z</time>
      </trkpt>
      <trkpt lat="45.19775" lon="5.73039">
        <ele>258.8</ele>
        <time>2015-08-23T00:12:31Z</time>
      </trkpt>
      <trkpt lat="45.19778" lon="5.73043">
        <ele>258.3</ele>
        <time>2015-08-23T00:12:33Z</time>
      </trkpt>
      <trkpt lat="45.19781" lon="5.73044">
        <ele>258.7</ele>
        <time>2015-08-23T00:12:34Z</time>
      </trkpt>
      <trkpt lat="45.19785" lon="5.73046">
        <ele>259.4</ele>
        <time>2015-08-23T00:12:37Z</time>
      </trkpt>
      <trkpt lat="45.19797" lon="5.73049">
        <ele>261</ele>
        <time>2015-08-23T00:12:43Z</time>
      </trkpt>
      <trkpt lat="45.19799" lon="5.73052">
        <ele>260.3</ele>
        <time>2015-08-23T00:12:45Z</time>
      </trkpt>
      <trkpt lat="45.19796" lon="5.73055">
        <ele>258.6</ele>
        <time>2015-08-23T00:12:47Z</time>
      </trkpt>
      <trkpt lat="45.19792" lon="5.73055">
        <ele>257.9</ele>
        <time>2015-08-23T00:12:51Z</time>
      </trkpt>
      <trkpt lat="45.19791" lon="5.73054">
        <ele>258.2</ele>
        <time>2015-08-23T00:12:52Z</time>
      </trkpt>
      <trkpt lat="45.19784" lon="5.73051">
        <ele>257.1</ele>
        <time>2015-08-23T00:12:56Z</time>
      </trkpt>
      <trkpt lat="45.19779" lon="5.7305">
        <ele>255.9</ele>
        <time>2015-08-23T00:12:59Z</time>
      </trkpt>
      <trkpt lat="45.19772" lon="5.73047">
        <ele>254.8</ele>
        <time>2015-08-23T00:13:04Z</time>
      </trkpt>
      <trkpt lat="45.19758" lon="5.73046">
        <ele>251</ele>
        <time>2015-08-23T00:13:10Z</time>
      </trkpt>
      <trkpt lat="45.19753" lon="5.73051">
        <ele>248.4</ele>
        <time>2015-08-23T00:13:13Z</time>
      </trkpt>
      <trkpt lat="45.19755" lon="5.73056">
        <ele>247.2</ele>
        <time>2015-08-23T00:13:15Z</time>
      </trkpt>
      <trkpt lat="45.19764" lon="5.73058">
        <ele>249.2</ele>
        <time>2015-08-23T00:13:19Z</time>
      </trkpt>
      <trkpt lat="45.19772" lon="5.73063">
        <ele>249.6</ele>
        <time>2015-08-23T00:13:24Z</time>
      </trkpt>
      <trkpt lat="45.19781" lon="5.73069">
        <ele>249.8</ele>
        <time>2015-08-23T00:13:29Z</time>
      </trkpt>
      <trkpt lat="45.19789" lon="5.73077">
        <ele>248.3</ele>
        <time>2015-08-23T00:13:34Z</time>
      </trkpt>
      <trkpt lat="45.19795" lon="5.73081">
        <ele>248.3</ele>
        <time>2015-08-23T00:13:38Z</time>
      </trkpt>
      <trkpt lat="45.19804" lon="5.73089">
        <ele>247.3</ele>
        <time>2015-08-23T00:13:44Z</time>
      </trkpt>
      <trkpt lat="45.19804" lon="5.73089">
        <ele>247.2</ele>
        <time>2015-08-23T00:13:45Z</time>
      </trkpt>
      <trkpt lat="45.19802" lon="5.73089">
        <ele>246.8</ele>
        <time>2015-08-23T00:13:47Z</time>
      </trkpt>
      <trkpt lat="45.198" lon="5.73089">
        <ele>246.3</ele>
        <time>2015-08-23T00:13:48Z</time>
      </trkpt>
      <trkpt lat="45.19798" lon="5.73088">
        <ele>246.2</ele>
        <time>2015-08-23T00:13:50Z</time>
      </trkpt>
      <trkpt lat="45.19794" lon="5.73087">
        <ele>245.7</ele>
        <time>2015-08-23T00:13:52Z</time>
      </trkpt>
      <trkpt lat="45.19785" lon="5.73087">
        <ele>243.9</ele>
        <time>2015-08-23T00:13:57Z</time>
      </trkpt>
      <trkpt lat="45.19782" lon="5.73085">
        <ele>243.9</ele>
        <time>2015-08-23T00:13:58Z</time>
      </trkpt>
      <trkpt lat="45.19779" lon="5.73086">
        <ele>243.2</ele>
        <time>2015-08-23T00:13:59Z</time>
      </trkpt>
      <trkpt lat="45.19772" lon="5.73085">
        <ele>242</ele>
        <time>2015-08-23T00:14:03Z</time>
      </trkpt>
      <trkpt lat="45.19762" lon="5.73087">
        <ele>239.4</ele>
        <time>2015-08-23T00:14:08Z</time>
      </trkpt>
      <trkpt lat="45.19762" lon="5.73091">
        <ele>238.1</ele>
        <time>2015-08-23T00:14:09Z</time>
      </trkpt>
      <trkpt lat="45.19765" lon="5.73094">
        <ele>237.6</ele>
        <time>2015-08-23T00:14:12Z</time>
      </trkpt>
      <trkpt lat="45.19772" lon="5.73098">
        <ele>237.5</ele>
        <time>2015-08-23T00:14:17Z</time>
      </trkpt>
      <trkpt lat="45.19779" lon="5.73103">
        <ele>236.8</ele>
        <time>2015-08-23T00:14:22Z</time>
      </trkpt>
      <trkpt lat="45.19804" lon="5.73115">
        <ele>237.3</ele>
        <time>2015-08-23T00:14:28Z</time>
      </trkpt>
      <trkpt lat="45.19811" lon="5.73118">
        <ele>238.6</ele>
        <time>2015-08-23T00:14:31Z</time>
      </trkpt>
      <trkpt lat="45.19809" lon="5.7312">
        <ele>237</ele>
        <time>2015-08-23T00:14:33Z</time>
      </trkpt>
      <trkpt lat="45.19804" lon="5.73123">
        <ele>234.7</ele>
        <time>2015-08-23T00:14:35Z</time>
      </trkpt>
      <trkpt lat="45.19792" lon="5.73125">
        <ele>230.1</ele>
        <time>2015-08-23T00:14:40Z</time>
      </trkpt>
      <trkpt lat="45.19784" lon="5.73136">
        <ele>228.3</ele>
        <time>2015-08-23T00:14:45Z</time>
      </trkpt>
      <trkpt lat="45.1978" lon="5.73152">
        <ele>226.2</ele>
        <time>2015-08-23T00:14:51Z</time>
      </trkpt>
      <trkpt lat="45.1978" lon="5.73166">
        <ele>224.8</ele>
        <time>2015-08-23T00:14:56Z</time>
      </trkpt>
      <trkpt lat="45.19775" lon="5.7318">
        <ele>223.1</ele>
        <time>2015-08-23T00:15:00Z</time>
      </trkpt>
      <trkpt lat="45.19763" lon="5.73182">
        <ele>222.2</ele>
        <time>2015-08-23T00:15:04Z</time>
      </trkpt>
      <trkpt lat="45.19756" lon="5.73177">
        <ele>222.2</ele>
        <time>2015-08-23T00:15:09Z</time>
      </trkpt>
      <trkpt lat="45.19749" lon="5.73166">
        <ele>222.7</ele>
        <time>2015-08-23T00:15:13Z</time>
      </trkpt>
      <trkpt lat="45.19746" lon="5.73163">
        <ele>222.8</ele>
        <time>2015-08-23T00:15:14Z</time>
      </trkpt>
      <trkpt lat="45.19734" lon="5.73156">
        <ele>222.5</ele>
        <time>2015-08-23T00:15:19Z</time>
      </trkpt>
      <trkpt lat="45.19718" lon="5.73147">
        <ele>222.1</ele>
        <time>2015-08-23T00:15:25Z</time>
      </trkpt>
      <trkpt lat="45.19712" lon="5.73141">
        <ele>222.2</ele>
        <time>2015-08-23T00:15:29Z</time>
      </trkpt>
      <trkpt lat="45.19709" lon="5.73138">
        <ele>222.1</ele>
        <time>2015-08-23T00:15:31Z</time>
      </trkpt>
      <trkpt lat="45.19703" lon="5.73134">
        <ele>222</ele>
        <time>2015-08-23T00:15:34Z</time>
      </trkpt>
      <trkpt lat="45.19692" lon="5.73125">
        <ele>221.8</ele>
        <time>2015-08-23T00:15:40Z</time>
      </trkpt>
      <trkpt lat="45.19681" lon="5.73125">
        <ele>221</ele>
        <time>2015-08-23T00:15:45Z</time>
      </trkpt>
      <trkpt lat="45.19678" lon="5.73122">
        <ele>221.1</ele>
        <time>2015-08-23T00:15:47Z</time>
      </trkpt>
      <trkpt lat="45.19674" lon="5.73116">
        <ele>221.4</ele>
        <time>2015-08-23T00:15:50Z</time>
      </trkpt>
      <trkpt lat="45.19674" lon="5.73116">
        <ele>221.4</ele>
        <time>2015-08-23T00:15:51Z</time>
      </trkpt>
      <trkpt lat="45.19666" lon="5.73103">
        <ele>221.6</ele>
        <time>2015-08-23T00:15:56Z</time>
      </trkpt>
      <trkpt lat="45.19659" lon="5.73091">
        <ele>221.6</ele>
        <time>2015-08-23T00:16:02Z</time>
      </trkpt>
      <trkpt lat="45.19653" lon="5.73076">
        <ele>221.5</ele>
        <time>2015-08-23T00:16:07Z</time>
      </trkpt>
      <trkpt lat="45.19645" lon="5.73069">
        <ele>220.2</ele>
        <time>2015-08-23T00:16:11Z</time>
      </trkpt>
      <trkpt lat="45.19643" lon="5.73066">
        <ele>219.9</ele>
        <time>2015-08-23T00:16:12Z</time>
      </trkpt>
      <trkpt lat="45.19633" lon="5.73056">
        <ele>217.9</ele>
        <time>2015-08-23T00:16:18Z</time>
      </trkpt>
      <trkpt lat="45.19629" lon="5.73055">
        <ele>217.1</ele>
        <time>2015-08-23T00:16:20Z</time>
      </trkpt>
      <trkpt lat="45.19624" lon="5.73048">
        <ele>216</ele>
        <time>2015-08-23T00:16:23Z</time>
      </trkpt>
      <trkpt lat="45.19613" lon="5.73038">
        <ele>215.8</ele>
        <time>2015-08-23T00:16:28Z</time>
      </trkpt>
      <trkpt lat="45.19607" lon="5.73026">
        <ele>216.8</ele>
        <time>2015-08-23T00:16:34Z</time>
      </trkpt>
      <trkpt lat="45.19602" lon="5.73019">
        <ele>217.2</ele>
        <time>2015-08-23T00:16:39Z</time>
      </trkpt>
      <trkpt lat="45.19597" lon="5.73006">
        <ele>218.2</ele>
        <time>2015-08-23T00:16:45Z</time>
      </trkpt>
      <trkpt lat="45.19593" lon="5.73005">
        <ele>217.9</ele>
        <time>2015-08-23T00:16:47Z</time>
      </trkpt>
      <trkpt lat="45.19592" lon="5.72997">
        <ele>218.4</ele>
        <time>2015-08-23T00:16:50Z</time>
      </trkpt>
      <trkpt lat="45.19587" lon="5.72989">
        <ele>218.7</ele>
        <time>2015-08-23T00:16:54Z</time>
      </trkpt>
      <trkpt lat="45.19585" lon="5.72987">
        <ele>218.7</ele>
        <time>2015-08-23T00:16:55Z</time>
      </trkpt>
      <trkpt lat="45.1957" lon="5.72982">
        <ele>217</ele>
        <time>2015-08-23T00:17:00Z</time>
      </trkpt>
      <trkpt lat="45.19561" lon="5.7297">
        <ele>216.5</ele>
        <time>2015-08-23T00:17:05Z</time>
      </trkpt>
      <trkpt lat="45.19553" lon="5.72947">
        <ele>217.6</ele>
        <time>2015-08-23T00:17:11Z</time>
      </trkpt>
      <trkpt lat="45.19548" lon="5.72935">
        <ele>218</ele>
        <time>2015-08-23T00:17:16Z</time>
      </trkpt>
      <trkpt lat="45.19539" lon="5.72921">
        <ele>217.8</ele>
        <time>2015-08-23T00:17:22Z</time>
      </trkpt>
      <trkpt lat="45.19537" lon="5.72913">
        <ele>218.4</ele>
        <time>2015-08-23T00:17:25Z</time>
      </trkpt>
      <trkpt lat="45.19535" lon="5.72911">
        <ele>218.4</ele>
        <time>2015-08-23T00:17:26Z</time>
      </trkpt>
      <trkpt lat="45.19523" lon="5.72905">
        <ele>217.9</ele>
        <time>2015-08-23T00:17:32Z</time>
      </trkpt>
      <trkpt lat="45.19514" lon="5.72896">
        <ele>217.5</ele>
        <time>2015-08-23T00:17:37Z</time>
      </trkpt>
      <trkpt lat="45.19505" lon="5.72882">
        <ele>217.3</ele>
        <time>2015-08-23T00:17:44Z</time>
      </trkpt>
      <trkpt lat="45.19501" lon="5.72876">
        <ele>217.1</ele>
        <time>2015-08-23T00:17:47Z</time>
      </trkpt>
      <trkpt lat="45.19498" lon="5.72871">
        <ele>217.3</ele>
        <time>2015-08-23T00:17:49Z</time>
      </trkpt>
      <trkpt lat="45.19488" lon="5.72869">
        <ele>215.9</ele>
        <time>2015-08-23T00:17:53Z</time>
      </trkpt>
      <trkpt lat="45.19476" lon="5.72871">
        <ele>213.8</ele>
        <time>2015-08-23T00:17:58Z</time>
      </trkpt>
      <trkpt lat="45.1947" lon="5.72878">
        <ele>212.7</ele>
        <time>2015-08-23T00:18:02Z</time>
      </trkpt>
      <trkpt lat="45.19469" lon="5.72879">
        <ele>212.4</ele>
        <time>2015-08-23T00:18:03Z</time>
      </trkpt>
      <trkpt lat="45.1946" lon="5.72888">
        <ele>211.2</ele>
        <time>2015-08-23T00:18:08Z</time>
      </trkpt>
      <trkpt lat="45.19451" lon="5.72897">
        <ele>211.7</ele>
        <time>2015-08-23T00:18:13Z</time>
      </trkpt>
      <trkpt lat="45.19439" lon="5.72908">
        <ele>212.8</ele>
        <time>2015-08-23T00:18:19Z</time>
      </trkpt>
      <trkpt lat="45.19427" lon="5.72921">
        <ele>213.9</ele>
        <time>2015-08-23T00:18:26Z</time>
      </trkpt>
      <trkpt lat="45.19416" lon="5.7293">
        <ele>214.9</ele>
        <time>2015-08-23T00:18:31Z</time>
      </trkpt>
      <trkpt lat="45.19408" lon="5.72938">
        <ele>215.7</ele>
        <time>2015-08-23T00:18:36Z</time>
      </trkpt>
      <trkpt lat="45.19399" lon="5.72948">
        <ele>216.6</ele>
        <time>2015-08-23T00:18:42Z</time>
      </trkpt>
      <trkpt lat="45.19388" lon="5.72956">
        <ele>217.8</ele>
        <time>2015-08-23T00:18:48Z</time>
      </trkpt>
      <trkpt lat="45.19384" lon="5.7296">
        <ele>218.3</ele>
        <time>2015-08-23T00:18:51Z</time>
      </trkpt>
      <trkpt lat="45.1938" lon="5.72962">
        <ele>218.7</ele>
        <time>2015-08-23T00:18:53Z</time>
      </trkpt>
      <trkpt lat="45.19377" lon="5.72964">
        <ele>219.1</ele>
        <time>2015-08-23T00:18:56Z</time>
      </trkpt>
      <trkpt lat="45.19378" lon="5.72968">
        <ele>219.3</ele>
        <time>2015-08-23T00:18:58Z</time>
      </trkpt>
      <trkpt lat="45.19375" lon="5.72968">
        <ele>219.6</ele>
        <time>2015-08-23T00:18:59Z</time>
      </trkpt>
      <trkpt lat="45.19374" lon="5.72969">
        <ele>219.7</ele>
        <time>2015-08-23T00:19:02Z</time>
      </trkpt>
      <trkpt lat="45.19374" lon="5.72973">
        <ele>219.9</ele>
        <time>2015-08-23T00:19:03Z</time>
      </trkpt>
      <trkpt lat="45.19367" lon="5.72986">
        <ele>220.9</ele>
        <time>2015-08-23T00:19:06Z</time>
      </trkpt>
      <trkpt lat="45.19366" lon="5.73005">
        <ele>221.9</ele>
        <time>2015-08-23T00:19:09Z</time>
      </trkpt>
      <trkpt lat="45.19366" lon="5.73009">
        <ele>222.1</ele>
        <time>2015-08-23T00:19:10Z</time>
      </trkpt>
      <trkpt lat="45.19367" lon="5.73022">
        <ele>222.9</ele>
        <time>2015-08-23T00:19:14Z</time>
      </trkpt>
      <trkpt lat="45.19366" lon="5.7304">
        <ele>223.8</ele>
        <time>2015-08-23T00:19:19Z</time>
      </trkpt>
      <trkpt lat="45.1936" lon="5.73058">
        <ele>223.7</ele>
        <time>2015-08-23T00:19:25Z</time>
      </trkpt>
      <trkpt lat="45.19361" lon="5.73061">
        <ele>223.7</ele>
        <time>2015-08-23T00:19:26Z</time>
      </trkpt>
      <trkpt lat="45.19363" lon="5.73069">
        <ele>223.7</ele>
        <time>2015-08-23T00:19:29Z</time>
      </trkpt>
      <trkpt lat="45.19359" lon="5.73076">
        <ele>223.6</ele>
        <time>2015-08-23T00:19:33Z</time>
      </trkpt>
      <trkpt lat="45.19358" lon="5.73092">
        <ele>223.6</ele>
        <time>2015-08-23T00:19:37Z</time>
      </trkpt>
      <trkpt lat="45.19352" lon="5.73105">
        <ele>223.6</ele>
        <time>2015-08-23T00:19:41Z</time>
      </trkpt>
      <trkpt lat="45.19352" lon="5.73122">
        <ele>223.6</ele>
        <time>2015-08-23T00:19:46Z</time>
      </trkpt>
      <trkpt lat="45.19344" lon="5.73129">
        <ele>223.6</ele>
        <time>2015-08-23T00:19:51Z</time>
      </trkpt>
      <trkpt lat="45.19334" lon="5.73142">
        <ele>223.5</ele>
        <time>2015-08-23T00:19:56Z</time>
      </trkpt>
      <trkpt lat="45.19325" lon="5.73153">
        <ele>223.2</ele>
        <time>2015-08-23T00:20:01Z</time>
      </trkpt>
      <trkpt lat="45.1932" lon="5.7316">
        <ele>223.1</ele>
        <time>2015-08-23T00:20:04Z</time>
      </trkpt>
      <trkpt lat="45.19318" lon="5.73165">
        <ele>222.9</ele>
        <time>2015-08-23T00:20:06Z</time>
      </trkpt>
      <trkpt lat="45.19319" lon="5.73176">
        <ele>222.5</ele>
        <time>2015-08-23T00:20:11Z</time>
      </trkpt>
      <trkpt lat="45.19317" lon="5.7318">
        <ele>222.3</ele>
        <time>2015-08-23T00:20:13Z</time>
      </trkpt>
      <trkpt lat="45.19313" lon="5.73179">
        <ele>222.4</ele>
        <time>2015-08-23T00:20:16Z</time>
      </trkpt>
      <trkpt lat="45.19304" lon="5.73171">
        <ele>222.7</ele>
        <time>2015-08-23T00:20:20Z</time>
      </trkpt>
      <trkpt lat="45.19302" lon="5.73169">
        <ele>222.8</ele>
        <time>2015-08-23T00:20:21Z</time>
      </trkpt>
      <trkpt lat="45.19288" lon="5.73166">
        <ele>222.9</ele>
        <time>2015-08-23T00:20:27Z</time>
      </trkpt>
      <trkpt lat="45.19277" lon="5.73156">
        <ele>223.1</ele>
        <time>2015-08-23T00:20:33Z</time>
      </trkpt>
      <trkpt lat="45.19273" lon="5.73146">
        <ele>223.4</ele>
        <time>2015-08-23T00:20:38Z</time>
      </trkpt>
      <trkpt lat="45.19265" lon="5.73142">
        <ele>223.3</ele>
        <time>2015-08-23T00:20:42Z</time>
      </trkpt>
      <trkpt lat="45.19259" lon="5.73142">
        <ele>223.1</ele>
        <time>2015-08-23T00:20:45Z</time>
      </trkpt>
      <trkpt lat="45.19254" lon="5.73142">
        <ele>222.9</ele>
        <time>2015-08-23T00:20:47Z</time>
      </trkpt>
      <trkpt lat="45.19244" lon="5.7315">
        <ele>222.3</ele>
        <time>2015-08-23T00:20:51Z</time>
      </trkpt>
      <trkpt lat="45.19244" lon="5.73154">
        <ele>222.1</ele>
        <time>2015-08-23T00:20:52Z</time>
      </trkpt>
      <trkpt lat="45.19232" lon="5.73169">
        <ele>221.1</ele>
        <time>2015-08-23T00:20:58Z</time>
      </trkpt>
      <trkpt lat="45.19217" lon="5.73199">
        <ele>219.5</ele>
        <time>2015-08-23T00:21:08Z</time>
      </trkpt>
      <trkpt lat="45.19209" lon="5.73184">
        <ele>219.9</ele>
        <time>2015-08-23T00:21:10Z</time>
      </trkpt>
      <trkpt lat="45.19207" lon="5.73182">
        <ele>219.9</ele>
        <time>2015-08-23T00:21:11Z</time>
      </trkpt>
      <trkpt lat="45.19207" lon="5.73189">
        <ele>219.7</ele>
        <time>2015-08-23T00:21:15Z</time>
      </trkpt>
      <trkpt lat="45.19208" lon="5.7319">
        <ele>219.7</ele>
        <time>2015-08-23T00:21:16Z</time>
      </trkpt>
      <trkpt lat="45.19207" lon="5.73197">
        <ele>219.4</ele>
        <time>2015-08-23T00:21:19Z</time>
      </trkpt>
      <trkpt lat="45.19204" lon="5.73198">
        <ele>219.2</ele>
        <time>2015-08-23T00:21:20Z</time>
      </trkpt>
      <trkpt lat="45.19197" lon="5.73199">
        <ele>219</ele>
        <time>2015-08-23T00:21:25Z</time>
      </trkpt>
      <trkpt lat="45.19192" lon="5.73202">
        <ele>218.8</ele>
        <time>2015-08-23T00:21:29Z</time>
      </trkpt>
      <trkpt lat="45.19187" lon="5.73203">
        <ele>218.7</ele>
        <time>2015-08-23T00:21:30Z</time>
      </trkpt>
      <trkpt lat="45.1918" lon="5.73203">
        <ele>218.5</ele>
        <time>2015-08-23T00:21:32Z</time>
      </trkpt>
      <trkpt lat="45.19172" lon="5.73201">
        <ele>218.3</ele>
        <time>2015-08-23T00:21:34Z</time>
      </trkpt>
      <trkpt lat="45.19154" lon="5.73218">
        <ele>217.9</ele>
        <time>2015-08-23T00:21:40Z</time>
      </trkpt>
      <trkpt lat="45.1915" lon="5.73226">
        <ele>218</ele>
        <time>2015-08-23T00:21:42Z</time>
      </trkpt>
      <trkpt lat="45.19145" lon="5.73241">
        <ele>218.4</ele>
        <time>2015-08-23T00:21:45Z</time>
      </trkpt>
      <trkpt lat="45.19141" lon="5.73242">
        <ele>218.3</ele>
        <time>2015-08-23T00:21:49Z</time>
      </trkpt>
      <trkpt lat="45.19138" lon="5.7324">
        <ele>218.3</ele>
        <time>2015-08-23T00:21:50Z</time>
      </trkpt>
      <trkpt lat="45.19135" lon="5.73242">
        <ele>218.3</ele>
        <time>2015-08-23T00:21:54Z</time>
      </trkpt>
      <trkpt lat="45.19134" lon="5.73245">
        <ele>218.4</ele>
        <time>2015-08-23T00:21:55Z</time>
      </trkpt>
      <trkpt lat="45.19127" lon="5.7325">
        <ele>218.5</ele>
        <time>2015-08-23T00:21:59Z</time>
      </trkpt>
      <trkpt lat="45.19122" lon="5.73262">
        <ele>218.9</ele>
        <time>2015-08-23T00:22:05Z</time>
      </trkpt>
      <trkpt lat="45.19118" lon="5.73276">
        <ele>219.4</ele>
        <time>2015-08-23T00:22:10Z</time>
      </trkpt>
      <trkpt lat="45.19111" lon="5.73285">
        <ele>219.6</ele>
        <time>2015-08-23T00:22:15Z</time>
      </trkpt>
      <trkpt lat="45.191" lon="5.73287">
        <ele>219.5</ele>
        <time>2015-08-23T00:22:19Z</time>
      </trkpt>
      <trkpt lat="45.19097" lon="5.73289">
        <ele>219.6</ele>
        <time>2015-08-23T00:22:20Z</time>
      </trkpt>
      <trkpt lat="45.19087" lon="5.73292">
        <ele>219.5</ele>
        <time>2015-08-23T00:22:24Z</time>
      </trkpt>
      <trkpt lat="45.19074" lon="5.73301">
        <ele>219.5</ele>
        <time>2015-08-23T00:22:29Z</time>
      </trkpt>
      <trkpt lat="45.19065" lon="5.73304">
        <ele>219.4</ele>
        <time>2015-08-23T00:22:34Z</time>
      </trkpt>
      <trkpt lat="45.19063" lon="5.73306">
        <ele>219.4</ele>
        <time>2015-08-23T00:22:35Z</time>
      </trkpt>
      <trkpt lat="45.19058" lon="5.73311">
        <ele>219.3</ele>
        <time>2015-08-23T00:22:38Z</time>
      </trkpt>
      <trkpt lat="45.19047" lon="5.7332">
        <ele>219.1</ele>
        <time>2015-08-23T00:22:43Z</time>
      </trkpt>
      <trkpt lat="45.19035" lon="5.73325">
        <ele>219</ele>
        <time>2015-08-23T00:22:49Z</time>
      </trkpt>
      <trkpt lat="45.1903" lon="5.7333">
        <ele>218.9</ele>
        <time>2015-08-23T00:22:53Z</time>
      </trkpt>
      <trkpt lat="45.19019" lon="5.73343">
        <ele>218.9</ele>
        <time>2015-08-23T00:22:59Z</time>
      </trkpt>
      <trkpt lat="45.19006" lon="5.73368">
        <ele>219</ele>
        <time>2015-08-23T00:23:04Z</time>
      </trkpt>
      <trkpt lat="45.19" lon="5.73377">
        <ele>219</ele>
        <time>2015-08-23T00:23:05Z</time>
      </trkpt>
      <trkpt lat="45.18993" lon="5.73369">
        <ele>219</ele>
        <time>2015-08-23T00:23:09Z</time>
      </trkpt>
      <trkpt lat="45.18978" lon="5.73372">
        <ele>219</ele>
        <time>2015-08-23T00:23:15Z</time>
      </trkpt>
      <trkpt lat="45.18965" lon="5.73383">
        <ele>218.8</ele>
        <time>2015-08-23T00:23:21Z</time>
      </trkpt>
      <trkpt lat="45.1895" lon="5.73387">
        <ele>218.4</ele>
        <time>2015-08-23T00:23:26Z</time>
      </trkpt>
      <trkpt lat="45.18948" lon="5.73398">
        <ele>218.1</ele>
        <time>2015-08-23T00:23:30Z</time>
      </trkpt>
      <trkpt lat="45.18948" lon="5.73401">
        <ele>218</ele>
        <time>2015-08-23T00:23:31Z</time>
      </trkpt>
      <trkpt lat="45.18943" lon="5.73415">
        <ele>217.6</ele>
        <time>2015-08-23T00:23:37Z</time>
      </trkpt>
      <trkpt lat="45.1895" lon="5.73426">
        <ele>217.6</ele>
        <time>2015-08-23T00:23:41Z</time>
      </trkpt>
      <trkpt lat="45.18952" lon="5.7343">
        <ele>217.5</ele>
        <time>2015-08-23T00:23:42Z</time>
      </trkpt>
      <trkpt lat="45.18958" lon="5.73437">
        <ele>217.5</ele>
        <time>2015-08-23T00:23:45Z</time>
      </trkpt>
      <trkpt lat="45.1896" lon="5.73441">
        <ele>217.5</ele>
        <time>2015-08-23T00:23:47Z</time>
      </trkpt>
      <trkpt lat="45.1896" lon="5.73444">
        <ele>217.4</ele>
        <time>2015-08-23T00:23:48Z</time>
      </trkpt>
      <trkpt lat="45.1896" lon="5.73452">
        <ele>217.2</ele>
        <time>2015-08-23T00:23:51Z</time>
      </trkpt>
      <trkpt lat="45.18961" lon="5.73462">
        <ele>217.1</ele>
        <time>2015-08-23T00:23:56Z</time>
      </trkpt>
      <trkpt lat="45.18965" lon="5.73478">
        <ele>217.4</ele>
        <time>2015-08-23T00:24:02Z</time>
      </trkpt>
      <trkpt lat="45.18968" lon="5.73481">
        <ele>217.5</ele>
        <time>2015-08-23T00:24:03Z</time>
      </trkpt>
      <trkpt lat="45.18981" lon="5.73488">
        <ele>217.8</ele>
        <time>2015-08-23T00:24:08Z</time>
      </trkpt>
      <trkpt lat="45.18993" lon="5.73497">
        <ele>217.9</ele>
        <time>2015-08-23T00:24:13Z</time>
      </trkpt>
      <trkpt lat="45.18991" lon="5.73508">
        <ele>217.8</ele>
        <time>2015-08-23T00:24:18Z</time>
      </trkpt>
      <trkpt lat="45.19001" lon="5.73521">
        <ele>217.8</ele>
        <time>2015-08-23T00:24:23Z</time>
      </trkpt>
      <trkpt lat="45.19003" lon="5.73524">
        <ele>217.7</ele>
        <time>2015-08-23T00:24:24Z</time>
      </trkpt>
      <trkpt lat="45.19011" lon="5.73539">
        <ele>217.4</ele>
        <time>2015-08-23T00:24:29Z</time>
      </trkpt>
      <trkpt lat="45.19019" lon="5.73556">
        <ele>216.9</ele>
        <time>2015-08-23T00:24:34Z</time>
      </trkpt>
      <trkpt lat="45.19028" lon="5.73576">
        <ele>216.1</ele>
        <time>2015-08-23T00:24:40Z</time>
      </trkpt>
      <trkpt lat="45.19028" lon="5.73598">
        <ele>215.4</ele>
        <time>2015-08-23T00:24:46Z</time>
      </trkpt>
      <trkpt lat="45.19024" lon="5.73612">
        <ele>215</ele>
        <time>2015-08-23T00:24:50Z</time>
      </trkpt>
      <trkpt lat="45.19027" lon="5.73616">
        <ele>214.8</ele>
        <time>2015-08-23T00:24:52Z</time>
      </trkpt>
      <trkpt lat="45.19018" lon="5.73623">
        <ele>214.9</ele>
        <time>2015-08-23T00:24:56Z</time>
      </trkpt>
      <trkpt lat="45.19017" lon="5.73628">
        <ele>215</ele>
        <time>2015-08-23T00:24:59Z</time>
      </trkpt>
      <trkpt lat="45.19011" lon="5.73631">
        <ele>215.3</ele>
        <time>2015-08-23T00:25:01Z</time>
      </trkpt>
      <trkpt lat="45.18995" lon="5.73644">
        <ele>216.1</ele>
        <time>2015-08-23T00:25:06Z</time>
      </trkpt>
      <trkpt lat="45.18981" lon="5.7366">
        <ele>216.8</ele>
        <time>2015-08-23T00:25:11Z</time>
      </trkpt>
      <trkpt lat="45.18971" lon="5.7367">
        <ele>217.2</ele>
        <time>2015-08-23T00:25:16Z</time>
      </trkpt>
      <trkpt lat="45.18962" lon="5.73685">
        <ele>217.7</ele>
        <time>2015-08-23T00:25:21Z</time>
      </trkpt>
      <trkpt lat="45.18951" lon="5.73695">
        <ele>217.7</ele>
        <time>2015-08-23T00:25:27Z</time>
      </trkpt>
      <trkpt lat="45.1894" lon="5.73693">
        <ele>217.5</ele>
        <time>2015-08-23T00:25:33Z</time>
      </trkpt>
      <trkpt lat="45.18938" lon="5.73696">
        <ele>217.5</ele>
        <time>2015-08-23T00:25:34Z</time>
      </trkpt>
      <trkpt lat="45.18932" lon="5.73699">
        <ele>217.4</ele>
        <time>2015-08-23T00:25:37Z</time>
      </trkpt>
      <trkpt lat="45.18922" lon="5.737">
        <ele>217.2</ele>
        <time>2015-08-23T00:25:42Z</time>
      </trkpt>
      <trkpt lat="45.1892" lon="5.73701">
        <ele>217.2</ele>
        <time>2015-08-23T00:25:43Z</time>
      </trkpt>
      <trkpt lat="45.18914" lon="5.73702">
        <ele>217</ele>
        <time>2015-08-23T00:25:48Z</time>
      </trkpt>
      <trkpt lat="45.18908" lon="5.73708">
        <ele>216.8</ele>
        <time>2015-08-23T00:25:54Z</time>
      </trkpt>
      <trkpt lat="45.18907" lon="5.73709">
        <ele>216.8</ele>
        <time>2015-08-23T00:25:55Z</time>
      </trkpt>
      <trkpt lat="45.18906" lon="5.73712">
        <ele>216.8</ele>
        <time>2015-08-23T00:25:56Z</time>
      </trkpt>
      <trkpt lat="45.18906" lon="5.73718">
        <ele>217</ele>
        <time>2015-08-23T00:25:59Z</time>
      </trkpt>
      <trkpt lat="45.18908" lon="5.73728">
        <ele>217.2</ele>
        <time>2015-08-23T00:26:04Z</time>
      </trkpt>
      <trkpt lat="45.18906" lon="5.73728">
        <ele>217.2</ele>
        <time>2015-08-23T00:26:05Z</time>
      </trkpt>
      <trkpt lat="45.18904" lon="5.73729">
        <ele>217.2</ele>
        <time>2015-08-23T00:26:06Z</time>
      </trkpt>
      <trkpt lat="45.18896" lon="5.73733">
        <ele>217.2</ele>
        <time>2015-08-23T00:26:08Z</time>
      </trkpt>
      <trkpt lat="45.18885" lon="5.73737">
        <ele>217.1</ele>
        <time>2015-08-23T00:26:11Z</time>
      </trkpt>
      <trkpt lat="45.18876" lon="5.73739">
        <ele>217.1</ele>
        <time>2015-08-23T00:26:13Z</time>
      </trkpt>
      <trkpt lat="45.18862" lon="5.73744">
        <ele>217.1</ele>
        <time>2015-08-23T00:26:17Z</time>
      </trkpt>
      <trkpt lat="45.18847" lon="5.73749">
        <ele>217</ele>
        <time>2015-08-23T00:26:22Z</time>
      </trkpt>
      <trkpt lat="45.18836" lon="5.73755">
        <ele>216.9</ele>
        <time>2015-08-23T00:26:28Z</time>
      </trkpt>
      <trkpt lat="45.18823" lon="5.73764">
        <ele>216.7</ele>
        <time>2015-08-23T00:26:33Z</time>
      </trkpt>
      <trkpt lat="45.1881" lon="5.73769">
        <ele>216.5</ele>
        <time>2015-08-23T00:26:38Z</time>
      </trkpt>
      <trkpt lat="45.188" lon="5.73777">
        <ele>216.2</ele>
        <time>2015-08-23T00:26:43Z</time>
      </trkpt>
      <trkpt lat="45.18797" lon="5.73789">
        <ele>216.2</ele>
        <time>2015-08-23T00:26:47Z</time>
      </trkpt>
      <trkpt lat="45.18794" lon="5.73804">
        <ele>216.2</ele>
        <time>2015-08-23T00:26:52Z</time>
      </trkpt>
      <trkpt lat="45.18791" lon="5.73813">
        <ele>216.3</ele>
        <time>2015-08-23T00:26:57Z</time>
      </trkpt>
      <trkpt lat="45.18799" lon="5.73828">
        <ele>216.8</ele>
        <time>2015-08-23T00:27:02Z</time>
      </trkpt>
      <trkpt lat="45.18799" lon="5.73835">
        <ele>216.9</ele>
        <time>2015-08-23T00:27:06Z</time>
      </trkpt>
      <trkpt lat="45.188" lon="5.73834">
        <ele>217</ele>
        <time>2015-08-23T00:27:07Z</time>
      </trkpt>
      <trkpt lat="45.18801" lon="5.73832">
        <ele>217</ele>
        <time>2015-08-23T00:27:08Z</time>
      </trkpt>
      <trkpt lat="45.18801" lon="5.73831">
        <ele>217</ele>
        <time>2015-08-23T00:27:12Z</time>
      </trkpt>
      <trkpt lat="45.18801" lon="5.73834">
        <ele>217.1</ele>
        <time>2015-08-23T00:27:14Z</time>
      </trkpt>
      <trkpt lat="45.18804" lon="5.73835">
        <ele>217.3</ele>
        <time>2015-08-23T00:27:17Z</time>
      </trkpt>
      <trkpt lat="45.18802" lon="5.73832">
        <ele>217.1</ele>
        <time>2015-08-23T00:27:20Z</time>
      </trkpt>
      <trkpt lat="45.18801" lon="5.73834">
        <ele>217.1</ele>
        <time>2015-08-23T00:27:24Z</time>
      </trkpt>
      <trkpt lat="45.18805" lon="5.7384">
        <ele>217.5</ele>
        <time>2015-08-23T00:27:28Z</time>
      </trkpt>
      <trkpt lat="45.18804" lon="5.73841">
        <ele>217.4</ele>
        <time>2015-08-23T00:27:29Z</time>
      </trkpt>
      <trkpt lat="45.18793" lon="5.73847">
        <ele>216.8</ele>
        <time>2015-08-23T00:27:34Z</time>
      </trkpt>
      <trkpt lat="45.18781" lon="5.73849">
        <ele>216.8</ele>
        <time>2015-08-23T00:27:39Z</time>
      </trkpt>
      <trkpt lat="45.18773" lon="5.73846">
        <ele>216.8</ele>
        <time>2015-08-23T00:27:43Z</time>
      </trkpt>
      <trkpt lat="45.18769" lon="5.73843">
        <ele>216.8</ele>
        <time>2015-08-23T00:27:45Z</time>
      </trkpt>
      <trkpt lat="45.18757" lon="5.73828">
        <ele>216.9</ele>
        <time>2015-08-23T00:27:52Z</time>
      </trkpt>
      <trkpt lat="45.18749" lon="5.73812">
        <ele>217</ele>
        <time>2015-08-23T00:27:58Z</time>
      </trkpt>
      <trkpt lat="45.18741" lon="5.73792">
        <ele>217.2</ele>
        <time>2015-08-23T00:28:06Z</time>
      </trkpt>
      <trkpt lat="45.18733" lon="5.7378">
        <ele>217.4</ele>
        <time>2015-08-23T00:28:11Z</time>
      </trkpt>
      <trkpt lat="45.18725" lon="5.73763">
        <ele>217.6</ele>
        <time>2015-08-23T00:28:16Z</time>
      </trkpt>
      <trkpt lat="45.18722" lon="5.73761">
        <ele>217.7</ele>
        <time>2015-08-23T00:28:17Z</time>
      </trkpt>
      <trkpt lat="45.18712" lon="5.73758">
        <ele>217.9</ele>
        <time>2015-08-23T00:28:21Z</time>
      </trkpt>
      <trkpt lat="45.18699" lon="5.73761">
        <ele>217.8</ele>
        <time>2015-08-23T00:28:27Z</time>
      </trkpt>
      <trkpt lat="45.18682" lon="5.73764">
        <ele>217.4</ele>
        <time>2015-08-23T00:28:34Z</time>
      </trkpt>
      <trkpt lat="45.18668" lon="5.73768">
        <ele>217</ele>
        <time>2015-08-23T00:28:39Z</time>
      </trkpt>
      <trkpt lat="45.18657" lon="5.73773">
        <ele>216.6</ele>
        <time>2015-08-23T00:28:44Z</time>
      </trkpt>
      <trkpt lat="45.18644" lon="5.7378">
        <ele>216</ele>
        <time>2015-08-23T00:28:50Z</time>
      </trkpt>
      <trkpt lat="45.18632" lon="5.73785">
        <ele>215.5</ele>
        <time>2015-08-23T00:28:55Z</time>
      </trkpt>
      <trkpt lat="45.18618" lon="5.73792">
        <ele>214.9</ele>
        <time>2015-08-23T00:29:01Z</time>
      </trkpt>
      <trkpt lat="45.18607" lon="5.73796">
        <ele>215</ele>
        <time>2015-08-23T00:29:06Z</time>
      </trkpt>
      <trkpt lat="45.186" lon="5.73811">
        <ele>215.6</ele>
        <time>2015-08-23T00:29:12Z</time>
      </trkpt>
      <trkpt lat="45.186" lon="5.73822">
        <ele>216.1</ele>
        <time>2015-08-23T00:29:16Z</time>
      </trkpt>
      <trkpt lat="45.18599" lon="5.73826">
        <ele>216.2</ele>
        <time>2015-08-23T00:29:17Z</time>
      </trkpt>
      <trkpt lat="45.18594" lon="5.73838">
        <ele>216.6</ele>
        <time>2015-08-23T00:29:21Z</time>
      </trkpt>
      <trkpt lat="45.18593" lon="5.73842">
        <ele>216.7</ele>
        <time>2015-08-23T00:29:22Z</time>
      </trkpt>
      <trkpt lat="45.18593" lon="5.73852">
        <ele>217.1</ele>
        <time>2015-08-23T00:29:26Z</time>
      </trkpt>
      <trkpt lat="45.18594" lon="5.73862">
        <ele>217.6</ele>
        <time>2015-08-23T00:29:30Z</time>
      </trkpt>
      <trkpt lat="45.18594" lon="5.73865">
        <ele>217.7</ele>
        <time>2015-08-23T00:29:31Z</time>
      </trkpt>
      <trkpt lat="45.18592" lon="5.7387">
        <ele>217.8</ele>
        <time>2015-08-23T00:29:33Z</time>
      </trkpt>
      <trkpt lat="45.18589" lon="5.73879">
        <ele>217.9</ele>
        <time>2015-08-23T00:29:36Z</time>
      </trkpt>
      <trkpt lat="45.18587" lon="5.73881">
        <ele>217.8</ele>
        <time>2015-08-23T00:29:37Z</time>
      </trkpt>
      <trkpt lat="45.18584" lon="5.73889">
        <ele>217.6</ele>
        <time>2015-08-23T00:29:40Z</time>
      </trkpt>
      <trkpt lat="45.18583" lon="5.73905">
        <ele>217.7</ele>
        <time>2015-08-23T00:29:44Z</time>
      </trkpt>
      <trkpt lat="45.18582" lon="5.73913">
        <ele>217.6</ele>
        <time>2015-08-23T00:29:46Z</time>
      </trkpt>
      <trkpt lat="45.18574" lon="5.73923">
        <ele>217.2</ele>
        <time>2015-08-23T00:29:50Z</time>
      </trkpt>
      <trkpt lat="45.18561" lon="5.73936">
        <ele>216.3</ele>
        <time>2015-08-23T00:29:55Z</time>
      </trkpt>
      <trkpt lat="45.18548" lon="5.73944">
        <ele>215.5</ele>
        <time>2015-08-23T00:30:00Z</time>
      </trkpt>
      <trkpt lat="45.18543" lon="5.73948">
        <ele>215.1</ele>
        <time>2015-08-23T00:30:04Z</time>
      </trkpt>
      <trkpt lat="45.18542" lon="5.73949">
        <ele>215</ele>
        <time>2015-08-23T00:30:06Z</time>
      </trkpt>
      <trkpt lat="45.18543" lon="5.7395">
        <ele>215.1</ele>
        <time>2015-08-23T00:30:09Z</time>
      </trkpt>
    </trkseg>
  </trk>
</gpx>